<?xml version='1.0' encoding='UTF-8'?><gpx version="1.1" creator="JPX - https://github.com/jenetics/jpx" xmlns="http://www.topografix.com/GPX/1/1"><trk><trkseg><trkpt lat="46.1637621" lon="13.2570048"><ele>166.0</ele><time>2026-04-17T13:31:37.18Z</time></trkpt><trkpt lat="46.1637867" lon="13.2571826"><ele>166.0</ele><time>2026-04-17T13:31:38.181Z</time></trkpt><trkpt lat="46.1638102" lon="13.2573709"><ele>166.0</ele><time>2026-04-17T13:31:39.18Z</time></trkpt><trkpt lat="46.1638327" lon="13.2575593"><ele>166.0</ele><time>2026-04-17T13:31:40.181Z</time></trkpt><trkpt lat="46.1638645" lon="13.2577572"><ele>165.0</ele><time>2026-04-17T13:31:41.18Z</time></trkpt><trkpt lat="46.1639189" lon="13.2581728"><ele>164.0</ele><time>2026-04-17T13:31:43.18Z</time></trkpt><trkpt lat="46.1639472" lon="13.2584014"><ele>164.0</ele><time>2026-04-17T13:31:44.181Z</time></trkpt><trkpt lat="46.1639827" lon="13.258627"><ele>164.0</ele><time>2026-04-17T13:31:45.181Z</time></trkpt><trkpt lat="46.1640124" lon="13.2588562"><ele>164.0</ele><time>2026-04-17T13:31:46.18Z</time></trkpt><trkpt lat="46.1640443" lon="13.2590958"><ele>165.66666666666666</ele><time>2026-04-17T13:31:47.181Z</time></trkpt><trkpt lat="46.1640786" lon="13.2593383"><ele>167.33333333333334</ele><time>2026-04-17T13:31:48.18Z</time></trkpt><trkpt lat="46.1641114" lon="13.2595647"><ele>169.0</ele><time>2026-04-17T13:31:49.18Z</time></trkpt><trkpt lat="46.1641434" lon="13.2597782"><ele>168.5</ele><time>2026-04-17T13:31:50.18Z</time></trkpt><trkpt lat="46.1641733" lon="13.2599718"><ele>168.0</ele><time>2026-04-17T13:31:51.181Z</time></trkpt><trkpt lat="46.1642001" lon="13.2601499"><ele>167.5</ele><time>2026-04-17T13:31:52.181Z</time></trkpt><trkpt lat="46.1642253" lon="13.2603259"><ele>167.0</ele><time>2026-04-17T13:31:53.181Z</time></trkpt><trkpt lat="46.164252" lon="13.2605034"><ele>166.5</ele><time>2026-04-17T13:31:54.181Z</time></trkpt><trkpt lat="46.1642752" lon="13.2606921"><ele>166.0</ele><time>2026-04-17T13:31:55.18Z</time></trkpt><trkpt lat="46.1643001" lon="13.2608873"><ele>165.5</ele><time>2026-04-17T13:31:56.181Z</time></trkpt><trkpt lat="46.164325" lon="13.2611028"><ele>165.0</ele><time>2026-04-17T13:31:57.181Z</time></trkpt><trkpt lat="46.1643545" lon="13.2613028"><ele>165.0</ele><time>2026-04-17T13:31:58.18Z</time></trkpt><trkpt lat="46.1643782" lon="13.2614862"><ele>165.0</ele><time>2026-04-17T13:31:59.181Z</time></trkpt><trkpt lat="46.1643954" lon="13.2616514"><ele>165.0</ele><time>2026-04-17T13:32:00.181Z</time></trkpt><trkpt lat="46.1644139" lon="13.2618108"><ele>165.0</ele><time>2026-04-17T13:32:01.181Z</time></trkpt><trkpt lat="46.1644364" lon="13.2619493"><ele>165.0</ele><time>2026-04-17T13:32:02.181Z</time></trkpt><trkpt lat="46.1644666" lon="13.2621905"><ele>165.0</ele><time>2026-04-17T13:32:04.181Z</time></trkpt><trkpt lat="46.1644857" lon="13.2623427"><ele>165.0</ele><time>2026-04-17T13:32:06.181Z</time></trkpt><trkpt lat="46.1644474" lon="13.2624288"><ele>165.0</ele><time>2026-04-17T13:32:08.18Z</time></trkpt><trkpt lat="46.1643849" lon="13.2624672"><ele>165.0</ele><time>2026-04-17T13:32:09.181Z</time></trkpt><trkpt lat="46.164287" lon="13.2625157"><ele>165.33333333333334</ele><time>2026-04-17T13:32:10.181Z</time></trkpt><trkpt lat="46.1641416" lon="13.262556"><ele>165.66666666666669</ele><time>2026-04-17T13:32:11.181Z</time></trkpt><trkpt lat="46.1639731" lon="13.2626103"><ele>166.0</ele><time>2026-04-17T13:32:12.181Z</time></trkpt><trkpt lat="46.1638017" lon="13.2626749"><ele>166.0</ele><time>2026-04-17T13:32:13.18Z</time></trkpt><trkpt lat="46.1636356" lon="13.262737"><ele>166.0</ele><time>2026-04-17T13:32:14.181Z</time></trkpt><trkpt lat="46.1634714" lon="13.2627975"><ele>166.0</ele><time>2026-04-17T13:32:15.18Z</time></trkpt><trkpt lat="46.1633117" lon="13.2628676"><ele>165.66666666666669</ele><time>2026-04-17T13:32:16.181Z</time></trkpt><trkpt lat="46.1631463" lon="13.262936"><ele>165.33333333333334</ele><time>2026-04-17T13:32:17.18Z</time></trkpt><trkpt lat="46.1629863" lon="13.2630026"><ele>165.0</ele><time>2026-04-17T13:32:18.18Z</time></trkpt><trkpt lat="46.1628224" lon="13.2630677"><ele>165.33333333333334</ele><time>2026-04-17T13:32:19.181Z</time></trkpt><trkpt lat="46.1626579" lon="13.2631417"><ele>165.66666666666669</ele><time>2026-04-17T13:32:20.181Z</time></trkpt><trkpt lat="46.1625037" lon="13.2632245"><ele>166.0</ele><time>2026-04-17T13:32:21.181Z</time></trkpt><trkpt lat="46.162342" lon="13.2633154"><ele>165.0</ele><time>2026-04-17T13:32:22.181Z</time></trkpt><trkpt lat="46.1621779" lon="13.263421"><ele>164.0</ele><time>2026-04-17T13:32:23.181Z</time></trkpt><trkpt lat="46.1618692" lon="13.2636232"><ele>164.0</ele><time>2026-04-17T13:32:25.181Z</time></trkpt><trkpt lat="46.1617483" lon="13.2637233"><ele>164.0</ele><time>2026-04-17T13:32:26.18Z</time></trkpt><trkpt lat="46.1616434" lon="13.2637926"><ele>164.0</ele><time>2026-04-17T13:32:27.181Z</time></trkpt><trkpt lat="46.1615334" lon="13.2638459"><ele>164.0</ele><time>2026-04-17T13:32:28.18Z</time></trkpt><trkpt lat="46.1613989" lon="13.2638812"><ele>163.33333333333331</ele><time>2026-04-17T13:32:29.18Z</time></trkpt><trkpt lat="46.1612453" lon="13.263896"><ele>162.66666666666666</ele><time>2026-04-17T13:32:30.181Z</time></trkpt><trkpt lat="46.1610841" lon="13.2639122"><ele>162.0</ele><time>2026-04-17T13:32:31.181Z</time></trkpt><trkpt lat="46.1609255" lon="13.263915"><ele>162.0</ele><time>2026-04-17T13:32:32.18Z</time></trkpt><trkpt lat="46.1607667" lon="13.2639033"><ele>162.0</ele><time>2026-04-17T13:32:33.18Z</time></trkpt><trkpt lat="46.1606255" lon="13.2639038"><ele>162.0</ele><time>2026-04-17T13:32:34.181Z</time></trkpt><trkpt lat="46.1604905" lon="13.2639248"><ele>162.0</ele><time>2026-04-17T13:32:35.181Z</time></trkpt><trkpt lat="46.1603671" lon="13.2639421"><ele>162.2</ele><time>2026-04-17T13:32:36.18Z</time></trkpt><trkpt lat="46.1602664" lon="13.2639533"><ele>162.39999999999998</ele><time>2026-04-17T13:32:37.181Z</time></trkpt><trkpt lat="46.1601885" lon="13.2639701"><ele>162.60000000000002</ele><time>2026-04-17T13:32:38.18Z</time></trkpt><trkpt lat="46.1601122" lon="13.2640595"><ele>162.8</ele><time>2026-04-17T13:32:40.18Z</time></trkpt><trkpt lat="46.1601058" lon="13.2642307"><ele>163.0</ele><time>2026-04-17T13:32:42.18Z</time></trkpt><trkpt lat="46.1600628" lon="13.264377"><ele>163.0</ele><time>2026-04-17T13:32:44.179Z</time></trkpt><trkpt lat="46.1599168" lon="13.2644932"><ele>163.0</ele><time>2026-04-17T13:32:46.179Z</time></trkpt><trkpt lat="46.1598263" lon="13.2645184"><ele>163.0</ele><time>2026-04-17T13:32:47.18Z</time></trkpt><trkpt lat="46.159737" lon="13.2645156"><ele>163.0</ele><time>2026-04-17T13:32:48.179Z</time></trkpt><trkpt lat="46.1596355" lon="13.2644729"><ele>162.66666666666669</ele><time>2026-04-17T13:32:49.18Z</time></trkpt><trkpt lat="46.1595063" lon="13.2643966"><ele>162.33333333333334</ele><time>2026-04-17T13:32:50.18Z</time></trkpt><trkpt lat="46.1593502" lon="13.2643265"><ele>162.0</ele><time>2026-04-17T13:32:51.18Z</time></trkpt><trkpt lat="46.1591928" lon="13.2642667"><ele>162.0</ele><time>2026-04-17T13:32:52.18Z</time></trkpt><trkpt lat="46.1590464" lon="13.2642055"><ele>162.0</ele><time>2026-04-17T13:32:53.179Z</time></trkpt><trkpt lat="46.1589089" lon="13.2641396"><ele>162.0</ele><time>2026-04-17T13:32:54.18Z</time></trkpt><trkpt lat="46.1587726" lon="13.2640839"><ele>162.0</ele><time>2026-04-17T13:32:55.18Z</time></trkpt><trkpt lat="46.1586391" lon="13.2640689"><ele>162.25</ele><time>2026-04-17T13:32:56.18Z</time></trkpt><trkpt lat="46.1585041" lon="13.2640743"><ele>162.5</ele><time>2026-04-17T13:32:57.18Z</time></trkpt><trkpt lat="46.1583665" lon="13.2640734"><ele>162.75</ele><time>2026-04-17T13:32:58.179Z</time></trkpt><trkpt lat="46.158242" lon="13.2640441"><ele>163.0</ele><time>2026-04-17T13:32:59.18Z</time></trkpt><trkpt lat="46.1581249" lon="13.2639971"><ele>162.25</ele><time>2026-04-17T13:33:00.179Z</time></trkpt><trkpt lat="46.158006" lon="13.2639322"><ele>161.5</ele><time>2026-04-17T13:33:01.18Z</time></trkpt><trkpt lat="46.1578733" lon="13.2638715"><ele>160.75</ele><time>2026-04-17T13:33:02.18Z</time></trkpt><trkpt lat="46.1577346" lon="13.2638423"><ele>160.0</ele><time>2026-04-17T13:33:03.18Z</time></trkpt><trkpt lat="46.1575997" lon="13.2638202"><ele>160.0</ele><time>2026-04-17T13:33:04.18Z</time></trkpt><trkpt lat="46.1574596" lon="13.2637788"><ele>160.0</ele><time>2026-04-17T13:33:05.18Z</time></trkpt><trkpt lat="46.1571553" lon="13.2636535"><ele>159.5</ele><time>2026-04-17T13:33:07.18Z</time></trkpt><trkpt lat="46.1570022" lon="13.2636277"><ele>159.0</ele><time>2026-04-17T13:33:08.18Z</time></trkpt><trkpt lat="46.1568549" lon="13.2636377"><ele>158.5</ele><time>2026-04-17T13:33:09.18Z</time></trkpt><trkpt lat="46.1567113" lon="13.2636709"><ele>158.0</ele><time>2026-04-17T13:33:10.179Z</time></trkpt><trkpt lat="46.1565603" lon="13.263714"><ele>158.33333333333331</ele><time>2026-04-17T13:33:11.18Z</time></trkpt><trkpt lat="46.1564079" lon="13.2637628"><ele>158.66666666666666</ele><time>2026-04-17T13:33:12.18Z</time></trkpt><trkpt lat="46.1562629" lon="13.263827"><ele>159.0</ele><time>2026-04-17T13:33:13.18Z</time></trkpt><trkpt lat="46.1561155" lon="13.2639047"><ele>159.0</ele><time>2026-04-17T13:33:14.18Z</time></trkpt><trkpt lat="46.1559703" lon="13.2639861"><ele>159.0</ele><time>2026-04-17T13:33:15.18Z</time></trkpt><trkpt lat="46.15583" lon="13.2640558"><ele>159.0</ele><time>2026-04-17T13:33:16.18Z</time></trkpt><trkpt lat="46.1556938" lon="13.2641176"><ele>159.0</ele><time>2026-04-17T13:33:17.179Z</time></trkpt><trkpt lat="46.1555508" lon="13.2641645"><ele>158.5</ele><time>2026-04-17T13:33:18.18Z</time></trkpt><trkpt lat="46.1554138" lon="13.2641947"><ele>158.0</ele><time>2026-04-17T13:33:19.18Z</time></trkpt><trkpt lat="46.1552813" lon="13.2642388"><ele>157.5</ele><time>2026-04-17T13:33:20.179Z</time></trkpt><trkpt lat="46.1551508" lon="13.2642896"><ele>157.0</ele><time>2026-04-17T13:33:21.18Z</time></trkpt><trkpt lat="46.1550153" lon="13.2643555"><ele>157.0</ele><time>2026-04-17T13:33:22.18Z</time></trkpt><trkpt lat="46.154874" lon="13.2644248"><ele>157.0</ele><time>2026-04-17T13:33:23.18Z</time></trkpt><trkpt lat="46.1547379" lon="13.2644783"><ele>157.0</ele><time>2026-04-17T13:33:24.179Z</time></trkpt><trkpt lat="46.1546111" lon="13.2645223"><ele>157.0</ele><time>2026-04-17T13:33:25.18Z</time></trkpt><trkpt lat="46.1544791" lon="13.2645977"><ele>156.0</ele><time>2026-04-17T13:33:26.18Z</time></trkpt><trkpt lat="46.1541822" lon="13.2647425"><ele>155.0</ele><time>2026-04-17T13:33:28.179Z</time></trkpt><trkpt lat="46.1540131" lon="13.2648071"><ele>155.0</ele><time>2026-04-17T13:33:29.18Z</time></trkpt><trkpt lat="46.1538453" lon="13.264866"><ele>155.0</ele><time>2026-04-17T13:33:30.18Z</time></trkpt><trkpt lat="46.1536907" lon="13.264922"><ele>155.0</ele><time>2026-04-17T13:33:31.18Z</time></trkpt><trkpt lat="46.1535562" lon="13.2649798"><ele>155.0</ele><time>2026-04-17T13:33:32.18Z</time></trkpt><trkpt lat="46.1534415" lon="13.2650602"><ele>155.0</ele><time>2026-04-17T13:33:33.179Z</time></trkpt><trkpt lat="46.1533476" lon="13.2651375"><ele>155.0</ele><time>2026-04-17T13:33:34.18Z</time></trkpt><trkpt lat="46.1532419" lon="13.2651782"><ele>155.0</ele><time>2026-04-17T13:33:35.179Z</time></trkpt><trkpt lat="46.153119" lon="13.2651902"><ele>155.5</ele><time>2026-04-17T13:33:36.179Z</time></trkpt><trkpt lat="46.1529869" lon="13.2652158"><ele>156.0</ele><time>2026-04-17T13:33:37.18Z</time></trkpt><trkpt lat="46.1528335" lon="13.265225"><ele>156.5</ele><time>2026-04-17T13:33:38.179Z</time></trkpt><trkpt lat="46.1526757" lon="13.2652256"><ele>157.0</ele><time>2026-04-17T13:33:39.179Z</time></trkpt><trkpt lat="46.1525147" lon="13.2652397"><ele>157.0</ele><time>2026-04-17T13:33:40.18Z</time></trkpt><trkpt lat="46.1523428" lon="13.2652622"><ele>157.0</ele><time>2026-04-17T13:33:41.18Z</time></trkpt><trkpt lat="46.1521765" lon="13.265282"><ele>157.0</ele><time>2026-04-17T13:33:42.18Z</time></trkpt><trkpt lat="46.1520179" lon="13.2653017"><ele>157.0</ele><time>2026-04-17T13:33:43.18Z</time></trkpt><trkpt lat="46.151857" lon="13.2653243"><ele>157.0</ele><time>2026-04-17T13:33:44.18Z</time></trkpt><trkpt lat="46.1516947" lon="13.2653499"><ele>157.0</ele><time>2026-04-17T13:33:45.18Z</time></trkpt><trkpt lat="46.1515394" lon="13.2653944"><ele>156.5</ele><time>2026-04-17T13:33:46.179Z</time></trkpt><trkpt lat="46.1513831" lon="13.265425"><ele>156.0</ele><time>2026-04-17T13:33:47.179Z</time></trkpt><trkpt lat="46.1510838" lon="13.2654573"><ele>156.0</ele><time>2026-04-17T13:33:49.18Z</time></trkpt><trkpt lat="46.150966" lon="13.2654734"><ele>156.0</ele><time>2026-04-17T13:33:50.18Z</time></trkpt><trkpt lat="46.1508636" lon="13.2654891"><ele>156.0</ele><time>2026-04-17T13:33:51.179Z</time></trkpt><trkpt lat="46.1507628" lon="13.2655402"><ele>156.0</ele><time>2026-04-17T13:33:52.18Z</time></trkpt><trkpt lat="46.1506522" lon="13.2656419"><ele>156.0</ele><time>2026-04-17T13:33:53.18Z</time></trkpt><trkpt lat="46.1505331" lon="13.2657928"><ele>156.0</ele><time>2026-04-17T13:33:54.18Z</time></trkpt><trkpt lat="46.1504147" lon="13.2659717"><ele>156.0</ele><time>2026-04-17T13:33:55.18Z</time></trkpt><trkpt lat="46.1502879" lon="13.2661445"><ele>156.0</ele><time>2026-04-17T13:33:56.18Z</time></trkpt><trkpt lat="46.1501596" lon="13.2663121"><ele>156.0</ele><time>2026-04-17T13:33:57.18Z</time></trkpt><trkpt lat="46.1500438" lon="13.2664682"><ele>156.0</ele><time>2026-04-17T13:33:58.18Z</time></trkpt><trkpt lat="46.1499448" lon="13.2665976"><ele>156.0</ele><time>2026-04-17T13:33:59.18Z</time></trkpt><trkpt lat="46.1498465" lon="13.2667112"><ele>156.0</ele><time>2026-04-17T13:34:00.179Z</time></trkpt><trkpt lat="46.1497335" lon="13.2668025"><ele>156.0</ele><time>2026-04-17T13:34:01.18Z</time></trkpt><trkpt lat="46.1496154" lon="13.2668613"><ele>156.0</ele><time>2026-04-17T13:34:02.18Z</time></trkpt><trkpt lat="46.1495048" lon="13.2668989"><ele>156.0</ele><time>2026-04-17T13:34:03.18Z</time></trkpt><trkpt lat="46.1494015" lon="13.2669032"><ele>156.0</ele><time>2026-04-17T13:34:04.18Z</time></trkpt><trkpt lat="46.1493121" lon="13.2668952"><ele>156.0</ele><time>2026-04-17T13:34:05.18Z</time></trkpt><trkpt lat="46.1492306" lon="13.2668856"><ele>156.0</ele><time>2026-04-17T13:34:06.18Z</time></trkpt><trkpt lat="46.1491546" lon="13.2668754"><ele>156.0</ele><time>2026-04-17T13:34:07.18Z</time></trkpt><trkpt lat="46.1490878" lon="13.2668703"><ele>156.0</ele><time>2026-04-17T13:34:08.179Z</time></trkpt><trkpt lat="46.148855" lon="13.2668412"><ele>155.8</ele><time>2026-04-17T13:34:12.18Z</time></trkpt><trkpt lat="46.1487398" lon="13.266841"><ele>155.6</ele><time>2026-04-17T13:34:14.179Z</time></trkpt><trkpt lat="46.148647" lon="13.2668544"><ele>155.4</ele><time>2026-04-17T13:34:16.18Z</time></trkpt><trkpt lat="46.1485758" lon="13.2668798"><ele>155.2</ele><time>2026-04-17T13:34:18.18Z</time></trkpt><trkpt lat="46.1484917" lon="13.2668932"><ele>155.0</ele><time>2026-04-17T13:34:21.179Z</time></trkpt><trkpt lat="46.1484081" lon="13.2668906"><ele>155.0</ele><time>2026-04-17T13:34:23.18Z</time></trkpt><trkpt lat="46.148306" lon="13.2668878"><ele>155.0</ele><time>2026-04-17T13:34:25.179Z</time></trkpt><trkpt lat="46.1481918" lon="13.2668797"><ele>155.0</ele><time>2026-04-17T13:34:27.18Z</time></trkpt><trkpt lat="46.1481279" lon="13.2668805"><ele>155.0</ele><time>2026-04-17T13:34:28.179Z</time></trkpt><trkpt lat="46.1480625" lon="13.2668815"><ele>155.0</ele><time>2026-04-17T13:34:29.179Z</time></trkpt><trkpt lat="46.1479177" lon="13.2668607"><ele>154.83333333333331</ele><time>2026-04-17T13:34:31.18Z</time></trkpt><trkpt lat="46.1478366" lon="13.266866"><ele>154.66666666666666</ele><time>2026-04-17T13:34:32.18Z</time></trkpt><trkpt lat="46.1477522" lon="13.2668808"><ele>154.5</ele><time>2026-04-17T13:34:33.18Z</time></trkpt><trkpt lat="46.1476737" lon="13.2668971"><ele>154.33333333333334</ele><time>2026-04-17T13:34:34.18Z</time></trkpt><trkpt lat="46.1476139" lon="13.2669291"><ele>154.16666666666669</ele><time>2026-04-17T13:34:35.18Z</time></trkpt><trkpt lat="46.1475293" lon="13.2669674"><ele>154.0</ele><time>2026-04-17T13:34:37.18Z</time></trkpt><trkpt lat="46.1474555" lon="13.2669347"><ele>154.0</ele><time>2026-04-17T13:34:39.18Z</time></trkpt><trkpt lat="46.1473968" lon="13.2667739"><ele>154.0</ele><time>2026-04-17T13:34:41.179Z</time></trkpt><trkpt lat="46.1473888" lon="13.2666399"><ele>154.0</ele><time>2026-04-17T13:34:42.18Z</time></trkpt><trkpt lat="46.1473758" lon="13.2664859"><ele>154.0</ele><time>2026-04-17T13:34:43.18Z</time></trkpt><trkpt lat="46.147348" lon="13.2663128"><ele>153.75</ele><time>2026-04-17T13:34:44.18Z</time></trkpt><trkpt lat="46.1473144" lon="13.2661362"><ele>153.5</ele><time>2026-04-17T13:34:45.179Z</time></trkpt><trkpt lat="46.1472765" lon="13.2659797"><ele>153.25</ele><time>2026-04-17T13:34:46.18Z</time></trkpt><trkpt lat="46.1472297" lon="13.2658304"><ele>153.0</ele><time>2026-04-17T13:34:47.18Z</time></trkpt><trkpt lat="46.1471678" lon="13.2656863"><ele>153.33333333333334</ele><time>2026-04-17T13:34:48.18Z</time></trkpt><trkpt lat="46.1470856" lon="13.2655448"><ele>153.66666666666669</ele><time>2026-04-17T13:34:49.18Z</time></trkpt><trkpt lat="46.147005" lon="13.2653882"><ele>154.0</ele><time>2026-04-17T13:34:50.18Z</time></trkpt><trkpt lat="46.1468549" lon="13.2650938"><ele>154.0</ele><time>2026-04-17T13:34:52.18Z</time></trkpt><trkpt lat="46.1467926" lon="13.2649589"><ele>154.0</ele><time>2026-04-17T13:34:53.18Z</time></trkpt><trkpt lat="46.1467425" lon="13.2648333"><ele>154.0</ele><time>2026-04-17T13:34:54.18Z</time></trkpt><trkpt lat="46.1467104" lon="13.2647195"><ele>154.0</ele><time>2026-04-17T13:34:55.179Z</time></trkpt><trkpt lat="46.1466925" lon="13.2645973"><ele>154.0</ele><time>2026-04-17T13:34:56.179Z</time></trkpt><trkpt lat="46.1466841" lon="13.2644941"><ele>153.8</ele><time>2026-04-17T13:34:57.179Z</time></trkpt><trkpt lat="46.1466606" lon="13.2643457"><ele>153.60000000000002</ele><time>2026-04-17T13:34:59.18Z</time></trkpt><trkpt lat="46.1465908" lon="13.2642528"><ele>153.4</ele><time>2026-04-17T13:35:01.179Z</time></trkpt><trkpt lat="46.1464632" lon="13.2642224"><ele>153.20000000000002</ele><time>2026-04-17T13:35:03.18Z</time></trkpt><trkpt lat="46.1463676" lon="13.2642501"><ele>153.0</ele><time>2026-04-17T13:35:04.18Z</time></trkpt><trkpt lat="46.1462582" lon="13.2642872"><ele>153.75</ele><time>2026-04-17T13:35:05.18Z</time></trkpt><trkpt lat="46.1461442" lon="13.2643088"><ele>154.5</ele><time>2026-04-17T13:35:06.18Z</time></trkpt><trkpt lat="46.1460251" lon="13.2643069"><ele>155.25</ele><time>2026-04-17T13:35:07.18Z</time></trkpt><trkpt lat="46.1459165" lon="13.2642829"><ele>156.0</ele><time>2026-04-17T13:35:08.18Z</time></trkpt><trkpt lat="46.1457981" lon="13.2642447"><ele>155.33333333333334</ele><time>2026-04-17T13:35:09.18Z</time></trkpt><trkpt lat="46.1456642" lon="13.2642106"><ele>154.66666666666669</ele><time>2026-04-17T13:35:10.18Z</time></trkpt><trkpt lat="46.1455247" lon="13.2641923"><ele>154.0</ele><time>2026-04-17T13:35:11.18Z</time></trkpt><trkpt lat="46.1452549" lon="13.2641355"><ele>154.0</ele><time>2026-04-17T13:35:13.179Z</time></trkpt><trkpt lat="46.145134" lon="13.2641077"><ele>154.0</ele><time>2026-04-17T13:35:14.18Z</time></trkpt><trkpt lat="46.1450157" lon="13.2640673"><ele>154.0</ele><time>2026-04-17T13:35:15.179Z</time></trkpt><trkpt lat="46.1448972" lon="13.2640261"><ele>154.0</ele><time>2026-04-17T13:35:16.178Z</time></trkpt><trkpt lat="46.1447883" lon="13.2639979"><ele>153.25</ele><time>2026-04-17T13:35:17.179Z</time></trkpt><trkpt lat="46.1446734" lon="13.2639982"><ele>152.5</ele><time>2026-04-17T13:35:18.179Z</time></trkpt><trkpt lat="46.1445472" lon="13.264042"><ele>151.75</ele><time>2026-04-17T13:35:19.179Z</time></trkpt><trkpt lat="46.1444221" lon="13.2641197"><ele>151.0</ele><time>2026-04-17T13:35:20.178Z</time></trkpt><trkpt lat="46.1442978" lon="13.2642155"><ele>151.0</ele><time>2026-04-17T13:35:21.179Z</time></trkpt><trkpt lat="46.1441811" lon="13.2642792"><ele>151.0</ele><time>2026-04-17T13:35:22.179Z</time></trkpt><trkpt lat="46.144051" lon="13.2643265"><ele>151.0</ele><time>2026-04-17T13:35:23.179Z</time></trkpt><trkpt lat="46.1439277" lon="13.2643482"><ele>151.0</ele><time>2026-04-17T13:35:24.179Z</time></trkpt><trkpt lat="46.1438267" lon="13.2643523"><ele>151.0</ele><time>2026-04-17T13:35:25.178Z</time></trkpt><trkpt lat="46.1437398" lon="13.2643486"><ele>151.0</ele><time>2026-04-17T13:35:26.179Z</time></trkpt><trkpt lat="46.1436685" lon="13.2643585"><ele>151.0</ele><time>2026-04-17T13:35:27.179Z</time></trkpt><trkpt lat="46.1435757" lon="13.2644688"><ele>151.0</ele><time>2026-04-17T13:35:29.178Z</time></trkpt><trkpt lat="46.1435463" lon="13.2645683"><ele>151.0</ele><time>2026-04-17T13:35:30.179Z</time></trkpt><trkpt lat="46.1435334" lon="13.2646608"><ele>151.0</ele><time>2026-04-17T13:35:31.179Z</time></trkpt><trkpt lat="46.143524" lon="13.264819"><ele>151.0</ele><time>2026-04-17T13:35:33.179Z</time></trkpt><trkpt lat="46.1433509" lon="13.2648989"><ele>151.0</ele><time>2026-04-17T13:35:36.179Z</time></trkpt><trkpt lat="46.1432284" lon="13.2648592"><ele>151.0</ele><time>2026-04-17T13:35:37.178Z</time></trkpt><trkpt lat="46.1430762" lon="13.2647991"><ele>151.0</ele><time>2026-04-17T13:35:38.179Z</time></trkpt><trkpt lat="46.1429081" lon="13.2647394"><ele>151.0</ele><time>2026-04-17T13:35:39.178Z</time></trkpt><trkpt lat="46.1427362" lon="13.2646964"><ele>151.0</ele><time>2026-04-17T13:35:40.179Z</time></trkpt><trkpt lat="46.1425627" lon="13.264654"><ele>151.0</ele><time>2026-04-17T13:35:41.179Z</time></trkpt><trkpt lat="46.1423995" lon="13.2646208"><ele>151.0</ele><time>2026-04-17T13:35:42.179Z</time></trkpt><trkpt lat="46.1422462" lon="13.2645808"><ele>151.0</ele><time>2026-04-17T13:35:43.179Z</time></trkpt><trkpt lat="46.142094" lon="13.2645338"><ele>150.33333333333334</ele><time>2026-04-17T13:35:44.178Z</time></trkpt><trkpt lat="46.1419353" lon="13.2644927"><ele>149.66666666666666</ele><time>2026-04-17T13:35:45.179Z</time></trkpt><trkpt lat="46.1417692" lon="13.2644551"><ele>149.0</ele><time>2026-04-17T13:35:46.179Z</time></trkpt><trkpt lat="46.1416065" lon="13.2644189"><ele>149.33333333333331</ele><time>2026-04-17T13:35:47.179Z</time></trkpt><trkpt lat="46.1414433" lon="13.264376"><ele>149.66666666666666</ele><time>2026-04-17T13:35:48.178Z</time></trkpt><trkpt lat="46.14128" lon="13.264337"><ele>150.0</ele><time>2026-04-17T13:35:49.179Z</time></trkpt><trkpt lat="46.141117" lon="13.2643008"><ele>150.0</ele><time>2026-04-17T13:35:50.178Z</time></trkpt><trkpt lat="46.1409556" lon="13.2642649"><ele>150.0</ele><time>2026-04-17T13:35:51.178Z</time></trkpt><trkpt lat="46.1407995" lon="13.264227"><ele>150.0</ele><time>2026-04-17T13:35:52.179Z</time></trkpt><trkpt lat="46.1406386" lon="13.2641977"><ele>149.0</ele><time>2026-04-17T13:35:53.179Z</time></trkpt><trkpt lat="46.1404734" lon="13.2641949"><ele>148.0</ele><time>2026-04-17T13:35:54.179Z</time></trkpt><trkpt lat="46.1400978" lon="13.2642065"><ele>148.0</ele><time>2026-04-17T13:35:56.179Z</time></trkpt><trkpt lat="46.1399112" lon="13.2642179"><ele>148.0</ele><time>2026-04-17T13:35:57.179Z</time></trkpt><trkpt lat="46.1397231" lon="13.2642296"><ele>148.0</ele><time>2026-04-17T13:35:58.179Z</time></trkpt><trkpt lat="46.1395376" lon="13.264247"><ele>148.0</ele><time>2026-04-17T13:35:59.179Z</time></trkpt><trkpt lat="46.1393499" lon="13.2642624"><ele>148.0</ele><time>2026-04-17T13:36:00.178Z</time></trkpt><trkpt lat="46.1391633" lon="13.2642851"><ele>148.0</ele><time>2026-04-17T13:36:01.179Z</time></trkpt><trkpt lat="46.1389782" lon="13.2643083"><ele>148.0</ele><time>2026-04-17T13:36:02.179Z</time></trkpt><trkpt lat="46.1387964" lon="13.2643436"><ele>148.0</ele><time>2026-04-17T13:36:03.179Z</time></trkpt><trkpt lat="46.138619" lon="13.2643794"><ele>148.0</ele><time>2026-04-17T13:36:04.178Z</time></trkpt><trkpt lat="46.1384522" lon="13.2644219"><ele>148.0</ele><time>2026-04-17T13:36:05.179Z</time></trkpt><trkpt lat="46.1382845" lon="13.264484"><ele>148.0</ele><time>2026-04-17T13:36:06.179Z</time></trkpt><trkpt lat="46.1381163" lon="13.2645612"><ele>148.0</ele><time>2026-04-17T13:36:07.179Z</time></trkpt><trkpt lat="46.1379526" lon="13.2646647"><ele>147.33333333333334</ele><time>2026-04-17T13:36:08.178Z</time></trkpt><trkpt lat="46.137788" lon="13.264778"><ele>146.66666666666666</ele><time>2026-04-17T13:36:09.179Z</time></trkpt><trkpt lat="46.1376202" lon="13.2649012"><ele>146.0</ele><time>2026-04-17T13:36:10.179Z</time></trkpt><trkpt lat="46.1374639" lon="13.2650308"><ele>145.66666666666666</ele><time>2026-04-17T13:36:11.179Z</time></trkpt><trkpt lat="46.1373068" lon="13.2651638"><ele>145.33333333333334</ele><time>2026-04-17T13:36:12.178Z</time></trkpt><trkpt lat="46.1371518" lon="13.2653061"><ele>145.0</ele><time>2026-04-17T13:36:13.179Z</time></trkpt><trkpt lat="46.1369926" lon="13.2654423"><ele>145.0</ele><time>2026-04-17T13:36:14.178Z</time></trkpt><trkpt lat="46.1368358" lon="13.265573"><ele>145.0</ele><time>2026-04-17T13:36:15.179Z</time></trkpt><trkpt lat="46.1365547" lon="13.2658192"><ele>145.0</ele><time>2026-04-17T13:36:17.178Z</time></trkpt><trkpt lat="46.1364265" lon="13.2659288"><ele>145.0</ele><time>2026-04-17T13:36:18.179Z</time></trkpt><trkpt lat="46.1363124" lon="13.2660282"><ele>145.0</ele><time>2026-04-17T13:36:19.178Z</time></trkpt><trkpt lat="46.1362282" lon="13.2661109"><ele>145.0</ele><time>2026-04-17T13:36:20.178Z</time></trkpt><trkpt lat="46.1361573" lon="13.2661864"><ele>145.0</ele><time>2026-04-17T13:36:21.178Z</time></trkpt><trkpt lat="46.1360982" lon="13.2662439"><ele>145.0</ele><time>2026-04-17T13:36:22.179Z</time></trkpt><trkpt lat="46.1359939" lon="13.2662904"><ele>145.0</ele><time>2026-04-17T13:36:24.179Z</time></trkpt><trkpt lat="46.1358952" lon="13.2662539"><ele>145.0</ele><time>2026-04-17T13:36:26.179Z</time></trkpt><trkpt lat="46.1358126" lon="13.2661445"><ele>145.0</ele><time>2026-04-17T13:36:28.179Z</time></trkpt><trkpt lat="46.1357512" lon="13.2660322"><ele>145.0</ele><time>2026-04-17T13:36:30.179Z</time></trkpt><trkpt lat="46.1356855" lon="13.2659224"><ele>145.0</ele><time>2026-04-17T13:36:32.178Z</time></trkpt><trkpt lat="46.135616" lon="13.2658167"><ele>145.0</ele><time>2026-04-17T13:36:34.178Z</time></trkpt><trkpt lat="46.1355573" lon="13.2656933"><ele>145.0</ele><time>2026-04-17T13:36:36.179Z</time></trkpt><trkpt lat="46.1354852" lon="13.2654427"><ele>145.0</ele><time>2026-04-17T13:36:40.179Z</time></trkpt><trkpt lat="46.1354694" lon="13.2653493"><ele>145.0</ele><time>2026-04-17T13:36:42.179Z</time></trkpt><trkpt lat="46.13547" lon="13.2652285"><ele>145.0</ele><time>2026-04-17T13:36:45.178Z</time></trkpt><trkpt lat="46.1354215" lon="13.2651404"><ele>145.0</ele><time>2026-04-17T13:36:48.179Z</time></trkpt><trkpt lat="46.135348" lon="13.265074"><ele>145.0</ele><time>2026-04-17T13:36:50.178Z</time></trkpt><trkpt lat="46.1353188" lon="13.2649678"><ele>145.0</ele><time>2026-04-17T13:36:52.179Z</time></trkpt><trkpt lat="46.135313" lon="13.2648667"><ele>145.0</ele><time>2026-04-17T13:36:55.179Z</time></trkpt><trkpt lat="46.1352254" lon="13.2648474"><ele>145.0</ele><time>2026-04-17T13:37:16.179Z</time></trkpt><trkpt lat="46.1350763" lon="13.2647653"><ele>145.0</ele><time>2026-04-17T13:37:20.179Z</time></trkpt><trkpt lat="46.135014" lon="13.2647342"><ele>145.0</ele><time>2026-04-17T13:37:21.179Z</time></trkpt><trkpt lat="46.1349385" lon="13.2647104"><ele>145.0</ele><time>2026-04-17T13:37:22.178Z</time></trkpt><trkpt lat="46.1348534" lon="13.2647108"><ele>144.75</ele><time>2026-04-17T13:37:23.178Z</time></trkpt><trkpt lat="46.1347501" lon="13.2647231"><ele>144.5</ele><time>2026-04-17T13:37:24.178Z</time></trkpt><trkpt lat="46.1346335" lon="13.2647566"><ele>144.25</ele><time>2026-04-17T13:37:25.179Z</time></trkpt><trkpt lat="46.13451" lon="13.2648057"><ele>144.0</ele><time>2026-04-17T13:37:26.179Z</time></trkpt><trkpt lat="46.1343954" lon="13.2648447"><ele>144.0</ele><time>2026-04-17T13:37:27.179Z</time></trkpt><trkpt lat="46.134284" lon="13.2648572"><ele>144.0</ele><time>2026-04-17T13:37:28.178Z</time></trkpt><trkpt lat="46.1341597" lon="13.2648376"><ele>144.0</ele><time>2026-04-17T13:37:29.178Z</time></trkpt><trkpt lat="46.1340398" lon="13.264816"><ele>144.0</ele><time>2026-04-17T13:37:30.179Z</time></trkpt><trkpt lat="46.1339105" lon="13.2648119"><ele>143.5</ele><time>2026-04-17T13:37:31.179Z</time></trkpt><trkpt lat="46.1337688" lon="13.2648338"><ele>143.0</ele><time>2026-04-17T13:37:32.179Z</time></trkpt><trkpt lat="46.1336238" lon="13.2648739"><ele>142.5</ele><time>2026-04-17T13:37:33.179Z</time></trkpt><trkpt lat="46.13348" lon="13.2649302"><ele>142.0</ele><time>2026-04-17T13:37:34.179Z</time></trkpt><trkpt lat="46.1333452" lon="13.2649884"><ele>142.0</ele><time>2026-04-17T13:37:35.179Z</time></trkpt><trkpt lat="46.1332161" lon="13.2650639"><ele>142.0</ele><time>2026-04-17T13:37:36.179Z</time></trkpt><trkpt lat="46.133092" lon="13.2651506"><ele>142.0</ele><time>2026-04-17T13:37:37.178Z</time></trkpt><trkpt lat="46.1328336" lon="13.2653554"><ele>142.0</ele><time>2026-04-17T13:37:39.178Z</time></trkpt><trkpt lat="46.1327109" lon="13.265447"><ele>142.0</ele><time>2026-04-17T13:37:40.179Z</time></trkpt><trkpt lat="46.1325804" lon="13.265532"><ele>142.0</ele><time>2026-04-17T13:37:41.179Z</time></trkpt><trkpt lat="46.1324535" lon="13.2656297"><ele>142.0</ele><time>2026-04-17T13:37:42.179Z</time></trkpt><trkpt lat="46.1323342" lon="13.2657347"><ele>141.75</ele><time>2026-04-17T13:37:43.179Z</time></trkpt><trkpt lat="46.1322198" lon="13.2658369"><ele>141.5</ele><time>2026-04-17T13:37:44.178Z</time></trkpt><trkpt lat="46.1320992" lon="13.265917"><ele>141.25</ele><time>2026-04-17T13:37:45.179Z</time></trkpt><trkpt lat="46.1319756" lon="13.2659806"><ele>141.0</ele><time>2026-04-17T13:37:46.178Z</time></trkpt><trkpt lat="46.1318487" lon="13.2660447"><ele>141.0</ele><time>2026-04-17T13:37:47.178Z</time></trkpt><trkpt lat="46.1317308" lon="13.2661084"><ele>141.0</ele><time>2026-04-17T13:37:48.179Z</time></trkpt><trkpt lat="46.1316177" lon="13.2661663"><ele>141.0</ele><time>2026-04-17T13:37:49.178Z</time></trkpt><trkpt lat="46.1315298" lon="13.2662327"><ele>141.0</ele><time>2026-04-17T13:37:50.178Z</time></trkpt><trkpt lat="46.1314511" lon="13.2662924"><ele>141.0</ele><time>2026-04-17T13:37:51.179Z</time></trkpt><trkpt lat="46.131377" lon="13.2663411"><ele>141.25</ele><time>2026-04-17T13:37:52.179Z</time></trkpt><trkpt lat="46.131312" lon="13.2663657"><ele>141.5</ele><time>2026-04-17T13:37:53.179Z</time></trkpt><trkpt lat="46.131213" lon="13.2663857"><ele>141.75</ele><time>2026-04-17T13:37:55.179Z</time></trkpt><trkpt lat="46.1311354" lon="13.2663968"><ele>142.0</ele><time>2026-04-17T13:37:58.179Z</time></trkpt><trkpt lat="46.1310663" lon="13.2667124"><ele>142.25</ele><time>2026-04-17T13:38:04.177Z</time></trkpt><trkpt lat="46.1310163" lon="13.2668338"><ele>142.5</ele><time>2026-04-17T13:38:05.177Z</time></trkpt><trkpt lat="46.1309534" lon="13.2669695"><ele>142.75</ele><time>2026-04-17T13:38:06.177Z</time></trkpt><trkpt lat="46.130881" lon="13.2671061"><ele>143.0</ele><time>2026-04-17T13:38:07.178Z</time></trkpt><trkpt lat="46.1308043" lon="13.2672466"><ele>143.33333333333331</ele><time>2026-04-17T13:38:08.178Z</time></trkpt><trkpt lat="46.1307022" lon="13.2673732"><ele>143.66666666666666</ele><time>2026-04-17T13:38:09.177Z</time></trkpt><trkpt lat="46.1305751" lon="13.2674965"><ele>144.0</ele><time>2026-04-17T13:38:10.178Z</time></trkpt><trkpt lat="46.1304311" lon="13.2676062"><ele>144.0</ele><time>2026-04-17T13:38:11.177Z</time></trkpt><trkpt lat="46.1302788" lon="13.2677065"><ele>144.0</ele><time>2026-04-17T13:38:12.178Z</time></trkpt><trkpt lat="46.1301153" lon="13.2678015"><ele>144.0</ele><time>2026-04-17T13:38:13.178Z</time></trkpt><trkpt lat="46.1299499" lon="13.2678954"><ele>143.33333333333334</ele><time>2026-04-17T13:38:14.178Z</time></trkpt><trkpt lat="46.1297881" lon="13.2679837"><ele>142.66666666666669</ele><time>2026-04-17T13:38:15.178Z</time></trkpt><trkpt lat="46.1296162" lon="13.2680652"><ele>142.0</ele><time>2026-04-17T13:38:16.178Z</time></trkpt><trkpt lat="46.129443" lon="13.2681553"><ele>142.0</ele><time>2026-04-17T13:38:17.177Z</time></trkpt><trkpt lat="46.1292735" lon="13.268261"><ele>142.0</ele><time>2026-04-17T13:38:18.177Z</time></trkpt><trkpt lat="46.1289367" lon="13.2684486"><ele>142.66666666666669</ele><time>2026-04-17T13:38:20.178Z</time></trkpt><trkpt lat="46.1287712" lon="13.2685361"><ele>143.33333333333334</ele><time>2026-04-17T13:38:21.178Z</time></trkpt><trkpt lat="46.1285975" lon="13.2686335"><ele>144.0</ele><time>2026-04-17T13:38:22.178Z</time></trkpt><trkpt lat="46.1284283" lon="13.2687226"><ele>144.0</ele><time>2026-04-17T13:38:23.178Z</time></trkpt><trkpt lat="46.128257" lon="13.268806"><ele>144.0</ele><time>2026-04-17T13:38:24.177Z</time></trkpt><trkpt lat="46.1280869" lon="13.2688972"><ele>144.0</ele><time>2026-04-17T13:38:25.178Z</time></trkpt><trkpt lat="46.1279253" lon="13.2689817"><ele>143.25</ele><time>2026-04-17T13:38:26.178Z</time></trkpt><trkpt lat="46.1277707" lon="13.2690505"><ele>142.5</ele><time>2026-04-17T13:38:27.178Z</time></trkpt><trkpt lat="46.1276335" lon="13.2691183"><ele>141.75</ele><time>2026-04-17T13:38:28.178Z</time></trkpt><trkpt lat="46.1275007" lon="13.2691859"><ele>141.0</ele><time>2026-04-17T13:38:29.178Z</time></trkpt><trkpt lat="46.1273862" lon="13.2692661"><ele>141.0</ele><time>2026-04-17T13:38:30.178Z</time></trkpt><trkpt lat="46.1272646" lon="13.2693431"><ele>141.0</ele><time>2026-04-17T13:38:31.177Z</time></trkpt><trkpt lat="46.1271351" lon="13.2694135"><ele>141.0</ele><time>2026-04-17T13:38:32.177Z</time></trkpt><trkpt lat="46.1269995" lon="13.269485"><ele>141.0</ele><time>2026-04-17T13:38:33.177Z</time></trkpt><trkpt lat="46.1268634" lon="13.2695594"><ele>141.0</ele><time>2026-04-17T13:38:34.178Z</time></trkpt><trkpt lat="46.1267187" lon="13.269644"><ele>141.0</ele><time>2026-04-17T13:38:35.177Z</time></trkpt><trkpt lat="46.1265717" lon="13.2697321"><ele>141.0</ele><time>2026-04-17T13:38:36.178Z</time></trkpt><trkpt lat="46.1264147" lon="13.2698269"><ele>139.66666666666666</ele><time>2026-04-17T13:38:37.177Z</time></trkpt><trkpt lat="46.1262614" lon="13.2699097"><ele>138.33333333333331</ele><time>2026-04-17T13:38:38.177Z</time></trkpt><trkpt lat="46.1261081" lon="13.2699978"><ele>137.0</ele><time>2026-04-17T13:38:39.178Z</time></trkpt><trkpt lat="46.1257906" lon="13.2701809"><ele>137.33333333333331</ele><time>2026-04-17T13:38:41.178Z</time></trkpt><trkpt lat="46.1256314" lon="13.2702707"><ele>137.66666666666666</ele><time>2026-04-17T13:38:42.178Z</time></trkpt><trkpt lat="46.1254622" lon="13.2703583"><ele>138.0</ele><time>2026-04-17T13:38:43.178Z</time></trkpt><trkpt lat="46.1252907" lon="13.2704438"><ele>138.0</ele><time>2026-04-17T13:38:44.178Z</time></trkpt><trkpt lat="46.1251183" lon="13.2705335"><ele>138.0</ele><time>2026-04-17T13:38:45.178Z</time></trkpt><trkpt lat="46.12495" lon="13.2706302"><ele>138.0</ele><time>2026-04-17T13:38:46.178Z</time></trkpt><trkpt lat="46.1247742" lon="13.2707258"><ele>137.66666666666666</ele><time>2026-04-17T13:38:47.178Z</time></trkpt><trkpt lat="46.1245974" lon="13.2708281"><ele>137.33333333333331</ele><time>2026-04-17T13:38:48.178Z</time></trkpt><trkpt lat="46.1244247" lon="13.2709356"><ele>137.0</ele><time>2026-04-17T13:38:49.177Z</time></trkpt><trkpt lat="46.1242486" lon="13.2710326"><ele>137.0</ele><time>2026-04-17T13:38:50.177Z</time></trkpt><trkpt lat="46.1240662" lon="13.2711343"><ele>137.0</ele><time>2026-04-17T13:38:51.178Z</time></trkpt><trkpt lat="46.1238944" lon="13.2712282"><ele>137.0</ele><time>2026-04-17T13:38:52.178Z</time></trkpt><trkpt lat="46.1237124" lon="13.2713239"><ele>136.33333333333331</ele><time>2026-04-17T13:38:53.178Z</time></trkpt><trkpt lat="46.1235363" lon="13.2714218"><ele>135.66666666666666</ele><time>2026-04-17T13:38:54.178Z</time></trkpt><trkpt lat="46.1233656" lon="13.2715115"><ele>135.0</ele><time>2026-04-17T13:38:55.177Z</time></trkpt><trkpt lat="46.1231884" lon="13.2716071"><ele>134.66666666666666</ele><time>2026-04-17T13:38:56.178Z</time></trkpt><trkpt lat="46.1230103" lon="13.2717072"><ele>134.33333333333331</ele><time>2026-04-17T13:38:57.177Z</time></trkpt><trkpt lat="46.1228406" lon="13.2718105"><ele>134.0</ele><time>2026-04-17T13:38:58.178Z</time></trkpt><trkpt lat="46.1226707" lon="13.2719111"><ele>134.0</ele><time>2026-04-17T13:38:59.178Z</time></trkpt><trkpt lat="46.1225025" lon="13.272013"><ele>134.0</ele><time>2026-04-17T13:39:00.178Z</time></trkpt><trkpt lat="46.1221464" lon="13.2721909"><ele>134.0</ele><time>2026-04-17T13:39:02.177Z</time></trkpt><trkpt lat="46.1219584" lon="13.272278"><ele>134.0</ele><time>2026-04-17T13:39:03.177Z</time></trkpt><trkpt lat="46.1217814" lon="13.2723688"><ele>134.0</ele><time>2026-04-17T13:39:04.178Z</time></trkpt><trkpt lat="46.1216048" lon="13.2724646"><ele>133.33333333333331</ele><time>2026-04-17T13:39:05.178Z</time></trkpt><trkpt lat="46.1214255" lon="13.2725618"><ele>132.66666666666666</ele><time>2026-04-17T13:39:06.178Z</time></trkpt><trkpt lat="46.1212471" lon="13.2726627"><ele>132.0</ele><time>2026-04-17T13:39:07.178Z</time></trkpt><trkpt lat="46.1210803" lon="13.2727621"><ele>132.0</ele><time>2026-04-17T13:39:08.178Z</time></trkpt><trkpt lat="46.1209152" lon="13.2728613"><ele>132.0</ele><time>2026-04-17T13:39:09.177Z</time></trkpt><trkpt lat="46.1207433" lon="13.2729688"><ele>132.0</ele><time>2026-04-17T13:39:10.178Z</time></trkpt><trkpt lat="46.1205673" lon="13.2730777"><ele>132.66666666666666</ele><time>2026-04-17T13:39:11.178Z</time></trkpt><trkpt lat="46.1203933" lon="13.2731813"><ele>133.33333333333331</ele><time>2026-04-17T13:39:12.177Z</time></trkpt><trkpt lat="46.1202138" lon="13.2732799"><ele>134.0</ele><time>2026-04-17T13:39:13.177Z</time></trkpt><trkpt lat="46.1200429" lon="13.2733774"><ele>133.33333333333331</ele><time>2026-04-17T13:39:14.178Z</time></trkpt><trkpt lat="46.1198786" lon="13.2734854"><ele>132.66666666666666</ele><time>2026-04-17T13:39:15.178Z</time></trkpt><trkpt lat="46.1197254" lon="13.2736254"><ele>132.0</ele><time>2026-04-17T13:39:16.178Z</time></trkpt><trkpt lat="46.1195787" lon="13.2737765"><ele>132.0</ele><time>2026-04-17T13:39:17.178Z</time></trkpt><trkpt lat="46.1194407" lon="13.2739476"><ele>132.0</ele><time>2026-04-17T13:39:18.178Z</time></trkpt><trkpt lat="46.1193103" lon="13.27413"><ele>132.0</ele><time>2026-04-17T13:39:19.178Z</time></trkpt><trkpt lat="46.1191936" lon="13.274307"><ele>132.0</ele><time>2026-04-17T13:39:20.178Z</time></trkpt><trkpt lat="46.1190833" lon="13.2744655"><ele>132.0</ele><time>2026-04-17T13:39:21.178Z</time></trkpt><trkpt lat="46.1188718" lon="13.2747014"><ele>132.0</ele><time>2026-04-17T13:39:23.178Z</time></trkpt><trkpt lat="46.1187629" lon="13.2747684"><ele>132.0</ele><time>2026-04-17T13:39:24.178Z</time></trkpt><trkpt lat="46.1186522" lon="13.2748002"><ele>132.0</ele><time>2026-04-17T13:39:25.178Z</time></trkpt><trkpt lat="46.1185427" lon="13.2748013"><ele>132.0</ele><time>2026-04-17T13:39:26.178Z</time></trkpt><trkpt lat="46.1184449" lon="13.2747895"><ele>132.0</ele><time>2026-04-17T13:39:27.177Z</time></trkpt><trkpt lat="46.1183551" lon="13.2747761"><ele>132.0</ele><time>2026-04-17T13:39:28.178Z</time></trkpt><trkpt lat="46.1182858" lon="13.2747606"><ele>132.0</ele><time>2026-04-17T13:39:29.178Z</time></trkpt><trkpt lat="46.1181867" lon="13.2747462"><ele>132.0</ele><time>2026-04-17T13:39:31.178Z</time></trkpt><trkpt lat="46.1181077" lon="13.274815"><ele>132.0</ele><time>2026-04-17T13:39:35.178Z</time></trkpt><trkpt lat="46.1179846" lon="13.2748902"><ele>132.0</ele><time>2026-04-17T13:39:37.177Z</time></trkpt><trkpt lat="46.1179031" lon="13.2749607"><ele>132.0</ele><time>2026-04-17T13:39:38.178Z</time></trkpt><trkpt lat="46.117817" lon="13.2750499"><ele>132.0</ele><time>2026-04-17T13:39:39.178Z</time></trkpt><trkpt lat="46.1177278" lon="13.2751536"><ele>132.0</ele><time>2026-04-17T13:39:40.178Z</time></trkpt><trkpt lat="46.1176207" lon="13.2752526"><ele>132.0</ele><time>2026-04-17T13:39:41.178Z</time></trkpt><trkpt lat="46.1175079" lon="13.2753504"><ele>132.0</ele><time>2026-04-17T13:39:42.177Z</time></trkpt><trkpt lat="46.1172723" lon="13.2755754"><ele>132.25</ele><time>2026-04-17T13:39:44.178Z</time></trkpt><trkpt lat="46.1171551" lon="13.2756795"><ele>132.5</ele><time>2026-04-17T13:39:45.178Z</time></trkpt><trkpt lat="46.1170399" lon="13.2757897"><ele>132.75</ele><time>2026-04-17T13:39:46.178Z</time></trkpt><trkpt lat="46.116928" lon="13.2759076"><ele>133.0</ele><time>2026-04-17T13:39:47.178Z</time></trkpt><trkpt lat="46.1168059" lon="13.2760294"><ele>133.0</ele><time>2026-04-17T13:39:48.178Z</time></trkpt><trkpt lat="46.1166824" lon="13.27615"><ele>133.0</ele><time>2026-04-17T13:39:49.177Z</time></trkpt><trkpt lat="46.1165588" lon="13.2762746"><ele>133.0</ele><time>2026-04-17T13:39:50.178Z</time></trkpt><trkpt lat="46.1164325" lon="13.276394"><ele>133.25</ele><time>2026-04-17T13:39:51.177Z</time></trkpt><trkpt lat="46.1163112" lon="13.2765171"><ele>133.5</ele><time>2026-04-17T13:39:52.178Z</time></trkpt><trkpt lat="46.1161897" lon="13.2766403"><ele>133.75</ele><time>2026-04-17T13:39:53.178Z</time></trkpt><trkpt lat="46.1160797" lon="13.2767568"><ele>134.0</ele><time>2026-04-17T13:39:54.178Z</time></trkpt><trkpt lat="46.1159776" lon="13.2768453"><ele>134.0</ele><time>2026-04-17T13:39:55.178Z</time></trkpt><trkpt lat="46.1158806" lon="13.2769349"><ele>134.0</ele><time>2026-04-17T13:39:56.177Z</time></trkpt><trkpt lat="46.1157794" lon="13.2770326"><ele>134.0</ele><time>2026-04-17T13:39:57.178Z</time></trkpt><trkpt lat="46.1156893" lon="13.2771364"><ele>134.0</ele><time>2026-04-17T13:39:58.177Z</time></trkpt><trkpt lat="46.1156124" lon="13.2772648"><ele>133.25</ele><time>2026-04-17T13:39:59.178Z</time></trkpt><trkpt lat="46.1155492" lon="13.2774239"><ele>132.5</ele><time>2026-04-17T13:40:00.177Z</time></trkpt><trkpt lat="46.1155018" lon="13.2776093"><ele>131.75</ele><time>2026-04-17T13:40:01.177Z</time></trkpt><trkpt lat="46.1154565" lon="13.2778132"><ele>131.0</ele><time>2026-04-17T13:40:02.177Z</time></trkpt><trkpt lat="46.1154216" lon="13.2780003"><ele>131.0</ele><time>2026-04-17T13:40:03.177Z</time></trkpt><trkpt lat="46.1153084" lon="13.2783438"><ele>131.0</ele><time>2026-04-17T13:40:05.178Z</time></trkpt><trkpt lat="46.115216" lon="13.2785125"><ele>131.0</ele><time>2026-04-17T13:40:06.177Z</time></trkpt><trkpt lat="46.1151158" lon="13.2786753"><ele>131.0</ele><time>2026-04-17T13:40:07.178Z</time></trkpt><trkpt lat="46.1150047" lon="13.2788166"><ele>131.0</ele><time>2026-04-17T13:40:08.178Z</time></trkpt><trkpt lat="46.1148994" lon="13.2789477"><ele>131.0</ele><time>2026-04-17T13:40:09.177Z</time></trkpt><trkpt lat="46.114807" lon="13.2790781"><ele>131.0</ele><time>2026-04-17T13:40:10.178Z</time></trkpt><trkpt lat="46.1147282" lon="13.2792122"><ele>131.0</ele><time>2026-04-17T13:40:11.177Z</time></trkpt><trkpt lat="46.114662" lon="13.2793291"><ele>131.0</ele><time>2026-04-17T13:40:12.177Z</time></trkpt><trkpt lat="46.1146117" lon="13.2794144"><ele>131.0</ele><time>2026-04-17T13:40:13.178Z</time></trkpt><trkpt lat="46.1145438" lon="13.2795117"><ele>131.0</ele><time>2026-04-17T13:40:15.177Z</time></trkpt><trkpt lat="46.1144607" lon="13.2795164"><ele>131.0</ele><time>2026-04-17T13:40:17.178Z</time></trkpt><trkpt lat="46.1143396" lon="13.2794145"><ele>131.0</ele><time>2026-04-17T13:40:19.178Z</time></trkpt><trkpt lat="46.1142685" lon="13.2793409"><ele>131.0</ele><time>2026-04-17T13:40:20.178Z</time></trkpt><trkpt lat="46.1142052" lon="13.2792631"><ele>131.0</ele><time>2026-04-17T13:40:21.178Z</time></trkpt><trkpt lat="46.1141462" lon="13.2791706"><ele>131.0</ele><time>2026-04-17T13:40:22.178Z</time></trkpt><trkpt lat="46.1140941" lon="13.2790401"><ele>131.0</ele><time>2026-04-17T13:40:23.177Z</time></trkpt><trkpt lat="46.1140639" lon="13.2788829"><ele>131.33333333333331</ele><time>2026-04-17T13:40:24.178Z</time></trkpt><trkpt lat="46.1139539" lon="13.2785946"><ele>131.66666666666666</ele><time>2026-04-17T13:40:26.178Z</time></trkpt><trkpt lat="46.1138518" lon="13.2785125"><ele>132.0</ele><time>2026-04-17T13:40:27.178Z</time></trkpt><trkpt lat="46.1137303" lon="13.2784753"><ele>132.0</ele><time>2026-04-17T13:40:28.178Z</time></trkpt><trkpt lat="46.1136044" lon="13.2784846"><ele>132.0</ele><time>2026-04-17T13:40:29.178Z</time></trkpt><trkpt lat="46.1134927" lon="13.2785359"><ele>132.0</ele><time>2026-04-17T13:40:30.178Z</time></trkpt><trkpt lat="46.1133932" lon="13.2786363"><ele>132.0</ele><time>2026-04-17T13:40:31.177Z</time></trkpt><trkpt lat="46.113302" lon="13.2787887"><ele>131.33333333333334</ele><time>2026-04-17T13:40:32.178Z</time></trkpt><trkpt lat="46.1132241" lon="13.2789715"><ele>130.66666666666669</ele><time>2026-04-17T13:40:33.178Z</time></trkpt><trkpt lat="46.1131376" lon="13.2791545"><ele>130.0</ele><time>2026-04-17T13:40:34.178Z</time></trkpt><trkpt lat="46.1130324" lon="13.2793311"><ele>130.0</ele><time>2026-04-17T13:40:35.178Z</time></trkpt><trkpt lat="46.1129108" lon="13.2794979"><ele>130.0</ele><time>2026-04-17T13:40:36.177Z</time></trkpt><trkpt lat="46.112774" lon="13.2796501"><ele>130.0</ele><time>2026-04-17T13:40:37.178Z</time></trkpt><trkpt lat="46.112631" lon="13.279785"><ele>129.66666666666669</ele><time>2026-04-17T13:40:38.178Z</time></trkpt><trkpt lat="46.1124585" lon="13.2798878"><ele>129.33333333333334</ele><time>2026-04-17T13:40:39.178Z</time></trkpt><trkpt lat="46.1122815" lon="13.2799753"><ele>129.0</ele><time>2026-04-17T13:40:40.178Z</time></trkpt><trkpt lat="46.1120936" lon="13.2800408"><ele>129.0</ele><time>2026-04-17T13:40:41.177Z</time></trkpt><trkpt lat="46.1119129" lon="13.280106"><ele>129.0</ele><time>2026-04-17T13:40:42.177Z</time></trkpt><trkpt lat="46.111744" lon="13.2801755"><ele>129.0</ele><time>2026-04-17T13:40:43.178Z</time></trkpt><trkpt lat="46.1115829" lon="13.2802433"><ele>128.5</ele><time>2026-04-17T13:40:44.178Z</time></trkpt><trkpt lat="46.1114142" lon="13.2803116"><ele>128.0</ele><time>2026-04-17T13:40:45.177Z</time></trkpt><trkpt lat="46.1110638" lon="13.2804476"><ele>128.0</ele><time>2026-04-17T13:40:47.178Z</time></trkpt><trkpt lat="46.11089" lon="13.2805157"><ele>128.0</ele><time>2026-04-17T13:40:48.178Z</time></trkpt><trkpt lat="46.1107168" lon="13.2805783"><ele>128.0</ele><time>2026-04-17T13:40:49.177Z</time></trkpt><trkpt lat="46.1105464" lon="13.2806429"><ele>127.66666666666666</ele><time>2026-04-17T13:40:50.178Z</time></trkpt><trkpt lat="46.1103851" lon="13.2807182"><ele>127.33333333333334</ele><time>2026-04-17T13:40:51.178Z</time></trkpt><trkpt lat="46.1102166" lon="13.2807982"><ele>127.0</ele><time>2026-04-17T13:40:52.178Z</time></trkpt><trkpt lat="46.110044" lon="13.2808951"><ele>126.0</ele><time>2026-04-17T13:40:53.178Z</time></trkpt><trkpt lat="46.1098751" lon="13.2809933"><ele>125.0</ele><time>2026-04-17T13:40:54.178Z</time></trkpt><trkpt lat="46.1097094" lon="13.2810917"><ele>124.0</ele><time>2026-04-17T13:40:55.178Z</time></trkpt><trkpt lat="46.1095355" lon="13.2811861"><ele>124.0</ele><time>2026-04-17T13:40:56.178Z</time></trkpt><trkpt lat="46.1093608" lon="13.2812836"><ele>124.0</ele><time>2026-04-17T13:40:57.177Z</time></trkpt><trkpt lat="46.1091927" lon="13.2813721"><ele>124.0</ele><time>2026-04-17T13:40:58.178Z</time></trkpt><trkpt lat="46.1090195" lon="13.2814643"><ele>125.66666666666667</ele><time>2026-04-17T13:40:59.178Z</time></trkpt><trkpt lat="46.1088493" lon="13.2815643"><ele>127.33333333333334</ele><time>2026-04-17T13:41:00.177Z</time></trkpt><trkpt lat="46.1086735" lon="13.2816644"><ele>129.0</ele><time>2026-04-17T13:41:01.178Z</time></trkpt><trkpt lat="46.1085" lon="13.2817678"><ele>129.0</ele><time>2026-04-17T13:41:02.178Z</time></trkpt><trkpt lat="46.1083279" lon="13.2818629"><ele>129.0</ele><time>2026-04-17T13:41:03.177Z</time></trkpt><trkpt lat="46.1081515" lon="13.2819538"><ele>129.0</ele><time>2026-04-17T13:41:04.177Z</time></trkpt><trkpt lat="46.1079707" lon="13.2820291"><ele>128.0</ele><time>2026-04-17T13:41:05.178Z</time></trkpt><trkpt lat="46.1077877" lon="13.2821026"><ele>127.0</ele><time>2026-04-17T13:41:06.178Z</time></trkpt><trkpt lat="46.1074251" lon="13.2822171"><ele>125.66666666666667</ele><time>2026-04-17T13:41:08.177Z</time></trkpt><trkpt lat="46.1072488" lon="13.2822663"><ele>124.33333333333334</ele><time>2026-04-17T13:41:09.176Z</time></trkpt><trkpt lat="46.1070665" lon="13.2823182"><ele>123.0</ele><time>2026-04-17T13:41:10.176Z</time></trkpt><trkpt lat="46.1068847" lon="13.2823657"><ele>123.0</ele><time>2026-04-17T13:41:11.177Z</time></trkpt><trkpt lat="46.1067" lon="13.2824189"><ele>123.0</ele><time>2026-04-17T13:41:12.176Z</time></trkpt><trkpt lat="46.106512" lon="13.2824716"><ele>123.0</ele><time>2026-04-17T13:41:13.177Z</time></trkpt><trkpt lat="46.1063223" lon="13.282515"><ele>122.66666666666666</ele><time>2026-04-17T13:41:14.177Z</time></trkpt><trkpt lat="46.1061322" lon="13.2825618"><ele>122.33333333333333</ele><time>2026-04-17T13:41:15.177Z</time></trkpt><trkpt lat="46.1059434" lon="13.2826164"><ele>122.0</ele><time>2026-04-17T13:41:16.177Z</time></trkpt><trkpt lat="46.105759" lon="13.2826727"><ele>122.0</ele><time>2026-04-17T13:41:17.177Z</time></trkpt><trkpt lat="46.1055686" lon="13.2827259"><ele>122.0</ele><time>2026-04-17T13:41:18.176Z</time></trkpt><trkpt lat="46.105377" lon="13.2827784"><ele>122.0</ele><time>2026-04-17T13:41:19.176Z</time></trkpt><trkpt lat="46.1051866" lon="13.2828303"><ele>122.0</ele><time>2026-04-17T13:41:20.176Z</time></trkpt><trkpt lat="46.1049981" lon="13.2828841"><ele>122.0</ele><time>2026-04-17T13:41:21.176Z</time></trkpt><trkpt lat="46.1048027" lon="13.2829305"><ele>122.0</ele><time>2026-04-17T13:41:22.177Z</time></trkpt><trkpt lat="46.1046099" lon="13.2829715"><ele>122.0</ele><time>2026-04-17T13:41:23.177Z</time></trkpt><trkpt lat="46.1044124" lon="13.2830131"><ele>122.0</ele><time>2026-04-17T13:41:24.177Z</time></trkpt><trkpt lat="46.1042196" lon="13.2830619"><ele>122.0</ele><time>2026-04-17T13:41:25.177Z</time></trkpt><trkpt lat="46.1040283" lon="13.2831052"><ele>122.0</ele><time>2026-04-17T13:41:26.177Z</time></trkpt><trkpt lat="46.1038394" lon="13.2831534"><ele>122.0</ele><time>2026-04-17T13:41:27.177Z</time></trkpt><trkpt lat="46.1034658" lon="13.2832356"><ele>122.0</ele><time>2026-04-17T13:41:29.177Z</time></trkpt><trkpt lat="46.1032796" lon="13.2832862"><ele>122.0</ele><time>2026-04-17T13:41:30.177Z</time></trkpt><trkpt lat="46.1030876" lon="13.283332"><ele>122.0</ele><time>2026-04-17T13:41:31.176Z</time></trkpt><trkpt lat="46.1029003" lon="13.2833821"><ele>122.0</ele><time>2026-04-17T13:41:32.176Z</time></trkpt><trkpt lat="46.1027136" lon="13.2834292"><ele>122.0</ele><time>2026-04-17T13:41:33.177Z</time></trkpt><trkpt lat="46.1025283" lon="13.2834844"><ele>122.0</ele><time>2026-04-17T13:41:34.177Z</time></trkpt><trkpt lat="46.1023477" lon="13.2835366"><ele>122.0</ele><time>2026-04-17T13:41:35.177Z</time></trkpt><trkpt lat="46.1021646" lon="13.283587"><ele>122.0</ele><time>2026-04-17T13:41:36.177Z</time></trkpt><trkpt lat="46.1019814" lon="13.2836448"><ele>122.0</ele><time>2026-04-17T13:41:37.176Z</time></trkpt><trkpt lat="46.1018026" lon="13.2837235"><ele>122.0</ele><time>2026-04-17T13:41:38.176Z</time></trkpt><trkpt lat="46.1016232" lon="13.2838145"><ele>122.0</ele><time>2026-04-17T13:41:39.177Z</time></trkpt><trkpt lat="46.1014453" lon="13.2839103"><ele>122.0</ele><time>2026-04-17T13:41:40.177Z</time></trkpt><trkpt lat="46.1012732" lon="13.2840166"><ele>121.66666666666666</ele><time>2026-04-17T13:41:41.176Z</time></trkpt><trkpt lat="46.1011002" lon="13.2841289"><ele>121.33333333333334</ele><time>2026-04-17T13:41:42.177Z</time></trkpt><trkpt lat="46.1009363" lon="13.2842524"><ele>121.0</ele><time>2026-04-17T13:41:43.177Z</time></trkpt><trkpt lat="46.1007733" lon="13.2843897"><ele>120.66666666666667</ele><time>2026-04-17T13:41:44.177Z</time></trkpt><trkpt lat="46.1006143" lon="13.2845358"><ele>120.33333333333334</ele><time>2026-04-17T13:41:45.177Z</time></trkpt><trkpt lat="46.1004584" lon="13.2846974"><ele>120.0</ele><time>2026-04-17T13:41:46.177Z</time></trkpt><trkpt lat="46.1003033" lon="13.2848699"><ele>120.0</ele><time>2026-04-17T13:41:47.177Z</time></trkpt><trkpt lat="46.100156" lon="13.2850513"><ele>120.0</ele><time>2026-04-17T13:41:48.177Z</time></trkpt><trkpt lat="46.0998748" lon="13.2854281"><ele>119.66666666666666</ele><time>2026-04-17T13:41:50.177Z</time></trkpt><trkpt lat="46.0997422" lon="13.2856282"><ele>119.33333333333333</ele><time>2026-04-17T13:41:51.177Z</time></trkpt><trkpt lat="46.0996194" lon="13.2858396"><ele>119.0</ele><time>2026-04-17T13:41:52.177Z</time></trkpt><trkpt lat="46.0995009" lon="13.2860596"><ele>119.0</ele><time>2026-04-17T13:41:53.177Z</time></trkpt><trkpt lat="46.0993848" lon="13.2862833"><ele>119.0</ele><time>2026-04-17T13:41:54.176Z</time></trkpt><trkpt lat="46.0992653" lon="13.286514"><ele>119.0</ele><time>2026-04-17T13:41:55.177Z</time></trkpt><trkpt lat="46.0991412" lon="13.2867385"><ele>119.0</ele><time>2026-04-17T13:41:56.177Z</time></trkpt><trkpt lat="46.0990159" lon="13.2869503"><ele>119.0</ele><time>2026-04-17T13:41:57.176Z</time></trkpt><trkpt lat="46.0988843" lon="13.2871597"><ele>119.0</ele><time>2026-04-17T13:41:58.176Z</time></trkpt><trkpt lat="46.0987488" lon="13.2873634"><ele>119.33333333333333</ele><time>2026-04-17T13:41:59.176Z</time></trkpt><trkpt lat="46.0986118" lon="13.2875584"><ele>119.66666666666666</ele><time>2026-04-17T13:42:00.176Z</time></trkpt><trkpt lat="46.0984643" lon="13.2877483"><ele>120.0</ele><time>2026-04-17T13:42:01.177Z</time></trkpt><trkpt lat="46.0983124" lon="13.2879222"><ele>120.0</ele><time>2026-04-17T13:42:02.177Z</time></trkpt><trkpt lat="46.0981512" lon="13.2880868"><ele>120.0</ele><time>2026-04-17T13:42:03.177Z</time></trkpt><trkpt lat="46.0979873" lon="13.2882442"><ele>120.0</ele><time>2026-04-17T13:42:04.177Z</time></trkpt><trkpt lat="46.0978191" lon="13.2883912"><ele>120.0</ele><time>2026-04-17T13:42:05.177Z</time></trkpt><trkpt lat="46.0976443" lon="13.2885191"><ele>120.0</ele><time>2026-04-17T13:42:06.176Z</time></trkpt><trkpt lat="46.0974599" lon="13.2886278"><ele>120.0</ele><time>2026-04-17T13:42:07.177Z</time></trkpt><trkpt lat="46.097277" lon="13.2887235"><ele>119.5</ele><time>2026-04-17T13:42:08.176Z</time></trkpt><trkpt lat="46.0970975" lon="13.2888223"><ele>119.0</ele><time>2026-04-17T13:42:09.176Z</time></trkpt><trkpt lat="46.0967398" lon="13.2890177"><ele>119.66666666666666</ele><time>2026-04-17T13:42:11.176Z</time></trkpt><trkpt lat="46.0965742" lon="13.2891046"><ele>120.33333333333334</ele><time>2026-04-17T13:42:12.177Z</time></trkpt><trkpt lat="46.0964181" lon="13.289186"><ele>121.0</ele><time>2026-04-17T13:42:13.177Z</time></trkpt><trkpt lat="46.0962803" lon="13.2892644"><ele>121.0</ele><time>2026-04-17T13:42:14.176Z</time></trkpt><trkpt lat="46.0961514" lon="13.2893346"><ele>121.0</ele><time>2026-04-17T13:42:15.177Z</time></trkpt><trkpt lat="46.0960233" lon="13.2893872"><ele>121.0</ele><time>2026-04-17T13:42:16.176Z</time></trkpt><trkpt lat="46.0958942" lon="13.2894039"><ele>121.0</ele><time>2026-04-17T13:42:17.177Z</time></trkpt><trkpt lat="46.0957696" lon="13.2894031"><ele>120.8</ele><time>2026-04-17T13:42:18.176Z</time></trkpt><trkpt lat="46.095653" lon="13.2893771"><ele>120.6</ele><time>2026-04-17T13:42:19.177Z</time></trkpt><trkpt lat="46.0955535" lon="13.2893322"><ele>120.4</ele><time>2026-04-17T13:42:20.177Z</time></trkpt><trkpt lat="46.0954596" lon="13.2892607"><ele>120.2</ele><time>2026-04-17T13:42:21.176Z</time></trkpt><trkpt lat="46.0953664" lon="13.2891785"><ele>120.0</ele><time>2026-04-17T13:42:22.177Z</time></trkpt><trkpt lat="46.0952583" lon="13.2891159"><ele>120.0</ele><time>2026-04-17T13:42:23.177Z</time></trkpt><trkpt lat="46.0951362" lon="13.2890809"><ele>120.0</ele><time>2026-04-17T13:42:24.176Z</time></trkpt><trkpt lat="46.0950198" lon="13.2890712"><ele>120.0</ele><time>2026-04-17T13:42:25.177Z</time></trkpt><trkpt lat="46.0949203" lon="13.2890518"><ele>120.0</ele><time>2026-04-17T13:42:26.177Z</time></trkpt><trkpt lat="46.0948362" lon="13.2890051"><ele>120.0</ele><time>2026-04-17T13:42:27.177Z</time></trkpt><trkpt lat="46.0947666" lon="13.288955"><ele>119.0</ele><time>2026-04-17T13:42:28.176Z</time></trkpt><trkpt lat="46.0947116" lon="13.2889056"><ele>118.0</ele><time>2026-04-17T13:42:29.177Z</time></trkpt><trkpt lat="46.0946316" lon="13.2888737"><ele>117.0</ele><time>2026-04-17T13:42:31.177Z</time></trkpt><trkpt lat="46.0944113" lon="13.2890026"><ele>116.0</ele><time>2026-04-17T13:42:34.177Z</time></trkpt><trkpt lat="46.0942904" lon="13.2890931"><ele>116.0</ele><time>2026-04-17T13:42:35.177Z</time></trkpt><trkpt lat="46.0941571" lon="13.2891829"><ele>116.0</ele><time>2026-04-17T13:42:36.177Z</time></trkpt><trkpt lat="46.0940202" lon="13.289266"><ele>116.0</ele><time>2026-04-17T13:42:37.177Z</time></trkpt><trkpt lat="46.0938768" lon="13.2893705"><ele>114.0</ele><time>2026-04-17T13:42:38.176Z</time></trkpt><trkpt lat="46.0937273" lon="13.289484"><ele>112.0</ele><time>2026-04-17T13:42:39.176Z</time></trkpt><trkpt lat="46.0935943" lon="13.2895904"><ele>110.0</ele><time>2026-04-17T13:42:40.176Z</time></trkpt><trkpt lat="46.0934674" lon="13.2896826"><ele>110.0</ele><time>2026-04-17T13:42:41.177Z</time></trkpt><trkpt lat="46.093346" lon="13.2897583"><ele>110.0</ele><time>2026-04-17T13:42:42.177Z</time></trkpt><trkpt lat="46.0932402" lon="13.289827"><ele>110.0</ele><time>2026-04-17T13:42:43.176Z</time></trkpt><trkpt lat="46.0931332" lon="13.2898688"><ele>110.0</ele><time>2026-04-17T13:42:44.177Z</time></trkpt><trkpt lat="46.093032" lon="13.2898835"><ele>110.6</ele><time>2026-04-17T13:42:45.177Z</time></trkpt><trkpt lat="46.0929326" lon="13.289893"><ele>111.2</ele><time>2026-04-17T13:42:46.176Z</time></trkpt><trkpt lat="46.0928343" lon="13.2899162"><ele>111.80000000000001</ele><time>2026-04-17T13:42:47.177Z</time></trkpt><trkpt lat="46.092738" lon="13.2899707"><ele>112.4</ele><time>2026-04-17T13:42:48.177Z</time></trkpt><trkpt lat="46.0926388" lon="13.2900505"><ele>113.0</ele><time>2026-04-17T13:42:49.177Z</time></trkpt><trkpt lat="46.0925307" lon="13.2901412"><ele>114.0</ele><time>2026-04-17T13:42:50.177Z</time></trkpt><trkpt lat="46.0924169" lon="13.2902319"><ele>115.0</ele><time>2026-04-17T13:42:51.177Z</time></trkpt><trkpt lat="46.0923086" lon="13.2903133"><ele>116.0</ele><time>2026-04-17T13:42:52.176Z</time></trkpt><trkpt lat="46.0921196" lon="13.2904411"><ele>115.99999999999999</ele><time>2026-04-17T13:42:54.176Z</time></trkpt><trkpt lat="46.0920357" lon="13.2904778"><ele>116.0</ele><time>2026-04-17T13:42:55.176Z</time></trkpt><trkpt lat="46.0919483" lon="13.2904937"><ele>116.0</ele><time>2026-04-17T13:42:56.177Z</time></trkpt><trkpt lat="46.0918668" lon="13.2904938"><ele>116.0</ele><time>2026-04-17T13:42:57.176Z</time></trkpt><trkpt lat="46.0917967" lon="13.2904806"><ele>115.99999999999999</ele><time>2026-04-17T13:42:58.176Z</time></trkpt><trkpt lat="46.0917393" lon="13.2904421"><ele>116.0</ele><time>2026-04-17T13:42:59.177Z</time></trkpt><trkpt lat="46.0916734" lon="13.2903253"><ele>115.99999999999999</ele><time>2026-04-17T13:43:01.176Z</time></trkpt><trkpt lat="46.0916691" lon="13.2902282"><ele>116.0</ele><time>2026-04-17T13:43:02.176Z</time></trkpt><trkpt lat="46.0916858" lon="13.2900819"><ele>116.0</ele><time>2026-04-17T13:43:03.176Z</time></trkpt><trkpt lat="46.0917116" lon="13.289938"><ele>116.0</ele><time>2026-04-17T13:43:04.177Z</time></trkpt><trkpt lat="46.0917221" lon="13.2898228"><ele>115.99999999999999</ele><time>2026-04-17T13:43:05.176Z</time></trkpt><trkpt lat="46.0917198" lon="13.2897205"><ele>116.0</ele><time>2026-04-17T13:43:06.176Z</time></trkpt><trkpt lat="46.091654" lon="13.2895827"><ele>115.5</ele><time>2026-04-17T13:43:08.177Z</time></trkpt><trkpt lat="46.0915772" lon="13.2895286"><ele>115.0</ele><time>2026-04-17T13:43:09.177Z</time></trkpt><trkpt lat="46.0914737" lon="13.2894975"><ele>114.5</ele><time>2026-04-17T13:43:10.176Z</time></trkpt><trkpt lat="46.0913468" lon="13.2894744"><ele>114.0</ele><time>2026-04-17T13:43:11.176Z</time></trkpt><trkpt lat="46.0912078" lon="13.2894513"><ele>114.0</ele><time>2026-04-17T13:43:12.177Z</time></trkpt><trkpt lat="46.0910601" lon="13.2894281"><ele>114.0</ele><time>2026-04-17T13:43:13.177Z</time></trkpt><trkpt lat="46.0907389" lon="13.2893705"><ele>114.66666666666666</ele><time>2026-04-17T13:43:15.176Z</time></trkpt><trkpt lat="46.0905756" lon="13.2893418"><ele>115.33333333333333</ele><time>2026-04-17T13:43:16.177Z</time></trkpt><trkpt lat="46.0903993" lon="13.2893277"><ele>116.0</ele><time>2026-04-17T13:43:17.177Z</time></trkpt><trkpt lat="46.0902145" lon="13.2893114"><ele>116.0</ele><time>2026-04-17T13:43:18.176Z</time></trkpt><trkpt lat="46.09003" lon="13.2892989"><ele>116.0</ele><time>2026-04-17T13:43:19.177Z</time></trkpt><trkpt lat="46.0898416" lon="13.2892864"><ele>116.0</ele><time>2026-04-17T13:43:20.177Z</time></trkpt><trkpt lat="46.08965" lon="13.2892739"><ele>115.33333333333333</ele><time>2026-04-17T13:43:21.177Z</time></trkpt><trkpt lat="46.0894646" lon="13.2892726"><ele>114.66666666666666</ele><time>2026-04-17T13:43:22.176Z</time></trkpt><trkpt lat="46.0892771" lon="13.2892684"><ele>114.0</ele><time>2026-04-17T13:43:23.177Z</time></trkpt><trkpt lat="46.0890965" lon="13.2892613"><ele>114.66666666666666</ele><time>2026-04-17T13:43:24.177Z</time></trkpt><trkpt lat="46.0889107" lon="13.2892531"><ele>115.33333333333333</ele><time>2026-04-17T13:43:25.176Z</time></trkpt><trkpt lat="46.0887307" lon="13.2892596"><ele>116.0</ele><time>2026-04-17T13:43:26.177Z</time></trkpt><trkpt lat="46.0885632" lon="13.2892747"><ele>116.0</ele><time>2026-04-17T13:43:27.176Z</time></trkpt><trkpt lat="46.0884193" lon="13.2892859"><ele>116.0</ele><time>2026-04-17T13:43:28.177Z</time></trkpt><trkpt lat="46.0882901" lon="13.2892977"><ele>116.0</ele><time>2026-04-17T13:43:29.177Z</time></trkpt><trkpt lat="46.0881707" lon="13.2892781"><ele>116.0</ele><time>2026-04-17T13:43:30.176Z</time></trkpt><trkpt lat="46.0880641" lon="13.2892284"><ele>115.0</ele><time>2026-04-17T13:43:31.177Z</time></trkpt><trkpt lat="46.0879761" lon="13.2891213"><ele>114.0</ele><time>2026-04-17T13:43:32.176Z</time></trkpt><trkpt lat="46.0878795" lon="13.2889976"><ele>113.0</ele><time>2026-04-17T13:43:33.176Z</time></trkpt><trkpt lat="46.0877982" lon="13.2888398"><ele>112.0</ele><time>2026-04-17T13:43:34.177Z</time></trkpt><trkpt lat="46.0876424" lon="13.2885092"><ele>112.0</ele><time>2026-04-17T13:43:36.177Z</time></trkpt><trkpt lat="46.0875631" lon="13.2883871"><ele>112.0</ele><time>2026-04-17T13:43:37.176Z</time></trkpt><trkpt lat="46.0874747" lon="13.2882771"><ele>112.0</ele><time>2026-04-17T13:43:38.177Z</time></trkpt><trkpt lat="46.0873793" lon="13.2881864"><ele>112.0</ele><time>2026-04-17T13:43:39.177Z</time></trkpt><trkpt lat="46.0872859" lon="13.2881223"><ele>112.0</ele><time>2026-04-17T13:43:40.177Z</time></trkpt><trkpt lat="46.087198" lon="13.2880819"><ele>111.99999999999999</ele><time>2026-04-17T13:43:41.176Z</time></trkpt><trkpt lat="46.087112" lon="13.288077"><ele>111.99999999999999</ele><time>2026-04-17T13:43:42.177Z</time></trkpt><trkpt lat="46.087015" lon="13.2880975"><ele>112.0</ele><time>2026-04-17T13:43:43.177Z</time></trkpt><trkpt lat="46.0869031" lon="13.2881605"><ele>112.0</ele><time>2026-04-17T13:43:44.177Z</time></trkpt><trkpt lat="46.0867729" lon="13.2882349"><ele>112.0</ele><time>2026-04-17T13:43:45.177Z</time></trkpt><trkpt lat="46.0866379" lon="13.288311"><ele>112.0</ele><time>2026-04-17T13:43:46.177Z</time></trkpt><trkpt lat="46.0864998" lon="13.2883802"><ele>112.0</ele><time>2026-04-17T13:43:47.176Z</time></trkpt><trkpt lat="46.0863582" lon="13.2884537"><ele>112.0</ele><time>2026-04-17T13:43:48.177Z</time></trkpt><trkpt lat="46.0862179" lon="13.2885347"><ele>111.66666666666667</ele><time>2026-04-17T13:43:49.177Z</time></trkpt><trkpt lat="46.0860756" lon="13.2886123"><ele>111.33333333333334</ele><time>2026-04-17T13:43:50.176Z</time></trkpt><trkpt lat="46.0859324" lon="13.2886793"><ele>111.0</ele><time>2026-04-17T13:43:51.177Z</time></trkpt><trkpt lat="46.0857863" lon="13.2887314"><ele>111.33333333333334</ele><time>2026-04-17T13:43:52.177Z</time></trkpt><trkpt lat="46.0856361" lon="13.2887959"><ele>111.66666666666667</ele><time>2026-04-17T13:43:53.176Z</time></trkpt><trkpt lat="46.085484" lon="13.288872"><ele>112.0</ele><time>2026-04-17T13:43:54.177Z</time></trkpt><trkpt lat="46.0853237" lon="13.2889585"><ele>112.0</ele><time>2026-04-17T13:43:55.177Z</time></trkpt><trkpt lat="46.0850086" lon="13.2891404"><ele>112.0</ele><time>2026-04-17T13:43:57.177Z</time></trkpt><trkpt lat="46.0848483" lon="13.2892377"><ele>111.66666666666667</ele><time>2026-04-17T13:43:58.177Z</time></trkpt><trkpt lat="46.0846823" lon="13.2893382"><ele>111.33333333333334</ele><time>2026-04-17T13:43:59.177Z</time></trkpt><trkpt lat="46.0845226" lon="13.2894447"><ele>111.0</ele><time>2026-04-17T13:44:00.177Z</time></trkpt><trkpt lat="46.0843729" lon="13.2895445"><ele>111.0</ele><time>2026-04-17T13:44:01.177Z</time></trkpt><trkpt lat="46.0842216" lon="13.2896255"><ele>111.0</ele><time>2026-04-17T13:44:02.177Z</time></trkpt><trkpt lat="46.0840638" lon="13.2896977"><ele>111.0</ele><time>2026-04-17T13:44:03.176Z</time></trkpt><trkpt lat="46.0839034" lon="13.2897746"><ele>110.33333333333334</ele><time>2026-04-17T13:44:04.177Z</time></trkpt><trkpt lat="46.0837432" lon="13.2898493"><ele>109.66666666666667</ele><time>2026-04-17T13:44:05.177Z</time></trkpt><trkpt lat="46.0835723" lon="13.2899149"><ele>109.0</ele><time>2026-04-17T13:44:06.176Z</time></trkpt><trkpt lat="46.0834171" lon="13.2899754"><ele>109.0</ele><time>2026-04-17T13:44:07.176Z</time></trkpt><trkpt lat="46.0832797" lon="13.290031"><ele>109.0</ele><time>2026-04-17T13:44:08.176Z</time></trkpt><trkpt lat="46.083155" lon="13.2900757"><ele>109.0</ele><time>2026-04-17T13:44:09.176Z</time></trkpt><trkpt lat="46.0830332" lon="13.2901058"><ele>109.0</ele><time>2026-04-17T13:44:10.176Z</time></trkpt><trkpt lat="46.0829184" lon="13.2901261"><ele>109.16666666666667</ele><time>2026-04-17T13:44:11.177Z</time></trkpt><trkpt lat="46.0828166" lon="13.2901395"><ele>109.33333333333334</ele><time>2026-04-17T13:44:12.176Z</time></trkpt><trkpt lat="46.0827297" lon="13.2901503"><ele>109.5</ele><time>2026-04-17T13:44:13.177Z</time></trkpt><trkpt lat="46.082655" lon="13.2901528"><ele>109.66666666666666</ele><time>2026-04-17T13:44:14.177Z</time></trkpt><trkpt lat="46.0825914" lon="13.290151"><ele>109.83333333333333</ele><time>2026-04-17T13:44:15.176Z</time></trkpt><trkpt lat="46.0824953" lon="13.2901099"><ele>110.0</ele><time>2026-04-17T13:44:17.177Z</time></trkpt><trkpt lat="46.0824267" lon="13.2899367"><ele>110.0</ele><time>2026-04-17T13:45:48.175Z</time></trkpt><trkpt lat="46.0823442" lon="13.2897744"><ele>110.0</ele><time>2026-04-17T13:45:53.175Z</time></trkpt><trkpt lat="46.0822663" lon="13.2897725"><ele>110.0</ele><time>2026-04-17T13:45:55.176Z</time></trkpt><trkpt lat="46.0821412" lon="13.2897878"><ele>110.0</ele><time>2026-04-17T13:45:57.175Z</time></trkpt><trkpt lat="46.082075" lon="13.2897932"><ele>110.0</ele><time>2026-04-17T13:45:58.176Z</time></trkpt><trkpt lat="46.0819964" lon="13.2898029"><ele>110.0</ele><time>2026-04-17T13:45:59.176Z</time></trkpt><trkpt lat="46.0819079" lon="13.2898157"><ele>110.0</ele><time>2026-04-17T13:46:00.175Z</time></trkpt><trkpt lat="46.0818209" lon="13.2898244"><ele>110.0</ele><time>2026-04-17T13:46:01.175Z</time></trkpt><trkpt lat="46.0817308" lon="13.2898365"><ele>110.0</ele><time>2026-04-17T13:46:02.176Z</time></trkpt><trkpt lat="46.0816389" lon="13.2898577"><ele>110.0</ele><time>2026-04-17T13:46:03.176Z</time></trkpt><trkpt lat="46.0815488" lon="13.2898716"><ele>109.6</ele><time>2026-04-17T13:46:04.176Z</time></trkpt><trkpt lat="46.08146" lon="13.289878"><ele>109.2</ele><time>2026-04-17T13:46:05.175Z</time></trkpt><trkpt lat="46.0813743" lon="13.2898881"><ele>108.80000000000001</ele><time>2026-04-17T13:46:06.176Z</time></trkpt><trkpt lat="46.0812861" lon="13.2898964"><ele>108.4</ele><time>2026-04-17T13:46:07.175Z</time></trkpt><trkpt lat="46.0811904" lon="13.2898938"><ele>108.0</ele><time>2026-04-17T13:46:08.176Z</time></trkpt><trkpt lat="46.0810877" lon="13.2898821"><ele>108.0</ele><time>2026-04-17T13:46:09.176Z</time></trkpt><trkpt lat="46.080871" lon="13.2898857"><ele>108.0</ele><time>2026-04-17T13:46:11.176Z</time></trkpt><trkpt lat="46.0807702" lon="13.2898891"><ele>108.0</ele><time>2026-04-17T13:46:12.175Z</time></trkpt><trkpt lat="46.0806791" lon="13.2898991"><ele>108.0</ele><time>2026-04-17T13:46:13.176Z</time></trkpt><trkpt lat="46.0805923" lon="13.2899052"><ele>108.0</ele><time>2026-04-17T13:46:14.176Z</time></trkpt><trkpt lat="46.080508" lon="13.2899232"><ele>108.0</ele><time>2026-04-17T13:46:15.176Z</time></trkpt><trkpt lat="46.0804311" lon="13.2899323"><ele>108.0</ele><time>2026-04-17T13:46:16.176Z</time></trkpt><trkpt lat="46.0803498" lon="13.2899269"><ele>108.0</ele><time>2026-04-17T13:46:17.176Z</time></trkpt><trkpt lat="46.0802637" lon="13.2899225"><ele>108.0</ele><time>2026-04-17T13:46:18.175Z</time></trkpt><trkpt lat="46.0801631" lon="13.2899222"><ele>108.0</ele><time>2026-04-17T13:46:19.176Z</time></trkpt><trkpt lat="46.0800482" lon="13.2899305"><ele>108.25</ele><time>2026-04-17T13:46:20.176Z</time></trkpt><trkpt lat="46.0799213" lon="13.2899592"><ele>108.5</ele><time>2026-04-17T13:46:21.176Z</time></trkpt><trkpt lat="46.079796" lon="13.2899852"><ele>108.75</ele><time>2026-04-17T13:46:22.176Z</time></trkpt><trkpt lat="46.0796737" lon="13.2900025"><ele>109.0</ele><time>2026-04-17T13:46:23.176Z</time></trkpt><trkpt lat="46.0795546" lon="13.2900206"><ele>109.0</ele><time>2026-04-17T13:46:24.176Z</time></trkpt><trkpt lat="46.0794302" lon="13.290039"><ele>109.0</ele><time>2026-04-17T13:46:25.176Z</time></trkpt><trkpt lat="46.0793119" lon="13.290067"><ele>109.0</ele><time>2026-04-17T13:46:26.176Z</time></trkpt><trkpt lat="46.0791896" lon="13.290106"><ele>109.0</ele><time>2026-04-17T13:46:27.176Z</time></trkpt><trkpt lat="46.0790581" lon="13.2901426"><ele>109.33333333333334</ele><time>2026-04-17T13:46:28.176Z</time></trkpt><trkpt lat="46.0789296" lon="13.2901766"><ele>109.66666666666666</ele><time>2026-04-17T13:46:29.175Z</time></trkpt><trkpt lat="46.0788063" lon="13.2902131"><ele>110.0</ele><time>2026-04-17T13:46:30.176Z</time></trkpt><trkpt lat="46.0785946" lon="13.290283"><ele>110.0</ele><time>2026-04-17T13:46:32.176Z</time></trkpt><trkpt lat="46.0785055" lon="13.2903122"><ele>110.0</ele><time>2026-04-17T13:46:33.176Z</time></trkpt><trkpt lat="46.0784122" lon="13.2903481"><ele>110.0</ele><time>2026-04-17T13:46:34.175Z</time></trkpt><trkpt lat="46.0783171" lon="13.2903871"><ele>110.0</ele><time>2026-04-17T13:46:35.176Z</time></trkpt><trkpt lat="46.0782286" lon="13.2904175"><ele>110.0</ele><time>2026-04-17T13:46:36.175Z</time></trkpt><trkpt lat="46.0781548" lon="13.2904493"><ele>109.71428571428571</ele><time>2026-04-17T13:46:37.176Z</time></trkpt><trkpt lat="46.0780852" lon="13.2904872"><ele>109.42857142857143</ele><time>2026-04-17T13:46:38.176Z</time></trkpt><trkpt lat="46.0780163" lon="13.2905201"><ele>109.14285714285714</ele><time>2026-04-17T13:46:39.176Z</time></trkpt><trkpt lat="46.0779453" lon="13.2905564"><ele>108.85714285714286</ele><time>2026-04-17T13:46:40.175Z</time></trkpt><trkpt lat="46.0778728" lon="13.2905923"><ele>108.57142857142857</ele><time>2026-04-17T13:46:41.175Z</time></trkpt><trkpt lat="46.0778019" lon="13.2906302"><ele>108.28571428571428</ele><time>2026-04-17T13:46:42.176Z</time></trkpt><trkpt lat="46.0777432" lon="13.2906661"><ele>108.0</ele><time>2026-04-17T13:46:43.175Z</time></trkpt><trkpt lat="46.0776795" lon="13.2906942"><ele>107.80000000000001</ele><time>2026-04-17T13:46:44.176Z</time></trkpt><trkpt lat="46.0775677" lon="13.2907172"><ele>107.60000000000001</ele><time>2026-04-17T13:46:46.176Z</time></trkpt><trkpt lat="46.0774651" lon="13.2907813"><ele>107.39999999999999</ele><time>2026-04-17T13:46:48.176Z</time></trkpt><trkpt lat="46.077378" lon="13.2908528"><ele>107.19999999999999</ele><time>2026-04-17T13:46:50.176Z</time></trkpt><trkpt lat="46.0773154" lon="13.2908955"><ele>107.0</ele><time>2026-04-17T13:46:52.175Z</time></trkpt><trkpt lat="46.0772186" lon="13.2907589"><ele>106.66666666666666</ele><time>2026-04-17T13:46:59.176Z</time></trkpt><trkpt lat="46.077207" lon="13.2906626"><ele>106.33333333333333</ele><time>2026-04-17T13:47:01.175Z</time></trkpt><trkpt lat="46.0771856" lon="13.2905473"><ele>106.0</ele><time>2026-04-17T13:47:03.176Z</time></trkpt><trkpt lat="46.0771331" lon="13.2904376"><ele>105.66666666666666</ele><time>2026-04-17T13:47:09.176Z</time></trkpt><trkpt lat="46.0770869" lon="13.2903327"><ele>105.33333333333333</ele><time>2026-04-17T13:47:12.175Z</time></trkpt><trkpt lat="46.0771254" lon="13.2904149"><ele>105.0</ele><time>2026-04-17T13:47:33.176Z</time></trkpt><trkpt lat="46.0770899" lon="13.2906239"><ele>104.33333333333333</ele><time>2026-04-17T13:47:39.175Z</time></trkpt><trkpt lat="46.0771096" lon="13.2907242"><ele>103.66666666666666</ele><time>2026-04-17T13:47:41.176Z</time></trkpt><trkpt lat="46.0771621" lon="13.2908127"><ele>103.0</ele><time>2026-04-17T13:47:44.176Z</time></trkpt><trkpt lat="46.0772297" lon="13.2908458"><ele>102.33333333333333</ele><time>2026-04-17T13:47:46.176Z</time></trkpt><trkpt lat="46.0772945" lon="13.2909205"><ele>101.66666666666666</ele><time>2026-04-17T13:47:48.176Z</time></trkpt><trkpt lat="46.0773518" lon="13.2910541"><ele>101.0</ele><time>2026-04-17T13:47:50.176Z</time></trkpt><trkpt lat="46.0773842" lon="13.291187"><ele>102.5</ele><time>2026-04-17T13:47:52.176Z</time></trkpt><trkpt lat="46.0774493" lon="13.2911147"><ele>104.0</ele><time>2026-04-17T13:48:17.174Z</time></trkpt><trkpt lat="46.0775435" lon="13.2909399"><ele>105.5</ele><time>2026-04-17T13:48:40.175Z</time></trkpt><trkpt lat="46.0777165" lon="13.290894"><ele>107.0</ele><time>2026-04-17T13:48:45.174Z</time></trkpt><trkpt lat="46.077843" lon="13.2908558"><ele>107.0</ele><time>2026-04-17T13:48:47.175Z</time></trkpt><trkpt lat="46.0779313" lon="13.2908094"><ele>107.0</ele><time>2026-04-17T13:48:48.174Z</time></trkpt><trkpt lat="46.0780367" lon="13.2907368"><ele>107.0</ele><time>2026-04-17T13:48:49.175Z</time></trkpt><trkpt lat="46.0781561" lon="13.2906566"><ele>107.0</ele><time>2026-04-17T13:48:50.175Z</time></trkpt><trkpt lat="46.0782735" lon="13.2905885"><ele>107.75</ele><time>2026-04-17T13:48:51.175Z</time></trkpt><trkpt lat="46.0783815" lon="13.2905233"><ele>108.5</ele><time>2026-04-17T13:48:52.175Z</time></trkpt><trkpt lat="46.0784931" lon="13.2904744"><ele>109.25</ele><time>2026-04-17T13:48:53.175Z</time></trkpt><trkpt lat="46.0786062" lon="13.2904288"><ele>110.0</ele><time>2026-04-17T13:48:54.175Z</time></trkpt><trkpt lat="46.0787193" lon="13.2903815"><ele>110.0</ele><time>2026-04-17T13:48:55.175Z</time></trkpt><trkpt lat="46.0788329" lon="13.290342"><ele>110.0</ele><time>2026-04-17T13:48:56.175Z</time></trkpt><trkpt lat="46.0789482" lon="13.2902968"><ele>110.0</ele><time>2026-04-17T13:48:57.175Z</time></trkpt><trkpt lat="46.0790556" lon="13.2902539"><ele>110.0</ele><time>2026-04-17T13:48:58.175Z</time></trkpt><trkpt lat="46.0791652" lon="13.2902261"><ele>109.75</ele><time>2026-04-17T13:48:59.175Z</time></trkpt><trkpt lat="46.0792702" lon="13.2901933"><ele>109.5</ele><time>2026-04-17T13:49:00.175Z</time></trkpt><trkpt lat="46.0794679" lon="13.2901349"><ele>109.25</ele><time>2026-04-17T13:49:02.175Z</time></trkpt><trkpt lat="46.0795617" lon="13.2900952"><ele>109.0</ele><time>2026-04-17T13:49:03.175Z</time></trkpt><trkpt lat="46.0796712" lon="13.2900646"><ele>109.0</ele><time>2026-04-17T13:49:04.175Z</time></trkpt><trkpt lat="46.0797908" lon="13.2900487"><ele>109.0</ele><time>2026-04-17T13:49:05.174Z</time></trkpt><trkpt lat="46.0799064" lon="13.2900288"><ele>109.0</ele><time>2026-04-17T13:49:06.175Z</time></trkpt><trkpt lat="46.0800144" lon="13.2900121"><ele>109.0</ele><time>2026-04-17T13:49:07.174Z</time></trkpt><trkpt lat="46.0801184" lon="13.2900018"><ele>109.0</ele><time>2026-04-17T13:49:08.175Z</time></trkpt><trkpt lat="46.0802214" lon="13.2899909"><ele>108.80000000000001</ele><time>2026-04-17T13:49:09.175Z</time></trkpt><trkpt lat="46.0803264" lon="13.2899773"><ele>108.60000000000001</ele><time>2026-04-17T13:49:10.174Z</time></trkpt><trkpt lat="46.080429" lon="13.2899572"><ele>108.4</ele><time>2026-04-17T13:49:11.175Z</time></trkpt><trkpt lat="46.0805346" lon="13.289932"><ele>108.2</ele><time>2026-04-17T13:49:12.174Z</time></trkpt><trkpt lat="46.0806367" lon="13.2899036"><ele>108.0</ele><time>2026-04-17T13:49:13.175Z</time></trkpt><trkpt lat="46.0807385" lon="13.2898788"><ele>108.0</ele><time>2026-04-17T13:49:14.174Z</time></trkpt><trkpt lat="46.0808415" lon="13.2898603"><ele>108.00000000000001</ele><time>2026-04-17T13:49:15.174Z</time></trkpt><trkpt lat="46.0809449" lon="13.2898562"><ele>108.00000000000001</ele><time>2026-04-17T13:49:16.175Z</time></trkpt><trkpt lat="46.0810404" lon="13.2898614"><ele>108.0</ele><time>2026-04-17T13:49:17.175Z</time></trkpt><trkpt lat="46.081134" lon="13.2898584"><ele>108.0</ele><time>2026-04-17T13:49:18.174Z</time></trkpt><trkpt lat="46.0812243" lon="13.2898566"><ele>108.0</ele><time>2026-04-17T13:49:19.175Z</time></trkpt><trkpt lat="46.081316" lon="13.2898545"><ele>108.0</ele><time>2026-04-17T13:49:20.175Z</time></trkpt><trkpt lat="46.0814113" lon="13.2898514"><ele>108.0</ele><time>2026-04-17T13:49:21.174Z</time></trkpt><trkpt lat="46.0815988" lon="13.2898184"><ele>108.0</ele><time>2026-04-17T13:49:23.175Z</time></trkpt><trkpt lat="46.0817041" lon="13.2897848"><ele>108.80000000000001</ele><time>2026-04-17T13:49:24.174Z</time></trkpt><trkpt lat="46.0818168" lon="13.2897463"><ele>109.60000000000001</ele><time>2026-04-17T13:49:25.175Z</time></trkpt><trkpt lat="46.0819265" lon="13.2896979"><ele>110.39999999999999</ele><time>2026-04-17T13:49:26.175Z</time></trkpt><trkpt lat="46.0820253" lon="13.2896518"><ele>111.19999999999999</ele><time>2026-04-17T13:49:27.175Z</time></trkpt><trkpt lat="46.082114" lon="13.2896264"><ele>112.0</ele><time>2026-04-17T13:49:28.175Z</time></trkpt><trkpt lat="46.082194" lon="13.2896036"><ele>112.00000000000001</ele><time>2026-04-17T13:49:29.175Z</time></trkpt><trkpt lat="46.0822567" lon="13.2895887"><ele>112.0</ele><time>2026-04-17T13:49:30.175Z</time></trkpt><trkpt lat="46.0823495" lon="13.2895725"><ele>112.0</ele><time>2026-04-17T13:49:32.174Z</time></trkpt><trkpt lat="46.0824072" lon="13.2896468"><ele>112.0</ele><time>2026-04-17T13:49:36.175Z</time></trkpt><trkpt lat="46.0824225" lon="13.2897656"><ele>112.00000000000001</ele><time>2026-04-17T13:49:38.175Z</time></trkpt><trkpt lat="46.0824318" lon="13.289858"><ele>112.0</ele><time>2026-04-17T13:49:39.174Z</time></trkpt><trkpt lat="46.0824477" lon="13.2899747"><ele>112.19999999999999</ele><time>2026-04-17T13:49:40.175Z</time></trkpt><trkpt lat="46.0824571" lon="13.290089"><ele>112.39999999999999</ele><time>2026-04-17T13:49:41.175Z</time></trkpt><trkpt lat="46.082455" lon="13.2902006"><ele>112.60000000000001</ele><time>2026-04-17T13:49:42.175Z</time></trkpt><trkpt lat="46.082419" lon="13.2904363"><ele>112.80000000000001</ele><time>2026-04-17T13:49:44.175Z</time></trkpt><trkpt lat="46.0823842" lon="13.2905471"><ele>113.0</ele><time>2026-04-17T13:49:45.175Z</time></trkpt><trkpt lat="46.0823416" lon="13.2906348"><ele>112.33333333333333</ele><time>2026-04-17T13:49:46.175Z</time></trkpt><trkpt lat="46.0823004" lon="13.2907039"><ele>111.66666666666666</ele><time>2026-04-17T13:49:47.175Z</time></trkpt><trkpt lat="46.0822412" lon="13.2908042"><ele>111.0</ele><time>2026-04-17T13:49:49.174Z</time></trkpt><trkpt lat="46.0821692" lon="13.2908693"><ele>110.33333333333334</ele><time>2026-04-17T13:49:51.174Z</time></trkpt><trkpt lat="46.0820641" lon="13.2909519"><ele>109.66666666666667</ele><time>2026-04-17T13:49:53.175Z</time></trkpt><trkpt lat="46.0819834" lon="13.2910095"><ele>109.0</ele><time>2026-04-17T13:49:54.175Z</time></trkpt><trkpt lat="46.081885" lon="13.2910793"><ele>109.0</ele><time>2026-04-17T13:49:55.174Z</time></trkpt><trkpt lat="46.0817657" lon="13.2911576"><ele>109.0</ele><time>2026-04-17T13:49:56.175Z</time></trkpt><trkpt lat="46.0816396" lon="13.2912363"><ele>109.0</ele><time>2026-04-17T13:49:57.174Z</time></trkpt><trkpt lat="46.0815115" lon="13.2913223"><ele>109.0</ele><time>2026-04-17T13:49:58.175Z</time></trkpt><trkpt lat="46.0813823" lon="13.2914059"><ele>109.75</ele><time>2026-04-17T13:49:59.175Z</time></trkpt><trkpt lat="46.0812579" lon="13.2914788"><ele>110.5</ele><time>2026-04-17T13:50:00.174Z</time></trkpt><trkpt lat="46.0811417" lon="13.2915379"><ele>111.25</ele><time>2026-04-17T13:50:01.175Z</time></trkpt><trkpt lat="46.0810159" lon="13.2915954"><ele>112.0</ele><time>2026-04-17T13:50:02.174Z</time></trkpt><trkpt lat="46.0808916" lon="13.2916584"><ele>111.33333333333334</ele><time>2026-04-17T13:50:03.174Z</time></trkpt><trkpt lat="46.080673" lon="13.2918438"><ele>110.66666666666666</ele><time>2026-04-17T13:50:05.175Z</time></trkpt><trkpt lat="46.0806064" lon="13.2919709"><ele>110.0</ele><time>2026-04-17T13:50:06.174Z</time></trkpt><trkpt lat="46.0805602" lon="13.2921318"><ele>109.75</ele><time>2026-04-17T13:50:07.175Z</time></trkpt><trkpt lat="46.0805368" lon="13.2923099"><ele>109.5</ele><time>2026-04-17T13:50:08.175Z</time></trkpt><trkpt lat="46.0805223" lon="13.2924982"><ele>109.25</ele><time>2026-04-17T13:50:09.175Z</time></trkpt><trkpt lat="46.0805182" lon="13.2927039"><ele>109.0</ele><time>2026-04-17T13:50:10.175Z</time></trkpt><trkpt lat="46.0805154" lon="13.2929067"><ele>109.0</ele><time>2026-04-17T13:50:11.174Z</time></trkpt><trkpt lat="46.0805154" lon="13.293093"><ele>109.0</ele><time>2026-04-17T13:50:12.175Z</time></trkpt><trkpt lat="46.0805165" lon="13.2932554"><ele>109.0</ele><time>2026-04-17T13:50:13.175Z</time></trkpt><trkpt lat="46.0805306" lon="13.2934192"><ele>109.0</ele><time>2026-04-17T13:50:14.175Z</time></trkpt><trkpt lat="46.0805647" lon="13.2935845"><ele>109.0</ele><time>2026-04-17T13:50:15.175Z</time></trkpt><trkpt lat="46.0806217" lon="13.2937624"><ele>109.0</ele><time>2026-04-17T13:50:16.175Z</time></trkpt><trkpt lat="46.0806858" lon="13.2939392"><ele>109.0</ele><time>2026-04-17T13:50:17.175Z</time></trkpt><trkpt lat="46.0807494" lon="13.2941128"><ele>109.0</ele><time>2026-04-17T13:50:18.174Z</time></trkpt><trkpt lat="46.0808176" lon="13.2942995"><ele>109.33333333333334</ele><time>2026-04-17T13:50:19.175Z</time></trkpt><trkpt lat="46.0808891" lon="13.2944829"><ele>109.66666666666666</ele><time>2026-04-17T13:50:20.175Z</time></trkpt><trkpt lat="46.0809597" lon="13.2946741"><ele>110.0</ele><time>2026-04-17T13:50:21.175Z</time></trkpt><trkpt lat="46.0810297" lon="13.2948738"><ele>110.66666666666666</ele><time>2026-04-17T13:50:22.175Z</time></trkpt><trkpt lat="46.0811014" lon="13.2950633"><ele>111.33333333333334</ele><time>2026-04-17T13:50:23.175Z</time></trkpt><trkpt lat="46.081164" lon="13.295232"><ele>112.0</ele><time>2026-04-17T13:50:24.175Z</time></trkpt><trkpt lat="46.0812759" lon="13.2955245"><ele>112.0</ele><time>2026-04-17T13:50:26.175Z</time></trkpt><trkpt lat="46.0813178" lon="13.2956474"><ele>111.99999999999999</ele><time>2026-04-17T13:50:27.175Z</time></trkpt><trkpt lat="46.0813527" lon="13.2957582"><ele>111.99999999999999</ele><time>2026-04-17T13:50:28.175Z</time></trkpt><trkpt lat="46.0813784" lon="13.2959068"><ele>112.0</ele><time>2026-04-17T13:50:30.174Z</time></trkpt><trkpt lat="46.0813102" lon="13.2960036"><ele>112.0</ele><time>2026-04-17T13:50:32.175Z</time></trkpt><trkpt lat="46.0812337" lon="13.2960341"><ele>112.0</ele><time>2026-04-17T13:50:33.175Z</time></trkpt><trkpt lat="46.0811323" lon="13.29607"><ele>112.0</ele><time>2026-04-17T13:50:34.174Z</time></trkpt><trkpt lat="46.0810112" lon="13.2961072"><ele>112.0</ele><time>2026-04-17T13:50:35.175Z</time></trkpt><trkpt lat="46.0808828" lon="13.2961521"><ele>112.0</ele><time>2026-04-17T13:50:36.175Z</time></trkpt><trkpt lat="46.0807509" lon="13.2962091"><ele>112.0</ele><time>2026-04-17T13:50:37.174Z</time></trkpt><trkpt lat="46.0806082" lon="13.2962678"><ele>112.0</ele><time>2026-04-17T13:50:38.174Z</time></trkpt><trkpt lat="46.0804574" lon="13.2963298"><ele>112.0</ele><time>2026-04-17T13:50:39.175Z</time></trkpt><trkpt lat="46.0802992" lon="13.2964024"><ele>111.66666666666667</ele><time>2026-04-17T13:50:40.174Z</time></trkpt><trkpt lat="46.0801413" lon="13.2964677"><ele>111.33333333333334</ele><time>2026-04-17T13:50:41.175Z</time></trkpt><trkpt lat="46.0799866" lon="13.2965324"><ele>111.0</ele><time>2026-04-17T13:50:42.175Z</time></trkpt><trkpt lat="46.0798372" lon="13.2966029"><ele>110.33333333333334</ele><time>2026-04-17T13:50:43.174Z</time></trkpt><trkpt lat="46.079682" lon="13.2966673"><ele>109.66666666666667</ele><time>2026-04-17T13:50:44.175Z</time></trkpt><trkpt lat="46.0795312" lon="13.296728"><ele>109.0</ele><time>2026-04-17T13:50:45.175Z</time></trkpt><trkpt lat="46.0792314" lon="13.2968539"><ele>109.0</ele><time>2026-04-17T13:50:47.175Z</time></trkpt><trkpt lat="46.0790978" lon="13.2969085"><ele>109.0</ele><time>2026-04-17T13:50:48.175Z</time></trkpt><trkpt lat="46.0789753" lon="13.2969609"><ele>109.0</ele><time>2026-04-17T13:50:49.175Z</time></trkpt><trkpt lat="46.0788566" lon="13.2970111"><ele>109.0</ele><time>2026-04-17T13:50:50.175Z</time></trkpt><trkpt lat="46.0787366" lon="13.2970738"><ele>109.0</ele><time>2026-04-17T13:50:51.175Z</time></trkpt><trkpt lat="46.0786226" lon="13.2971365"><ele>109.0</ele><time>2026-04-17T13:50:52.174Z</time></trkpt><trkpt lat="46.0785091" lon="13.2972142"><ele>109.0</ele><time>2026-04-17T13:50:53.175Z</time></trkpt><trkpt lat="46.0783949" lon="13.2972749"><ele>109.0</ele><time>2026-04-17T13:50:54.174Z</time></trkpt><trkpt lat="46.0782768" lon="13.2972986"><ele>108.75</ele><time>2026-04-17T13:50:55.174Z</time></trkpt><trkpt lat="46.0781607" lon="13.2972609"><ele>108.5</ele><time>2026-04-17T13:50:56.174Z</time></trkpt><trkpt lat="46.0780582" lon="13.2971676"><ele>108.25</ele><time>2026-04-17T13:50:57.175Z</time></trkpt><trkpt lat="46.0779772" lon="13.2970323"><ele>108.0</ele><time>2026-04-17T13:50:58.175Z</time></trkpt><trkpt lat="46.0779305" lon="13.2968569"><ele>108.0</ele><time>2026-04-17T13:50:59.175Z</time></trkpt><trkpt lat="46.077903" lon="13.2966602"><ele>108.0</ele><time>2026-04-17T13:51:00.174Z</time></trkpt><trkpt lat="46.0778793" lon="13.2964453"><ele>108.0</ele><time>2026-04-17T13:51:01.174Z</time></trkpt><trkpt lat="46.0778631" lon="13.2962229"><ele>108.0</ele><time>2026-04-17T13:51:02.175Z</time></trkpt><trkpt lat="46.0778565" lon="13.2959969"><ele>108.0</ele><time>2026-04-17T13:51:03.175Z</time></trkpt><trkpt lat="46.0778311" lon="13.295761"><ele>108.0</ele><time>2026-04-17T13:51:04.174Z</time></trkpt><trkpt lat="46.077799" lon="13.2955228"><ele>108.0</ele><time>2026-04-17T13:51:05.175Z</time></trkpt><trkpt lat="46.0777734" lon="13.2952886"><ele>108.0</ele><time>2026-04-17T13:51:06.175Z</time></trkpt><trkpt lat="46.0777167" lon="13.2948187"><ele>108.0</ele><time>2026-04-17T13:51:08.174Z</time></trkpt><trkpt lat="46.0776818" lon="13.2945807"><ele>108.33333333333334</ele><time>2026-04-17T13:51:09.175Z</time></trkpt><trkpt lat="46.0776407" lon="13.2943538"><ele>108.66666666666667</ele><time>2026-04-17T13:51:10.175Z</time></trkpt><trkpt lat="46.0776015" lon="13.2941258"><ele>109.0</ele><time>2026-04-17T13:51:11.175Z</time></trkpt><trkpt lat="46.0775583" lon="13.2938907"><ele>109.0</ele><time>2026-04-17T13:51:12.175Z</time></trkpt><trkpt lat="46.0775181" lon="13.2936491"><ele>109.0</ele><time>2026-04-17T13:51:13.174Z</time></trkpt><trkpt lat="46.0774753" lon="13.2934128"><ele>109.0</ele><time>2026-04-17T13:51:14.175Z</time></trkpt><trkpt lat="46.0774287" lon="13.2931732"><ele>106.66666666666667</ele><time>2026-04-17T13:51:15.174Z</time></trkpt><trkpt lat="46.0773801" lon="13.2929277"><ele>104.33333333333334</ele><time>2026-04-17T13:51:16.175Z</time></trkpt><trkpt lat="46.0773376" lon="13.2926885"><ele>102.0</ele><time>2026-04-17T13:51:17.175Z</time></trkpt><trkpt lat="46.0772889" lon="13.2924474"><ele>101.33333333333334</ele><time>2026-04-17T13:51:18.174Z</time></trkpt><trkpt lat="46.0772526" lon="13.2921979"><ele>100.66666666666667</ele><time>2026-04-17T13:51:19.175Z</time></trkpt><trkpt lat="46.0772129" lon="13.2919592"><ele>100.0</ele><time>2026-04-17T13:51:20.174Z</time></trkpt><trkpt lat="46.0771703" lon="13.2917271"><ele>100.0</ele><time>2026-04-17T13:51:21.174Z</time></trkpt><trkpt lat="46.0771239" lon="13.2914965"><ele>100.0</ele><time>2026-04-17T13:51:22.174Z</time></trkpt><trkpt lat="46.0770835" lon="13.2912672"><ele>100.0</ele><time>2026-04-17T13:51:23.173Z</time></trkpt><trkpt lat="46.077046" lon="13.291048"><ele>100.33333333333334</ele><time>2026-04-17T13:51:24.174Z</time></trkpt><trkpt lat="46.0770139" lon="13.2908215"><ele>100.66666666666666</ele><time>2026-04-17T13:51:25.173Z</time></trkpt><trkpt lat="46.0769767" lon="13.2906037"><ele>101.0</ele><time>2026-04-17T13:51:26.173Z</time></trkpt><trkpt lat="46.07694" lon="13.2903903"><ele>102.33333333333333</ele><time>2026-04-17T13:51:27.174Z</time></trkpt><trkpt lat="46.0768632" lon="13.2899824"><ele>103.66666666666666</ele><time>2026-04-17T13:51:29.174Z</time></trkpt><trkpt lat="46.0768269" lon="13.2897842"><ele>105.0</ele><time>2026-04-17T13:51:30.174Z</time></trkpt><trkpt lat="46.0767907" lon="13.2895886"><ele>106.5</ele><time>2026-04-17T13:51:31.173Z</time></trkpt><trkpt lat="46.0767605" lon="13.2893959"><ele>108.0</ele><time>2026-04-17T13:51:32.174Z</time></trkpt><trkpt lat="46.0767325" lon="13.2891965"><ele>109.5</ele><time>2026-04-17T13:51:33.174Z</time></trkpt><trkpt lat="46.0767007" lon="13.2889912"><ele>111.0</ele><time>2026-04-17T13:51:34.174Z</time></trkpt><trkpt lat="46.0766663" lon="13.2887908"><ele>110.75</ele><time>2026-04-17T13:51:35.174Z</time></trkpt><trkpt lat="46.0766327" lon="13.2885948"><ele>110.5</ele><time>2026-04-17T13:51:36.173Z</time></trkpt><trkpt lat="46.0765984" lon="13.2884013"><ele>110.25</ele><time>2026-04-17T13:51:37.174Z</time></trkpt><trkpt lat="46.0765673" lon="13.2882034"><ele>110.0</ele><time>2026-04-17T13:51:38.174Z</time></trkpt><trkpt lat="46.076529" lon="13.2879994"><ele>110.0</ele><time>2026-04-17T13:51:39.174Z</time></trkpt><trkpt lat="46.0764883" lon="13.2877935"><ele>110.0</ele><time>2026-04-17T13:51:40.173Z</time></trkpt><trkpt lat="46.0764456" lon="13.2875789"><ele>110.0</ele><time>2026-04-17T13:51:41.173Z</time></trkpt><trkpt lat="46.0764065" lon="13.2873633"><ele>110.0</ele><time>2026-04-17T13:51:42.173Z</time></trkpt><trkpt lat="46.0763694" lon="13.287144"><ele>110.0</ele><time>2026-04-17T13:51:43.173Z</time></trkpt><trkpt lat="46.0763284" lon="13.2869249"><ele>110.0</ele><time>2026-04-17T13:51:44.173Z</time></trkpt><trkpt lat="46.076291" lon="13.2867064"><ele>110.0</ele><time>2026-04-17T13:51:45.173Z</time></trkpt><trkpt lat="46.0762546" lon="13.2864861"><ele>110.0</ele><time>2026-04-17T13:51:46.174Z</time></trkpt><trkpt lat="46.0762123" lon="13.2862658"><ele>110.0</ele><time>2026-04-17T13:51:47.173Z</time></trkpt><trkpt lat="46.0761761" lon="13.2860355"><ele>109.5</ele><time>2026-04-17T13:51:48.174Z</time></trkpt><trkpt lat="46.0761025" lon="13.2855901"><ele>109.0</ele><time>2026-04-17T13:51:50.173Z</time></trkpt><trkpt lat="46.0760603" lon="13.285377"><ele>109.0</ele><time>2026-04-17T13:51:51.174Z</time></trkpt><trkpt lat="46.0760173" lon="13.2851893"><ele>109.0</ele><time>2026-04-17T13:51:52.173Z</time></trkpt><trkpt lat="46.0759771" lon="13.2850184"><ele>109.0</ele><time>2026-04-17T13:51:53.173Z</time></trkpt><trkpt lat="46.0759302" lon="13.2848717"><ele>109.0</ele><time>2026-04-17T13:51:54.173Z</time></trkpt><trkpt lat="46.0758755" lon="13.2847594"><ele>109.16666666666667</ele><time>2026-04-17T13:51:55.174Z</time></trkpt><trkpt lat="46.0758214" lon="13.284663"><ele>109.33333333333334</ele><time>2026-04-17T13:51:56.174Z</time></trkpt><trkpt lat="46.0757716" lon="13.2845704"><ele>109.5</ele><time>2026-04-17T13:51:57.174Z</time></trkpt><trkpt lat="46.0757216" lon="13.2844791"><ele>109.66666666666666</ele><time>2026-04-17T13:51:58.174Z</time></trkpt><trkpt lat="46.0756607" lon="13.284391"><ele>109.83333333333333</ele><time>2026-04-17T13:51:59.173Z</time></trkpt><trkpt lat="46.0756066" lon="13.2842946"><ele>110.0</ele><time>2026-04-17T13:52:00.174Z</time></trkpt><trkpt lat="46.0755725" lon="13.2841881"><ele>109.66666666666666</ele><time>2026-04-17T13:52:01.174Z</time></trkpt><trkpt lat="46.0755461" lon="13.2841017"><ele>109.33333333333333</ele><time>2026-04-17T13:52:02.174Z</time></trkpt><trkpt lat="46.0754629" lon="13.2840043"><ele>109.0</ele><time>2026-04-17T13:52:04.174Z</time></trkpt><trkpt lat="46.0753983" lon="13.2840523"><ele>108.66666666666666</ele><time>2026-04-17T13:52:06.173Z</time></trkpt><trkpt lat="46.0753702" lon="13.2841687"><ele>108.33333333333333</ele><time>2026-04-17T13:52:08.174Z</time></trkpt><trkpt lat="46.075371" lon="13.2842655"><ele>108.0</ele><time>2026-04-17T13:52:11.174Z</time></trkpt><trkpt lat="46.075439" lon="13.2844733"><ele>108.0</ele><time>2026-04-17T13:52:17.173Z</time></trkpt><trkpt lat="46.0754532" lon="13.2845655"><ele>108.0</ele><time>2026-04-17T13:52:18.174Z</time></trkpt><trkpt lat="46.0754714" lon="13.2846768"><ele>108.0</ele><time>2026-04-17T13:52:19.174Z</time></trkpt><trkpt lat="46.0754948" lon="13.2847947"><ele>108.0</ele><time>2026-04-17T13:52:20.173Z</time></trkpt><trkpt lat="46.0755141" lon="13.2848892"><ele>108.0</ele><time>2026-04-17T13:52:21.174Z</time></trkpt><trkpt lat="46.0755321" lon="13.2849941"><ele>108.0</ele><time>2026-04-17T13:52:22.174Z</time></trkpt><trkpt lat="46.0755483" lon="13.2850963"><ele>108.0</ele><time>2026-04-17T13:52:23.174Z</time></trkpt><trkpt lat="46.075554" lon="13.2851903"><ele>108.0</ele><time>2026-04-17T13:52:24.173Z</time></trkpt><trkpt lat="46.0755777" lon="13.2853527"><ele>108.0</ele><time>2026-04-17T13:52:26.173Z</time></trkpt><trkpt lat="46.0756412" lon="13.2855096"><ele>108.0</ele><time>2026-04-17T13:52:28.174Z</time></trkpt><trkpt lat="46.0756715" lon="13.2855973"><ele>108.0</ele><time>2026-04-17T13:52:29.173Z</time></trkpt><trkpt lat="46.0756933" lon="13.2856876"><ele>108.0</ele><time>2026-04-17T13:52:30.174Z</time></trkpt><trkpt lat="46.0757074" lon="13.2857769"><ele>108.0</ele><time>2026-04-17T13:52:31.174Z</time></trkpt><trkpt lat="46.0757573" lon="13.2859266"><ele>108.4</ele><time>2026-04-17T13:52:33.174Z</time></trkpt><trkpt lat="46.0758199" lon="13.2862163"><ele>108.80000000000001</ele><time>2026-04-17T13:52:37.174Z</time></trkpt><trkpt lat="46.0758253" lon="13.2863224"><ele>109.2</ele><time>2026-04-17T13:52:38.174Z</time></trkpt><trkpt lat="46.0758321" lon="13.2864411"><ele>109.6</ele><time>2026-04-17T13:52:39.173Z</time></trkpt><trkpt lat="46.0758315" lon="13.2865452"><ele>110.0</ele><time>2026-04-17T13:52:40.174Z</time></trkpt><trkpt lat="46.0758533" lon="13.2867041"><ele>110.0</ele><time>2026-04-17T13:52:42.174Z</time></trkpt><trkpt lat="46.07593" lon="13.2868245"><ele>110.0</ele><time>2026-04-17T13:52:44.174Z</time></trkpt><trkpt lat="46.0760036" lon="13.2869508"><ele>110.0</ele><time>2026-04-17T13:52:46.174Z</time></trkpt><trkpt lat="46.0760575" lon="13.2871443"><ele>110.0</ele><time>2026-04-17T13:52:48.174Z</time></trkpt><trkpt lat="46.0760758" lon="13.2872683"><ele>110.0</ele><time>2026-04-17T13:52:49.174Z</time></trkpt><trkpt lat="46.0760884" lon="13.2873752"><ele>110.0</ele><time>2026-04-17T13:52:50.174Z</time></trkpt><trkpt lat="46.0761015" lon="13.2874747"><ele>110.0</ele><time>2026-04-17T13:52:51.174Z</time></trkpt><trkpt lat="46.0761083" lon="13.2875707"><ele>110.0</ele><time>2026-04-17T13:52:52.173Z</time></trkpt><trkpt lat="46.0761014" lon="13.2877423"><ele>110.0</ele><time>2026-04-17T13:52:54.174Z</time></trkpt><trkpt lat="46.0761048" lon="13.2879493"><ele>110.0</ele><time>2026-04-17T13:52:56.174Z</time></trkpt><trkpt lat="46.0761142" lon="13.2880711"><ele>110.0</ele><time>2026-04-17T13:52:57.174Z</time></trkpt><trkpt lat="46.0761332" lon="13.2882073"><ele>110.0</ele><time>2026-04-17T13:52:58.173Z</time></trkpt><trkpt lat="46.0761502" lon="13.2883386"><ele>110.0</ele><time>2026-04-17T13:52:59.174Z</time></trkpt><trkpt lat="46.0761678" lon="13.2884726"><ele>110.0</ele><time>2026-04-17T13:53:00.174Z</time></trkpt><trkpt lat="46.0761801" lon="13.2885987"><ele>109.99999999999999</ele><time>2026-04-17T13:53:01.174Z</time></trkpt><trkpt lat="46.0761901" lon="13.2887198"><ele>110.0</ele><time>2026-04-17T13:53:02.174Z</time></trkpt><trkpt lat="46.0761987" lon="13.2888271"><ele>110.0</ele><time>2026-04-17T13:53:03.173Z</time></trkpt><trkpt lat="46.076198" lon="13.2889735"><ele>110.0</ele><time>2026-04-17T13:53:05.173Z</time></trkpt><trkpt lat="46.0761347" lon="13.2890598"><ele>109.99999999999999</ele><time>2026-04-17T13:53:07.174Z</time></trkpt><trkpt lat="46.0760675" lon="13.2890863"><ele>110.0</ele><time>2026-04-17T13:53:08.174Z</time></trkpt><trkpt lat="46.0759852" lon="13.2891054"><ele>110.0</ele><time>2026-04-17T13:53:09.173Z</time></trkpt><trkpt lat="46.0758895" lon="13.2891113"><ele>110.0</ele><time>2026-04-17T13:53:10.174Z</time></trkpt><trkpt lat="46.0757922" lon="13.2891274"><ele>110.0</ele><time>2026-04-17T13:53:11.173Z</time></trkpt><trkpt lat="46.0756901" lon="13.2891477"><ele>110.0</ele><time>2026-04-17T13:53:12.173Z</time></trkpt><trkpt lat="46.0755814" lon="13.2891794"><ele>110.0</ele><time>2026-04-17T13:53:13.174Z</time></trkpt><trkpt lat="46.0754681" lon="13.2892141"><ele>110.0</ele><time>2026-04-17T13:53:14.174Z</time></trkpt><trkpt lat="46.0753485" lon="13.2892436"><ele>110.0</ele><time>2026-04-17T13:53:15.174Z</time></trkpt><trkpt lat="46.075111" lon="13.2893051"><ele>110.0</ele><time>2026-04-17T13:53:17.174Z</time></trkpt><trkpt lat="46.0749882" lon="13.2893358"><ele>109.75</ele><time>2026-04-17T13:53:18.174Z</time></trkpt><trkpt lat="46.0748632" lon="13.2893614"><ele>109.5</ele><time>2026-04-17T13:53:19.174Z</time></trkpt><trkpt lat="46.074745" lon="13.2893902"><ele>109.25</ele><time>2026-04-17T13:53:20.174Z</time></trkpt><trkpt lat="46.0746275" lon="13.2894244"><ele>109.0</ele><time>2026-04-17T13:53:21.174Z</time></trkpt><trkpt lat="46.074508" lon="13.2894566"><ele>109.0</ele><time>2026-04-17T13:53:22.174Z</time></trkpt><trkpt lat="46.0743906" lon="13.2894912"><ele>109.0</ele><time>2026-04-17T13:53:23.173Z</time></trkpt><trkpt lat="46.0742797" lon="13.2895185"><ele>109.0</ele><time>2026-04-17T13:53:24.174Z</time></trkpt><trkpt lat="46.0741653" lon="13.2895426"><ele>109.0</ele><time>2026-04-17T13:53:25.174Z</time></trkpt><trkpt lat="46.0740479" lon="13.2895673"><ele>108.75</ele><time>2026-04-17T13:53:26.174Z</time></trkpt><trkpt lat="46.0739319" lon="13.289592"><ele>108.5</ele><time>2026-04-17T13:53:27.174Z</time></trkpt><trkpt lat="46.0738138" lon="13.289617"><ele>108.25</ele><time>2026-04-17T13:53:28.174Z</time></trkpt><trkpt lat="46.073695" lon="13.2896454"><ele>108.0</ele><time>2026-04-17T13:53:29.173Z</time></trkpt><trkpt lat="46.0735796" lon="13.2896694"><ele>108.0</ele><time>2026-04-17T13:53:30.174Z</time></trkpt><trkpt lat="46.073459" lon="13.2896917"><ele>108.0</ele><time>2026-04-17T13:53:31.174Z</time></trkpt><trkpt lat="46.0733332" lon="13.2897181"><ele>108.0</ele><time>2026-04-17T13:53:32.174Z</time></trkpt><trkpt lat="46.0731943" lon="13.2897565"><ele>108.0</ele><time>2026-04-17T13:53:33.173Z</time></trkpt><trkpt lat="46.0730665" lon="13.2897966"><ele>107.0</ele><time>2026-04-17T13:53:34.173Z</time></trkpt><trkpt lat="46.0729368" lon="13.2898262"><ele>106.0</ele><time>2026-04-17T13:53:35.174Z</time></trkpt><trkpt lat="46.0728066" lon="13.2898571"><ele>105.0</ele><time>2026-04-17T13:53:36.173Z</time></trkpt><trkpt lat="46.0725386" lon="13.2899219"><ele>105.0</ele><time>2026-04-17T13:53:38.173Z</time></trkpt><trkpt lat="46.0724043" lon="13.2899575"><ele>105.0</ele><time>2026-04-17T13:53:39.174Z</time></trkpt><trkpt lat="46.0722621" lon="13.2899871"><ele>105.0</ele><time>2026-04-17T13:53:40.174Z</time></trkpt><trkpt lat="46.0721188" lon="13.2900199"><ele>105.0</ele><time>2026-04-17T13:53:41.174Z</time></trkpt><trkpt lat="46.0719733" lon="13.2900589"><ele>105.0</ele><time>2026-04-17T13:53:42.174Z</time></trkpt><trkpt lat="46.0718271" lon="13.2900936"><ele>105.0</ele><time>2026-04-17T13:53:43.174Z</time></trkpt><trkpt lat="46.0716834" lon="13.2901236"><ele>105.0</ele><time>2026-04-17T13:53:44.174Z</time></trkpt><trkpt lat="46.0715415" lon="13.2901614"><ele>105.0</ele><time>2026-04-17T13:53:45.174Z</time></trkpt><trkpt lat="46.0713975" lon="13.2901902"><ele>104.75</ele><time>2026-04-17T13:53:46.173Z</time></trkpt><trkpt lat="46.0712599" lon="13.2902265"><ele>104.5</ele><time>2026-04-17T13:53:47.173Z</time></trkpt><trkpt lat="46.071129" lon="13.2902574"><ele>104.25</ele><time>2026-04-17T13:53:48.174Z</time></trkpt><trkpt lat="46.0709932" lon="13.2902875"><ele>104.0</ele><time>2026-04-17T13:53:49.174Z</time></trkpt><trkpt lat="46.0708583" lon="13.2903189"><ele>103.75</ele><time>2026-04-17T13:53:50.174Z</time></trkpt><trkpt lat="46.0707189" lon="13.2903533"><ele>103.5</ele><time>2026-04-17T13:53:51.173Z</time></trkpt><trkpt lat="46.0705803" lon="13.2903855"><ele>103.25</ele><time>2026-04-17T13:53:52.174Z</time></trkpt><trkpt lat="46.0704376" lon="13.2904139"><ele>103.0</ele><time>2026-04-17T13:53:53.173Z</time></trkpt><trkpt lat="46.0702938" lon="13.2904404"><ele>103.0</ele><time>2026-04-17T13:53:54.174Z</time></trkpt><trkpt lat="46.0701412" lon="13.2904582"><ele>103.0</ele><time>2026-04-17T13:53:55.174Z</time></trkpt><trkpt lat="46.0699949" lon="13.2904635"><ele>103.0</ele><time>2026-04-17T13:53:56.174Z</time></trkpt><trkpt lat="46.0698513" lon="13.2904645"><ele>103.0</ele><time>2026-04-17T13:53:57.173Z</time></trkpt><trkpt lat="46.069565" lon="13.2904605"><ele>103.0</ele><time>2026-04-17T13:53:59.174Z</time></trkpt><trkpt lat="46.0694248" lon="13.2904544"><ele>103.0</ele><time>2026-04-17T13:54:00.173Z</time></trkpt><trkpt lat="46.0692896" lon="13.2904516"><ele>103.0</ele><time>2026-04-17T13:54:01.173Z</time></trkpt><trkpt lat="46.0691453" lon="13.2904393"><ele>103.0</ele><time>2026-04-17T13:54:02.173Z</time></trkpt><trkpt lat="46.0689972" lon="13.2904283"><ele>103.0</ele><time>2026-04-17T13:54:03.174Z</time></trkpt><trkpt lat="46.068853" lon="13.2904181"><ele>103.0</ele><time>2026-04-17T13:54:04.174Z</time></trkpt><trkpt lat="46.0687049" lon="13.2903983"><ele>103.0</ele><time>2026-04-17T13:54:05.174Z</time></trkpt><trkpt lat="46.0685566" lon="13.2903923"><ele>103.0</ele><time>2026-04-17T13:54:06.174Z</time></trkpt><trkpt lat="46.0684022" lon="13.2903898"><ele>102.66666666666667</ele><time>2026-04-17T13:54:07.173Z</time></trkpt><trkpt lat="46.0682484" lon="13.2903775"><ele>102.33333333333334</ele><time>2026-04-17T13:54:08.173Z</time></trkpt><trkpt lat="46.0680979" lon="13.2903685"><ele>102.0</ele><time>2026-04-17T13:54:09.174Z</time></trkpt><trkpt lat="46.0679438" lon="13.2903595"><ele>102.0</ele><time>2026-04-17T13:54:10.174Z</time></trkpt><trkpt lat="46.0677874" lon="13.2903489"><ele>102.0</ele><time>2026-04-17T13:54:11.174Z</time></trkpt><trkpt lat="46.067635" lon="13.2903388"><ele>102.0</ele><time>2026-04-17T13:54:12.174Z</time></trkpt><trkpt lat="46.0674805" lon="13.2903336"><ele>102.0</ele><time>2026-04-17T13:54:13.174Z</time></trkpt><trkpt lat="46.067321" lon="13.2903237"><ele>102.0</ele><time>2026-04-17T13:54:14.173Z</time></trkpt><trkpt lat="46.067165" lon="13.2903117"><ele>102.0</ele><time>2026-04-17T13:54:15.173Z</time></trkpt><trkpt lat="46.0670036" lon="13.2903014"><ele>102.0</ele><time>2026-04-17T13:54:16.174Z</time></trkpt><trkpt lat="46.0668403" lon="13.2902863"><ele>102.0</ele><time>2026-04-17T13:54:17.174Z</time></trkpt><trkpt lat="46.0666781" lon="13.2902797"><ele>102.0</ele><time>2026-04-17T13:54:18.174Z</time></trkpt><trkpt lat="46.0663534" lon="13.2902542"><ele>102.66666666666666</ele><time>2026-04-17T13:54:20.174Z</time></trkpt><trkpt lat="46.0661882" lon="13.2902395"><ele>103.33333333333333</ele><time>2026-04-17T13:54:21.174Z</time></trkpt><trkpt lat="46.0660244" lon="13.2902274"><ele>104.0</ele><time>2026-04-17T13:54:22.174Z</time></trkpt><trkpt lat="46.0658566" lon="13.2902184"><ele>103.66666666666666</ele><time>2026-04-17T13:54:23.174Z</time></trkpt><trkpt lat="46.0656855" lon="13.2902051"><ele>103.33333333333334</ele><time>2026-04-17T13:54:24.174Z</time></trkpt><trkpt lat="46.0655124" lon="13.2901995"><ele>103.0</ele><time>2026-04-17T13:54:25.173Z</time></trkpt><trkpt lat="46.0653431" lon="13.2901922"><ele>103.0</ele><time>2026-04-17T13:54:26.174Z</time></trkpt><trkpt lat="46.0651732" lon="13.2901792"><ele>103.0</ele><time>2026-04-17T13:54:27.174Z</time></trkpt><trkpt lat="46.0650064" lon="13.2901659"><ele>103.0</ele><time>2026-04-17T13:54:28.174Z</time></trkpt><trkpt lat="46.0648441" lon="13.290163"><ele>102.33333333333334</ele><time>2026-04-17T13:54:29.174Z</time></trkpt><trkpt lat="46.0646847" lon="13.2901571"><ele>101.66666666666666</ele><time>2026-04-17T13:54:30.174Z</time></trkpt><trkpt lat="46.064516" lon="13.290149"><ele>101.0</ele><time>2026-04-17T13:54:31.174Z</time></trkpt><trkpt lat="46.0643551" lon="13.2901456"><ele>101.0</ele><time>2026-04-17T13:54:32.173Z</time></trkpt><trkpt lat="46.0641975" lon="13.2901604"><ele>101.0</ele><time>2026-04-17T13:54:33.173Z</time></trkpt><trkpt lat="46.064044" lon="13.2901732"><ele>101.0</ele><time>2026-04-17T13:54:34.174Z</time></trkpt><trkpt lat="46.0638864" lon="13.2901808"><ele>99.66666666666666</ele><time>2026-04-17T13:54:35.174Z</time></trkpt><trkpt lat="46.0637281" lon="13.2901842"><ele>98.33333333333334</ele><time>2026-04-17T13:54:36.173Z</time></trkpt><trkpt lat="46.0635701" lon="13.2901988"><ele>97.0</ele><time>2026-04-17T13:54:37.174Z</time></trkpt><trkpt lat="46.0634211" lon="13.2902127"><ele>97.0</ele><time>2026-04-17T13:54:38.174Z</time></trkpt><trkpt lat="46.0632827" lon="13.2902267"><ele>97.0</ele><time>2026-04-17T13:54:39.174Z</time></trkpt><trkpt lat="46.0630549" lon="13.2902568"><ele>97.0</ele><time>2026-04-17T13:54:41.173Z</time></trkpt><trkpt lat="46.0629633" lon="13.2902745"><ele>97.39999999999999</ele><time>2026-04-17T13:54:42.174Z</time></trkpt><trkpt lat="46.0628769" lon="13.2902852"><ele>97.8</ele><time>2026-04-17T13:54:43.174Z</time></trkpt><trkpt lat="46.0627889" lon="13.2902927"><ele>98.2</ele><time>2026-04-17T13:54:44.173Z</time></trkpt><trkpt lat="46.0626894" lon="13.2903018"><ele>98.6</ele><time>2026-04-17T13:54:45.174Z</time></trkpt><trkpt lat="46.062579" lon="13.2903178"><ele>99.0</ele><time>2026-04-17T13:54:46.174Z</time></trkpt><trkpt lat="46.062462" lon="13.290343"><ele>99.0</ele><time>2026-04-17T13:54:47.174Z</time></trkpt><trkpt lat="46.0623417" lon="13.2903644"><ele>99.0</ele><time>2026-04-17T13:54:48.174Z</time></trkpt><trkpt lat="46.0622106" lon="13.2903792"><ele>99.0</ele><time>2026-04-17T13:54:49.174Z</time></trkpt><trkpt lat="46.0620739" lon="13.2903971"><ele>99.0</ele><time>2026-04-17T13:54:50.173Z</time></trkpt><trkpt lat="46.0619303" lon="13.2904198"><ele>99.0</ele><time>2026-04-17T13:54:51.174Z</time></trkpt><trkpt lat="46.061785" lon="13.2904445"><ele>99.0</ele><time>2026-04-17T13:54:52.174Z</time></trkpt><trkpt lat="46.0616354" lon="13.2904667"><ele>99.0</ele><time>2026-04-17T13:54:53.174Z</time></trkpt><trkpt lat="46.0614818" lon="13.2904914"><ele>99.33333333333334</ele><time>2026-04-17T13:54:54.174Z</time></trkpt><trkpt lat="46.0613268" lon="13.290517"><ele>99.66666666666667</ele><time>2026-04-17T13:54:55.174Z</time></trkpt><trkpt lat="46.0611719" lon="13.2905512"><ele>100.0</ele><time>2026-04-17T13:54:56.174Z</time></trkpt><trkpt lat="46.0610198" lon="13.2905795"><ele>100.0</ele><time>2026-04-17T13:54:57.174Z</time></trkpt><trkpt lat="46.0608813" lon="13.2906083"><ele>100.0</ele><time>2026-04-17T13:54:58.174Z</time></trkpt><trkpt lat="46.0607517" lon="13.2906355"><ele>100.0</ele><time>2026-04-17T13:54:59.174Z</time></trkpt><trkpt lat="46.0606376" lon="13.2906613"><ele>100.0</ele><time>2026-04-17T13:55:00.174Z</time></trkpt><trkpt lat="46.0604496" lon="13.2907221"><ele>100.00000000000001</ele><time>2026-04-17T13:55:02.173Z</time></trkpt><trkpt lat="46.0603783" lon="13.2907369"><ele>100.0</ele><time>2026-04-17T13:55:03.174Z</time></trkpt><trkpt lat="46.0602748" lon="13.2907376"><ele>100.0</ele><time>2026-04-17T13:55:05.173Z</time></trkpt><trkpt lat="46.0602209" lon="13.2906494"><ele>100.0</ele><time>2026-04-17T13:55:07.173Z</time></trkpt><trkpt lat="46.0602129" lon="13.2905066"><ele>100.00000000000001</ele><time>2026-04-17T13:55:09.172Z</time></trkpt><trkpt lat="46.0602173" lon="13.2904129"><ele>100.0</ele><time>2026-04-17T13:55:10.173Z</time></trkpt><trkpt lat="46.0602164" lon="13.2903049"><ele>100.00000000000001</ele><time>2026-04-17T13:55:11.172Z</time></trkpt><trkpt lat="46.0602146" lon="13.2901943"><ele>100.0</ele><time>2026-04-17T13:55:12.173Z</time></trkpt><trkpt lat="46.0602118" lon="13.2900825"><ele>100.0</ele><time>2026-04-17T13:55:13.172Z</time></trkpt><trkpt lat="46.0602147" lon="13.289978"><ele>100.0</ele><time>2026-04-17T13:55:14.172Z</time></trkpt><trkpt lat="46.0602242" lon="13.2898658"><ele>100.00000000000001</ele><time>2026-04-17T13:55:15.172Z</time></trkpt><trkpt lat="46.0602312" lon="13.2897479"><ele>100.0</ele><time>2026-04-17T13:55:16.173Z</time></trkpt><trkpt lat="46.060244" lon="13.2896204"><ele>99.6</ele><time>2026-04-17T13:55:17.172Z</time></trkpt><trkpt lat="46.0602609" lon="13.2894802"><ele>99.2</ele><time>2026-04-17T13:55:18.172Z</time></trkpt><trkpt lat="46.0602828" lon="13.2893409"><ele>98.80000000000001</ele><time>2026-04-17T13:55:19.173Z</time></trkpt><trkpt lat="46.0603124" lon="13.2891982"><ele>98.4</ele><time>2026-04-17T13:55:20.172Z</time></trkpt><trkpt lat="46.0603351" lon="13.2890548"><ele>98.0</ele><time>2026-04-17T13:55:21.173Z</time></trkpt><trkpt lat="46.0603612" lon="13.2887872"><ele>97.99999999999999</ele><time>2026-04-17T13:55:23.173Z</time></trkpt><trkpt lat="46.0603693" lon="13.2886633"><ele>98.0</ele><time>2026-04-17T13:55:24.172Z</time></trkpt><trkpt lat="46.060376" lon="13.28854"><ele>98.0</ele><time>2026-04-17T13:55:25.173Z</time></trkpt><trkpt lat="46.0603703" lon="13.2884248"><ele>98.0</ele><time>2026-04-17T13:55:26.173Z</time></trkpt><trkpt lat="46.0603636" lon="13.2883281"><ele>97.99999999999999</ele><time>2026-04-17T13:55:27.172Z</time></trkpt><trkpt lat="46.0603784" lon="13.288165"><ele>98.0</ele><time>2026-04-17T13:55:29.172Z</time></trkpt><trkpt lat="46.0603809" lon="13.2880644"><ele>98.2</ele><time>2026-04-17T13:55:31.172Z</time></trkpt><trkpt lat="46.060314" lon="13.2880319"><ele>98.4</ele><time>2026-04-17T13:55:34.172Z</time></trkpt><trkpt lat="46.0602377" lon="13.2880415"><ele>98.60000000000001</ele><time>2026-04-17T13:55:37.173Z</time></trkpt><trkpt lat="46.0601481" lon="13.2880743"><ele>98.80000000000001</ele><time>2026-04-17T13:58:25.173Z</time></trkpt><trkpt lat="46.0599428" lon="13.2880909"><ele>99.0</ele><time>2026-04-17T13:58:28.173Z</time></trkpt><trkpt lat="46.0598401" lon="13.2880821"><ele>99.0</ele><time>2026-04-17T13:58:29.173Z</time></trkpt><trkpt lat="46.0597324" lon="13.2880814"><ele>99.0</ele><time>2026-04-17T13:58:30.172Z</time></trkpt><trkpt lat="46.0596176" lon="13.2880834"><ele>99.0</ele><time>2026-04-17T13:58:31.173Z</time></trkpt><trkpt lat="46.0595033" lon="13.2880938"><ele>99.0</ele><time>2026-04-17T13:58:32.173Z</time></trkpt><trkpt lat="46.0593814" lon="13.2881191"><ele>99.0</ele><time>2026-04-17T13:58:33.172Z</time></trkpt><trkpt lat="46.0592607" lon="13.2881484"><ele>99.0</ele><time>2026-04-17T13:58:34.173Z</time></trkpt><trkpt lat="46.059133" lon="13.2881752"><ele>99.0</ele><time>2026-04-17T13:58:35.173Z</time></trkpt><trkpt lat="46.0590195" lon="13.2881993"><ele>99.0</ele><time>2026-04-17T13:58:36.173Z</time></trkpt><trkpt lat="46.0589165" lon="13.2882261"><ele>99.0</ele><time>2026-04-17T13:58:37.173Z</time></trkpt><trkpt lat="46.0588082" lon="13.2882776"><ele>99.0</ele><time>2026-04-17T13:58:38.173Z</time></trkpt><trkpt lat="46.0587018" lon="13.2883441"><ele>99.0</ele><time>2026-04-17T13:58:39.172Z</time></trkpt><trkpt lat="46.0586" lon="13.2884325"><ele>99.0</ele><time>2026-04-17T13:58:40.172Z</time></trkpt><trkpt lat="46.0585058" lon="13.2885424"><ele>99.0</ele><time>2026-04-17T13:58:41.172Z</time></trkpt><trkpt lat="46.0584222" lon="13.2886633"><ele>99.0</ele><time>2026-04-17T13:58:42.173Z</time></trkpt><trkpt lat="46.0583417" lon="13.2887876"><ele>99.0</ele><time>2026-04-17T13:58:43.173Z</time></trkpt><trkpt lat="46.0582659" lon="13.2889067"><ele>99.0</ele><time>2026-04-17T13:58:44.173Z</time></trkpt><trkpt lat="46.0581838" lon="13.2890168"><ele>98.0</ele><time>2026-04-17T13:58:45.173Z</time></trkpt><trkpt lat="46.0580961" lon="13.2891273"><ele>97.0</ele><time>2026-04-17T13:58:46.173Z</time></trkpt><trkpt lat="46.0579134" lon="13.2893529"><ele>96.0</ele><time>2026-04-17T13:58:48.172Z</time></trkpt><trkpt lat="46.0578125" lon="13.2894608"><ele>96.0</ele><time>2026-04-17T13:58:49.173Z</time></trkpt><trkpt lat="46.0577013" lon="13.2895652"><ele>96.0</ele><time>2026-04-17T13:58:50.172Z</time></trkpt><trkpt lat="46.0575938" lon="13.2896779"><ele>96.0</ele><time>2026-04-17T13:58:51.173Z</time></trkpt><trkpt lat="46.0574907" lon="13.2898102"><ele>96.0</ele><time>2026-04-17T13:58:52.173Z</time></trkpt><trkpt lat="46.0573908" lon="13.2899433"><ele>96.0</ele><time>2026-04-17T13:58:53.173Z</time></trkpt><trkpt lat="46.0572908" lon="13.2900809"><ele>96.0</ele><time>2026-04-17T13:58:54.173Z</time></trkpt><trkpt lat="46.0571919" lon="13.2902096"><ele>96.0</ele><time>2026-04-17T13:58:55.173Z</time></trkpt><trkpt lat="46.057085" lon="13.2903233"><ele>96.0</ele><time>2026-04-17T13:58:56.173Z</time></trkpt><trkpt lat="46.0569685" lon="13.2904173"><ele>96.0</ele><time>2026-04-17T13:58:57.172Z</time></trkpt><trkpt lat="46.056845" lon="13.2904902"><ele>96.0</ele><time>2026-04-17T13:58:58.172Z</time></trkpt><trkpt lat="46.0567267" lon="13.290552"><ele>96.0</ele><time>2026-04-17T13:58:59.172Z</time></trkpt><trkpt lat="46.0566064" lon="13.290621"><ele>96.0</ele><time>2026-04-17T13:59:00.172Z</time></trkpt><trkpt lat="46.0564877" lon="13.2906757"><ele>96.0</ele><time>2026-04-17T13:59:01.172Z</time></trkpt><trkpt lat="46.0563613" lon="13.2907146"><ele>96.0</ele><time>2026-04-17T13:59:02.171Z</time></trkpt><trkpt lat="46.0562291" lon="13.2907649"><ele>96.0</ele><time>2026-04-17T13:59:03.172Z</time></trkpt><trkpt lat="46.0560975" lon="13.2908201"><ele>96.0</ele><time>2026-04-17T13:59:04.171Z</time></trkpt><trkpt lat="46.0559606" lon="13.2908807"><ele>96.0</ele><time>2026-04-17T13:59:05.171Z</time></trkpt><trkpt lat="46.0558316" lon="13.290967"><ele>96.0</ele><time>2026-04-17T13:59:06.171Z</time></trkpt><trkpt lat="46.0557009" lon="13.2910599"><ele>96.0</ele><time>2026-04-17T13:59:07.171Z</time></trkpt><trkpt lat="46.0554453" lon="13.2912692"><ele>96.0</ele><time>2026-04-17T13:59:09.171Z</time></trkpt><trkpt lat="46.0553152" lon="13.2913843"><ele>96.0</ele><time>2026-04-17T13:59:10.172Z</time></trkpt><trkpt lat="46.0551818" lon="13.2914915"><ele>96.0</ele><time>2026-04-17T13:59:11.172Z</time></trkpt><trkpt lat="46.0550477" lon="13.2915889"><ele>96.0</ele><time>2026-04-17T13:59:12.172Z</time></trkpt><trkpt lat="46.0549057" lon="13.29169"><ele>96.0</ele><time>2026-04-17T13:59:13.171Z</time></trkpt><trkpt lat="46.0547698" lon="13.2918041"><ele>96.0</ele><time>2026-04-17T13:59:14.172Z</time></trkpt><trkpt lat="46.0546376" lon="13.2919231"><ele>96.0</ele><time>2026-04-17T13:59:15.171Z</time></trkpt><trkpt lat="46.0545096" lon="13.2920485"><ele>96.0</ele><time>2026-04-17T13:59:16.171Z</time></trkpt><trkpt lat="46.0543715" lon="13.29218"><ele>96.0</ele><time>2026-04-17T13:59:17.172Z</time></trkpt><trkpt lat="46.054237" lon="13.2923042"><ele>95.33333333333333</ele><time>2026-04-17T13:59:18.172Z</time></trkpt><trkpt lat="46.0541018" lon="13.2924244"><ele>94.66666666666666</ele><time>2026-04-17T13:59:19.172Z</time></trkpt><trkpt lat="46.0539639" lon="13.2925458"><ele>94.0</ele><time>2026-04-17T13:59:20.172Z</time></trkpt><trkpt lat="46.0538275" lon="13.292665"><ele>94.0</ele><time>2026-04-17T13:59:21.171Z</time></trkpt><trkpt lat="46.0536976" lon="13.2927844"><ele>94.0</ele><time>2026-04-17T13:59:22.172Z</time></trkpt><trkpt lat="46.0535706" lon="13.2929006"><ele>94.0</ele><time>2026-04-17T13:59:23.171Z</time></trkpt><trkpt lat="46.0534465" lon="13.2930112"><ele>94.0</ele><time>2026-04-17T13:59:24.172Z</time></trkpt><trkpt lat="46.0533189" lon="13.2931233"><ele>94.0</ele><time>2026-04-17T13:59:25.172Z</time></trkpt><trkpt lat="46.0531932" lon="13.2932381"><ele>94.0</ele><time>2026-04-17T13:59:26.172Z</time></trkpt><trkpt lat="46.0530669" lon="13.2933543"><ele>94.0</ele><time>2026-04-17T13:59:27.172Z</time></trkpt><trkpt lat="46.0529357" lon="13.2934622"><ele>94.5</ele><time>2026-04-17T13:59:28.172Z</time></trkpt><trkpt lat="46.0526653" lon="13.2936585"><ele>95.0</ele><time>2026-04-17T13:59:30.171Z</time></trkpt><trkpt lat="46.0525257" lon="13.2937563"><ele>95.0</ele><time>2026-04-17T13:59:31.172Z</time></trkpt><trkpt lat="46.0523881" lon="13.2938506"><ele>95.0</ele><time>2026-04-17T13:59:32.172Z</time></trkpt><trkpt lat="46.0522439" lon="13.29395"><ele>95.0</ele><time>2026-04-17T13:59:33.172Z</time></trkpt><trkpt lat="46.0520956" lon="13.294044"><ele>95.0</ele><time>2026-04-17T13:59:34.172Z</time></trkpt><trkpt lat="46.0519517" lon="13.2941401"><ele>95.0</ele><time>2026-04-17T13:59:35.171Z</time></trkpt><trkpt lat="46.051811" lon="13.2942346"><ele>95.0</ele><time>2026-04-17T13:59:36.171Z</time></trkpt><trkpt lat="46.0516835" lon="13.2943243"><ele>94.75</ele><time>2026-04-17T13:59:37.172Z</time></trkpt><trkpt lat="46.0515574" lon="13.2944041"><ele>94.5</ele><time>2026-04-17T13:59:38.172Z</time></trkpt><trkpt lat="46.051433" lon="13.2944876"><ele>94.25</ele><time>2026-04-17T13:59:39.172Z</time></trkpt><trkpt lat="46.0513114" lon="13.2945707"><ele>94.0</ele><time>2026-04-17T13:59:40.172Z</time></trkpt><trkpt lat="46.051199" lon="13.29465"><ele>94.0</ele><time>2026-04-17T13:59:41.172Z</time></trkpt><trkpt lat="46.0510928" lon="13.2947342"><ele>94.0</ele><time>2026-04-17T13:59:42.172Z</time></trkpt><trkpt lat="46.0509911" lon="13.294818"><ele>94.0</ele><time>2026-04-17T13:59:43.172Z</time></trkpt><trkpt lat="46.0508945" lon="13.2948959"><ele>94.0</ele><time>2026-04-17T13:59:44.171Z</time></trkpt><trkpt lat="46.0508045" lon="13.294963"><ele>94.0</ele><time>2026-04-17T13:59:45.172Z</time></trkpt><trkpt lat="46.0507225" lon="13.2950195"><ele>94.0</ele><time>2026-04-17T13:59:46.172Z</time></trkpt><trkpt lat="46.0506503" lon="13.2950737"><ele>94.0</ele><time>2026-04-17T13:59:47.172Z</time></trkpt><trkpt lat="46.0505933" lon="13.2951168"><ele>94.0</ele><time>2026-04-17T13:59:48.172Z</time></trkpt><trkpt lat="46.0505217" lon="13.2951714"><ele>94.0</ele><time>2026-04-17T13:59:50.172Z</time></trkpt><trkpt lat="46.0503821" lon="13.2952881"><ele>94.0</ele><time>2026-04-17T13:59:54.171Z</time></trkpt><trkpt lat="46.0502763" lon="13.2953614"><ele>94.0</ele><time>2026-04-17T13:59:56.172Z</time></trkpt><trkpt lat="46.0502171" lon="13.2954072"><ele>94.0</ele><time>2026-04-17T13:59:57.172Z</time></trkpt><trkpt lat="46.0501443" lon="13.2954591"><ele>94.0</ele><time>2026-04-17T13:59:58.172Z</time></trkpt><trkpt lat="46.0500611" lon="13.2955228"><ele>94.0</ele><time>2026-04-17T13:59:59.172Z</time></trkpt><trkpt lat="46.0499726" lon="13.2955923"><ele>93.75</ele><time>2026-04-17T14:00:00.172Z</time></trkpt><trkpt lat="46.0498776" lon="13.2956681"><ele>93.5</ele><time>2026-04-17T14:00:01.171Z</time></trkpt><trkpt lat="46.0497776" lon="13.2957434"><ele>93.25</ele><time>2026-04-17T14:00:02.171Z</time></trkpt><trkpt lat="46.0496773" lon="13.2958216"><ele>93.0</ele><time>2026-04-17T14:00:03.171Z</time></trkpt><trkpt lat="46.0495732" lon="13.2959111"><ele>93.0</ele><time>2026-04-17T14:00:04.172Z</time></trkpt><trkpt lat="46.0494642" lon="13.2960002"><ele>93.0</ele><time>2026-04-17T14:00:05.172Z</time></trkpt><trkpt lat="46.0493535" lon="13.296093"><ele>93.0</ele><time>2026-04-17T14:00:06.172Z</time></trkpt><trkpt lat="46.0492403" lon="13.2961873"><ele>93.0</ele><time>2026-04-17T14:00:07.172Z</time></trkpt><trkpt lat="46.0491276" lon="13.296271"><ele>93.0</ele><time>2026-04-17T14:00:08.171Z</time></trkpt><trkpt lat="46.0490121" lon="13.296356"><ele>93.0</ele><time>2026-04-17T14:00:09.172Z</time></trkpt><trkpt lat="46.0488944" lon="13.2964499"><ele>93.0</ele><time>2026-04-17T14:00:10.172Z</time></trkpt><trkpt lat="46.0487804" lon="13.2965419"><ele>93.0</ele><time>2026-04-17T14:00:11.172Z</time></trkpt><trkpt lat="46.0485592" lon="13.2967174"><ele>93.0</ele><time>2026-04-17T14:00:13.171Z</time></trkpt><trkpt lat="46.0484483" lon="13.2968181"><ele>93.0</ele><time>2026-04-17T14:00:14.171Z</time></trkpt><trkpt lat="46.0483382" lon="13.2969134"><ele>93.0</ele><time>2026-04-17T14:00:15.172Z</time></trkpt><trkpt lat="46.0482296" lon="13.2970043"><ele>93.0</ele><time>2026-04-17T14:00:16.172Z</time></trkpt><trkpt lat="46.0481236" lon="13.2970935"><ele>93.0</ele><time>2026-04-17T14:00:17.172Z</time></trkpt><trkpt lat="46.0480183" lon="13.2971802"><ele>93.0</ele><time>2026-04-17T14:00:18.171Z</time></trkpt><trkpt lat="46.0479074" lon="13.2972646"><ele>93.0</ele><time>2026-04-17T14:00:19.172Z</time></trkpt><trkpt lat="46.0477986" lon="13.2973425"><ele>93.0</ele><time>2026-04-17T14:00:20.172Z</time></trkpt><trkpt lat="46.0476911" lon="13.2974211"><ele>92.75</ele><time>2026-04-17T14:00:21.172Z</time></trkpt><trkpt lat="46.0475787" lon="13.2975161"><ele>92.5</ele><time>2026-04-17T14:00:22.171Z</time></trkpt><trkpt lat="46.0474637" lon="13.297601"><ele>92.25</ele><time>2026-04-17T14:00:23.171Z</time></trkpt><trkpt lat="46.0473513" lon="13.2976918"><ele>92.0</ele><time>2026-04-17T14:00:24.171Z</time></trkpt><trkpt lat="46.0472324" lon="13.2977953"><ele>91.75</ele><time>2026-04-17T14:00:25.172Z</time></trkpt><trkpt lat="46.0471078" lon="13.2978886"><ele>91.5</ele><time>2026-04-17T14:00:26.172Z</time></trkpt><trkpt lat="46.0469929" lon="13.2979734"><ele>91.25</ele><time>2026-04-17T14:00:27.172Z</time></trkpt><trkpt lat="46.0468703" lon="13.2980624"><ele>91.0</ele><time>2026-04-17T14:00:28.171Z</time></trkpt><trkpt lat="46.0467485" lon="13.2981493"><ele>90.75</ele><time>2026-04-17T14:00:29.172Z</time></trkpt><trkpt lat="46.0466308" lon="13.2982371"><ele>90.5</ele><time>2026-04-17T14:00:30.172Z</time></trkpt><trkpt lat="46.0465086" lon="13.2983307"><ele>90.25</ele><time>2026-04-17T14:00:31.172Z</time></trkpt><trkpt lat="46.0463881" lon="13.2984124"><ele>90.0</ele><time>2026-04-17T14:00:32.171Z</time></trkpt><trkpt lat="46.0461589" lon="13.298601"><ele>90.0</ele><time>2026-04-17T14:00:34.171Z</time></trkpt><trkpt lat="46.0460354" lon="13.2987108"><ele>90.0</ele><time>2026-04-17T14:00:35.172Z</time></trkpt><trkpt lat="46.0459164" lon="13.2988332"><ele>90.0</ele><time>2026-04-17T14:00:36.171Z</time></trkpt><trkpt lat="46.0457986" lon="13.2989564"><ele>90.0</ele><time>2026-04-17T14:00:37.171Z</time></trkpt><trkpt lat="46.0456805" lon="13.2990894"><ele>90.0</ele><time>2026-04-17T14:00:38.171Z</time></trkpt><trkpt lat="46.0455623" lon="13.2992191"><ele>90.0</ele><time>2026-04-17T14:00:39.171Z</time></trkpt><trkpt lat="46.045444" lon="13.2993611"><ele>90.0</ele><time>2026-04-17T14:00:40.172Z</time></trkpt><trkpt lat="46.0453258" lon="13.2995041"><ele>90.0</ele><time>2026-04-17T14:00:41.172Z</time></trkpt><trkpt lat="46.0452102" lon="13.2996546"><ele>90.0</ele><time>2026-04-17T14:00:42.172Z</time></trkpt><trkpt lat="46.0451058" lon="13.2998088"><ele>90.0</ele><time>2026-04-17T14:00:43.172Z</time></trkpt><trkpt lat="46.0450103" lon="13.2999678"><ele>90.0</ele><time>2026-04-17T14:00:44.172Z</time></trkpt><trkpt lat="46.0449219" lon="13.3001241"><ele>90.0</ele><time>2026-04-17T14:00:45.172Z</time></trkpt><trkpt lat="46.044843" lon="13.3002585"><ele>90.0</ele><time>2026-04-17T14:00:46.172Z</time></trkpt><trkpt lat="46.0447573" lon="13.300381"><ele>90.0</ele><time>2026-04-17T14:00:47.172Z</time></trkpt><trkpt lat="46.0446479" lon="13.3004718"><ele>90.0</ele><time>2026-04-17T14:00:48.172Z</time></trkpt><trkpt lat="46.0445264" lon="13.3005473"><ele>90.0</ele><time>2026-04-17T14:00:49.172Z</time></trkpt><trkpt lat="46.0443935" lon="13.3006114"><ele>90.0</ele><time>2026-04-17T14:00:50.172Z</time></trkpt><trkpt lat="46.0442528" lon="13.3006874"><ele>90.0</ele><time>2026-04-17T14:00:51.172Z</time></trkpt><trkpt lat="46.0441093" lon="13.3007745"><ele>88.5</ele><time>2026-04-17T14:00:52.172Z</time></trkpt><trkpt lat="46.0439563" lon="13.3008592"><ele>87.0</ele><time>2026-04-17T14:00:53.171Z</time></trkpt><trkpt lat="46.0436538" lon="13.3010422"><ele>87.0</ele><time>2026-04-17T14:00:55.172Z</time></trkpt><trkpt lat="46.0435035" lon="13.3011348"><ele>87.0</ele><time>2026-04-17T14:00:56.172Z</time></trkpt><trkpt lat="46.0433579" lon="13.3012292"><ele>87.0</ele><time>2026-04-17T14:00:57.172Z</time></trkpt><trkpt lat="46.043216" lon="13.3013253"><ele>87.0</ele><time>2026-04-17T14:00:58.172Z</time></trkpt><trkpt lat="46.0430701" lon="13.301419"><ele>87.0</ele><time>2026-04-17T14:00:59.172Z</time></trkpt><trkpt lat="46.0429222" lon="13.3015096"><ele>87.0</ele><time>2026-04-17T14:01:00.171Z</time></trkpt><trkpt lat="46.0427755" lon="13.3015989"><ele>87.0</ele><time>2026-04-17T14:01:01.172Z</time></trkpt><trkpt lat="46.0426315" lon="13.3016924"><ele>87.0</ele><time>2026-04-17T14:01:02.171Z</time></trkpt><trkpt lat="46.0424869" lon="13.3017808"><ele>87.0</ele><time>2026-04-17T14:01:03.172Z</time></trkpt><trkpt lat="46.0423415" lon="13.3018673"><ele>87.0</ele><time>2026-04-17T14:01:04.172Z</time></trkpt><trkpt lat="46.0422042" lon="13.3019695"><ele>87.0</ele><time>2026-04-17T14:01:05.172Z</time></trkpt><trkpt lat="46.042068" lon="13.3020849"><ele>87.0</ele><time>2026-04-17T14:01:06.172Z</time></trkpt><trkpt lat="46.0419321" lon="13.3022114"><ele>87.0</ele><time>2026-04-17T14:01:07.171Z</time></trkpt><trkpt lat="46.0417982" lon="13.3023326"><ele>87.0</ele><time>2026-04-17T14:01:08.172Z</time></trkpt><trkpt lat="46.041665" lon="13.3024581"><ele>87.0</ele><time>2026-04-17T14:01:09.172Z</time></trkpt><trkpt lat="46.0415348" lon="13.3025829"><ele>87.0</ele><time>2026-04-17T14:01:10.172Z</time></trkpt><trkpt lat="46.0414066" lon="13.3027082"><ele>87.0</ele><time>2026-04-17T14:01:11.172Z</time></trkpt><trkpt lat="46.0412718" lon="13.3028328"><ele>87.0</ele><time>2026-04-17T14:01:12.171Z</time></trkpt><trkpt lat="46.0411462" lon="13.3029399"><ele>87.0</ele><time>2026-04-17T14:01:13.172Z</time></trkpt><trkpt lat="46.0410318" lon="13.3030361"><ele>87.0</ele><time>2026-04-17T14:01:14.172Z</time></trkpt><trkpt lat="46.0408227" lon="13.3032014"><ele>87.0</ele><time>2026-04-17T14:01:16.171Z</time></trkpt><trkpt lat="46.0407192" lon="13.3032763"><ele>87.0</ele><time>2026-04-17T14:01:17.172Z</time></trkpt><trkpt lat="46.0406336" lon="13.3033478"><ele>87.0</ele><time>2026-04-17T14:01:18.171Z</time></trkpt><trkpt lat="46.0405496" lon="13.3034115"><ele>87.0</ele><time>2026-04-17T14:01:19.171Z</time></trkpt><trkpt lat="46.0404713" lon="13.3034685"><ele>87.0</ele><time>2026-04-17T14:01:20.172Z</time></trkpt><trkpt lat="46.0404071" lon="13.3035194"><ele>87.0</ele><time>2026-04-17T14:01:21.171Z</time></trkpt><trkpt lat="46.0403012" lon="13.3035841"><ele>87.0</ele><time>2026-04-17T14:01:23.172Z</time></trkpt><trkpt lat="46.0402086" lon="13.3036158"><ele>87.0</ele><time>2026-04-17T14:01:26.172Z</time></trkpt><trkpt lat="46.0401119" lon="13.3037311"><ele>87.0</ele><time>2026-04-17T14:01:28.172Z</time></trkpt><trkpt lat="46.0400392" lon="13.3038098"><ele>87.0</ele><time>2026-04-17T14:01:29.172Z</time></trkpt><trkpt lat="46.0399449" lon="13.3038919"><ele>87.0</ele><time>2026-04-17T14:01:30.171Z</time></trkpt><trkpt lat="46.0398357" lon="13.3039821"><ele>87.25</ele><time>2026-04-17T14:01:31.172Z</time></trkpt><trkpt lat="46.0397171" lon="13.3040868"><ele>87.5</ele><time>2026-04-17T14:01:32.171Z</time></trkpt><trkpt lat="46.0395871" lon="13.3041885"><ele>87.75</ele><time>2026-04-17T14:01:33.171Z</time></trkpt><trkpt lat="46.0394572" lon="13.3042934"><ele>88.0</ele><time>2026-04-17T14:01:34.172Z</time></trkpt><trkpt lat="46.0393254" lon="13.3044044"><ele>87.33333333333333</ele><time>2026-04-17T14:01:35.172Z</time></trkpt><trkpt lat="46.0390752" lon="13.3046184"><ele>86.66666666666667</ele><time>2026-04-17T14:01:37.172Z</time></trkpt><trkpt lat="46.0389488" lon="13.3047279"><ele>86.0</ele><time>2026-04-17T14:01:38.171Z</time></trkpt><trkpt lat="46.0388222" lon="13.3048385"><ele>85.66666666666667</ele><time>2026-04-17T14:01:39.172Z</time></trkpt><trkpt lat="46.038692" lon="13.3049479"><ele>85.33333333333333</ele><time>2026-04-17T14:01:40.172Z</time></trkpt><trkpt lat="46.038565" lon="13.3050583"><ele>85.0</ele><time>2026-04-17T14:01:41.172Z</time></trkpt><trkpt lat="46.0384358" lon="13.3051701"><ele>85.0</ele><time>2026-04-17T14:01:42.172Z</time></trkpt><trkpt lat="46.0383116" lon="13.3052818"><ele>85.0</ele><time>2026-04-17T14:01:43.172Z</time></trkpt><trkpt lat="46.0381895" lon="13.3053892"><ele>85.0</ele><time>2026-04-17T14:01:44.172Z</time></trkpt><trkpt lat="46.038068" lon="13.3054944"><ele>85.0</ele><time>2026-04-17T14:01:45.172Z</time></trkpt><trkpt lat="46.0379496" lon="13.3055907"><ele>85.25</ele><time>2026-04-17T14:01:46.172Z</time></trkpt><trkpt lat="46.0378393" lon="13.3056823"><ele>85.5</ele><time>2026-04-17T14:01:47.171Z</time></trkpt><trkpt lat="46.0377387" lon="13.3057703"><ele>85.75</ele><time>2026-04-17T14:01:48.171Z</time></trkpt><trkpt lat="46.0376472" lon="13.3058555"><ele>86.0</ele><time>2026-04-17T14:01:49.172Z</time></trkpt><trkpt lat="46.0375531" lon="13.3059242"><ele>86.0</ele><time>2026-04-17T14:01:50.171Z</time></trkpt><trkpt lat="46.0374675" lon="13.3059948"><ele>86.0</ele><time>2026-04-17T14:01:51.172Z</time></trkpt><trkpt lat="46.0373863" lon="13.3060601"><ele>86.0</ele><time>2026-04-17T14:01:52.172Z</time></trkpt><trkpt lat="46.0373235" lon="13.3061019"><ele>86.0</ele><time>2026-04-17T14:01:53.171Z</time></trkpt><trkpt lat="46.0372516" lon="13.3061357"><ele>86.0</ele><time>2026-04-17T14:01:55.172Z</time></trkpt><trkpt lat="46.0371632" lon="13.3062181"><ele>86.0</ele><time>2026-04-17T14:01:57.172Z</time></trkpt><trkpt lat="46.0370085" lon="13.3063931"><ele>86.0</ele><time>2026-04-17T14:01:59.171Z</time></trkpt><trkpt lat="46.0369098" lon="13.3064915"><ele>86.0</ele><time>2026-04-17T14:02:00.172Z</time></trkpt><trkpt lat="46.0367933" lon="13.3065969"><ele>86.0</ele><time>2026-04-17T14:02:01.171Z</time></trkpt><trkpt lat="46.0366631" lon="13.3067104"><ele>86.0</ele><time>2026-04-17T14:02:02.171Z</time></trkpt><trkpt lat="46.036533" lon="13.3068216"><ele>86.25</ele><time>2026-04-17T14:02:03.172Z</time></trkpt><trkpt lat="46.0364043" lon="13.3069276"><ele>86.5</ele><time>2026-04-17T14:02:04.172Z</time></trkpt><trkpt lat="46.0362845" lon="13.3070313"><ele>86.75</ele><time>2026-04-17T14:02:05.172Z</time></trkpt><trkpt lat="46.0361649" lon="13.307135"><ele>87.0</ele><time>2026-04-17T14:02:06.171Z</time></trkpt><trkpt lat="46.0360407" lon="13.3072384"><ele>86.66666666666667</ele><time>2026-04-17T14:02:07.172Z</time></trkpt><trkpt lat="46.0359152" lon="13.3073494"><ele>86.33333333333334</ele><time>2026-04-17T14:02:08.171Z</time></trkpt><trkpt lat="46.0357875" lon="13.307458"><ele>86.0</ele><time>2026-04-17T14:02:09.171Z</time></trkpt><trkpt lat="46.0356529" lon="13.3075671"><ele>86.0</ele><time>2026-04-17T14:02:10.171Z</time></trkpt><trkpt lat="46.0355252" lon="13.3076816"><ele>86.0</ele><time>2026-04-17T14:02:11.171Z</time></trkpt><trkpt lat="46.0353921" lon="13.3077935"><ele>86.0</ele><time>2026-04-17T14:02:12.172Z</time></trkpt><trkpt lat="46.0352658" lon="13.3079109"><ele>86.0</ele><time>2026-04-17T14:02:13.172Z</time></trkpt><trkpt lat="46.035135" lon="13.3080298"><ele>86.0</ele><time>2026-04-17T14:02:14.171Z</time></trkpt><trkpt lat="46.0350038" lon="13.3081514"><ele>86.0</ele><time>2026-04-17T14:02:15.172Z</time></trkpt><trkpt lat="46.034872" lon="13.3082641"><ele>85.66666666666667</ele><time>2026-04-17T14:02:16.172Z</time></trkpt><trkpt lat="46.0347451" lon="13.308374"><ele>85.33333333333333</ele><time>2026-04-17T14:02:17.171Z</time></trkpt><trkpt lat="46.0346231" lon="13.308478"><ele>85.0</ele><time>2026-04-17T14:02:18.172Z</time></trkpt><trkpt lat="46.0343777" lon="13.3086779"><ele>85.0</ele><time>2026-04-17T14:02:20.172Z</time></trkpt><trkpt lat="46.0342643" lon="13.3087717"><ele>85.0</ele><time>2026-04-17T14:02:21.172Z</time></trkpt><trkpt lat="46.0341563" lon="13.3088577"><ele>85.0</ele><time>2026-04-17T14:02:22.172Z</time></trkpt><trkpt lat="46.0340467" lon="13.3089535"><ele>85.0</ele><time>2026-04-17T14:02:23.172Z</time></trkpt><trkpt lat="46.0339365" lon="13.3090452"><ele>84.75</ele><time>2026-04-17T14:02:24.172Z</time></trkpt><trkpt lat="46.033819" lon="13.3091462"><ele>84.5</ele><time>2026-04-17T14:02:25.172Z</time></trkpt><trkpt lat="46.0336942" lon="13.3092514"><ele>84.25</ele><time>2026-04-17T14:02:26.172Z</time></trkpt><trkpt lat="46.0335766" lon="13.309343"><ele>84.0</ele><time>2026-04-17T14:02:27.172Z</time></trkpt><trkpt lat="46.0334692" lon="13.3094219"><ele>84.0</ele><time>2026-04-17T14:02:28.172Z</time></trkpt><trkpt lat="46.0333636" lon="13.309498"><ele>84.0</ele><time>2026-04-17T14:02:29.172Z</time></trkpt><trkpt lat="46.0332588" lon="13.3095564"><ele>84.0</ele><time>2026-04-17T14:02:30.172Z</time></trkpt><trkpt lat="46.0331478" lon="13.309599"><ele>84.0</ele><time>2026-04-17T14:02:31.172Z</time></trkpt><trkpt lat="46.033029" lon="13.3096265"><ele>83.75</ele><time>2026-04-17T14:02:32.172Z</time></trkpt><trkpt lat="46.0329032" lon="13.3096278"><ele>83.5</ele><time>2026-04-17T14:02:33.171Z</time></trkpt><trkpt lat="46.032766" lon="13.3096284"><ele>83.25</ele><time>2026-04-17T14:02:34.171Z</time></trkpt><trkpt lat="46.032624" lon="13.3096323"><ele>83.0</ele><time>2026-04-17T14:02:35.172Z</time></trkpt><trkpt lat="46.0324879" lon="13.3096427"><ele>83.25</ele><time>2026-04-17T14:02:36.172Z</time></trkpt><trkpt lat="46.0323592" lon="13.3096566"><ele>83.5</ele><time>2026-04-17T14:02:37.172Z</time></trkpt><trkpt lat="46.0322167" lon="13.3096596"><ele>83.75</ele><time>2026-04-17T14:02:38.171Z</time></trkpt><trkpt lat="46.0320835" lon="13.3096643"><ele>84.0</ele><time>2026-04-17T14:02:39.172Z</time></trkpt><trkpt lat="46.0318217" lon="13.3096679"><ele>84.0</ele><time>2026-04-17T14:02:41.172Z</time></trkpt><trkpt lat="46.0316842" lon="13.3096707"><ele>84.0</ele><time>2026-04-17T14:02:42.172Z</time></trkpt><trkpt lat="46.0315544" lon="13.3096776"><ele>84.0</ele><time>2026-04-17T14:02:43.171Z</time></trkpt><trkpt lat="46.0314246" lon="13.3096849"><ele>84.0</ele><time>2026-04-17T14:02:44.172Z</time></trkpt><trkpt lat="46.0312932" lon="13.3096964"><ele>83.5</ele><time>2026-04-17T14:02:45.171Z</time></trkpt><trkpt lat="46.0311553" lon="13.3097086"><ele>83.0</ele><time>2026-04-17T14:02:46.172Z</time></trkpt><trkpt lat="46.0310201" lon="13.3097265"><ele>82.5</ele><time>2026-04-17T14:02:47.172Z</time></trkpt><trkpt lat="46.0308892" lon="13.3097448"><ele>82.0</ele><time>2026-04-17T14:02:48.172Z</time></trkpt><trkpt lat="46.0307628" lon="13.3097554"><ele>82.0</ele><time>2026-04-17T14:02:49.171Z</time></trkpt><trkpt lat="46.0306443" lon="13.3097565"><ele>82.0</ele><time>2026-04-17T14:02:50.172Z</time></trkpt><trkpt lat="46.0305404" lon="13.3097496"><ele>82.0</ele><time>2026-04-17T14:02:51.171Z</time></trkpt><trkpt lat="46.0304517" lon="13.3097527"><ele>82.0</ele><time>2026-04-17T14:02:52.171Z</time></trkpt><trkpt lat="46.030378" lon="13.3097623"><ele>82.0</ele><time>2026-04-17T14:02:53.171Z</time></trkpt><trkpt lat="46.0302879" lon="13.3097567"><ele>82.0</ele><time>2026-04-17T14:02:55.172Z</time></trkpt><trkpt lat="46.0302069" lon="13.3097388"><ele>82.0</ele><time>2026-04-17T14:02:59.172Z</time></trkpt><trkpt lat="46.030126" lon="13.309811"><ele>82.0</ele><time>2026-04-17T14:03:01.17Z</time></trkpt><trkpt lat="46.0299167" lon="13.3098903"><ele>82.0</ele><time>2026-04-17T14:03:04.171Z</time></trkpt><trkpt lat="46.0297998" lon="13.309906"><ele>82.0</ele><time>2026-04-17T14:03:05.171Z</time></trkpt><trkpt lat="46.0296665" lon="13.3099249"><ele>82.0</ele><time>2026-04-17T14:03:06.171Z</time></trkpt><trkpt lat="46.0295294" lon="13.3099443"><ele>82.0</ele><time>2026-04-17T14:03:07.171Z</time></trkpt><trkpt lat="46.0293956" lon="13.3099634"><ele>82.0</ele><time>2026-04-17T14:03:08.171Z</time></trkpt><trkpt lat="46.0292525" lon="13.3099891"><ele>82.0</ele><time>2026-04-17T14:03:09.171Z</time></trkpt><trkpt lat="46.0291071" lon="13.3100118"><ele>82.0</ele><time>2026-04-17T14:03:10.171Z</time></trkpt><trkpt lat="46.0289633" lon="13.3100291"><ele>82.0</ele><time>2026-04-17T14:03:11.171Z</time></trkpt><trkpt lat="46.0288341" lon="13.3100325"><ele>82.0</ele><time>2026-04-17T14:03:12.171Z</time></trkpt><trkpt lat="46.0287098" lon="13.3100281"><ele>82.0</ele><time>2026-04-17T14:03:13.171Z</time></trkpt><trkpt lat="46.0286005" lon="13.3100199"><ele>82.0</ele><time>2026-04-17T14:03:14.171Z</time></trkpt><trkpt lat="46.0285006" lon="13.3100214"><ele>82.0</ele><time>2026-04-17T14:03:15.17Z</time></trkpt><trkpt lat="46.028402" lon="13.3100312"><ele>82.0</ele><time>2026-04-17T14:03:16.17Z</time></trkpt><trkpt lat="46.0283084" lon="13.3100602"><ele>82.0</ele><time>2026-04-17T14:03:17.171Z</time></trkpt><trkpt lat="46.0282223" lon="13.3100965"><ele>81.0</ele><time>2026-04-17T14:03:18.171Z</time></trkpt><trkpt lat="46.0281259" lon="13.3101449"><ele>80.0</ele><time>2026-04-17T14:03:19.17Z</time></trkpt><trkpt lat="46.0280273" lon="13.3101792"><ele>79.0</ele><time>2026-04-17T14:03:20.171Z</time></trkpt><trkpt lat="46.0279283" lon="13.3102035"><ele>78.0</ele><time>2026-04-17T14:03:21.171Z</time></trkpt><trkpt lat="46.0278254" lon="13.3102272"><ele>77.0</ele><time>2026-04-17T14:03:22.171Z</time></trkpt><trkpt lat="46.0276226" lon="13.3103192"><ele>77.0</ele><time>2026-04-17T14:03:24.171Z</time></trkpt><trkpt lat="46.0275216" lon="13.3104022"><ele>77.0</ele><time>2026-04-17T14:03:25.171Z</time></trkpt><trkpt lat="46.0274187" lon="13.3104983"><ele>77.0</ele><time>2026-04-17T14:03:26.171Z</time></trkpt><trkpt lat="46.0273109" lon="13.3105716"><ele>77.0</ele><time>2026-04-17T14:03:27.17Z</time></trkpt><trkpt lat="46.0272021" lon="13.3106433"><ele>77.0</ele><time>2026-04-17T14:03:28.171Z</time></trkpt><trkpt lat="46.0270934" lon="13.3107269"><ele>77.0</ele><time>2026-04-17T14:03:29.17Z</time></trkpt><trkpt lat="46.0269853" lon="13.3108055"><ele>77.0</ele><time>2026-04-17T14:03:30.171Z</time></trkpt><trkpt lat="46.0268833" lon="13.3108754"><ele>77.0</ele><time>2026-04-17T14:03:31.171Z</time></trkpt><trkpt lat="46.0267888" lon="13.310942"><ele>77.0</ele><time>2026-04-17T14:03:32.171Z</time></trkpt><trkpt lat="46.0267129" lon="13.3110192"><ele>77.0</ele><time>2026-04-17T14:03:33.171Z</time></trkpt><trkpt lat="46.026663" lon="13.3111119"><ele>77.0</ele><time>2026-04-17T14:03:34.171Z</time></trkpt><trkpt lat="46.0266285" lon="13.311208"><ele>77.0</ele><time>2026-04-17T14:03:35.171Z</time></trkpt><trkpt lat="46.0265955" lon="13.3112883"><ele>77.0</ele><time>2026-04-17T14:03:36.171Z</time></trkpt><trkpt lat="46.0265025" lon="13.3113458"><ele>77.0</ele><time>2026-04-17T14:03:38.171Z</time></trkpt><trkpt lat="46.0264339" lon="13.311333"><ele>77.0</ele><time>2026-04-17T14:03:39.17Z</time></trkpt><trkpt lat="46.0263477" lon="13.3113165"><ele>77.0</ele><time>2026-04-17T14:03:40.171Z</time></trkpt><trkpt lat="46.0262367" lon="13.3113232"><ele>77.0</ele><time>2026-04-17T14:03:41.171Z</time></trkpt><trkpt lat="46.0261236" lon="13.3113425"><ele>77.0</ele><time>2026-04-17T14:03:42.171Z</time></trkpt><trkpt lat="46.0260033" lon="13.3113432"><ele>77.0</ele><time>2026-04-17T14:03:43.171Z</time></trkpt><trkpt lat="46.025739" lon="13.3113418"><ele>77.0</ele><time>2026-04-17T14:03:45.17Z</time></trkpt><trkpt lat="46.025601" lon="13.3113512"><ele>77.0</ele><time>2026-04-17T14:03:46.171Z</time></trkpt><trkpt lat="46.0254591" lon="13.311367"><ele>77.0</ele><time>2026-04-17T14:03:47.171Z</time></trkpt><trkpt lat="46.0253197" lon="13.3113822"><ele>77.0</ele><time>2026-04-17T14:03:48.17Z</time></trkpt><trkpt lat="46.0251737" lon="13.3113905"><ele>77.0</ele><time>2026-04-17T14:03:49.171Z</time></trkpt><trkpt lat="46.0250208" lon="13.3113927"><ele>77.0</ele><time>2026-04-17T14:03:50.171Z</time></trkpt><trkpt lat="46.0248683" lon="13.3113877"><ele>77.0</ele><time>2026-04-17T14:03:51.171Z</time></trkpt><trkpt lat="46.0247107" lon="13.3113978"><ele>76.66666666666667</ele><time>2026-04-17T14:03:52.17Z</time></trkpt><trkpt lat="46.0245489" lon="13.3114148"><ele>76.33333333333333</ele><time>2026-04-17T14:03:53.171Z</time></trkpt><trkpt lat="46.02439" lon="13.3114044"><ele>76.0</ele><time>2026-04-17T14:03:54.17Z</time></trkpt><trkpt lat="46.0242283" lon="13.3113834"><ele>76.66666666666666</ele><time>2026-04-17T14:03:55.17Z</time></trkpt><trkpt lat="46.0240759" lon="13.3113723"><ele>77.33333333333333</ele><time>2026-04-17T14:03:56.171Z</time></trkpt><trkpt lat="46.0239236" lon="13.311376"><ele>78.0</ele><time>2026-04-17T14:03:57.17Z</time></trkpt><trkpt lat="46.0237754" lon="13.3113684"><ele>78.0</ele><time>2026-04-17T14:03:58.171Z</time></trkpt><trkpt lat="46.0236177" lon="13.3113497"><ele>78.0</ele><time>2026-04-17T14:03:59.17Z</time></trkpt><trkpt lat="46.023457" lon="13.3113548"><ele>78.0</ele><time>2026-04-17T14:04:00.17Z</time></trkpt><trkpt lat="46.0232944" lon="13.3113744"><ele>76.33333333333333</ele><time>2026-04-17T14:04:01.171Z</time></trkpt><trkpt lat="46.0231325" lon="13.3113902"><ele>74.66666666666666</ele><time>2026-04-17T14:04:02.17Z</time></trkpt><trkpt lat="46.0229693" lon="13.3113865"><ele>73.0</ele><time>2026-04-17T14:04:03.171Z</time></trkpt><trkpt lat="46.0228142" lon="13.3113762"><ele>73.0</ele><time>2026-04-17T14:04:04.171Z</time></trkpt><trkpt lat="46.0225583" lon="13.3113449"><ele>73.0</ele><time>2026-04-17T14:04:06.171Z</time></trkpt><trkpt lat="46.0224439" lon="13.3113126"><ele>73.0</ele><time>2026-04-17T14:04:07.171Z</time></trkpt><trkpt lat="46.0223263" lon="13.3112535"><ele>73.5</ele><time>2026-04-17T14:04:08.171Z</time></trkpt><trkpt lat="46.0221981" lon="13.3111691"><ele>74.0</ele><time>2026-04-17T14:04:09.17Z</time></trkpt><trkpt lat="46.0220567" lon="13.3111028"><ele>74.5</ele><time>2026-04-17T14:04:10.171Z</time></trkpt><trkpt lat="46.0219087" lon="13.3110673"><ele>75.0</ele><time>2026-04-17T14:04:11.171Z</time></trkpt><trkpt lat="46.0217441" lon="13.311039"><ele>75.33333333333333</ele><time>2026-04-17T14:04:12.171Z</time></trkpt><trkpt lat="46.0215761" lon="13.3110198"><ele>75.66666666666666</ele><time>2026-04-17T14:04:13.171Z</time></trkpt><trkpt lat="46.0213992" lon="13.3109976"><ele>76.0</ele><time>2026-04-17T14:04:14.171Z</time></trkpt><trkpt lat="46.0212233" lon="13.3109736"><ele>76.0</ele><time>2026-04-17T14:04:15.171Z</time></trkpt><trkpt lat="46.0210421" lon="13.3109495"><ele>76.0</ele><time>2026-04-17T14:04:16.171Z</time></trkpt><trkpt lat="46.020867" lon="13.3109275"><ele>76.0</ele><time>2026-04-17T14:04:17.171Z</time></trkpt><trkpt lat="46.0207027" lon="13.3109052"><ele>76.5</ele><time>2026-04-17T14:04:18.171Z</time></trkpt><trkpt lat="46.0205496" lon="13.3108851"><ele>77.0</ele><time>2026-04-17T14:04:19.171Z</time></trkpt><trkpt lat="46.020411" lon="13.3108626"><ele>77.5</ele><time>2026-04-17T14:04:20.17Z</time></trkpt><trkpt lat="46.0202781" lon="13.3108372"><ele>78.0</ele><time>2026-04-17T14:04:21.171Z</time></trkpt><trkpt lat="46.0201635" lon="13.3108231"><ele>78.0</ele><time>2026-04-17T14:04:22.171Z</time></trkpt><trkpt lat="46.0200555" lon="13.3108079"><ele>78.0</ele><time>2026-04-17T14:04:23.171Z</time></trkpt><trkpt lat="46.0199572" lon="13.3108002"><ele>78.0</ele><time>2026-04-17T14:04:24.17Z</time></trkpt><trkpt lat="46.0198804" lon="13.310812"><ele>78.0</ele><time>2026-04-17T14:04:25.171Z</time></trkpt><trkpt lat="46.0197346" lon="13.3108948"><ele>78.0</ele><time>2026-04-17T14:04:27.171Z</time></trkpt><trkpt lat="46.0196446" lon="13.310945"><ele>77.6</ele><time>2026-04-17T14:04:28.171Z</time></trkpt><trkpt lat="46.0195483" lon="13.3109765"><ele>77.19999999999999</ele><time>2026-04-17T14:04:29.17Z</time></trkpt><trkpt lat="46.0194641" lon="13.3109964"><ele>76.8</ele><time>2026-04-17T14:04:30.171Z</time></trkpt><trkpt lat="46.0193893" lon="13.3109966"><ele>76.39999999999999</ele><time>2026-04-17T14:04:31.171Z</time></trkpt><trkpt lat="46.0193184" lon="13.3110158"><ele>76.0</ele><time>2026-04-17T14:04:32.171Z</time></trkpt><trkpt lat="46.0192432" lon="13.3111508"><ele>76.0</ele><time>2026-04-17T14:04:34.171Z</time></trkpt><trkpt lat="46.0192145" lon="13.3112366"><ele>76.0</ele><time>2026-04-17T14:04:35.171Z</time></trkpt><trkpt lat="46.019128" lon="13.3113352"><ele>76.0</ele><time>2026-04-17T14:04:37.17Z</time></trkpt><trkpt lat="46.0190536" lon="13.3113519"><ele>76.0</ele><time>2026-04-17T14:04:38.17Z</time></trkpt><trkpt lat="46.0189596" lon="13.3113341"><ele>76.0</ele><time>2026-04-17T14:04:39.17Z</time></trkpt><trkpt lat="46.0188427" lon="13.3112956"><ele>75.33333333333333</ele><time>2026-04-17T14:04:40.171Z</time></trkpt><trkpt lat="46.0186932" lon="13.3112618"><ele>74.66666666666667</ele><time>2026-04-17T14:04:41.171Z</time></trkpt><trkpt lat="46.0185392" lon="13.3112483"><ele>74.0</ele><time>2026-04-17T14:04:42.171Z</time></trkpt><trkpt lat="46.0183825" lon="13.311236"><ele>73.0</ele><time>2026-04-17T14:04:43.171Z</time></trkpt><trkpt lat="46.0182192" lon="13.3111993"><ele>72.0</ele><time>2026-04-17T14:04:44.171Z</time></trkpt><trkpt lat="46.018054" lon="13.3111517"><ele>71.0</ele><time>2026-04-17T14:04:45.171Z</time></trkpt><trkpt lat="46.0178865" lon="13.3111025"><ele>71.0</ele><time>2026-04-17T14:04:46.17Z</time></trkpt><trkpt lat="46.0175812" lon="13.3110342"><ele>71.0</ele><time>2026-04-17T14:04:48.17Z</time></trkpt><trkpt lat="46.0174418" lon="13.3110032"><ele>71.39999999999999</ele><time>2026-04-17T14:04:49.17Z</time></trkpt><trkpt lat="46.0173248" lon="13.3109801"><ele>71.8</ele><time>2026-04-17T14:04:50.17Z</time></trkpt><trkpt lat="46.0172196" lon="13.3109636"><ele>72.19999999999999</ele><time>2026-04-17T14:04:51.17Z</time></trkpt><trkpt lat="46.0171175" lon="13.3109551"><ele>72.6</ele><time>2026-04-17T14:04:52.17Z</time></trkpt><trkpt lat="46.0170224" lon="13.3109486"><ele>73.0</ele><time>2026-04-17T14:04:53.171Z</time></trkpt><trkpt lat="46.0169367" lon="13.3109187"><ele>73.0</ele><time>2026-04-17T14:04:54.17Z</time></trkpt><trkpt lat="46.0168543" lon="13.310889"><ele>73.0</ele><time>2026-04-17T14:04:55.171Z</time></trkpt><trkpt lat="46.016783" lon="13.3108728"><ele>73.0</ele><time>2026-04-17T14:04:56.171Z</time></trkpt><trkpt lat="46.0167155" lon="13.310852"><ele>73.0</ele><time>2026-04-17T14:04:57.171Z</time></trkpt><trkpt lat="46.0166538" lon="13.3108133"><ele>73.0</ele><time>2026-04-17T14:04:58.171Z</time></trkpt><trkpt lat="46.0165947" lon="13.31075"><ele>73.0</ele><time>2026-04-17T14:04:59.17Z</time></trkpt><trkpt lat="46.01652" lon="13.3106736"><ele>72.83333333333333</ele><time>2026-04-17T14:05:00.17Z</time></trkpt><trkpt lat="46.0164618" lon="13.3105777"><ele>72.66666666666666</ele><time>2026-04-17T14:05:01.171Z</time></trkpt><trkpt lat="46.0164063" lon="13.310488"><ele>72.5</ele><time>2026-04-17T14:05:02.171Z</time></trkpt><trkpt lat="46.0163543" lon="13.3104039"><ele>72.33333333333333</ele><time>2026-04-17T14:05:03.171Z</time></trkpt><trkpt lat="46.0163084" lon="13.3103123"><ele>72.16666666666667</ele><time>2026-04-17T14:05:04.171Z</time></trkpt><trkpt lat="46.016274" lon="13.3102033"><ele>72.0</ele><time>2026-04-17T14:05:05.171Z</time></trkpt><trkpt lat="46.0162521" lon="13.3100953"><ele>72.0</ele><time>2026-04-17T14:05:06.171Z</time></trkpt><trkpt lat="46.0162606" lon="13.3099784"><ele>72.0</ele><time>2026-04-17T14:05:07.171Z</time></trkpt><trkpt lat="46.0163199" lon="13.3097377"><ele>72.0</ele><time>2026-04-17T14:05:09.171Z</time></trkpt><trkpt lat="46.0163774" lon="13.3096764"><ele>72.0</ele><time>2026-04-17T14:05:10.171Z</time></trkpt><trkpt lat="46.0164473" lon="13.3096524"><ele>72.0</ele><time>2026-04-17T14:05:11.17Z</time></trkpt><trkpt lat="46.0165234" lon="13.3096514"><ele>72.2</ele><time>2026-04-17T14:05:12.171Z</time></trkpt><trkpt lat="46.0165915" lon="13.3096428"><ele>72.4</ele><time>2026-04-17T14:05:13.17Z</time></trkpt><trkpt lat="46.0166855" lon="13.3095184"><ele>72.6</ele><time>2026-04-17T14:05:15.171Z</time></trkpt><trkpt lat="46.0167207" lon="13.3094029"><ele>72.8</ele><time>2026-04-17T14:05:16.171Z</time></trkpt><trkpt lat="46.0167517" lon="13.3092624"><ele>73.0</ele><time>2026-04-17T14:05:17.171Z</time></trkpt><trkpt lat="46.0167833" lon="13.3091273"><ele>73.16666666666666</ele><time>2026-04-17T14:05:18.171Z</time></trkpt><trkpt lat="46.0168089" lon="13.3090121"><ele>73.33333333333333</ele><time>2026-04-17T14:05:19.171Z</time></trkpt><trkpt lat="46.0168171" lon="13.3089029"><ele>73.5</ele><time>2026-04-17T14:05:20.171Z</time></trkpt><trkpt lat="46.0168075" lon="13.3088101"><ele>73.66666666666667</ele><time>2026-04-17T14:05:21.171Z</time></trkpt><trkpt lat="46.0167318" lon="13.3087023"><ele>73.83333333333334</ele><time>2026-04-17T14:05:23.171Z</time></trkpt><trkpt lat="46.0166643" lon="13.3086888"><ele>74.0</ele><time>2026-04-17T14:05:24.171Z</time></trkpt><trkpt lat="46.016579" lon="13.3086966"><ele>74.0</ele><time>2026-04-17T14:05:25.171Z</time></trkpt><trkpt lat="46.0164814" lon="13.3087059"><ele>74.0</ele><time>2026-04-17T14:05:26.171Z</time></trkpt><trkpt lat="46.0163788" lon="13.3087068"><ele>74.0</ele><time>2026-04-17T14:05:27.17Z</time></trkpt><trkpt lat="46.0162698" lon="13.3086934"><ele>74.0</ele><time>2026-04-17T14:05:28.171Z</time></trkpt><trkpt lat="46.0160538" lon="13.3086697"><ele>74.0</ele><time>2026-04-17T14:05:30.17Z</time></trkpt><trkpt lat="46.0159655" lon="13.3086505"><ele>74.0</ele><time>2026-04-17T14:05:31.171Z</time></trkpt><trkpt lat="46.0158859" lon="13.3086414"><ele>74.0</ele><time>2026-04-17T14:05:32.171Z</time></trkpt><trkpt lat="46.0158099" lon="13.3086376"><ele>74.0</ele><time>2026-04-17T14:05:33.17Z</time></trkpt><trkpt lat="46.0157198" lon="13.308633"><ele>74.0</ele><time>2026-04-17T14:05:34.17Z</time></trkpt><trkpt lat="46.0156058" lon="13.3086186"><ele>73.0</ele><time>2026-04-17T14:05:35.171Z</time></trkpt><trkpt lat="46.0154798" lon="13.308609"><ele>72.0</ele><time>2026-04-17T14:05:36.171Z</time></trkpt><trkpt lat="46.0153537" lon="13.3085957"><ele>71.0</ele><time>2026-04-17T14:05:37.17Z</time></trkpt><trkpt lat="46.0152234" lon="13.3085851"><ele>70.0</ele><time>2026-04-17T14:05:38.171Z</time></trkpt><trkpt lat="46.0150895" lon="13.3085797"><ele>70.66666666666666</ele><time>2026-04-17T14:05:39.17Z</time></trkpt><trkpt lat="46.014946" lon="13.3085622"><ele>71.33333333333333</ele><time>2026-04-17T14:05:40.171Z</time></trkpt><trkpt lat="46.0147934" lon="13.3085447"><ele>72.0</ele><time>2026-04-17T14:05:41.17Z</time></trkpt><trkpt lat="46.014634" lon="13.3085305"><ele>72.0</ele><time>2026-04-17T14:05:42.171Z</time></trkpt><trkpt lat="46.0144744" lon="13.3085108"><ele>72.0</ele><time>2026-04-17T14:05:43.171Z</time></trkpt><trkpt lat="46.0143147" lon="13.3084888"><ele>72.0</ele><time>2026-04-17T14:05:44.171Z</time></trkpt><trkpt lat="46.0141449" lon="13.3084537"><ele>72.0</ele><time>2026-04-17T14:05:45.171Z</time></trkpt><trkpt lat="46.0139755" lon="13.3084221"><ele>72.0</ele><time>2026-04-17T14:05:46.171Z</time></trkpt><trkpt lat="46.0138007" lon="13.3083986"><ele>72.0</ele><time>2026-04-17T14:05:47.171Z</time></trkpt><trkpt lat="46.0136258" lon="13.308376"><ele>72.0</ele><time>2026-04-17T14:05:48.17Z</time></trkpt><trkpt lat="46.0134473" lon="13.3083506"><ele>72.0</ele><time>2026-04-17T14:05:49.171Z</time></trkpt><trkpt lat="46.0130901" lon="13.3083085"><ele>71.66666666666667</ele><time>2026-04-17T14:05:51.17Z</time></trkpt><trkpt lat="46.0129071" lon="13.3082928"><ele>71.33333333333334</ele><time>2026-04-17T14:05:52.17Z</time></trkpt><trkpt lat="46.0127204" lon="13.3082798"><ele>71.0</ele><time>2026-04-17T14:05:53.171Z</time></trkpt><trkpt lat="46.0125366" lon="13.3082729"><ele>71.0</ele><time>2026-04-17T14:05:54.171Z</time></trkpt><trkpt lat="46.0123516" lon="13.3082655"><ele>71.0</ele><time>2026-04-17T14:05:55.17Z</time></trkpt><trkpt lat="46.0121639" lon="13.3082672"><ele>71.0</ele><time>2026-04-17T14:05:56.17Z</time></trkpt><trkpt lat="46.0119813" lon="13.3082773"><ele>71.0</ele><time>2026-04-17T14:05:57.171Z</time></trkpt><trkpt lat="46.01181" lon="13.3082972"><ele>71.0</ele><time>2026-04-17T14:05:58.171Z</time></trkpt><trkpt lat="46.0116364" lon="13.3083185"><ele>71.0</ele><time>2026-04-17T14:05:59.17Z</time></trkpt><trkpt lat="46.0114601" lon="13.308352"><ele>71.0</ele><time>2026-04-17T14:06:00.171Z</time></trkpt><trkpt lat="46.0112849" lon="13.3083847"><ele>71.0</ele><time>2026-04-17T14:06:01.171Z</time></trkpt><trkpt lat="46.0111066" lon="13.3084201"><ele>71.0</ele><time>2026-04-17T14:06:02.171Z</time></trkpt><trkpt lat="46.0109206" lon="13.3084581"><ele>71.0</ele><time>2026-04-17T14:06:03.171Z</time></trkpt><trkpt lat="46.0107354" lon="13.3085042"><ele>71.0</ele><time>2026-04-17T14:06:04.171Z</time></trkpt><trkpt lat="46.0105517" lon="13.3085565"><ele>71.0</ele><time>2026-04-17T14:06:05.17Z</time></trkpt><trkpt lat="46.010368" lon="13.3086162"><ele>71.0</ele><time>2026-04-17T14:06:06.171Z</time></trkpt><trkpt lat="46.010179" lon="13.3086727"><ele>71.0</ele><time>2026-04-17T14:06:07.171Z</time></trkpt><trkpt lat="46.0099907" lon="13.3087363"><ele>71.0</ele><time>2026-04-17T14:06:08.171Z</time></trkpt><trkpt lat="46.0098034" lon="13.3088062"><ele>71.0</ele><time>2026-04-17T14:06:09.171Z</time></trkpt><trkpt lat="46.0096253" lon="13.3088847"><ele>71.0</ele><time>2026-04-17T14:06:10.171Z</time></trkpt><trkpt lat="46.0093041" lon="13.309021"><ele>71.0</ele><time>2026-04-17T14:06:12.171Z</time></trkpt><trkpt lat="46.0091724" lon="13.3090766"><ele>71.0</ele><time>2026-04-17T14:06:13.171Z</time></trkpt><trkpt lat="46.0090513" lon="13.3090965"><ele>71.0</ele><time>2026-04-17T14:06:14.171Z</time></trkpt><trkpt lat="46.0089354" lon="13.3090841"><ele>71.0</ele><time>2026-04-17T14:06:15.171Z</time></trkpt><trkpt lat="46.008829" lon="13.3090834"><ele>71.0</ele><time>2026-04-17T14:06:16.171Z</time></trkpt><trkpt lat="46.0087242" lon="13.3091107"><ele>71.0</ele><time>2026-04-17T14:06:17.17Z</time></trkpt><trkpt lat="46.0085983" lon="13.3091603"><ele>71.0</ele><time>2026-04-17T14:06:18.171Z</time></trkpt><trkpt lat="46.0084736" lon="13.3092452"><ele>71.0</ele><time>2026-04-17T14:06:19.171Z</time></trkpt><trkpt lat="46.008346" lon="13.3093398"><ele>71.0</ele><time>2026-04-17T14:06:20.171Z</time></trkpt><trkpt lat="46.0081947" lon="13.3094356"><ele>71.0</ele><time>2026-04-17T14:06:21.17Z</time></trkpt><trkpt lat="46.0080343" lon="13.3095208"><ele>71.0</ele><time>2026-04-17T14:06:22.171Z</time></trkpt><trkpt lat="46.007865" lon="13.3095741"><ele>71.0</ele><time>2026-04-17T14:06:23.171Z</time></trkpt><trkpt lat="46.0076844" lon="13.3096092"><ele>71.0</ele><time>2026-04-17T14:06:24.171Z</time></trkpt><trkpt lat="46.007487" lon="13.3096297"><ele>71.0</ele><time>2026-04-17T14:06:25.17Z</time></trkpt><trkpt lat="46.0072878" lon="13.3096477"><ele>71.0</ele><time>2026-04-17T14:06:26.171Z</time></trkpt><trkpt lat="46.0071088" lon="13.309666"><ele>71.0</ele><time>2026-04-17T14:06:27.171Z</time></trkpt><trkpt lat="46.0069567" lon="13.3096693"><ele>71.0</ele><time>2026-04-17T14:06:28.171Z</time></trkpt><trkpt lat="46.0068082" lon="13.3096739"><ele>71.0</ele><time>2026-04-17T14:06:29.171Z</time></trkpt><trkpt lat="46.0066667" lon="13.3096865"><ele>71.0</ele><time>2026-04-17T14:06:30.171Z</time></trkpt><trkpt lat="46.0065335" lon="13.3097097"><ele>71.0</ele><time>2026-04-17T14:06:31.17Z</time></trkpt><trkpt lat="46.0062864" lon="13.3097733"><ele>70.5</ele><time>2026-04-17T14:06:33.171Z</time></trkpt><trkpt lat="46.0061572" lon="13.3098165"><ele>70.0</ele><time>2026-04-17T14:06:34.171Z</time></trkpt><trkpt lat="46.0060253" lon="13.3098642"><ele>69.5</ele><time>2026-04-17T14:06:35.17Z</time></trkpt><trkpt lat="46.0058832" lon="13.3099126"><ele>69.0</ele><time>2026-04-17T14:06:36.171Z</time></trkpt><trkpt lat="46.0057364" lon="13.3099556"><ele>69.0</ele><time>2026-04-17T14:06:37.171Z</time></trkpt><trkpt lat="46.0055843" lon="13.3099959"><ele>69.0</ele><time>2026-04-17T14:06:38.171Z</time></trkpt><trkpt lat="46.0054274" lon="13.3100412"><ele>69.0</ele><time>2026-04-17T14:06:39.171Z</time></trkpt><trkpt lat="46.00527" lon="13.3100871"><ele>69.0</ele><time>2026-04-17T14:06:40.171Z</time></trkpt><trkpt lat="46.0051101" lon="13.3101434"><ele>69.0</ele><time>2026-04-17T14:06:41.17Z</time></trkpt><trkpt lat="46.0049484" lon="13.3101939"><ele>69.0</ele><time>2026-04-17T14:06:42.17Z</time></trkpt><trkpt lat="46.0047833" lon="13.31024"><ele>68.33333333333333</ele><time>2026-04-17T14:06:43.171Z</time></trkpt><trkpt lat="46.0046195" lon="13.3102922"><ele>67.66666666666666</ele><time>2026-04-17T14:06:44.171Z</time></trkpt><trkpt lat="46.0044503" lon="13.3103448"><ele>67.0</ele><time>2026-04-17T14:06:45.171Z</time></trkpt><trkpt lat="46.0042835" lon="13.3104028"><ele>67.0</ele><time>2026-04-17T14:06:46.17Z</time></trkpt><trkpt lat="46.0041169" lon="13.3104589"><ele>67.0</ele><time>2026-04-17T14:06:47.171Z</time></trkpt><trkpt lat="46.0039507" lon="13.3105139"><ele>67.0</ele><time>2026-04-17T14:06:48.171Z</time></trkpt><trkpt lat="46.0037868" lon="13.3105732"><ele>67.0</ele><time>2026-04-17T14:06:49.17Z</time></trkpt><trkpt lat="46.0036237" lon="13.3106358"><ele>67.0</ele><time>2026-04-17T14:06:50.17Z</time></trkpt><trkpt lat="46.0034663" lon="13.3106946"><ele>67.0</ele><time>2026-04-17T14:06:51.171Z</time></trkpt><trkpt lat="46.0033189" lon="13.3107618"><ele>67.33333333333333</ele><time>2026-04-17T14:06:52.171Z</time></trkpt><trkpt lat="46.0030528" lon="13.3108597"><ele>67.66666666666667</ele><time>2026-04-17T14:06:54.171Z</time></trkpt><trkpt lat="46.0029267" lon="13.3108846"><ele>68.0</ele><time>2026-04-17T14:06:55.171Z</time></trkpt><trkpt lat="46.0027913" lon="13.3108823"><ele>68.0</ele><time>2026-04-17T14:06:56.171Z</time></trkpt><trkpt lat="46.00267" lon="13.3108676"><ele>68.0</ele><time>2026-04-17T14:06:57.171Z</time></trkpt><trkpt lat="46.0025595" lon="13.3108245"><ele>68.0</ele><time>2026-04-17T14:06:58.17Z</time></trkpt><trkpt lat="46.0024615" lon="13.3107439"><ele>68.0</ele><time>2026-04-17T14:06:59.171Z</time></trkpt><trkpt lat="46.0023837" lon="13.3106176"><ele>68.0</ele><time>2026-04-17T14:07:00.17Z</time></trkpt><trkpt lat="46.0022982" lon="13.3104667"><ele>68.0</ele><time>2026-04-17T14:07:01.171Z</time></trkpt><trkpt lat="46.0022061" lon="13.3103249"><ele>68.0</ele><time>2026-04-17T14:07:02.17Z</time></trkpt><trkpt lat="46.0021029" lon="13.310206"><ele>68.0</ele><time>2026-04-17T14:07:03.17Z</time></trkpt><trkpt lat="46.0019812" lon="13.3100934"><ele>68.0</ele><time>2026-04-17T14:07:04.171Z</time></trkpt><trkpt lat="46.0018501" lon="13.3100107"><ele>68.0</ele><time>2026-04-17T14:07:05.17Z</time></trkpt><trkpt lat="46.0017053" lon="13.3099609"><ele>68.0</ele><time>2026-04-17T14:07:06.17Z</time></trkpt><trkpt lat="46.0015449" lon="13.309937"><ele>68.0</ele><time>2026-04-17T14:07:07.171Z</time></trkpt><trkpt lat="46.0013806" lon="13.3099083"><ele>68.0</ele><time>2026-04-17T14:07:08.17Z</time></trkpt><trkpt lat="46.0012152" lon="13.3098742"><ele>68.0</ele><time>2026-04-17T14:07:09.171Z</time></trkpt><trkpt lat="46.0010516" lon="13.3098017"><ele>67.66666666666667</ele><time>2026-04-17T14:07:10.171Z</time></trkpt><trkpt lat="46.0008927" lon="13.3096893"><ele>67.33333333333333</ele><time>2026-04-17T14:07:11.171Z</time></trkpt><trkpt lat="46.0007315" lon="13.3095715"><ele>67.0</ele><time>2026-04-17T14:07:12.171Z</time></trkpt><trkpt lat="46.0005679" lon="13.3094628"><ele>67.0</ele><time>2026-04-17T14:07:13.171Z</time></trkpt><trkpt lat="46.0002947" lon="13.3092691"><ele>67.0</ele><time>2026-04-17T14:07:15.171Z</time></trkpt><trkpt lat="46.0001817" lon="13.3091954"><ele>67.0</ele><time>2026-04-17T14:07:16.17Z</time></trkpt><trkpt lat="46.0000779" lon="13.3091442"><ele>67.0</ele><time>2026-04-17T14:07:17.171Z</time></trkpt><trkpt lat="45.9999814" lon="13.3091293"><ele>67.0</ele><time>2026-04-17T14:07:18.171Z</time></trkpt><trkpt lat="45.9998815" lon="13.3091503"><ele>67.0</ele><time>2026-04-17T14:07:19.171Z</time></trkpt><trkpt lat="45.9997706" lon="13.3091908"><ele>67.0</ele><time>2026-04-17T14:07:20.171Z</time></trkpt><trkpt lat="45.9996581" lon="13.3092261"><ele>67.0</ele><time>2026-04-17T14:07:21.17Z</time></trkpt><trkpt lat="45.9995385" lon="13.3092651"><ele>67.0</ele><time>2026-04-17T14:07:22.17Z</time></trkpt><trkpt lat="45.9994264" lon="13.3093009"><ele>67.0</ele><time>2026-04-17T14:07:23.171Z</time></trkpt><trkpt lat="45.9993226" lon="13.309312"><ele>67.0</ele><time>2026-04-17T14:07:24.17Z</time></trkpt><trkpt lat="45.999229" lon="13.3093119"><ele>67.0</ele><time>2026-04-17T14:07:25.169Z</time></trkpt><trkpt lat="45.9991538" lon="13.309304"><ele>67.0</ele><time>2026-04-17T14:07:26.17Z</time></trkpt><trkpt lat="45.99907" lon="13.3093069"><ele>67.0</ele><time>2026-04-17T14:07:28.17Z</time></trkpt><trkpt lat="45.9990753" lon="13.3094163"><ele>67.0</ele><time>2026-04-17T14:07:31.17Z</time></trkpt><trkpt lat="45.9991598" lon="13.309559"><ele>67.0</ele><time>2026-04-17T14:07:33.17Z</time></trkpt><trkpt lat="45.999228" lon="13.309673"><ele>67.0</ele><time>2026-04-17T14:07:34.17Z</time></trkpt><trkpt lat="45.9993775" lon="13.3099911"><ele>66.75</ele><time>2026-04-17T14:07:36.17Z</time></trkpt><trkpt lat="45.9994584" lon="13.310167"><ele>66.5</ele><time>2026-04-17T14:07:37.17Z</time></trkpt><trkpt lat="45.9995331" lon="13.3103142"><ele>66.25</ele><time>2026-04-17T14:07:38.17Z</time></trkpt><trkpt lat="45.9995994" lon="13.3104439"><ele>66.0</ele><time>2026-04-17T14:07:39.17Z</time></trkpt><trkpt lat="45.9996606" lon="13.3105598"><ele>66.6</ele><time>2026-04-17T14:07:40.17Z</time></trkpt><trkpt lat="45.9997189" lon="13.3106719"><ele>67.19999999999999</ele><time>2026-04-17T14:07:41.17Z</time></trkpt><trkpt lat="45.9997753" lon="13.3107915"><ele>67.80000000000001</ele><time>2026-04-17T14:07:42.17Z</time></trkpt><trkpt lat="45.999829" lon="13.310917"><ele>68.4</ele><time>2026-04-17T14:07:43.17Z</time></trkpt><trkpt lat="45.9998835" lon="13.3110344"><ele>69.0</ele><time>2026-04-17T14:07:44.169Z</time></trkpt><trkpt lat="45.9999355" lon="13.3111315"><ele>69.0</ele><time>2026-04-17T14:07:45.17Z</time></trkpt><trkpt lat="45.9999769" lon="13.3111999"><ele>69.0</ele><time>2026-04-17T14:07:46.169Z</time></trkpt><trkpt lat="46.0000093" lon="13.3112982"><ele>69.0</ele><time>2026-04-17T14:07:48.17Z</time></trkpt><trkpt lat="45.9999129" lon="13.3113398"><ele>69.0</ele><time>2026-04-17T14:07:51.17Z</time></trkpt><trkpt lat="45.999837" lon="13.3113195"><ele>69.0</ele><time>2026-04-17T14:07:52.17Z</time></trkpt><trkpt lat="45.9997354" lon="13.3112958"><ele>69.0</ele><time>2026-04-17T14:07:53.17Z</time></trkpt><trkpt lat="45.9996123" lon="13.3112748"><ele>69.0</ele><time>2026-04-17T14:07:54.169Z</time></trkpt><trkpt lat="45.9994625" lon="13.3112558"><ele>69.0</ele><time>2026-04-17T14:07:55.17Z</time></trkpt><trkpt lat="45.9991145" lon="13.3112047"><ele>69.0</ele><time>2026-04-17T14:07:57.169Z</time></trkpt><trkpt lat="45.9989377" lon="13.3111581"><ele>69.0</ele><time>2026-04-17T14:07:58.169Z</time></trkpt><trkpt lat="45.9987836" lon="13.3111313"><ele>69.0</ele><time>2026-04-17T14:07:59.169Z</time></trkpt><trkpt lat="45.9986393" lon="13.311089"><ele>69.0</ele><time>2026-04-17T14:08:00.17Z</time></trkpt><trkpt lat="45.9984933" lon="13.3110585"><ele>69.0</ele><time>2026-04-17T14:08:01.17Z</time></trkpt><trkpt lat="45.9983533" lon="13.3110272"><ele>69.0</ele><time>2026-04-17T14:08:02.17Z</time></trkpt><trkpt lat="45.9982261" lon="13.3110044"><ele>69.0</ele><time>2026-04-17T14:08:03.169Z</time></trkpt><trkpt lat="45.9981198" lon="13.3109965"><ele>69.0</ele><time>2026-04-17T14:08:04.169Z</time></trkpt><trkpt lat="45.9980302" lon="13.3109877"><ele>69.0</ele><time>2026-04-17T14:08:05.169Z</time></trkpt><trkpt lat="45.9979512" lon="13.3109987"><ele>69.0</ele><time>2026-04-17T14:08:06.17Z</time></trkpt><trkpt lat="45.9978763" lon="13.3110291"><ele>69.0</ele><time>2026-04-17T14:08:07.17Z</time></trkpt><trkpt lat="45.9978077" lon="13.311057"><ele>69.0</ele><time>2026-04-17T14:08:08.17Z</time></trkpt><trkpt lat="45.9976995" lon="13.3110504"><ele>69.0</ele><time>2026-04-17T14:08:10.17Z</time></trkpt><trkpt lat="45.9976129" lon="13.3109656"><ele>69.0</ele><time>2026-04-17T14:08:12.169Z</time></trkpt><trkpt lat="45.9975369" lon="13.310935"><ele>69.0</ele><time>2026-04-17T14:08:13.17Z</time></trkpt><trkpt lat="45.9974401" lon="13.3109368"><ele>69.0</ele><time>2026-04-17T14:08:14.17Z</time></trkpt><trkpt lat="45.9973196" lon="13.3109467"><ele>69.0</ele><time>2026-04-17T14:08:15.17Z</time></trkpt><trkpt lat="45.9971825" lon="13.3109495"><ele>69.0</ele><time>2026-04-17T14:08:16.17Z</time></trkpt><trkpt lat="45.996896" lon="13.3109912"><ele>68.75</ele><time>2026-04-17T14:08:18.169Z</time></trkpt><trkpt lat="45.9967536" lon="13.3110315"><ele>68.5</ele><time>2026-04-17T14:08:19.17Z</time></trkpt><trkpt lat="45.9966053" lon="13.3110893"><ele>68.25</ele><time>2026-04-17T14:08:20.17Z</time></trkpt><trkpt lat="45.9964589" lon="13.3111324"><ele>68.0</ele><time>2026-04-17T14:08:21.17Z</time></trkpt><trkpt lat="45.9963084" lon="13.3111749"><ele>67.33333333333334</ele><time>2026-04-17T14:08:22.17Z</time></trkpt><trkpt lat="45.9961478" lon="13.3112183"><ele>66.66666666666667</ele><time>2026-04-17T14:08:23.17Z</time></trkpt><trkpt lat="45.9959868" lon="13.3112619"><ele>66.0</ele><time>2026-04-17T14:08:24.17Z</time></trkpt><trkpt lat="45.9958425" lon="13.3113082"><ele>65.75</ele><time>2026-04-17T14:08:25.169Z</time></trkpt><trkpt lat="45.9957072" lon="13.3113469"><ele>65.5</ele><time>2026-04-17T14:08:26.17Z</time></trkpt><trkpt lat="45.9955788" lon="13.3113813"><ele>65.25</ele><time>2026-04-17T14:08:27.169Z</time></trkpt><trkpt lat="45.995458" lon="13.3114184"><ele>65.0</ele><time>2026-04-17T14:08:28.17Z</time></trkpt><trkpt lat="45.9953428" lon="13.3114587"><ele>65.5</ele><time>2026-04-17T14:08:29.17Z</time></trkpt><trkpt lat="45.995221" lon="13.3114926"><ele>66.0</ele><time>2026-04-17T14:08:30.169Z</time></trkpt><trkpt lat="45.9950997" lon="13.3115324"><ele>66.5</ele><time>2026-04-17T14:08:31.17Z</time></trkpt><trkpt lat="45.9949718" lon="13.3115627"><ele>67.0</ele><time>2026-04-17T14:08:32.17Z</time></trkpt><trkpt lat="45.994836" lon="13.3115853"><ele>67.0</ele><time>2026-04-17T14:08:33.17Z</time></trkpt><trkpt lat="45.9947136" lon="13.3116296"><ele>67.0</ele><time>2026-04-17T14:08:34.17Z</time></trkpt><trkpt lat="45.9945833" lon="13.3116699"><ele>67.0</ele><time>2026-04-17T14:08:35.169Z</time></trkpt><trkpt lat="45.9944505" lon="13.3117072"><ele>67.0</ele><time>2026-04-17T14:08:36.17Z</time></trkpt><trkpt lat="45.9943181" lon="13.3117393"><ele>66.25</ele><time>2026-04-17T14:08:37.17Z</time></trkpt><trkpt lat="45.9940852" lon="13.3117937"><ele>65.5</ele><time>2026-04-17T14:08:39.17Z</time></trkpt><trkpt lat="45.9939866" lon="13.3118221"><ele>64.75</ele><time>2026-04-17T14:08:40.17Z</time></trkpt><trkpt lat="45.9938984" lon="13.3118433"><ele>64.0</ele><time>2026-04-17T14:08:41.17Z</time></trkpt><trkpt lat="45.9938114" lon="13.3118739"><ele>63.99999999999999</ele><time>2026-04-17T14:08:42.169Z</time></trkpt><trkpt lat="45.9937308" lon="13.3119183"><ele>64.0</ele><time>2026-04-17T14:08:43.169Z</time></trkpt><trkpt lat="45.9936471" lon="13.3119534"><ele>64.0</ele><time>2026-04-17T14:08:44.17Z</time></trkpt><trkpt lat="45.9935728" lon="13.3119697"><ele>64.0</ele><time>2026-04-17T14:08:45.169Z</time></trkpt><trkpt lat="45.9935042" lon="13.3119782"><ele>63.99999999999999</ele><time>2026-04-17T14:08:46.17Z</time></trkpt><trkpt lat="45.9934411" lon="13.3120012"><ele>64.0</ele><time>2026-04-17T14:08:47.169Z</time></trkpt><trkpt lat="45.9933731" lon="13.3120539"><ele>63.83333333333333</ele><time>2026-04-17T14:08:48.17Z</time></trkpt><trkpt lat="45.9933" lon="13.3121205"><ele>63.666666666666664</ele><time>2026-04-17T14:08:49.17Z</time></trkpt><trkpt lat="45.9932219" lon="13.3121919"><ele>63.5</ele><time>2026-04-17T14:08:50.17Z</time></trkpt><trkpt lat="45.9931533" lon="13.3122587"><ele>63.33333333333333</ele><time>2026-04-17T14:08:51.17Z</time></trkpt><trkpt lat="45.9930991" lon="13.3123264"><ele>63.166666666666664</ele><time>2026-04-17T14:08:52.17Z</time></trkpt><trkpt lat="45.9930408" lon="13.3124009"><ele>63.0</ele><time>2026-04-17T14:08:53.169Z</time></trkpt><trkpt lat="45.9929664" lon="13.3124808"><ele>63.0</ele><time>2026-04-17T14:08:54.17Z</time></trkpt><trkpt lat="45.9928769" lon="13.312555"><ele>63.0</ele><time>2026-04-17T14:08:55.169Z</time></trkpt><trkpt lat="45.9927766" lon="13.312633"><ele>63.0</ele><time>2026-04-17T14:08:56.17Z</time></trkpt><trkpt lat="45.9926744" lon="13.3127203"><ele>63.0</ele><time>2026-04-17T14:08:57.17Z</time></trkpt><trkpt lat="45.9925817" lon="13.3127944"><ele>63.0</ele><time>2026-04-17T14:08:58.17Z</time></trkpt><trkpt lat="45.9924147" lon="13.3129389"><ele>63.0</ele><time>2026-04-17T14:09:00.169Z</time></trkpt><trkpt lat="45.9923365" lon="13.3130044"><ele>63.0</ele><time>2026-04-17T14:09:01.169Z</time></trkpt><trkpt lat="45.9922574" lon="13.313075"><ele>63.0</ele><time>2026-04-17T14:09:02.17Z</time></trkpt><trkpt lat="45.9921846" lon="13.3131357"><ele>63.0</ele><time>2026-04-17T14:09:03.169Z</time></trkpt><trkpt lat="45.9921182" lon="13.3131966"><ele>63.0</ele><time>2026-04-17T14:09:04.169Z</time></trkpt><trkpt lat="45.9920649" lon="13.3132505"><ele>63.0</ele><time>2026-04-17T14:09:05.169Z</time></trkpt><trkpt lat="45.9919724" lon="13.3133308"><ele>63.2</ele><time>2026-04-17T14:09:07.169Z</time></trkpt><trkpt lat="45.9918964" lon="13.3134036"><ele>63.4</ele><time>2026-04-17T14:09:09.17Z</time></trkpt><trkpt lat="45.9918327" lon="13.313456"><ele>63.60000000000001</ele><time>2026-04-17T14:09:11.17Z</time></trkpt><trkpt lat="45.9917706" lon="13.3135023"><ele>63.800000000000004</ele><time>2026-04-17T14:09:14.169Z</time></trkpt><trkpt lat="45.9916786" lon="13.3135968"><ele>64.0</ele><time>2026-04-17T14:10:02.169Z</time></trkpt><trkpt lat="45.9915257" lon="13.313729"><ele>64.0</ele><time>2026-04-17T14:10:04.17Z</time></trkpt><trkpt lat="45.9914287" lon="13.3138082"><ele>64.0</ele><time>2026-04-17T14:10:05.17Z</time></trkpt><trkpt lat="45.9913229" lon="13.3139011"><ele>64.0</ele><time>2026-04-17T14:10:06.17Z</time></trkpt><trkpt lat="45.9912101" lon="13.31399"><ele>64.0</ele><time>2026-04-17T14:10:07.169Z</time></trkpt><trkpt lat="45.9911002" lon="13.3140897"><ele>64.0</ele><time>2026-04-17T14:10:08.169Z</time></trkpt><trkpt lat="45.9909952" lon="13.31418"><ele>64.0</ele><time>2026-04-17T14:10:09.17Z</time></trkpt><trkpt lat="45.9908879" lon="13.3142639"><ele>64.0</ele><time>2026-04-17T14:10:10.17Z</time></trkpt><trkpt lat="45.99078" lon="13.3143511"><ele>64.0</ele><time>2026-04-17T14:10:11.17Z</time></trkpt><trkpt lat="45.9906674" lon="13.3144429"><ele>64.0</ele><time>2026-04-17T14:10:12.17Z</time></trkpt><trkpt lat="45.990558" lon="13.3145342"><ele>64.0</ele><time>2026-04-17T14:10:13.17Z</time></trkpt><trkpt lat="45.9904621" lon="13.3146261"><ele>64.0</ele><time>2026-04-17T14:10:14.17Z</time></trkpt><trkpt lat="45.9903775" lon="13.31471"><ele>64.0</ele><time>2026-04-17T14:10:15.169Z</time></trkpt><trkpt lat="45.9903053" lon="13.3147925"><ele>64.0</ele><time>2026-04-17T14:10:16.169Z</time></trkpt><trkpt lat="45.990232" lon="13.3148813"><ele>64.0</ele><time>2026-04-17T14:10:17.169Z</time></trkpt><trkpt lat="45.9901479" lon="13.3149734"><ele>64.0</ele><time>2026-04-17T14:10:18.17Z</time></trkpt><trkpt lat="45.9900514" lon="13.3150444"><ele>64.0</ele><time>2026-04-17T14:10:19.17Z</time></trkpt><trkpt lat="45.9899374" lon="13.3151165"><ele>64.0</ele><time>2026-04-17T14:10:20.17Z</time></trkpt><trkpt lat="45.989816" lon="13.3152042"><ele>64.0</ele><time>2026-04-17T14:10:21.17Z</time></trkpt><trkpt lat="45.989691" lon="13.3153021"><ele>64.0</ele><time>2026-04-17T14:10:22.17Z</time></trkpt><trkpt lat="45.9895561" lon="13.3154141"><ele>64.0</ele><time>2026-04-17T14:10:23.169Z</time></trkpt><trkpt lat="45.9892806" lon="13.3156503"><ele>63.666666666666664</ele><time>2026-04-17T14:10:25.169Z</time></trkpt><trkpt lat="45.9891375" lon="13.315768"><ele>63.33333333333333</ele><time>2026-04-17T14:10:26.17Z</time></trkpt><trkpt lat="45.9889905" lon="13.3158974"><ele>63.0</ele><time>2026-04-17T14:10:27.17Z</time></trkpt><trkpt lat="45.9888465" lon="13.3160261"><ele>63.0</ele><time>2026-04-17T14:10:28.17Z</time></trkpt><trkpt lat="45.9886999" lon="13.3161583"><ele>63.0</ele><time>2026-04-17T14:10:29.17Z</time></trkpt><trkpt lat="45.9885477" lon="13.3162886"><ele>63.0</ele><time>2026-04-17T14:10:30.17Z</time></trkpt><trkpt lat="45.9883969" lon="13.3164197"><ele>62.66666666666667</ele><time>2026-04-17T14:10:31.17Z</time></trkpt><trkpt lat="45.9882424" lon="13.3165542"><ele>62.333333333333336</ele><time>2026-04-17T14:10:32.169Z</time></trkpt><trkpt lat="45.9880888" lon="13.3166801"><ele>62.0</ele><time>2026-04-17T14:10:33.169Z</time></trkpt><trkpt lat="45.987938" lon="13.3168097"><ele>62.0</ele><time>2026-04-17T14:10:34.17Z</time></trkpt><trkpt lat="45.987787" lon="13.3169406"><ele>62.0</ele><time>2026-04-17T14:10:35.17Z</time></trkpt><trkpt lat="45.9876328" lon="13.3170833"><ele>62.0</ele><time>2026-04-17T14:10:36.17Z</time></trkpt><trkpt lat="45.9874774" lon="13.3172129"><ele>62.0</ele><time>2026-04-17T14:10:37.17Z</time></trkpt><trkpt lat="45.9873253" lon="13.3173399"><ele>62.0</ele><time>2026-04-17T14:10:38.17Z</time></trkpt><trkpt lat="45.9871717" lon="13.317469"><ele>62.0</ele><time>2026-04-17T14:10:39.169Z</time></trkpt><trkpt lat="45.9870169" lon="13.3176018"><ele>62.0</ele><time>2026-04-17T14:10:40.169Z</time></trkpt><trkpt lat="45.9868622" lon="13.3177362"><ele>62.0</ele><time>2026-04-17T14:10:41.169Z</time></trkpt><trkpt lat="45.9867117" lon="13.3178694"><ele>62.0</ele><time>2026-04-17T14:10:42.17Z</time></trkpt><trkpt lat="45.9865606" lon="13.3180018"><ele>62.0</ele><time>2026-04-17T14:10:43.17Z</time></trkpt><trkpt lat="45.9864087" lon="13.318133"><ele>62.0</ele><time>2026-04-17T14:10:44.17Z</time></trkpt><trkpt lat="45.9861202" lon="13.31839"><ele>62.0</ele><time>2026-04-17T14:10:46.17Z</time></trkpt><trkpt lat="45.9859704" lon="13.3185155"><ele>62.0</ele><time>2026-04-17T14:10:47.169Z</time></trkpt><trkpt lat="45.9858222" lon="13.3186368"><ele>62.0</ele><time>2026-04-17T14:10:48.17Z</time></trkpt><trkpt lat="45.9856808" lon="13.3187563"><ele>62.333333333333336</ele><time>2026-04-17T14:10:49.169Z</time></trkpt><trkpt lat="45.9855352" lon="13.3188858"><ele>62.66666666666667</ele><time>2026-04-17T14:10:50.169Z</time></trkpt><trkpt lat="45.9853883" lon="13.3190083"><ele>63.0</ele><time>2026-04-17T14:10:51.17Z</time></trkpt><trkpt lat="45.9852393" lon="13.3191396"><ele>63.0</ele><time>2026-04-17T14:10:52.17Z</time></trkpt><trkpt lat="45.9850966" lon="13.3192627"><ele>63.0</ele><time>2026-04-17T14:10:53.169Z</time></trkpt><trkpt lat="45.9849673" lon="13.3193729"><ele>63.0</ele><time>2026-04-17T14:10:54.17Z</time></trkpt><trkpt lat="45.9848503" lon="13.3194696"><ele>63.0</ele><time>2026-04-17T14:10:55.169Z</time></trkpt><trkpt lat="45.9847349" lon="13.3195615"><ele>63.0</ele><time>2026-04-17T14:10:56.17Z</time></trkpt><trkpt lat="45.9846134" lon="13.319645"><ele>63.0</ele><time>2026-04-17T14:10:57.17Z</time></trkpt><trkpt lat="45.9844874" lon="13.319732"><ele>63.0</ele><time>2026-04-17T14:10:58.17Z</time></trkpt><trkpt lat="45.9843747" lon="13.3198343"><ele>63.25</ele><time>2026-04-17T14:10:59.17Z</time></trkpt><trkpt lat="45.9842755" lon="13.3199206"><ele>63.5</ele><time>2026-04-17T14:11:00.169Z</time></trkpt><trkpt lat="45.9841778" lon="13.3200191"><ele>63.75</ele><time>2026-04-17T14:11:01.169Z</time></trkpt><trkpt lat="45.9840809" lon="13.3201196"><ele>64.0</ele><time>2026-04-17T14:11:02.17Z</time></trkpt><trkpt lat="45.9839814" lon="13.3202265"><ele>63.5</ele><time>2026-04-17T14:11:03.17Z</time></trkpt><trkpt lat="45.9838924" lon="13.3203108"><ele>63.0</ele><time>2026-04-17T14:11:04.169Z</time></trkpt><trkpt lat="45.9838198" lon="13.3203944"><ele>62.5</ele><time>2026-04-17T14:11:05.169Z</time></trkpt><trkpt lat="45.9837078" lon="13.3205391"><ele>62.0</ele><time>2026-04-17T14:11:07.169Z</time></trkpt><trkpt lat="45.9836585" lon="13.3206774"><ele>62.0</ele><time>2026-04-17T14:11:09.169Z</time></trkpt><trkpt lat="45.9836578" lon="13.3208175"><ele>62.0</ele><time>2026-04-17T14:11:11.17Z</time></trkpt><trkpt lat="45.9836089" lon="13.320886"><ele>62.0</ele><time>2026-04-17T14:11:15.17Z</time></trkpt><trkpt lat="45.9835336" lon="13.3209438"><ele>62.0</ele><time>2026-04-17T14:11:23.17Z</time></trkpt><trkpt lat="45.9834224" lon="13.3210585"><ele>62.0</ele><time>2026-04-17T14:11:25.17Z</time></trkpt><trkpt lat="45.9833603" lon="13.3211202"><ele>61.8</ele><time>2026-04-17T14:11:26.169Z</time></trkpt><trkpt lat="45.9832426" lon="13.3212515"><ele>61.6</ele><time>2026-04-17T14:11:29.17Z</time></trkpt><trkpt lat="45.9831679" lon="13.3213317"><ele>61.39999999999999</ele><time>2026-04-17T14:11:32.17Z</time></trkpt><trkpt lat="45.9831003" lon="13.321418"><ele>61.199999999999996</ele><time>2026-04-17T14:11:34.17Z</time></trkpt><trkpt lat="45.983054" lon="13.3214899"><ele>61.0</ele><time>2026-04-17T14:11:35.17Z</time></trkpt><trkpt lat="45.9829945" lon="13.3215799"><ele>61.0</ele><time>2026-04-17T14:11:36.17Z</time></trkpt><trkpt lat="45.9829375" lon="13.3216682"><ele>60.99999999999999</ele><time>2026-04-17T14:11:37.169Z</time></trkpt><trkpt lat="45.9828723" lon="13.3217646"><ele>60.99999999999999</ele><time>2026-04-17T14:11:38.17Z</time></trkpt><trkpt lat="45.9828141" lon="13.3218456"><ele>61.0</ele><time>2026-04-17T14:11:39.17Z</time></trkpt><trkpt lat="45.9827462" lon="13.3219338"><ele>61.0</ele><time>2026-04-17T14:11:40.17Z</time></trkpt><trkpt lat="45.9826682" lon="13.3220325"><ele>61.0</ele><time>2026-04-17T14:11:41.17Z</time></trkpt><trkpt lat="45.9825802" lon="13.3221437"><ele>61.0</ele><time>2026-04-17T14:11:42.17Z</time></trkpt><trkpt lat="45.98249" lon="13.3222861"><ele>61.0</ele><time>2026-04-17T14:11:43.17Z</time></trkpt><trkpt lat="45.9823993" lon="13.3224254"><ele>61.0</ele><time>2026-04-17T14:11:44.17Z</time></trkpt><trkpt lat="45.9823118" lon="13.322553"><ele>60.75</ele><time>2026-04-17T14:11:45.169Z</time></trkpt><trkpt lat="45.9822301" lon="13.3226609"><ele>60.5</ele><time>2026-04-17T14:11:46.17Z</time></trkpt><trkpt lat="45.9821493" lon="13.3227625"><ele>60.25</ele><time>2026-04-17T14:11:47.169Z</time></trkpt><trkpt lat="45.9819877" lon="13.3229583"><ele>60.0</ele><time>2026-04-17T14:11:49.17Z</time></trkpt><trkpt lat="45.9819043" lon="13.3230932"><ele>59.75</ele><time>2026-04-17T14:11:50.169Z</time></trkpt><trkpt lat="45.9818122" lon="13.3232265"><ele>59.5</ele><time>2026-04-17T14:11:51.17Z</time></trkpt><trkpt lat="45.9817239" lon="13.3233554"><ele>59.25</ele><time>2026-04-17T14:11:52.17Z</time></trkpt><trkpt lat="45.9816354" lon="13.3234716"><ele>59.0</ele><time>2026-04-17T14:11:53.169Z</time></trkpt><trkpt lat="45.9815517" lon="13.3235778"><ele>59.0</ele><time>2026-04-17T14:11:54.169Z</time></trkpt><trkpt lat="45.9814701" lon="13.3236944"><ele>59.00000000000001</ele><time>2026-04-17T14:11:55.169Z</time></trkpt><trkpt lat="45.9813906" lon="13.3238018"><ele>59.00000000000001</ele><time>2026-04-17T14:11:56.17Z</time></trkpt><trkpt lat="45.9813046" lon="13.3239022"><ele>59.0</ele><time>2026-04-17T14:11:57.17Z</time></trkpt><trkpt lat="45.9812217" lon="13.3239998"><ele>59.0</ele><time>2026-04-17T14:11:58.169Z</time></trkpt><trkpt lat="45.9811505" lon="13.3240925"><ele>59.00000000000001</ele><time>2026-04-17T14:11:59.17Z</time></trkpt><trkpt lat="45.9811005" lon="13.3241866"><ele>59.0</ele><time>2026-04-17T14:12:00.169Z</time></trkpt><trkpt lat="45.98106" lon="13.324283"><ele>59.0</ele><time>2026-04-17T14:12:01.169Z</time></trkpt><trkpt lat="45.9810274" lon="13.324379"><ele>59.0</ele><time>2026-04-17T14:12:02.17Z</time></trkpt><trkpt lat="45.9809882" lon="13.3244701"><ele>59.00000000000001</ele><time>2026-04-17T14:12:03.169Z</time></trkpt><trkpt lat="45.9809272" lon="13.3245357"><ele>59.0</ele><time>2026-04-17T14:12:04.169Z</time></trkpt><trkpt lat="45.9808529" lon="13.3245985"><ele>58.75</ele><time>2026-04-17T14:12:05.17Z</time></trkpt><trkpt lat="45.9807589" lon="13.3246731"><ele>58.5</ele><time>2026-04-17T14:12:06.17Z</time></trkpt><trkpt lat="45.9806608" lon="13.3247716"><ele>58.25</ele><time>2026-04-17T14:12:07.17Z</time></trkpt><trkpt lat="45.9805684" lon="13.3248959"><ele>58.0</ele><time>2026-04-17T14:12:08.17Z</time></trkpt><trkpt lat="45.9803934" lon="13.3251417"><ele>58.5</ele><time>2026-04-17T14:12:10.17Z</time></trkpt><trkpt lat="45.9803133" lon="13.3252658"><ele>59.0</ele><time>2026-04-17T14:12:11.17Z</time></trkpt><trkpt lat="45.9802374" lon="13.3253873"><ele>59.5</ele><time>2026-04-17T14:12:12.169Z</time></trkpt><trkpt lat="45.9801554" lon="13.3255058"><ele>60.0</ele><time>2026-04-17T14:12:13.17Z</time></trkpt><trkpt lat="45.9800642" lon="13.32563"><ele>60.0</ele><time>2026-04-17T14:12:14.17Z</time></trkpt><trkpt lat="45.9799663" lon="13.3257651"><ele>60.0</ele><time>2026-04-17T14:12:15.169Z</time></trkpt><trkpt lat="45.9798675" lon="13.3259065"><ele>60.0</ele><time>2026-04-17T14:12:16.169Z</time></trkpt><trkpt lat="45.9797644" lon="13.3260459"><ele>60.0</ele><time>2026-04-17T14:12:17.169Z</time></trkpt><trkpt lat="45.9796638" lon="13.3261867"><ele>60.0</ele><time>2026-04-17T14:12:18.169Z</time></trkpt><trkpt lat="45.9795648" lon="13.3263287"><ele>60.0</ele><time>2026-04-17T14:12:19.169Z</time></trkpt><trkpt lat="45.9794742" lon="13.3264686"><ele>60.0</ele><time>2026-04-17T14:12:20.168Z</time></trkpt><trkpt lat="45.9793819" lon="13.3266035"><ele>60.0</ele><time>2026-04-17T14:12:21.168Z</time></trkpt><trkpt lat="45.9792841" lon="13.326746"><ele>59.25</ele><time>2026-04-17T14:12:22.168Z</time></trkpt><trkpt lat="45.9791839" lon="13.3268958"><ele>58.5</ele><time>2026-04-17T14:12:23.168Z</time></trkpt><trkpt lat="45.9790805" lon="13.3270521"><ele>57.75</ele><time>2026-04-17T14:12:24.168Z</time></trkpt><trkpt lat="45.9789712" lon="13.3271994"><ele>57.0</ele><time>2026-04-17T14:12:25.168Z</time></trkpt><trkpt lat="45.9788633" lon="13.3273513"><ele>57.0</ele><time>2026-04-17T14:12:26.169Z</time></trkpt><trkpt lat="45.978754" lon="13.3275032"><ele>57.0</ele><time>2026-04-17T14:12:27.168Z</time></trkpt><trkpt lat="45.9786498" lon="13.3276494"><ele>57.0</ele><time>2026-04-17T14:12:28.168Z</time></trkpt><trkpt lat="45.9785434" lon="13.327796"><ele>57.0</ele><time>2026-04-17T14:12:29.169Z</time></trkpt><trkpt lat="45.978358" lon="13.3280672"><ele>56.6</ele><time>2026-04-17T14:12:31.168Z</time></trkpt><trkpt lat="45.9782774" lon="13.3281907"><ele>56.2</ele><time>2026-04-17T14:12:32.169Z</time></trkpt><trkpt lat="45.9782022" lon="13.3282991"><ele>55.8</ele><time>2026-04-17T14:12:33.168Z</time></trkpt><trkpt lat="45.9781329" lon="13.3283981"><ele>55.4</ele><time>2026-04-17T14:12:34.168Z</time></trkpt><trkpt lat="45.9780744" lon="13.3284745"><ele>55.0</ele><time>2026-04-17T14:12:35.169Z</time></trkpt><trkpt lat="45.9779875" lon="13.3286016"><ele>55.0</ele><time>2026-04-17T14:12:37.168Z</time></trkpt><trkpt lat="45.977912" lon="13.3287145"><ele>55.0</ele><time>2026-04-17T14:12:39.168Z</time></trkpt><trkpt lat="45.9778415" lon="13.3288025"><ele>55.0</ele><time>2026-04-17T14:12:41.169Z</time></trkpt><trkpt lat="45.9777846" lon="13.3288754"><ele>55.0</ele><time>2026-04-17T14:12:43.168Z</time></trkpt><trkpt lat="45.9777236" lon="13.3289658"><ele>55.0</ele><time>2026-04-17T14:12:45.169Z</time></trkpt><trkpt lat="45.977655" lon="13.3290759"><ele>55.5</ele><time>2026-04-17T14:12:47.169Z</time></trkpt><trkpt lat="45.977553" lon="13.3291629"><ele>56.0</ele><time>2026-04-17T14:12:49.169Z</time></trkpt><trkpt lat="45.9774864" lon="13.3292199"><ele>56.5</ele><time>2026-04-17T14:12:50.169Z</time></trkpt><trkpt lat="45.9773535" lon="13.3293932"><ele>57.0</ele><time>2026-04-17T14:12:52.169Z</time></trkpt><trkpt lat="45.9772863" lon="13.3294921"><ele>57.0</ele><time>2026-04-17T14:12:53.169Z</time></trkpt><trkpt lat="45.9772222" lon="13.3295825"><ele>57.0</ele><time>2026-04-17T14:12:54.168Z</time></trkpt><trkpt lat="45.9771587" lon="13.3296612"><ele>57.0</ele><time>2026-04-17T14:12:55.169Z</time></trkpt><trkpt lat="45.9771073" lon="13.3297265"><ele>57.0</ele><time>2026-04-17T14:12:56.169Z</time></trkpt><trkpt lat="45.9770465" lon="13.3298728"><ele>57.0</ele><time>2026-04-17T14:12:58.169Z</time></trkpt><trkpt lat="45.976979" lon="13.3300262"><ele>57.400000000000006</ele><time>2026-04-17T14:13:00.169Z</time></trkpt><trkpt lat="45.9768894" lon="13.3301079"><ele>57.800000000000004</ele><time>2026-04-17T14:13:02.169Z</time></trkpt><trkpt lat="45.9768004" lon="13.3301263"><ele>58.2</ele><time>2026-04-17T14:13:04.169Z</time></trkpt><trkpt lat="45.9767309" lon="13.3301063"><ele>58.6</ele><time>2026-04-17T14:13:37.168Z</time></trkpt><trkpt lat="45.976637" lon="13.3299034"><ele>59.0</ele><time>2026-04-17T14:13:40.169Z</time></trkpt><trkpt lat="45.9765804" lon="13.329788"><ele>59.0</ele><time>2026-04-17T14:13:41.168Z</time></trkpt><trkpt lat="45.9765164" lon="13.329645"><ele>59.0</ele><time>2026-04-17T14:13:42.169Z</time></trkpt><trkpt lat="45.9764493" lon="13.3294622"><ele>59.0</ele><time>2026-04-17T14:13:43.169Z</time></trkpt><trkpt lat="45.9763911" lon="13.3292448"><ele>59.0</ele><time>2026-04-17T14:13:44.169Z</time></trkpt><trkpt lat="45.9763356" lon="13.3290358"><ele>58.75</ele><time>2026-04-17T14:13:45.168Z</time></trkpt><trkpt lat="45.9762867" lon="13.3288449"><ele>58.5</ele><time>2026-04-17T14:13:46.168Z</time></trkpt><trkpt lat="45.9762421" lon="13.3286688"><ele>58.25</ele><time>2026-04-17T14:13:47.169Z</time></trkpt><trkpt lat="45.9761937" lon="13.328505"><ele>58.0</ele><time>2026-04-17T14:13:48.169Z</time></trkpt><trkpt lat="45.9761543" lon="13.3283546"><ele>57.99999999999999</ele><time>2026-04-17T14:13:49.168Z</time></trkpt><trkpt lat="45.9761054" lon="13.3282306"><ele>58.0</ele><time>2026-04-17T14:13:50.168Z</time></trkpt><trkpt lat="45.9760529" lon="13.3281232"><ele>58.0</ele><time>2026-04-17T14:13:51.169Z</time></trkpt><trkpt lat="45.9760113" lon="13.3280221"><ele>58.0</ele><time>2026-04-17T14:13:52.169Z</time></trkpt><trkpt lat="45.9759895" lon="13.3279118"><ele>57.99999999999999</ele><time>2026-04-17T14:13:53.168Z</time></trkpt><trkpt lat="45.9759674" lon="13.3278057"><ele>58.0</ele><time>2026-04-17T14:13:54.169Z</time></trkpt><trkpt lat="45.9759379" lon="13.3277049"><ele>58.25</ele><time>2026-04-17T14:13:55.168Z</time></trkpt><trkpt lat="45.9758928" lon="13.3276234"><ele>58.5</ele><time>2026-04-17T14:13:56.169Z</time></trkpt><trkpt lat="45.9758304" lon="13.3275712"><ele>58.75</ele><time>2026-04-17T14:13:57.169Z</time></trkpt><trkpt lat="45.9757547" lon="13.3275706"><ele>59.0</ele><time>2026-04-17T14:13:58.169Z</time></trkpt><trkpt lat="45.9755298" lon="13.3277131"><ele>59.25</ele><time>2026-04-17T14:14:00.168Z</time></trkpt><trkpt lat="45.9753979" lon="13.3277935"><ele>59.5</ele><time>2026-04-17T14:14:01.169Z</time></trkpt><trkpt lat="45.9752783" lon="13.3278357"><ele>59.75</ele><time>2026-04-17T14:14:02.169Z</time></trkpt><trkpt lat="45.9751762" lon="13.3278707"><ele>60.0</ele><time>2026-04-17T14:14:03.169Z</time></trkpt><trkpt lat="45.9751026" lon="13.3279275"><ele>59.833333333333336</ele><time>2026-04-17T14:14:04.169Z</time></trkpt><trkpt lat="45.9750176" lon="13.3280064"><ele>59.66666666666667</ele><time>2026-04-17T14:14:05.168Z</time></trkpt><trkpt lat="45.97497" lon="13.3280939"><ele>59.5</ele><time>2026-04-17T14:14:06.169Z</time></trkpt><trkpt lat="45.974947" lon="13.3281886"><ele>59.333333333333336</ele><time>2026-04-17T14:14:07.168Z</time></trkpt><trkpt lat="45.9749313" lon="13.3282864"><ele>59.16666666666667</ele><time>2026-04-17T14:14:08.169Z</time></trkpt><trkpt lat="45.974899" lon="13.328382"><ele>59.0</ele><time>2026-04-17T14:14:09.169Z</time></trkpt><trkpt lat="45.9748504" lon="13.3284873"><ele>58.5</ele><time>2026-04-17T14:14:10.169Z</time></trkpt><trkpt lat="45.9747892" lon="13.3286138"><ele>58.0</ele><time>2026-04-17T14:14:11.169Z</time></trkpt><trkpt lat="45.9747224" lon="13.328763"><ele>57.5</ele><time>2026-04-17T14:14:12.169Z</time></trkpt><trkpt lat="45.974653" lon="13.3289373"><ele>57.0</ele><time>2026-04-17T14:14:13.168Z</time></trkpt><trkpt lat="45.974588" lon="13.3291251"><ele>57.0</ele><time>2026-04-17T14:14:14.168Z</time></trkpt><trkpt lat="45.9745304" lon="13.3293342"><ele>57.0</ele><time>2026-04-17T14:14:15.169Z</time></trkpt><trkpt lat="45.9744732" lon="13.3295301"><ele>57.0</ele><time>2026-04-17T14:14:16.169Z</time></trkpt><trkpt lat="45.9744186" lon="13.32971"><ele>57.0</ele><time>2026-04-17T14:14:17.169Z</time></trkpt><trkpt lat="45.9743685" lon="13.3298738"><ele>56.66666666666667</ele><time>2026-04-17T14:14:18.169Z</time></trkpt><trkpt lat="45.9743045" lon="13.3300226"><ele>56.333333333333336</ele><time>2026-04-17T14:14:19.168Z</time></trkpt><trkpt lat="45.9741495" lon="13.3303241"><ele>56.0</ele><time>2026-04-17T14:14:21.168Z</time></trkpt><trkpt lat="45.9740767" lon="13.3304655"><ele>56.0</ele><time>2026-04-17T14:14:22.168Z</time></trkpt><trkpt lat="45.9740156" lon="13.330607"><ele>56.0</ele><time>2026-04-17T14:14:23.169Z</time></trkpt><trkpt lat="45.9739716" lon="13.3307487"><ele>56.0</ele><time>2026-04-17T14:14:24.169Z</time></trkpt><trkpt lat="45.9739345" lon="13.3309043"><ele>56.0</ele><time>2026-04-17T14:14:25.169Z</time></trkpt><trkpt lat="45.9739047" lon="13.3310675"><ele>56.0</ele><time>2026-04-17T14:14:26.169Z</time></trkpt><trkpt lat="45.9738876" lon="13.3312491"><ele>56.0</ele><time>2026-04-17T14:14:27.168Z</time></trkpt><trkpt lat="45.9738728" lon="13.3314413"><ele>56.0</ele><time>2026-04-17T14:14:28.168Z</time></trkpt><trkpt lat="45.9738579" lon="13.3316466"><ele>56.0</ele><time>2026-04-17T14:14:29.168Z</time></trkpt><trkpt lat="45.9738418" lon="13.3318592"><ele>56.66666666666667</ele><time>2026-04-17T14:14:30.168Z</time></trkpt><trkpt lat="45.973822" lon="13.3320836"><ele>57.33333333333333</ele><time>2026-04-17T14:14:31.168Z</time></trkpt><trkpt lat="45.9737995" lon="13.3323025"><ele>58.0</ele><time>2026-04-17T14:14:32.168Z</time></trkpt><trkpt lat="45.9737835" lon="13.3325086"><ele>58.0</ele><time>2026-04-17T14:14:33.169Z</time></trkpt><trkpt lat="45.9737745" lon="13.33268"><ele>58.0</ele><time>2026-04-17T14:14:34.168Z</time></trkpt><trkpt lat="45.9737667" lon="13.3328247"><ele>58.0</ele><time>2026-04-17T14:14:35.168Z</time></trkpt><trkpt lat="45.9737602" lon="13.3329741"><ele>58.0</ele><time>2026-04-17T14:14:36.169Z</time></trkpt><trkpt lat="45.973758" lon="13.333123"><ele>58.0</ele><time>2026-04-17T14:14:37.169Z</time></trkpt><trkpt lat="45.9737343" lon="13.3332902"><ele>58.0</ele><time>2026-04-17T14:14:38.169Z</time></trkpt><trkpt lat="45.973681" lon="13.3334579"><ele>58.0</ele><time>2026-04-17T14:14:39.169Z</time></trkpt><trkpt lat="45.9735958" lon="13.3336173"><ele>58.0</ele><time>2026-04-17T14:14:40.168Z</time></trkpt><trkpt lat="45.9733444" lon="13.3338993"><ele>57.33333333333333</ele><time>2026-04-17T14:14:42.169Z</time></trkpt><trkpt lat="45.9732098" lon="13.3340424"><ele>56.66666666666667</ele><time>2026-04-17T14:14:43.168Z</time></trkpt><trkpt lat="45.9730762" lon="13.3341815"><ele>56.0</ele><time>2026-04-17T14:14:44.169Z</time></trkpt><trkpt lat="45.9729457" lon="13.3343327"><ele>56.0</ele><time>2026-04-17T14:14:45.169Z</time></trkpt><trkpt lat="45.9728157" lon="13.3344766"><ele>56.0</ele><time>2026-04-17T14:14:46.168Z</time></trkpt><trkpt lat="45.972684" lon="13.3346245"><ele>56.0</ele><time>2026-04-17T14:14:47.168Z</time></trkpt><trkpt lat="45.9725517" lon="13.334772"><ele>56.333333333333336</ele><time>2026-04-17T14:14:48.168Z</time></trkpt><trkpt lat="45.9724168" lon="13.3349182"><ele>56.66666666666667</ele><time>2026-04-17T14:14:49.168Z</time></trkpt><trkpt lat="45.9722914" lon="13.3350524"><ele>57.0</ele><time>2026-04-17T14:14:50.169Z</time></trkpt><trkpt lat="45.9721748" lon="13.3351666"><ele>57.0</ele><time>2026-04-17T14:14:51.168Z</time></trkpt><trkpt lat="45.9720554" lon="13.3352758"><ele>57.0</ele><time>2026-04-17T14:14:52.168Z</time></trkpt><trkpt lat="45.9719323" lon="13.3353778"><ele>57.0</ele><time>2026-04-17T14:14:53.169Z</time></trkpt><trkpt lat="45.9718129" lon="13.3354756"><ele>57.0</ele><time>2026-04-17T14:14:54.169Z</time></trkpt><trkpt lat="45.9716956" lon="13.3355755"><ele>56.75</ele><time>2026-04-17T14:14:55.169Z</time></trkpt><trkpt lat="45.971582" lon="13.3356841"><ele>56.5</ele><time>2026-04-17T14:14:56.169Z</time></trkpt><trkpt lat="45.9714678" lon="13.3358165"><ele>56.25</ele><time>2026-04-17T14:14:57.169Z</time></trkpt><trkpt lat="45.9713554" lon="13.3359499"><ele>56.0</ele><time>2026-04-17T14:14:58.168Z</time></trkpt><trkpt lat="45.9712323" lon="13.3360783"><ele>56.0</ele><time>2026-04-17T14:14:59.169Z</time></trkpt><trkpt lat="45.9711022" lon="13.336187"><ele>56.0</ele><time>2026-04-17T14:15:00.168Z</time></trkpt><trkpt lat="45.9709563" lon="13.3362716"><ele>56.0</ele><time>2026-04-17T14:15:01.169Z</time></trkpt><trkpt lat="45.9706456" lon="13.3363884"><ele>55.333333333333336</ele><time>2026-04-17T14:15:03.169Z</time></trkpt><trkpt lat="45.9704892" lon="13.3364697"><ele>54.66666666666667</ele><time>2026-04-17T14:15:04.169Z</time></trkpt><trkpt lat="45.9703355" lon="13.3365729"><ele>54.0</ele><time>2026-04-17T14:15:05.169Z</time></trkpt><trkpt lat="45.9701801" lon="13.3366767"><ele>53.33333333333333</ele><time>2026-04-17T14:15:06.169Z</time></trkpt><trkpt lat="45.9700206" lon="13.3367859"><ele>52.666666666666664</ele><time>2026-04-17T14:15:07.169Z</time></trkpt><trkpt lat="45.9698575" lon="13.336896"><ele>52.0</ele><time>2026-04-17T14:15:08.169Z</time></trkpt><trkpt lat="45.9697015" lon="13.336998"><ele>52.0</ele><time>2026-04-17T14:15:09.169Z</time></trkpt><trkpt lat="45.9695417" lon="13.3370923"><ele>52.0</ele><time>2026-04-17T14:15:10.169Z</time></trkpt><trkpt lat="45.9693818" lon="13.3371758"><ele>52.0</ele><time>2026-04-17T14:15:11.168Z</time></trkpt><trkpt lat="45.9692179" lon="13.3372604"><ele>52.33333333333333</ele><time>2026-04-17T14:15:12.169Z</time></trkpt><trkpt lat="45.9690545" lon="13.3373517"><ele>52.66666666666667</ele><time>2026-04-17T14:15:13.168Z</time></trkpt><trkpt lat="45.9688964" lon="13.3374414"><ele>53.0</ele><time>2026-04-17T14:15:14.169Z</time></trkpt><trkpt lat="45.9687386" lon="13.3375339"><ele>53.0</ele><time>2026-04-17T14:15:15.169Z</time></trkpt><trkpt lat="45.9685774" lon="13.3376251"><ele>53.0</ele><time>2026-04-17T14:15:16.169Z</time></trkpt><trkpt lat="45.9684157" lon="13.3377224"><ele>53.0</ele><time>2026-04-17T14:15:17.169Z</time></trkpt><trkpt lat="45.9682624" lon="13.3378255"><ele>53.0</ele><time>2026-04-17T14:15:18.169Z</time></trkpt><trkpt lat="45.9681083" lon="13.3379376"><ele>53.0</ele><time>2026-04-17T14:15:19.169Z</time></trkpt><trkpt lat="45.9679549" lon="13.3380465"><ele>53.0</ele><time>2026-04-17T14:15:20.168Z</time></trkpt><trkpt lat="45.9678026" lon="13.3381453"><ele>52.5</ele><time>2026-04-17T14:15:21.169Z</time></trkpt><trkpt lat="45.9676546" lon="13.3382409"><ele>52.0</ele><time>2026-04-17T14:15:22.168Z</time></trkpt><trkpt lat="45.9673651" lon="13.3384329"><ele>51.75</ele><time>2026-04-17T14:15:24.168Z</time></trkpt><trkpt lat="45.9672267" lon="13.3385181"><ele>51.5</ele><time>2026-04-17T14:15:25.168Z</time></trkpt><trkpt lat="45.967093" lon="13.338607"><ele>51.25</ele><time>2026-04-17T14:15:26.169Z</time></trkpt><trkpt lat="45.9669555" lon="13.3386926"><ele>51.0</ele><time>2026-04-17T14:15:27.168Z</time></trkpt><trkpt lat="45.9668151" lon="13.338786"><ele>51.0</ele><time>2026-04-17T14:15:28.169Z</time></trkpt><trkpt lat="45.9666763" lon="13.3388752"><ele>51.0</ele><time>2026-04-17T14:15:29.169Z</time></trkpt><trkpt lat="45.9665308" lon="13.3389736"><ele>51.0</ele><time>2026-04-17T14:15:30.169Z</time></trkpt><trkpt lat="45.9663947" lon="13.3390819"><ele>52.0</ele><time>2026-04-17T14:15:31.169Z</time></trkpt><trkpt lat="45.9662568" lon="13.3391881"><ele>53.0</ele><time>2026-04-17T14:15:32.168Z</time></trkpt><trkpt lat="45.9661167" lon="13.3392873"><ele>54.0</ele><time>2026-04-17T14:15:33.168Z</time></trkpt><trkpt lat="45.9659928" lon="13.339379"><ele>54.0</ele><time>2026-04-17T14:15:34.169Z</time></trkpt><trkpt lat="45.9658718" lon="13.3394659"><ele>54.00000000000001</ele><time>2026-04-17T14:15:35.168Z</time></trkpt><trkpt lat="45.9657666" lon="13.3395309"><ele>54.00000000000001</ele><time>2026-04-17T14:15:36.169Z</time></trkpt><trkpt lat="45.9656741" lon="13.3395747"><ele>54.0</ele><time>2026-04-17T14:15:37.168Z</time></trkpt><trkpt lat="45.9656143" lon="13.3396086"><ele>54.0</ele><time>2026-04-17T14:15:38.169Z</time></trkpt><trkpt lat="45.9655606" lon="13.3396602"><ele>54.0</ele><time>2026-04-17T14:15:40.168Z</time></trkpt><trkpt lat="45.9655497" lon="13.3397516"><ele>54.00000000000001</ele><time>2026-04-17T14:15:42.169Z</time></trkpt><trkpt lat="45.9654958" lon="13.3398411"><ele>54.00000000000001</ele><time>2026-04-17T14:15:45.169Z</time></trkpt><trkpt lat="45.9654421" lon="13.3400728"><ele>54.0</ele><time>2026-04-17T14:15:56.168Z</time></trkpt><trkpt lat="45.965423" lon="13.3401693"><ele>54.0</ele><time>2026-04-17T14:15:57.169Z</time></trkpt><trkpt lat="45.9653486" lon="13.3403017"><ele>54.0</ele><time>2026-04-17T14:15:59.169Z</time></trkpt><trkpt lat="45.965293" lon="13.3403567"><ele>54.00000000000001</ele><time>2026-04-17T14:16:00.168Z</time></trkpt><trkpt lat="45.965235" lon="13.3403947"><ele>54.00000000000001</ele><time>2026-04-17T14:16:01.169Z</time></trkpt><trkpt lat="45.9651495" lon="13.3404786"><ele>54.0</ele><time>2026-04-17T14:16:03.168Z</time></trkpt><trkpt lat="45.9650886" lon="13.340587"><ele>54.0</ele><time>2026-04-17T14:16:05.169Z</time></trkpt><trkpt lat="45.9649736" lon="13.3406582"><ele>53.6</ele><time>2026-04-17T14:16:07.169Z</time></trkpt><trkpt lat="45.9648234" lon="13.3406975"><ele>53.2</ele><time>2026-04-17T14:16:09.169Z</time></trkpt><trkpt lat="45.9647579" lon="13.3407349"><ele>52.800000000000004</ele><time>2026-04-17T14:16:10.169Z</time></trkpt><trkpt lat="45.9647016" lon="13.340778"><ele>52.400000000000006</ele><time>2026-04-17T14:16:11.168Z</time></trkpt><trkpt lat="45.9645913" lon="13.3408417"><ele>52.0</ele><time>2026-04-17T14:16:13.168Z</time></trkpt><trkpt lat="45.9644434" lon="13.3408436"><ele>52.0</ele><time>2026-04-17T14:16:15.169Z</time></trkpt><trkpt lat="45.9643354" lon="13.3408167"><ele>52.0</ele><time>2026-04-17T14:16:16.168Z</time></trkpt><trkpt lat="45.9642503" lon="13.3408065"><ele>52.0</ele><time>2026-04-17T14:16:17.169Z</time></trkpt><trkpt lat="45.964171" lon="13.3408013"><ele>52.0</ele><time>2026-04-17T14:16:18.168Z</time></trkpt><trkpt lat="45.9640495" lon="13.3407766"><ele>52.0</ele><time>2026-04-17T14:16:20.169Z</time></trkpt><trkpt lat="45.9639122" lon="13.3407905"><ele>51.75</ele><time>2026-04-17T14:16:22.169Z</time></trkpt><trkpt lat="45.963816" lon="13.3408528"><ele>51.5</ele><time>2026-04-17T14:16:23.169Z</time></trkpt><trkpt lat="45.9636936" lon="13.3409452"><ele>51.25</ele><time>2026-04-17T14:16:24.169Z</time></trkpt><trkpt lat="45.963538" lon="13.3410698"><ele>51.0</ele><time>2026-04-17T14:16:25.169Z</time></trkpt><trkpt lat="45.9633714" lon="13.3411965"><ele>50.66666666666667</ele><time>2026-04-17T14:16:26.169Z</time></trkpt><trkpt lat="45.9632131" lon="13.341328"><ele>50.333333333333336</ele><time>2026-04-17T14:16:27.169Z</time></trkpt><trkpt lat="45.9630573" lon="13.3414762"><ele>50.0</ele><time>2026-04-17T14:16:28.169Z</time></trkpt><trkpt lat="45.9627776" lon="13.3418111"><ele>49.66666666666667</ele><time>2026-04-17T14:16:30.169Z</time></trkpt><trkpt lat="45.9626419" lon="13.3420015"><ele>49.33333333333333</ele><time>2026-04-17T14:16:31.169Z</time></trkpt><trkpt lat="45.9625112" lon="13.3421811"><ele>49.0</ele><time>2026-04-17T14:16:32.169Z</time></trkpt><trkpt lat="45.9623774" lon="13.3423613"><ele>48.666666666666664</ele><time>2026-04-17T14:16:33.169Z</time></trkpt><trkpt lat="45.9622424" lon="13.3425364"><ele>48.33333333333333</ele><time>2026-04-17T14:16:34.169Z</time></trkpt><trkpt lat="45.9621087" lon="13.3427268"><ele>48.0</ele><time>2026-04-17T14:16:35.168Z</time></trkpt><trkpt lat="45.9619728" lon="13.3429205"><ele>47.666666666666664</ele><time>2026-04-17T14:16:36.169Z</time></trkpt><trkpt lat="45.9618385" lon="13.3431009"><ele>47.33333333333333</ele><time>2026-04-17T14:16:37.169Z</time></trkpt><trkpt lat="45.9617065" lon="13.3432794"><ele>47.0</ele><time>2026-04-17T14:16:38.169Z</time></trkpt><trkpt lat="45.961572" lon="13.3434621"><ele>47.0</ele><time>2026-04-17T14:16:39.169Z</time></trkpt><trkpt lat="45.9614413" lon="13.3436438"><ele>47.0</ele><time>2026-04-17T14:16:40.169Z</time></trkpt><trkpt lat="45.9613127" lon="13.3438238"><ele>47.0</ele><time>2026-04-17T14:16:41.169Z</time></trkpt><trkpt lat="45.9611849" lon="13.343992"><ele>47.33333333333333</ele><time>2026-04-17T14:16:42.169Z</time></trkpt><trkpt lat="45.9610625" lon="13.3441598"><ele>47.666666666666664</ele><time>2026-04-17T14:16:43.168Z</time></trkpt><trkpt lat="45.9609414" lon="13.3443272"><ele>48.0</ele><time>2026-04-17T14:16:44.168Z</time></trkpt><trkpt lat="45.9608231" lon="13.3444947"><ele>47.666666666666664</ele><time>2026-04-17T14:16:45.169Z</time></trkpt><trkpt lat="45.9607089" lon="13.3446507"><ele>47.33333333333333</ele><time>2026-04-17T14:16:46.168Z</time></trkpt><trkpt lat="45.9605982" lon="13.3447943"><ele>47.0</ele><time>2026-04-17T14:16:47.168Z</time></trkpt><trkpt lat="45.9604841" lon="13.3449311"><ele>47.0</ele><time>2026-04-17T14:16:48.169Z</time></trkpt><trkpt lat="45.9603808" lon="13.3450476"><ele>47.0</ele><time>2026-04-17T14:16:49.168Z</time></trkpt><trkpt lat="45.960181" lon="13.3452416"><ele>47.0</ele><time>2026-04-17T14:16:51.168Z</time></trkpt><trkpt lat="45.9600911" lon="13.3453167"><ele>46.83333333333333</ele><time>2026-04-17T14:16:52.169Z</time></trkpt><trkpt lat="45.9600041" lon="13.3453685"><ele>46.666666666666664</ele><time>2026-04-17T14:16:53.169Z</time></trkpt><trkpt lat="45.9599349" lon="13.3453995"><ele>46.5</ele><time>2026-04-17T14:16:54.168Z</time></trkpt><trkpt lat="45.9598655" lon="13.3453817"><ele>46.333333333333336</ele><time>2026-04-17T14:16:56.167Z</time></trkpt><trkpt lat="45.9598567" lon="13.3452653"><ele>46.16666666666667</ele><time>2026-04-17T14:16:58.168Z</time></trkpt><trkpt lat="45.9598483" lon="13.3451012"><ele>46.0</ele><time>2026-04-17T14:17:00.168Z</time></trkpt><trkpt lat="45.9598161" lon="13.344959"><ele>46.0</ele><time>2026-04-17T14:17:02.168Z</time></trkpt><trkpt lat="45.9597419" lon="13.3449056"><ele>46.0</ele><time>2026-04-17T14:17:04.168Z</time></trkpt><trkpt lat="45.9596114" lon="13.3449685"><ele>46.0</ele><time>2026-04-17T14:17:06.168Z</time></trkpt><trkpt lat="45.9595133" lon="13.3450546"><ele>46.0</ele><time>2026-04-17T14:17:07.168Z</time></trkpt><trkpt lat="45.9593825" lon="13.345156"><ele>46.0</ele><time>2026-04-17T14:17:08.167Z</time></trkpt><trkpt lat="45.9592357" lon="13.3452493"><ele>46.0</ele><time>2026-04-17T14:17:09.168Z</time></trkpt><trkpt lat="45.9590773" lon="13.3453321"><ele>46.0</ele><time>2026-04-17T14:17:10.168Z</time></trkpt><trkpt lat="45.9587313" lon="13.3454752"><ele>46.66666666666667</ele><time>2026-04-17T14:17:12.168Z</time></trkpt><trkpt lat="45.958557" lon="13.3455502"><ele>47.333333333333336</ele><time>2026-04-17T14:17:13.168Z</time></trkpt><trkpt lat="45.9583838" lon="13.3456307"><ele>48.0</ele><time>2026-04-17T14:17:14.168Z</time></trkpt><trkpt lat="45.9582099" lon="13.3457005"><ele>48.0</ele><time>2026-04-17T14:17:15.168Z</time></trkpt><trkpt lat="45.9580388" lon="13.3457714"><ele>48.0</ele><time>2026-04-17T14:17:16.168Z</time></trkpt><trkpt lat="45.9578655" lon="13.3458339"><ele>48.0</ele><time>2026-04-17T14:17:17.168Z</time></trkpt><trkpt lat="45.9576917" lon="13.3459044"><ele>48.33333333333333</ele><time>2026-04-17T14:17:18.168Z</time></trkpt><trkpt lat="45.9575138" lon="13.3459795"><ele>48.666666666666664</ele><time>2026-04-17T14:17:19.168Z</time></trkpt><trkpt lat="45.9573279" lon="13.346052"><ele>49.0</ele><time>2026-04-17T14:17:20.167Z</time></trkpt><trkpt lat="45.9571421" lon="13.3461212"><ele>49.0</ele><time>2026-04-17T14:17:21.168Z</time></trkpt><trkpt lat="45.9569593" lon="13.3462047"><ele>49.0</ele><time>2026-04-17T14:17:22.168Z</time></trkpt><trkpt lat="45.9567661" lon="13.3462797"><ele>49.0</ele><time>2026-04-17T14:17:23.168Z</time></trkpt><trkpt lat="45.9565731" lon="13.3463558"><ele>48.0</ele><time>2026-04-17T14:17:24.168Z</time></trkpt><trkpt lat="45.9563835" lon="13.3464305"><ele>47.0</ele><time>2026-04-17T14:17:25.167Z</time></trkpt><trkpt lat="45.9561922" lon="13.3465083"><ele>46.0</ele><time>2026-04-17T14:17:26.167Z</time></trkpt><trkpt lat="45.9560044" lon="13.3465895"><ele>46.66666666666667</ele><time>2026-04-17T14:17:27.168Z</time></trkpt><trkpt lat="45.9558178" lon="13.3466668"><ele>47.333333333333336</ele><time>2026-04-17T14:17:28.168Z</time></trkpt><trkpt lat="45.955624" lon="13.3467431"><ele>48.0</ele><time>2026-04-17T14:17:29.168Z</time></trkpt><trkpt lat="45.9554389" lon="13.3468247"><ele>48.0</ele><time>2026-04-17T14:17:30.168Z</time></trkpt><trkpt lat="45.9552506" lon="13.3469079"><ele>48.0</ele><time>2026-04-17T14:17:31.168Z</time></trkpt><trkpt lat="45.9548675" lon="13.3470557"><ele>47.666666666666664</ele><time>2026-04-17T14:17:33.168Z</time></trkpt><trkpt lat="45.9546784" lon="13.3471362"><ele>47.33333333333333</ele><time>2026-04-17T14:17:34.168Z</time></trkpt><trkpt lat="45.9544845" lon="13.3472168"><ele>47.0</ele><time>2026-04-17T14:17:35.168Z</time></trkpt><trkpt lat="45.9542948" lon="13.3472965"><ele>47.0</ele><time>2026-04-17T14:17:36.167Z</time></trkpt><trkpt lat="45.95411" lon="13.3473746"><ele>47.0</ele><time>2026-04-17T14:17:37.168Z</time></trkpt><trkpt lat="45.9539279" lon="13.3474459"><ele>47.0</ele><time>2026-04-17T14:17:38.168Z</time></trkpt><trkpt lat="45.9537391" lon="13.3475253"><ele>47.0</ele><time>2026-04-17T14:17:39.168Z</time></trkpt><trkpt lat="45.953554" lon="13.347605"><ele>47.0</ele><time>2026-04-17T14:17:40.168Z</time></trkpt><trkpt lat="45.9533737" lon="13.3476806"><ele>47.0</ele><time>2026-04-17T14:17:41.168Z</time></trkpt><trkpt lat="45.9532021" lon="13.347762"><ele>47.25</ele><time>2026-04-17T14:17:42.168Z</time></trkpt><trkpt lat="45.9530481" lon="13.3478413"><ele>47.5</ele><time>2026-04-17T14:17:43.167Z</time></trkpt><trkpt lat="45.9529267" lon="13.3479224"><ele>47.75</ele><time>2026-04-17T14:17:44.168Z</time></trkpt><trkpt lat="45.9528396" lon="13.3480002"><ele>48.0</ele><time>2026-04-17T14:17:45.168Z</time></trkpt><trkpt lat="45.9527882" lon="13.3480849"><ele>48.0</ele><time>2026-04-17T14:17:46.168Z</time></trkpt><trkpt lat="45.9527397" lon="13.3482353"><ele>48.0</ele><time>2026-04-17T14:17:48.168Z</time></trkpt><trkpt lat="45.9527159" lon="13.3483294"><ele>48.0</ele><time>2026-04-17T14:17:50.167Z</time></trkpt><trkpt lat="45.9527233" lon="13.3484599"><ele>48.0</ele><time>2026-04-17T14:17:59.167Z</time></trkpt><trkpt lat="45.9528616" lon="13.3486816"><ele>48.0</ele><time>2026-04-17T14:18:03.168Z</time></trkpt><trkpt lat="45.9528146" lon="13.3487968"><ele>48.0</ele><time>2026-04-17T14:18:06.168Z</time></trkpt><trkpt lat="45.9527452" lon="13.3488499"><ele>48.0</ele><time>2026-04-17T14:18:07.168Z</time></trkpt><trkpt lat="45.9526618" lon="13.348923"><ele>48.0</ele><time>2026-04-17T14:18:08.168Z</time></trkpt><trkpt lat="45.9525628" lon="13.3490096"><ele>48.0</ele><time>2026-04-17T14:18:09.168Z</time></trkpt><trkpt lat="45.9524564" lon="13.3491042"><ele>47.25</ele><time>2026-04-17T14:18:10.168Z</time></trkpt><trkpt lat="45.9523461" lon="13.3492107"><ele>46.5</ele><time>2026-04-17T14:18:11.167Z</time></trkpt><trkpt lat="45.9522349" lon="13.3493269"><ele>45.75</ele><time>2026-04-17T14:18:12.168Z</time></trkpt><trkpt lat="45.9521096" lon="13.3494451"><ele>45.0</ele><time>2026-04-17T14:18:13.168Z</time></trkpt><trkpt lat="45.9519804" lon="13.3495641"><ele>45.0</ele><time>2026-04-17T14:18:14.168Z</time></trkpt><trkpt lat="45.9518448" lon="13.349696"><ele>45.0</ele><time>2026-04-17T14:18:15.168Z</time></trkpt><trkpt lat="45.951712" lon="13.3498312"><ele>45.0</ele><time>2026-04-17T14:18:16.168Z</time></trkpt><trkpt lat="45.9515784" lon="13.3499559"><ele>44.666666666666664</ele><time>2026-04-17T14:18:17.168Z</time></trkpt><trkpt lat="45.9514495" lon="13.3500813"><ele>44.33333333333333</ele><time>2026-04-17T14:18:18.167Z</time></trkpt><trkpt lat="45.9513184" lon="13.3502119"><ele>44.0</ele><time>2026-04-17T14:18:19.167Z</time></trkpt><trkpt lat="45.9511839" lon="13.3503477"><ele>43.5</ele><time>2026-04-17T14:18:20.168Z</time></trkpt><trkpt lat="45.9509216" lon="13.3505964"><ele>43.0</ele><time>2026-04-17T14:18:22.168Z</time></trkpt><trkpt lat="45.9507966" lon="13.3507113"><ele>43.0</ele><time>2026-04-17T14:18:23.167Z</time></trkpt><trkpt lat="45.9506704" lon="13.3508317"><ele>43.0</ele><time>2026-04-17T14:18:24.167Z</time></trkpt><trkpt lat="45.9505483" lon="13.350962"><ele>43.0</ele><time>2026-04-17T14:18:25.168Z</time></trkpt><trkpt lat="45.9504344" lon="13.3510758"><ele>43.0</ele><time>2026-04-17T14:18:26.168Z</time></trkpt><trkpt lat="45.9503215" lon="13.3511796"><ele>43.0</ele><time>2026-04-17T14:18:27.167Z</time></trkpt><trkpt lat="45.9502095" lon="13.3512795"><ele>43.0</ele><time>2026-04-17T14:18:28.168Z</time></trkpt><trkpt lat="45.9501045" lon="13.351375"><ele>43.0</ele><time>2026-04-17T14:18:29.168Z</time></trkpt><trkpt lat="45.9500062" lon="13.3514787"><ele>43.0</ele><time>2026-04-17T14:18:30.168Z</time></trkpt><trkpt lat="45.9499097" lon="13.351574"><ele>43.0</ele><time>2026-04-17T14:18:31.168Z</time></trkpt><trkpt lat="45.9498173" lon="13.3516642"><ele>43.0</ele><time>2026-04-17T14:18:32.168Z</time></trkpt><trkpt lat="45.9497338" lon="13.3517482"><ele>43.0</ele><time>2026-04-17T14:18:33.168Z</time></trkpt><trkpt lat="45.9496555" lon="13.3518221"><ele>43.0</ele><time>2026-04-17T14:18:34.167Z</time></trkpt><trkpt lat="45.9495885" lon="13.3518902"><ele>43.0</ele><time>2026-04-17T14:18:35.168Z</time></trkpt><trkpt lat="45.9495302" lon="13.3519523"><ele>43.0</ele><time>2026-04-17T14:18:36.168Z</time></trkpt><trkpt lat="45.9494788" lon="13.352009"><ele>43.0</ele><time>2026-04-17T14:18:37.167Z</time></trkpt><trkpt lat="45.9494075" lon="13.3521244"><ele>43.0</ele><time>2026-04-17T14:18:39.168Z</time></trkpt><trkpt lat="45.9493273" lon="13.3522758"><ele>43.0</ele><time>2026-04-17T14:18:41.167Z</time></trkpt><trkpt lat="45.9491529" lon="13.352512"><ele>43.0</ele><time>2026-04-17T14:18:43.167Z</time></trkpt><trkpt lat="45.9490477" lon="13.352665"><ele>43.0</ele><time>2026-04-17T14:18:44.168Z</time></trkpt><trkpt lat="45.9489378" lon="13.3528092"><ele>43.0</ele><time>2026-04-17T14:18:45.168Z</time></trkpt><trkpt lat="45.948833" lon="13.3529425"><ele>43.0</ele><time>2026-04-17T14:18:46.167Z</time></trkpt><trkpt lat="45.9487256" lon="13.3530747"><ele>43.25</ele><time>2026-04-17T14:18:47.168Z</time></trkpt><trkpt lat="45.9486141" lon="13.3532162"><ele>43.5</ele><time>2026-04-17T14:18:48.168Z</time></trkpt><trkpt lat="45.9485053" lon="13.3533508"><ele>43.75</ele><time>2026-04-17T14:18:49.167Z</time></trkpt><trkpt lat="45.9484034" lon="13.3534783"><ele>44.0</ele><time>2026-04-17T14:18:50.167Z</time></trkpt><trkpt lat="45.9483034" lon="13.3536123"><ele>43.5</ele><time>2026-04-17T14:18:51.168Z</time></trkpt><trkpt lat="45.9481988" lon="13.3537329"><ele>43.0</ele><time>2026-04-17T14:18:52.168Z</time></trkpt><trkpt lat="45.9480952" lon="13.353842"><ele>42.5</ele><time>2026-04-17T14:18:53.168Z</time></trkpt><trkpt lat="45.9479863" lon="13.3539601"><ele>42.0</ele><time>2026-04-17T14:18:54.168Z</time></trkpt><trkpt lat="45.9478675" lon="13.3540849"><ele>42.0</ele><time>2026-04-17T14:18:55.168Z</time></trkpt><trkpt lat="45.9477456" lon="13.3542042"><ele>42.0</ele><time>2026-04-17T14:18:56.168Z</time></trkpt><trkpt lat="45.9476158" lon="13.3543301"><ele>42.0</ele><time>2026-04-17T14:18:57.168Z</time></trkpt><trkpt lat="45.9474935" lon="13.354456"><ele>41.666666666666664</ele><time>2026-04-17T14:18:58.168Z</time></trkpt><trkpt lat="45.9473753" lon="13.3545685"><ele>41.33333333333333</ele><time>2026-04-17T14:18:59.167Z</time></trkpt><trkpt lat="45.9472488" lon="13.3546933"><ele>41.0</ele><time>2026-04-17T14:19:00.167Z</time></trkpt><trkpt lat="45.9471188" lon="13.3548188"><ele>41.0</ele><time>2026-04-17T14:19:01.168Z</time></trkpt><trkpt lat="45.9469872" lon="13.354949"><ele>41.0</ele><time>2026-04-17T14:19:02.168Z</time></trkpt><trkpt lat="45.9467269" lon="13.3551987"><ele>40.75</ele><time>2026-04-17T14:19:04.168Z</time></trkpt><trkpt lat="45.9466017" lon="13.3553186"><ele>40.5</ele><time>2026-04-17T14:19:05.168Z</time></trkpt><trkpt lat="45.9464799" lon="13.3554326"><ele>40.25</ele><time>2026-04-17T14:19:06.168Z</time></trkpt><trkpt lat="45.9463636" lon="13.3555378"><ele>40.0</ele><time>2026-04-17T14:19:07.168Z</time></trkpt><trkpt lat="45.9462549" lon="13.3556406"><ele>40.2</ele><time>2026-04-17T14:19:08.168Z</time></trkpt><trkpt lat="45.946156" lon="13.3557296"><ele>40.4</ele><time>2026-04-17T14:19:09.167Z</time></trkpt><trkpt lat="45.9460666" lon="13.3558097"><ele>40.599999999999994</ele><time>2026-04-17T14:19:10.168Z</time></trkpt><trkpt lat="45.9459813" lon="13.3558892"><ele>40.8</ele><time>2026-04-17T14:19:11.168Z</time></trkpt><trkpt lat="45.9458917" lon="13.3559779"><ele>41.0</ele><time>2026-04-17T14:19:12.168Z</time></trkpt><trkpt lat="45.9458001" lon="13.3560643"><ele>41.0</ele><time>2026-04-17T14:19:13.167Z</time></trkpt><trkpt lat="45.945705" lon="13.3561544"><ele>41.0</ele><time>2026-04-17T14:19:14.167Z</time></trkpt><trkpt lat="45.9456025" lon="13.3562548"><ele>41.0</ele><time>2026-04-17T14:19:15.168Z</time></trkpt><trkpt lat="45.9454983" lon="13.3563662"><ele>41.0</ele><time>2026-04-17T14:19:16.168Z</time></trkpt><trkpt lat="45.945409" lon="13.356469"><ele>41.0</ele><time>2026-04-17T14:19:17.167Z</time></trkpt><trkpt lat="45.9453311" lon="13.3565554"><ele>41.0</ele><time>2026-04-17T14:19:18.168Z</time></trkpt><trkpt lat="45.9452504" lon="13.3566443"><ele>41.0</ele><time>2026-04-17T14:19:19.168Z</time></trkpt><trkpt lat="45.9451653" lon="13.3567425"><ele>41.0</ele><time>2026-04-17T14:19:20.168Z</time></trkpt><trkpt lat="45.9450832" lon="13.3568465"><ele>41.0</ele><time>2026-04-17T14:19:21.167Z</time></trkpt><trkpt lat="45.9449953" lon="13.3569577"><ele>41.0</ele><time>2026-04-17T14:19:22.168Z</time></trkpt><trkpt lat="45.9449033" lon="13.3570732"><ele>41.0</ele><time>2026-04-17T14:19:23.168Z</time></trkpt><trkpt lat="45.9447067" lon="13.357322"><ele>41.0</ele><time>2026-04-17T14:19:25.167Z</time></trkpt><trkpt lat="45.9446258" lon="13.3574436"><ele>41.25</ele><time>2026-04-17T14:19:26.168Z</time></trkpt><trkpt lat="45.9445435" lon="13.3575755"><ele>41.5</ele><time>2026-04-17T14:19:27.168Z</time></trkpt><trkpt lat="45.9444618" lon="13.357717"><ele>41.75</ele><time>2026-04-17T14:19:28.168Z</time></trkpt><trkpt lat="45.9443718" lon="13.35786"><ele>42.0</ele><time>2026-04-17T14:19:29.168Z</time></trkpt><trkpt lat="45.9442834" lon="13.3580135"><ele>41.75</ele><time>2026-04-17T14:19:30.168Z</time></trkpt><trkpt lat="45.9441974" lon="13.3581705"><ele>41.5</ele><time>2026-04-17T14:19:31.168Z</time></trkpt><trkpt lat="45.9441132" lon="13.3583096"><ele>41.25</ele><time>2026-04-17T14:19:32.168Z</time></trkpt><trkpt lat="45.9440287" lon="13.3584382"><ele>41.0</ele><time>2026-04-17T14:19:33.167Z</time></trkpt><trkpt lat="45.9439443" lon="13.3585677"><ele>41.0</ele><time>2026-04-17T14:19:34.168Z</time></trkpt><trkpt lat="45.9438739" lon="13.3586745"><ele>41.0</ele><time>2026-04-17T14:19:35.168Z</time></trkpt><trkpt lat="45.943805" lon="13.3587598"><ele>41.0</ele><time>2026-04-17T14:19:36.168Z</time></trkpt><trkpt lat="45.943741" lon="13.358853"><ele>41.0</ele><time>2026-04-17T14:19:37.168Z</time></trkpt><trkpt lat="45.9436704" lon="13.3589524"><ele>41.0</ele><time>2026-04-17T14:19:38.168Z</time></trkpt><trkpt lat="45.943593" lon="13.3590556"><ele>40.8</ele><time>2026-04-17T14:19:39.168Z</time></trkpt><trkpt lat="45.9435159" lon="13.3591555"><ele>40.599999999999994</ele><time>2026-04-17T14:19:40.168Z</time></trkpt><trkpt lat="45.9434418" lon="13.3592383"><ele>40.4</ele><time>2026-04-17T14:19:41.167Z</time></trkpt><trkpt lat="45.9433546" lon="13.3593302"><ele>40.2</ele><time>2026-04-17T14:19:42.168Z</time></trkpt><trkpt lat="45.9432538" lon="13.3594462"><ele>40.0</ele><time>2026-04-17T14:19:43.168Z</time></trkpt><trkpt lat="45.9431482" lon="13.35959"><ele>40.5</ele><time>2026-04-17T14:19:44.168Z</time></trkpt><trkpt lat="45.9429428" lon="13.3599155"><ele>41.0</ele><time>2026-04-17T14:19:46.168Z</time></trkpt><trkpt lat="45.9428448" lon="13.360072"><ele>41.0</ele><time>2026-04-17T14:19:47.168Z</time></trkpt><trkpt lat="45.9427551" lon="13.3602222"><ele>41.0</ele><time>2026-04-17T14:19:48.168Z</time></trkpt><trkpt lat="45.9426725" lon="13.3603666"><ele>41.0</ele><time>2026-04-17T14:19:49.168Z</time></trkpt><trkpt lat="45.942585" lon="13.3605102"><ele>41.0</ele><time>2026-04-17T14:19:50.168Z</time></trkpt><trkpt lat="45.9424928" lon="13.3606561"><ele>41.25</ele><time>2026-04-17T14:19:51.167Z</time></trkpt><trkpt lat="45.9424081" lon="13.3608033"><ele>41.5</ele><time>2026-04-17T14:19:52.167Z</time></trkpt><trkpt lat="45.9423202" lon="13.3609299"><ele>41.75</ele><time>2026-04-17T14:19:53.168Z</time></trkpt><trkpt lat="45.9422303" lon="13.3610702"><ele>42.0</ele><time>2026-04-17T14:19:54.167Z</time></trkpt><trkpt lat="45.9421411" lon="13.3612211"><ele>41.75</ele><time>2026-04-17T14:19:55.168Z</time></trkpt><trkpt lat="45.9420491" lon="13.3613795"><ele>41.5</ele><time>2026-04-17T14:19:56.168Z</time></trkpt><trkpt lat="45.9419517" lon="13.3615308"><ele>41.25</ele><time>2026-04-17T14:19:57.168Z</time></trkpt><trkpt lat="45.9418522" lon="13.3616588"><ele>41.0</ele><time>2026-04-17T14:19:58.168Z</time></trkpt><trkpt lat="45.941761" lon="13.3617684"><ele>41.0</ele><time>2026-04-17T14:19:59.168Z</time></trkpt><trkpt lat="45.9416779" lon="13.3618405"><ele>41.0</ele><time>2026-04-17T14:20:00.168Z</time></trkpt><trkpt lat="45.9416121" lon="13.3618864"><ele>41.0</ele><time>2026-04-17T14:20:01.167Z</time></trkpt><trkpt lat="45.9415505" lon="13.3619301"><ele>41.0</ele><time>2026-04-17T14:20:03.167Z</time></trkpt><trkpt lat="45.9415188" lon="13.3617787"><ele>41.0</ele><time>2026-04-17T14:20:10.167Z</time></trkpt><trkpt lat="45.9414926" lon="13.3615308"><ele>41.0</ele><time>2026-04-17T14:20:12.168Z</time></trkpt><trkpt lat="45.9414726" lon="13.3613992"><ele>41.0</ele><time>2026-04-17T14:20:13.168Z</time></trkpt><trkpt lat="45.9414528" lon="13.3612869"><ele>41.0</ele><time>2026-04-17T14:20:14.168Z</time></trkpt><trkpt lat="45.9414392" lon="13.3611969"><ele>41.0</ele><time>2026-04-17T14:20:15.167Z</time></trkpt><trkpt lat="45.9414188" lon="13.3610758"><ele>41.0</ele><time>2026-04-17T14:20:17.168Z</time></trkpt><trkpt lat="45.9413318" lon="13.3610461"><ele>41.0</ele><time>2026-04-17T14:20:20.168Z</time></trkpt><trkpt lat="45.9412331" lon="13.3611013"><ele>41.0</ele><time>2026-04-17T14:20:22.168Z</time></trkpt><trkpt lat="45.941173" lon="13.3611425"><ele>41.0</ele><time>2026-04-17T14:20:23.168Z</time></trkpt><trkpt lat="45.9411167" lon="13.3611871"><ele>41.0</ele><time>2026-04-17T14:20:24.168Z</time></trkpt><trkpt lat="45.9410575" lon="13.3612383"><ele>41.0</ele><time>2026-04-17T14:20:25.168Z</time></trkpt><trkpt lat="45.9409862" lon="13.3613055"><ele>41.0</ele><time>2026-04-17T14:20:26.167Z</time></trkpt><trkpt lat="45.9409154" lon="13.3613746"><ele>41.0</ele><time>2026-04-17T14:20:27.168Z</time></trkpt><trkpt lat="45.9408405" lon="13.3614523"><ele>41.0</ele><time>2026-04-17T14:20:28.168Z</time></trkpt><trkpt lat="45.9407652" lon="13.3615286"><ele>41.0</ele><time>2026-04-17T14:20:29.168Z</time></trkpt><trkpt lat="45.9406831" lon="13.3616024"><ele>41.0</ele><time>2026-04-17T14:20:30.167Z</time></trkpt><trkpt lat="45.9405917" lon="13.3616803"><ele>41.0</ele><time>2026-04-17T14:20:31.167Z</time></trkpt><trkpt lat="45.9403898" lon="13.3618241"><ele>41.0</ele><time>2026-04-17T14:20:33.168Z</time></trkpt><trkpt lat="45.9402856" lon="13.3618987"><ele>41.0</ele><time>2026-04-17T14:20:34.168Z</time></trkpt><trkpt lat="45.9401777" lon="13.3619696"><ele>41.0</ele><time>2026-04-17T14:20:35.168Z</time></trkpt><trkpt lat="45.9400767" lon="13.3620284"><ele>41.0</ele><time>2026-04-17T14:20:36.168Z</time></trkpt><trkpt lat="45.9399782" lon="13.3620833"><ele>40.8</ele><time>2026-04-17T14:20:37.168Z</time></trkpt><trkpt lat="45.9398829" lon="13.362139"><ele>40.599999999999994</ele><time>2026-04-17T14:20:38.167Z</time></trkpt><trkpt lat="45.9397927" lon="13.3621802"><ele>40.4</ele><time>2026-04-17T14:20:39.168Z</time></trkpt><trkpt lat="45.9396867" lon="13.3622042"><ele>40.2</ele><time>2026-04-17T14:20:40.168Z</time></trkpt><trkpt lat="45.9395724" lon="13.3622276"><ele>40.0</ele><time>2026-04-17T14:20:41.168Z</time></trkpt><trkpt lat="45.939452" lon="13.3622428"><ele>40.5</ele><time>2026-04-17T14:20:42.167Z</time></trkpt><trkpt lat="45.9393182" lon="13.3622636"><ele>41.0</ele><time>2026-04-17T14:20:43.167Z</time></trkpt><trkpt lat="45.9391811" lon="13.3622833"><ele>41.5</ele><time>2026-04-17T14:20:44.168Z</time></trkpt><trkpt lat="45.939061" lon="13.362307"><ele>42.0</ele><time>2026-04-17T14:20:45.168Z</time></trkpt><trkpt lat="45.9389491" lon="13.3623329"><ele>42.0</ele><time>2026-04-17T14:20:46.168Z</time></trkpt><trkpt lat="45.9388445" lon="13.3623568"><ele>42.0</ele><time>2026-04-17T14:20:47.168Z</time></trkpt><trkpt lat="45.9387306" lon="13.3623826"><ele>42.0</ele><time>2026-04-17T14:20:48.168Z</time></trkpt><trkpt lat="45.9386108" lon="13.3624323"><ele>42.0</ele><time>2026-04-17T14:20:49.167Z</time></trkpt><trkpt lat="45.9384982" lon="13.362492"><ele>42.0</ele><time>2026-04-17T14:20:50.168Z</time></trkpt><trkpt lat="45.9383916" lon="13.3625427"><ele>42.0</ele><time>2026-04-17T14:20:51.167Z</time></trkpt><trkpt lat="45.9382943" lon="13.3625881"><ele>42.0</ele><time>2026-04-17T14:20:52.168Z</time></trkpt><trkpt lat="45.9381202" lon="13.3626408"><ele>42.0</ele><time>2026-04-17T14:20:54.167Z</time></trkpt><trkpt lat="45.9380427" lon="13.3626591"><ele>41.5</ele><time>2026-04-17T14:20:55.167Z</time></trkpt><trkpt lat="45.9379757" lon="13.3626726"><ele>41.0</ele><time>2026-04-17T14:20:56.168Z</time></trkpt><trkpt lat="45.9379129" lon="13.3626884"><ele>40.5</ele><time>2026-04-17T14:20:57.167Z</time></trkpt><trkpt lat="45.9377904" lon="13.3627188"><ele>40.0</ele><time>2026-04-17T14:20:59.167Z</time></trkpt><trkpt lat="45.9377143" lon="13.3627415"><ele>39.5</ele><time>2026-04-17T14:21:00.168Z</time></trkpt><trkpt lat="45.937643" lon="13.362762"><ele>39.0</ele><time>2026-04-17T14:21:01.168Z</time></trkpt><trkpt lat="45.937539" lon="13.3627742"><ele>38.8</ele><time>2026-04-17T14:21:03.168Z</time></trkpt><trkpt lat="45.9374539" lon="13.3628228"><ele>38.599999999999994</ele><time>2026-04-17T14:21:06.168Z</time></trkpt><trkpt lat="45.9374081" lon="13.3629891"><ele>38.4</ele><time>2026-04-17T14:21:08.168Z</time></trkpt><trkpt lat="45.9373812" lon="13.3631276"><ele>38.199999999999996</ele><time>2026-04-17T14:21:09.167Z</time></trkpt><trkpt lat="45.9373547" lon="13.3632868"><ele>38.0</ele><time>2026-04-17T14:21:10.167Z</time></trkpt><trkpt lat="45.9373239" lon="13.3634434"><ele>38.0</ele><time>2026-04-17T14:21:11.168Z</time></trkpt><trkpt lat="45.9372968" lon="13.3635864"><ele>38.0</ele><time>2026-04-17T14:21:12.168Z</time></trkpt><trkpt lat="45.9372716" lon="13.3637053"><ele>38.0</ele><time>2026-04-17T14:21:13.167Z</time></trkpt><trkpt lat="45.9372245" lon="13.3639075"><ele>38.0</ele><time>2026-04-17T14:21:15.167Z</time></trkpt><trkpt lat="45.9372204" lon="13.3640196"><ele>38.0</ele><time>2026-04-17T14:21:16.168Z</time></trkpt><trkpt lat="45.9372407" lon="13.3641258"><ele>38.5</ele><time>2026-04-17T14:21:17.168Z</time></trkpt><trkpt lat="45.9372761" lon="13.3642276"><ele>39.0</ele><time>2026-04-17T14:21:18.168Z</time></trkpt><trkpt lat="45.937316" lon="13.3643284"><ele>39.5</ele><time>2026-04-17T14:21:19.167Z</time></trkpt><trkpt lat="45.9373488" lon="13.3644207"><ele>40.0</ele><time>2026-04-17T14:21:20.168Z</time></trkpt><trkpt lat="45.9373743" lon="13.3645061"><ele>40.5</ele><time>2026-04-17T14:21:21.168Z</time></trkpt><trkpt lat="45.9374214" lon="13.3646374"><ele>41.0</ele><time>2026-04-17T14:21:23.168Z</time></trkpt><trkpt lat="45.9374576" lon="13.3647396"><ele>41.4</ele><time>2026-04-17T14:21:25.167Z</time></trkpt><trkpt lat="45.9374505" lon="13.3648517"><ele>41.8</ele><time>2026-04-17T14:21:28.168Z</time></trkpt><trkpt lat="45.9373549" lon="13.3648784"><ele>42.199999999999996</ele><time>2026-04-17T14:21:30.167Z</time></trkpt><trkpt lat="45.937267" lon="13.3648802"><ele>42.599999999999994</ele><time>2026-04-17T14:21:31.168Z</time></trkpt><trkpt lat="45.9371554" lon="13.3648803"><ele>43.0</ele><time>2026-04-17T14:21:32.168Z</time></trkpt><trkpt lat="45.9370088" lon="13.3648982"><ele>43.0</ele><time>2026-04-17T14:21:33.168Z</time></trkpt><trkpt lat="45.9368477" lon="13.3649294"><ele>43.0</ele><time>2026-04-17T14:21:34.167Z</time></trkpt><trkpt lat="45.9365033" lon="13.3649979"><ele>41.75</ele><time>2026-04-17T14:21:36.166Z</time></trkpt><trkpt lat="45.9363445" lon="13.3650301"><ele>40.5</ele><time>2026-04-17T14:21:37.167Z</time></trkpt><trkpt lat="45.9362037" lon="13.3650566"><ele>39.25</ele><time>2026-04-17T14:21:38.166Z</time></trkpt><trkpt lat="45.9360873" lon="13.3650752"><ele>38.0</ele><time>2026-04-17T14:21:39.166Z</time></trkpt><trkpt lat="45.9359969" lon="13.3651107"><ele>38.0</ele><time>2026-04-17T14:21:40.167Z</time></trkpt><trkpt lat="45.9359138" lon="13.3651546"><ele>38.0</ele><time>2026-04-17T14:21:41.167Z</time></trkpt><trkpt lat="45.935838" lon="13.3651929"><ele>38.0</ele><time>2026-04-17T14:21:42.167Z</time></trkpt><trkpt lat="45.9357444" lon="13.3652097"><ele>38.0</ele><time>2026-04-17T14:21:43.167Z</time></trkpt><trkpt lat="45.9356131" lon="13.3651971"><ele>38.0</ele><time>2026-04-17T14:21:44.167Z</time></trkpt><trkpt lat="45.9354607" lon="13.365201"><ele>37.666666666666664</ele><time>2026-04-17T14:21:45.166Z</time></trkpt><trkpt lat="45.9353002" lon="13.3652344"><ele>37.333333333333336</ele><time>2026-04-17T14:21:46.166Z</time></trkpt><trkpt lat="45.9351284" lon="13.3652779"><ele>37.0</ele><time>2026-04-17T14:21:47.167Z</time></trkpt><trkpt lat="45.9349498" lon="13.3653138"><ele>37.0</ele><time>2026-04-17T14:21:48.167Z</time></trkpt><trkpt lat="45.9347754" lon="13.365347"><ele>37.0</ele><time>2026-04-17T14:21:49.167Z</time></trkpt><trkpt lat="45.9345955" lon="13.3653735"><ele>37.0</ele><time>2026-04-17T14:21:50.167Z</time></trkpt><trkpt lat="45.9344228" lon="13.3653979"><ele>37.0</ele><time>2026-04-17T14:21:51.166Z</time></trkpt><trkpt lat="45.9342453" lon="13.3654291"><ele>37.0</ele><time>2026-04-17T14:21:52.167Z</time></trkpt><trkpt lat="45.934068" lon="13.3654608"><ele>37.0</ele><time>2026-04-17T14:21:53.167Z</time></trkpt><trkpt lat="45.9338862" lon="13.3654903"><ele>37.0</ele><time>2026-04-17T14:21:54.166Z</time></trkpt><trkpt lat="45.9337204" lon="13.3655265"><ele>37.0</ele><time>2026-04-17T14:21:55.167Z</time></trkpt><trkpt lat="45.9333789" lon="13.3656026"><ele>37.0</ele><time>2026-04-17T14:21:57.167Z</time></trkpt><trkpt lat="45.9332166" lon="13.3656567"><ele>37.0</ele><time>2026-04-17T14:21:58.167Z</time></trkpt><trkpt lat="45.9330619" lon="13.3657142"><ele>37.0</ele><time>2026-04-17T14:21:59.166Z</time></trkpt><trkpt lat="45.9329149" lon="13.3657849"><ele>37.0</ele><time>2026-04-17T14:22:00.167Z</time></trkpt><trkpt lat="45.9327742" lon="13.3658595"><ele>37.0</ele><time>2026-04-17T14:22:01.167Z</time></trkpt><trkpt lat="45.9326407" lon="13.3659282"><ele>37.0</ele><time>2026-04-17T14:22:02.167Z</time></trkpt><trkpt lat="45.9325205" lon="13.3659913"><ele>37.0</ele><time>2026-04-17T14:22:03.167Z</time></trkpt><trkpt lat="45.9324129" lon="13.3660443"><ele>37.0</ele><time>2026-04-17T14:22:04.166Z</time></trkpt><trkpt lat="45.9323106" lon="13.3661097"><ele>37.0</ele><time>2026-04-17T14:22:05.167Z</time></trkpt><trkpt lat="45.9322039" lon="13.366193"><ele>37.0</ele><time>2026-04-17T14:22:06.166Z</time></trkpt><trkpt lat="45.9320759" lon="13.3662995"><ele>37.0</ele><time>2026-04-17T14:22:07.166Z</time></trkpt><trkpt lat="45.9319374" lon="13.3664193"><ele>37.0</ele><time>2026-04-17T14:22:08.167Z</time></trkpt><trkpt lat="45.9317901" lon="13.3665416"><ele>37.0</ele><time>2026-04-17T14:22:09.167Z</time></trkpt><trkpt lat="45.931655" lon="13.3666674"><ele>37.0</ele><time>2026-04-17T14:22:10.166Z</time></trkpt><trkpt lat="45.9315235" lon="13.366792"><ele>37.0</ele><time>2026-04-17T14:22:11.166Z</time></trkpt><trkpt lat="45.9313998" lon="13.3669112"><ele>37.0</ele><time>2026-04-17T14:22:12.167Z</time></trkpt><trkpt lat="45.9312763" lon="13.3670333"><ele>37.0</ele><time>2026-04-17T14:22:13.167Z</time></trkpt><trkpt lat="45.9311544" lon="13.3671549"><ele>37.0</ele><time>2026-04-17T14:22:14.167Z</time></trkpt><trkpt lat="45.9310312" lon="13.367269"><ele>37.0</ele><time>2026-04-17T14:22:15.167Z</time></trkpt><trkpt lat="45.9309026" lon="13.3673758"><ele>37.0</ele><time>2026-04-17T14:22:16.166Z</time></trkpt><trkpt lat="45.9306294" lon="13.3676104"><ele>36.66666666666667</ele><time>2026-04-17T14:22:18.167Z</time></trkpt><trkpt lat="45.9304955" lon="13.367727"><ele>36.333333333333336</ele><time>2026-04-17T14:22:19.166Z</time></trkpt><trkpt lat="45.9303606" lon="13.3678486"><ele>36.0</ele><time>2026-04-17T14:22:20.167Z</time></trkpt><trkpt lat="45.930222" lon="13.3679893"><ele>36.0</ele><time>2026-04-17T14:22:21.167Z</time></trkpt><trkpt lat="45.9300804" lon="13.3681284"><ele>36.0</ele><time>2026-04-17T14:22:22.167Z</time></trkpt><trkpt lat="45.9299415" lon="13.3682542"><ele>36.0</ele><time>2026-04-17T14:22:23.166Z</time></trkpt><trkpt lat="45.9298083" lon="13.3683813"><ele>36.0</ele><time>2026-04-17T14:22:24.167Z</time></trkpt><trkpt lat="45.9296753" lon="13.3685091"><ele>36.0</ele><time>2026-04-17T14:22:25.167Z</time></trkpt><trkpt lat="45.9295436" lon="13.3686372"><ele>36.0</ele><time>2026-04-17T14:22:26.167Z</time></trkpt><trkpt lat="45.9294186" lon="13.3687693"><ele>36.0</ele><time>2026-04-17T14:22:27.166Z</time></trkpt><trkpt lat="45.929282" lon="13.3688986"><ele>36.0</ele><time>2026-04-17T14:22:28.167Z</time></trkpt><trkpt lat="45.929143" lon="13.3690253"><ele>36.0</ele><time>2026-04-17T14:22:29.166Z</time></trkpt><trkpt lat="45.9290113" lon="13.3691472"><ele>35.666666666666664</ele><time>2026-04-17T14:22:30.166Z</time></trkpt><trkpt lat="45.9288782" lon="13.3692647"><ele>35.33333333333333</ele><time>2026-04-17T14:22:31.167Z</time></trkpt><trkpt lat="45.9287392" lon="13.3693914"><ele>35.0</ele><time>2026-04-17T14:22:32.166Z</time></trkpt><trkpt lat="45.9286009" lon="13.3695124"><ele>35.0</ele><time>2026-04-17T14:22:33.167Z</time></trkpt><trkpt lat="45.9284694" lon="13.3696341"><ele>35.0</ele><time>2026-04-17T14:22:34.166Z</time></trkpt><trkpt lat="45.9283379" lon="13.3697584"><ele>35.0</ele><time>2026-04-17T14:22:35.166Z</time></trkpt><trkpt lat="45.9282032" lon="13.3698807"><ele>35.0</ele><time>2026-04-17T14:22:36.166Z</time></trkpt><trkpt lat="45.9280641" lon="13.3700117"><ele>35.0</ele><time>2026-04-17T14:22:37.167Z</time></trkpt><trkpt lat="45.9277967" lon="13.3702771"><ele>35.0</ele><time>2026-04-17T14:22:39.167Z</time></trkpt><trkpt lat="45.9276604" lon="13.3704068"><ele>35.0</ele><time>2026-04-17T14:22:40.167Z</time></trkpt><trkpt lat="45.9275266" lon="13.3705234"><ele>35.0</ele><time>2026-04-17T14:22:41.167Z</time></trkpt><trkpt lat="45.9273965" lon="13.3706444"><ele>35.25</ele><time>2026-04-17T14:22:42.166Z</time></trkpt><trkpt lat="45.9272693" lon="13.3707618"><ele>35.5</ele><time>2026-04-17T14:22:43.166Z</time></trkpt><trkpt lat="45.9271457" lon="13.3708775"><ele>35.75</ele><time>2026-04-17T14:22:44.167Z</time></trkpt><trkpt lat="45.927028" lon="13.3709757"><ele>36.0</ele><time>2026-04-17T14:22:45.166Z</time></trkpt><trkpt lat="45.9269271" lon="13.3710716"><ele>36.0</ele><time>2026-04-17T14:22:46.166Z</time></trkpt><trkpt lat="45.9268327" lon="13.3711601"><ele>36.0</ele><time>2026-04-17T14:22:47.167Z</time></trkpt><trkpt lat="45.9267491" lon="13.3712442"><ele>36.0</ele><time>2026-04-17T14:22:48.167Z</time></trkpt><trkpt lat="45.9266693" lon="13.3713189"><ele>36.0</ele><time>2026-04-17T14:22:49.166Z</time></trkpt><trkpt lat="45.9265965" lon="13.3713844"><ele>36.0</ele><time>2026-04-17T14:22:50.166Z</time></trkpt><trkpt lat="45.9265264" lon="13.3714599"><ele>36.2</ele><time>2026-04-17T14:22:51.166Z</time></trkpt><trkpt lat="45.9264502" lon="13.3715366"><ele>36.400000000000006</ele><time>2026-04-17T14:22:52.166Z</time></trkpt><trkpt lat="45.9263722" lon="13.3716085"><ele>36.6</ele><time>2026-04-17T14:22:53.167Z</time></trkpt><trkpt lat="45.9262935" lon="13.3716774"><ele>36.800000000000004</ele><time>2026-04-17T14:22:54.167Z</time></trkpt><trkpt lat="45.9262118" lon="13.3717426"><ele>37.0</ele><time>2026-04-17T14:22:55.167Z</time></trkpt><trkpt lat="45.9261371" lon="13.3718058"><ele>37.0</ele><time>2026-04-17T14:22:56.167Z</time></trkpt><trkpt lat="45.9260613" lon="13.3718635"><ele>37.0</ele><time>2026-04-17T14:22:57.167Z</time></trkpt><trkpt lat="45.9259907" lon="13.3719236"><ele>37.0</ele><time>2026-04-17T14:22:58.167Z</time></trkpt><trkpt lat="45.9258406" lon="13.3720715"><ele>37.0</ele><time>2026-04-17T14:23:00.167Z</time></trkpt><trkpt lat="45.9257636" lon="13.3721347"><ele>37.0</ele><time>2026-04-17T14:23:01.167Z</time></trkpt><trkpt lat="45.9256849" lon="13.3721991"><ele>36.800000000000004</ele><time>2026-04-17T14:23:02.167Z</time></trkpt><trkpt lat="45.9256034" lon="13.3722777"><ele>36.6</ele><time>2026-04-17T14:23:03.167Z</time></trkpt><trkpt lat="45.9255159" lon="13.3723596"><ele>36.400000000000006</ele><time>2026-04-17T14:23:04.167Z</time></trkpt><trkpt lat="45.9254247" lon="13.3724438"><ele>36.2</ele><time>2026-04-17T14:23:05.166Z</time></trkpt><trkpt lat="45.9253339" lon="13.3725279"><ele>36.0</ele><time>2026-04-17T14:23:06.167Z</time></trkpt><trkpt lat="45.9252456" lon="13.3726053"><ele>36.0</ele><time>2026-04-17T14:23:07.167Z</time></trkpt><trkpt lat="45.925164" lon="13.3726867"><ele>36.0</ele><time>2026-04-17T14:23:08.167Z</time></trkpt><trkpt lat="45.9250779" lon="13.3727746"><ele>36.0</ele><time>2026-04-17T14:23:09.167Z</time></trkpt><trkpt lat="45.9249941" lon="13.3728587"><ele>36.0</ele><time>2026-04-17T14:23:10.166Z</time></trkpt><trkpt lat="45.9249184" lon="13.3729434"><ele>36.0</ele><time>2026-04-17T14:23:11.167Z</time></trkpt><trkpt lat="45.9248496" lon="13.3730303"><ele>36.0</ele><time>2026-04-17T14:23:12.166Z</time></trkpt><trkpt lat="45.9247726" lon="13.3731243"><ele>36.0</ele><time>2026-04-17T14:23:13.167Z</time></trkpt><trkpt lat="45.9246909" lon="13.3732036"><ele>36.0</ele><time>2026-04-17T14:23:14.166Z</time></trkpt><trkpt lat="45.9246054" lon="13.3732849"><ele>36.0</ele><time>2026-04-17T14:23:15.167Z</time></trkpt><trkpt lat="45.9245184" lon="13.3733609"><ele>36.0</ele><time>2026-04-17T14:23:16.166Z</time></trkpt><trkpt lat="45.9244386" lon="13.3734474"><ele>36.0</ele><time>2026-04-17T14:23:17.167Z</time></trkpt><trkpt lat="45.9243692" lon="13.3735563"><ele>36.0</ele><time>2026-04-17T14:23:18.167Z</time></trkpt><trkpt lat="45.9243019" lon="13.3736758"><ele>36.0</ele><time>2026-04-17T14:23:19.167Z</time></trkpt><trkpt lat="45.924161" lon="13.3739301"><ele>36.0</ele><time>2026-04-17T14:23:21.166Z</time></trkpt><trkpt lat="45.9240948" lon="13.3740521"><ele>36.5</ele><time>2026-04-17T14:23:22.167Z</time></trkpt><trkpt lat="45.924034" lon="13.3741875"><ele>37.0</ele><time>2026-04-17T14:23:23.167Z</time></trkpt><trkpt lat="45.9239832" lon="13.3743414"><ele>37.5</ele><time>2026-04-17T14:23:24.166Z</time></trkpt><trkpt lat="45.92393" lon="13.3744835"><ele>38.0</ele><time>2026-04-17T14:23:25.167Z</time></trkpt><trkpt lat="45.9238782" lon="13.3746265"><ele>38.199999999999996</ele><time>2026-04-17T14:23:26.167Z</time></trkpt><trkpt lat="45.9238356" lon="13.3747757"><ele>38.4</ele><time>2026-04-17T14:23:27.166Z</time></trkpt><trkpt lat="45.9237892" lon="13.3749235"><ele>38.599999999999994</ele><time>2026-04-17T14:23:28.167Z</time></trkpt><trkpt lat="45.9237416" lon="13.3750664"><ele>38.8</ele><time>2026-04-17T14:23:29.167Z</time></trkpt><trkpt lat="45.9237043" lon="13.3752041"><ele>39.0</ele><time>2026-04-17T14:23:30.167Z</time></trkpt><trkpt lat="45.9236725" lon="13.3753197"><ele>39.0</ele><time>2026-04-17T14:23:31.167Z</time></trkpt><trkpt lat="45.9236426" lon="13.3754172"><ele>39.0</ele><time>2026-04-17T14:23:32.167Z</time></trkpt><trkpt lat="45.9235986" lon="13.3755676"><ele>39.0</ele><time>2026-04-17T14:23:34.167Z</time></trkpt><trkpt lat="45.9235955" lon="13.375671"><ele>39.0</ele><time>2026-04-17T14:23:36.167Z</time></trkpt><trkpt lat="45.9236066" lon="13.3757729"><ele>39.0</ele><time>2026-04-17T14:23:38.166Z</time></trkpt><trkpt lat="45.9236309" lon="13.3758873"><ele>39.0</ele><time>2026-04-17T14:23:40.166Z</time></trkpt><trkpt lat="45.9236417" lon="13.376092"><ele>38.666666666666664</ele><time>2026-04-17T14:23:46.167Z</time></trkpt><trkpt lat="45.9235467" lon="13.3760662"><ele>38.333333333333336</ele><time>2026-04-17T14:23:49.167Z</time></trkpt><trkpt lat="45.9234521" lon="13.3760941"><ele>38.0</ele><time>2026-04-17T14:23:51.167Z</time></trkpt><trkpt lat="45.9233822" lon="13.3761089"><ele>37.66666666666667</ele><time>2026-04-17T14:23:52.166Z</time></trkpt><trkpt lat="45.9233251" lon="13.3761537"><ele>37.333333333333336</ele><time>2026-04-17T14:23:53.166Z</time></trkpt><trkpt lat="45.9232594" lon="13.3762344"><ele>37.0</ele><time>2026-04-17T14:23:54.167Z</time></trkpt><trkpt lat="45.9231788" lon="13.376332"><ele>36.4</ele><time>2026-04-17T14:23:55.166Z</time></trkpt><trkpt lat="45.9230959" lon="13.3764342"><ele>35.800000000000004</ele><time>2026-04-17T14:23:56.167Z</time></trkpt><trkpt lat="45.9230139" lon="13.3765016"><ele>35.2</ele><time>2026-04-17T14:23:57.167Z</time></trkpt><trkpt lat="45.9229342" lon="13.37655"><ele>34.6</ele><time>2026-04-17T14:23:58.166Z</time></trkpt><trkpt lat="45.9228704" lon="13.3765919"><ele>34.0</ele><time>2026-04-17T14:23:59.166Z</time></trkpt><trkpt lat="45.9227815" lon="13.3766428"><ele>34.0</ele><time>2026-04-17T14:24:01.167Z</time></trkpt><trkpt lat="45.9226597" lon="13.3764458"><ele>34.0</ele><time>2026-04-17T14:24:04.167Z</time></trkpt><trkpt lat="45.9226103" lon="13.3763143"><ele>34.0</ele><time>2026-04-17T14:24:05.167Z</time></trkpt><trkpt lat="45.9225657" lon="13.3761839"><ele>34.0</ele><time>2026-04-17T14:24:06.166Z</time></trkpt><trkpt lat="45.9225266" lon="13.3760787"><ele>33.66666666666667</ele><time>2026-04-17T14:24:07.166Z</time></trkpt><trkpt lat="45.9224913" lon="13.3759782"><ele>33.333333333333336</ele><time>2026-04-17T14:24:08.167Z</time></trkpt><trkpt lat="45.922457" lon="13.3758859"><ele>33.0</ele><time>2026-04-17T14:24:09.167Z</time></trkpt><trkpt lat="45.922425" lon="13.375799"><ele>32.666666666666664</ele><time>2026-04-17T14:24:10.167Z</time></trkpt><trkpt lat="45.9223942" lon="13.3756937"><ele>32.33333333333333</ele><time>2026-04-17T14:24:12.167Z</time></trkpt><trkpt lat="45.9224268" lon="13.3758629"><ele>32.0</ele><time>2026-04-17T14:24:20.166Z</time></trkpt><trkpt lat="45.9224844" lon="13.3759819"><ele>32.0</ele><time>2026-04-17T14:24:21.167Z</time></trkpt><trkpt lat="45.9225529" lon="13.3761287"><ele>32.0</ele><time>2026-04-17T14:24:22.167Z</time></trkpt><trkpt lat="45.922662" lon="13.3763877"><ele>32.0</ele><time>2026-04-17T14:24:24.167Z</time></trkpt><trkpt lat="45.9227072" lon="13.3764961"><ele>32.0</ele><time>2026-04-17T14:24:25.167Z</time></trkpt><trkpt lat="45.9227503" lon="13.3766192"><ele>31.8</ele><time>2026-04-17T14:24:27.167Z</time></trkpt><trkpt lat="45.922696" lon="13.3767358"><ele>31.6</ele><time>2026-04-17T14:24:38.166Z</time></trkpt><trkpt lat="45.9226134" lon="13.3767863"><ele>31.400000000000002</ele><time>2026-04-17T14:24:39.167Z</time></trkpt><trkpt lat="45.9225043" lon="13.3768592"><ele>31.200000000000003</ele><time>2026-04-17T14:24:40.167Z</time></trkpt><trkpt lat="45.922383" lon="13.3769439"><ele>31.0</ele><time>2026-04-17T14:24:41.167Z</time></trkpt><trkpt lat="45.9222412" lon="13.3770303"><ele>31.0</ele><time>2026-04-17T14:24:42.167Z</time></trkpt><trkpt lat="45.9219347" lon="13.3771695"><ele>31.0</ele><time>2026-04-17T14:24:44.166Z</time></trkpt><trkpt lat="45.9217773" lon="13.3772318"><ele>31.0</ele><time>2026-04-17T14:24:45.167Z</time></trkpt><trkpt lat="45.9216246" lon="13.3772943"><ele>31.0</ele><time>2026-04-17T14:24:46.167Z</time></trkpt><trkpt lat="45.9214703" lon="13.3773623"><ele>31.0</ele><time>2026-04-17T14:24:47.167Z</time></trkpt><trkpt lat="45.921322" lon="13.3774329"><ele>31.0</ele><time>2026-04-17T14:24:48.167Z</time></trkpt><trkpt lat="45.9211737" lon="13.3774925"><ele>31.0</ele><time>2026-04-17T14:24:49.167Z</time></trkpt><trkpt lat="45.9210295" lon="13.3775547"><ele>31.0</ele><time>2026-04-17T14:24:50.167Z</time></trkpt><trkpt lat="45.9208818" lon="13.3776171"><ele>31.333333333333336</ele><time>2026-04-17T14:24:51.167Z</time></trkpt><trkpt lat="45.9207304" lon="13.3776762"><ele>31.666666666666664</ele><time>2026-04-17T14:24:52.167Z</time></trkpt><trkpt lat="45.9205758" lon="13.377746"><ele>32.0</ele><time>2026-04-17T14:24:53.167Z</time></trkpt><trkpt lat="45.9204191" lon="13.3778175"><ele>32.0</ele><time>2026-04-17T14:24:54.167Z</time></trkpt><trkpt lat="45.920264" lon="13.3778785"><ele>32.0</ele><time>2026-04-17T14:24:55.167Z</time></trkpt><trkpt lat="45.9201161" lon="13.3779422"><ele>32.0</ele><time>2026-04-17T14:24:56.166Z</time></trkpt><trkpt lat="45.919963" lon="13.37801"><ele>32.0</ele><time>2026-04-17T14:24:57.167Z</time></trkpt><trkpt lat="45.9198097" lon="13.3780769"><ele>32.0</ele><time>2026-04-17T14:24:58.166Z</time></trkpt><trkpt lat="45.9196536" lon="13.378145"><ele>32.0</ele><time>2026-04-17T14:24:59.167Z</time></trkpt><trkpt lat="45.9194985" lon="13.3782034"><ele>32.0</ele><time>2026-04-17T14:25:00.167Z</time></trkpt><trkpt lat="45.9193464" lon="13.3782674"><ele>32.0</ele><time>2026-04-17T14:25:01.167Z</time></trkpt><trkpt lat="45.9191909" lon="13.3783291"><ele>32.0</ele><time>2026-04-17T14:25:02.167Z</time></trkpt><trkpt lat="45.9190379" lon="13.3783939"><ele>31.0</ele><time>2026-04-17T14:25:03.167Z</time></trkpt><trkpt lat="45.9187447" lon="13.3785091"><ele>30.0</ele><time>2026-04-17T14:25:05.166Z</time></trkpt><trkpt lat="45.9186076" lon="13.3785645"><ele>29.0</ele><time>2026-04-17T14:25:06.167Z</time></trkpt><trkpt lat="45.9184824" lon="13.3786203"><ele>29.4</ele><time>2026-04-17T14:25:07.166Z</time></trkpt><trkpt lat="45.9183691" lon="13.3786704"><ele>29.799999999999997</ele><time>2026-04-17T14:25:08.166Z</time></trkpt><trkpt lat="45.918263" lon="13.3787098"><ele>30.200000000000003</ele><time>2026-04-17T14:25:09.167Z</time></trkpt><trkpt lat="45.9181675" lon="13.3787524"><ele>30.6</ele><time>2026-04-17T14:25:10.167Z</time></trkpt><trkpt lat="45.9180674" lon="13.3787935"><ele>31.0</ele><time>2026-04-17T14:25:11.167Z</time></trkpt><trkpt lat="45.9179662" lon="13.3788371"><ele>31.0</ele><time>2026-04-17T14:25:12.167Z</time></trkpt><trkpt lat="45.9178621" lon="13.3788831"><ele>31.0</ele><time>2026-04-17T14:25:13.167Z</time></trkpt><trkpt lat="45.9177503" lon="13.378927"><ele>31.0</ele><time>2026-04-17T14:25:14.167Z</time></trkpt><trkpt lat="45.9176305" lon="13.3789839"><ele>31.0</ele><time>2026-04-17T14:25:15.167Z</time></trkpt><trkpt lat="45.9175026" lon="13.3790383"><ele>31.0</ele><time>2026-04-17T14:25:16.167Z</time></trkpt><trkpt lat="45.9173693" lon="13.3790907"><ele>31.0</ele><time>2026-04-17T14:25:17.167Z</time></trkpt><trkpt lat="45.917234" lon="13.379147"><ele>31.0</ele><time>2026-04-17T14:25:18.166Z</time></trkpt><trkpt lat="45.9170941" lon="13.379201"><ele>31.0</ele><time>2026-04-17T14:25:19.167Z</time></trkpt><trkpt lat="45.9169537" lon="13.3792617"><ele>31.0</ele><time>2026-04-17T14:25:20.166Z</time></trkpt><trkpt lat="45.9168075" lon="13.3793234"><ele>31.0</ele><time>2026-04-17T14:25:21.166Z</time></trkpt><trkpt lat="45.9166629" lon="13.3793869"><ele>31.0</ele><time>2026-04-17T14:25:22.166Z</time></trkpt><trkpt lat="45.9165228" lon="13.3794485"><ele>31.333333333333336</ele><time>2026-04-17T14:25:23.166Z</time></trkpt><trkpt lat="45.9163835" lon="13.3795071"><ele>31.666666666666664</ele><time>2026-04-17T14:25:24.166Z</time></trkpt><trkpt lat="45.9161177" lon="13.3796236"><ele>32.0</ele><time>2026-04-17T14:25:26.166Z</time></trkpt><trkpt lat="45.9159918" lon="13.3796913"><ele>31.75</ele><time>2026-04-17T14:25:27.166Z</time></trkpt><trkpt lat="45.9158619" lon="13.3797691"><ele>31.5</ele><time>2026-04-17T14:25:28.167Z</time></trkpt><trkpt lat="45.9157241" lon="13.3798543"><ele>31.25</ele><time>2026-04-17T14:25:29.166Z</time></trkpt><trkpt lat="45.9155855" lon="13.3799458"><ele>31.0</ele><time>2026-04-17T14:25:30.166Z</time></trkpt><trkpt lat="45.915453" lon="13.3800324"><ele>31.0</ele><time>2026-04-17T14:25:31.166Z</time></trkpt><trkpt lat="45.9153295" lon="13.3801202"><ele>31.0</ele><time>2026-04-17T14:25:32.166Z</time></trkpt><trkpt lat="45.9152195" lon="13.3801996"><ele>31.0</ele><time>2026-04-17T14:25:33.167Z</time></trkpt><trkpt lat="45.9151268" lon="13.3802772"><ele>31.0</ele><time>2026-04-17T14:25:34.166Z</time></trkpt><trkpt lat="45.9150363" lon="13.3803544"><ele>31.0</ele><time>2026-04-17T14:25:35.167Z</time></trkpt><trkpt lat="45.9149368" lon="13.3804333"><ele>31.0</ele><time>2026-04-17T14:25:36.167Z</time></trkpt><trkpt lat="45.9148288" lon="13.3805181"><ele>31.0</ele><time>2026-04-17T14:25:37.167Z</time></trkpt><trkpt lat="45.9147178" lon="13.3806131"><ele>31.0</ele><time>2026-04-17T14:25:38.166Z</time></trkpt><trkpt lat="45.9145996" lon="13.3807147"><ele>31.0</ele><time>2026-04-17T14:25:39.166Z</time></trkpt><trkpt lat="45.9144805" lon="13.3808199"><ele>31.0</ele><time>2026-04-17T14:25:40.167Z</time></trkpt><trkpt lat="45.9143618" lon="13.3809393"><ele>31.0</ele><time>2026-04-17T14:25:41.167Z</time></trkpt><trkpt lat="45.9142401" lon="13.381058"><ele>31.0</ele><time>2026-04-17T14:25:42.167Z</time></trkpt><trkpt lat="45.9141123" lon="13.3811714"><ele>31.0</ele><time>2026-04-17T14:25:43.166Z</time></trkpt><trkpt lat="45.9139808" lon="13.3812921"><ele>31.0</ele><time>2026-04-17T14:25:44.167Z</time></trkpt><trkpt lat="45.9138489" lon="13.3814301"><ele>31.0</ele><time>2026-04-17T14:25:45.167Z</time></trkpt><trkpt lat="45.9135717" lon="13.381702"><ele>30.666666666666668</ele><time>2026-04-17T14:25:47.167Z</time></trkpt><trkpt lat="45.913431" lon="13.381844"><ele>30.333333333333336</ele><time>2026-04-17T14:25:48.166Z</time></trkpt><trkpt lat="45.9132884" lon="13.3819859"><ele>30.0</ele><time>2026-04-17T14:25:49.167Z</time></trkpt><trkpt lat="45.913151" lon="13.3821353"><ele>31.333333333333336</ele><time>2026-04-17T14:25:50.167Z</time></trkpt><trkpt lat="45.913004" lon="13.3822856"><ele>32.66666666666667</ele><time>2026-04-17T14:25:51.167Z</time></trkpt><trkpt lat="45.9128539" lon="13.3824404"><ele>34.0</ele><time>2026-04-17T14:25:52.167Z</time></trkpt><trkpt lat="45.9126966" lon="13.3825923"><ele>33.66666666666667</ele><time>2026-04-17T14:25:53.167Z</time></trkpt><trkpt lat="45.9125471" lon="13.3827289"><ele>33.333333333333336</ele><time>2026-04-17T14:25:54.167Z</time></trkpt><trkpt lat="45.9123944" lon="13.3828682"><ele>33.0</ele><time>2026-04-17T14:25:55.167Z</time></trkpt><trkpt lat="45.9122571" lon="13.3830077"><ele>33.0</ele><time>2026-04-17T14:25:56.166Z</time></trkpt><trkpt lat="45.9121099" lon="13.3831465"><ele>33.0</ele><time>2026-04-17T14:25:57.166Z</time></trkpt><trkpt lat="45.9119632" lon="13.3832779"><ele>33.0</ele><time>2026-04-17T14:25:58.167Z</time></trkpt><trkpt lat="45.9118147" lon="13.3834076"><ele>32.333333333333336</ele><time>2026-04-17T14:25:59.166Z</time></trkpt><trkpt lat="45.9116603" lon="13.3835279"><ele>31.666666666666668</ele><time>2026-04-17T14:26:00.166Z</time></trkpt><trkpt lat="45.9115021" lon="13.3836425"><ele>31.0</ele><time>2026-04-17T14:26:01.167Z</time></trkpt><trkpt lat="45.9113314" lon="13.3837475"><ele>31.0</ele><time>2026-04-17T14:26:02.167Z</time></trkpt><trkpt lat="45.9111516" lon="13.3838461"><ele>31.0</ele><time>2026-04-17T14:26:03.167Z</time></trkpt><trkpt lat="45.9109756" lon="13.3839404"><ele>31.0</ele><time>2026-04-17T14:26:04.166Z</time></trkpt><trkpt lat="45.9108001" lon="13.3840468"><ele>30.5</ele><time>2026-04-17T14:26:05.166Z</time></trkpt><trkpt lat="45.9106293" lon="13.3841343"><ele>30.0</ele><time>2026-04-17T14:26:06.167Z</time></trkpt><trkpt lat="45.9102799" lon="13.3843456"><ele>30.0</ele><time>2026-04-17T14:26:08.167Z</time></trkpt><trkpt lat="45.9101085" lon="13.3844527"><ele>30.0</ele><time>2026-04-17T14:26:09.166Z</time></trkpt><trkpt lat="45.9099427" lon="13.3845566"><ele>30.0</ele><time>2026-04-17T14:26:10.167Z</time></trkpt><trkpt lat="45.9097791" lon="13.3846515"><ele>30.0</ele><time>2026-04-17T14:26:11.167Z</time></trkpt><trkpt lat="45.9096161" lon="13.3847385"><ele>30.0</ele><time>2026-04-17T14:26:12.167Z</time></trkpt><trkpt lat="45.9094684" lon="13.384825"><ele>30.0</ele><time>2026-04-17T14:26:13.166Z</time></trkpt><trkpt lat="45.9093156" lon="13.3848976"><ele>30.0</ele><time>2026-04-17T14:26:14.166Z</time></trkpt><trkpt lat="45.9091671" lon="13.384979"><ele>30.0</ele><time>2026-04-17T14:26:15.167Z</time></trkpt><trkpt lat="45.9090184" lon="13.3850713"><ele>30.0</ele><time>2026-04-17T14:26:16.167Z</time></trkpt><trkpt lat="45.9088639" lon="13.385162"><ele>30.0</ele><time>2026-04-17T14:26:17.166Z</time></trkpt><trkpt lat="45.9087125" lon="13.3852497"><ele>30.0</ele><time>2026-04-17T14:26:18.165Z</time></trkpt><trkpt lat="45.9085585" lon="13.3853271"><ele>30.0</ele><time>2026-04-17T14:26:19.165Z</time></trkpt><trkpt lat="45.9084159" lon="13.3854049"><ele>30.25</ele><time>2026-04-17T14:26:20.166Z</time></trkpt><trkpt lat="45.9082905" lon="13.3854788"><ele>30.5</ele><time>2026-04-17T14:26:21.165Z</time></trkpt><trkpt lat="45.9081845" lon="13.3855492"><ele>30.75</ele><time>2026-04-17T14:26:22.166Z</time></trkpt><trkpt lat="45.9080808" lon="13.3856142"><ele>31.0</ele><time>2026-04-17T14:26:23.165Z</time></trkpt><trkpt lat="45.9079831" lon="13.3856679"><ele>31.0</ele><time>2026-04-17T14:26:24.166Z</time></trkpt><trkpt lat="45.9078912" lon="13.3857241"><ele>31.0</ele><time>2026-04-17T14:26:25.165Z</time></trkpt><trkpt lat="45.907801" lon="13.3857914"><ele>31.0</ele><time>2026-04-17T14:26:26.166Z</time></trkpt><trkpt lat="45.9077122" lon="13.3858644"><ele>31.0</ele><time>2026-04-17T14:26:27.166Z</time></trkpt><trkpt lat="45.9075573" lon="13.3859839"><ele>31.000000000000004</ele><time>2026-04-17T14:26:29.165Z</time></trkpt><trkpt lat="45.9074843" lon="13.386047"><ele>31.0</ele><time>2026-04-17T14:26:30.166Z</time></trkpt><trkpt lat="45.9074051" lon="13.386105"><ele>31.0</ele><time>2026-04-17T14:26:31.166Z</time></trkpt><trkpt lat="45.9073288" lon="13.3861651"><ele>31.0</ele><time>2026-04-17T14:26:32.165Z</time></trkpt><trkpt lat="45.9072571" lon="13.3862205"><ele>31.000000000000004</ele><time>2026-04-17T14:26:33.166Z</time></trkpt><trkpt lat="45.9071839" lon="13.386266"><ele>31.0</ele><time>2026-04-17T14:26:34.166Z</time></trkpt><trkpt lat="45.9071112" lon="13.3863089"><ele>31.166666666666668</ele><time>2026-04-17T14:26:35.166Z</time></trkpt><trkpt lat="45.9070337" lon="13.3863518"><ele>31.333333333333336</ele><time>2026-04-17T14:26:36.166Z</time></trkpt><trkpt lat="45.906949" lon="13.3863872"><ele>31.5</ele><time>2026-04-17T14:26:37.166Z</time></trkpt><trkpt lat="45.9068731" lon="13.3864103"><ele>31.666666666666664</ele><time>2026-04-17T14:26:38.165Z</time></trkpt><trkpt lat="45.9068108" lon="13.3864369"><ele>31.833333333333332</ele><time>2026-04-17T14:26:39.166Z</time></trkpt><trkpt lat="45.9067401" lon="13.3865042"><ele>32.0</ele><time>2026-04-17T14:26:41.166Z</time></trkpt><trkpt lat="45.9066846" lon="13.3864357"><ele>31.6</ele><time>2026-04-17T14:26:46.166Z</time></trkpt><trkpt lat="45.9066735" lon="13.3863195"><ele>31.200000000000003</ele><time>2026-04-17T14:26:49.166Z</time></trkpt><trkpt lat="45.9066438" lon="13.3860933"><ele>30.8</ele><time>2026-04-17T14:26:54.166Z</time></trkpt><trkpt lat="45.906582" lon="13.3860174"><ele>30.4</ele><time>2026-04-17T14:26:57.165Z</time></trkpt><trkpt lat="45.9064775" lon="13.3860701"><ele>30.0</ele><time>2026-04-17T14:27:14.166Z</time></trkpt><trkpt lat="45.9062988" lon="13.3861884"><ele>30.0</ele><time>2026-04-17T14:27:16.165Z</time></trkpt><trkpt lat="45.9061841" lon="13.3862659"><ele>30.0</ele><time>2026-04-17T14:27:17.166Z</time></trkpt><trkpt lat="45.9060641" lon="13.3863523"><ele>30.0</ele><time>2026-04-17T14:27:18.166Z</time></trkpt><trkpt lat="45.905928" lon="13.3864547"><ele>30.0</ele><time>2026-04-17T14:27:19.166Z</time></trkpt><trkpt lat="45.9057885" lon="13.3865682"><ele>29.333333333333336</ele><time>2026-04-17T14:27:20.165Z</time></trkpt><trkpt lat="45.9056479" lon="13.3867053"><ele>28.666666666666668</ele><time>2026-04-17T14:27:21.165Z</time></trkpt><trkpt lat="45.9055209" lon="13.3868566"><ele>28.0</ele><time>2026-04-17T14:27:22.166Z</time></trkpt><trkpt lat="45.9053967" lon="13.3870214"><ele>28.666666666666668</ele><time>2026-04-17T14:27:23.165Z</time></trkpt><trkpt lat="45.9052667" lon="13.3872091"><ele>29.333333333333336</ele><time>2026-04-17T14:27:24.166Z</time></trkpt><trkpt lat="45.9051426" lon="13.3874027"><ele>30.0</ele><time>2026-04-17T14:27:25.166Z</time></trkpt><trkpt lat="45.9050214" lon="13.3876013"><ele>28.666666666666664</ele><time>2026-04-17T14:27:26.166Z</time></trkpt><trkpt lat="45.9049039" lon="13.3877994"><ele>27.333333333333332</ele><time>2026-04-17T14:27:27.166Z</time></trkpt><trkpt lat="45.9047836" lon="13.3879841"><ele>26.0</ele><time>2026-04-17T14:27:28.166Z</time></trkpt><trkpt lat="45.9046718" lon="13.3881726"><ele>26.0</ele><time>2026-04-17T14:27:29.166Z</time></trkpt><trkpt lat="45.9045498" lon="13.3883616"><ele>26.0</ele><time>2026-04-17T14:27:30.166Z</time></trkpt><trkpt lat="45.9044306" lon="13.3885506"><ele>26.0</ele><time>2026-04-17T14:27:31.165Z</time></trkpt><trkpt lat="45.9043118" lon="13.3887509"><ele>26.333333333333332</ele><time>2026-04-17T14:27:32.166Z</time></trkpt><trkpt lat="45.9041889" lon="13.3889456"><ele>26.666666666666664</ele><time>2026-04-17T14:27:33.166Z</time></trkpt><trkpt lat="45.9040624" lon="13.3891486"><ele>27.0</ele><time>2026-04-17T14:27:34.166Z</time></trkpt><trkpt lat="45.9039373" lon="13.389343"><ele>26.5</ele><time>2026-04-17T14:27:35.166Z</time></trkpt><trkpt lat="45.9036868" lon="13.3897432"><ele>26.0</ele><time>2026-04-17T14:27:37.166Z</time></trkpt><trkpt lat="45.9035618" lon="13.3899527"><ele>26.0</ele><time>2026-04-17T14:27:38.165Z</time></trkpt><trkpt lat="45.9034355" lon="13.3901634"><ele>26.0</ele><time>2026-04-17T14:27:39.166Z</time></trkpt><trkpt lat="45.9033099" lon="13.3903787"><ele>26.0</ele><time>2026-04-17T14:27:40.166Z</time></trkpt><trkpt lat="45.9031808" lon="13.3905879"><ele>26.333333333333332</ele><time>2026-04-17T14:27:41.166Z</time></trkpt><trkpt lat="45.9030521" lon="13.3907939"><ele>26.666666666666664</ele><time>2026-04-17T14:27:42.166Z</time></trkpt><trkpt lat="45.9029212" lon="13.3910028"><ele>27.0</ele><time>2026-04-17T14:27:43.166Z</time></trkpt><trkpt lat="45.9027957" lon="13.391206"><ele>27.666666666666664</ele><time>2026-04-17T14:27:44.166Z</time></trkpt><trkpt lat="45.9026688" lon="13.3914018"><ele>28.333333333333332</ele><time>2026-04-17T14:27:45.165Z</time></trkpt><trkpt lat="45.9025451" lon="13.3915966"><ele>29.0</ele><time>2026-04-17T14:27:46.165Z</time></trkpt><trkpt lat="45.9024169" lon="13.391782"><ele>28.333333333333332</ele><time>2026-04-17T14:27:47.165Z</time></trkpt><trkpt lat="45.9022883" lon="13.3919564"><ele>27.666666666666664</ele><time>2026-04-17T14:27:48.165Z</time></trkpt><trkpt lat="45.9021518" lon="13.3921272"><ele>27.0</ele><time>2026-04-17T14:27:49.165Z</time></trkpt><trkpt lat="45.9020071" lon="13.3922971"><ele>27.0</ele><time>2026-04-17T14:27:50.165Z</time></trkpt><trkpt lat="45.901865" lon="13.3924712"><ele>27.0</ele><time>2026-04-17T14:27:51.165Z</time></trkpt><trkpt lat="45.9017204" lon="13.3926446"><ele>27.0</ele><time>2026-04-17T14:27:52.166Z</time></trkpt><trkpt lat="45.9015712" lon="13.3928167"><ele>27.333333333333336</ele><time>2026-04-17T14:27:53.165Z</time></trkpt><trkpt lat="45.9014253" lon="13.3929915"><ele>27.666666666666668</ele><time>2026-04-17T14:27:54.166Z</time></trkpt><trkpt lat="45.9012816" lon="13.393165"><ele>28.0</ele><time>2026-04-17T14:27:55.166Z</time></trkpt><trkpt lat="45.9011445" lon="13.3933437"><ele>28.0</ele><time>2026-04-17T14:27:56.166Z</time></trkpt><trkpt lat="45.9008907" lon="13.3937265"><ele>28.0</ele><time>2026-04-17T14:27:58.166Z</time></trkpt><trkpt lat="45.9007617" lon="13.393932"><ele>28.0</ele><time>2026-04-17T14:27:59.166Z</time></trkpt><trkpt lat="45.9006274" lon="13.3941474"><ele>28.0</ele><time>2026-04-17T14:28:00.166Z</time></trkpt><trkpt lat="45.900507" lon="13.3943628"><ele>28.0</ele><time>2026-04-17T14:28:01.166Z</time></trkpt><trkpt lat="45.9003881" lon="13.3945502"><ele>28.666666666666668</ele><time>2026-04-17T14:28:02.166Z</time></trkpt><trkpt lat="45.9002809" lon="13.3947208"><ele>29.333333333333336</ele><time>2026-04-17T14:28:03.166Z</time></trkpt><trkpt lat="45.9001658" lon="13.3948753"><ele>30.0</ele><time>2026-04-17T14:28:04.166Z</time></trkpt><trkpt lat="45.9000402" lon="13.3950238"><ele>30.0</ele><time>2026-04-17T14:28:05.165Z</time></trkpt><trkpt lat="45.8998952" lon="13.3951601"><ele>30.0</ele><time>2026-04-17T14:28:06.166Z</time></trkpt><trkpt lat="45.8997399" lon="13.3952904"><ele>30.0</ele><time>2026-04-17T14:28:07.166Z</time></trkpt><trkpt lat="45.8995706" lon="13.3954209"><ele>30.333333333333336</ele><time>2026-04-17T14:28:08.166Z</time></trkpt><trkpt lat="45.8994196" lon="13.3955317"><ele>30.666666666666668</ele><time>2026-04-17T14:28:09.165Z</time></trkpt><trkpt lat="45.8992442" lon="13.3956665"><ele>31.0</ele><time>2026-04-17T14:28:10.166Z</time></trkpt><trkpt lat="45.8990608" lon="13.3958085"><ele>29.666666666666668</ele><time>2026-04-17T14:28:11.166Z</time></trkpt><trkpt lat="45.8988801" lon="13.3959426"><ele>28.333333333333336</ele><time>2026-04-17T14:28:12.166Z</time></trkpt><trkpt lat="45.8987025" lon="13.3960736"><ele>27.0</ele><time>2026-04-17T14:28:13.166Z</time></trkpt><trkpt lat="45.8985313" lon="13.3961973"><ele>27.333333333333336</ele><time>2026-04-17T14:28:14.166Z</time></trkpt><trkpt lat="45.8983696" lon="13.396307"><ele>27.666666666666668</ele><time>2026-04-17T14:28:15.165Z</time></trkpt><trkpt lat="45.8982258" lon="13.3964188"><ele>28.0</ele><time>2026-04-17T14:28:16.165Z</time></trkpt><trkpt lat="45.8980965" lon="13.3965257"><ele>28.0</ele><time>2026-04-17T14:28:17.166Z</time></trkpt><trkpt lat="45.8978872" lon="13.3966972"><ele>28.0</ele><time>2026-04-17T14:28:19.166Z</time></trkpt><trkpt lat="45.8977914" lon="13.3967792"><ele>28.0</ele><time>2026-04-17T14:28:20.166Z</time></trkpt><trkpt lat="45.8976888" lon="13.396874"><ele>27.333333333333336</ele><time>2026-04-17T14:28:21.165Z</time></trkpt><trkpt lat="45.8975639" lon="13.3969657"><ele>26.666666666666664</ele><time>2026-04-17T14:28:22.166Z</time></trkpt><trkpt lat="45.8974188" lon="13.3970482"><ele>26.0</ele><time>2026-04-17T14:28:23.166Z</time></trkpt><trkpt lat="45.8972619" lon="13.3971537"><ele>26.0</ele><time>2026-04-17T14:28:24.166Z</time></trkpt><trkpt lat="45.8971039" lon="13.3972668"><ele>26.0</ele><time>2026-04-17T14:28:25.166Z</time></trkpt><trkpt lat="45.8969471" lon="13.3973942"><ele>26.0</ele><time>2026-04-17T14:28:26.166Z</time></trkpt><trkpt lat="45.8968004" lon="13.3975245"><ele>25.666666666666664</ele><time>2026-04-17T14:28:27.166Z</time></trkpt><trkpt lat="45.8966543" lon="13.3976372"><ele>25.333333333333336</ele><time>2026-04-17T14:28:28.166Z</time></trkpt><trkpt lat="45.8965078" lon="13.3977432"><ele>25.0</ele><time>2026-04-17T14:28:29.165Z</time></trkpt><trkpt lat="45.8963707" lon="13.3978531"><ele>25.0</ele><time>2026-04-17T14:28:30.165Z</time></trkpt><trkpt lat="45.8962471" lon="13.397956"><ele>25.0</ele><time>2026-04-17T14:28:31.165Z</time></trkpt><trkpt lat="45.8961314" lon="13.3980505"><ele>25.0</ele><time>2026-04-17T14:28:32.166Z</time></trkpt><trkpt lat="45.8960228" lon="13.39813"><ele>25.0</ele><time>2026-04-17T14:28:33.166Z</time></trkpt><trkpt lat="45.8959161" lon="13.3982011"><ele>25.0</ele><time>2026-04-17T14:28:34.165Z</time></trkpt><trkpt lat="45.8958121" lon="13.3982765"><ele>25.0</ele><time>2026-04-17T14:28:35.166Z</time></trkpt><trkpt lat="45.8957164" lon="13.3983586"><ele>25.0</ele><time>2026-04-17T14:28:36.165Z</time></trkpt><trkpt lat="45.8956384" lon="13.398431"><ele>25.0</ele><time>2026-04-17T14:28:37.166Z</time></trkpt><trkpt lat="45.895577" lon="13.3984877"><ele>25.0</ele><time>2026-04-17T14:28:38.166Z</time></trkpt><trkpt lat="45.8954326" lon="13.3985997"><ele>25.0</ele><time>2026-04-17T14:28:44.166Z</time></trkpt><trkpt lat="45.895325" lon="13.3986641"><ele>25.0</ele><time>2026-04-17T14:28:46.166Z</time></trkpt><trkpt lat="45.895264" lon="13.3987127"><ele>25.0</ele><time>2026-04-17T14:28:47.166Z</time></trkpt><trkpt lat="45.8951899" lon="13.3987689"><ele>25.0</ele><time>2026-04-17T14:28:48.165Z</time></trkpt><trkpt lat="45.8951127" lon="13.3988276"><ele>25.0</ele><time>2026-04-17T14:28:49.165Z</time></trkpt><trkpt lat="45.8950245" lon="13.3988928"><ele>24.5</ele><time>2026-04-17T14:28:50.166Z</time></trkpt><trkpt lat="45.8949204" lon="13.3989727"><ele>24.0</ele><time>2026-04-17T14:28:51.166Z</time></trkpt><trkpt lat="45.8948098" lon="13.3990543"><ele>23.5</ele><time>2026-04-17T14:28:52.166Z</time></trkpt><trkpt lat="45.894691" lon="13.3991452"><ele>23.0</ele><time>2026-04-17T14:28:53.166Z</time></trkpt><trkpt lat="45.8945645" lon="13.3992465"><ele>23.0</ele><time>2026-04-17T14:28:54.166Z</time></trkpt><trkpt lat="45.8944336" lon="13.3993534"><ele>23.0</ele><time>2026-04-17T14:28:55.166Z</time></trkpt><trkpt lat="45.8942971" lon="13.3994608"><ele>23.0</ele><time>2026-04-17T14:28:56.165Z</time></trkpt><trkpt lat="45.8941586" lon="13.3995679"><ele>23.0</ele><time>2026-04-17T14:28:57.166Z</time></trkpt><trkpt lat="45.8940211" lon="13.3996758"><ele>23.0</ele><time>2026-04-17T14:28:58.166Z</time></trkpt><trkpt lat="45.8938679" lon="13.3997805"><ele>23.0</ele><time>2026-04-17T14:28:59.166Z</time></trkpt><trkpt lat="45.8935749" lon="13.4000016"><ele>23.0</ele><time>2026-04-17T14:29:01.165Z</time></trkpt><trkpt lat="45.8934433" lon="13.400094"><ele>23.0</ele><time>2026-04-17T14:29:02.166Z</time></trkpt><trkpt lat="45.8933253" lon="13.4001747"><ele>23.0</ele><time>2026-04-17T14:29:03.166Z</time></trkpt><trkpt lat="45.8932157" lon="13.4002562"><ele>23.0</ele><time>2026-04-17T14:29:04.166Z</time></trkpt><trkpt lat="45.8931126" lon="13.4003335"><ele>23.166666666666668</ele><time>2026-04-17T14:29:05.165Z</time></trkpt><trkpt lat="45.8930172" lon="13.4003956"><ele>23.333333333333336</ele><time>2026-04-17T14:29:06.166Z</time></trkpt><trkpt lat="45.8929392" lon="13.4004319"><ele>23.5</ele><time>2026-04-17T14:29:07.166Z</time></trkpt><trkpt lat="45.8928775" lon="13.4004499"><ele>23.666666666666668</ele><time>2026-04-17T14:29:08.166Z</time></trkpt><trkpt lat="45.8927849" lon="13.4004714"><ele>23.833333333333332</ele><time>2026-04-17T14:29:10.166Z</time></trkpt><trkpt lat="45.8927118" lon="13.4004948"><ele>24.0</ele><time>2026-04-17T14:29:12.165Z</time></trkpt><trkpt lat="45.892636" lon="13.4005645"><ele>24.0</ele><time>2026-04-17T14:29:14.165Z</time></trkpt><trkpt lat="45.8925452" lon="13.4006529"><ele>24.0</ele><time>2026-04-17T14:29:16.166Z</time></trkpt><trkpt lat="45.8924564" lon="13.4007468"><ele>24.0</ele><time>2026-04-17T14:29:18.166Z</time></trkpt><trkpt lat="45.8923765" lon="13.4008556"><ele>24.0</ele><time>2026-04-17T14:29:20.166Z</time></trkpt><trkpt lat="45.8923276" lon="13.4011161"><ele>24.0</ele><time>2026-04-17T14:29:24.166Z</time></trkpt><trkpt lat="45.8923388" lon="13.4012313"><ele>24.0</ele><time>2026-04-17T14:29:25.166Z</time></trkpt><trkpt lat="45.8923502" lon="13.4013601"><ele>24.0</ele><time>2026-04-17T14:29:26.166Z</time></trkpt><trkpt lat="45.8923527" lon="13.4015067"><ele>24.0</ele><time>2026-04-17T14:29:27.166Z</time></trkpt><trkpt lat="45.8923414" lon="13.4016655"><ele>24.0</ele><time>2026-04-17T14:29:28.166Z</time></trkpt><trkpt lat="45.8923139" lon="13.4018406"><ele>24.0</ele><time>2026-04-17T14:29:29.166Z</time></trkpt><trkpt lat="45.8922726" lon="13.4020287"><ele>24.0</ele><time>2026-04-17T14:29:30.166Z</time></trkpt><trkpt lat="45.8922373" lon="13.4022304"><ele>24.0</ele><time>2026-04-17T14:29:31.166Z</time></trkpt><trkpt lat="45.8922023" lon="13.4024396"><ele>24.0</ele><time>2026-04-17T14:29:32.166Z</time></trkpt><trkpt lat="45.8921611" lon="13.4026534"><ele>24.0</ele><time>2026-04-17T14:29:33.166Z</time></trkpt><trkpt lat="45.8921102" lon="13.4028803"><ele>24.0</ele><time>2026-04-17T14:29:34.166Z</time></trkpt><trkpt lat="45.8920655" lon="13.4031052"><ele>24.0</ele><time>2026-04-17T14:29:35.166Z</time></trkpt><trkpt lat="45.8920292" lon="13.4033372"><ele>23.666666666666668</ele><time>2026-04-17T14:29:36.166Z</time></trkpt><trkpt lat="45.8919881" lon="13.4035814"><ele>23.333333333333336</ele><time>2026-04-17T14:29:37.165Z</time></trkpt><trkpt lat="45.8919408" lon="13.4038314"><ele>23.0</ele><time>2026-04-17T14:29:38.166Z</time></trkpt><trkpt lat="45.8918849" lon="13.4040779"><ele>23.0</ele><time>2026-04-17T14:29:39.166Z</time></trkpt><trkpt lat="45.8918311" lon="13.4043334"><ele>23.0</ele><time>2026-04-17T14:29:40.166Z</time></trkpt><trkpt lat="45.891779" lon="13.4045961"><ele>23.0</ele><time>2026-04-17T14:29:41.166Z</time></trkpt><trkpt lat="45.8916785" lon="13.4051186"><ele>23.0</ele><time>2026-04-17T14:29:43.166Z</time></trkpt><trkpt lat="45.8916285" lon="13.4053733"><ele>23.0</ele><time>2026-04-17T14:29:44.166Z</time></trkpt><trkpt lat="45.891586" lon="13.405612"><ele>23.0</ele><time>2026-04-17T14:29:45.166Z</time></trkpt><trkpt lat="45.8915507" lon="13.4058212"><ele>23.2</ele><time>2026-04-17T14:29:46.166Z</time></trkpt><trkpt lat="45.8915161" lon="13.4060037"><ele>23.4</ele><time>2026-04-17T14:29:47.166Z</time></trkpt><trkpt lat="45.8914898" lon="13.406154"><ele>23.599999999999998</ele><time>2026-04-17T14:29:48.166Z</time></trkpt><trkpt lat="45.8914757" lon="13.4062829"><ele>23.799999999999997</ele><time>2026-04-17T14:29:49.166Z</time></trkpt><trkpt lat="45.8914712" lon="13.4063862"><ele>24.0</ele><time>2026-04-17T14:29:50.165Z</time></trkpt><trkpt lat="45.8914195" lon="13.4065237"><ele>24.25</ele><time>2026-04-17T14:29:52.166Z</time></trkpt><trkpt lat="45.891281" lon="13.4066116"><ele>24.5</ele><time>2026-04-17T14:29:54.166Z</time></trkpt><trkpt lat="45.891154" lon="13.40666"><ele>24.75</ele><time>2026-04-17T14:29:55.165Z</time></trkpt><trkpt lat="45.890997" lon="13.4067388"><ele>25.0</ele><time>2026-04-17T14:29:56.165Z</time></trkpt><trkpt lat="45.8908343" lon="13.4068387"><ele>25.0</ele><time>2026-04-17T14:29:57.166Z</time></trkpt><trkpt lat="45.890672" lon="13.4069556"><ele>25.0</ele><time>2026-04-17T14:29:58.166Z</time></trkpt><trkpt lat="45.8904987" lon="13.4070664"><ele>25.0</ele><time>2026-04-17T14:29:59.166Z</time></trkpt><trkpt lat="45.8903204" lon="13.4071805"><ele>24.666666666666668</ele><time>2026-04-17T14:30:00.166Z</time></trkpt><trkpt lat="45.8901324" lon="13.407289"><ele>24.333333333333336</ele><time>2026-04-17T14:30:01.165Z</time></trkpt><trkpt lat="45.8899386" lon="13.4073754"><ele>24.0</ele><time>2026-04-17T14:30:02.166Z</time></trkpt><trkpt lat="45.889526" lon="13.4075794"><ele>23.333333333333332</ele><time>2026-04-17T14:30:04.166Z</time></trkpt><trkpt lat="45.8893189" lon="13.4076563"><ele>22.666666666666664</ele><time>2026-04-17T14:30:05.165Z</time></trkpt><trkpt lat="45.889112" lon="13.4077429"><ele>22.0</ele><time>2026-04-17T14:30:06.165Z</time></trkpt><trkpt lat="45.8889009" lon="13.4078227"><ele>22.0</ele><time>2026-04-17T14:30:07.165Z</time></trkpt><trkpt lat="45.8886934" lon="13.4079049"><ele>22.0</ele><time>2026-04-17T14:30:08.166Z</time></trkpt><trkpt lat="45.8884836" lon="13.4079901"><ele>22.0</ele><time>2026-04-17T14:30:09.166Z</time></trkpt><trkpt lat="45.8882785" lon="13.4080823"><ele>22.0</ele><time>2026-04-17T14:30:10.166Z</time></trkpt><trkpt lat="45.8880733" lon="13.4081732"><ele>22.0</ele><time>2026-04-17T14:30:11.166Z</time></trkpt><trkpt lat="45.8878685" lon="13.4082529"><ele>22.0</ele><time>2026-04-17T14:30:12.166Z</time></trkpt><trkpt lat="45.8876678" lon="13.4083389"><ele>21.666666666666664</ele><time>2026-04-17T14:30:13.166Z</time></trkpt><trkpt lat="45.8874666" lon="13.4084296"><ele>21.333333333333332</ele><time>2026-04-17T14:30:14.166Z</time></trkpt><trkpt lat="45.8872718" lon="13.4085159"><ele>21.0</ele><time>2026-04-17T14:30:15.165Z</time></trkpt><trkpt lat="45.8870877" lon="13.4085957"><ele>21.0</ele><time>2026-04-17T14:30:16.166Z</time></trkpt><trkpt lat="45.8869073" lon="13.4086647"><ele>21.0</ele><time>2026-04-17T14:30:17.166Z</time></trkpt><trkpt lat="45.886736" lon="13.4087162"><ele>21.0</ele><time>2026-04-17T14:30:18.165Z</time></trkpt><trkpt lat="45.8865649" lon="13.4087284"><ele>20.666666666666668</ele><time>2026-04-17T14:30:19.166Z</time></trkpt><trkpt lat="45.8863932" lon="13.4086989"><ele>20.333333333333336</ele><time>2026-04-17T14:30:20.165Z</time></trkpt><trkpt lat="45.8862324" lon="13.4086154"><ele>20.0</ele><time>2026-04-17T14:30:21.166Z</time></trkpt><trkpt lat="45.8860761" lon="13.4084895"><ele>20.0</ele><time>2026-04-17T14:30:22.165Z</time></trkpt><trkpt lat="45.8859285" lon="13.4083752"><ele>20.0</ele><time>2026-04-17T14:30:23.165Z</time></trkpt><trkpt lat="45.8856422" lon="13.4082094"><ele>19.5</ele><time>2026-04-17T14:30:25.166Z</time></trkpt><trkpt lat="45.8855222" lon="13.4081718"><ele>19.0</ele><time>2026-04-17T14:30:26.166Z</time></trkpt><trkpt lat="45.8854015" lon="13.4081617"><ele>18.5</ele><time>2026-04-17T14:30:27.166Z</time></trkpt><trkpt lat="45.8852834" lon="13.4081879"><ele>18.0</ele><time>2026-04-17T14:30:28.165Z</time></trkpt><trkpt lat="45.8851588" lon="13.4082513"><ele>18.0</ele><time>2026-04-17T14:30:29.166Z</time></trkpt><trkpt lat="45.8850278" lon="13.4083631"><ele>18.0</ele><time>2026-04-17T14:30:30.166Z</time></trkpt><trkpt lat="45.8848898" lon="13.4084926"><ele>18.0</ele><time>2026-04-17T14:30:31.166Z</time></trkpt><trkpt lat="45.8847447" lon="13.408613"><ele>18.0</ele><time>2026-04-17T14:30:32.165Z</time></trkpt><trkpt lat="45.8845941" lon="13.4087483"><ele>18.0</ele><time>2026-04-17T14:30:33.166Z</time></trkpt><trkpt lat="45.8844458" lon="13.4088837"><ele>18.0</ele><time>2026-04-17T14:30:34.165Z</time></trkpt><trkpt lat="45.8843066" lon="13.4090142"><ele>18.5</ele><time>2026-04-17T14:30:35.166Z</time></trkpt><trkpt lat="45.8841807" lon="13.4091234"><ele>19.0</ele><time>2026-04-17T14:30:36.165Z</time></trkpt><trkpt lat="45.8840731" lon="13.4092158"><ele>19.5</ele><time>2026-04-17T14:30:37.166Z</time></trkpt><trkpt lat="45.8839835" lon="13.4093022"><ele>20.0</ele><time>2026-04-17T14:30:38.166Z</time></trkpt><trkpt lat="45.8839115" lon="13.4093816"><ele>20.0</ele><time>2026-04-17T14:30:39.165Z</time></trkpt><trkpt lat="45.883832" lon="13.4094563"><ele>20.0</ele><time>2026-04-17T14:30:40.166Z</time></trkpt><trkpt lat="45.8837408" lon="13.4095223"><ele>20.0</ele><time>2026-04-17T14:30:41.166Z</time></trkpt><trkpt lat="45.8836387" lon="13.4095871"><ele>20.0</ele><time>2026-04-17T14:30:42.165Z</time></trkpt><trkpt lat="45.8835147" lon="13.4096825"><ele>20.0</ele><time>2026-04-17T14:30:43.166Z</time></trkpt><trkpt lat="45.8833832" lon="13.4097922"><ele>19.5</ele><time>2026-04-17T14:30:44.165Z</time></trkpt><trkpt lat="45.8830915" lon="13.4100253"><ele>19.0</ele><time>2026-04-17T14:30:46.166Z</time></trkpt><trkpt lat="45.8829329" lon="13.4101459"><ele>19.0</ele><time>2026-04-17T14:30:47.166Z</time></trkpt><trkpt lat="45.8827697" lon="13.4102756"><ele>19.0</ele><time>2026-04-17T14:30:48.166Z</time></trkpt><trkpt lat="45.882606" lon="13.4104003"><ele>19.0</ele><time>2026-04-17T14:30:49.166Z</time></trkpt><trkpt lat="45.8824391" lon="13.4105249"><ele>18.666666666666664</ele><time>2026-04-17T14:30:50.165Z</time></trkpt><trkpt lat="45.8822761" lon="13.4106419"><ele>18.333333333333332</ele><time>2026-04-17T14:30:51.166Z</time></trkpt><trkpt lat="45.8821103" lon="13.4107603"><ele>18.0</ele><time>2026-04-17T14:30:52.166Z</time></trkpt><trkpt lat="45.881948" lon="13.4108728"><ele>18.0</ele><time>2026-04-17T14:30:53.165Z</time></trkpt><trkpt lat="45.8817881" lon="13.4109873"><ele>18.0</ele><time>2026-04-17T14:30:54.166Z</time></trkpt><trkpt lat="45.8816224" lon="13.4110909"><ele>18.0</ele><time>2026-04-17T14:30:55.165Z</time></trkpt><trkpt lat="45.8814499" lon="13.4111959"><ele>18.0</ele><time>2026-04-17T14:30:56.166Z</time></trkpt><trkpt lat="45.8812792" lon="13.4112862"><ele>18.0</ele><time>2026-04-17T14:30:57.166Z</time></trkpt><trkpt lat="45.8811086" lon="13.4113673"><ele>18.0</ele><time>2026-04-17T14:30:58.166Z</time></trkpt><trkpt lat="45.8809345" lon="13.4114493"><ele>19.0</ele><time>2026-04-17T14:30:59.166Z</time></trkpt><trkpt lat="45.8807621" lon="13.4115122"><ele>20.0</ele><time>2026-04-17T14:31:00.165Z</time></trkpt><trkpt lat="45.880588" lon="13.41158"><ele>21.0</ele><time>2026-04-17T14:31:01.165Z</time></trkpt><trkpt lat="45.8804169" lon="13.411647"><ele>21.0</ele><time>2026-04-17T14:31:02.165Z</time></trkpt><trkpt lat="45.880251" lon="13.4117168"><ele>21.0</ele><time>2026-04-17T14:31:03.164Z</time></trkpt><trkpt lat="45.8800986" lon="13.411765"><ele>21.0</ele><time>2026-04-17T14:31:04.165Z</time></trkpt><trkpt lat="45.879954" lon="13.411808"><ele>19.666666666666668</ele><time>2026-04-17T14:31:05.165Z</time></trkpt><trkpt lat="45.8796883" lon="13.4118826"><ele>18.333333333333336</ele><time>2026-04-17T14:31:07.165Z</time></trkpt><trkpt lat="45.8795692" lon="13.4119173"><ele>17.0</ele><time>2026-04-17T14:31:08.164Z</time></trkpt><trkpt lat="45.8794693" lon="13.4119531"><ele>17.0</ele><time>2026-04-17T14:31:09.165Z</time></trkpt><trkpt lat="45.8793799" lon="13.4119921"><ele>17.0</ele><time>2026-04-17T14:31:10.165Z</time></trkpt><trkpt lat="45.8793062" lon="13.4120232"><ele>17.0</ele><time>2026-04-17T14:31:11.165Z</time></trkpt><trkpt lat="45.8792389" lon="13.412046"><ele>17.0</ele><time>2026-04-17T14:31:12.165Z</time></trkpt><trkpt lat="45.8791716" lon="13.4120628"><ele>17.0</ele><time>2026-04-17T14:31:13.164Z</time></trkpt><trkpt lat="45.8790585" lon="13.4120775"><ele>17.0</ele><time>2026-04-17T14:31:15.165Z</time></trkpt><trkpt lat="45.8789748" lon="13.4120884"><ele>17.0</ele><time>2026-04-17T14:31:17.164Z</time></trkpt><trkpt lat="45.8789095" lon="13.4121056"><ele>17.0</ele><time>2026-04-17T14:31:19.165Z</time></trkpt><trkpt lat="45.8788467" lon="13.412128"><ele>17.0</ele><time>2026-04-17T14:31:22.164Z</time></trkpt><trkpt lat="45.8787659" lon="13.4121704"><ele>17.0</ele><time>2026-04-17T14:31:26.165Z</time></trkpt><trkpt lat="45.8785872" lon="13.4122125"><ele>17.0</ele><time>2026-04-17T14:31:29.165Z</time></trkpt><trkpt lat="45.8785074" lon="13.4122218"><ele>17.0</ele><time>2026-04-17T14:31:30.165Z</time></trkpt><trkpt lat="45.8784292" lon="13.4122274"><ele>17.0</ele><time>2026-04-17T14:31:31.165Z</time></trkpt><trkpt lat="45.8783418" lon="13.4122321"><ele>17.0</ele><time>2026-04-17T14:31:32.165Z</time></trkpt><trkpt lat="45.878238" lon="13.4122545"><ele>17.0</ele><time>2026-04-17T14:31:33.165Z</time></trkpt><trkpt lat="45.8781183" lon="13.4122832"><ele>17.0</ele><time>2026-04-17T14:31:34.165Z</time></trkpt><trkpt lat="45.8779894" lon="13.4123167"><ele>17.0</ele><time>2026-04-17T14:31:35.164Z</time></trkpt><trkpt lat="45.8778539" lon="13.4123358"><ele>17.0</ele><time>2026-04-17T14:31:36.165Z</time></trkpt><trkpt lat="45.8777033" lon="13.4123574"><ele>17.0</ele><time>2026-04-17T14:31:37.165Z</time></trkpt><trkpt lat="45.8775447" lon="13.4123903"><ele>17.0</ele><time>2026-04-17T14:31:38.165Z</time></trkpt><trkpt lat="45.8773807" lon="13.4124287"><ele>16.666666666666668</ele><time>2026-04-17T14:31:39.165Z</time></trkpt><trkpt lat="45.8772094" lon="13.4124771"><ele>16.333333333333332</ele><time>2026-04-17T14:31:40.164Z</time></trkpt><trkpt lat="45.8770343" lon="13.41252"><ele>16.0</ele><time>2026-04-17T14:31:41.165Z</time></trkpt><trkpt lat="45.87686" lon="13.4125579"><ele>16.0</ele><time>2026-04-17T14:31:42.165Z</time></trkpt><trkpt lat="45.8766849" lon="13.412606"><ele>16.0</ele><time>2026-04-17T14:31:43.165Z</time></trkpt><trkpt lat="45.8765203" lon="13.4126506"><ele>16.0</ele><time>2026-04-17T14:31:44.165Z</time></trkpt><trkpt lat="45.8763609" lon="13.4126854"><ele>16.0</ele><time>2026-04-17T14:31:45.164Z</time></trkpt><trkpt lat="45.8762172" lon="13.4127004"><ele>16.0</ele><time>2026-04-17T14:31:46.165Z</time></trkpt><trkpt lat="45.8760843" lon="13.4127154"><ele>16.0</ele><time>2026-04-17T14:31:47.165Z</time></trkpt><trkpt lat="45.8758204" lon="13.4128035"><ele>16.5</ele><time>2026-04-17T14:31:49.165Z</time></trkpt><trkpt lat="45.8756983" lon="13.4128643"><ele>17.0</ele><time>2026-04-17T14:31:50.164Z</time></trkpt><trkpt lat="45.8755846" lon="13.4129557"><ele>17.5</ele><time>2026-04-17T14:31:51.165Z</time></trkpt><trkpt lat="45.8754581" lon="13.4130744"><ele>18.0</ele><time>2026-04-17T14:31:52.165Z</time></trkpt><trkpt lat="45.8753331" lon="13.4131881"><ele>18.0</ele><time>2026-04-17T14:31:53.165Z</time></trkpt><trkpt lat="45.8752185" lon="13.4132656"><ele>18.0</ele><time>2026-04-17T14:31:54.165Z</time></trkpt><trkpt lat="45.8751194" lon="13.4133236"><ele>18.0</ele><time>2026-04-17T14:31:55.165Z</time></trkpt><trkpt lat="45.8750392" lon="13.4133796"><ele>18.0</ele><time>2026-04-17T14:31:56.165Z</time></trkpt><trkpt lat="45.8749699" lon="13.4134335"><ele>18.0</ele><time>2026-04-17T14:31:57.165Z</time></trkpt><trkpt lat="45.8749072" lon="13.4134806"><ele>18.4</ele><time>2026-04-17T14:31:58.164Z</time></trkpt><trkpt lat="45.8747999" lon="13.4135611"><ele>18.8</ele><time>2026-04-17T14:32:00.164Z</time></trkpt><trkpt lat="45.874711" lon="13.4136082"><ele>19.2</ele><time>2026-04-17T14:32:02.165Z</time></trkpt><trkpt lat="45.8746473" lon="13.4136448"><ele>19.6</ele><time>2026-04-17T14:32:05.165Z</time></trkpt><trkpt lat="45.8746172" lon="13.4137319"><ele>20.0</ele><time>2026-04-17T14:32:10.165Z</time></trkpt><trkpt lat="45.874497" lon="13.4138825"><ele>20.0</ele><time>2026-04-17T14:32:16.165Z</time></trkpt><trkpt lat="45.8744385" lon="13.4139195"><ele>20.0</ele><time>2026-04-17T14:32:17.164Z</time></trkpt><trkpt lat="45.8743672" lon="13.4139647"><ele>20.0</ele><time>2026-04-17T14:32:18.165Z</time></trkpt><trkpt lat="45.8742853" lon="13.4140265"><ele>20.0</ele><time>2026-04-17T14:32:19.164Z</time></trkpt><trkpt lat="45.8741976" lon="13.414091"><ele>20.0</ele><time>2026-04-17T14:32:20.165Z</time></trkpt><trkpt lat="45.8740967" lon="13.4141667"><ele>20.0</ele><time>2026-04-17T14:32:21.165Z</time></trkpt><trkpt lat="45.8739904" lon="13.4142442"><ele>19.75</ele><time>2026-04-17T14:32:22.165Z</time></trkpt><trkpt lat="45.8738789" lon="13.4143285"><ele>19.5</ele><time>2026-04-17T14:32:23.165Z</time></trkpt><trkpt lat="45.8737593" lon="13.4144165"><ele>19.25</ele><time>2026-04-17T14:32:24.165Z</time></trkpt><trkpt lat="45.8736386" lon="13.4145048"><ele>19.0</ele><time>2026-04-17T14:32:25.164Z</time></trkpt><trkpt lat="45.8735185" lon="13.4145813"><ele>19.0</ele><time>2026-04-17T14:32:26.165Z</time></trkpt><trkpt lat="45.8734033" lon="13.4146624"><ele>19.0</ele><time>2026-04-17T14:32:27.165Z</time></trkpt><trkpt lat="45.8732933" lon="13.4147424"><ele>19.0</ele><time>2026-04-17T14:32:28.165Z</time></trkpt><trkpt lat="45.8731853" lon="13.41482"><ele>19.0</ele><time>2026-04-17T14:32:29.164Z</time></trkpt><trkpt lat="45.8730787" lon="13.4148953"><ele>19.0</ele><time>2026-04-17T14:32:30.165Z</time></trkpt><trkpt lat="45.8729717" lon="13.4149711"><ele>19.0</ele><time>2026-04-17T14:32:31.165Z</time></trkpt><trkpt lat="45.8727521" lon="13.415144"><ele>19.0</ele><time>2026-04-17T14:32:33.165Z</time></trkpt><trkpt lat="45.8726359" lon="13.415225"><ele>18.5</ele><time>2026-04-17T14:32:34.164Z</time></trkpt><trkpt lat="45.8725203" lon="13.4153083"><ele>18.0</ele><time>2026-04-17T14:32:35.165Z</time></trkpt><trkpt lat="45.8724035" lon="13.4153933"><ele>17.5</ele><time>2026-04-17T14:32:36.165Z</time></trkpt><trkpt lat="45.8722868" lon="13.4154797"><ele>17.0</ele><time>2026-04-17T14:32:37.165Z</time></trkpt><trkpt lat="45.8721715" lon="13.4155607"><ele>16.75</ele><time>2026-04-17T14:32:38.165Z</time></trkpt><trkpt lat="45.8720478" lon="13.4156411"><ele>16.5</ele><time>2026-04-17T14:32:39.165Z</time></trkpt><trkpt lat="45.87193" lon="13.4157287"><ele>16.25</ele><time>2026-04-17T14:32:40.165Z</time></trkpt><trkpt lat="45.8718102" lon="13.4158193"><ele>16.0</ele><time>2026-04-17T14:32:41.165Z</time></trkpt><trkpt lat="45.8716944" lon="13.4159072"><ele>16.0</ele><time>2026-04-17T14:32:42.165Z</time></trkpt><trkpt lat="45.8715769" lon="13.4159958"><ele>16.0</ele><time>2026-04-17T14:32:43.165Z</time></trkpt><trkpt lat="45.8714541" lon="13.41609"><ele>16.0</ele><time>2026-04-17T14:32:44.165Z</time></trkpt><trkpt lat="45.8713365" lon="13.4161849"><ele>16.0</ele><time>2026-04-17T14:32:45.165Z</time></trkpt><trkpt lat="45.8712219" lon="13.4162736"><ele>16.2</ele><time>2026-04-17T14:32:46.164Z</time></trkpt><trkpt lat="45.8711113" lon="13.4163639"><ele>16.400000000000002</ele><time>2026-04-17T14:32:47.164Z</time></trkpt><trkpt lat="45.8710094" lon="13.4164473"><ele>16.6</ele><time>2026-04-17T14:32:48.165Z</time></trkpt><trkpt lat="45.8709193" lon="13.4165105"><ele>16.8</ele><time>2026-04-17T14:32:49.165Z</time></trkpt><trkpt lat="45.8708447" lon="13.4165686"><ele>17.0</ele><time>2026-04-17T14:32:50.165Z</time></trkpt><trkpt lat="45.8707799" lon="13.4166152"><ele>17.0</ele><time>2026-04-17T14:32:51.164Z</time></trkpt><trkpt lat="45.8706549" lon="13.4166832"><ele>17.0</ele><time>2026-04-17T14:32:53.165Z</time></trkpt><trkpt lat="45.8704549" lon="13.4167774"><ele>17.0</ele><time>2026-04-17T14:32:55.165Z</time></trkpt><trkpt lat="45.8703323" lon="13.4168656"><ele>17.0</ele><time>2026-04-17T14:32:56.165Z</time></trkpt><trkpt lat="45.8701992" lon="13.4169756"><ele>17.0</ele><time>2026-04-17T14:32:57.165Z</time></trkpt><trkpt lat="45.8700559" lon="13.4170917"><ele>17.0</ele><time>2026-04-17T14:32:58.165Z</time></trkpt><trkpt lat="45.8699141" lon="13.4172002"><ele>16.666666666666668</ele><time>2026-04-17T14:32:59.165Z</time></trkpt><trkpt lat="45.8697644" lon="13.4172988"><ele>16.333333333333332</ele><time>2026-04-17T14:33:00.165Z</time></trkpt><trkpt lat="45.8696098" lon="13.417378"><ele>16.0</ele><time>2026-04-17T14:33:01.165Z</time></trkpt><trkpt lat="45.8694597" lon="13.4174421"><ele>16.0</ele><time>2026-04-17T14:33:02.165Z</time></trkpt><trkpt lat="45.8693202" lon="13.4175101"><ele>16.0</ele><time>2026-04-17T14:33:03.165Z</time></trkpt><trkpt lat="45.8691864" lon="13.4175717"><ele>16.0</ele><time>2026-04-17T14:33:04.164Z</time></trkpt><trkpt lat="45.8690659" lon="13.4176117"><ele>16.0</ele><time>2026-04-17T14:33:05.165Z</time></trkpt><trkpt lat="45.868968" lon="13.4176188"><ele>16.0</ele><time>2026-04-17T14:33:06.165Z</time></trkpt><trkpt lat="45.868901" lon="13.4175872"><ele>16.0</ele><time>2026-04-17T14:33:07.164Z</time></trkpt><trkpt lat="45.8688135" lon="13.4174319"><ele>16.0</ele><time>2026-04-17T14:33:09.164Z</time></trkpt><trkpt lat="45.8687909" lon="13.4172668"><ele>16.0</ele><time>2026-04-17T14:33:10.165Z</time></trkpt><trkpt lat="45.8687663" lon="13.4170525"><ele>15.333333333333332</ele><time>2026-04-17T14:33:11.164Z</time></trkpt><trkpt lat="45.8687364" lon="13.4168265"><ele>14.666666666666668</ele><time>2026-04-17T14:33:12.165Z</time></trkpt><trkpt lat="45.8686964" lon="13.416602"><ele>14.0</ele><time>2026-04-17T14:33:13.165Z</time></trkpt><trkpt lat="45.8686506" lon="13.4163828"><ele>14.0</ele><time>2026-04-17T14:33:14.165Z</time></trkpt><trkpt lat="45.8685666" lon="13.4160035"><ele>14.0</ele><time>2026-04-17T14:33:16.165Z</time></trkpt><trkpt lat="45.8685315" lon="13.415817"><ele>14.0</ele><time>2026-04-17T14:33:17.164Z</time></trkpt><trkpt lat="45.8684886" lon="13.4156335"><ele>14.25</ele><time>2026-04-17T14:33:18.165Z</time></trkpt><trkpt lat="45.8684301" lon="13.4154459"><ele>14.5</ele><time>2026-04-17T14:33:19.164Z</time></trkpt><trkpt lat="45.868366" lon="13.4152708"><ele>14.75</ele><time>2026-04-17T14:33:20.165Z</time></trkpt><trkpt lat="45.8683032" lon="13.4151059"><ele>15.0</ele><time>2026-04-17T14:33:21.165Z</time></trkpt><trkpt lat="45.8682306" lon="13.4149375"><ele>15.0</ele><time>2026-04-17T14:33:22.165Z</time></trkpt><trkpt lat="45.8681491" lon="13.4147639"><ele>15.0</ele><time>2026-04-17T14:33:23.164Z</time></trkpt><trkpt lat="45.8680532" lon="13.4145857"><ele>15.0</ele><time>2026-04-17T14:33:24.165Z</time></trkpt><trkpt lat="45.8679549" lon="13.4144085"><ele>15.25</ele><time>2026-04-17T14:33:25.165Z</time></trkpt><trkpt lat="45.8678553" lon="13.4142448"><ele>15.5</ele><time>2026-04-17T14:33:26.164Z</time></trkpt><trkpt lat="45.8677583" lon="13.4140928"><ele>15.75</ele><time>2026-04-17T14:33:27.165Z</time></trkpt><trkpt lat="45.8676685" lon="13.4139523"><ele>16.0</ele><time>2026-04-17T14:33:28.164Z</time></trkpt><trkpt lat="45.8675819" lon="13.4138003"><ele>16.0</ele><time>2026-04-17T14:33:29.165Z</time></trkpt><trkpt lat="45.8674923" lon="13.4136252"><ele>16.0</ele><time>2026-04-17T14:33:30.165Z</time></trkpt><trkpt lat="45.8673992" lon="13.4134421"><ele>16.0</ele><time>2026-04-17T14:33:31.165Z</time></trkpt><trkpt lat="45.8673024" lon="13.4132583"><ele>16.0</ele><time>2026-04-17T14:33:32.165Z</time></trkpt><trkpt lat="45.867202" lon="13.4130823"><ele>16.0</ele><time>2026-04-17T14:33:33.165Z</time></trkpt><trkpt lat="45.8671036" lon="13.4129143"><ele>16.0</ele><time>2026-04-17T14:33:34.164Z</time></trkpt><trkpt lat="45.8670037" lon="13.4127604"><ele>16.5</ele><time>2026-04-17T14:33:35.165Z</time></trkpt><trkpt lat="45.8668131" lon="13.4124398"><ele>17.0</ele><time>2026-04-17T14:33:37.165Z</time></trkpt><trkpt lat="45.8667181" lon="13.4122483"><ele>16.333333333333336</ele><time>2026-04-17T14:33:38.165Z</time></trkpt><trkpt lat="45.8666125" lon="13.412029"><ele>15.666666666666668</ele><time>2026-04-17T14:33:39.165Z</time></trkpt><trkpt lat="45.8665027" lon="13.4118259"><ele>15.0</ele><time>2026-04-17T14:33:40.165Z</time></trkpt><trkpt lat="45.8664025" lon="13.4116485"><ele>15.0</ele><time>2026-04-17T14:33:41.165Z</time></trkpt><trkpt lat="45.8663089" lon="13.4114844"><ele>15.0</ele><time>2026-04-17T14:33:42.165Z</time></trkpt><trkpt lat="45.8662171" lon="13.4113279"><ele>15.0</ele><time>2026-04-17T14:33:43.165Z</time></trkpt><trkpt lat="45.8661207" lon="13.4111907"><ele>15.0</ele><time>2026-04-17T14:33:44.165Z</time></trkpt><trkpt lat="45.8660267" lon="13.4110723"><ele>15.0</ele><time>2026-04-17T14:33:45.165Z</time></trkpt><trkpt lat="45.8659474" lon="13.4109831"><ele>15.0</ele><time>2026-04-17T14:33:46.164Z</time></trkpt><trkpt lat="45.8658836" lon="13.4109188"><ele>15.0</ele><time>2026-04-17T14:33:47.164Z</time></trkpt><trkpt lat="45.8657931" lon="13.4108369"><ele>15.0</ele><time>2026-04-17T14:33:49.165Z</time></trkpt><trkpt lat="45.8657355" lon="13.4107869"><ele>15.0</ele><time>2026-04-17T14:33:50.164Z</time></trkpt><trkpt lat="45.8656772" lon="13.4107373"><ele>15.0</ele><time>2026-04-17T14:33:51.165Z</time></trkpt><trkpt lat="45.8656216" lon="13.4106918"><ele>15.25</ele><time>2026-04-17T14:33:52.165Z</time></trkpt><trkpt lat="45.8655624" lon="13.4106255"><ele>15.5</ele><time>2026-04-17T14:33:53.165Z</time></trkpt><trkpt lat="45.8654405" lon="13.4105572"><ele>15.75</ele><time>2026-04-17T14:33:55.165Z</time></trkpt><trkpt lat="45.8653513" lon="13.4105138"><ele>16.0</ele><time>2026-04-17T14:33:56.164Z</time></trkpt><trkpt lat="45.8651466" lon="13.4104439"><ele>15.5</ele><time>2026-04-17T14:33:58.165Z</time></trkpt><trkpt lat="45.8650331" lon="13.4104274"><ele>15.0</ele><time>2026-04-17T14:33:59.165Z</time></trkpt><trkpt lat="45.8649144" lon="13.410411"><ele>14.5</ele><time>2026-04-17T14:34:00.164Z</time></trkpt><trkpt lat="45.8648021" lon="13.410401"><ele>14.0</ele><time>2026-04-17T14:34:01.165Z</time></trkpt><trkpt lat="45.8646767" lon="13.4104067"><ele>14.0</ele><time>2026-04-17T14:34:02.165Z</time></trkpt><trkpt lat="45.8645388" lon="13.4104203"><ele>14.0</ele><time>2026-04-17T14:34:03.165Z</time></trkpt><trkpt lat="45.8643959" lon="13.4104296"><ele>14.0</ele><time>2026-04-17T14:34:04.165Z</time></trkpt><trkpt lat="45.8642454" lon="13.4104367"><ele>14.0</ele><time>2026-04-17T14:34:05.164Z</time></trkpt><trkpt lat="45.864086" lon="13.4104506"><ele>14.666666666666668</ele><time>2026-04-17T14:34:06.165Z</time></trkpt><trkpt lat="45.8639209" lon="13.4104598"><ele>15.333333333333332</ele><time>2026-04-17T14:34:07.164Z</time></trkpt><trkpt lat="45.863748" lon="13.4104725"><ele>16.0</ele><time>2026-04-17T14:34:08.164Z</time></trkpt><trkpt lat="45.8635835" lon="13.4104751"><ele>15.75</ele><time>2026-04-17T14:34:09.164Z</time></trkpt><trkpt lat="45.8634431" lon="13.4104838"><ele>15.5</ele><time>2026-04-17T14:34:10.164Z</time></trkpt><trkpt lat="45.8633119" lon="13.4104921"><ele>15.25</ele><time>2026-04-17T14:34:11.165Z</time></trkpt><trkpt lat="45.8631909" lon="13.4105017"><ele>15.0</ele><time>2026-04-17T14:34:12.164Z</time></trkpt><trkpt lat="45.8630682" lon="13.410504"><ele>15.0</ele><time>2026-04-17T14:34:13.164Z</time></trkpt><trkpt lat="45.8629339" lon="13.4105073"><ele>15.0</ele><time>2026-04-17T14:34:14.164Z</time></trkpt><trkpt lat="45.862788" lon="13.4105068"><ele>15.0</ele><time>2026-04-17T14:34:15.165Z</time></trkpt><trkpt lat="45.8626429" lon="13.4105039"><ele>15.0</ele><time>2026-04-17T14:34:16.164Z</time></trkpt><trkpt lat="45.8625116" lon="13.4105148"><ele>14.666666666666668</ele><time>2026-04-17T14:34:17.165Z</time></trkpt><trkpt lat="45.8622982" lon="13.4105512"><ele>14.333333333333334</ele><time>2026-04-17T14:34:19.164Z</time></trkpt><trkpt lat="45.8621756" lon="13.4105469"><ele>14.0</ele><time>2026-04-17T14:34:20.164Z</time></trkpt><trkpt lat="45.8620321" lon="13.4105358"><ele>14.0</ele><time>2026-04-17T14:34:21.165Z</time></trkpt><trkpt lat="45.8618791" lon="13.4105408"><ele>14.0</ele><time>2026-04-17T14:34:22.164Z</time></trkpt><trkpt lat="45.8617164" lon="13.4105441"><ele>14.0</ele><time>2026-04-17T14:34:23.165Z</time></trkpt><trkpt lat="45.8615447" lon="13.4105525"><ele>13.666666666666668</ele><time>2026-04-17T14:34:24.164Z</time></trkpt><trkpt lat="45.8613662" lon="13.410556"><ele>13.333333333333332</ele><time>2026-04-17T14:34:25.165Z</time></trkpt><trkpt lat="45.8611884" lon="13.4105692"><ele>13.0</ele><time>2026-04-17T14:34:26.165Z</time></trkpt><trkpt lat="45.8610101" lon="13.4105727"><ele>13.333333333333332</ele><time>2026-04-17T14:34:27.165Z</time></trkpt><trkpt lat="45.8608268" lon="13.4105817"><ele>13.666666666666668</ele><time>2026-04-17T14:34:28.164Z</time></trkpt><trkpt lat="45.860649" lon="13.4105852"><ele>14.0</ele><time>2026-04-17T14:34:29.164Z</time></trkpt><trkpt lat="45.8604681" lon="13.4105977"><ele>14.0</ele><time>2026-04-17T14:34:30.165Z</time></trkpt><trkpt lat="45.8602897" lon="13.4105996"><ele>14.0</ele><time>2026-04-17T14:34:31.164Z</time></trkpt><trkpt lat="45.8601174" lon="13.4106021"><ele>14.0</ele><time>2026-04-17T14:34:32.164Z</time></trkpt><trkpt lat="45.8599446" lon="13.4106108"><ele>14.0</ele><time>2026-04-17T14:34:33.164Z</time></trkpt><trkpt lat="45.8597738" lon="13.4106241"><ele>14.0</ele><time>2026-04-17T14:34:34.165Z</time></trkpt><trkpt lat="45.8596065" lon="13.4106346"><ele>14.0</ele><time>2026-04-17T14:34:35.165Z</time></trkpt><trkpt lat="45.8594369" lon="13.4106363"><ele>13.666666666666668</ele><time>2026-04-17T14:34:36.165Z</time></trkpt><trkpt lat="45.859282" lon="13.4106386"><ele>13.333333333333332</ele><time>2026-04-17T14:34:37.165Z</time></trkpt><trkpt lat="45.8591388" lon="13.410648"><ele>13.0</ele><time>2026-04-17T14:34:38.164Z</time></trkpt><trkpt lat="45.8588622" lon="13.4106626"><ele>13.0</ele><time>2026-04-17T14:34:40.165Z</time></trkpt><trkpt lat="45.8587307" lon="13.4106652"><ele>13.0</ele><time>2026-04-17T14:34:41.164Z</time></trkpt><trkpt lat="45.8586152" lon="13.410658"><ele>13.0</ele><time>2026-04-17T14:34:42.165Z</time></trkpt><trkpt lat="45.8585097" lon="13.4106601"><ele>13.0</ele><time>2026-04-17T14:34:43.164Z</time></trkpt><trkpt lat="45.8584018" lon="13.4106669"><ele>13.75</ele><time>2026-04-17T14:34:44.164Z</time></trkpt><trkpt lat="45.8582812" lon="13.410683"><ele>14.5</ele><time>2026-04-17T14:34:45.164Z</time></trkpt><trkpt lat="45.8581437" lon="13.410689"><ele>15.25</ele><time>2026-04-17T14:34:46.165Z</time></trkpt><trkpt lat="45.8579897" lon="13.4106994"><ele>16.0</ele><time>2026-04-17T14:34:47.164Z</time></trkpt><trkpt lat="45.8578272" lon="13.4107033"><ele>16.0</ele><time>2026-04-17T14:34:48.165Z</time></trkpt><trkpt lat="45.857655" lon="13.4107047"><ele>16.0</ele><time>2026-04-17T14:34:49.164Z</time></trkpt><trkpt lat="45.8574693" lon="13.4107127"><ele>16.0</ele><time>2026-04-17T14:34:50.165Z</time></trkpt><trkpt lat="45.8572878" lon="13.4107147"><ele>15.333333333333332</ele><time>2026-04-17T14:34:51.164Z</time></trkpt><trkpt lat="45.8571036" lon="13.4107234"><ele>14.666666666666668</ele><time>2026-04-17T14:34:52.165Z</time></trkpt><trkpt lat="45.8569261" lon="13.4107353"><ele>14.0</ele><time>2026-04-17T14:34:53.164Z</time></trkpt><trkpt lat="45.8567483" lon="13.410747"><ele>13.333333333333334</ele><time>2026-04-17T14:34:54.165Z</time></trkpt><trkpt lat="45.8565715" lon="13.4107544"><ele>12.666666666666668</ele><time>2026-04-17T14:34:55.165Z</time></trkpt><trkpt lat="45.8563974" lon="13.4107528"><ele>12.0</ele><time>2026-04-17T14:34:56.165Z</time></trkpt><trkpt lat="45.856217" lon="13.4107624"><ele>12.0</ele><time>2026-04-17T14:34:57.165Z</time></trkpt><trkpt lat="45.8560337" lon="13.4107737"><ele>12.0</ele><time>2026-04-17T14:34:58.164Z</time></trkpt><trkpt lat="45.8558535" lon="13.4107874"><ele>12.0</ele><time>2026-04-17T14:34:59.165Z</time></trkpt><trkpt lat="45.8554902" lon="13.4108001"><ele>12.333333333333332</ele><time>2026-04-17T14:35:01.164Z</time></trkpt><trkpt lat="45.8553066" lon="13.4108148"><ele>12.666666666666666</ele><time>2026-04-17T14:35:02.165Z</time></trkpt><trkpt lat="45.8551094" lon="13.4108235"><ele>13.0</ele><time>2026-04-17T14:35:03.165Z</time></trkpt><trkpt lat="45.854917" lon="13.4108312"><ele>12.333333333333332</ele><time>2026-04-17T14:35:04.165Z</time></trkpt><trkpt lat="45.8547347" lon="13.4108289"><ele>11.666666666666666</ele><time>2026-04-17T14:35:05.165Z</time></trkpt><trkpt lat="45.8545599" lon="13.410832"><ele>11.0</ele><time>2026-04-17T14:35:06.165Z</time></trkpt><trkpt lat="45.8543867" lon="13.4108401"><ele>11.333333333333332</ele><time>2026-04-17T14:35:07.165Z</time></trkpt><trkpt lat="45.8542223" lon="13.4108532"><ele>11.666666666666666</ele><time>2026-04-17T14:35:08.165Z</time></trkpt><trkpt lat="45.8540763" lon="13.4108526"><ele>12.0</ele><time>2026-04-17T14:35:09.165Z</time></trkpt><trkpt lat="45.853937" lon="13.4108552"><ele>12.0</ele><time>2026-04-17T14:35:10.165Z</time></trkpt><trkpt lat="45.8537889" lon="13.4108714"><ele>12.0</ele><time>2026-04-17T14:35:11.165Z</time></trkpt><trkpt lat="45.8536378" lon="13.4109054"><ele>12.0</ele><time>2026-04-17T14:35:12.165Z</time></trkpt><trkpt lat="45.8534834" lon="13.4109672"><ele>12.333333333333332</ele><time>2026-04-17T14:35:13.165Z</time></trkpt><trkpt lat="45.8533273" lon="13.4110623"><ele>12.666666666666666</ele><time>2026-04-17T14:35:14.165Z</time></trkpt><trkpt lat="45.8531707" lon="13.4111593"><ele>13.0</ele><time>2026-04-17T14:35:15.165Z</time></trkpt><trkpt lat="45.8530273" lon="13.4112662"><ele>13.0</ele><time>2026-04-17T14:35:16.165Z</time></trkpt><trkpt lat="45.8528928" lon="13.4113863"><ele>13.0</ele><time>2026-04-17T14:35:17.165Z</time></trkpt><trkpt lat="45.8527583" lon="13.4115321"><ele>13.0</ele><time>2026-04-17T14:35:18.164Z</time></trkpt><trkpt lat="45.8526251" lon="13.4117021"><ele>13.0</ele><time>2026-04-17T14:35:19.164Z</time></trkpt><trkpt lat="45.8524884" lon="13.4118909"><ele>13.0</ele><time>2026-04-17T14:35:20.164Z</time></trkpt><trkpt lat="45.8521908" lon="13.4122895"><ele>13.0</ele><time>2026-04-17T14:35:22.165Z</time></trkpt><trkpt lat="45.8520435" lon="13.4124879"><ele>13.0</ele><time>2026-04-17T14:35:23.165Z</time></trkpt><trkpt lat="45.8518975" lon="13.4126814"><ele>13.0</ele><time>2026-04-17T14:35:24.165Z</time></trkpt><trkpt lat="45.8517523" lon="13.4128769"><ele>13.0</ele><time>2026-04-17T14:35:25.165Z</time></trkpt><trkpt lat="45.8516085" lon="13.4130722"><ele>13.0</ele><time>2026-04-17T14:35:26.164Z</time></trkpt><trkpt lat="45.8514678" lon="13.4132592"><ele>13.0</ele><time>2026-04-17T14:35:27.165Z</time></trkpt><trkpt lat="45.8513468" lon="13.4134214"><ele>13.0</ele><time>2026-04-17T14:35:28.164Z</time></trkpt><trkpt lat="45.8512461" lon="13.4135684"><ele>13.0</ele><time>2026-04-17T14:35:29.164Z</time></trkpt><trkpt lat="45.8511566" lon="13.4136869"><ele>13.0</ele><time>2026-04-17T14:35:30.165Z</time></trkpt><trkpt lat="45.8510592" lon="13.4138025"><ele>13.0</ele><time>2026-04-17T14:35:31.165Z</time></trkpt><trkpt lat="45.8509524" lon="13.4139317"><ele>12.666666666666666</ele><time>2026-04-17T14:35:32.165Z</time></trkpt><trkpt lat="45.8508222" lon="13.414085"><ele>12.333333333333332</ele><time>2026-04-17T14:35:33.165Z</time></trkpt><trkpt lat="45.8506836" lon="13.4142478"><ele>12.0</ele><time>2026-04-17T14:35:34.165Z</time></trkpt><trkpt lat="45.8505453" lon="13.4144225"><ele>12.0</ele><time>2026-04-17T14:35:35.164Z</time></trkpt><trkpt lat="45.8504007" lon="13.4146063"><ele>12.0</ele><time>2026-04-17T14:35:36.164Z</time></trkpt><trkpt lat="45.8502644" lon="13.4147877"><ele>12.0</ele><time>2026-04-17T14:35:37.165Z</time></trkpt><trkpt lat="45.8501303" lon="13.4149543"><ele>12.666666666666668</ele><time>2026-04-17T14:35:38.165Z</time></trkpt><trkpt lat="45.8500045" lon="13.4151215"><ele>13.333333333333334</ele><time>2026-04-17T14:35:39.165Z</time></trkpt><trkpt lat="45.8498828" lon="13.4152911"><ele>14.0</ele><time>2026-04-17T14:35:40.165Z</time></trkpt><trkpt lat="45.8497718" lon="13.4154697"><ele>14.333333333333334</ele><time>2026-04-17T14:35:41.164Z</time></trkpt><trkpt lat="45.8495781" lon="13.4158171"><ele>14.666666666666668</ele><time>2026-04-17T14:35:43.164Z</time></trkpt><trkpt lat="45.8495051" lon="13.4159793"><ele>15.0</ele><time>2026-04-17T14:35:44.164Z</time></trkpt><trkpt lat="45.8494357" lon="13.4161219"><ele>15.0</ele><time>2026-04-17T14:35:45.165Z</time></trkpt><trkpt lat="45.8493726" lon="13.4162429"><ele>15.0</ele><time>2026-04-17T14:35:46.165Z</time></trkpt><trkpt lat="45.8493176" lon="13.4163479"><ele>15.0</ele><time>2026-04-17T14:35:47.165Z</time></trkpt><trkpt lat="45.8492735" lon="13.4164395"><ele>15.0</ele><time>2026-04-17T14:35:48.165Z</time></trkpt><trkpt lat="45.8492103" lon="13.4165524"><ele>15.0</ele><time>2026-04-17T14:35:50.165Z</time></trkpt><trkpt lat="45.8491736" lon="13.416665"><ele>14.8</ele><time>2026-04-17T14:36:13.164Z</time></trkpt><trkpt lat="45.8490977" lon="13.4168297"><ele>14.6</ele><time>2026-04-17T14:36:16.163Z</time></trkpt><trkpt lat="45.8490524" lon="13.416928"><ele>14.399999999999999</ele><time>2026-04-17T14:36:17.164Z</time></trkpt><trkpt lat="45.8490119" lon="13.4170511"><ele>14.2</ele><time>2026-04-17T14:36:18.163Z</time></trkpt><trkpt lat="45.8489537" lon="13.4172009"><ele>14.0</ele><time>2026-04-17T14:36:19.164Z</time></trkpt><trkpt lat="45.848884" lon="13.4173746"><ele>14.0</ele><time>2026-04-17T14:36:20.164Z</time></trkpt><trkpt lat="45.8488032" lon="13.4175666"><ele>14.0</ele><time>2026-04-17T14:36:21.164Z</time></trkpt><trkpt lat="45.8487133" lon="13.4177742"><ele>14.0</ele><time>2026-04-17T14:36:22.164Z</time></trkpt><trkpt lat="45.8486179" lon="13.4180092"><ele>14.0</ele><time>2026-04-17T14:36:23.163Z</time></trkpt><trkpt lat="45.848515" lon="13.4182557"><ele>14.0</ele><time>2026-04-17T14:36:24.163Z</time></trkpt><trkpt lat="45.8484113" lon="13.4185078"><ele>14.0</ele><time>2026-04-17T14:36:25.163Z</time></trkpt><trkpt lat="45.8483062" lon="13.4187604"><ele>13.333333333333334</ele><time>2026-04-17T14:36:26.163Z</time></trkpt><trkpt lat="45.8482051" lon="13.419006"><ele>12.666666666666668</ele><time>2026-04-17T14:36:27.164Z</time></trkpt><trkpt lat="45.848103" lon="13.419259"><ele>12.0</ele><time>2026-04-17T14:36:28.164Z</time></trkpt><trkpt lat="45.8479928" lon="13.4195197"><ele>12.0</ele><time>2026-04-17T14:36:29.164Z</time></trkpt><trkpt lat="45.8478854" lon="13.4197844"><ele>12.0</ele><time>2026-04-17T14:36:30.163Z</time></trkpt><trkpt lat="45.8477742" lon="13.4200513"><ele>12.0</ele><time>2026-04-17T14:36:31.163Z</time></trkpt><trkpt lat="45.8476681" lon="13.4203098"><ele>12.333333333333332</ele><time>2026-04-17T14:36:32.164Z</time></trkpt><trkpt lat="45.8475559" lon="13.4205724"><ele>12.666666666666666</ele><time>2026-04-17T14:36:33.163Z</time></trkpt><trkpt lat="45.8474514" lon="13.4208309"><ele>13.0</ele><time>2026-04-17T14:36:34.164Z</time></trkpt><trkpt lat="45.8472354" lon="13.4213544"><ele>12.0</ele><time>2026-04-17T14:36:36.163Z</time></trkpt><trkpt lat="45.8471274" lon="13.4216063"><ele>11.0</ele><time>2026-04-17T14:36:37.163Z</time></trkpt><trkpt lat="45.8470177" lon="13.421861"><ele>10.0</ele><time>2026-04-17T14:36:38.163Z</time></trkpt><trkpt lat="45.8469092" lon="13.4221171"><ele>10.0</ele><time>2026-04-17T14:36:39.164Z</time></trkpt><trkpt lat="45.8467983" lon="13.422366"><ele>10.0</ele><time>2026-04-17T14:36:40.163Z</time></trkpt><trkpt lat="45.8466816" lon="13.4226135"><ele>10.0</ele><time>2026-04-17T14:36:41.164Z</time></trkpt><trkpt lat="45.846562" lon="13.4228383"><ele>10.333333333333334</ele><time>2026-04-17T14:36:42.164Z</time></trkpt><trkpt lat="45.8464325" lon="13.4230474"><ele>10.666666666666666</ele><time>2026-04-17T14:36:43.164Z</time></trkpt><trkpt lat="45.8462807" lon="13.4232408"><ele>11.0</ele><time>2026-04-17T14:36:44.164Z</time></trkpt><trkpt lat="45.8461171" lon="13.4234259"><ele>11.0</ele><time>2026-04-17T14:36:45.164Z</time></trkpt><trkpt lat="45.8459418" lon="13.4235815"><ele>11.0</ele><time>2026-04-17T14:36:46.164Z</time></trkpt><trkpt lat="45.8457493" lon="13.4237098"><ele>11.0</ele><time>2026-04-17T14:36:47.164Z</time></trkpt><trkpt lat="45.8455486" lon="13.4238171"><ele>11.0</ele><time>2026-04-17T14:36:48.164Z</time></trkpt><trkpt lat="45.8453487" lon="13.423914"><ele>11.0</ele><time>2026-04-17T14:36:49.164Z</time></trkpt><trkpt lat="45.8451667" lon="13.4239814"><ele>11.0</ele><time>2026-04-17T14:36:50.164Z</time></trkpt><trkpt lat="45.8449792" lon="13.4240246"><ele>11.666666666666666</ele><time>2026-04-17T14:36:51.164Z</time></trkpt><trkpt lat="45.8447885" lon="13.4240422"><ele>12.333333333333332</ele><time>2026-04-17T14:36:52.164Z</time></trkpt><trkpt lat="45.8445939" lon="13.4240426"><ele>13.0</ele><time>2026-04-17T14:36:53.163Z</time></trkpt><trkpt lat="45.8443967" lon="13.424015"><ele>12.0</ele><time>2026-04-17T14:36:54.164Z</time></trkpt><trkpt lat="45.8441955" lon="13.4239491"><ele>11.0</ele><time>2026-04-17T14:36:55.164Z</time></trkpt><trkpt lat="45.8438043" lon="13.4237578"><ele>11.0</ele><time>2026-04-17T14:36:57.164Z</time></trkpt><trkpt lat="45.8436076" lon="13.42362"><ele>11.0</ele><time>2026-04-17T14:36:58.163Z</time></trkpt><trkpt lat="45.8434107" lon="13.4234433"><ele>11.0</ele><time>2026-04-17T14:36:59.164Z</time></trkpt><trkpt lat="45.8432371" lon="13.4232758"><ele>11.0</ele><time>2026-04-17T14:37:00.164Z</time></trkpt><trkpt lat="45.8430695" lon="13.4230993"><ele>11.0</ele><time>2026-04-17T14:37:01.164Z</time></trkpt><trkpt lat="45.8429089" lon="13.4229321"><ele>11.0</ele><time>2026-04-17T14:37:02.164Z</time></trkpt><trkpt lat="45.8427587" lon="13.4227721"><ele>11.0</ele><time>2026-04-17T14:37:03.164Z</time></trkpt><trkpt lat="45.8426215" lon="13.4226264"><ele>11.0</ele><time>2026-04-17T14:37:04.164Z</time></trkpt><trkpt lat="45.8424984" lon="13.4225047"><ele>10.8</ele><time>2026-04-17T14:37:05.164Z</time></trkpt><trkpt lat="45.8423931" lon="13.422403"><ele>10.600000000000001</ele><time>2026-04-17T14:37:06.164Z</time></trkpt><trkpt lat="45.8423097" lon="13.4223209"><ele>10.4</ele><time>2026-04-17T14:37:07.164Z</time></trkpt><trkpt lat="45.8422536" lon="13.4222493"><ele>10.2</ele><time>2026-04-17T14:37:08.164Z</time></trkpt><trkpt lat="45.8421754" lon="13.4221446"><ele>10.0</ele><time>2026-04-17T14:37:10.163Z</time></trkpt><trkpt lat="45.8420759" lon="13.4220579"><ele>10.0</ele><time>2026-04-17T14:37:12.164Z</time></trkpt><trkpt lat="45.8419988" lon="13.4220123"><ele>10.0</ele><time>2026-04-17T14:37:13.163Z</time></trkpt><trkpt lat="45.8419055" lon="13.4219229"><ele>10.0</ele><time>2026-04-17T14:37:14.163Z</time></trkpt><trkpt lat="45.8417942" lon="13.4218033"><ele>10.0</ele><time>2026-04-17T14:37:15.163Z</time></trkpt><trkpt lat="45.8416671" lon="13.4216685"><ele>10.0</ele><time>2026-04-17T14:37:16.164Z</time></trkpt><trkpt lat="45.8413774" lon="13.421391"><ele>10.0</ele><time>2026-04-17T14:37:18.163Z</time></trkpt><trkpt lat="45.841218" lon="13.4212321"><ele>9.333333333333334</ele><time>2026-04-17T14:37:19.164Z</time></trkpt><trkpt lat="45.8410516" lon="13.4210555"><ele>8.666666666666666</ele><time>2026-04-17T14:37:20.164Z</time></trkpt><trkpt lat="45.8408782" lon="13.4208805"><ele>8.0</ele><time>2026-04-17T14:37:21.164Z</time></trkpt><trkpt lat="45.8407131" lon="13.4207091"><ele>8.0</ele><time>2026-04-17T14:37:22.163Z</time></trkpt><trkpt lat="45.8405481" lon="13.4205446"><ele>8.0</ele><time>2026-04-17T14:37:23.164Z</time></trkpt><trkpt lat="45.8403804" lon="13.4203765"><ele>8.0</ele><time>2026-04-17T14:37:24.164Z</time></trkpt><trkpt lat="45.8402282" lon="13.420212"><ele>8.0</ele><time>2026-04-17T14:37:25.163Z</time></trkpt><trkpt lat="45.8400829" lon="13.4200606"><ele>8.0</ele><time>2026-04-17T14:37:26.164Z</time></trkpt><trkpt lat="45.8399298" lon="13.4199087"><ele>8.0</ele><time>2026-04-17T14:37:27.163Z</time></trkpt><trkpt lat="45.839784" lon="13.4197538"><ele>8.333333333333332</ele><time>2026-04-17T14:37:28.163Z</time></trkpt><trkpt lat="45.8396297" lon="13.4195974"><ele>8.666666666666666</ele><time>2026-04-17T14:37:29.164Z</time></trkpt><trkpt lat="45.8394731" lon="13.4194376"><ele>9.0</ele><time>2026-04-17T14:37:30.163Z</time></trkpt><trkpt lat="45.8393232" lon="13.4192795"><ele>9.0</ele><time>2026-04-17T14:37:31.164Z</time></trkpt><trkpt lat="45.8391683" lon="13.4191285"><ele>9.0</ele><time>2026-04-17T14:37:32.164Z</time></trkpt><trkpt lat="45.8390193" lon="13.4189829"><ele>9.0</ele><time>2026-04-17T14:37:33.164Z</time></trkpt><trkpt lat="45.8388649" lon="13.4188304"><ele>9.0</ele><time>2026-04-17T14:37:34.164Z</time></trkpt><trkpt lat="45.8387159" lon="13.4186822"><ele>9.0</ele><time>2026-04-17T14:37:35.164Z</time></trkpt><trkpt lat="45.8385724" lon="13.4185431"><ele>9.0</ele><time>2026-04-17T14:37:36.163Z</time></trkpt><trkpt lat="45.8384367" lon="13.4184005"><ele>9.0</ele><time>2026-04-17T14:37:37.163Z</time></trkpt><trkpt lat="45.8381772" lon="13.4181327"><ele>9.0</ele><time>2026-04-17T14:37:39.164Z</time></trkpt><trkpt lat="45.838065" lon="13.4180192"><ele>9.0</ele><time>2026-04-17T14:37:40.164Z</time></trkpt><trkpt lat="45.8379631" lon="13.4179094"><ele>9.0</ele><time>2026-04-17T14:37:41.163Z</time></trkpt><trkpt lat="45.8378559" lon="13.4177855"><ele>9.0</ele><time>2026-04-17T14:37:42.164Z</time></trkpt><trkpt lat="45.8377445" lon="13.4176716"><ele>9.0</ele><time>2026-04-17T14:37:43.164Z</time></trkpt><trkpt lat="45.8376178" lon="13.4175606"><ele>9.333333333333334</ele><time>2026-04-17T14:37:44.163Z</time></trkpt><trkpt lat="45.8374907" lon="13.4174353"><ele>9.666666666666668</ele><time>2026-04-17T14:37:45.164Z</time></trkpt><trkpt lat="45.8373638" lon="13.4173044"><ele>10.0</ele><time>2026-04-17T14:37:46.164Z</time></trkpt><trkpt lat="45.8372372" lon="13.4171716"><ele>10.0</ele><time>2026-04-17T14:37:47.163Z</time></trkpt><trkpt lat="45.8371208" lon="13.4170507"><ele>10.0</ele><time>2026-04-17T14:37:48.164Z</time></trkpt><trkpt lat="45.8370136" lon="13.4169413"><ele>10.0</ele><time>2026-04-17T14:37:49.163Z</time></trkpt><trkpt lat="45.8369056" lon="13.4168372"><ele>10.0</ele><time>2026-04-17T14:37:50.164Z</time></trkpt><trkpt lat="45.8368046" lon="13.4167475"><ele>10.0</ele><time>2026-04-17T14:37:51.164Z</time></trkpt><trkpt lat="45.8367078" lon="13.4166516"><ele>10.0</ele><time>2026-04-17T14:37:52.164Z</time></trkpt><trkpt lat="45.836627" lon="13.4165525"><ele>10.0</ele><time>2026-04-17T14:37:53.164Z</time></trkpt><trkpt lat="45.8365548" lon="13.4164755"><ele>10.0</ele><time>2026-04-17T14:37:54.164Z</time></trkpt><trkpt lat="45.8364934" lon="13.4164098"><ele>10.0</ele><time>2026-04-17T14:37:55.163Z</time></trkpt><trkpt lat="45.8364441" lon="13.4163348"><ele>10.0</ele><time>2026-04-17T14:37:56.163Z</time></trkpt><trkpt lat="45.8364089" lon="13.4162207"><ele>10.0</ele><time>2026-04-17T14:37:58.163Z</time></trkpt><trkpt lat="45.8362474" lon="13.4161698"><ele>10.0</ele><time>2026-04-17T14:38:05.164Z</time></trkpt><trkpt lat="45.8361332" lon="13.4160731"><ele>10.0</ele><time>2026-04-17T14:38:07.164Z</time></trkpt><trkpt lat="45.836049" lon="13.4159956"><ele>9.75</ele><time>2026-04-17T14:38:08.163Z</time></trkpt><trkpt lat="45.8359414" lon="13.4159201"><ele>9.5</ele><time>2026-04-17T14:38:09.163Z</time></trkpt><trkpt lat="45.8358099" lon="13.4158439"><ele>9.25</ele><time>2026-04-17T14:38:10.164Z</time></trkpt><trkpt lat="45.8356643" lon="13.415764"><ele>9.0</ele><time>2026-04-17T14:38:11.164Z</time></trkpt><trkpt lat="45.83551" lon="13.4156904"><ele>9.0</ele><time>2026-04-17T14:38:12.164Z</time></trkpt><trkpt lat="45.8353417" lon="13.4156215"><ele>9.0</ele><time>2026-04-17T14:38:13.164Z</time></trkpt><trkpt lat="45.8351666" lon="13.415545"><ele>9.0</ele><time>2026-04-17T14:38:14.164Z</time></trkpt><trkpt lat="45.8349854" lon="13.4154632"><ele>9.0</ele><time>2026-04-17T14:38:15.163Z</time></trkpt><trkpt lat="45.8347924" lon="13.4153772"><ele>9.0</ele><time>2026-04-17T14:38:16.164Z</time></trkpt><trkpt lat="45.834591" lon="13.4152837"><ele>9.0</ele><time>2026-04-17T14:38:17.163Z</time></trkpt><trkpt lat="45.8343819" lon="13.4151938"><ele>8.5</ele><time>2026-04-17T14:38:18.163Z</time></trkpt><trkpt lat="45.8341785" lon="13.4151086"><ele>8.0</ele><time>2026-04-17T14:38:19.164Z</time></trkpt><trkpt lat="45.8337725" lon="13.4149474"><ele>8.0</ele><time>2026-04-17T14:38:21.164Z</time></trkpt><trkpt lat="45.8335747" lon="13.414865"><ele>8.0</ele><time>2026-04-17T14:38:22.163Z</time></trkpt><trkpt lat="45.8333749" lon="13.4147734"><ele>8.0</ele><time>2026-04-17T14:38:23.164Z</time></trkpt><trkpt lat="45.8331706" lon="13.4146873"><ele>8.0</ele><time>2026-04-17T14:38:24.164Z</time></trkpt><trkpt lat="45.8329699" lon="13.4146077"><ele>8.0</ele><time>2026-04-17T14:38:25.164Z</time></trkpt><trkpt lat="45.8327793" lon="13.4145375"><ele>8.0</ele><time>2026-04-17T14:38:26.164Z</time></trkpt><trkpt lat="45.8325865" lon="13.4144605"><ele>8.0</ele><time>2026-04-17T14:38:27.164Z</time></trkpt><trkpt lat="45.8324006" lon="13.4143724"><ele>8.0</ele><time>2026-04-17T14:38:28.164Z</time></trkpt><trkpt lat="45.8322209" lon="13.4142911"><ele>8.0</ele><time>2026-04-17T14:38:29.164Z</time></trkpt><trkpt lat="45.8320466" lon="13.4142234"><ele>8.0</ele><time>2026-04-17T14:38:30.164Z</time></trkpt><trkpt lat="45.831885" lon="13.4141673"><ele>8.0</ele><time>2026-04-17T14:38:31.164Z</time></trkpt><trkpt lat="45.8317275" lon="13.4141085"><ele>8.0</ele><time>2026-04-17T14:38:32.164Z</time></trkpt><trkpt lat="45.8315803" lon="13.4140596"><ele>8.0</ele><time>2026-04-17T14:38:33.164Z</time></trkpt><trkpt lat="45.831431" lon="13.4140209"><ele>8.0</ele><time>2026-04-17T14:38:34.164Z</time></trkpt><trkpt lat="45.8312888" lon="13.4139923"><ele>8.0</ele><time>2026-04-17T14:38:35.164Z</time></trkpt><trkpt lat="45.8311417" lon="13.4139832"><ele>8.0</ele><time>2026-04-17T14:38:36.164Z</time></trkpt><trkpt lat="45.8309807" lon="13.4139855"><ele>8.333333333333332</ele><time>2026-04-17T14:38:37.163Z</time></trkpt><trkpt lat="45.8308094" lon="13.4139809"><ele>8.666666666666666</ele><time>2026-04-17T14:38:38.163Z</time></trkpt><trkpt lat="45.8306351" lon="13.4139696"><ele>9.0</ele><time>2026-04-17T14:38:39.164Z</time></trkpt><trkpt lat="45.8304525" lon="13.4139608"><ele>8.5</ele><time>2026-04-17T14:38:40.163Z</time></trkpt><trkpt lat="45.8300833" lon="13.4139997"><ele>8.0</ele><time>2026-04-17T14:38:42.163Z</time></trkpt><trkpt lat="45.8298949" lon="13.4140029"><ele>8.0</ele><time>2026-04-17T14:38:43.163Z</time></trkpt><trkpt lat="45.8297005" lon="13.4139977"><ele>8.0</ele><time>2026-04-17T14:38:44.164Z</time></trkpt><trkpt lat="45.829501" lon="13.4139898"><ele>8.0</ele><time>2026-04-17T14:38:45.164Z</time></trkpt><trkpt lat="45.8293067" lon="13.4139858"><ele>8.333333333333332</ele><time>2026-04-17T14:38:46.164Z</time></trkpt><trkpt lat="45.8291073" lon="13.4139803"><ele>8.666666666666666</ele><time>2026-04-17T14:38:47.164Z</time></trkpt><trkpt lat="45.8289054" lon="13.4139815"><ele>9.0</ele><time>2026-04-17T14:38:48.163Z</time></trkpt><trkpt lat="45.8286981" lon="13.413983"><ele>9.0</ele><time>2026-04-17T14:38:49.164Z</time></trkpt><trkpt lat="45.8284969" lon="13.4139805"><ele>9.0</ele><time>2026-04-17T14:38:50.163Z</time></trkpt><trkpt lat="45.8283022" lon="13.4139779"><ele>9.0</ele><time>2026-04-17T14:38:51.164Z</time></trkpt><trkpt lat="45.8281021" lon="13.4139811"><ele>8.666666666666666</ele><time>2026-04-17T14:38:52.164Z</time></trkpt><trkpt lat="45.8278973" lon="13.4139852"><ele>8.333333333333332</ele><time>2026-04-17T14:38:53.164Z</time></trkpt><trkpt lat="45.8276997" lon="13.4139789"><ele>8.0</ele><time>2026-04-17T14:38:54.163Z</time></trkpt><trkpt lat="45.827503" lon="13.4139642"><ele>8.0</ele><time>2026-04-17T14:38:55.163Z</time></trkpt><trkpt lat="45.8273195" lon="13.4139705"><ele>8.0</ele><time>2026-04-17T14:38:56.164Z</time></trkpt><trkpt lat="45.827153" lon="13.4139722"><ele>8.0</ele><time>2026-04-17T14:38:57.163Z</time></trkpt><trkpt lat="45.8270213" lon="13.41398"><ele>8.0</ele><time>2026-04-17T14:38:58.164Z</time></trkpt><trkpt lat="45.8269264" lon="13.4139706"><ele>8.0</ele><time>2026-04-17T14:38:59.164Z</time></trkpt><trkpt lat="45.8268586" lon="13.413939"><ele>8.0</ele><time>2026-04-17T14:39:00.163Z</time></trkpt><trkpt lat="45.8267833" lon="13.4139106"><ele>8.0</ele><time>2026-04-17T14:39:02.163Z</time></trkpt><trkpt lat="45.826624" lon="13.4140793"><ele>8.0</ele><time>2026-04-17T14:39:06.164Z</time></trkpt><trkpt lat="45.8265367" lon="13.4141123"><ele>8.0</ele><time>2026-04-17T14:39:07.164Z</time></trkpt><trkpt lat="45.8264235" lon="13.4141572"><ele>8.0</ele><time>2026-04-17T14:39:08.163Z</time></trkpt><trkpt lat="45.8262861" lon="13.4142102"><ele>8.0</ele><time>2026-04-17T14:39:09.164Z</time></trkpt><trkpt lat="45.8261275" lon="13.4142655"><ele>8.0</ele><time>2026-04-17T14:39:10.163Z</time></trkpt><trkpt lat="45.8259561" lon="13.414335"><ele>7.666666666666666</ele><time>2026-04-17T14:39:11.164Z</time></trkpt><trkpt lat="45.825778" lon="13.4144051"><ele>7.333333333333334</ele><time>2026-04-17T14:39:12.164Z</time></trkpt><trkpt lat="45.8256025" lon="13.4144603"><ele>7.0</ele><time>2026-04-17T14:39:13.163Z</time></trkpt><trkpt lat="45.8254427" lon="13.414519"><ele>7.0</ele><time>2026-04-17T14:39:14.163Z</time></trkpt><trkpt lat="45.8252805" lon="13.4145815"><ele>7.0</ele><time>2026-04-17T14:39:15.163Z</time></trkpt><trkpt lat="45.8251201" lon="13.4146475"><ele>7.0</ele><time>2026-04-17T14:39:16.163Z</time></trkpt><trkpt lat="45.8249526" lon="13.4147086"><ele>7.666666666666667</ele><time>2026-04-17T14:39:17.163Z</time></trkpt><trkpt lat="45.8247822" lon="13.414769"><ele>8.333333333333334</ele><time>2026-04-17T14:39:18.163Z</time></trkpt><trkpt lat="45.8246103" lon="13.4148377"><ele>9.0</ele><time>2026-04-17T14:39:19.164Z</time></trkpt><trkpt lat="45.8244328" lon="13.4149112"><ele>8.666666666666666</ele><time>2026-04-17T14:39:20.164Z</time></trkpt><trkpt lat="45.824251" lon="13.4149806"><ele>8.333333333333332</ele><time>2026-04-17T14:39:21.164Z</time></trkpt><trkpt lat="45.8240718" lon="13.4150513"><ele>8.0</ele><time>2026-04-17T14:39:22.164Z</time></trkpt><trkpt lat="45.8238885" lon="13.4151188"><ele>8.0</ele><time>2026-04-17T14:39:23.164Z</time></trkpt><trkpt lat="45.823548" lon="13.4152381"><ele>8.0</ele><time>2026-04-17T14:39:25.163Z</time></trkpt><trkpt lat="45.8234005" lon="13.4152926"><ele>8.0</ele><time>2026-04-17T14:39:26.164Z</time></trkpt><trkpt lat="45.8232566" lon="13.4153399"><ele>8.0</ele><time>2026-04-17T14:39:27.164Z</time></trkpt><trkpt lat="45.823118" lon="13.4153906"><ele>8.0</ele><time>2026-04-17T14:39:28.164Z</time></trkpt><trkpt lat="45.8229764" lon="13.4154327"><ele>8.0</ele><time>2026-04-17T14:39:29.164Z</time></trkpt><trkpt lat="45.8228377" lon="13.4154814"><ele>8.0</ele><time>2026-04-17T14:39:30.164Z</time></trkpt><trkpt lat="45.822705" lon="13.4155366"><ele>8.0</ele><time>2026-04-17T14:39:31.163Z</time></trkpt><trkpt lat="45.8225819" lon="13.4155864"><ele>8.0</ele><time>2026-04-17T14:39:32.164Z</time></trkpt><trkpt lat="45.8224712" lon="13.41564"><ele>8.0</ele><time>2026-04-17T14:39:33.163Z</time></trkpt><trkpt lat="45.8223685" lon="13.4157039"><ele>8.166666666666666</ele><time>2026-04-17T14:39:34.164Z</time></trkpt><trkpt lat="45.8222742" lon="13.4157634"><ele>8.333333333333332</ele><time>2026-04-17T14:39:35.164Z</time></trkpt><trkpt lat="45.822201" lon="13.4158191"><ele>8.5</ele><time>2026-04-17T14:39:36.164Z</time></trkpt><trkpt lat="45.8221307" lon="13.41588"><ele>8.666666666666666</ele><time>2026-04-17T14:39:38.163Z</time></trkpt><trkpt lat="45.8220491" lon="13.4159241"><ele>8.833333333333334</ele><time>2026-04-17T14:39:40.164Z</time></trkpt><trkpt lat="45.8219663" lon="13.4159642"><ele>9.0</ele><time>2026-04-17T14:39:41.164Z</time></trkpt><trkpt lat="45.8218559" lon="13.4160187"><ele>9.0</ele><time>2026-04-17T14:39:42.163Z</time></trkpt><trkpt lat="45.8217305" lon="13.4160924"><ele>9.0</ele><time>2026-04-17T14:39:43.164Z</time></trkpt><trkpt lat="45.8215836" lon="13.4161703"><ele>9.0</ele><time>2026-04-17T14:39:44.163Z</time></trkpt><trkpt lat="45.8212704" lon="13.4163274"><ele>9.333333333333334</ele><time>2026-04-17T14:39:46.163Z</time></trkpt><trkpt lat="45.8211052" lon="13.4164174"><ele>9.666666666666668</ele><time>2026-04-17T14:39:47.164Z</time></trkpt><trkpt lat="45.8209511" lon="13.4165077"><ele>10.0</ele><time>2026-04-17T14:39:48.163Z</time></trkpt><trkpt lat="45.8207922" lon="13.4165983"><ele>10.0</ele><time>2026-04-17T14:39:49.164Z</time></trkpt><trkpt lat="45.8206244" lon="13.4166952"><ele>10.0</ele><time>2026-04-17T14:39:50.163Z</time></trkpt><trkpt lat="45.8204513" lon="13.4167994"><ele>10.0</ele><time>2026-04-17T14:39:51.164Z</time></trkpt><trkpt lat="45.8202766" lon="13.4168937"><ele>10.0</ele><time>2026-04-17T14:39:52.164Z</time></trkpt><trkpt lat="45.8201002" lon="13.4169914"><ele>10.0</ele><time>2026-04-17T14:39:53.164Z</time></trkpt><trkpt lat="45.8199258" lon="13.417085"><ele>10.0</ele><time>2026-04-17T14:39:54.163Z</time></trkpt><trkpt lat="45.8197508" lon="13.4171819"><ele>10.0</ele><time>2026-04-17T14:39:55.163Z</time></trkpt><trkpt lat="45.8195758" lon="13.4172731"><ele>10.0</ele><time>2026-04-17T14:39:56.163Z</time></trkpt><trkpt lat="45.8193991" lon="13.4173754"><ele>10.0</ele><time>2026-04-17T14:39:57.163Z</time></trkpt><trkpt lat="45.8192235" lon="13.4174688"><ele>9.333333333333334</ele><time>2026-04-17T14:39:58.164Z</time></trkpt><trkpt lat="45.8190441" lon="13.4175679"><ele>8.666666666666666</ele><time>2026-04-17T14:39:59.164Z</time></trkpt><trkpt lat="45.8188659" lon="13.4176683"><ele>8.0</ele><time>2026-04-17T14:40:00.164Z</time></trkpt><trkpt lat="45.8186945" lon="13.4177657"><ele>8.0</ele><time>2026-04-17T14:40:01.164Z</time></trkpt><trkpt lat="45.8185246" lon="13.4178679"><ele>8.0</ele><time>2026-04-17T14:40:02.163Z</time></trkpt><trkpt lat="45.8183685" lon="13.4179521"><ele>8.0</ele><time>2026-04-17T14:40:03.164Z</time></trkpt><trkpt lat="45.8182241" lon="13.418037"><ele>8.0</ele><time>2026-04-17T14:40:04.164Z</time></trkpt><trkpt lat="45.8180922" lon="13.4181125"><ele>8.0</ele><time>2026-04-17T14:40:05.163Z</time></trkpt><trkpt lat="45.8178779" lon="13.4182502"><ele>8.0</ele><time>2026-04-17T14:40:07.164Z</time></trkpt><trkpt lat="45.8177964" lon="13.4183233"><ele>8.0</ele><time>2026-04-17T14:40:08.164Z</time></trkpt><trkpt lat="45.8177239" lon="13.4183947"><ele>8.0</ele><time>2026-04-17T14:40:09.164Z</time></trkpt><trkpt lat="45.8176545" lon="13.4184788"><ele>8.0</ele><time>2026-04-17T14:40:10.164Z</time></trkpt><trkpt lat="45.8175715" lon="13.418567"><ele>8.0</ele><time>2026-04-17T14:40:11.163Z</time></trkpt><trkpt lat="45.8174764" lon="13.4186735"><ele>8.0</ele><time>2026-04-17T14:40:12.164Z</time></trkpt><trkpt lat="45.8173595" lon="13.4188029"><ele>9.0</ele><time>2026-04-17T14:40:13.164Z</time></trkpt><trkpt lat="45.8172207" lon="13.4189321"><ele>10.0</ele><time>2026-04-17T14:40:14.164Z</time></trkpt><trkpt lat="45.8170687" lon="13.4190612"><ele>11.0</ele><time>2026-04-17T14:40:15.164Z</time></trkpt><trkpt lat="45.816902" lon="13.4191766"><ele>9.0</ele><time>2026-04-17T14:40:16.164Z</time></trkpt><trkpt lat="45.8167267" lon="13.4193025"><ele>7.0</ele><time>2026-04-17T14:40:17.164Z</time></trkpt><trkpt lat="45.816545" lon="13.4194306"><ele>5.0</ele><time>2026-04-17T14:40:18.164Z</time></trkpt><trkpt lat="45.8163578" lon="13.4195638"><ele>5.333333333333334</ele><time>2026-04-17T14:40:19.164Z</time></trkpt><trkpt lat="45.8161869" lon="13.419684"><ele>5.666666666666667</ele><time>2026-04-17T14:40:20.164Z</time></trkpt><trkpt lat="45.8160339" lon="13.4197874"><ele>6.0</ele><time>2026-04-17T14:40:21.164Z</time></trkpt><trkpt lat="45.8159004" lon="13.4198907"><ele>6.25</ele><time>2026-04-17T14:40:22.164Z</time></trkpt><trkpt lat="45.8157756" lon="13.4199852"><ele>6.5</ele><time>2026-04-17T14:40:23.164Z</time></trkpt><trkpt lat="45.8156567" lon="13.4200695"><ele>6.75</ele><time>2026-04-17T14:40:24.164Z</time></trkpt><trkpt lat="45.8155413" lon="13.4201517"><ele>7.0</ele><time>2026-04-17T14:40:25.164Z</time></trkpt><trkpt lat="45.8154203" lon="13.4202419"><ele>7.0</ele><time>2026-04-17T14:40:26.164Z</time></trkpt><trkpt lat="45.8151726" lon="13.4204084"><ele>7.0</ele><time>2026-04-17T14:40:28.163Z</time></trkpt><trkpt lat="45.8150481" lon="13.4204932"><ele>7.0</ele><time>2026-04-17T14:40:29.164Z</time></trkpt><trkpt lat="45.8149295" lon="13.4205767"><ele>8.0</ele><time>2026-04-17T14:40:30.164Z</time></trkpt><trkpt lat="45.8148066" lon="13.4206752"><ele>9.0</ele><time>2026-04-17T14:40:31.163Z</time></trkpt><trkpt lat="45.8146879" lon="13.4207696"><ele>10.0</ele><time>2026-04-17T14:40:32.164Z</time></trkpt><trkpt lat="45.8145683" lon="13.4208644"><ele>11.0</ele><time>2026-04-17T14:40:33.164Z</time></trkpt><trkpt lat="45.8144541" lon="13.4209517"><ele>11.0</ele><time>2026-04-17T14:40:34.164Z</time></trkpt><trkpt lat="45.8143475" lon="13.4210282"><ele>11.0</ele><time>2026-04-17T14:40:35.164Z</time></trkpt><trkpt lat="45.8142494" lon="13.4210976"><ele>11.0</ele><time>2026-04-17T14:40:36.164Z</time></trkpt><trkpt lat="45.8141461" lon="13.4211745"><ele>11.0</ele><time>2026-04-17T14:40:37.164Z</time></trkpt><trkpt lat="45.8140393" lon="13.421246"><ele>10.5</ele><time>2026-04-17T14:40:38.164Z</time></trkpt><trkpt lat="45.8139318" lon="13.4213287"><ele>10.0</ele><time>2026-04-17T14:40:39.164Z</time></trkpt><trkpt lat="45.8138222" lon="13.4214119"><ele>9.5</ele><time>2026-04-17T14:40:40.164Z</time></trkpt><trkpt lat="45.8137135" lon="13.4214892"><ele>9.0</ele><time>2026-04-17T14:40:41.164Z</time></trkpt><trkpt lat="45.8136121" lon="13.4215565"><ele>9.0</ele><time>2026-04-17T14:40:42.164Z</time></trkpt><trkpt lat="45.8135192" lon="13.421624"><ele>9.0</ele><time>2026-04-17T14:40:43.163Z</time></trkpt><trkpt lat="45.8134323" lon="13.4216818"><ele>9.0</ele><time>2026-04-17T14:40:44.164Z</time></trkpt><trkpt lat="45.8133478" lon="13.4217461"><ele>9.0</ele><time>2026-04-17T14:40:45.164Z</time></trkpt><trkpt lat="45.8132619" lon="13.421819"><ele>9.0</ele><time>2026-04-17T14:40:46.164Z</time></trkpt><trkpt lat="45.8131603" lon="13.4218944"><ele>9.0</ele><time>2026-04-17T14:40:47.164Z</time></trkpt><trkpt lat="45.8129289" lon="13.4220433"><ele>9.0</ele><time>2026-04-17T14:40:49.164Z</time></trkpt><trkpt lat="45.8128056" lon="13.42214"><ele>9.0</ele><time>2026-04-17T14:40:50.164Z</time></trkpt><trkpt lat="45.8126728" lon="13.4222359"><ele>8.333333333333334</ele><time>2026-04-17T14:40:51.164Z</time></trkpt><trkpt lat="45.8125346" lon="13.4223373"><ele>7.666666666666667</ele><time>2026-04-17T14:40:52.164Z</time></trkpt><trkpt lat="45.812399" lon="13.4224411"><ele>7.0</ele><time>2026-04-17T14:40:53.164Z</time></trkpt><trkpt lat="45.812261" lon="13.4225586"><ele>7.0</ele><time>2026-04-17T14:40:54.164Z</time></trkpt><trkpt lat="45.812112" lon="13.4226754"><ele>7.0</ele><time>2026-04-17T14:40:55.164Z</time></trkpt><trkpt lat="45.8119613" lon="13.4227864"><ele>7.0</ele><time>2026-04-17T14:40:56.164Z</time></trkpt><trkpt lat="45.8118036" lon="13.4228914"><ele>7.0</ele><time>2026-04-17T14:40:57.164Z</time></trkpt><trkpt lat="45.8116491" lon="13.4230072"><ele>7.0</ele><time>2026-04-17T14:40:58.164Z</time></trkpt><trkpt lat="45.8115013" lon="13.4231202"><ele>7.0</ele><time>2026-04-17T14:40:59.164Z</time></trkpt><trkpt lat="45.811357" lon="13.4232274"><ele>7.0</ele><time>2026-04-17T14:41:00.163Z</time></trkpt><trkpt lat="45.8112236" lon="13.4233322"><ele>7.0</ele><time>2026-04-17T14:41:01.164Z</time></trkpt><trkpt lat="45.8111107" lon="13.4234235"><ele>7.0</ele><time>2026-04-17T14:41:02.164Z</time></trkpt><trkpt lat="45.8110048" lon="13.4234982"><ele>7.0</ele><time>2026-04-17T14:41:03.164Z</time></trkpt><trkpt lat="45.8109041" lon="13.4235661"><ele>7.0</ele><time>2026-04-17T14:41:04.164Z</time></trkpt><trkpt lat="45.8107997" lon="13.4236443"><ele>7.0</ele><time>2026-04-17T14:41:05.164Z</time></trkpt><trkpt lat="45.8106811" lon="13.4237281"><ele>7.0</ele><time>2026-04-17T14:41:06.164Z</time></trkpt><trkpt lat="45.8105636" lon="13.4238096"><ele>7.0</ele><time>2026-04-17T14:41:07.164Z</time></trkpt><trkpt lat="45.8104464" lon="13.423891"><ele>7.0</ele><time>2026-04-17T14:41:08.164Z</time></trkpt><trkpt lat="45.8102448" lon="13.4240352"><ele>7.0</ele><time>2026-04-17T14:41:10.163Z</time></trkpt><trkpt lat="45.8101406" lon="13.4240985"><ele>7.0</ele><time>2026-04-17T14:41:11.163Z</time></trkpt><trkpt lat="45.810032" lon="13.4241545"><ele>7.3999999999999995</ele><time>2026-04-17T14:41:12.163Z</time></trkpt><trkpt lat="45.8099371" lon="13.424204"><ele>7.799999999999999</ele><time>2026-04-17T14:41:13.162Z</time></trkpt><trkpt lat="45.8098579" lon="13.4242273"><ele>8.2</ele><time>2026-04-17T14:41:14.162Z</time></trkpt><trkpt lat="45.809741" lon="13.4242237"><ele>8.6</ele><time>2026-04-17T14:41:16.163Z</time></trkpt><trkpt lat="45.8096151" lon="13.4241625"><ele>9.0</ele><time>2026-04-17T14:41:18.163Z</time></trkpt><trkpt lat="45.8095358" lon="13.4241132"><ele>9.0</ele><time>2026-04-17T14:41:19.162Z</time></trkpt><trkpt lat="45.8094489" lon="13.4240607"><ele>9.0</ele><time>2026-04-17T14:41:20.163Z</time></trkpt><trkpt lat="45.8093668" lon="13.4240137"><ele>9.0</ele><time>2026-04-17T14:41:21.163Z</time></trkpt><trkpt lat="45.8093003" lon="13.4239687"><ele>9.0</ele><time>2026-04-17T14:41:22.162Z</time></trkpt><trkpt lat="45.8092207" lon="13.4239061"><ele>9.0</ele><time>2026-04-17T14:41:24.163Z</time></trkpt><trkpt lat="45.8091246" lon="13.423986"><ele>8.75</ele><time>2026-04-17T14:41:35.163Z</time></trkpt><trkpt lat="45.808912" lon="13.4239851"><ele>8.5</ele><time>2026-04-17T14:41:39.162Z</time></trkpt><trkpt lat="45.8088342" lon="13.4239751"><ele>8.25</ele><time>2026-04-17T14:41:41.163Z</time></trkpt><trkpt lat="45.8087094" lon="13.4240285"><ele>8.0</ele><time>2026-04-17T14:41:43.163Z</time></trkpt><trkpt lat="45.8086322" lon="13.4240481"><ele>8.0</ele><time>2026-04-17T14:41:44.162Z</time></trkpt><trkpt lat="45.8085541" lon="13.4240624"><ele>8.0</ele><time>2026-04-17T14:41:45.162Z</time></trkpt><trkpt lat="45.8084764" lon="13.4240771"><ele>8.0</ele><time>2026-04-17T14:41:46.162Z</time></trkpt><trkpt lat="45.8083596" lon="13.4240964"><ele>8.0</ele><time>2026-04-17T14:41:48.163Z</time></trkpt><trkpt lat="45.8082606" lon="13.4240946"><ele>8.0</ele><time>2026-04-17T14:41:50.163Z</time></trkpt><trkpt lat="45.8081684" lon="13.4241276"><ele>7.800000000000001</ele><time>2026-04-17T14:41:52.163Z</time></trkpt><trkpt lat="45.8080837" lon="13.4241533"><ele>7.6000000000000005</ele><time>2026-04-17T14:41:54.162Z</time></trkpt><trkpt lat="45.8079865" lon="13.4241859"><ele>7.3999999999999995</ele><time>2026-04-17T14:41:56.163Z</time></trkpt><trkpt lat="45.8079249" lon="13.4243766"><ele>7.199999999999999</ele><time>2026-04-17T14:41:59.163Z</time></trkpt><trkpt lat="45.8079283" lon="13.4245009"><ele>7.0</ele><time>2026-04-17T14:42:00.163Z</time></trkpt><trkpt lat="45.8079354" lon="13.4246512"><ele>7.0</ele><time>2026-04-17T14:42:01.163Z</time></trkpt><trkpt lat="45.8079443" lon="13.4248264"><ele>6.999999999999999</ele><time>2026-04-17T14:42:02.162Z</time></trkpt><trkpt lat="45.8079581" lon="13.4249993"><ele>6.999999999999999</ele><time>2026-04-17T14:42:03.163Z</time></trkpt><trkpt lat="45.8079818" lon="13.4251518"><ele>7.0</ele><time>2026-04-17T14:42:04.163Z</time></trkpt><trkpt lat="45.8080083" lon="13.4252796"><ele>7.0</ele><time>2026-04-17T14:42:05.162Z</time></trkpt><trkpt lat="45.8080154" lon="13.4253891"><ele>7.0</ele><time>2026-04-17T14:42:06.162Z</time></trkpt><trkpt lat="45.8080035" lon="13.4254842"><ele>6.999999999999999</ele><time>2026-04-17T14:42:07.163Z</time></trkpt><trkpt lat="45.8079567" lon="13.4255666"><ele>6.999999999999999</ele><time>2026-04-17T14:42:08.162Z</time></trkpt><trkpt lat="45.8078742" lon="13.4256329"><ele>7.0</ele><time>2026-04-17T14:42:09.163Z</time></trkpt><trkpt lat="45.8077549" lon="13.4256743"><ele>7.0</ele><time>2026-04-17T14:42:10.163Z</time></trkpt><trkpt lat="45.8076299" lon="13.4257048"><ele>7.0</ele><time>2026-04-17T14:42:11.163Z</time></trkpt><trkpt lat="45.8075249" lon="13.425753"><ele>6.999999999999999</ele><time>2026-04-17T14:42:12.163Z</time></trkpt><trkpt lat="45.8074494" lon="13.4258119"><ele>6.999999999999999</ele><time>2026-04-17T14:42:13.162Z</time></trkpt><trkpt lat="45.8073761" lon="13.4258858"><ele>7.0</ele><time>2026-04-17T14:42:14.162Z</time></trkpt><trkpt lat="45.8072915" lon="13.4259526"><ele>7.0</ele><time>2026-04-17T14:42:15.162Z</time></trkpt><trkpt lat="45.8072023" lon="13.4260081"><ele>7.0</ele><time>2026-04-17T14:42:16.163Z</time></trkpt><trkpt lat="45.8071076" lon="13.4260781"><ele>7.0</ele><time>2026-04-17T14:42:17.163Z</time></trkpt><trkpt lat="45.8069404" lon="13.4261982"><ele>7.0</ele><time>2026-04-17T14:42:19.163Z</time></trkpt><trkpt lat="45.8068755" lon="13.4262427"><ele>7.0</ele><time>2026-04-17T14:42:20.162Z</time></trkpt><trkpt lat="45.8067791" lon="13.4262902"><ele>6.8</ele><time>2026-04-17T14:42:22.163Z</time></trkpt><trkpt lat="45.8067204" lon="13.4261879"><ele>6.6</ele><time>2026-04-17T14:42:25.163Z</time></trkpt><trkpt lat="45.8066533" lon="13.4260204"><ele>6.3999999999999995</ele><time>2026-04-17T14:42:27.163Z</time></trkpt><trkpt lat="45.8066001" lon="13.4259119"><ele>6.199999999999999</ele><time>2026-04-17T14:42:28.162Z</time></trkpt><trkpt lat="45.8065229" lon="13.4257835"><ele>6.0</ele><time>2026-04-17T14:42:29.163Z</time></trkpt><trkpt lat="45.806441" lon="13.4256356"><ele>6.0</ele><time>2026-04-17T14:42:30.163Z</time></trkpt><trkpt lat="45.8063725" lon="13.4254946"><ele>6.0</ele><time>2026-04-17T14:42:31.163Z</time></trkpt><trkpt lat="45.8063098" lon="13.4253717"><ele>6.0</ele><time>2026-04-17T14:42:32.163Z</time></trkpt><trkpt lat="45.8062595" lon="13.4252628"><ele>6.0</ele><time>2026-04-17T14:42:33.163Z</time></trkpt><trkpt lat="45.8062224" lon="13.4251827"><ele>6.0</ele><time>2026-04-17T14:42:34.162Z</time></trkpt><trkpt lat="45.8061535" lon="13.4251178"><ele>6.0</ele><time>2026-04-17T14:42:36.163Z</time></trkpt><trkpt lat="45.8060443" lon="13.4252042"><ele>6.0</ele><time>2026-04-17T14:42:38.162Z</time></trkpt><trkpt lat="45.8058905" lon="13.4254191"><ele>6.0</ele><time>2026-04-17T14:42:40.163Z</time></trkpt><trkpt lat="45.8058161" lon="13.4254998"><ele>6.0</ele><time>2026-04-17T14:42:41.163Z</time></trkpt><trkpt lat="45.8057487" lon="13.4255658"><ele>6.0</ele><time>2026-04-17T14:42:42.163Z</time></trkpt><trkpt lat="45.8056825" lon="13.4256094"><ele>6.0</ele><time>2026-04-17T14:42:43.163Z</time></trkpt><trkpt lat="45.8056132" lon="13.4256308"><ele>6.0</ele><time>2026-04-17T14:42:44.162Z</time></trkpt><trkpt lat="45.8055381" lon="13.4256303"><ele>6.0</ele><time>2026-04-17T14:42:45.163Z</time></trkpt><trkpt lat="45.8054473" lon="13.4255984"><ele>6.0</ele><time>2026-04-17T14:42:46.162Z</time></trkpt><trkpt lat="45.8053498" lon="13.4255625"><ele>6.0</ele><time>2026-04-17T14:42:47.163Z</time></trkpt><trkpt lat="45.8052645" lon="13.4255327"><ele>6.0</ele><time>2026-04-17T14:42:48.162Z</time></trkpt><trkpt lat="45.805174" lon="13.4255189"><ele>6.0</ele><time>2026-04-17T14:42:49.162Z</time></trkpt><trkpt lat="45.8050873" lon="13.4255107"><ele>6.0</ele><time>2026-04-17T14:42:50.163Z</time></trkpt><trkpt lat="45.8050068" lon="13.425508"><ele>6.0</ele><time>2026-04-17T14:42:51.162Z</time></trkpt><trkpt lat="45.8049436" lon="13.4255061"><ele>6.0</ele><time>2026-04-17T14:42:52.163Z</time></trkpt><trkpt lat="45.8048763" lon="13.425505"><ele>6.0</ele><time>2026-04-17T14:42:54.163Z</time></trkpt><trkpt lat="45.8047996" lon="13.425565"><ele>6.333333333333334</ele><time>2026-04-17T14:43:09.162Z</time></trkpt><trkpt lat="45.8047711" lon="13.4257997"><ele>6.666666666666667</ele><time>2026-04-17T14:43:11.163Z</time></trkpt><trkpt lat="45.8047701" lon="13.4259834"><ele>7.0</ele><time>2026-04-17T14:43:12.162Z</time></trkpt><trkpt lat="45.8047822" lon="13.4262102"><ele>8.0</ele><time>2026-04-17T14:43:13.163Z</time></trkpt><trkpt lat="45.8048015" lon="13.4264511"><ele>9.0</ele><time>2026-04-17T14:43:14.162Z</time></trkpt><trkpt lat="45.804837" lon="13.4266934"><ele>10.0</ele><time>2026-04-17T14:43:15.163Z</time></trkpt><trkpt lat="45.8048773" lon="13.426944"><ele>10.0</ele><time>2026-04-17T14:43:16.163Z</time></trkpt><trkpt lat="45.8049286" lon="13.4271842"><ele>10.0</ele><time>2026-04-17T14:43:17.163Z</time></trkpt><trkpt lat="45.804988" lon="13.4274117"><ele>10.0</ele><time>2026-04-17T14:43:18.163Z</time></trkpt><trkpt lat="45.8050456" lon="13.4276311"><ele>10.0</ele><time>2026-04-17T14:43:19.163Z</time></trkpt><trkpt lat="45.8051028" lon="13.4278321"><ele>10.0</ele><time>2026-04-17T14:43:20.163Z</time></trkpt><trkpt lat="45.805158" lon="13.4280305"><ele>10.0</ele><time>2026-04-17T14:43:21.163Z</time></trkpt><trkpt lat="45.8052088" lon="13.4282286"><ele>10.0</ele><time>2026-04-17T14:43:22.162Z</time></trkpt><trkpt lat="45.8052648" lon="13.4284262"><ele>9.5</ele><time>2026-04-17T14:43:23.163Z</time></trkpt><trkpt lat="45.8053158" lon="13.428623"><ele>9.0</ele><time>2026-04-17T14:43:24.163Z</time></trkpt><trkpt lat="45.8053702" lon="13.4288158"><ele>8.5</ele><time>2026-04-17T14:43:25.162Z</time></trkpt><trkpt lat="45.8054191" lon="13.4290035"><ele>8.0</ele><time>2026-04-17T14:43:26.163Z</time></trkpt><trkpt lat="45.8054718" lon="13.4291776"><ele>7.0</ele><time>2026-04-17T14:43:27.163Z</time></trkpt><trkpt lat="45.8055236" lon="13.4293473"><ele>6.0</ele><time>2026-04-17T14:43:28.163Z</time></trkpt><trkpt lat="45.8055783" lon="13.4295261"><ele>5.0</ele><time>2026-04-17T14:43:29.162Z</time></trkpt><trkpt lat="45.8056285" lon="13.4297026"><ele>4.0</ele><time>2026-04-17T14:43:30.163Z</time></trkpt><trkpt lat="45.8057343" lon="13.430076"><ele>4.0</ele><time>2026-04-17T14:43:32.163Z</time></trkpt><trkpt lat="45.8057868" lon="13.4302606"><ele>4.0</ele><time>2026-04-17T14:43:33.162Z</time></trkpt><trkpt lat="45.8058373" lon="13.4304515"><ele>4.0</ele><time>2026-04-17T14:43:34.163Z</time></trkpt><trkpt lat="45.8058934" lon="13.4306405"><ele>4.0</ele><time>2026-04-17T14:43:35.162Z</time></trkpt><trkpt lat="45.805947" lon="13.4308282"><ele>3.75</ele><time>2026-04-17T14:43:36.163Z</time></trkpt><trkpt lat="45.8059975" lon="13.431009"><ele>3.5</ele><time>2026-04-17T14:43:37.162Z</time></trkpt><trkpt lat="45.8060459" lon="13.4311884"><ele>3.25</ele><time>2026-04-17T14:43:38.163Z</time></trkpt><trkpt lat="45.8060867" lon="13.4313622"><ele>3.0</ele><time>2026-04-17T14:43:39.163Z</time></trkpt><trkpt lat="45.8061337" lon="13.4315323"><ele>3.5</ele><time>2026-04-17T14:43:40.162Z</time></trkpt><trkpt lat="45.806185" lon="13.4317053"><ele>4.0</ele><time>2026-04-17T14:43:41.163Z</time></trkpt><trkpt lat="45.8062349" lon="13.4318886"><ele>4.5</ele><time>2026-04-17T14:43:42.163Z</time></trkpt><trkpt lat="45.8062868" lon="13.4320765"><ele>5.0</ele><time>2026-04-17T14:43:43.162Z</time></trkpt><trkpt lat="45.8063385" lon="13.4322521"><ele>6.25</ele><time>2026-04-17T14:43:44.163Z</time></trkpt><trkpt lat="45.8063917" lon="13.4324287"><ele>7.5</ele><time>2026-04-17T14:43:45.163Z</time></trkpt><trkpt lat="45.8064507" lon="13.4326032"><ele>8.75</ele><time>2026-04-17T14:43:46.163Z</time></trkpt><trkpt lat="45.8065029" lon="13.4327869"><ele>10.0</ele><time>2026-04-17T14:43:47.163Z</time></trkpt><trkpt lat="45.8065579" lon="13.432972"><ele>10.25</ele><time>2026-04-17T14:43:48.162Z</time></trkpt><trkpt lat="45.8066086" lon="13.4331499"><ele>10.5</ele><time>2026-04-17T14:43:49.163Z</time></trkpt><trkpt lat="45.8066602" lon="13.433324"><ele>10.75</ele><time>2026-04-17T14:43:50.163Z</time></trkpt><trkpt lat="45.8067106" lon="13.4335066"><ele>11.0</ele><time>2026-04-17T14:43:51.163Z</time></trkpt><trkpt lat="45.8068125" lon="13.4338837"><ele>10.25</ele><time>2026-04-17T14:43:53.163Z</time></trkpt><trkpt lat="45.8068683" lon="13.4340745"><ele>9.5</ele><time>2026-04-17T14:43:54.162Z</time></trkpt><trkpt lat="45.8069235" lon="13.4342734"><ele>8.75</ele><time>2026-04-17T14:43:55.163Z</time></trkpt><trkpt lat="45.80698" lon="13.434462"><ele>8.0</ele><time>2026-04-17T14:43:56.163Z</time></trkpt><trkpt lat="45.8070335" lon="13.4346522"><ele>8.0</ele><time>2026-04-17T14:43:57.163Z</time></trkpt><trkpt lat="45.8070841" lon="13.434848"><ele>8.0</ele><time>2026-04-17T14:43:58.162Z</time></trkpt><trkpt lat="45.807131" lon="13.4350448"><ele>8.0</ele><time>2026-04-17T14:43:59.162Z</time></trkpt><trkpt lat="45.80718" lon="13.4352353"><ele>8.0</ele><time>2026-04-17T14:44:00.163Z</time></trkpt><trkpt lat="45.8072221" lon="13.4354328"><ele>7.75</ele><time>2026-04-17T14:44:01.162Z</time></trkpt><trkpt lat="45.8072637" lon="13.4356323"><ele>7.5</ele><time>2026-04-17T14:44:02.163Z</time></trkpt><trkpt lat="45.8073066" lon="13.4358329"><ele>7.25</ele><time>2026-04-17T14:44:03.163Z</time></trkpt><trkpt lat="45.8073448" lon="13.4360328"><ele>7.0</ele><time>2026-04-17T14:44:04.163Z</time></trkpt><trkpt lat="45.8073822" lon="13.4362319"><ele>6.75</ele><time>2026-04-17T14:44:05.162Z</time></trkpt><trkpt lat="45.8074172" lon="13.4364346"><ele>6.5</ele><time>2026-04-17T14:44:06.162Z</time></trkpt><trkpt lat="45.8074579" lon="13.4366357"><ele>6.25</ele><time>2026-04-17T14:44:07.163Z</time></trkpt><trkpt lat="45.8074951" lon="13.436837"><ele>6.0</ele><time>2026-04-17T14:44:08.163Z</time></trkpt><trkpt lat="45.8075347" lon="13.4370427"><ele>6.25</ele><time>2026-04-17T14:44:09.163Z</time></trkpt><trkpt lat="45.8075646" lon="13.4372415"><ele>6.5</ele><time>2026-04-17T14:44:10.163Z</time></trkpt><trkpt lat="45.8076035" lon="13.4374458"><ele>6.75</ele><time>2026-04-17T14:44:11.163Z</time></trkpt><trkpt lat="45.8076432" lon="13.4376432"><ele>7.0</ele><time>2026-04-17T14:44:12.162Z</time></trkpt><trkpt lat="45.8077132" lon="13.4380464"><ele>6.25</ele><time>2026-04-17T14:44:14.163Z</time></trkpt><trkpt lat="45.8077472" lon="13.4382418"><ele>5.5</ele><time>2026-04-17T14:44:15.163Z</time></trkpt><trkpt lat="45.8077862" lon="13.4384365"><ele>4.75</ele><time>2026-04-17T14:44:16.163Z</time></trkpt><trkpt lat="45.8078203" lon="13.4386226"><ele>4.0</ele><time>2026-04-17T14:44:17.162Z</time></trkpt><trkpt lat="45.8078492" lon="13.4388005"><ele>4.2</ele><time>2026-04-17T14:44:18.163Z</time></trkpt><trkpt lat="45.8078774" lon="13.4389702"><ele>4.4</ele><time>2026-04-17T14:44:19.163Z</time></trkpt><trkpt lat="45.8079" lon="13.439123"><ele>4.6</ele><time>2026-04-17T14:44:20.163Z</time></trkpt><trkpt lat="45.8079259" lon="13.4392727"><ele>4.8</ele><time>2026-04-17T14:44:21.163Z</time></trkpt><trkpt lat="45.8079462" lon="13.4394024"><ele>5.0</ele><time>2026-04-17T14:44:22.163Z</time></trkpt><trkpt lat="45.8079651" lon="13.4395209"><ele>5.0</ele><time>2026-04-17T14:44:23.163Z</time></trkpt><trkpt lat="45.8079659" lon="13.4396198"><ele>5.0</ele><time>2026-04-17T14:44:24.163Z</time></trkpt><trkpt lat="45.807947" lon="13.4397446"><ele>5.0</ele><time>2026-04-17T14:44:26.162Z</time></trkpt><trkpt lat="45.8078959" lon="13.4398671"><ele>5.0</ele><time>2026-04-17T14:44:28.163Z</time></trkpt><trkpt lat="45.8078609" lon="13.4399435"><ele>5.0</ele><time>2026-04-17T14:44:29.162Z</time></trkpt><trkpt lat="45.8078273" lon="13.4400412"><ele>5.0</ele><time>2026-04-17T14:44:30.163Z</time></trkpt><trkpt lat="45.807811" lon="13.4401567"><ele>4.8</ele><time>2026-04-17T14:44:31.163Z</time></trkpt><trkpt lat="45.8078208" lon="13.4402588"><ele>4.6</ele><time>2026-04-17T14:44:32.163Z</time></trkpt><trkpt lat="45.8078486" lon="13.4403411"><ele>4.4</ele><time>2026-04-17T14:44:33.163Z</time></trkpt><trkpt lat="45.8080236" lon="13.4404645"><ele>4.2</ele><time>2026-04-17T14:44:36.163Z</time></trkpt><trkpt lat="45.8080924" lon="13.4405313"><ele>4.0</ele><time>2026-04-17T14:44:37.163Z</time></trkpt><trkpt lat="45.8081503" lon="13.4406405"><ele>4.5</ele><time>2026-04-17T14:44:38.163Z</time></trkpt><trkpt lat="45.8081944" lon="13.4407941"><ele>5.0</ele><time>2026-04-17T14:44:39.163Z</time></trkpt><trkpt lat="45.8082386" lon="13.4409821"><ele>5.5</ele><time>2026-04-17T14:44:40.163Z</time></trkpt><trkpt lat="45.8082821" lon="13.441172"><ele>6.0</ele><time>2026-04-17T14:44:41.163Z</time></trkpt><trkpt lat="45.8083226" lon="13.4413606"><ele>6.0</ele><time>2026-04-17T14:44:42.163Z</time></trkpt><trkpt lat="45.8083607" lon="13.4415497"><ele>6.0</ele><time>2026-04-17T14:44:43.162Z</time></trkpt><trkpt lat="45.8083891" lon="13.4417437"><ele>6.0</ele><time>2026-04-17T14:44:44.163Z</time></trkpt><trkpt lat="45.8084145" lon="13.4419367"><ele>6.0</ele><time>2026-04-17T14:44:45.162Z</time></trkpt><trkpt lat="45.8084366" lon="13.4421064"><ele>5.8</ele><time>2026-04-17T14:44:46.163Z</time></trkpt><trkpt lat="45.8084613" lon="13.4422749"><ele>5.6</ele><time>2026-04-17T14:44:47.162Z</time></trkpt><trkpt lat="45.808486" lon="13.4424241"><ele>5.4</ele><time>2026-04-17T14:44:48.163Z</time></trkpt><trkpt lat="45.8084901" lon="13.4425496"><ele>5.2</ele><time>2026-04-17T14:44:49.163Z</time></trkpt><trkpt lat="45.8084805" lon="13.4426392"><ele>5.0</ele><time>2026-04-17T14:44:50.163Z</time></trkpt><trkpt lat="45.8084565" lon="13.4427433"><ele>5.0</ele><time>2026-04-17T14:44:53.162Z</time></trkpt><trkpt lat="45.8084543" lon="13.4428445"><ele>5.0</ele><time>2026-04-17T14:49:06.161Z</time></trkpt><trkpt lat="45.8085525" lon="13.4429758"><ele>5.0</ele><time>2026-04-17T14:49:11.161Z</time></trkpt><trkpt lat="45.8085756" lon="13.4427943"><ele>5.0</ele><time>2026-04-17T14:49:24.162Z</time></trkpt><trkpt lat="45.8085665" lon="13.4426876"><ele>5.0</ele><time>2026-04-17T14:49:25.161Z</time></trkpt><trkpt lat="45.8085516" lon="13.442566"><ele>5.333333333333334</ele><time>2026-04-17T14:49:26.162Z</time></trkpt><trkpt lat="45.80853" lon="13.4424263"><ele>5.666666666666667</ele><time>2026-04-17T14:49:27.162Z</time></trkpt><trkpt lat="45.8084669" lon="13.4420754"><ele>6.0</ele><time>2026-04-17T14:49:29.161Z</time></trkpt><trkpt lat="45.8084289" lon="13.4418785"><ele>6.0</ele><time>2026-04-17T14:49:30.162Z</time></trkpt><trkpt lat="45.8083999" lon="13.4416881"><ele>6.0</ele><time>2026-04-17T14:49:31.162Z</time></trkpt><trkpt lat="45.8083671" lon="13.4415158"><ele>6.0</ele><time>2026-04-17T14:49:32.161Z</time></trkpt><trkpt lat="45.8083363" lon="13.4413528"><ele>6.0</ele><time>2026-04-17T14:49:33.162Z</time></trkpt><trkpt lat="45.8083105" lon="13.4411831"><ele>6.0</ele><time>2026-04-17T14:49:34.161Z</time></trkpt><trkpt lat="45.8082841" lon="13.4410137"><ele>6.0</ele><time>2026-04-17T14:49:35.161Z</time></trkpt><trkpt lat="45.8082524" lon="13.4408631"><ele>6.0</ele><time>2026-04-17T14:49:36.161Z</time></trkpt><trkpt lat="45.8082243" lon="13.4407273"><ele>6.0</ele><time>2026-04-17T14:49:37.161Z</time></trkpt><trkpt lat="45.8081987" lon="13.4406101"><ele>6.0</ele><time>2026-04-17T14:49:38.161Z</time></trkpt><trkpt lat="45.8081812" lon="13.4404823"><ele>5.666666666666667</ele><time>2026-04-17T14:49:39.162Z</time></trkpt><trkpt lat="45.8081695" lon="13.4403644"><ele>5.333333333333333</ele><time>2026-04-17T14:49:40.162Z</time></trkpt><trkpt lat="45.8081693" lon="13.4402499"><ele>5.0</ele><time>2026-04-17T14:49:41.162Z</time></trkpt><trkpt lat="45.808196" lon="13.4401556"><ele>4.666666666666666</ele><time>2026-04-17T14:49:42.162Z</time></trkpt><trkpt lat="45.8082514" lon="13.4400639"><ele>4.333333333333333</ele><time>2026-04-17T14:49:43.161Z</time></trkpt><trkpt lat="45.8083448" lon="13.4399848"><ele>4.0</ele><time>2026-04-17T14:49:44.161Z</time></trkpt><trkpt lat="45.8084705" lon="13.4399241"><ele>3.0</ele><time>2026-04-17T14:49:45.161Z</time></trkpt><trkpt lat="45.8086314" lon="13.4398795"><ele>2.0</ele><time>2026-04-17T14:49:46.162Z</time></trkpt><trkpt lat="45.8087998" lon="13.4398301"><ele>1.0</ele><time>2026-04-17T14:49:47.162Z</time></trkpt><trkpt lat="45.8089693" lon="13.4397707"><ele>1.0</ele><time>2026-04-17T14:49:48.162Z</time></trkpt><trkpt lat="45.8093042" lon="13.4396492"><ele>1.0</ele><time>2026-04-17T14:49:50.162Z</time></trkpt><trkpt lat="45.8094778" lon="13.439582"><ele>1.6666666666666665</ele><time>2026-04-17T14:49:51.162Z</time></trkpt><trkpt lat="45.8096575" lon="13.4395219"><ele>2.3333333333333335</ele><time>2026-04-17T14:49:52.162Z</time></trkpt><trkpt lat="45.8098378" lon="13.4394491"><ele>3.0</ele><time>2026-04-17T14:49:53.162Z</time></trkpt><trkpt lat="45.8100186" lon="13.4393791"><ele>4.0</ele><time>2026-04-17T14:49:54.162Z</time></trkpt><trkpt lat="45.8102048" lon="13.4393097"><ele>5.0</ele><time>2026-04-17T14:49:55.161Z</time></trkpt><trkpt lat="45.8103946" lon="13.4392396"><ele>6.0</ele><time>2026-04-17T14:49:56.161Z</time></trkpt><trkpt lat="45.8105803" lon="13.4391682"><ele>6.0</ele><time>2026-04-17T14:49:57.162Z</time></trkpt><trkpt lat="45.8107698" lon="13.4391021"><ele>6.0</ele><time>2026-04-17T14:49:58.161Z</time></trkpt><trkpt lat="45.8109583" lon="13.4390314"><ele>6.0</ele><time>2026-04-17T14:49:59.161Z</time></trkpt><trkpt lat="45.8111552" lon="13.4389836"><ele>6.0</ele><time>2026-04-17T14:50:00.162Z</time></trkpt><trkpt lat="45.8113434" lon="13.4389158"><ele>6.0</ele><time>2026-04-17T14:50:01.162Z</time></trkpt><trkpt lat="45.8115344" lon="13.4388434"><ele>6.0</ele><time>2026-04-17T14:50:02.162Z</time></trkpt><trkpt lat="45.8117218" lon="13.4387674"><ele>5.666666666666667</ele><time>2026-04-17T14:50:03.162Z</time></trkpt><trkpt lat="45.8119101" lon="13.4387006"><ele>5.333333333333334</ele><time>2026-04-17T14:50:04.162Z</time></trkpt><trkpt lat="45.8120971" lon="13.4386311"><ele>5.0</ele><time>2026-04-17T14:50:05.162Z</time></trkpt><trkpt lat="45.812288" lon="13.438557"><ele>5.0</ele><time>2026-04-17T14:50:06.161Z</time></trkpt><trkpt lat="45.8124825" lon="13.438487"><ele>5.0</ele><time>2026-04-17T14:50:07.161Z</time></trkpt><trkpt lat="45.8126753" lon="13.4384154"><ele>5.0</ele><time>2026-04-17T14:50:08.162Z</time></trkpt><trkpt lat="45.8128714" lon="13.4383508"><ele>4.0</ele><time>2026-04-17T14:50:09.162Z</time></trkpt><trkpt lat="45.8132697" lon="13.4382332"><ele>3.0</ele><time>2026-04-17T14:50:11.161Z</time></trkpt><trkpt lat="45.8134719" lon="13.4381772"><ele>4.0</ele><time>2026-04-17T14:50:12.161Z</time></trkpt><trkpt lat="45.8136778" lon="13.4381249"><ele>5.0</ele><time>2026-04-17T14:50:13.162Z</time></trkpt><trkpt lat="45.8138804" lon="13.4380688"><ele>6.0</ele><time>2026-04-17T14:50:14.162Z</time></trkpt><trkpt lat="45.8140864" lon="13.4380145"><ele>6.0</ele><time>2026-04-17T14:50:15.162Z</time></trkpt><trkpt lat="45.8142874" lon="13.4379745"><ele>6.0</ele><time>2026-04-17T14:50:16.161Z</time></trkpt><trkpt lat="45.8144886" lon="13.4379325"><ele>6.0</ele><time>2026-04-17T14:50:17.161Z</time></trkpt><trkpt lat="45.8146898" lon="13.4378988"><ele>6.333333333333334</ele><time>2026-04-17T14:50:18.162Z</time></trkpt><trkpt lat="45.8148763" lon="13.4378669"><ele>6.666666666666667</ele><time>2026-04-17T14:50:19.162Z</time></trkpt><trkpt lat="45.8150482" lon="13.4378378"><ele>7.0</ele><time>2026-04-17T14:50:20.162Z</time></trkpt><trkpt lat="45.8152093" lon="13.4378189"><ele>7.666666666666667</ele><time>2026-04-17T14:50:21.162Z</time></trkpt><trkpt lat="45.8153665" lon="13.4378011"><ele>8.333333333333334</ele><time>2026-04-17T14:50:22.162Z</time></trkpt><trkpt lat="45.8155288" lon="13.4377877"><ele>9.0</ele><time>2026-04-17T14:50:23.162Z</time></trkpt><trkpt lat="45.8156946" lon="13.4377807"><ele>9.0</ele><time>2026-04-17T14:50:24.162Z</time></trkpt><trkpt lat="45.8158592" lon="13.4377685"><ele>9.0</ele><time>2026-04-17T14:50:25.162Z</time></trkpt><trkpt lat="45.8160259" lon="13.4377461"><ele>9.0</ele><time>2026-04-17T14:50:26.162Z</time></trkpt><trkpt lat="45.8161945" lon="13.4377299"><ele>8.333333333333334</ele><time>2026-04-17T14:50:27.161Z</time></trkpt><trkpt lat="45.8163665" lon="13.4377119"><ele>7.666666666666667</ele><time>2026-04-17T14:50:28.162Z</time></trkpt><trkpt lat="45.8165402" lon="13.4376991"><ele>7.0</ele><time>2026-04-17T14:50:29.162Z</time></trkpt><trkpt lat="45.8167197" lon="13.4376858"><ele>6.5</ele><time>2026-04-17T14:50:30.162Z</time></trkpt><trkpt lat="45.8170943" lon="13.4376511"><ele>6.0</ele><time>2026-04-17T14:50:32.162Z</time></trkpt><trkpt lat="45.8172832" lon="13.4376296"><ele>6.0</ele><time>2026-04-17T14:50:33.161Z</time></trkpt><trkpt lat="45.8174734" lon="13.4376163"><ele>6.0</ele><time>2026-04-17T14:50:34.161Z</time></trkpt><trkpt lat="45.817665" lon="13.437608"><ele>6.0</ele><time>2026-04-17T14:50:35.162Z</time></trkpt><trkpt lat="45.8178582" lon="13.4375856"><ele>6.666666666666666</ele><time>2026-04-17T14:50:36.162Z</time></trkpt><trkpt lat="45.8180531" lon="13.4375666"><ele>7.333333333333333</ele><time>2026-04-17T14:50:37.162Z</time></trkpt><trkpt lat="45.8182493" lon="13.4375418"><ele>8.0</ele><time>2026-04-17T14:50:38.161Z</time></trkpt><trkpt lat="45.8184387" lon="13.4375204"><ele>7.666666666666666</ele><time>2026-04-17T14:50:39.162Z</time></trkpt><trkpt lat="45.8186299" lon="13.4375022"><ele>7.333333333333334</ele><time>2026-04-17T14:50:40.161Z</time></trkpt><trkpt lat="45.8188314" lon="13.4374741"><ele>7.0</ele><time>2026-04-17T14:50:41.162Z</time></trkpt><trkpt lat="45.8190306" lon="13.4374606"><ele>7.0</ele><time>2026-04-17T14:50:42.161Z</time></trkpt><trkpt lat="45.8192204" lon="13.437443"><ele>7.0</ele><time>2026-04-17T14:50:43.162Z</time></trkpt><trkpt lat="45.8194048" lon="13.4374262"><ele>7.0</ele><time>2026-04-17T14:50:44.162Z</time></trkpt><trkpt lat="45.8195953" lon="13.4374067"><ele>7.333333333333334</ele><time>2026-04-17T14:50:45.162Z</time></trkpt><trkpt lat="45.8197838" lon="13.4373832"><ele>7.666666666666666</ele><time>2026-04-17T14:50:46.162Z</time></trkpt><trkpt lat="45.8199707" lon="13.4373571"><ele>8.0</ele><time>2026-04-17T14:50:47.162Z</time></trkpt><trkpt lat="45.8201601" lon="13.4373369"><ele>8.0</ele><time>2026-04-17T14:50:48.162Z</time></trkpt><trkpt lat="45.820354" lon="13.4373127"><ele>8.0</ele><time>2026-04-17T14:50:49.162Z</time></trkpt><trkpt lat="45.8205476" lon="13.4372891"><ele>8.0</ele><time>2026-04-17T14:50:50.161Z</time></trkpt><trkpt lat="45.8207367" lon="13.4372721"><ele>7.0</ele><time>2026-04-17T14:50:51.162Z</time></trkpt><trkpt lat="45.8211113" lon="13.4372524"><ele>6.0</ele><time>2026-04-17T14:50:53.161Z</time></trkpt><trkpt lat="45.8212935" lon="13.4372383"><ele>6.0</ele><time>2026-04-17T14:50:54.16Z</time></trkpt><trkpt lat="45.8214734" lon="13.4372208"><ele>6.0</ele><time>2026-04-17T14:50:55.161Z</time></trkpt><trkpt lat="45.8216383" lon="13.4372132"><ele>6.0</ele><time>2026-04-17T14:50:56.161Z</time></trkpt><trkpt lat="45.8218073" lon="13.4371903"><ele>6.333333333333334</ele><time>2026-04-17T14:50:57.161Z</time></trkpt><trkpt lat="45.82197" lon="13.4371944"><ele>6.666666666666667</ele><time>2026-04-17T14:50:58.161Z</time></trkpt><trkpt lat="45.8221337" lon="13.4371866"><ele>7.0</ele><time>2026-04-17T14:50:59.161Z</time></trkpt><trkpt lat="45.8223034" lon="13.4371665"><ele>7.0</ele><time>2026-04-17T14:51:00.161Z</time></trkpt><trkpt lat="45.8224769" lon="13.4371471"><ele>7.0</ele><time>2026-04-17T14:51:01.161Z</time></trkpt><trkpt lat="45.8226535" lon="13.4371299"><ele>7.0</ele><time>2026-04-17T14:51:02.161Z</time></trkpt><trkpt lat="45.8228332" lon="13.4371089"><ele>7.0</ele><time>2026-04-17T14:51:03.161Z</time></trkpt><trkpt lat="45.823015" lon="13.4370894"><ele>7.0</ele><time>2026-04-17T14:51:04.161Z</time></trkpt><trkpt lat="45.8231965" lon="13.4370709"><ele>7.0</ele><time>2026-04-17T14:51:05.161Z</time></trkpt><trkpt lat="45.8233736" lon="13.4370554"><ele>7.0</ele><time>2026-04-17T14:51:06.161Z</time></trkpt><trkpt lat="45.8235546" lon="13.4370368"><ele>7.0</ele><time>2026-04-17T14:51:07.16Z</time></trkpt><trkpt lat="45.8237333" lon="13.4370213"><ele>7.0</ele><time>2026-04-17T14:51:08.161Z</time></trkpt><trkpt lat="45.8239104" lon="13.4370089"><ele>7.0</ele><time>2026-04-17T14:51:09.16Z</time></trkpt><trkpt lat="45.8240899" lon="13.4369958"><ele>7.0</ele><time>2026-04-17T14:51:10.161Z</time></trkpt><trkpt lat="45.8242715" lon="13.4369754"><ele>7.0</ele><time>2026-04-17T14:51:11.161Z</time></trkpt><trkpt lat="45.8244565" lon="13.4369623"><ele>7.5</ele><time>2026-04-17T14:51:12.161Z</time></trkpt><trkpt lat="45.8248274" lon="13.4369731"><ele>8.0</ele><time>2026-04-17T14:51:14.161Z</time></trkpt><trkpt lat="45.8250169" lon="13.4369994"><ele>8.333333333333332</ele><time>2026-04-17T14:51:15.161Z</time></trkpt><trkpt lat="45.8252053" lon="13.4370325"><ele>8.666666666666666</ele><time>2026-04-17T14:51:16.161Z</time></trkpt><trkpt lat="45.8253963" lon="13.4370799"><ele>9.0</ele><time>2026-04-17T14:51:17.161Z</time></trkpt><trkpt lat="45.8255834" lon="13.4371352"><ele>9.0</ele><time>2026-04-17T14:51:18.16Z</time></trkpt><trkpt lat="45.82577" lon="13.4371952"><ele>9.0</ele><time>2026-04-17T14:51:19.161Z</time></trkpt><trkpt lat="45.8259533" lon="13.4372671"><ele>9.0</ele><time>2026-04-17T14:51:20.16Z</time></trkpt><trkpt lat="45.8261354" lon="13.4373531"><ele>9.0</ele><time>2026-04-17T14:51:21.161Z</time></trkpt><trkpt lat="45.8263274" lon="13.4374437"><ele>9.0</ele><time>2026-04-17T14:51:22.16Z</time></trkpt><trkpt lat="45.8265325" lon="13.4375681"><ele>9.0</ele><time>2026-04-17T14:51:23.161Z</time></trkpt><trkpt lat="45.8267518" lon="13.437723"><ele>8.5</ele><time>2026-04-17T14:51:24.161Z</time></trkpt><trkpt lat="45.8269743" lon="13.4378973"><ele>8.0</ele><time>2026-04-17T14:51:25.161Z</time></trkpt><trkpt lat="45.8272058" lon="13.4380745"><ele>7.5</ele><time>2026-04-17T14:51:26.161Z</time></trkpt><trkpt lat="45.8274349" lon="13.4382349"><ele>7.0</ele><time>2026-04-17T14:51:27.16Z</time></trkpt><trkpt lat="45.8276614" lon="13.4383851"><ele>7.0</ele><time>2026-04-17T14:51:28.16Z</time></trkpt><trkpt lat="45.8278794" lon="13.4385419"><ele>7.0</ele><time>2026-04-17T14:51:29.161Z</time></trkpt><trkpt lat="45.8281002" lon="13.4387023"><ele>8.5</ele><time>2026-04-17T14:51:30.161Z</time></trkpt><trkpt lat="45.8283201" lon="13.438858"><ele>10.0</ele><time>2026-04-17T14:51:31.161Z</time></trkpt><trkpt lat="45.8285372" lon="13.438998"><ele>10.0</ele><time>2026-04-17T14:51:32.161Z</time></trkpt><trkpt lat="45.8287524" lon="13.4391407"><ele>10.0</ele><time>2026-04-17T14:51:33.16Z</time></trkpt><trkpt lat="45.8291851" lon="13.4394308"><ele>10.0</ele><time>2026-04-17T14:51:35.161Z</time></trkpt><trkpt lat="45.8294088" lon="13.4395836"><ele>10.0</ele><time>2026-04-17T14:51:36.16Z</time></trkpt><trkpt lat="45.8296263" lon="13.4397324"><ele>10.0</ele><time>2026-04-17T14:51:37.161Z</time></trkpt><trkpt lat="45.8298459" lon="13.4398809"><ele>10.0</ele><time>2026-04-17T14:51:38.161Z</time></trkpt><trkpt lat="45.8300617" lon="13.440032"><ele>10.0</ele><time>2026-04-17T14:51:39.161Z</time></trkpt><trkpt lat="45.8302753" lon="13.4401737"><ele>10.0</ele><time>2026-04-17T14:51:40.161Z</time></trkpt><trkpt lat="45.8304885" lon="13.4403167"><ele>10.0</ele><time>2026-04-17T14:51:41.161Z</time></trkpt><trkpt lat="45.8307004" lon="13.44046"><ele>10.0</ele><time>2026-04-17T14:51:42.161Z</time></trkpt><trkpt lat="45.8309164" lon="13.4406062"><ele>10.5</ele><time>2026-04-17T14:51:43.161Z</time></trkpt><trkpt lat="45.8311273" lon="13.4407457"><ele>11.0</ele><time>2026-04-17T14:51:44.161Z</time></trkpt><trkpt lat="45.8313402" lon="13.4408898"><ele>11.0</ele><time>2026-04-17T14:51:45.16Z</time></trkpt><trkpt lat="45.8315547" lon="13.4410374"><ele>11.0</ele><time>2026-04-17T14:51:46.161Z</time></trkpt><trkpt lat="45.8317669" lon="13.4411842"><ele>9.5</ele><time>2026-04-17T14:51:47.161Z</time></trkpt><trkpt lat="45.8319831" lon="13.4413217"><ele>8.0</ele><time>2026-04-17T14:51:48.161Z</time></trkpt><trkpt lat="45.832194" lon="13.441464"><ele>8.0</ele><time>2026-04-17T14:51:49.161Z</time></trkpt><trkpt lat="45.8324098" lon="13.4416044"><ele>8.0</ele><time>2026-04-17T14:51:50.161Z</time></trkpt><trkpt lat="45.8326247" lon="13.4417468"><ele>8.0</ele><time>2026-04-17T14:51:51.161Z</time></trkpt><trkpt lat="45.8328371" lon="13.4418901"><ele>8.0</ele><time>2026-04-17T14:51:52.161Z</time></trkpt><trkpt lat="45.833038" lon="13.4420229"><ele>8.5</ele><time>2026-04-17T14:51:53.161Z</time></trkpt><trkpt lat="45.8332267" lon="13.4421471"><ele>9.0</ele><time>2026-04-17T14:51:54.161Z</time></trkpt><trkpt lat="45.8335895" lon="13.4424006"><ele>9.333333333333334</ele><time>2026-04-17T14:51:56.16Z</time></trkpt><trkpt lat="45.8337571" lon="13.4425363"><ele>9.666666666666668</ele><time>2026-04-17T14:51:57.161Z</time></trkpt><trkpt lat="45.8339241" lon="13.4426878"><ele>10.0</ele><time>2026-04-17T14:51:58.161Z</time></trkpt><trkpt lat="45.8340796" lon="13.442868"><ele>10.333333333333334</ele><time>2026-04-17T14:51:59.161Z</time></trkpt><trkpt lat="45.8342111" lon="13.4430642"><ele>10.666666666666666</ele><time>2026-04-17T14:52:00.16Z</time></trkpt><trkpt lat="45.8343242" lon="13.4433039"><ele>11.0</ele><time>2026-04-17T14:52:01.161Z</time></trkpt><trkpt lat="45.8344296" lon="13.443546"><ele>10.333333333333332</ele><time>2026-04-17T14:52:02.16Z</time></trkpt><trkpt lat="45.8345231" lon="13.443808"><ele>9.666666666666666</ele><time>2026-04-17T14:52:03.16Z</time></trkpt><trkpt lat="45.8345996" lon="13.4440908"><ele>9.0</ele><time>2026-04-17T14:52:04.161Z</time></trkpt><trkpt lat="45.8346724" lon="13.4443781"><ele>9.0</ele><time>2026-04-17T14:52:05.161Z</time></trkpt><trkpt lat="45.8347417" lon="13.4446786"><ele>9.0</ele><time>2026-04-17T14:52:06.161Z</time></trkpt><trkpt lat="45.8348111" lon="13.444975"><ele>9.0</ele><time>2026-04-17T14:52:07.161Z</time></trkpt><trkpt lat="45.8348763" lon="13.4452585"><ele>9.333333333333334</ele><time>2026-04-17T14:52:08.161Z</time></trkpt><trkpt lat="45.8349393" lon="13.4455241"><ele>9.666666666666668</ele><time>2026-04-17T14:52:09.16Z</time></trkpt><trkpt lat="45.8350119" lon="13.4457872"><ele>10.0</ele><time>2026-04-17T14:52:10.16Z</time></trkpt><trkpt lat="45.8350834" lon="13.4460505"><ele>10.0</ele><time>2026-04-17T14:52:11.16Z</time></trkpt><trkpt lat="45.8351531" lon="13.4463306"><ele>10.0</ele><time>2026-04-17T14:52:12.161Z</time></trkpt><trkpt lat="45.8352252" lon="13.4466269"><ele>10.0</ele><time>2026-04-17T14:52:13.161Z</time></trkpt><trkpt lat="45.8352925" lon="13.4469277"><ele>9.5</ele><time>2026-04-17T14:52:14.161Z</time></trkpt><trkpt lat="45.8353498" lon="13.4472323"><ele>9.0</ele><time>2026-04-17T14:52:15.161Z</time></trkpt><trkpt lat="45.8355347" lon="13.4478127"><ele>9.333333333333334</ele><time>2026-04-17T14:52:17.16Z</time></trkpt><trkpt lat="45.8356659" lon="13.4480779"><ele>9.666666666666668</ele><time>2026-04-17T14:52:18.161Z</time></trkpt><trkpt lat="45.8358147" lon="13.4483092"><ele>10.0</ele><time>2026-04-17T14:52:19.161Z</time></trkpt><trkpt lat="45.8359747" lon="13.4484812"><ele>10.0</ele><time>2026-04-17T14:52:20.161Z</time></trkpt><trkpt lat="45.8361107" lon="13.44862"><ele>10.0</ele><time>2026-04-17T14:52:21.16Z</time></trkpt><trkpt lat="45.8362237" lon="13.4487393"><ele>10.0</ele><time>2026-04-17T14:52:22.161Z</time></trkpt><trkpt lat="45.8363325" lon="13.4488595"><ele>10.0</ele><time>2026-04-17T14:52:23.161Z</time></trkpt><trkpt lat="45.8364362" lon="13.4489741"><ele>10.0</ele><time>2026-04-17T14:52:24.161Z</time></trkpt><trkpt lat="45.8365338" lon="13.4490762"><ele>10.0</ele><time>2026-04-17T14:52:25.161Z</time></trkpt><trkpt lat="45.8366137" lon="13.4491622"><ele>10.0</ele><time>2026-04-17T14:52:26.161Z</time></trkpt><trkpt lat="45.8366819" lon="13.4492426"><ele>10.0</ele><time>2026-04-17T14:52:27.161Z</time></trkpt><trkpt lat="45.8367304" lon="13.4493004"><ele>10.0</ele><time>2026-04-17T14:52:28.16Z</time></trkpt><trkpt lat="45.8367827" lon="13.4493645"><ele>10.0</ele><time>2026-04-17T14:52:29.16Z</time></trkpt><trkpt lat="45.8368544" lon="13.4494394"><ele>10.0</ele><time>2026-04-17T14:52:30.161Z</time></trkpt><trkpt lat="45.8369428" lon="13.4495339"><ele>10.0</ele><time>2026-04-17T14:52:31.161Z</time></trkpt><trkpt lat="45.8370375" lon="13.4496573"><ele>10.0</ele><time>2026-04-17T14:52:32.16Z</time></trkpt><trkpt lat="45.8371379" lon="13.4498095"><ele>10.0</ele><time>2026-04-17T14:52:33.161Z</time></trkpt><trkpt lat="45.8372507" lon="13.4499716"><ele>10.0</ele><time>2026-04-17T14:52:34.16Z</time></trkpt><trkpt lat="45.8373727" lon="13.4501412"><ele>10.0</ele><time>2026-04-17T14:52:35.161Z</time></trkpt><trkpt lat="45.8375046" lon="13.4503192"><ele>10.0</ele><time>2026-04-17T14:52:36.161Z</time></trkpt><trkpt lat="45.8377782" lon="13.4506991"><ele>10.0</ele><time>2026-04-17T14:52:38.16Z</time></trkpt><trkpt lat="45.8379315" lon="13.4509044"><ele>10.0</ele><time>2026-04-17T14:52:39.161Z</time></trkpt><trkpt lat="45.8380827" lon="13.4511116"><ele>10.0</ele><time>2026-04-17T14:52:40.161Z</time></trkpt><trkpt lat="45.8382334" lon="13.451319"><ele>10.0</ele><time>2026-04-17T14:52:41.161Z</time></trkpt><trkpt lat="45.838391" lon="13.4515293"><ele>10.0</ele><time>2026-04-17T14:52:42.16Z</time></trkpt><trkpt lat="45.8385509" lon="13.4517411"><ele>10.0</ele><time>2026-04-17T14:52:43.161Z</time></trkpt><trkpt lat="45.8387071" lon="13.4519561"><ele>10.333333333333334</ele><time>2026-04-17T14:52:44.161Z</time></trkpt><trkpt lat="45.8388653" lon="13.4521757"><ele>10.666666666666666</ele><time>2026-04-17T14:52:45.161Z</time></trkpt><trkpt lat="45.8390238" lon="13.4523929"><ele>11.0</ele><time>2026-04-17T14:52:46.16Z</time></trkpt><trkpt lat="45.8391848" lon="13.4526136"><ele>10.5</ele><time>2026-04-17T14:52:47.16Z</time></trkpt><trkpt lat="45.8393483" lon="13.4528361"><ele>10.0</ele><time>2026-04-17T14:52:48.16Z</time></trkpt><trkpt lat="45.8395119" lon="13.4530609"><ele>11.0</ele><time>2026-04-17T14:52:49.161Z</time></trkpt><trkpt lat="45.8396786" lon="13.4532797"><ele>12.0</ele><time>2026-04-17T14:52:50.161Z</time></trkpt><trkpt lat="45.8398512" lon="13.4534959"><ele>12.0</ele><time>2026-04-17T14:52:51.161Z</time></trkpt><trkpt lat="45.8400187" lon="13.4537068"><ele>12.0</ele><time>2026-04-17T14:52:52.16Z</time></trkpt><trkpt lat="45.8401898" lon="13.4539142"><ele>12.0</ele><time>2026-04-17T14:52:53.16Z</time></trkpt><trkpt lat="45.8403613" lon="13.4541209"><ele>11.0</ele><time>2026-04-17T14:52:54.16Z</time></trkpt><trkpt lat="45.8405327" lon="13.4543413"><ele>10.0</ele><time>2026-04-17T14:52:55.161Z</time></trkpt><trkpt lat="45.8406971" lon="13.4545553"><ele>10.0</ele><time>2026-04-17T14:52:56.16Z</time></trkpt><trkpt lat="45.8408623" lon="13.4547721"><ele>10.0</ele><time>2026-04-17T14:52:57.161Z</time></trkpt><trkpt lat="45.8411937" lon="13.4552074"><ele>10.0</ele><time>2026-04-17T14:52:59.161Z</time></trkpt><trkpt lat="45.841362" lon="13.4554185"><ele>10.0</ele><time>2026-04-17T14:53:00.16Z</time></trkpt><trkpt lat="45.8415214" lon="13.4556265"><ele>10.0</ele><time>2026-04-17T14:53:01.16Z</time></trkpt><trkpt lat="45.8416854" lon="13.4558444"><ele>10.5</ele><time>2026-04-17T14:53:02.16Z</time></trkpt><trkpt lat="45.8418544" lon="13.4560544"><ele>11.0</ele><time>2026-04-17T14:53:03.161Z</time></trkpt><trkpt lat="45.842025" lon="13.4562684"><ele>11.333333333333332</ele><time>2026-04-17T14:53:04.16Z</time></trkpt><trkpt lat="45.8421934" lon="13.4564784"><ele>11.666666666666666</ele><time>2026-04-17T14:53:05.161Z</time></trkpt><trkpt lat="45.8423589" lon="13.4566926"><ele>12.0</ele><time>2026-04-17T14:53:06.161Z</time></trkpt><trkpt lat="45.8425224" lon="13.456903"><ele>11.666666666666666</ele><time>2026-04-17T14:53:07.161Z</time></trkpt><trkpt lat="45.8426837" lon="13.457112"><ele>11.333333333333332</ele><time>2026-04-17T14:53:08.161Z</time></trkpt><trkpt lat="45.842844" lon="13.4573167"><ele>11.0</ele><time>2026-04-17T14:53:09.16Z</time></trkpt><trkpt lat="45.8430055" lon="13.4575202"><ele>11.666666666666666</ele><time>2026-04-17T14:53:10.161Z</time></trkpt><trkpt lat="45.843164" lon="13.4577247"><ele>12.333333333333332</ele><time>2026-04-17T14:53:11.161Z</time></trkpt><trkpt lat="45.8433236" lon="13.4579265"><ele>13.0</ele><time>2026-04-17T14:53:12.161Z</time></trkpt><trkpt lat="45.8434806" lon="13.4581337"><ele>13.333333333333332</ele><time>2026-04-17T14:53:13.161Z</time></trkpt><trkpt lat="45.8436308" lon="13.4583428"><ele>13.666666666666668</ele><time>2026-04-17T14:53:14.16Z</time></trkpt><trkpt lat="45.8437729" lon="13.4585551"><ele>14.0</ele><time>2026-04-17T14:53:15.161Z</time></trkpt><trkpt lat="45.8439054" lon="13.4587738"><ele>14.666666666666668</ele><time>2026-04-17T14:53:16.161Z</time></trkpt><trkpt lat="45.8440361" lon="13.4590123"><ele>15.333333333333332</ele><time>2026-04-17T14:53:17.161Z</time></trkpt><trkpt lat="45.8441609" lon="13.4592586"><ele>16.0</ele><time>2026-04-17T14:53:18.161Z</time></trkpt><trkpt lat="45.8443814" lon="13.459763"><ele>16.0</ele><time>2026-04-17T14:53:20.161Z</time></trkpt><trkpt lat="45.8444819" lon="13.4600094"><ele>16.0</ele><time>2026-04-17T14:53:21.161Z</time></trkpt><trkpt lat="45.8445814" lon="13.4602531"><ele>16.0</ele><time>2026-04-17T14:53:22.16Z</time></trkpt><trkpt lat="45.8446753" lon="13.4604917"><ele>16.0</ele><time>2026-04-17T14:53:23.16Z</time></trkpt><trkpt lat="45.8447649" lon="13.460716"><ele>16.0</ele><time>2026-04-17T14:53:24.161Z</time></trkpt><trkpt lat="45.8448399" lon="13.4609263"><ele>16.0</ele><time>2026-04-17T14:53:25.161Z</time></trkpt><trkpt lat="45.8449184" lon="13.4611217"><ele>15.5</ele><time>2026-04-17T14:53:26.16Z</time></trkpt><trkpt lat="45.8449836" lon="13.4613026"><ele>15.0</ele><time>2026-04-17T14:53:27.161Z</time></trkpt><trkpt lat="45.8450416" lon="13.4614634"><ele>14.5</ele><time>2026-04-17T14:53:28.161Z</time></trkpt><trkpt lat="45.8450901" lon="13.4616045"><ele>14.0</ele><time>2026-04-17T14:53:29.161Z</time></trkpt><trkpt lat="45.8451316" lon="13.4617204"><ele>14.000000000000002</ele><time>2026-04-17T14:53:30.161Z</time></trkpt><trkpt lat="45.845168" lon="13.4618149"><ele>14.0</ele><time>2026-04-17T14:53:31.16Z</time></trkpt><trkpt lat="45.8451997" lon="13.4618978"><ele>14.0</ele><time>2026-04-17T14:53:32.16Z</time></trkpt><trkpt lat="45.8452536" lon="13.4620167"><ele>14.0</ele><time>2026-04-17T14:53:34.16Z</time></trkpt><trkpt lat="45.84531" lon="13.4621616"><ele>14.000000000000002</ele><time>2026-04-17T14:53:36.161Z</time></trkpt><trkpt lat="45.8453407" lon="13.4622427"><ele>14.0</ele><time>2026-04-17T14:53:37.16Z</time></trkpt><trkpt lat="45.8453547" lon="13.462348"><ele>14.0</ele><time>2026-04-17T14:53:38.161Z</time></trkpt><trkpt lat="45.8453457" lon="13.4624591"><ele>14.0</ele><time>2026-04-17T14:53:39.161Z</time></trkpt><trkpt lat="45.8453315" lon="13.4626775"><ele>14.0</ele><time>2026-04-17T14:53:41.161Z</time></trkpt><trkpt lat="45.8453187" lon="13.4628252"><ele>14.0</ele><time>2026-04-17T14:53:42.161Z</time></trkpt><trkpt lat="45.8453123" lon="13.4630124"><ele>14.0</ele><time>2026-04-17T14:53:43.161Z</time></trkpt><trkpt lat="45.845293" lon="13.463242"><ele>14.0</ele><time>2026-04-17T14:53:44.161Z</time></trkpt><trkpt lat="45.8452678" lon="13.463494"><ele>14.0</ele><time>2026-04-17T14:53:45.161Z</time></trkpt><trkpt lat="45.8452467" lon="13.4637643"><ele>13.333333333333334</ele><time>2026-04-17T14:53:46.16Z</time></trkpt><trkpt lat="45.8452362" lon="13.4640425"><ele>12.666666666666668</ele><time>2026-04-17T14:53:47.161Z</time></trkpt><trkpt lat="45.8452294" lon="13.4643239"><ele>12.0</ele><time>2026-04-17T14:53:48.161Z</time></trkpt><trkpt lat="45.8452156" lon="13.4646084"><ele>12.333333333333332</ele><time>2026-04-17T14:53:49.16Z</time></trkpt><trkpt lat="45.8451994" lon="13.4648967"><ele>12.666666666666666</ele><time>2026-04-17T14:53:50.16Z</time></trkpt><trkpt lat="45.8451752" lon="13.4651878"><ele>13.0</ele><time>2026-04-17T14:53:51.161Z</time></trkpt><trkpt lat="45.8451422" lon="13.4654683"><ele>13.333333333333332</ele><time>2026-04-17T14:53:52.161Z</time></trkpt><trkpt lat="45.8451019" lon="13.4657258"><ele>13.666666666666668</ele><time>2026-04-17T14:53:53.161Z</time></trkpt><trkpt lat="45.8450526" lon="13.4659336"><ele>14.0</ele><time>2026-04-17T14:53:54.161Z</time></trkpt><trkpt lat="45.844977" lon="13.4661024"><ele>14.0</ele><time>2026-04-17T14:53:55.161Z</time></trkpt><trkpt lat="45.8448847" lon="13.4661998"><ele>14.0</ele><time>2026-04-17T14:53:56.161Z</time></trkpt><trkpt lat="45.8447764" lon="13.4662328"><ele>14.0</ele><time>2026-04-17T14:53:57.161Z</time></trkpt><trkpt lat="45.8446727" lon="13.4662436"><ele>14.0</ele><time>2026-04-17T14:53:58.161Z</time></trkpt><trkpt lat="45.8445601" lon="13.4663123"><ele>14.0</ele><time>2026-04-17T14:53:59.161Z</time></trkpt><trkpt lat="45.8444407" lon="13.4664355"><ele>14.0</ele><time>2026-04-17T14:54:00.16Z</time></trkpt><trkpt lat="45.8442216" lon="13.4667683"><ele>13.666666666666668</ele><time>2026-04-17T14:54:02.161Z</time></trkpt><trkpt lat="45.8441442" lon="13.4670078"><ele>13.333333333333332</ele><time>2026-04-17T14:54:03.161Z</time></trkpt><trkpt lat="45.8440879" lon="13.467288"><ele>13.0</ele><time>2026-04-17T14:54:04.161Z</time></trkpt><trkpt lat="45.8440343" lon="13.4675592"><ele>13.666666666666666</ele><time>2026-04-17T14:54:05.161Z</time></trkpt><trkpt lat="45.8439579" lon="13.4678336"><ele>14.333333333333332</ele><time>2026-04-17T14:54:06.161Z</time></trkpt><trkpt lat="45.8438669" lon="13.4680957"><ele>15.0</ele><time>2026-04-17T14:54:07.161Z</time></trkpt><trkpt lat="45.8437598" lon="13.4683563"><ele>15.0</ele><time>2026-04-17T14:54:08.161Z</time></trkpt><trkpt lat="45.8436521" lon="13.4686184"><ele>15.0</ele><time>2026-04-17T14:54:09.161Z</time></trkpt><trkpt lat="45.8435501" lon="13.4688744"><ele>15.0</ele><time>2026-04-17T14:54:10.161Z</time></trkpt><trkpt lat="45.8434472" lon="13.4691335"><ele>15.0</ele><time>2026-04-17T14:54:11.16Z</time></trkpt><trkpt lat="45.8433563" lon="13.4694022"><ele>15.0</ele><time>2026-04-17T14:54:12.16Z</time></trkpt><trkpt lat="45.8432643" lon="13.4696627"><ele>15.0</ele><time>2026-04-17T14:54:13.161Z</time></trkpt><trkpt lat="45.8431692" lon="13.469917"><ele>15.0</ele><time>2026-04-17T14:54:14.161Z</time></trkpt><trkpt lat="45.8430729" lon="13.4701818"><ele>15.0</ele><time>2026-04-17T14:54:15.161Z</time></trkpt><trkpt lat="45.842972" lon="13.4704467"><ele>15.0</ele><time>2026-04-17T14:54:16.161Z</time></trkpt><trkpt lat="45.8428763" lon="13.4707027"><ele>15.0</ele><time>2026-04-17T14:54:17.161Z</time></trkpt><trkpt lat="45.8427877" lon="13.4709517"><ele>15.0</ele><time>2026-04-17T14:54:18.161Z</time></trkpt><trkpt lat="45.8427089" lon="13.4711959"><ele>15.0</ele><time>2026-04-17T14:54:19.16Z</time></trkpt><trkpt lat="45.8426297" lon="13.4714465"><ele>15.0</ele><time>2026-04-17T14:54:20.16Z</time></trkpt><trkpt lat="45.8425594" lon="13.4716949"><ele>15.0</ele><time>2026-04-17T14:54:21.161Z</time></trkpt><trkpt lat="45.842437" lon="13.4721932"><ele>15.0</ele><time>2026-04-17T14:54:23.161Z</time></trkpt><trkpt lat="45.8423832" lon="13.4724514"><ele>15.0</ele><time>2026-04-17T14:54:24.16Z</time></trkpt><trkpt lat="45.8423287" lon="13.4727204"><ele>15.0</ele><time>2026-04-17T14:54:25.161Z</time></trkpt><trkpt lat="45.8422766" lon="13.4729917"><ele>15.0</ele><time>2026-04-17T14:54:26.161Z</time></trkpt><trkpt lat="45.8422239" lon="13.4732569"><ele>15.0</ele><time>2026-04-17T14:54:27.16Z</time></trkpt><trkpt lat="45.8421701" lon="13.4735175"><ele>15.0</ele><time>2026-04-17T14:54:28.16Z</time></trkpt><trkpt lat="45.8421134" lon="13.4737816"><ele>15.0</ele><time>2026-04-17T14:54:29.16Z</time></trkpt><trkpt lat="45.8420586" lon="13.4740513"><ele>15.0</ele><time>2026-04-17T14:54:30.16Z</time></trkpt><trkpt lat="45.8420127" lon="13.4743107"><ele>15.0</ele><time>2026-04-17T14:54:31.161Z</time></trkpt><trkpt lat="45.841968" lon="13.4745456"><ele>14.75</ele><time>2026-04-17T14:54:32.161Z</time></trkpt><trkpt lat="45.8419236" lon="13.474758"><ele>14.5</ele><time>2026-04-17T14:54:33.16Z</time></trkpt><trkpt lat="45.8418788" lon="13.4749518"><ele>14.25</ele><time>2026-04-17T14:54:34.161Z</time></trkpt><trkpt lat="45.8418324" lon="13.4751476"><ele>14.0</ele><time>2026-04-17T14:54:35.161Z</time></trkpt><trkpt lat="45.8417885" lon="13.4753469"><ele>14.0</ele><time>2026-04-17T14:54:36.161Z</time></trkpt><trkpt lat="45.8417363" lon="13.4755466"><ele>14.0</ele><time>2026-04-17T14:54:37.16Z</time></trkpt><trkpt lat="45.8416871" lon="13.4757406"><ele>14.0</ele><time>2026-04-17T14:54:38.16Z</time></trkpt><trkpt lat="45.8416427" lon="13.475937"><ele>14.0</ele><time>2026-04-17T14:54:39.161Z</time></trkpt><trkpt lat="45.8415951" lon="13.476132"><ele>14.0</ele><time>2026-04-17T14:54:40.16Z</time></trkpt><trkpt lat="45.8415451" lon="13.4763211"><ele>14.0</ele><time>2026-04-17T14:54:41.161Z</time></trkpt><trkpt lat="45.8414594" lon="13.476672"><ele>14.0</ele><time>2026-04-17T14:54:43.161Z</time></trkpt><trkpt lat="45.8414134" lon="13.4768322"><ele>14.0</ele><time>2026-04-17T14:54:44.16Z</time></trkpt><trkpt lat="45.841373" lon="13.4769884"><ele>13.999999999999998</ele><time>2026-04-17T14:54:45.161Z</time></trkpt><trkpt lat="45.8413412" lon="13.4771375"><ele>13.999999999999998</ele><time>2026-04-17T14:54:46.161Z</time></trkpt><trkpt lat="45.8413159" lon="13.4772641"><ele>14.0</ele><time>2026-04-17T14:54:47.161Z</time></trkpt><trkpt lat="45.8412955" lon="13.4773705"><ele>14.0</ele><time>2026-04-17T14:54:48.16Z</time></trkpt><trkpt lat="45.8412788" lon="13.4775218"><ele>14.0</ele><time>2026-04-17T14:54:50.16Z</time></trkpt><trkpt lat="45.841363" lon="13.4775372"><ele>13.999999999999998</ele><time>2026-04-17T14:54:53.16Z</time></trkpt><trkpt lat="45.8413956" lon="13.4774531"><ele>13.999999999999998</ele><time>2026-04-17T14:54:54.161Z</time></trkpt><trkpt lat="45.8414201" lon="13.4773184"><ele>14.0</ele><time>2026-04-17T14:54:55.16Z</time></trkpt><trkpt lat="45.8414537" lon="13.4771561"><ele>14.0</ele><time>2026-04-17T14:54:56.161Z</time></trkpt><trkpt lat="45.8414808" lon="13.4770145"><ele>14.0</ele><time>2026-04-17T14:54:57.161Z</time></trkpt><trkpt lat="45.8415039" lon="13.4769022"><ele>14.0</ele><time>2026-04-17T14:54:58.16Z</time></trkpt><trkpt lat="45.8415714" lon="13.4767742"><ele>14.0</ele><time>2026-04-17T14:55:00.16Z</time></trkpt><trkpt lat="45.8416997" lon="13.476772"><ele>14.0</ele><time>2026-04-17T14:55:02.16Z</time></trkpt><trkpt lat="45.8418979" lon="13.4768631"><ele>14.2</ele><time>2026-04-17T14:55:04.161Z</time></trkpt><trkpt lat="45.8420084" lon="13.4769094"><ele>14.399999999999999</ele><time>2026-04-17T14:55:05.161Z</time></trkpt><trkpt lat="45.8421216" lon="13.47697"><ele>14.6</ele><time>2026-04-17T14:55:06.161Z</time></trkpt><trkpt lat="45.8422168" lon="13.4770546"><ele>14.8</ele><time>2026-04-17T14:55:07.161Z</time></trkpt><trkpt lat="45.8422887" lon="13.4771495"><ele>15.0</ele><time>2026-04-17T14:55:08.16Z</time></trkpt><trkpt lat="45.8423549" lon="13.4772323"><ele>15.0</ele><time>2026-04-17T14:55:09.161Z</time></trkpt><trkpt lat="45.8424192" lon="13.4773026"><ele>15.0</ele><time>2026-04-17T14:55:10.161Z</time></trkpt><trkpt lat="45.8424833" lon="13.4773526"><ele>15.0</ele><time>2026-04-17T14:55:11.161Z</time></trkpt><trkpt lat="45.8425476" lon="13.4773925"><ele>15.0</ele><time>2026-04-17T14:55:12.161Z</time></trkpt><trkpt lat="45.8426179" lon="13.477436"><ele>15.0</ele><time>2026-04-17T14:55:13.161Z</time></trkpt><trkpt lat="45.8426838" lon="13.4774757"><ele>15.0</ele><time>2026-04-17T14:55:14.16Z</time></trkpt><trkpt lat="45.842744" lon="13.4775068"><ele>15.0</ele><time>2026-04-17T14:55:15.16Z</time></trkpt><trkpt lat="45.8428413" lon="13.4775278"><ele>15.0</ele><time>2026-04-17T14:55:17.161Z</time></trkpt><trkpt lat="45.8428997" lon="13.4774539"><ele>15.0</ele><time>2026-04-17T14:55:20.161Z</time></trkpt><trkpt lat="45.8429083" lon="13.4773512"><ele>15.0</ele><time>2026-04-17T14:55:22.161Z</time></trkpt><trkpt lat="45.8429051" lon="13.4772475"><ele>15.0</ele><time>2026-04-17T14:55:24.16Z</time></trkpt></trkseg><trkseg><trkpt lat="45.8429256" lon="13.4770817"><ele>14.2</ele><time>2026-04-17T15:52:18.147Z</time></trkpt><trkpt lat="45.8430002" lon="13.4771199"><ele>14.399999999999999</ele><time>2026-04-17T15:52:22.147Z</time></trkpt><trkpt lat="45.8429253" lon="13.4772393"><ele>14.6</ele><time>2026-04-17T15:52:29.147Z</time></trkpt><trkpt lat="45.8428565" lon="13.4772771"><ele>14.8</ele><time>2026-04-17T15:52:31.148Z</time></trkpt><trkpt lat="45.8427814" lon="13.4773203"><ele>15.0</ele><time>2026-04-17T15:52:33.148Z</time></trkpt><trkpt lat="45.8426752" lon="13.4773677"><ele>14.5</ele><time>2026-04-17T15:52:35.148Z</time></trkpt><trkpt lat="45.8425398" lon="13.4773603"><ele>14.0</ele><time>2026-04-17T15:52:37.148Z</time></trkpt><trkpt lat="45.8424465" lon="13.4773084"><ele>13.5</ele><time>2026-04-17T15:52:38.148Z</time></trkpt><trkpt lat="45.8423531" lon="13.4772251"><ele>13.0</ele><time>2026-04-17T15:52:39.148Z</time></trkpt><trkpt lat="45.8422635" lon="13.4771282"><ele>13.4</ele><time>2026-04-17T15:52:40.148Z</time></trkpt><trkpt lat="45.8421915" lon="13.4770371"><ele>13.8</ele><time>2026-04-17T15:52:41.148Z</time></trkpt><trkpt lat="45.842118" lon="13.4769761"><ele>14.2</ele><time>2026-04-17T15:52:42.147Z</time></trkpt><trkpt lat="45.842041" lon="13.4769343"><ele>14.6</ele><time>2026-04-17T15:52:43.148Z</time></trkpt><trkpt lat="45.8418988" lon="13.4768732"><ele>15.0</ele><time>2026-04-17T15:52:45.147Z</time></trkpt><trkpt lat="45.8418314" lon="13.4768402"><ele>14.8</ele><time>2026-04-17T15:52:46.147Z</time></trkpt><trkpt lat="45.841768" lon="13.4768094"><ele>14.6</ele><time>2026-04-17T15:52:47.148Z</time></trkpt><trkpt lat="45.8416629" lon="13.4767706"><ele>14.399999999999999</ele><time>2026-04-17T15:52:49.148Z</time></trkpt><trkpt lat="45.8415893" lon="13.4768047"><ele>14.2</ele><time>2026-04-17T15:52:51.148Z</time></trkpt><trkpt lat="45.8415335" lon="13.4769181"><ele>14.0</ele><time>2026-04-17T15:52:53.148Z</time></trkpt><trkpt lat="45.8415042" lon="13.4771216"><ele>14.000000000000002</ele><time>2026-04-17T15:52:55.148Z</time></trkpt><trkpt lat="45.8414789" lon="13.4772433"><ele>14.0</ele><time>2026-04-17T15:52:56.147Z</time></trkpt><trkpt lat="45.8414562" lon="13.4773514"><ele>14.0</ele><time>2026-04-17T15:52:57.148Z</time></trkpt><trkpt lat="45.8414329" lon="13.4774409"><ele>14.0</ele><time>2026-04-17T15:52:58.148Z</time></trkpt><trkpt lat="45.8413815" lon="13.4775442"><ele>14.000000000000002</ele><time>2026-04-17T15:53:00.148Z</time></trkpt><trkpt lat="45.8413259" lon="13.477489"><ele>14.0</ele><time>2026-04-17T15:53:03.148Z</time></trkpt><trkpt lat="45.8413457" lon="13.4773251"><ele>14.0</ele><time>2026-04-17T15:53:05.147Z</time></trkpt><trkpt lat="45.8414131" lon="13.477038"><ele>14.0</ele><time>2026-04-17T15:53:07.148Z</time></trkpt><trkpt lat="45.8414571" lon="13.4768569"><ele>14.0</ele><time>2026-04-17T15:53:08.147Z</time></trkpt><trkpt lat="45.8415077" lon="13.476667"><ele>14.0</ele><time>2026-04-17T15:53:09.147Z</time></trkpt><trkpt lat="45.8415619" lon="13.476465"><ele>14.0</ele><time>2026-04-17T15:53:10.148Z</time></trkpt><trkpt lat="45.8416189" lon="13.4762619"><ele>14.0</ele><time>2026-04-17T15:53:11.148Z</time></trkpt><trkpt lat="45.8416812" lon="13.4760357"><ele>14.0</ele><time>2026-04-17T15:53:12.148Z</time></trkpt><trkpt lat="45.8417402" lon="13.4758001"><ele>14.0</ele><time>2026-04-17T15:53:13.148Z</time></trkpt><trkpt lat="45.8418026" lon="13.47555"><ele>14.0</ele><time>2026-04-17T15:53:14.148Z</time></trkpt><trkpt lat="45.8418615" lon="13.4752867"><ele>13.666666666666668</ele><time>2026-04-17T15:53:15.148Z</time></trkpt><trkpt lat="45.8419225" lon="13.4750118"><ele>13.333333333333332</ele><time>2026-04-17T15:53:16.148Z</time></trkpt><trkpt lat="45.8419796" lon="13.4747254"><ele>13.0</ele><time>2026-04-17T15:53:17.148Z</time></trkpt><trkpt lat="45.842033" lon="13.4744639"><ele>13.666666666666666</ele><time>2026-04-17T15:53:18.148Z</time></trkpt><trkpt lat="45.8420771" lon="13.4742235"><ele>14.333333333333332</ele><time>2026-04-17T15:53:19.147Z</time></trkpt><trkpt lat="45.842127" lon="13.4739755"><ele>15.0</ele><time>2026-04-17T15:53:20.148Z</time></trkpt><trkpt lat="45.842172" lon="13.473742"><ele>15.0</ele><time>2026-04-17T15:53:21.148Z</time></trkpt><trkpt lat="45.8422198" lon="13.4734961"><ele>15.0</ele><time>2026-04-17T15:53:22.147Z</time></trkpt><trkpt lat="45.8422756" lon="13.4732425"><ele>15.0</ele><time>2026-04-17T15:53:23.147Z</time></trkpt><trkpt lat="45.8423312" lon="13.472989"><ele>15.0</ele><time>2026-04-17T15:53:24.147Z</time></trkpt><trkpt lat="45.8423845" lon="13.4727308"><ele>14.0</ele><time>2026-04-17T15:53:25.148Z</time></trkpt></trkseg><trkseg><trkpt lat="45.8427857" lon="13.4571165"><ele>11.0</ele><time>2026-04-17T15:55:10.185Z</time></trkpt><trkpt lat="45.8426706" lon="13.456981"><ele>11.0</ele><time>2026-04-17T15:55:11.185Z</time></trkpt><trkpt lat="45.8425599" lon="13.4568417"><ele>11.0</ele><time>2026-04-17T15:55:12.185Z</time></trkpt><trkpt lat="45.8424509" lon="13.4567001"><ele>11.0</ele><time>2026-04-17T15:55:13.185Z</time></trkpt><trkpt lat="45.8423378" lon="13.4565551"><ele>11.0</ele><time>2026-04-17T15:55:14.185Z</time></trkpt><trkpt lat="45.8422177" lon="13.4564123"><ele>11.0</ele><time>2026-04-17T15:55:15.185Z</time></trkpt><trkpt lat="45.8420986" lon="13.4562713"><ele>11.0</ele><time>2026-04-17T15:55:16.184Z</time></trkpt><trkpt lat="45.8419755" lon="13.4561201"><ele>11.0</ele><time>2026-04-17T15:55:17.185Z</time></trkpt><trkpt lat="45.8418522" lon="13.4559564"><ele>11.0</ele><time>2026-04-17T15:55:18.185Z</time></trkpt><trkpt lat="45.841726" lon="13.4557973"><ele>11.0</ele><time>2026-04-17T15:55:19.185Z</time></trkpt><trkpt lat="45.8416016" lon="13.4556375"><ele>11.333333333333332</ele><time>2026-04-17T15:55:20.184Z</time></trkpt><trkpt lat="45.8414751" lon="13.4554851"><ele>11.666666666666666</ele><time>2026-04-17T15:55:21.184Z</time></trkpt><trkpt lat="45.841344" lon="13.4553274"><ele>12.0</ele><time>2026-04-17T15:55:22.184Z</time></trkpt><trkpt lat="45.8412183" lon="13.4551659"><ele>11.666666666666666</ele><time>2026-04-17T15:55:23.185Z</time></trkpt><trkpt lat="45.8410973" lon="13.4549998"><ele>11.333333333333332</ele><time>2026-04-17T15:55:24.184Z</time></trkpt><trkpt lat="45.8409755" lon="13.454847"><ele>11.0</ele><time>2026-04-17T15:55:25.184Z</time></trkpt><trkpt lat="45.8408512" lon="13.4546884"><ele>10.666666666666666</ele><time>2026-04-17T15:55:26.184Z</time></trkpt><trkpt lat="45.8407267" lon="13.4545282"><ele>10.333333333333334</ele><time>2026-04-17T15:55:27.184Z</time></trkpt><trkpt lat="45.8405957" lon="13.4543615"><ele>10.0</ele><time>2026-04-17T15:55:28.184Z</time></trkpt><trkpt lat="45.8404672" lon="13.4541914"><ele>10.0</ele><time>2026-04-17T15:55:29.185Z</time></trkpt><trkpt lat="45.8403325" lon="13.4540284"><ele>10.0</ele><time>2026-04-17T15:55:30.185Z</time></trkpt><trkpt lat="45.8402074" lon="13.4538638"><ele>10.0</ele><time>2026-04-17T15:55:31.185Z</time></trkpt><trkpt lat="45.840074" lon="13.453703"><ele>10.666666666666668</ele><time>2026-04-17T15:55:32.185Z</time></trkpt><trkpt lat="45.8399492" lon="13.4535324"><ele>11.333333333333334</ele><time>2026-04-17T15:55:33.185Z</time></trkpt><trkpt lat="45.8398208" lon="13.4533651"><ele>12.0</ele><time>2026-04-17T15:55:34.184Z</time></trkpt><trkpt lat="45.8396867" lon="13.4531969"><ele>12.0</ele><time>2026-04-17T15:55:35.185Z</time></trkpt><trkpt lat="45.8395532" lon="13.453037"><ele>12.0</ele><time>2026-04-17T15:55:36.185Z</time></trkpt><trkpt lat="45.8394201" lon="13.4528609"><ele>12.0</ele><time>2026-04-17T15:55:37.184Z</time></trkpt><trkpt lat="45.8392769" lon="13.4526683"><ele>11.666666666666666</ele><time>2026-04-17T15:55:38.185Z</time></trkpt><trkpt lat="45.8391193" lon="13.4524646"><ele>11.333333333333332</ele><time>2026-04-17T15:55:39.184Z</time></trkpt><trkpt lat="45.8389531" lon="13.4522444"><ele>11.0</ele><time>2026-04-17T15:55:40.184Z</time></trkpt><trkpt lat="45.8387858" lon="13.4520154"><ele>10.5</ele><time>2026-04-17T15:55:41.185Z</time></trkpt><trkpt lat="45.838626" lon="13.4517855"><ele>10.0</ele><time>2026-04-17T15:55:42.184Z</time></trkpt><trkpt lat="45.8384745" lon="13.4515474"><ele>10.0</ele><time>2026-04-17T15:55:43.184Z</time></trkpt><trkpt lat="45.8383082" lon="13.4513124"><ele>10.0</ele><time>2026-04-17T15:55:44.185Z</time></trkpt><trkpt lat="45.8381344" lon="13.4510742"><ele>10.0</ele><time>2026-04-17T15:55:45.184Z</time></trkpt><trkpt lat="45.8379636" lon="13.45084"><ele>10.0</ele><time>2026-04-17T15:55:46.185Z</time></trkpt><trkpt lat="45.8377993" lon="13.4506067"><ele>9.666666666666668</ele><time>2026-04-17T15:55:47.184Z</time></trkpt><trkpt lat="45.8376368" lon="13.4503956"><ele>9.333333333333334</ele><time>2026-04-17T15:55:48.185Z</time></trkpt><trkpt lat="45.8374827" lon="13.4501836"><ele>9.0</ele><time>2026-04-17T15:55:49.185Z</time></trkpt><trkpt lat="45.8373331" lon="13.4499791"><ele>9.0</ele><time>2026-04-17T15:55:50.185Z</time></trkpt><trkpt lat="45.8371916" lon="13.4497768"><ele>9.0</ele><time>2026-04-17T15:55:51.185Z</time></trkpt><trkpt lat="45.8370402" lon="13.4495804"><ele>9.0</ele><time>2026-04-17T15:55:52.185Z</time></trkpt><trkpt lat="45.8368899" lon="13.4493973"><ele>9.0</ele><time>2026-04-17T15:55:53.184Z</time></trkpt><trkpt lat="45.8367398" lon="13.4492192"><ele>9.0</ele><time>2026-04-17T15:55:54.184Z</time></trkpt><trkpt lat="45.8365878" lon="13.4490423"><ele>9.0</ele><time>2026-04-17T15:55:55.185Z</time></trkpt><trkpt lat="45.8364275" lon="13.448872"><ele>9.333333333333334</ele><time>2026-04-17T15:55:56.185Z</time></trkpt><trkpt lat="45.8362744" lon="13.4487061"><ele>9.666666666666668</ele><time>2026-04-17T15:55:57.185Z</time></trkpt><trkpt lat="45.8361222" lon="13.4485364"><ele>10.0</ele><time>2026-04-17T15:55:58.185Z</time></trkpt><trkpt lat="45.8359771" lon="13.4483769"><ele>10.333333333333334</ele><time>2026-04-17T15:55:59.185Z</time></trkpt><trkpt lat="45.8358408" lon="13.44823"><ele>10.666666666666666</ele><time>2026-04-17T15:56:00.184Z</time></trkpt><trkpt lat="45.8357155" lon="13.4480711"><ele>11.0</ele><time>2026-04-17T15:56:01.184Z</time></trkpt><trkpt lat="45.8356048" lon="13.4478949"><ele>10.333333333333332</ele><time>2026-04-17T15:56:02.185Z</time></trkpt><trkpt lat="45.83551" lon="13.4476905"><ele>9.666666666666666</ele><time>2026-04-17T15:56:03.185Z</time></trkpt><trkpt lat="45.83544" lon="13.4474732"><ele>9.0</ele><time>2026-04-17T15:56:04.184Z</time></trkpt><trkpt lat="45.8353751" lon="13.4472312"><ele>9.333333333333334</ele><time>2026-04-17T15:56:05.185Z</time></trkpt><trkpt lat="45.8353158" lon="13.4469847"><ele>9.666666666666668</ele><time>2026-04-17T15:56:06.185Z</time></trkpt><trkpt lat="45.8352591" lon="13.4467419"><ele>10.0</ele><time>2026-04-17T15:56:07.185Z</time></trkpt><trkpt lat="45.8352072" lon="13.4465059"><ele>10.0</ele><time>2026-04-17T15:56:08.185Z</time></trkpt><trkpt lat="45.835154" lon="13.4462701"><ele>10.0</ele><time>2026-04-17T15:56:09.184Z</time></trkpt><trkpt lat="45.8351011" lon="13.4460294"><ele>10.0</ele><time>2026-04-17T15:56:10.184Z</time></trkpt><trkpt lat="45.8350462" lon="13.4457827"><ele>10.0</ele><time>2026-04-17T15:56:11.185Z</time></trkpt><trkpt lat="45.834987" lon="13.445539"><ele>10.0</ele><time>2026-04-17T15:56:12.185Z</time></trkpt><trkpt lat="45.8349314" lon="13.4453097"><ele>10.0</ele><time>2026-04-17T15:56:13.185Z</time></trkpt><trkpt lat="45.8348781" lon="13.4450757"><ele>9.666666666666668</ele><time>2026-04-17T15:56:14.185Z</time></trkpt><trkpt lat="45.8348229" lon="13.4448382"><ele>9.333333333333334</ele><time>2026-04-17T15:56:15.185Z</time></trkpt><trkpt lat="45.8347605" lon="13.4446002"><ele>9.0</ele><time>2026-04-17T15:56:16.184Z</time></trkpt><trkpt lat="45.834701" lon="13.4443663"><ele>9.0</ele><time>2026-04-17T15:56:17.184Z</time></trkpt><trkpt lat="45.834649" lon="13.4441297"><ele>9.0</ele><time>2026-04-17T15:56:18.185Z</time></trkpt><trkpt lat="45.8345944" lon="13.4438956"><ele>9.0</ele><time>2026-04-17T15:56:19.185Z</time></trkpt><trkpt lat="45.8345289" lon="13.4436617"><ele>8.666666666666666</ele><time>2026-04-17T15:56:20.184Z</time></trkpt><trkpt lat="45.8344549" lon="13.4434329"><ele>8.333333333333332</ele><time>2026-04-17T15:56:21.184Z</time></trkpt><trkpt lat="45.8343652" lon="13.4432184"><ele>8.0</ele><time>2026-04-17T15:56:22.185Z</time></trkpt><trkpt lat="45.8342601" lon="13.4430181"><ele>8.666666666666666</ele><time>2026-04-17T15:56:23.185Z</time></trkpt><trkpt lat="45.8341373" lon="13.4428372"><ele>9.333333333333334</ele><time>2026-04-17T15:56:24.185Z</time></trkpt><trkpt lat="45.8340075" lon="13.4426689"><ele>10.0</ele><time>2026-04-17T15:56:25.185Z</time></trkpt><trkpt lat="45.8338658" lon="13.4425248"><ele>10.0</ele><time>2026-04-17T15:56:26.185Z</time></trkpt><trkpt lat="45.8337167" lon="13.4424021"><ele>10.0</ele><time>2026-04-17T15:56:27.185Z</time></trkpt><trkpt lat="45.8335574" lon="13.4423031"><ele>10.0</ele><time>2026-04-17T15:56:28.184Z</time></trkpt><trkpt lat="45.8333933" lon="13.4421998"><ele>9.333333333333334</ele><time>2026-04-17T15:56:29.185Z</time></trkpt><trkpt lat="45.8332319" lon="13.4420939"><ele>8.666666666666666</ele><time>2026-04-17T15:56:30.185Z</time></trkpt><trkpt lat="45.8330773" lon="13.4419852"><ele>8.0</ele><time>2026-04-17T15:56:31.185Z</time></trkpt><trkpt lat="45.8329177" lon="13.4418737"><ele>8.0</ele><time>2026-04-17T15:56:32.185Z</time></trkpt><trkpt lat="45.8327609" lon="13.4417568"><ele>8.0</ele><time>2026-04-17T15:56:33.185Z</time></trkpt><trkpt lat="45.8326068" lon="13.4416428"><ele>8.0</ele><time>2026-04-17T15:56:34.185Z</time></trkpt><trkpt lat="45.8324418" lon="13.4415347"><ele>8.0</ele><time>2026-04-17T15:56:35.185Z</time></trkpt><trkpt lat="45.8322739" lon="13.4414355"><ele>8.0</ele><time>2026-04-17T15:56:36.185Z</time></trkpt><trkpt lat="45.8321014" lon="13.4413272"><ele>8.0</ele><time>2026-04-17T15:56:37.185Z</time></trkpt><trkpt lat="45.8319334" lon="13.4412094"><ele>9.0</ele><time>2026-04-17T15:56:38.184Z</time></trkpt><trkpt lat="45.8317694" lon="13.4410827"><ele>10.0</ele><time>2026-04-17T15:56:39.184Z</time></trkpt><trkpt lat="45.8315988" lon="13.440965"><ele>11.0</ele><time>2026-04-17T15:56:40.185Z</time></trkpt><trkpt lat="45.8314244" lon="13.4408496"><ele>11.0</ele><time>2026-04-17T15:56:41.184Z</time></trkpt><trkpt lat="45.8312448" lon="13.4407406"><ele>11.0</ele><time>2026-04-17T15:56:42.184Z</time></trkpt><trkpt lat="45.8310745" lon="13.4406201"><ele>11.0</ele><time>2026-04-17T15:56:43.184Z</time></trkpt><trkpt lat="45.8309056" lon="13.440502"><ele>10.666666666666666</ele><time>2026-04-17T15:56:44.185Z</time></trkpt><trkpt lat="45.8307289" lon="13.4403837"><ele>10.333333333333334</ele><time>2026-04-17T15:56:45.185Z</time></trkpt><trkpt lat="45.8305465" lon="13.4402653"><ele>10.0</ele><time>2026-04-17T15:56:46.185Z</time></trkpt><trkpt lat="45.8303731" lon="13.4401483"><ele>10.0</ele><time>2026-04-17T15:56:47.185Z</time></trkpt><trkpt lat="45.8301982" lon="13.4400329"><ele>10.0</ele><time>2026-04-17T15:56:48.184Z</time></trkpt><trkpt lat="45.8300244" lon="13.4399135"><ele>10.0</ele><time>2026-04-17T15:56:49.185Z</time></trkpt><trkpt lat="45.8298487" lon="13.4397959"><ele>10.0</ele><time>2026-04-17T15:56:50.185Z</time></trkpt><trkpt lat="45.8296761" lon="13.4396783"><ele>10.0</ele><time>2026-04-17T15:56:51.185Z</time></trkpt><trkpt lat="45.8295062" lon="13.4395497"><ele>10.0</ele><time>2026-04-17T15:56:52.185Z</time></trkpt><trkpt lat="45.8293326" lon="13.4394232"><ele>10.0</ele><time>2026-04-17T15:56:53.184Z</time></trkpt><trkpt lat="45.829158" lon="13.4393064"><ele>10.0</ele><time>2026-04-17T15:56:54.185Z</time></trkpt><trkpt lat="45.8289833" lon="13.4391919"><ele>10.0</ele><time>2026-04-17T15:56:55.185Z</time></trkpt><trkpt lat="45.8288102" lon="13.4390759"><ele>10.0</ele><time>2026-04-17T15:56:56.185Z</time></trkpt><trkpt lat="45.8286409" lon="13.4389669"><ele>10.0</ele><time>2026-04-17T15:56:57.185Z</time></trkpt><trkpt lat="45.8284652" lon="13.438855"><ele>10.0</ele><time>2026-04-17T15:56:58.185Z</time></trkpt><trkpt lat="45.8282886" lon="13.4387411"><ele>9.0</ele><time>2026-04-17T15:56:59.185Z</time></trkpt><trkpt lat="45.8281165" lon="13.4386166"><ele>8.0</ele><time>2026-04-17T15:57:00.185Z</time></trkpt><trkpt lat="45.8279492" lon="13.438491"><ele>7.0</ele><time>2026-04-17T15:57:01.185Z</time></trkpt><trkpt lat="45.8277796" lon="13.4383716"><ele>7.0</ele><time>2026-04-17T15:57:02.184Z</time></trkpt><trkpt lat="45.8276094" lon="13.4382593"><ele>7.0</ele><time>2026-04-17T15:57:03.184Z</time></trkpt><trkpt lat="45.8274371" lon="13.4381465"><ele>7.0</ele><time>2026-04-17T15:57:04.185Z</time></trkpt><trkpt lat="45.8272618" lon="13.4380307"><ele>7.333333333333334</ele><time>2026-04-17T15:57:05.185Z</time></trkpt><trkpt lat="45.8270828" lon="13.4379165"><ele>7.666666666666666</ele><time>2026-04-17T15:57:06.185Z</time></trkpt><trkpt lat="45.82691" lon="13.43781"><ele>8.0</ele><time>2026-04-17T15:57:07.184Z</time></trkpt><trkpt lat="45.8267339" lon="13.4377005"><ele>8.333333333333332</ele><time>2026-04-17T15:57:08.184Z</time></trkpt><trkpt lat="45.8265715" lon="13.4375851"><ele>8.666666666666666</ele><time>2026-04-17T15:57:09.184Z</time></trkpt><trkpt lat="45.8264001" lon="13.4374701"><ele>9.0</ele><time>2026-04-17T15:57:10.185Z</time></trkpt><trkpt lat="45.8262266" lon="13.4373542"><ele>9.0</ele><time>2026-04-17T15:57:11.185Z</time></trkpt><trkpt lat="45.8260555" lon="13.4372496"><ele>9.0</ele><time>2026-04-17T15:57:12.184Z</time></trkpt><trkpt lat="45.8258749" lon="13.4371594"><ele>9.0</ele><time>2026-04-17T15:57:13.185Z</time></trkpt><trkpt lat="45.8256836" lon="13.4370878"><ele>9.0</ele><time>2026-04-17T15:57:14.185Z</time></trkpt><trkpt lat="45.8254937" lon="13.4370201"><ele>9.0</ele><time>2026-04-17T15:57:15.184Z</time></trkpt><trkpt lat="45.8253138" lon="13.4369675"><ele>9.0</ele><time>2026-04-17T15:57:16.185Z</time></trkpt><trkpt lat="45.8251279" lon="13.4369326"><ele>8.666666666666666</ele><time>2026-04-17T15:57:17.184Z</time></trkpt><trkpt lat="45.8249444" lon="13.4369112"><ele>8.333333333333332</ele><time>2026-04-17T15:57:18.185Z</time></trkpt><trkpt lat="45.8247568" lon="13.4369072"><ele>8.0</ele><time>2026-04-17T15:57:19.185Z</time></trkpt><trkpt lat="45.824573" lon="13.4368997"><ele>8.0</ele><time>2026-04-17T15:57:20.185Z</time></trkpt><trkpt lat="45.8243899" lon="13.4369084"><ele>8.0</ele><time>2026-04-17T15:57:21.185Z</time></trkpt><trkpt lat="45.8242036" lon="13.4369224"><ele>8.0</ele><time>2026-04-17T15:57:22.184Z</time></trkpt><trkpt lat="45.8240227" lon="13.4369345"><ele>7.666666666666666</ele><time>2026-04-17T15:57:23.184Z</time></trkpt><trkpt lat="45.8238314" lon="13.4369505"><ele>7.333333333333334</ele><time>2026-04-17T15:57:24.185Z</time></trkpt><trkpt lat="45.823641" lon="13.4369642"><ele>7.0</ele><time>2026-04-17T15:57:25.185Z</time></trkpt><trkpt lat="45.8234586" lon="13.4369797"><ele>7.0</ele><time>2026-04-17T15:57:26.185Z</time></trkpt><trkpt lat="45.8232726" lon="13.4369969"><ele>7.0</ele><time>2026-04-17T15:57:27.184Z</time></trkpt><trkpt lat="45.82309" lon="13.4370123"><ele>7.0</ele><time>2026-04-17T15:57:28.185Z</time></trkpt><trkpt lat="45.8229086" lon="13.437035"><ele>7.0</ele><time>2026-04-17T15:57:29.185Z</time></trkpt><trkpt lat="45.8227388" lon="13.4370546"><ele>7.0</ele><time>2026-04-17T15:57:30.185Z</time></trkpt><trkpt lat="45.8225766" lon="13.4370646"><ele>7.0</ele><time>2026-04-17T15:57:31.185Z</time></trkpt><trkpt lat="45.8224154" lon="13.437076"><ele>7.666666666666667</ele><time>2026-04-17T15:57:32.184Z</time></trkpt><trkpt lat="45.8222525" lon="13.4370961"><ele>8.333333333333334</ele><time>2026-04-17T15:57:33.185Z</time></trkpt><trkpt lat="45.8220849" lon="13.4371132"><ele>9.0</ele><time>2026-04-17T15:57:34.185Z</time></trkpt><trkpt lat="45.8219099" lon="13.4371329"><ele>8.0</ele><time>2026-04-17T15:57:35.185Z</time></trkpt><trkpt lat="45.821731" lon="13.4371564"><ele>7.0</ele><time>2026-04-17T15:57:36.185Z</time></trkpt><trkpt lat="45.8215519" lon="13.4371777"><ele>6.0</ele><time>2026-04-17T15:57:37.184Z</time></trkpt><trkpt lat="45.8213749" lon="13.437193"><ele>6.0</ele><time>2026-04-17T15:57:38.185Z</time></trkpt><trkpt lat="45.821192" lon="13.4372003"><ele>6.0</ele><time>2026-04-17T15:57:39.185Z</time></trkpt><trkpt lat="45.8210072" lon="13.4372212"><ele>6.0</ele><time>2026-04-17T15:57:40.185Z</time></trkpt><trkpt lat="45.8208213" lon="13.4372372"><ele>6.666666666666666</ele><time>2026-04-17T15:57:41.184Z</time></trkpt><trkpt lat="45.8206328" lon="13.4372494"><ele>7.333333333333333</ele><time>2026-04-17T15:57:42.185Z</time></trkpt><trkpt lat="45.8204488" lon="13.4372648"><ele>8.0</ele><time>2026-04-17T15:57:43.185Z</time></trkpt><trkpt lat="45.82026" lon="13.4372798"><ele>8.0</ele><time>2026-04-17T15:57:44.185Z</time></trkpt><trkpt lat="45.8200854" lon="13.4372836"><ele>8.0</ele><time>2026-04-17T15:57:45.184Z</time></trkpt><trkpt lat="45.8199043" lon="13.4373018"><ele>8.0</ele><time>2026-04-17T15:57:46.185Z</time></trkpt><trkpt lat="45.8197276" lon="13.4373263"><ele>8.0</ele><time>2026-04-17T15:57:47.184Z</time></trkpt><trkpt lat="45.8195538" lon="13.4373464"><ele>8.0</ele><time>2026-04-17T15:57:48.184Z</time></trkpt><trkpt lat="45.8193794" lon="13.437367"><ele>8.0</ele><time>2026-04-17T15:57:49.185Z</time></trkpt><trkpt lat="45.8192026" lon="13.4373829"><ele>7.666666666666666</ele><time>2026-04-17T15:57:50.184Z</time></trkpt><trkpt lat="45.8190245" lon="13.4374072"><ele>7.333333333333334</ele><time>2026-04-17T15:57:51.185Z</time></trkpt><trkpt lat="45.8188391" lon="13.4374398"><ele>7.0</ele><time>2026-04-17T15:57:52.185Z</time></trkpt><trkpt lat="45.8186697" lon="13.437466"><ele>7.0</ele><time>2026-04-17T15:57:53.184Z</time></trkpt><trkpt lat="45.818513" lon="13.4374706"><ele>7.0</ele><time>2026-04-17T15:57:54.185Z</time></trkpt><trkpt lat="45.8183631" lon="13.4374909"><ele>7.0</ele><time>2026-04-17T15:57:55.185Z</time></trkpt><trkpt lat="45.8182375" lon="13.4374981"><ele>7.0</ele><time>2026-04-17T15:57:56.184Z</time></trkpt><trkpt lat="45.8181267" lon="13.4375022"><ele>7.166666666666667</ele><time>2026-04-17T15:57:57.184Z</time></trkpt><trkpt lat="45.8180396" lon="13.4375012"><ele>7.333333333333334</ele><time>2026-04-17T15:57:58.184Z</time></trkpt><trkpt lat="45.8179567" lon="13.4375031"><ele>7.5</ele><time>2026-04-17T15:57:59.184Z</time></trkpt><trkpt lat="45.8178744" lon="13.4375113"><ele>7.666666666666666</ele><time>2026-04-17T15:58:00.185Z</time></trkpt><trkpt lat="45.8177951" lon="13.4375165"><ele>7.833333333333333</ele><time>2026-04-17T15:58:01.185Z</time></trkpt><trkpt lat="45.8177142" lon="13.4375212"><ele>8.0</ele><time>2026-04-17T15:58:02.184Z</time></trkpt><trkpt lat="45.8176237" lon="13.4375338"><ele>7.5</ele><time>2026-04-17T15:58:03.184Z</time></trkpt><trkpt lat="45.8175199" lon="13.4375528"><ele>7.0</ele><time>2026-04-17T15:58:04.185Z</time></trkpt><trkpt lat="45.8173988" lon="13.437568"><ele>6.5</ele><time>2026-04-17T15:58:05.185Z</time></trkpt><trkpt lat="45.8172531" lon="13.4375764"><ele>6.0</ele><time>2026-04-17T15:58:06.184Z</time></trkpt><trkpt lat="45.8170911" lon="13.4375888"><ele>6.0</ele><time>2026-04-17T15:58:07.185Z</time></trkpt><trkpt lat="45.8169161" lon="13.437607"><ele>6.0</ele><time>2026-04-17T15:58:08.184Z</time></trkpt><trkpt lat="45.8167305" lon="13.4376298"><ele>6.0</ele><time>2026-04-17T15:58:09.185Z</time></trkpt><trkpt lat="45.816543" lon="13.4376497"><ele>6.333333333333334</ele><time>2026-04-17T15:58:10.185Z</time></trkpt><trkpt lat="45.8163476" lon="13.4376656"><ele>6.666666666666667</ele><time>2026-04-17T15:58:11.185Z</time></trkpt><trkpt lat="45.816145" lon="13.4376858"><ele>7.0</ele><time>2026-04-17T15:58:12.184Z</time></trkpt><trkpt lat="45.8159514" lon="13.4377002"><ele>7.666666666666667</ele><time>2026-04-17T15:58:13.185Z</time></trkpt><trkpt lat="45.8157508" lon="13.4377123"><ele>8.333333333333334</ele><time>2026-04-17T15:58:14.184Z</time></trkpt><trkpt lat="45.8155558" lon="13.4377254"><ele>9.0</ele><time>2026-04-17T15:58:15.185Z</time></trkpt><trkpt lat="45.8153652" lon="13.4377535"><ele>9.0</ele><time>2026-04-17T15:58:16.184Z</time></trkpt><trkpt lat="45.8151678" lon="13.4377854"><ele>9.0</ele><time>2026-04-17T15:58:17.185Z</time></trkpt><trkpt lat="45.8149581" lon="13.4378278"><ele>9.0</ele><time>2026-04-17T15:58:18.185Z</time></trkpt><trkpt lat="45.8147492" lon="13.4378676"><ele>8.333333333333334</ele><time>2026-04-17T15:58:19.185Z</time></trkpt><trkpt lat="45.8145437" lon="13.4379014"><ele>7.666666666666667</ele><time>2026-04-17T15:58:20.185Z</time></trkpt><trkpt lat="45.8143354" lon="13.437934"><ele>7.0</ele><time>2026-04-17T15:58:21.185Z</time></trkpt><trkpt lat="45.8141243" lon="13.4379736"><ele>6.666666666666667</ele><time>2026-04-17T15:58:22.185Z</time></trkpt><trkpt lat="45.8139169" lon="13.4380201"><ele>6.333333333333334</ele><time>2026-04-17T15:58:23.185Z</time></trkpt><trkpt lat="45.8137034" lon="13.4380717"><ele>6.0</ele><time>2026-04-17T15:58:24.184Z</time></trkpt><trkpt lat="45.8135069" lon="13.4381304"><ele>5.0</ele><time>2026-04-17T15:58:25.184Z</time></trkpt><trkpt lat="45.8133136" lon="13.438181"><ele>4.0</ele><time>2026-04-17T15:58:26.183Z</time></trkpt><trkpt lat="45.813122" lon="13.4382367"><ele>3.0</ele><time>2026-04-17T15:58:27.183Z</time></trkpt><trkpt lat="45.8129267" lon="13.4383008"><ele>3.0</ele><time>2026-04-17T15:58:28.184Z</time></trkpt><trkpt lat="45.8127349" lon="13.4383691"><ele>3.0</ele><time>2026-04-17T15:58:29.183Z</time></trkpt><trkpt lat="45.8125449" lon="13.4384381"><ele>3.0</ele><time>2026-04-17T15:58:30.184Z</time></trkpt><trkpt lat="45.8123551" lon="13.4385045"><ele>3.666666666666667</ele><time>2026-04-17T15:58:31.183Z</time></trkpt><trkpt lat="45.812158" lon="13.4385676"><ele>4.333333333333334</ele><time>2026-04-17T15:58:32.183Z</time></trkpt><trkpt lat="45.8119651" lon="13.438631"><ele>5.0</ele><time>2026-04-17T15:58:33.183Z</time></trkpt><trkpt lat="45.8117709" lon="13.4386991"><ele>5.333333333333334</ele><time>2026-04-17T15:58:34.184Z</time></trkpt><trkpt lat="45.8115667" lon="13.4387698"><ele>5.666666666666667</ele><time>2026-04-17T15:58:35.183Z</time></trkpt><trkpt lat="45.8113689" lon="13.4388435"><ele>6.0</ele><time>2026-04-17T15:58:36.184Z</time></trkpt><trkpt lat="45.8111739" lon="13.4389109"><ele>6.0</ele><time>2026-04-17T15:58:37.184Z</time></trkpt><trkpt lat="45.8109676" lon="13.4389939"><ele>6.0</ele><time>2026-04-17T15:58:38.184Z</time></trkpt><trkpt lat="45.810756" lon="13.4390789"><ele>6.0</ele><time>2026-04-17T15:58:39.184Z</time></trkpt><trkpt lat="45.8105396" lon="13.4391543"><ele>6.0</ele><time>2026-04-17T15:58:40.183Z</time></trkpt><trkpt lat="45.8103342" lon="13.439235"><ele>6.0</ele><time>2026-04-17T15:58:41.184Z</time></trkpt><trkpt lat="45.8101219" lon="13.4393124"><ele>6.0</ele><time>2026-04-17T15:58:42.184Z</time></trkpt><trkpt lat="45.8099078" lon="13.4393913"><ele>5.333333333333333</ele><time>2026-04-17T15:58:43.184Z</time></trkpt><trkpt lat="45.8096956" lon="13.4394745"><ele>4.666666666666666</ele><time>2026-04-17T15:58:44.184Z</time></trkpt><trkpt lat="45.8094945" lon="13.4395505"><ele>4.0</ele><time>2026-04-17T15:58:45.184Z</time></trkpt><trkpt lat="45.8092988" lon="13.4396269"><ele>3.0</ele><time>2026-04-17T15:58:46.184Z</time></trkpt><trkpt lat="45.8091095" lon="13.4397029"><ele>2.0</ele><time>2026-04-17T15:58:47.184Z</time></trkpt><trkpt lat="45.8089337" lon="13.439774"><ele>1.0</ele><time>2026-04-17T15:58:48.184Z</time></trkpt><trkpt lat="45.8087762" lon="13.4398441"><ele>1.0</ele><time>2026-04-17T15:58:49.184Z</time></trkpt><trkpt lat="45.8086289" lon="13.4399088"><ele>1.0</ele><time>2026-04-17T15:58:50.183Z</time></trkpt><trkpt lat="45.8084999" lon="13.4399573"><ele>1.0</ele><time>2026-04-17T15:58:51.184Z</time></trkpt><trkpt lat="45.808378" lon="13.4399744"><ele>1.0</ele><time>2026-04-17T15:58:52.183Z</time></trkpt><trkpt lat="45.8082682" lon="13.4399745"><ele>1.6</ele><time>2026-04-17T15:58:53.183Z</time></trkpt><trkpt lat="45.808192" lon="13.4399499"><ele>2.2</ele><time>2026-04-17T15:58:54.184Z</time></trkpt><trkpt lat="45.8081302" lon="13.4398821"><ele>2.8000000000000003</ele><time>2026-04-17T15:58:56.184Z</time></trkpt><trkpt lat="45.8080789" lon="13.4397325"><ele>3.4000000000000004</ele><time>2026-04-17T15:58:58.184Z</time></trkpt><trkpt lat="45.8080424" lon="13.4396118"><ele>4.0</ele><time>2026-04-17T15:58:59.184Z</time></trkpt><trkpt lat="45.8080133" lon="13.4394653"><ele>4.333333333333333</ele><time>2026-04-17T15:59:00.184Z</time></trkpt><trkpt lat="45.8079808" lon="13.4392744"><ele>4.666666666666667</ele><time>2026-04-17T15:59:01.184Z</time></trkpt><trkpt lat="45.8079345" lon="13.4390403"><ele>5.0</ele><time>2026-04-17T15:59:02.183Z</time></trkpt><trkpt lat="45.8078932" lon="13.4388139"><ele>4.666666666666667</ele><time>2026-04-17T15:59:03.184Z</time></trkpt><trkpt lat="45.8078545" lon="13.4385982"><ele>4.333333333333333</ele><time>2026-04-17T15:59:04.184Z</time></trkpt><trkpt lat="45.8078119" lon="13.4383899"><ele>4.0</ele><time>2026-04-17T15:59:05.184Z</time></trkpt><trkpt lat="45.8077702" lon="13.4381636"><ele>4.0</ele><time>2026-04-17T15:59:06.184Z</time></trkpt><trkpt lat="45.8077313" lon="13.4379306"><ele>4.0</ele><time>2026-04-17T15:59:07.184Z</time></trkpt><trkpt lat="45.8076899" lon="13.4377009"><ele>4.0</ele><time>2026-04-17T15:59:08.184Z</time></trkpt><trkpt lat="45.8076482" lon="13.4374678"><ele>4.666666666666666</ele><time>2026-04-17T15:59:09.183Z</time></trkpt><trkpt lat="45.8076112" lon="13.4372355"><ele>5.333333333333333</ele><time>2026-04-17T15:59:10.184Z</time></trkpt><trkpt lat="45.80757" lon="13.4369972"><ele>6.0</ele><time>2026-04-17T15:59:11.184Z</time></trkpt><trkpt lat="45.8075321" lon="13.4367614"><ele>6.0</ele><time>2026-04-17T15:59:12.184Z</time></trkpt><trkpt lat="45.8074893" lon="13.436514"><ele>6.0</ele><time>2026-04-17T15:59:13.184Z</time></trkpt><trkpt lat="45.807445" lon="13.4362825"><ele>6.0</ele><time>2026-04-17T15:59:14.184Z</time></trkpt><trkpt lat="45.8074013" lon="13.4360572"><ele>6.333333333333334</ele><time>2026-04-17T15:59:15.183Z</time></trkpt><trkpt lat="45.8073639" lon="13.4358253"><ele>6.666666666666667</ele><time>2026-04-17T15:59:16.184Z</time></trkpt><trkpt lat="45.8073188" lon="13.4355969"><ele>7.0</ele><time>2026-04-17T15:59:17.183Z</time></trkpt><trkpt lat="45.8072682" lon="13.4353641"><ele>7.333333333333334</ele><time>2026-04-17T15:59:18.183Z</time></trkpt><trkpt lat="45.8072173" lon="13.4351399"><ele>7.666666666666666</ele><time>2026-04-17T15:59:19.184Z</time></trkpt><trkpt lat="45.8071624" lon="13.4349192"><ele>8.0</ele><time>2026-04-17T15:59:20.184Z</time></trkpt><trkpt lat="45.8071018" lon="13.4346905"><ele>7.666666666666666</ele><time>2026-04-17T15:59:21.184Z</time></trkpt><trkpt lat="45.8070473" lon="13.4344638"><ele>7.333333333333334</ele><time>2026-04-17T15:59:22.184Z</time></trkpt><trkpt lat="45.8069723" lon="13.43423"><ele>7.0</ele><time>2026-04-17T15:59:23.183Z</time></trkpt><trkpt lat="45.8069031" lon="13.4339877"><ele>6.333333333333334</ele><time>2026-04-17T15:59:24.184Z</time></trkpt><trkpt lat="45.8068288" lon="13.433738"><ele>5.666666666666667</ele><time>2026-04-17T15:59:25.184Z</time></trkpt><trkpt lat="45.8067504" lon="13.4334919"><ele>5.0</ele><time>2026-04-17T15:59:26.184Z</time></trkpt><trkpt lat="45.8066804" lon="13.4332421"><ele>6.666666666666667</ele><time>2026-04-17T15:59:27.184Z</time></trkpt><trkpt lat="45.8066117" lon="13.4329889"><ele>8.333333333333334</ele><time>2026-04-17T15:59:28.184Z</time></trkpt><trkpt lat="45.80654" lon="13.432735"><ele>10.0</ele><time>2026-04-17T15:59:29.183Z</time></trkpt><trkpt lat="45.8064652" lon="13.4324934"><ele>10.0</ele><time>2026-04-17T15:59:30.183Z</time></trkpt><trkpt lat="45.806392" lon="13.4322615"><ele>10.0</ele><time>2026-04-17T15:59:31.184Z</time></trkpt><trkpt lat="45.806325" lon="13.4320289"><ele>10.0</ele><time>2026-04-17T15:59:32.184Z</time></trkpt><trkpt lat="45.8062657" lon="13.4317998"><ele>8.333333333333334</ele><time>2026-04-17T15:59:33.184Z</time></trkpt><trkpt lat="45.8061954" lon="13.4315698"><ele>6.666666666666667</ele><time>2026-04-17T15:59:34.184Z</time></trkpt><trkpt lat="45.8061357" lon="13.4313441"><ele>5.0</ele><time>2026-04-17T15:59:35.183Z</time></trkpt><trkpt lat="45.8060761" lon="13.4311056"><ele>4.666666666666667</ele><time>2026-04-17T15:59:36.183Z</time></trkpt><trkpt lat="45.8060146" lon="13.4308799"><ele>4.333333333333333</ele><time>2026-04-17T15:59:37.184Z</time></trkpt><trkpt lat="45.8059587" lon="13.430671"><ele>4.0</ele><time>2026-04-17T15:59:38.183Z</time></trkpt><trkpt lat="45.8059098" lon="13.4304842"><ele>4.0</ele><time>2026-04-17T15:59:39.184Z</time></trkpt><trkpt lat="45.8058549" lon="13.4303023"><ele>4.0</ele><time>2026-04-17T15:59:40.183Z</time></trkpt><trkpt lat="45.8058044" lon="13.4301187"><ele>4.0</ele><time>2026-04-17T15:59:41.184Z</time></trkpt><trkpt lat="45.8057476" lon="13.4299306"><ele>4.0</ele><time>2026-04-17T15:59:42.184Z</time></trkpt><trkpt lat="45.8056962" lon="13.4297552"><ele>3.75</ele><time>2026-04-17T15:59:43.184Z</time></trkpt><trkpt lat="45.8056444" lon="13.429577"><ele>3.5</ele><time>2026-04-17T15:59:44.184Z</time></trkpt><trkpt lat="45.805593" lon="13.4293827"><ele>3.25</ele><time>2026-04-17T15:59:45.183Z</time></trkpt><trkpt lat="45.8055371" lon="13.4291931"><ele>3.0</ele><time>2026-04-17T15:59:46.184Z</time></trkpt><trkpt lat="45.8054774" lon="13.4290076"><ele>3.0</ele><time>2026-04-17T15:59:47.184Z</time></trkpt><trkpt lat="45.8054271" lon="13.4288222"><ele>3.0</ele><time>2026-04-17T15:59:48.184Z</time></trkpt><trkpt lat="45.805376" lon="13.4286354"><ele>3.0</ele><time>2026-04-17T15:59:49.183Z</time></trkpt><trkpt lat="45.8053213" lon="13.428439"><ele>3.0</ele><time>2026-04-17T15:59:50.184Z</time></trkpt><trkpt lat="45.805261" lon="13.4282421"><ele>4.25</ele><time>2026-04-17T15:59:51.184Z</time></trkpt><trkpt lat="45.8052052" lon="13.4280454"><ele>5.5</ele><time>2026-04-17T15:59:52.184Z</time></trkpt><trkpt lat="45.8051515" lon="13.4278473"><ele>6.75</ele><time>2026-04-17T15:59:53.184Z</time></trkpt><trkpt lat="45.8050948" lon="13.4276546"><ele>8.0</ele><time>2026-04-17T15:59:54.184Z</time></trkpt><trkpt lat="45.8050424" lon="13.4274755"><ele>8.5</ele><time>2026-04-17T15:59:55.183Z</time></trkpt><trkpt lat="45.8049919" lon="13.4273027"><ele>9.0</ele><time>2026-04-17T15:59:56.184Z</time></trkpt><trkpt lat="45.8049513" lon="13.4271392"><ele>9.5</ele><time>2026-04-17T15:59:57.183Z</time></trkpt><trkpt lat="45.804916" lon="13.4269736"><ele>10.0</ele><time>2026-04-17T15:59:58.183Z</time></trkpt><trkpt lat="45.8048858" lon="13.4268115"><ele>10.0</ele><time>2026-04-17T15:59:59.184Z</time></trkpt><trkpt lat="45.8048653" lon="13.4266499"><ele>10.0</ele><time>2026-04-17T16:00:00.183Z</time></trkpt><trkpt lat="45.8048487" lon="13.4264899"><ele>10.0</ele><time>2026-04-17T16:00:01.184Z</time></trkpt><trkpt lat="45.8048386" lon="13.4263386"><ele>10.0</ele><time>2026-04-17T16:00:02.183Z</time></trkpt><trkpt lat="45.8048338" lon="13.4261923"><ele>10.0</ele><time>2026-04-17T16:00:03.183Z</time></trkpt><trkpt lat="45.8048342" lon="13.4260442"><ele>9.5</ele><time>2026-04-17T16:00:04.183Z</time></trkpt><trkpt lat="45.8048436" lon="13.4258985"><ele>9.0</ele><time>2026-04-17T16:00:05.184Z</time></trkpt><trkpt lat="45.8048495" lon="13.4257678"><ele>8.5</ele><time>2026-04-17T16:00:06.184Z</time></trkpt><trkpt lat="45.8048576" lon="13.4256462"><ele>8.0</ele><time>2026-04-17T16:00:07.183Z</time></trkpt><trkpt lat="45.8048731" lon="13.4255539"><ele>7.500000000000001</ele><time>2026-04-17T16:00:08.184Z</time></trkpt><trkpt lat="45.804953" lon="13.4254565"><ele>7.0</ele><time>2026-04-17T16:00:10.184Z</time></trkpt><trkpt lat="45.8050416" lon="13.4254517"><ele>6.75</ele><time>2026-04-17T16:00:11.184Z</time></trkpt><trkpt lat="45.805151" lon="13.4254702"><ele>6.5</ele><time>2026-04-17T16:00:12.183Z</time></trkpt><trkpt lat="45.8052696" lon="13.4255088"><ele>6.25</ele><time>2026-04-17T16:00:13.184Z</time></trkpt><trkpt lat="45.8054031" lon="13.4255522"><ele>6.0</ele><time>2026-04-17T16:00:14.184Z</time></trkpt><trkpt lat="45.8055302" lon="13.4255874"><ele>6.0</ele><time>2026-04-17T16:00:15.184Z</time></trkpt><trkpt lat="45.8056332" lon="13.425617"><ele>6.0</ele><time>2026-04-17T16:00:16.184Z</time></trkpt><trkpt lat="45.8057262" lon="13.4256174"><ele>6.0</ele><time>2026-04-17T16:00:17.184Z</time></trkpt><trkpt lat="45.8058079" lon="13.4255829"><ele>6.0</ele><time>2026-04-17T16:00:18.183Z</time></trkpt><trkpt lat="45.8058954" lon="13.4255006"><ele>6.0</ele><time>2026-04-17T16:00:19.183Z</time></trkpt><trkpt lat="45.8059886" lon="13.4253881"><ele>5.8</ele><time>2026-04-17T16:00:20.184Z</time></trkpt><trkpt lat="45.8060562" lon="13.4252784"><ele>5.6</ele><time>2026-04-17T16:00:21.184Z</time></trkpt><trkpt lat="45.8061102" lon="13.4251956"><ele>5.4</ele><time>2026-04-17T16:00:22.184Z</time></trkpt><trkpt lat="45.8062049" lon="13.4251297"><ele>5.2</ele><time>2026-04-17T16:00:24.184Z</time></trkpt><trkpt lat="45.8062768" lon="13.4252214"><ele>5.0</ele><time>2026-04-17T16:00:26.184Z</time></trkpt><trkpt lat="45.8063218" lon="13.4253395"><ele>5.25</ele><time>2026-04-17T16:00:27.184Z</time></trkpt><trkpt lat="45.8063746" lon="13.4254832"><ele>5.5</ele><time>2026-04-17T16:00:28.183Z</time></trkpt><trkpt lat="45.8064499" lon="13.4256514"><ele>5.75</ele><time>2026-04-17T16:00:29.184Z</time></trkpt><trkpt lat="45.8065403" lon="13.4258334"><ele>6.0</ele><time>2026-04-17T16:00:30.184Z</time></trkpt><trkpt lat="45.8066253" lon="13.4260039"><ele>6.0</ele><time>2026-04-17T16:00:31.184Z</time></trkpt><trkpt lat="45.8067075" lon="13.4261397"><ele>6.0</ele><time>2026-04-17T16:00:32.184Z</time></trkpt><trkpt lat="45.8067671" lon="13.4262418"><ele>6.0</ele><time>2026-04-17T16:00:33.184Z</time></trkpt><trkpt lat="45.8068212" lon="13.4263036"><ele>6.0</ele><time>2026-04-17T16:00:34.184Z</time></trkpt><trkpt lat="45.8068845" lon="13.4263286"><ele>6.0</ele><time>2026-04-17T16:00:35.183Z</time></trkpt><trkpt lat="45.8069522" lon="13.4263084"><ele>6.0</ele><time>2026-04-17T16:00:36.183Z</time></trkpt><trkpt lat="45.8070354" lon="13.4262326"><ele>6.333333333333334</ele><time>2026-04-17T16:00:37.184Z</time></trkpt><trkpt lat="45.8071443" lon="13.426118"><ele>6.666666666666667</ele><time>2026-04-17T16:00:38.184Z</time></trkpt><trkpt lat="45.807288" lon="13.4259863"><ele>7.0</ele><time>2026-04-17T16:00:39.184Z</time></trkpt><trkpt lat="45.8074467" lon="13.4258578"><ele>7.0</ele><time>2026-04-17T16:00:40.183Z</time></trkpt><trkpt lat="45.8075977" lon="13.4257397"><ele>7.0</ele><time>2026-04-17T16:00:41.184Z</time></trkpt><trkpt lat="45.8077229" lon="13.4256364"><ele>7.0</ele><time>2026-04-17T16:00:42.183Z</time></trkpt><trkpt lat="45.8078333" lon="13.4255445"><ele>7.0</ele><time>2026-04-17T16:00:43.184Z</time></trkpt><trkpt lat="45.8079204" lon="13.4254792"><ele>7.0</ele><time>2026-04-17T16:00:44.184Z</time></trkpt><trkpt lat="45.8079812" lon="13.4254175"><ele>6.999999999999999</ele><time>2026-04-17T16:00:45.184Z</time></trkpt><trkpt lat="45.8080345" lon="13.4252899"><ele>6.999999999999999</ele><time>2026-04-17T16:00:47.183Z</time></trkpt><trkpt lat="45.8080316" lon="13.4251856"><ele>7.0</ele><time>2026-04-17T16:00:48.183Z</time></trkpt><trkpt lat="45.8080136" lon="13.4250516"><ele>7.0</ele><time>2026-04-17T16:00:49.183Z</time></trkpt><trkpt lat="45.8079894" lon="13.4248854"><ele>7.0</ele><time>2026-04-17T16:00:50.184Z</time></trkpt><trkpt lat="45.8079679" lon="13.4246896"><ele>7.0</ele><time>2026-04-17T16:00:51.184Z</time></trkpt><trkpt lat="45.8079466" lon="13.4244979"><ele>7.0</ele><time>2026-04-17T16:00:52.184Z</time></trkpt><trkpt lat="45.8079259" lon="13.4243397"><ele>7.0</ele><time>2026-04-17T16:00:53.183Z</time></trkpt><trkpt lat="45.8079164" lon="13.4242296"><ele>7.000000000000001</ele><time>2026-04-17T16:00:54.184Z</time></trkpt><trkpt lat="45.8079207" lon="13.4241189"><ele>7.0</ele><time>2026-04-17T16:00:56.184Z</time></trkpt><trkpt lat="45.8079837" lon="13.4241101"><ele>7.0</ele><time>2026-04-17T16:00:58.183Z</time></trkpt><trkpt lat="45.8080815" lon="13.4240875"><ele>7.0</ele><time>2026-04-17T16:01:00.183Z</time></trkpt><trkpt lat="45.8081556" lon="13.4240848"><ele>7.000000000000001</ele><time>2026-04-17T16:01:01.184Z</time></trkpt><trkpt lat="45.8082332" lon="13.4240877"><ele>7.0</ele><time>2026-04-17T16:01:02.183Z</time></trkpt><trkpt lat="45.8083183" lon="13.4240851"><ele>7.0</ele><time>2026-04-17T16:01:03.184Z</time></trkpt><trkpt lat="45.8084198" lon="13.4240804"><ele>6.999999999999999</ele><time>2026-04-17T16:01:04.184Z</time></trkpt><trkpt lat="45.8085288" lon="13.4240663"><ele>6.999999999999999</ele><time>2026-04-17T16:01:05.183Z</time></trkpt><trkpt lat="45.8086351" lon="13.4240513"><ele>7.0</ele><time>2026-04-17T16:01:06.183Z</time></trkpt><trkpt lat="45.8087275" lon="13.4240294"><ele>7.0</ele><time>2026-04-17T16:01:07.184Z</time></trkpt><trkpt lat="45.8088004" lon="13.4239985"><ele>7.166666666666667</ele><time>2026-04-17T16:01:08.184Z</time></trkpt><trkpt lat="45.8088612" lon="13.4239704"><ele>7.333333333333334</ele><time>2026-04-17T16:01:09.183Z</time></trkpt><trkpt lat="45.8089537" lon="13.4239474"><ele>7.5</ele><time>2026-04-17T16:01:11.184Z</time></trkpt><trkpt lat="45.8090657" lon="13.4239569"><ele>7.666666666666666</ele><time>2026-04-17T16:01:13.184Z</time></trkpt><trkpt lat="45.8091308" lon="13.4239355"><ele>7.833333333333333</ele><time>2026-04-17T16:01:14.183Z</time></trkpt><trkpt lat="45.8092356" lon="13.4238884"><ele>8.0</ele><time>2026-04-17T16:01:16.184Z</time></trkpt><trkpt lat="45.8093448" lon="13.4239284"><ele>8.200000000000001</ele><time>2026-04-17T16:01:18.183Z</time></trkpt><trkpt lat="45.809424" lon="13.4239893"><ele>8.4</ele><time>2026-04-17T16:01:19.183Z</time></trkpt><trkpt lat="45.8095143" lon="13.4240585"><ele>8.600000000000001</ele><time>2026-04-17T16:01:20.184Z</time></trkpt><trkpt lat="45.8096095" lon="13.4241169"><ele>8.8</ele><time>2026-04-17T16:01:21.183Z</time></trkpt><trkpt lat="45.8096902" lon="13.424166"><ele>9.0</ele><time>2026-04-17T16:01:22.183Z</time></trkpt><trkpt lat="45.809759" lon="13.4241969"><ele>9.0</ele><time>2026-04-17T16:01:23.184Z</time></trkpt><trkpt lat="45.8098509" lon="13.4242216"><ele>9.0</ele><time>2026-04-17T16:01:25.183Z</time></trkpt><trkpt lat="45.8099214" lon="13.4242118"><ele>9.0</ele><time>2026-04-17T16:01:27.184Z</time></trkpt><trkpt lat="45.8100495" lon="13.4241637"><ele>9.0</ele><time>2026-04-17T16:01:29.183Z</time></trkpt><trkpt lat="45.8101522" lon="13.4241134"><ele>9.0</ele><time>2026-04-17T16:01:30.184Z</time></trkpt><trkpt lat="45.8102744" lon="13.4240441"><ele>8.333333333333334</ele><time>2026-04-17T16:01:31.184Z</time></trkpt><trkpt lat="45.8104098" lon="13.4239536"><ele>7.666666666666667</ele><time>2026-04-17T16:01:32.183Z</time></trkpt><trkpt lat="45.810548" lon="13.4238579"><ele>7.0</ele><time>2026-04-17T16:01:33.184Z</time></trkpt><trkpt lat="45.8106891" lon="13.4237499"><ele>7.0</ele><time>2026-04-17T16:01:34.184Z</time></trkpt><trkpt lat="45.8108229" lon="13.423639"><ele>7.0</ele><time>2026-04-17T16:01:35.184Z</time></trkpt><trkpt lat="45.8109555" lon="13.4235362"><ele>7.0</ele><time>2026-04-17T16:01:36.183Z</time></trkpt><trkpt lat="45.8110799" lon="13.4234347"><ele>7.0</ele><time>2026-04-17T16:01:37.183Z</time></trkpt><trkpt lat="45.8112046" lon="13.4233388"><ele>7.0</ele><time>2026-04-17T16:01:38.183Z</time></trkpt><trkpt lat="45.8113318" lon="13.4232472"><ele>7.0</ele><time>2026-04-17T16:01:39.184Z</time></trkpt><trkpt lat="45.8114609" lon="13.4231588"><ele>7.0</ele><time>2026-04-17T16:01:40.184Z</time></trkpt><trkpt lat="45.8115927" lon="13.4230601"><ele>7.0</ele><time>2026-04-17T16:01:41.184Z</time></trkpt><trkpt lat="45.8117302" lon="13.4229623"><ele>7.0</ele><time>2026-04-17T16:01:42.183Z</time></trkpt><trkpt lat="45.8118675" lon="13.4228706"><ele>7.0</ele><time>2026-04-17T16:01:43.184Z</time></trkpt><trkpt lat="45.8119987" lon="13.4227733"><ele>7.0</ele><time>2026-04-17T16:01:44.184Z</time></trkpt><trkpt lat="45.812131" lon="13.422675"><ele>7.0</ele><time>2026-04-17T16:01:45.184Z</time></trkpt><trkpt lat="45.8122568" lon="13.4225784"><ele>7.0</ele><time>2026-04-17T16:01:46.184Z</time></trkpt><trkpt lat="45.8123753" lon="13.4224841"><ele>7.0</ele><time>2026-04-17T16:01:47.184Z</time></trkpt><trkpt lat="45.8124906" lon="13.4223928"><ele>7.0</ele><time>2026-04-17T16:01:48.183Z</time></trkpt><trkpt lat="45.8126141" lon="13.4222997"><ele>7.0</ele><time>2026-04-17T16:01:49.184Z</time></trkpt><trkpt lat="45.8127322" lon="13.4222124"><ele>7.75</ele><time>2026-04-17T16:01:50.184Z</time></trkpt><trkpt lat="45.8128545" lon="13.4221193"><ele>8.5</ele><time>2026-04-17T16:01:51.183Z</time></trkpt><trkpt lat="45.8129793" lon="13.4220239"><ele>9.25</ele><time>2026-04-17T16:01:52.184Z</time></trkpt><trkpt lat="45.8130967" lon="13.4219301"><ele>10.0</ele><time>2026-04-17T16:01:53.184Z</time></trkpt><trkpt lat="45.8132133" lon="13.4218466"><ele>10.0</ele><time>2026-04-17T16:01:54.184Z</time></trkpt><trkpt lat="45.8133274" lon="13.4217718"><ele>10.0</ele><time>2026-04-17T16:01:55.184Z</time></trkpt><trkpt lat="45.8134395" lon="13.4216934"><ele>10.0</ele><time>2026-04-17T16:01:56.183Z</time></trkpt><trkpt lat="45.8135525" lon="13.4216111"><ele>10.0</ele><time>2026-04-17T16:01:57.183Z</time></trkpt><trkpt lat="45.8136626" lon="13.4215337"><ele>9.75</ele><time>2026-04-17T16:01:58.184Z</time></trkpt><trkpt lat="45.8137721" lon="13.42145"><ele>9.5</ele><time>2026-04-17T16:01:59.184Z</time></trkpt><trkpt lat="45.813885" lon="13.4213655"><ele>9.25</ele><time>2026-04-17T16:02:00.184Z</time></trkpt><trkpt lat="45.8140058" lon="13.4212765"><ele>9.0</ele><time>2026-04-17T16:02:01.184Z</time></trkpt><trkpt lat="45.8141217" lon="13.4211951"><ele>8.75</ele><time>2026-04-17T16:02:02.183Z</time></trkpt><trkpt lat="45.8142422" lon="13.4211093"><ele>8.5</ele><time>2026-04-17T16:02:03.184Z</time></trkpt><trkpt lat="45.8143691" lon="13.4210107"><ele>8.25</ele><time>2026-04-17T16:02:04.183Z</time></trkpt><trkpt lat="45.8144948" lon="13.4209214"><ele>8.0</ele><time>2026-04-17T16:02:05.183Z</time></trkpt><trkpt lat="45.8146273" lon="13.4208233"><ele>9.0</ele><time>2026-04-17T16:02:06.184Z</time></trkpt><trkpt lat="45.8147689" lon="13.4207186"><ele>10.0</ele><time>2026-04-17T16:02:07.184Z</time></trkpt><trkpt lat="45.8149039" lon="13.4206189"><ele>11.0</ele><time>2026-04-17T16:02:08.183Z</time></trkpt><trkpt lat="45.8150391" lon="13.4205252"><ele>9.666666666666666</ele><time>2026-04-17T16:02:09.183Z</time></trkpt><trkpt lat="45.8151718" lon="13.4204155"><ele>8.333333333333334</ele><time>2026-04-17T16:02:10.184Z</time></trkpt><trkpt lat="45.8153097" lon="13.4203167"><ele>7.0</ele><time>2026-04-17T16:02:11.184Z</time></trkpt><trkpt lat="45.8154416" lon="13.4202159"><ele>7.0</ele><time>2026-04-17T16:02:12.183Z</time></trkpt><trkpt lat="45.8155773" lon="13.4201264"><ele>7.0</ele><time>2026-04-17T16:02:13.184Z</time></trkpt><trkpt lat="45.8157105" lon="13.420031"><ele>7.0</ele><time>2026-04-17T16:02:14.184Z</time></trkpt><trkpt lat="45.8158514" lon="13.4199299"><ele>6.666666666666667</ele><time>2026-04-17T16:02:15.184Z</time></trkpt><trkpt lat="45.8160082" lon="13.4198092"><ele>6.333333333333334</ele><time>2026-04-17T16:02:16.184Z</time></trkpt><trkpt lat="45.8161644" lon="13.4196939"><ele>6.0</ele><time>2026-04-17T16:02:17.184Z</time></trkpt><trkpt lat="45.8163248" lon="13.4195754"><ele>5.666666666666667</ele><time>2026-04-17T16:02:18.184Z</time></trkpt><trkpt lat="45.8164897" lon="13.4194538"><ele>5.333333333333334</ele><time>2026-04-17T16:02:19.184Z</time></trkpt><trkpt lat="45.8166666" lon="13.4193358"><ele>5.0</ele><time>2026-04-17T16:02:20.184Z</time></trkpt><trkpt lat="45.8168402" lon="13.4192175"><ele>7.0</ele><time>2026-04-17T16:02:21.184Z</time></trkpt><trkpt lat="45.8170186" lon="13.4191023"><ele>9.0</ele><time>2026-04-17T16:02:22.184Z</time></trkpt><trkpt lat="45.8171725" lon="13.4189912"><ele>11.0</ele><time>2026-04-17T16:02:23.183Z</time></trkpt><trkpt lat="45.8173001" lon="13.4189004"><ele>10.600000000000001</ele><time>2026-04-17T16:02:24.184Z</time></trkpt><trkpt lat="45.8174059" lon="13.4188126"><ele>10.200000000000001</ele><time>2026-04-17T16:02:25.184Z</time></trkpt><trkpt lat="45.8174983" lon="13.4187236"><ele>9.8</ele><time>2026-04-17T16:02:26.183Z</time></trkpt><trkpt lat="45.8175707" lon="13.4186322"><ele>9.4</ele><time>2026-04-17T16:02:27.183Z</time></trkpt><trkpt lat="45.8176273" lon="13.4185537"><ele>9.0</ele><time>2026-04-17T16:02:28.184Z</time></trkpt><trkpt lat="45.8176804" lon="13.4184744"><ele>8.857142857142858</ele><time>2026-04-17T16:02:29.184Z</time></trkpt><trkpt lat="45.8177327" lon="13.4184002"><ele>8.714285714285715</ele><time>2026-04-17T16:02:30.183Z</time></trkpt><trkpt lat="45.8177809" lon="13.4183407"><ele>8.571428571428571</ele><time>2026-04-17T16:02:31.184Z</time></trkpt><trkpt lat="45.8178363" lon="13.418296"><ele>8.428571428571429</ele><time>2026-04-17T16:02:32.184Z</time></trkpt><trkpt lat="45.8178977" lon="13.4182513"><ele>8.285714285714285</ele><time>2026-04-17T16:02:33.184Z</time></trkpt><trkpt lat="45.8179589" lon="13.4181989"><ele>8.142857142857142</ele><time>2026-04-17T16:02:34.184Z</time></trkpt><trkpt lat="45.8180218" lon="13.4181561"><ele>8.0</ele><time>2026-04-17T16:02:35.184Z</time></trkpt><trkpt lat="45.8180864" lon="13.4181139"><ele>7.999999999999999</ele><time>2026-04-17T16:02:36.183Z</time></trkpt><trkpt lat="45.818144" lon="13.4180772"><ele>8.0</ele><time>2026-04-17T16:02:37.184Z</time></trkpt><trkpt lat="45.8182349" lon="13.4180176"><ele>8.0</ele><time>2026-04-17T16:02:39.184Z</time></trkpt><trkpt lat="45.8183022" lon="13.4179803"><ele>8.0</ele><time>2026-04-17T16:02:41.184Z</time></trkpt><trkpt lat="45.8183684" lon="13.4179676"><ele>7.999999999999999</ele><time>2026-04-17T16:02:43.184Z</time></trkpt><trkpt lat="45.8184656" lon="13.4179227"><ele>8.0</ele><time>2026-04-17T16:02:45.183Z</time></trkpt><trkpt lat="45.8185253" lon="13.4178829"><ele>7.999999999999999</ele><time>2026-04-17T16:02:46.183Z</time></trkpt><trkpt lat="45.8185885" lon="13.4178424"><ele>8.0</ele><time>2026-04-17T16:02:47.184Z</time></trkpt><trkpt lat="45.8186588" lon="13.4178062"><ele>8.0</ele><time>2026-04-17T16:02:48.184Z</time></trkpt><trkpt lat="45.8187369" lon="13.4177639"><ele>8.0</ele><time>2026-04-17T16:02:49.184Z</time></trkpt><trkpt lat="45.818816" lon="13.4177176"><ele>7.999999999999999</ele><time>2026-04-17T16:02:50.184Z</time></trkpt><trkpt lat="45.8189007" lon="13.417666"><ele>8.0</ele><time>2026-04-17T16:02:51.184Z</time></trkpt><trkpt lat="45.8189896" lon="13.4176137"><ele>8.0</ele><time>2026-04-17T16:02:52.184Z</time></trkpt><trkpt lat="45.819085" lon="13.417556"><ele>8.0</ele><time>2026-04-17T16:02:53.183Z</time></trkpt><trkpt lat="45.8191922" lon="13.4174906"><ele>8.0</ele><time>2026-04-17T16:02:54.184Z</time></trkpt><trkpt lat="45.8193016" lon="13.417425"><ele>8.0</ele><time>2026-04-17T16:02:55.183Z</time></trkpt><trkpt lat="45.8194206" lon="13.4173562"><ele>7.75</ele><time>2026-04-17T16:02:56.184Z</time></trkpt><trkpt lat="45.8195471" lon="13.4172783"><ele>7.5</ele><time>2026-04-17T16:02:57.184Z</time></trkpt><trkpt lat="45.8196837" lon="13.4172038"><ele>7.25</ele><time>2026-04-17T16:02:58.184Z</time></trkpt><trkpt lat="45.819836" lon="13.4171204"><ele>7.0</ele><time>2026-04-17T16:02:59.184Z</time></trkpt><trkpt lat="45.8199919" lon="13.4170363"><ele>8.0</ele><time>2026-04-17T16:03:00.184Z</time></trkpt><trkpt lat="45.8201622" lon="13.4169487"><ele>9.0</ele><time>2026-04-17T16:03:01.184Z</time></trkpt><trkpt lat="45.8203346" lon="13.4168699"><ele>10.0</ele><time>2026-04-17T16:03:02.183Z</time></trkpt><trkpt lat="45.8205076" lon="13.4167753"><ele>10.0</ele><time>2026-04-17T16:03:03.183Z</time></trkpt><trkpt lat="45.8206813" lon="13.4166801"><ele>10.0</ele><time>2026-04-17T16:03:04.184Z</time></trkpt><trkpt lat="45.8208493" lon="13.4165869"><ele>10.0</ele><time>2026-04-17T16:03:05.184Z</time></trkpt><trkpt lat="45.8210094" lon="13.4164929"><ele>10.0</ele><time>2026-04-17T16:03:06.183Z</time></trkpt><trkpt lat="45.8211713" lon="13.416407"><ele>10.0</ele><time>2026-04-17T16:03:07.183Z</time></trkpt><trkpt lat="45.8213401" lon="13.4163163"><ele>10.0</ele><time>2026-04-17T16:03:08.183Z</time></trkpt><trkpt lat="45.8214972" lon="13.4162178"><ele>9.75</ele><time>2026-04-17T16:03:09.183Z</time></trkpt><trkpt lat="45.8216458" lon="13.4161271"><ele>9.5</ele><time>2026-04-17T16:03:10.183Z</time></trkpt><trkpt lat="45.8217799" lon="13.4160506"><ele>9.25</ele><time>2026-04-17T16:03:11.182Z</time></trkpt><trkpt lat="45.8218946" lon="13.4159952"><ele>9.0</ele><time>2026-04-17T16:03:12.183Z</time></trkpt><trkpt lat="45.8219992" lon="13.4159464"><ele>9.0</ele><time>2026-04-17T16:03:13.183Z</time></trkpt><trkpt lat="45.8221038" lon="13.4158929"><ele>9.0</ele><time>2026-04-17T16:03:14.182Z</time></trkpt><trkpt lat="45.8222025" lon="13.4158487"><ele>9.0</ele><time>2026-04-17T16:03:15.183Z</time></trkpt><trkpt lat="45.8222894" lon="13.4158046"><ele>9.0</ele><time>2026-04-17T16:03:16.183Z</time></trkpt><trkpt lat="45.8223927" lon="13.4157482"><ele>9.0</ele><time>2026-04-17T16:03:17.182Z</time></trkpt><trkpt lat="45.822512" lon="13.4156804"><ele>9.0</ele><time>2026-04-17T16:03:18.183Z</time></trkpt><trkpt lat="45.8226418" lon="13.4156174"><ele>9.0</ele><time>2026-04-17T16:03:19.183Z</time></trkpt><trkpt lat="45.8227769" lon="13.4155426"><ele>9.0</ele><time>2026-04-17T16:03:20.182Z</time></trkpt><trkpt lat="45.8229293" lon="13.4154651"><ele>9.0</ele><time>2026-04-17T16:03:21.182Z</time></trkpt><trkpt lat="45.8230908" lon="13.4154041"><ele>8.666666666666666</ele><time>2026-04-17T16:03:22.182Z</time></trkpt><trkpt lat="45.8232479" lon="13.4153421"><ele>8.333333333333332</ele><time>2026-04-17T16:03:23.183Z</time></trkpt><trkpt lat="45.8234143" lon="13.4152778"><ele>8.0</ele><time>2026-04-17T16:03:24.182Z</time></trkpt><trkpt lat="45.8235808" lon="13.4152208"><ele>8.0</ele><time>2026-04-17T16:03:25.183Z</time></trkpt><trkpt lat="45.8237536" lon="13.4151581"><ele>8.0</ele><time>2026-04-17T16:03:26.182Z</time></trkpt><trkpt lat="45.8239229" lon="13.4150963"><ele>8.0</ele><time>2026-04-17T16:03:27.183Z</time></trkpt><trkpt lat="45.8240945" lon="13.415033"><ele>8.0</ele><time>2026-04-17T16:03:28.182Z</time></trkpt><trkpt lat="45.8242607" lon="13.4149619"><ele>8.0</ele><time>2026-04-17T16:03:29.183Z</time></trkpt><trkpt lat="45.8244313" lon="13.4148953"><ele>8.0</ele><time>2026-04-17T16:03:30.183Z</time></trkpt><trkpt lat="45.8246013" lon="13.4148301"><ele>8.333333333333332</ele><time>2026-04-17T16:03:31.183Z</time></trkpt><trkpt lat="45.8247726" lon="13.414763"><ele>8.666666666666666</ele><time>2026-04-17T16:03:32.182Z</time></trkpt><trkpt lat="45.8249441" lon="13.4147012"><ele>9.0</ele><time>2026-04-17T16:03:33.183Z</time></trkpt><trkpt lat="45.8251133" lon="13.4146429"><ele>8.333333333333334</ele><time>2026-04-17T16:03:34.183Z</time></trkpt><trkpt lat="45.8252804" lon="13.4145866"><ele>7.666666666666667</ele><time>2026-04-17T16:03:35.183Z</time></trkpt><trkpt lat="45.8254498" lon="13.4145245"><ele>7.0</ele><time>2026-04-17T16:03:36.183Z</time></trkpt><trkpt lat="45.8256226" lon="13.4144656"><ele>7.0</ele><time>2026-04-17T16:03:37.183Z</time></trkpt><trkpt lat="45.8257931" lon="13.4144001"><ele>7.0</ele><time>2026-04-17T16:03:38.182Z</time></trkpt><trkpt lat="45.8259657" lon="13.4143351"><ele>7.0</ele><time>2026-04-17T16:03:39.183Z</time></trkpt><trkpt lat="45.8261259" lon="13.4142668"><ele>7.25</ele><time>2026-04-17T16:03:40.183Z</time></trkpt><trkpt lat="45.826269" lon="13.4142167"><ele>7.5</ele><time>2026-04-17T16:03:41.183Z</time></trkpt><trkpt lat="45.8263963" lon="13.4141639"><ele>7.75</ele><time>2026-04-17T16:03:42.182Z</time></trkpt><trkpt lat="45.8265112" lon="13.4141274"><ele>8.0</ele><time>2026-04-17T16:03:43.183Z</time></trkpt><trkpt lat="45.8266215" lon="13.4140873"><ele>7.999999999999999</ele><time>2026-04-17T16:03:44.183Z</time></trkpt><trkpt lat="45.8267101" lon="13.4140505"><ele>8.0</ele><time>2026-04-17T16:03:45.182Z</time></trkpt><trkpt lat="45.8267801" lon="13.414013"><ele>8.0</ele><time>2026-04-17T16:03:46.183Z</time></trkpt><trkpt lat="45.8268485" lon="13.4139287"><ele>8.0</ele><time>2026-04-17T16:03:48.183Z</time></trkpt><trkpt lat="45.8269139" lon="13.4139258"><ele>7.999999999999999</ele><time>2026-04-17T16:03:51.183Z</time></trkpt><trkpt lat="45.8270284" lon="13.4139737"><ele>8.0</ele><time>2026-04-17T16:03:53.183Z</time></trkpt><trkpt lat="45.8271228" lon="13.413981"><ele>8.0</ele><time>2026-04-17T16:03:54.183Z</time></trkpt><trkpt lat="45.8272504" lon="13.4139781"><ele>8.0</ele><time>2026-04-17T16:03:55.182Z</time></trkpt><trkpt lat="45.8273979" lon="13.413968"><ele>8.0</ele><time>2026-04-17T16:03:56.182Z</time></trkpt><trkpt lat="45.8275649" lon="13.4139621"><ele>8.0</ele><time>2026-04-17T16:03:57.183Z</time></trkpt><trkpt lat="45.8277327" lon="13.4139612"><ele>8.0</ele><time>2026-04-17T16:03:58.182Z</time></trkpt><trkpt lat="45.827913" lon="13.4139603"><ele>8.0</ele><time>2026-04-17T16:03:59.183Z</time></trkpt><trkpt lat="45.8281033" lon="13.4139593"><ele>8.0</ele><time>2026-04-17T16:04:00.183Z</time></trkpt><trkpt lat="45.8283008" lon="13.413964"><ele>8.333333333333332</ele><time>2026-04-17T16:04:01.183Z</time></trkpt><trkpt lat="45.8285082" lon="13.4139584"><ele>8.666666666666666</ele><time>2026-04-17T16:04:02.182Z</time></trkpt><trkpt lat="45.8287084" lon="13.4139612"><ele>9.0</ele><time>2026-04-17T16:04:03.183Z</time></trkpt><trkpt lat="45.8289064" lon="13.4139609"><ele>9.0</ele><time>2026-04-17T16:04:04.183Z</time></trkpt><trkpt lat="45.8291017" lon="13.4139643"><ele>9.0</ele><time>2026-04-17T16:04:05.183Z</time></trkpt><trkpt lat="45.8292946" lon="13.4139635"><ele>9.0</ele><time>2026-04-17T16:04:06.182Z</time></trkpt><trkpt lat="45.8294926" lon="13.413957"><ele>8.666666666666666</ele><time>2026-04-17T16:04:07.183Z</time></trkpt><trkpt lat="45.8296735" lon="13.4139588"><ele>8.333333333333332</ele><time>2026-04-17T16:04:08.183Z</time></trkpt><trkpt lat="45.8298469" lon="13.4139598"><ele>8.0</ele><time>2026-04-17T16:04:09.183Z</time></trkpt><trkpt lat="45.8300099" lon="13.4139762"><ele>8.333333333333332</ele><time>2026-04-17T16:04:10.183Z</time></trkpt><trkpt lat="45.8301787" lon="13.413978"><ele>8.666666666666666</ele><time>2026-04-17T16:04:11.183Z</time></trkpt><trkpt lat="45.8303443" lon="13.4139803"><ele>9.0</ele><time>2026-04-17T16:04:12.183Z</time></trkpt><trkpt lat="45.8305014" lon="13.4139773"><ele>9.0</ele><time>2026-04-17T16:04:13.183Z</time></trkpt><trkpt lat="45.8306659" lon="13.413972"><ele>9.0</ele><time>2026-04-17T16:04:14.183Z</time></trkpt><trkpt lat="45.8308263" lon="13.4139725"><ele>9.0</ele><time>2026-04-17T16:04:15.183Z</time></trkpt><trkpt lat="45.8309682" lon="13.4139712"><ele>8.75</ele><time>2026-04-17T16:04:16.183Z</time></trkpt><trkpt lat="45.8310998" lon="13.4139758"><ele>8.5</ele><time>2026-04-17T16:04:17.183Z</time></trkpt><trkpt lat="45.8312275" lon="13.4139774"><ele>8.25</ele><time>2026-04-17T16:04:18.183Z</time></trkpt><trkpt lat="45.8313495" lon="13.413988"><ele>8.0</ele><time>2026-04-17T16:04:19.183Z</time></trkpt><trkpt lat="45.8314702" lon="13.4140099"><ele>8.0</ele><time>2026-04-17T16:04:20.182Z</time></trkpt><trkpt lat="45.8315801" lon="13.4140452"><ele>8.0</ele><time>2026-04-17T16:04:21.183Z</time></trkpt><trkpt lat="45.8316981" lon="13.4140843"><ele>8.0</ele><time>2026-04-17T16:04:22.183Z</time></trkpt><trkpt lat="45.8318334" lon="13.4141269"><ele>8.0</ele><time>2026-04-17T16:04:23.183Z</time></trkpt><trkpt lat="45.8319844" lon="13.4141789"><ele>8.0</ele><time>2026-04-17T16:04:24.182Z</time></trkpt><trkpt lat="45.8321393" lon="13.4142494"><ele>8.0</ele><time>2026-04-17T16:04:25.182Z</time></trkpt><trkpt lat="45.8322923" lon="13.4143218"><ele>8.0</ele><time>2026-04-17T16:04:26.182Z</time></trkpt><trkpt lat="45.8324562" lon="13.4143974"><ele>8.0</ele><time>2026-04-17T16:04:27.182Z</time></trkpt><trkpt lat="45.8326196" lon="13.4144711"><ele>8.0</ele><time>2026-04-17T16:04:28.183Z</time></trkpt><trkpt lat="45.8327877" lon="13.4145406"><ele>8.0</ele><time>2026-04-17T16:04:29.183Z</time></trkpt><trkpt lat="45.8329619" lon="13.4146042"><ele>8.0</ele><time>2026-04-17T16:04:30.183Z</time></trkpt><trkpt lat="45.8331314" lon="13.4146726"><ele>8.0</ele><time>2026-04-17T16:04:31.182Z</time></trkpt><trkpt lat="45.8333017" lon="13.4147383"><ele>8.0</ele><time>2026-04-17T16:04:32.183Z</time></trkpt><trkpt lat="45.8334772" lon="13.4148111"><ele>8.0</ele><time>2026-04-17T16:04:33.183Z</time></trkpt><trkpt lat="45.8336416" lon="13.4148868"><ele>8.0</ele><time>2026-04-17T16:04:34.182Z</time></trkpt><trkpt lat="45.833812" lon="13.414961"><ele>8.0</ele><time>2026-04-17T16:04:35.183Z</time></trkpt><trkpt lat="45.8339772" lon="13.4150342"><ele>8.0</ele><time>2026-04-17T16:04:36.182Z</time></trkpt><trkpt lat="45.8341472" lon="13.4151065"><ele>8.0</ele><time>2026-04-17T16:04:37.183Z</time></trkpt><trkpt lat="45.8343183" lon="13.4151781"><ele>8.0</ele><time>2026-04-17T16:04:38.183Z</time></trkpt><trkpt lat="45.8344927" lon="13.415247"><ele>8.333333333333332</ele><time>2026-04-17T16:04:39.183Z</time></trkpt><trkpt lat="45.8346694" lon="13.415317"><ele>8.666666666666666</ele><time>2026-04-17T16:04:40.183Z</time></trkpt><trkpt lat="45.8348466" lon="13.4153864"><ele>9.0</ele><time>2026-04-17T16:04:41.183Z</time></trkpt><trkpt lat="45.8350289" lon="13.4154598"><ele>9.0</ele><time>2026-04-17T16:04:42.183Z</time></trkpt><trkpt lat="45.835203" lon="13.4155344"><ele>9.0</ele><time>2026-04-17T16:04:43.183Z</time></trkpt><trkpt lat="45.8353685" lon="13.4155977"><ele>9.0</ele><time>2026-04-17T16:04:44.183Z</time></trkpt><trkpt lat="45.8355101" lon="13.4156622"><ele>9.0</ele><time>2026-04-17T16:04:45.183Z</time></trkpt><trkpt lat="45.8356485" lon="13.4157317"><ele>9.0</ele><time>2026-04-17T16:04:46.183Z</time></trkpt><trkpt lat="45.8357866" lon="13.4158057"><ele>9.0</ele><time>2026-04-17T16:04:47.182Z</time></trkpt><trkpt lat="45.8359183" lon="13.4158883"><ele>9.0</ele><time>2026-04-17T16:04:48.183Z</time></trkpt><trkpt lat="45.8360442" lon="13.4159753"><ele>9.2</ele><time>2026-04-17T16:04:49.183Z</time></trkpt><trkpt lat="45.8361621" lon="13.4160683"><ele>9.4</ele><time>2026-04-17T16:04:50.183Z</time></trkpt><trkpt lat="45.8362635" lon="13.4161505"><ele>9.6</ele><time>2026-04-17T16:04:51.183Z</time></trkpt><trkpt lat="45.8363389" lon="13.4162127"><ele>9.8</ele><time>2026-04-17T16:04:52.183Z</time></trkpt><trkpt lat="45.8364412" lon="13.4162501"><ele>10.0</ele><time>2026-04-17T16:04:54.183Z</time></trkpt><trkpt lat="45.8365016" lon="13.4163261"><ele>10.0</ele><time>2026-04-17T16:04:58.183Z</time></trkpt><trkpt lat="45.8365673" lon="13.4164902"><ele>10.0</ele><time>2026-04-17T16:05:00.182Z</time></trkpt><trkpt lat="45.8366338" lon="13.4165747"><ele>10.0</ele><time>2026-04-17T16:05:01.182Z</time></trkpt><trkpt lat="45.8367248" lon="13.4166625"><ele>10.0</ele><time>2026-04-17T16:05:02.183Z</time></trkpt><trkpt lat="45.8368231" lon="13.4167614"><ele>10.0</ele><time>2026-04-17T16:05:03.183Z</time></trkpt><trkpt lat="45.8369401" lon="13.4168771"><ele>10.0</ele><time>2026-04-17T16:05:04.182Z</time></trkpt><trkpt lat="45.8370543" lon="13.4170003"><ele>10.0</ele><time>2026-04-17T16:05:05.182Z</time></trkpt><trkpt lat="45.8371701" lon="13.4171267"><ele>10.0</ele><time>2026-04-17T16:05:06.183Z</time></trkpt><trkpt lat="45.8372946" lon="13.4172449"><ele>10.0</ele><time>2026-04-17T16:05:07.183Z</time></trkpt><trkpt lat="45.8374201" lon="13.4173583"><ele>10.0</ele><time>2026-04-17T16:05:08.183Z</time></trkpt><trkpt lat="45.8375458" lon="13.41748"><ele>10.0</ele><time>2026-04-17T16:05:09.183Z</time></trkpt><trkpt lat="45.8376787" lon="13.4176115"><ele>9.666666666666668</ele><time>2026-04-17T16:05:10.183Z</time></trkpt><trkpt lat="45.8378215" lon="13.4177528"><ele>9.333333333333334</ele><time>2026-04-17T16:05:11.183Z</time></trkpt><trkpt lat="45.8379583" lon="13.41789"><ele>9.0</ele><time>2026-04-17T16:05:12.183Z</time></trkpt><trkpt lat="45.8380979" lon="13.4180431"><ele>9.0</ele><time>2026-04-17T16:05:13.183Z</time></trkpt><trkpt lat="45.8382352" lon="13.4181902"><ele>9.0</ele><time>2026-04-17T16:05:14.183Z</time></trkpt><trkpt lat="45.8383766" lon="13.418333"><ele>9.0</ele><time>2026-04-17T16:05:15.183Z</time></trkpt><trkpt lat="45.8385316" lon="13.4184825"><ele>9.0</ele><time>2026-04-17T16:05:16.183Z</time></trkpt><trkpt lat="45.8386869" lon="13.4186532"><ele>9.0</ele><time>2026-04-17T16:05:17.182Z</time></trkpt><trkpt lat="45.8388429" lon="13.4188133"><ele>9.0</ele><time>2026-04-17T16:05:18.183Z</time></trkpt><trkpt lat="45.8390005" lon="13.4189728"><ele>9.0</ele><time>2026-04-17T16:05:19.183Z</time></trkpt><trkpt lat="45.8391612" lon="13.4191359"><ele>9.0</ele><time>2026-04-17T16:05:20.182Z</time></trkpt><trkpt lat="45.8393318" lon="13.4193027"><ele>9.0</ele><time>2026-04-17T16:05:21.183Z</time></trkpt><trkpt lat="45.8394997" lon="13.419477"><ele>9.0</ele><time>2026-04-17T16:05:22.183Z</time></trkpt><trkpt lat="45.839672" lon="13.4196391"><ele>9.0</ele><time>2026-04-17T16:05:23.182Z</time></trkpt><trkpt lat="45.839836" lon="13.4198062"><ele>9.0</ele><time>2026-04-17T16:05:24.183Z</time></trkpt><trkpt lat="45.8399945" lon="13.4199759"><ele>8.333333333333334</ele><time>2026-04-17T16:05:25.183Z</time></trkpt><trkpt lat="45.8401493" lon="13.4201357"><ele>7.666666666666667</ele><time>2026-04-17T16:05:26.182Z</time></trkpt><trkpt lat="45.8403038" lon="13.4202892"><ele>7.0</ele><time>2026-04-17T16:05:27.182Z</time></trkpt><trkpt lat="45.8404572" lon="13.4204494"><ele>7.333333333333334</ele><time>2026-04-17T16:05:28.183Z</time></trkpt><trkpt lat="45.8406077" lon="13.4206094"><ele>7.666666666666666</ele><time>2026-04-17T16:05:29.183Z</time></trkpt><trkpt lat="45.8407649" lon="13.4207545"><ele>8.0</ele><time>2026-04-17T16:05:30.183Z</time></trkpt><trkpt lat="45.8409169" lon="13.4209055"><ele>8.0</ele><time>2026-04-17T16:05:31.183Z</time></trkpt><trkpt lat="45.8410653" lon="13.4210693"><ele>8.0</ele><time>2026-04-17T16:05:32.183Z</time></trkpt><trkpt lat="45.841208" lon="13.421232"><ele>8.0</ele><time>2026-04-17T16:05:33.183Z</time></trkpt><trkpt lat="45.841355" lon="13.4213907"><ele>8.666666666666666</ele><time>2026-04-17T16:05:34.183Z</time></trkpt><trkpt lat="45.841502" lon="13.4215436"><ele>9.333333333333334</ele><time>2026-04-17T16:05:35.182Z</time></trkpt><trkpt lat="45.8416459" lon="13.4216821"><ele>10.0</ele><time>2026-04-17T16:05:36.182Z</time></trkpt><trkpt lat="45.8417909" lon="13.4218142"><ele>10.0</ele><time>2026-04-17T16:05:37.182Z</time></trkpt><trkpt lat="45.8419223" lon="13.4219337"><ele>10.0</ele><time>2026-04-17T16:05:38.183Z</time></trkpt><trkpt lat="45.8420291" lon="13.4220183"><ele>10.0</ele><time>2026-04-17T16:05:39.183Z</time></trkpt><trkpt lat="45.8421124" lon="13.4220745"><ele>10.0</ele><time>2026-04-17T16:05:40.182Z</time></trkpt><trkpt lat="45.8422252" lon="13.4221229"><ele>10.0</ele><time>2026-04-17T16:05:42.182Z</time></trkpt><trkpt lat="45.8423016" lon="13.4221278"><ele>10.0</ele><time>2026-04-17T16:05:44.183Z</time></trkpt><trkpt lat="45.84234" lon="13.4222521"><ele>10.0</ele><time>2026-04-17T16:05:47.183Z</time></trkpt><trkpt lat="45.8423972" lon="13.4224243"><ele>10.0</ele><time>2026-04-17T16:05:49.183Z</time></trkpt><trkpt lat="45.8424734" lon="13.4225189"><ele>10.0</ele><time>2026-04-17T16:05:50.182Z</time></trkpt><trkpt lat="45.8425788" lon="13.4226274"><ele>10.333333333333334</ele><time>2026-04-17T16:05:51.183Z</time></trkpt><trkpt lat="45.842713" lon="13.4227571"><ele>10.666666666666666</ele><time>2026-04-17T16:05:52.183Z</time></trkpt><trkpt lat="45.8428654" lon="13.4229053"><ele>11.0</ele><time>2026-04-17T16:05:53.183Z</time></trkpt><trkpt lat="45.8430217" lon="13.4230646"><ele>11.0</ele><time>2026-04-17T16:05:54.183Z</time></trkpt><trkpt lat="45.8431743" lon="13.423229"><ele>11.0</ele><time>2026-04-17T16:05:55.182Z</time></trkpt><trkpt lat="45.8433234" lon="13.4233822"><ele>11.0</ele><time>2026-04-17T16:05:56.182Z</time></trkpt><trkpt lat="45.8434746" lon="13.4235266"><ele>11.0</ele><time>2026-04-17T16:05:57.183Z</time></trkpt><trkpt lat="45.8436338" lon="13.4236606"><ele>11.0</ele><time>2026-04-17T16:05:58.183Z</time></trkpt><trkpt lat="45.8437987" lon="13.4237787"><ele>11.0</ele><time>2026-04-17T16:05:59.183Z</time></trkpt><trkpt lat="45.8439619" lon="13.4238652"><ele>11.0</ele><time>2026-04-17T16:06:00.183Z</time></trkpt><trkpt lat="45.8441269" lon="13.4239475"><ele>11.0</ele><time>2026-04-17T16:06:01.183Z</time></trkpt><trkpt lat="45.8442893" lon="13.4240054"><ele>11.0</ele><time>2026-04-17T16:06:02.183Z</time></trkpt><trkpt lat="45.8444568" lon="13.4240412"><ele>11.666666666666666</ele><time>2026-04-17T16:06:03.182Z</time></trkpt><trkpt lat="45.8446323" lon="13.4240701"><ele>12.333333333333332</ele><time>2026-04-17T16:06:04.183Z</time></trkpt><trkpt lat="45.8448075" lon="13.4240819"><ele>13.0</ele><time>2026-04-17T16:06:05.182Z</time></trkpt><trkpt lat="45.8449866" lon="13.4240501"><ele>12.333333333333332</ele><time>2026-04-17T16:06:06.183Z</time></trkpt><trkpt lat="45.8451455" lon="13.4240131"><ele>11.666666666666666</ele><time>2026-04-17T16:06:07.182Z</time></trkpt><trkpt lat="45.8453036" lon="13.423955"><ele>11.0</ele><time>2026-04-17T16:06:08.183Z</time></trkpt><trkpt lat="45.8454612" lon="13.4238894"><ele>11.0</ele><time>2026-04-17T16:06:09.183Z</time></trkpt><trkpt lat="45.84563" lon="13.4238165"><ele>11.0</ele><time>2026-04-17T16:06:10.183Z</time></trkpt><trkpt lat="45.8457892" lon="13.4236972"><ele>11.0</ele><time>2026-04-17T16:06:11.183Z</time></trkpt><trkpt lat="45.8459491" lon="13.4235885"><ele>11.0</ele><time>2026-04-17T16:06:12.183Z</time></trkpt><trkpt lat="45.8461028" lon="13.4234727"><ele>11.0</ele><time>2026-04-17T16:06:13.183Z</time></trkpt><trkpt lat="45.8462441" lon="13.4233487"><ele>11.0</ele><time>2026-04-17T16:06:14.182Z</time></trkpt><trkpt lat="45.8463848" lon="13.4231836"><ele>11.0</ele><time>2026-04-17T16:06:15.183Z</time></trkpt><trkpt lat="45.8465171" lon="13.4230109"><ele>11.0</ele><time>2026-04-17T16:06:16.183Z</time></trkpt><trkpt lat="45.8466433" lon="13.4228201"><ele>11.0</ele><time>2026-04-17T16:06:17.183Z</time></trkpt><trkpt lat="45.8467602" lon="13.4226151"><ele>10.666666666666666</ele><time>2026-04-17T16:06:18.183Z</time></trkpt><trkpt lat="45.8468726" lon="13.422397"><ele>10.333333333333334</ele><time>2026-04-17T16:06:19.182Z</time></trkpt><trkpt lat="45.8469621" lon="13.4221806"><ele>10.0</ele><time>2026-04-17T16:06:20.182Z</time></trkpt><trkpt lat="45.8470581" lon="13.4219522"><ele>10.0</ele><time>2026-04-17T16:06:21.183Z</time></trkpt><trkpt lat="45.8471515" lon="13.4217247"><ele>10.0</ele><time>2026-04-17T16:06:22.182Z</time></trkpt><trkpt lat="45.8472475" lon="13.4214938"><ele>10.0</ele><time>2026-04-17T16:06:23.183Z</time></trkpt><trkpt lat="45.8473359" lon="13.4212703"><ele>11.0</ele><time>2026-04-17T16:06:24.183Z</time></trkpt><trkpt lat="45.8474249" lon="13.4210431"><ele>12.0</ele><time>2026-04-17T16:06:25.183Z</time></trkpt><trkpt lat="45.8475216" lon="13.4208076"><ele>13.0</ele><time>2026-04-17T16:06:26.182Z</time></trkpt><trkpt lat="45.8476093" lon="13.4205795"><ele>12.666666666666666</ele><time>2026-04-17T16:06:27.183Z</time></trkpt><trkpt lat="45.8476993" lon="13.4203531"><ele>12.333333333333332</ele><time>2026-04-17T16:06:28.182Z</time></trkpt><trkpt lat="45.8477919" lon="13.4201173"><ele>12.0</ele><time>2026-04-17T16:06:29.182Z</time></trkpt><trkpt lat="45.8478911" lon="13.419877"><ele>12.0</ele><time>2026-04-17T16:06:30.183Z</time></trkpt><trkpt lat="45.8479912" lon="13.4196405"><ele>12.0</ele><time>2026-04-17T16:06:31.182Z</time></trkpt><trkpt lat="45.8480934" lon="13.4194027"><ele>12.0</ele><time>2026-04-17T16:06:32.183Z</time></trkpt><trkpt lat="45.8481929" lon="13.4191587"><ele>12.0</ele><time>2026-04-17T16:06:33.183Z</time></trkpt><trkpt lat="45.8482931" lon="13.4189131"><ele>12.0</ele><time>2026-04-17T16:06:34.183Z</time></trkpt><trkpt lat="45.8483919" lon="13.418665"><ele>12.0</ele><time>2026-04-17T16:06:35.183Z</time></trkpt><trkpt lat="45.8484947" lon="13.4184218"><ele>12.666666666666668</ele><time>2026-04-17T16:06:36.182Z</time></trkpt><trkpt lat="45.8485944" lon="13.4181959"><ele>13.333333333333334</ele><time>2026-04-17T16:06:37.182Z</time></trkpt><trkpt lat="45.8486846" lon="13.4179851"><ele>14.0</ele><time>2026-04-17T16:06:38.183Z</time></trkpt><trkpt lat="45.848763" lon="13.4177719"><ele>14.0</ele><time>2026-04-17T16:06:39.182Z</time></trkpt><trkpt lat="45.8488538" lon="13.4175702"><ele>14.0</ele><time>2026-04-17T16:06:40.183Z</time></trkpt><trkpt lat="45.8489394" lon="13.4173805"><ele>14.0</ele><time>2026-04-17T16:06:41.183Z</time></trkpt><trkpt lat="45.8490019" lon="13.4172294"><ele>14.0</ele><time>2026-04-17T16:06:42.183Z</time></trkpt><trkpt lat="45.8490545" lon="13.4171037"><ele>13.833333333333334</ele><time>2026-04-17T16:06:43.183Z</time></trkpt><trkpt lat="45.8490924" lon="13.4169925"><ele>13.666666666666668</ele><time>2026-04-17T16:06:44.183Z</time></trkpt><trkpt lat="45.8491321" lon="13.4168934"><ele>13.5</ele><time>2026-04-17T16:06:45.183Z</time></trkpt><trkpt lat="45.8491645" lon="13.4168127"><ele>13.333333333333332</ele><time>2026-04-17T16:06:46.183Z</time></trkpt><trkpt lat="45.8492103" lon="13.416703"><ele>13.166666666666666</ele><time>2026-04-17T16:06:48.183Z</time></trkpt><trkpt lat="45.849254" lon="13.4165915"><ele>13.0</ele><time>2026-04-17T16:06:59.183Z</time></trkpt><trkpt lat="45.84931" lon="13.4164607"><ele>13.4</ele><time>2026-04-17T16:07:01.183Z</time></trkpt><trkpt lat="45.8493688" lon="13.4163468"><ele>13.8</ele><time>2026-04-17T16:07:03.183Z</time></trkpt><trkpt lat="45.8494373" lon="13.4162327"><ele>14.2</ele><time>2026-04-17T16:07:05.183Z</time></trkpt><trkpt lat="45.8494777" lon="13.4161221"><ele>14.6</ele><time>2026-04-17T16:07:07.183Z</time></trkpt><trkpt lat="45.8495379" lon="13.4160307"><ele>15.0</ele><time>2026-04-17T16:07:09.183Z</time></trkpt><trkpt lat="45.8495948" lon="13.4159317"><ele>15.0</ele><time>2026-04-17T16:07:11.183Z</time></trkpt><trkpt lat="45.8496449" lon="13.4158188"><ele>15.0</ele><time>2026-04-17T16:07:13.182Z</time></trkpt><trkpt lat="45.8497078" lon="13.4157227"><ele>15.0</ele><time>2026-04-17T16:07:15.182Z</time></trkpt><trkpt lat="45.8497617" lon="13.4156043"><ele>15.0</ele><time>2026-04-17T16:07:17.183Z</time></trkpt><trkpt lat="45.8498258" lon="13.4154976"><ele>15.0</ele><time>2026-04-17T16:07:19.183Z</time></trkpt><trkpt lat="45.8498858" lon="13.4153791"><ele>14.8</ele><time>2026-04-17T16:07:21.183Z</time></trkpt><trkpt lat="45.8499227" lon="13.415303"><ele>14.6</ele><time>2026-04-17T16:07:22.183Z</time></trkpt><trkpt lat="45.8499798" lon="13.4152063"><ele>14.399999999999999</ele><time>2026-04-17T16:07:23.183Z</time></trkpt><trkpt lat="45.8500588" lon="13.4150943"><ele>14.2</ele><time>2026-04-17T16:07:24.182Z</time></trkpt><trkpt lat="45.8501575" lon="13.4149618"><ele>14.0</ele><time>2026-04-17T16:07:25.182Z</time></trkpt><trkpt lat="45.8502698" lon="13.4148124"><ele>13.333333333333334</ele><time>2026-04-17T16:07:26.182Z</time></trkpt><trkpt lat="45.8503929" lon="13.414669"><ele>12.666666666666668</ele><time>2026-04-17T16:07:27.183Z</time></trkpt><trkpt lat="45.8505275" lon="13.4145148"><ele>12.0</ele><time>2026-04-17T16:07:28.183Z</time></trkpt><trkpt lat="45.8506603" lon="13.4143421"><ele>12.0</ele><time>2026-04-17T16:07:29.183Z</time></trkpt><trkpt lat="45.8508056" lon="13.4141719"><ele>12.0</ele><time>2026-04-17T16:07:30.183Z</time></trkpt><trkpt lat="45.8509439" lon="13.414003"><ele>12.0</ele><time>2026-04-17T16:07:31.183Z</time></trkpt><trkpt lat="45.8510583" lon="13.413864"><ele>12.25</ele><time>2026-04-17T16:07:32.182Z</time></trkpt><trkpt lat="45.8511497" lon="13.4137503"><ele>12.5</ele><time>2026-04-17T16:07:33.183Z</time></trkpt><trkpt lat="45.8512365" lon="13.4136345"><ele>12.75</ele><time>2026-04-17T16:07:34.183Z</time></trkpt><trkpt lat="45.8513292" lon="13.4135076"><ele>13.0</ele><time>2026-04-17T16:07:35.183Z</time></trkpt><trkpt lat="45.8514337" lon="13.4133506"><ele>13.0</ele><time>2026-04-17T16:07:36.183Z</time></trkpt><trkpt lat="45.8515502" lon="13.4131908"><ele>13.0</ele><time>2026-04-17T16:07:37.182Z</time></trkpt><trkpt lat="45.8516757" lon="13.4130281"><ele>13.0</ele><time>2026-04-17T16:07:38.183Z</time></trkpt><trkpt lat="45.8518038" lon="13.4128715"><ele>13.0</ele><time>2026-04-17T16:07:39.183Z</time></trkpt><trkpt lat="45.8519337" lon="13.4127138"><ele>13.0</ele><time>2026-04-17T16:07:40.182Z</time></trkpt><trkpt lat="45.8520573" lon="13.4125556"><ele>13.0</ele><time>2026-04-17T16:07:41.183Z</time></trkpt><trkpt lat="45.8521791" lon="13.4123966"><ele>13.0</ele><time>2026-04-17T16:07:42.183Z</time></trkpt><trkpt lat="45.8523" lon="13.4122322"><ele>13.0</ele><time>2026-04-17T16:07:43.183Z</time></trkpt><trkpt lat="45.8524243" lon="13.4120743"><ele>13.0</ele><time>2026-04-17T16:07:44.183Z</time></trkpt><trkpt lat="45.8525445" lon="13.4119209"><ele>13.0</ele><time>2026-04-17T16:07:45.183Z</time></trkpt><trkpt lat="45.8526604" lon="13.4117759"><ele>13.0</ele><time>2026-04-17T16:07:46.183Z</time></trkpt><trkpt lat="45.8527661" lon="13.4116443"><ele>13.0</ele><time>2026-04-17T16:07:47.183Z</time></trkpt><trkpt lat="45.8528656" lon="13.4115053"><ele>13.0</ele><time>2026-04-17T16:07:48.183Z</time></trkpt><trkpt lat="45.8529613" lon="13.4113887"><ele>13.0</ele><time>2026-04-17T16:07:49.182Z</time></trkpt><trkpt lat="45.853059" lon="13.4112834"><ele>13.0</ele><time>2026-04-17T16:07:50.182Z</time></trkpt><trkpt lat="45.8531675" lon="13.4111778"><ele>13.0</ele><time>2026-04-17T16:07:51.182Z</time></trkpt><trkpt lat="45.8532867" lon="13.4110911"><ele>13.0</ele><time>2026-04-17T16:07:52.182Z</time></trkpt><trkpt lat="45.8534163" lon="13.4110021"><ele>12.75</ele><time>2026-04-17T16:07:53.183Z</time></trkpt><trkpt lat="45.8535476" lon="13.4109266"><ele>12.5</ele><time>2026-04-17T16:07:54.183Z</time></trkpt><trkpt lat="45.8536867" lon="13.4108723"><ele>12.25</ele><time>2026-04-17T16:07:55.183Z</time></trkpt><trkpt lat="45.8538331" lon="13.4108348"><ele>12.0</ele><time>2026-04-17T16:07:56.183Z</time></trkpt><trkpt lat="45.8539751" lon="13.4108209"><ele>12.0</ele><time>2026-04-17T16:07:57.183Z</time></trkpt><trkpt lat="45.8541239" lon="13.410814"><ele>12.0</ele><time>2026-04-17T16:07:58.183Z</time></trkpt><trkpt lat="45.8542688" lon="13.4108215"><ele>12.0</ele><time>2026-04-17T16:07:59.183Z</time></trkpt><trkpt lat="45.854436" lon="13.4108236"><ele>11.666666666666666</ele><time>2026-04-17T16:08:00.183Z</time></trkpt><trkpt lat="45.8546081" lon="13.4108157"><ele>11.333333333333332</ele><time>2026-04-17T16:08:01.183Z</time></trkpt><trkpt lat="45.8547839" lon="13.4108131"><ele>11.0</ele><time>2026-04-17T16:08:02.183Z</time></trkpt><trkpt lat="45.854958" lon="13.4108049"><ele>11.666666666666666</ele><time>2026-04-17T16:08:03.182Z</time></trkpt><trkpt lat="45.8551295" lon="13.4108015"><ele>12.333333333333332</ele><time>2026-04-17T16:08:04.183Z</time></trkpt><trkpt lat="45.8553001" lon="13.4108003"><ele>13.0</ele><time>2026-04-17T16:08:05.183Z</time></trkpt><trkpt lat="45.8554794" lon="13.4107952"><ele>13.0</ele><time>2026-04-17T16:08:06.183Z</time></trkpt><trkpt lat="45.8556585" lon="13.4107867"><ele>13.0</ele><time>2026-04-17T16:08:07.183Z</time></trkpt><trkpt lat="45.8558317" lon="13.4107769"><ele>13.0</ele><time>2026-04-17T16:08:08.183Z</time></trkpt><trkpt lat="45.8560064" lon="13.4107669"><ele>12.666666666666666</ele><time>2026-04-17T16:08:09.182Z</time></trkpt><trkpt lat="45.8561776" lon="13.4107618"><ele>12.333333333333332</ele><time>2026-04-17T16:08:10.183Z</time></trkpt><trkpt lat="45.8563558" lon="13.4107568"><ele>12.0</ele><time>2026-04-17T16:08:11.182Z</time></trkpt><trkpt lat="45.8565303" lon="13.410768"><ele>12.0</ele><time>2026-04-17T16:08:12.183Z</time></trkpt><trkpt lat="45.856702" lon="13.4107683"><ele>12.0</ele><time>2026-04-17T16:08:13.182Z</time></trkpt><trkpt lat="45.8568705" lon="13.4107614"><ele>12.0</ele><time>2026-04-17T16:08:14.183Z</time></trkpt><trkpt lat="45.8570415" lon="13.410742"><ele>12.666666666666668</ele><time>2026-04-17T16:08:15.183Z</time></trkpt><trkpt lat="45.8572219" lon="13.4107207"><ele>13.333333333333334</ele><time>2026-04-17T16:08:16.183Z</time></trkpt><trkpt lat="45.85738" lon="13.4107124"><ele>14.0</ele><time>2026-04-17T16:08:17.182Z</time></trkpt><trkpt lat="45.8575254" lon="13.4107071"><ele>14.399999999999999</ele><time>2026-04-17T16:08:18.183Z</time></trkpt><trkpt lat="45.8576509" lon="13.4107099"><ele>14.799999999999999</ele><time>2026-04-17T16:08:19.183Z</time></trkpt><trkpt lat="45.8577563" lon="13.41071"><ele>15.200000000000001</ele><time>2026-04-17T16:08:20.182Z</time></trkpt><trkpt lat="45.8578479" lon="13.4107123"><ele>15.600000000000001</ele><time>2026-04-17T16:08:21.183Z</time></trkpt><trkpt lat="45.8579392" lon="13.4107096"><ele>16.0</ele><time>2026-04-17T16:08:22.182Z</time></trkpt><trkpt lat="45.8580352" lon="13.4107039"><ele>15.999999999999998</ele><time>2026-04-17T16:08:23.183Z</time></trkpt><trkpt lat="45.8581379" lon="13.4107034"><ele>16.0</ele><time>2026-04-17T16:08:24.182Z</time></trkpt><trkpt lat="45.8582389" lon="13.4107025"><ele>16.0</ele><time>2026-04-17T16:08:25.181Z</time></trkpt><trkpt lat="45.8583343" lon="13.4106978"><ele>16.0</ele><time>2026-04-17T16:08:26.182Z</time></trkpt><trkpt lat="45.8584044" lon="13.4106938"><ele>15.999999999999998</ele><time>2026-04-17T16:08:27.182Z</time></trkpt><trkpt lat="45.8584772" lon="13.4106832"><ele>16.0</ele><time>2026-04-17T16:08:28.182Z</time></trkpt><trkpt lat="45.8585626" lon="13.4106719"><ele>15.25</ele><time>2026-04-17T16:08:29.181Z</time></trkpt><trkpt lat="45.8586635" lon="13.4106738"><ele>14.5</ele><time>2026-04-17T16:08:30.182Z</time></trkpt><trkpt lat="45.8587773" lon="13.4106716"><ele>13.75</ele><time>2026-04-17T16:08:31.181Z</time></trkpt><trkpt lat="45.85891" lon="13.4106698"><ele>13.0</ele><time>2026-04-17T16:08:32.182Z</time></trkpt><trkpt lat="45.8590514" lon="13.4106591"><ele>13.0</ele><time>2026-04-17T16:08:33.182Z</time></trkpt><trkpt lat="45.8592008" lon="13.410645"><ele>13.0</ele><time>2026-04-17T16:08:34.182Z</time></trkpt><trkpt lat="45.8593493" lon="13.4106411"><ele>13.0</ele><time>2026-04-17T16:08:35.181Z</time></trkpt><trkpt lat="45.8594999" lon="13.4106396"><ele>13.0</ele><time>2026-04-17T16:08:36.181Z</time></trkpt><trkpt lat="45.8596563" lon="13.4106359"><ele>13.333333333333332</ele><time>2026-04-17T16:08:37.182Z</time></trkpt><trkpt lat="45.8598135" lon="13.4106325"><ele>13.666666666666668</ele><time>2026-04-17T16:08:38.182Z</time></trkpt><trkpt lat="45.8599713" lon="13.4106193"><ele>14.0</ele><time>2026-04-17T16:08:39.182Z</time></trkpt><trkpt lat="45.8601251" lon="13.4106159"><ele>14.0</ele><time>2026-04-17T16:08:40.182Z</time></trkpt><trkpt lat="45.8602955" lon="13.4105985"><ele>14.0</ele><time>2026-04-17T16:08:41.181Z</time></trkpt><trkpt lat="45.8604625" lon="13.4105915"><ele>14.0</ele><time>2026-04-17T16:08:42.182Z</time></trkpt><trkpt lat="45.8606308" lon="13.4105805"><ele>14.0</ele><time>2026-04-17T16:08:43.182Z</time></trkpt><trkpt lat="45.8608069" lon="13.4105752"><ele>14.0</ele><time>2026-04-17T16:08:44.181Z</time></trkpt><trkpt lat="45.8609829" lon="13.4105709"><ele>14.0</ele><time>2026-04-17T16:08:45.182Z</time></trkpt><trkpt lat="45.8611631" lon="13.4105603"><ele>13.666666666666668</ele><time>2026-04-17T16:08:46.182Z</time></trkpt><trkpt lat="45.8613404" lon="13.4105579"><ele>13.333333333333332</ele><time>2026-04-17T16:08:47.181Z</time></trkpt><trkpt lat="45.8615158" lon="13.410554"><ele>13.0</ele><time>2026-04-17T16:08:48.182Z</time></trkpt><trkpt lat="45.8616941" lon="13.4105492"><ele>13.25</ele><time>2026-04-17T16:08:49.182Z</time></trkpt><trkpt lat="45.8618565" lon="13.4105429"><ele>13.5</ele><time>2026-04-17T16:08:50.182Z</time></trkpt><trkpt lat="45.8620105" lon="13.41053"><ele>13.75</ele><time>2026-04-17T16:08:51.182Z</time></trkpt><trkpt lat="45.8621386" lon="13.4105289"><ele>14.0</ele><time>2026-04-17T16:08:52.181Z</time></trkpt><trkpt lat="45.8622435" lon="13.4105392"><ele>14.0</ele><time>2026-04-17T16:08:53.182Z</time></trkpt><trkpt lat="45.8623344" lon="13.4105491"><ele>13.999999999999998</ele><time>2026-04-17T16:08:54.182Z</time></trkpt><trkpt lat="45.8624187" lon="13.410546"><ele>13.999999999999998</ele><time>2026-04-17T16:08:55.182Z</time></trkpt><trkpt lat="45.8625139" lon="13.4105293"><ele>14.0</ele><time>2026-04-17T16:08:56.182Z</time></trkpt><trkpt lat="45.8626299" lon="13.4105087"><ele>14.0</ele><time>2026-04-17T16:08:57.182Z</time></trkpt><trkpt lat="45.8627667" lon="13.410503"><ele>14.2</ele><time>2026-04-17T16:08:58.182Z</time></trkpt><trkpt lat="45.8628933" lon="13.4105065"><ele>14.399999999999999</ele><time>2026-04-17T16:08:59.181Z</time></trkpt><trkpt lat="45.863" lon="13.4105118"><ele>14.6</ele><time>2026-04-17T16:09:00.181Z</time></trkpt><trkpt lat="45.8630987" lon="13.4105199"><ele>14.8</ele><time>2026-04-17T16:09:01.182Z</time></trkpt><trkpt lat="45.8632008" lon="13.4105193"><ele>15.0</ele><time>2026-04-17T16:09:02.182Z</time></trkpt><trkpt lat="45.8633159" lon="13.4104991"><ele>15.25</ele><time>2026-04-17T16:09:03.182Z</time></trkpt><trkpt lat="45.863446" lon="13.4104842"><ele>15.5</ele><time>2026-04-17T16:09:04.181Z</time></trkpt><trkpt lat="45.8635905" lon="13.4104686"><ele>15.75</ele><time>2026-04-17T16:09:05.182Z</time></trkpt><trkpt lat="45.8637407" lon="13.4104624"><ele>16.0</ele><time>2026-04-17T16:09:06.181Z</time></trkpt><trkpt lat="45.863908" lon="13.4104606"><ele>16.0</ele><time>2026-04-17T16:09:07.182Z</time></trkpt><trkpt lat="45.8640802" lon="13.4104483"><ele>16.0</ele><time>2026-04-17T16:09:08.181Z</time></trkpt><trkpt lat="45.8642511" lon="13.4104408"><ele>16.0</ele><time>2026-04-17T16:09:09.181Z</time></trkpt><trkpt lat="45.8644173" lon="13.4104304"><ele>15.5</ele><time>2026-04-17T16:09:10.182Z</time></trkpt><trkpt lat="45.8645694" lon="13.4104288"><ele>15.0</ele><time>2026-04-17T16:09:11.181Z</time></trkpt><trkpt lat="45.8647096" lon="13.410423"><ele>14.5</ele><time>2026-04-17T16:09:12.181Z</time></trkpt><trkpt lat="45.864835" lon="13.4104217"><ele>14.0</ele><time>2026-04-17T16:09:13.182Z</time></trkpt><trkpt lat="45.8649501" lon="13.4104259"><ele>14.0</ele><time>2026-04-17T16:09:14.182Z</time></trkpt><trkpt lat="45.8650623" lon="13.4104477"><ele>13.999999999999998</ele><time>2026-04-17T16:09:15.182Z</time></trkpt><trkpt lat="45.865171" lon="13.4104687"><ele>13.999999999999998</ele><time>2026-04-17T16:09:16.181Z</time></trkpt><trkpt lat="45.8652662" lon="13.4104955"><ele>14.0</ele><time>2026-04-17T16:09:17.182Z</time></trkpt><trkpt lat="45.8653498" lon="13.4105086"><ele>14.0</ele><time>2026-04-17T16:09:18.181Z</time></trkpt><trkpt lat="45.8654289" lon="13.4105331"><ele>14.571428571428571</ele><time>2026-04-17T16:09:19.181Z</time></trkpt><trkpt lat="45.8654988" lon="13.410574"><ele>15.142857142857142</ele><time>2026-04-17T16:09:20.182Z</time></trkpt><trkpt lat="45.8655703" lon="13.4106118"><ele>15.714285714285715</ele><time>2026-04-17T16:09:21.182Z</time></trkpt><trkpt lat="45.8656391" lon="13.4106473"><ele>16.285714285714285</ele><time>2026-04-17T16:09:22.182Z</time></trkpt><trkpt lat="45.8657077" lon="13.4106808"><ele>16.857142857142858</ele><time>2026-04-17T16:09:23.181Z</time></trkpt><trkpt lat="45.865772" lon="13.4107256"><ele>17.42857142857143</ele><time>2026-04-17T16:09:24.182Z</time></trkpt><trkpt lat="45.8658339" lon="13.4107653"><ele>18.0</ele><time>2026-04-17T16:09:25.182Z</time></trkpt><trkpt lat="45.8659124" lon="13.4108725"><ele>17.4</ele><time>2026-04-17T16:09:27.182Z</time></trkpt><trkpt lat="45.8659787" lon="13.4109787"><ele>16.8</ele><time>2026-04-17T16:09:29.182Z</time></trkpt><trkpt lat="45.8660252" lon="13.4110551"><ele>16.2</ele><time>2026-04-17T16:09:30.182Z</time></trkpt><trkpt lat="45.8660833" lon="13.4111231"><ele>15.6</ele><time>2026-04-17T16:09:31.182Z</time></trkpt><trkpt lat="45.8661652" lon="13.411215"><ele>15.0</ele><time>2026-04-17T16:09:32.182Z</time></trkpt><trkpt lat="45.8662496" lon="13.4113405"><ele>15.0</ele><time>2026-04-17T16:09:33.182Z</time></trkpt><trkpt lat="45.8663371" lon="13.4114835"><ele>15.0</ele><time>2026-04-17T16:09:34.181Z</time></trkpt><trkpt lat="45.8664215" lon="13.411637"><ele>15.0</ele><time>2026-04-17T16:09:35.181Z</time></trkpt><trkpt lat="45.8665144" lon="13.4118199"><ele>15.0</ele><time>2026-04-17T16:09:36.182Z</time></trkpt><trkpt lat="45.8666015" lon="13.4120039"><ele>14.75</ele><time>2026-04-17T16:09:37.182Z</time></trkpt><trkpt lat="45.8666872" lon="13.4121624"><ele>14.5</ele><time>2026-04-17T16:09:38.182Z</time></trkpt><trkpt lat="45.8667599" lon="13.4123166"><ele>14.25</ele><time>2026-04-17T16:09:39.182Z</time></trkpt><trkpt lat="45.8668311" lon="13.4124534"><ele>14.0</ele><time>2026-04-17T16:09:40.182Z</time></trkpt><trkpt lat="45.8668872" lon="13.4125918"><ele>14.0</ele><time>2026-04-17T16:09:41.182Z</time></trkpt><trkpt lat="45.8669524" lon="13.4127087"><ele>14.0</ele><time>2026-04-17T16:09:42.181Z</time></trkpt><trkpt lat="45.867033" lon="13.4128416"><ele>14.0</ele><time>2026-04-17T16:09:43.182Z</time></trkpt><trkpt lat="45.8671282" lon="13.4129874"><ele>14.0</ele><time>2026-04-17T16:09:44.182Z</time></trkpt><trkpt lat="45.8672366" lon="13.4131535"><ele>14.666666666666668</ele><time>2026-04-17T16:09:45.181Z</time></trkpt><trkpt lat="45.8673418" lon="13.4133246"><ele>15.333333333333332</ele><time>2026-04-17T16:09:46.182Z</time></trkpt><trkpt lat="45.8674397" lon="13.4134984"><ele>16.0</ele><time>2026-04-17T16:09:47.181Z</time></trkpt><trkpt lat="45.8675247" lon="13.4136684"><ele>16.0</ele><time>2026-04-17T16:09:48.181Z</time></trkpt><trkpt lat="45.8675984" lon="13.4138373"><ele>16.0</ele><time>2026-04-17T16:09:49.181Z</time></trkpt><trkpt lat="45.8676677" lon="13.4139894"><ele>16.0</ele><time>2026-04-17T16:09:50.182Z</time></trkpt><trkpt lat="45.8677628" lon="13.414146"><ele>16.0</ele><time>2026-04-17T16:09:51.182Z</time></trkpt><trkpt lat="45.8678657" lon="13.4143023"><ele>16.0</ele><time>2026-04-17T16:09:52.181Z</time></trkpt><trkpt lat="45.8679761" lon="13.4144737"><ele>16.0</ele><time>2026-04-17T16:09:53.182Z</time></trkpt><trkpt lat="45.8680813" lon="13.4146388"><ele>16.0</ele><time>2026-04-17T16:09:54.182Z</time></trkpt><trkpt lat="45.8681698" lon="13.4148063"><ele>15.75</ele><time>2026-04-17T16:09:55.182Z</time></trkpt><trkpt lat="45.8682582" lon="13.414971"><ele>15.5</ele><time>2026-04-17T16:09:56.181Z</time></trkpt><trkpt lat="45.8683297" lon="13.4151525"><ele>15.25</ele><time>2026-04-17T16:09:57.181Z</time></trkpt><trkpt lat="45.8684029" lon="13.4153351"><ele>15.0</ele><time>2026-04-17T16:09:58.182Z</time></trkpt><trkpt lat="45.8684676" lon="13.4155346"><ele>14.666666666666668</ele><time>2026-04-17T16:09:59.182Z</time></trkpt><trkpt lat="45.8685283" lon="13.4157414"><ele>14.333333333333334</ele><time>2026-04-17T16:10:00.182Z</time></trkpt><trkpt lat="45.8685718" lon="13.4159599"><ele>14.0</ele><time>2026-04-17T16:10:01.182Z</time></trkpt><trkpt lat="45.8686207" lon="13.4161854"><ele>14.0</ele><time>2026-04-17T16:10:02.181Z</time></trkpt><trkpt lat="45.8686767" lon="13.4164054"><ele>14.0</ele><time>2026-04-17T16:10:03.182Z</time></trkpt><trkpt lat="45.8687199" lon="13.41661"><ele>14.0</ele><time>2026-04-17T16:10:04.182Z</time></trkpt><trkpt lat="45.868762" lon="13.4168061"><ele>14.0</ele><time>2026-04-17T16:10:05.181Z</time></trkpt><trkpt lat="45.8687931" lon="13.4169859"><ele>14.0</ele><time>2026-04-17T16:10:06.182Z</time></trkpt><trkpt lat="45.8688287" lon="13.4171479"><ele>14.0</ele><time>2026-04-17T16:10:07.182Z</time></trkpt><trkpt lat="45.868859" lon="13.4173012"><ele>14.0</ele><time>2026-04-17T16:10:08.182Z</time></trkpt><trkpt lat="45.8688781" lon="13.4174422"><ele>14.399999999999999</ele><time>2026-04-17T16:10:09.181Z</time></trkpt><trkpt lat="45.8688986" lon="13.4175473"><ele>14.799999999999999</ele><time>2026-04-17T16:10:10.181Z</time></trkpt><trkpt lat="45.8689725" lon="13.4176479"><ele>15.200000000000001</ele><time>2026-04-17T16:10:12.181Z</time></trkpt><trkpt lat="45.8690351" lon="13.4176675"><ele>15.600000000000001</ele><time>2026-04-17T16:10:13.181Z</time></trkpt><trkpt lat="45.8691244" lon="13.4176523"><ele>16.0</ele><time>2026-04-17T16:10:14.182Z</time></trkpt><trkpt lat="45.8692387" lon="13.4176056"><ele>16.0</ele><time>2026-04-17T16:10:15.181Z</time></trkpt><trkpt lat="45.8693734" lon="13.417535"><ele>16.0</ele><time>2026-04-17T16:10:16.182Z</time></trkpt><trkpt lat="45.8695203" lon="13.4174451"><ele>16.0</ele><time>2026-04-17T16:10:17.181Z</time></trkpt><trkpt lat="45.8696742" lon="13.4173534"><ele>16.0</ele><time>2026-04-17T16:10:18.181Z</time></trkpt><trkpt lat="45.869831" lon="13.4172586"><ele>16.0</ele><time>2026-04-17T16:10:19.182Z</time></trkpt><trkpt lat="45.8699832" lon="13.4171533"><ele>16.0</ele><time>2026-04-17T16:10:20.182Z</time></trkpt><trkpt lat="45.8701252" lon="13.4170498"><ele>16.25</ele><time>2026-04-17T16:10:21.182Z</time></trkpt><trkpt lat="45.8702546" lon="13.4169525"><ele>16.5</ele><time>2026-04-17T16:10:22.182Z</time></trkpt><trkpt lat="45.8703612" lon="13.4168641"><ele>16.75</ele><time>2026-04-17T16:10:23.182Z</time></trkpt><trkpt lat="45.8704599" lon="13.4167935"><ele>17.0</ele><time>2026-04-17T16:10:24.181Z</time></trkpt><trkpt lat="45.8705546" lon="13.4167316"><ele>17.0</ele><time>2026-04-17T16:10:25.182Z</time></trkpt><trkpt lat="45.8706341" lon="13.4166975"><ele>17.0</ele><time>2026-04-17T16:10:26.181Z</time></trkpt><trkpt lat="45.8706984" lon="13.4166837"><ele>17.0</ele><time>2026-04-17T16:10:27.181Z</time></trkpt><trkpt lat="45.8707986" lon="13.4166538"><ele>17.0</ele><time>2026-04-17T16:10:29.182Z</time></trkpt><trkpt lat="45.8709237" lon="13.4165676"><ele>17.0</ele><time>2026-04-17T16:10:31.182Z</time></trkpt><trkpt lat="45.8710038" lon="13.4164972"><ele>17.0</ele><time>2026-04-17T16:10:32.181Z</time></trkpt><trkpt lat="45.8711057" lon="13.4164132"><ele>17.0</ele><time>2026-04-17T16:10:33.182Z</time></trkpt><trkpt lat="45.8712257" lon="13.4163149"><ele>17.0</ele><time>2026-04-17T16:10:34.182Z</time></trkpt><trkpt lat="45.8713485" lon="13.4162149"><ele>17.0</ele><time>2026-04-17T16:10:35.182Z</time></trkpt><trkpt lat="45.871477" lon="13.416114"><ele>16.666666666666668</ele><time>2026-04-17T16:10:36.182Z</time></trkpt><trkpt lat="45.8716092" lon="13.4160033"><ele>16.333333333333332</ele><time>2026-04-17T16:10:37.182Z</time></trkpt><trkpt lat="45.8717457" lon="13.415897"><ele>16.0</ele><time>2026-04-17T16:10:38.182Z</time></trkpt><trkpt lat="45.8718871" lon="13.4157927"><ele>16.0</ele><time>2026-04-17T16:10:39.181Z</time></trkpt><trkpt lat="45.872028" lon="13.4156853"><ele>16.0</ele><time>2026-04-17T16:10:40.182Z</time></trkpt><trkpt lat="45.8721746" lon="13.4155765"><ele>16.0</ele><time>2026-04-17T16:10:41.182Z</time></trkpt><trkpt lat="45.8723218" lon="13.4154683"><ele>16.333333333333332</ele><time>2026-04-17T16:10:42.182Z</time></trkpt><trkpt lat="45.8724763" lon="13.415361"><ele>16.666666666666668</ele><time>2026-04-17T16:10:43.181Z</time></trkpt><trkpt lat="45.872633" lon="13.415258"><ele>17.0</ele><time>2026-04-17T16:10:44.182Z</time></trkpt><trkpt lat="45.8727841" lon="13.4151469"><ele>17.666666666666668</ele><time>2026-04-17T16:10:45.181Z</time></trkpt><trkpt lat="45.8729431" lon="13.415033"><ele>18.333333333333332</ele><time>2026-04-17T16:10:46.182Z</time></trkpt><trkpt lat="45.8731029" lon="13.4149174"><ele>19.0</ele><time>2026-04-17T16:10:47.182Z</time></trkpt><trkpt lat="45.8732586" lon="13.4148023"><ele>19.0</ele><time>2026-04-17T16:10:48.181Z</time></trkpt><trkpt lat="45.873424" lon="13.4146822"><ele>19.0</ele><time>2026-04-17T16:10:49.181Z</time></trkpt><trkpt lat="45.8735906" lon="13.4145684"><ele>19.0</ele><time>2026-04-17T16:10:50.182Z</time></trkpt><trkpt lat="45.8737518" lon="13.4144472"><ele>19.0</ele><time>2026-04-17T16:10:51.182Z</time></trkpt><trkpt lat="45.8739073" lon="13.4143434"><ele>19.0</ele><time>2026-04-17T16:10:52.181Z</time></trkpt><trkpt lat="45.874042" lon="13.4142423"><ele>19.0</ele><time>2026-04-17T16:10:53.182Z</time></trkpt><trkpt lat="45.8741728" lon="13.4141488"><ele>19.25</ele><time>2026-04-17T16:10:54.181Z</time></trkpt><trkpt lat="45.8742981" lon="13.4140653"><ele>19.5</ele><time>2026-04-17T16:10:55.182Z</time></trkpt><trkpt lat="45.8744077" lon="13.413995"><ele>19.75</ele><time>2026-04-17T16:10:56.182Z</time></trkpt><trkpt lat="45.8745064" lon="13.4139238"><ele>20.0</ele><time>2026-04-17T16:10:57.182Z</time></trkpt><trkpt lat="45.8746007" lon="13.4138451"><ele>20.0</ele><time>2026-04-17T16:10:58.182Z</time></trkpt><trkpt lat="45.8746775" lon="13.4137573"><ele>20.0</ele><time>2026-04-17T16:10:59.182Z</time></trkpt><trkpt lat="45.8747684" lon="13.4136566"><ele>20.0</ele><time>2026-04-17T16:11:00.181Z</time></trkpt><trkpt lat="45.8748739" lon="13.4135468"><ele>20.0</ele><time>2026-04-17T16:11:01.182Z</time></trkpt><trkpt lat="45.8749973" lon="13.4134423"><ele>19.333333333333336</ele><time>2026-04-17T16:11:02.182Z</time></trkpt><trkpt lat="45.8751392" lon="13.4133218"><ele>18.666666666666668</ele><time>2026-04-17T16:11:03.181Z</time></trkpt><trkpt lat="45.8752912" lon="13.4132135"><ele>18.0</ele><time>2026-04-17T16:11:04.182Z</time></trkpt><trkpt lat="45.8754515" lon="13.4131343"><ele>18.0</ele><time>2026-04-17T16:11:05.182Z</time></trkpt><trkpt lat="45.8756031" lon="13.4130481"><ele>18.0</ele><time>2026-04-17T16:11:06.181Z</time></trkpt><trkpt lat="45.8757466" lon="13.4129511"><ele>18.0</ele><time>2026-04-17T16:11:07.182Z</time></trkpt><trkpt lat="45.8758761" lon="13.4128594"><ele>17.5</ele><time>2026-04-17T16:11:08.181Z</time></trkpt><trkpt lat="45.8760039" lon="13.4127892"><ele>17.0</ele><time>2026-04-17T16:11:09.181Z</time></trkpt><trkpt lat="45.8761455" lon="13.412733"><ele>16.5</ele><time>2026-04-17T16:11:10.182Z</time></trkpt><trkpt lat="45.8762992" lon="13.4126926"><ele>16.0</ele><time>2026-04-17T16:11:11.181Z</time></trkpt><trkpt lat="45.8764757" lon="13.4126649"><ele>16.0</ele><time>2026-04-17T16:11:12.182Z</time></trkpt><trkpt lat="45.8766592" lon="13.4126322"><ele>16.0</ele><time>2026-04-17T16:11:13.182Z</time></trkpt><trkpt lat="45.8768425" lon="13.4125888"><ele>16.0</ele><time>2026-04-17T16:11:14.181Z</time></trkpt><trkpt lat="45.8770281" lon="13.4125382"><ele>16.0</ele><time>2026-04-17T16:11:15.182Z</time></trkpt><trkpt lat="45.8772148" lon="13.4124922"><ele>16.0</ele><time>2026-04-17T16:11:16.182Z</time></trkpt><trkpt lat="45.8774059" lon="13.41244"><ele>16.0</ele><time>2026-04-17T16:11:17.182Z</time></trkpt><trkpt lat="45.8775926" lon="13.4123979"><ele>16.333333333333332</ele><time>2026-04-17T16:11:18.182Z</time></trkpt><trkpt lat="45.8777855" lon="13.4123617"><ele>16.666666666666668</ele><time>2026-04-17T16:11:19.182Z</time></trkpt><trkpt lat="45.877976" lon="13.4123273"><ele>17.0</ele><time>2026-04-17T16:11:20.182Z</time></trkpt><trkpt lat="45.8781719" lon="13.4122988"><ele>17.0</ele><time>2026-04-17T16:11:21.182Z</time></trkpt><trkpt lat="45.8783641" lon="13.4122627"><ele>17.0</ele><time>2026-04-17T16:11:22.181Z</time></trkpt><trkpt lat="45.8785602" lon="13.4122297"><ele>17.0</ele><time>2026-04-17T16:11:23.182Z</time></trkpt><trkpt lat="45.8787595" lon="13.4121886"><ele>17.0</ele><time>2026-04-17T16:11:24.182Z</time></trkpt><trkpt lat="45.8789546" lon="13.4121414"><ele>17.0</ele><time>2026-04-17T16:11:25.182Z</time></trkpt><trkpt lat="45.8791433" lon="13.4120814"><ele>17.0</ele><time>2026-04-17T16:11:26.181Z</time></trkpt><trkpt lat="45.8793348" lon="13.4120247"><ele>17.0</ele><time>2026-04-17T16:11:27.182Z</time></trkpt><trkpt lat="45.8795189" lon="13.4119632"><ele>17.0</ele><time>2026-04-17T16:11:28.181Z</time></trkpt><trkpt lat="45.879708" lon="13.4119036"><ele>17.0</ele><time>2026-04-17T16:11:29.182Z</time></trkpt><trkpt lat="45.8798893" lon="13.4118423"><ele>17.0</ele><time>2026-04-17T16:11:30.181Z</time></trkpt><trkpt lat="45.880078" lon="13.4117778"><ele>17.0</ele><time>2026-04-17T16:11:31.182Z</time></trkpt><trkpt lat="45.8802643" lon="13.411723"><ele>17.0</ele><time>2026-04-17T16:11:32.182Z</time></trkpt><trkpt lat="45.8804436" lon="13.4116583"><ele>18.0</ele><time>2026-04-17T16:11:33.181Z</time></trkpt><trkpt lat="45.8806203" lon="13.4115907"><ele>19.0</ele><time>2026-04-17T16:11:34.182Z</time></trkpt><trkpt lat="45.8808" lon="13.4115096"><ele>20.0</ele><time>2026-04-17T16:11:35.182Z</time></trkpt><trkpt lat="45.8809816" lon="13.4114491"><ele>20.0</ele><time>2026-04-17T16:11:36.182Z</time></trkpt><trkpt lat="45.8811501" lon="13.4113779"><ele>20.0</ele><time>2026-04-17T16:11:37.182Z</time></trkpt><trkpt lat="45.8813291" lon="13.4112841"><ele>20.0</ele><time>2026-04-17T16:11:38.182Z</time></trkpt><trkpt lat="45.8815047" lon="13.4111897"><ele>19.333333333333336</ele><time>2026-04-17T16:11:39.182Z</time></trkpt><trkpt lat="45.8816681" lon="13.4110851"><ele>18.666666666666668</ele><time>2026-04-17T16:11:40.181Z</time></trkpt><trkpt lat="45.8818339" lon="13.4109711"><ele>18.0</ele><time>2026-04-17T16:11:41.182Z</time></trkpt><trkpt lat="45.8820044" lon="13.4108591"><ele>18.0</ele><time>2026-04-17T16:11:42.182Z</time></trkpt><trkpt lat="45.8821716" lon="13.4107437"><ele>18.0</ele><time>2026-04-17T16:11:43.182Z</time></trkpt><trkpt lat="45.8823318" lon="13.4106272"><ele>18.0</ele><time>2026-04-17T16:11:44.182Z</time></trkpt><trkpt lat="45.8825009" lon="13.4105066"><ele>18.333333333333332</ele><time>2026-04-17T16:11:45.182Z</time></trkpt><trkpt lat="45.8826694" lon="13.4103809"><ele>18.666666666666664</ele><time>2026-04-17T16:11:46.182Z</time></trkpt><trkpt lat="45.8828372" lon="13.4102545"><ele>19.0</ele><time>2026-04-17T16:11:47.181Z</time></trkpt><trkpt lat="45.8830027" lon="13.4101343"><ele>19.0</ele><time>2026-04-17T16:11:48.182Z</time></trkpt><trkpt lat="45.8831594" lon="13.410012"><ele>19.0</ele><time>2026-04-17T16:11:49.182Z</time></trkpt><trkpt lat="45.8833153" lon="13.4098909"><ele>19.0</ele><time>2026-04-17T16:11:50.182Z</time></trkpt><trkpt lat="45.8834547" lon="13.4097825"><ele>19.2</ele><time>2026-04-17T16:11:51.182Z</time></trkpt><trkpt lat="45.8835729" lon="13.4096911"><ele>19.4</ele><time>2026-04-17T16:11:52.182Z</time></trkpt><trkpt lat="45.8836762" lon="13.4096051"><ele>19.6</ele><time>2026-04-17T16:11:53.181Z</time></trkpt><trkpt lat="45.8837643" lon="13.4095413"><ele>19.8</ele><time>2026-04-17T16:11:54.182Z</time></trkpt><trkpt lat="45.883835" lon="13.4094941"><ele>20.0</ele><time>2026-04-17T16:11:55.181Z</time></trkpt><trkpt lat="45.8839218" lon="13.4094416"><ele>20.0</ele><time>2026-04-17T16:11:57.182Z</time></trkpt><trkpt lat="45.8840129" lon="13.4093637"><ele>20.0</ele><time>2026-04-17T16:11:59.182Z</time></trkpt><trkpt lat="45.8840693" lon="13.4092946"><ele>20.0</ele><time>2026-04-17T16:12:00.182Z</time></trkpt><trkpt lat="45.884143" lon="13.409213"><ele>20.0</ele><time>2026-04-17T16:12:01.182Z</time></trkpt><trkpt lat="45.8842342" lon="13.4091294"><ele>20.0</ele><time>2026-04-17T16:12:02.182Z</time></trkpt><trkpt lat="45.8843508" lon="13.4090248"><ele>19.666666666666668</ele><time>2026-04-17T16:12:03.181Z</time></trkpt><trkpt lat="45.8844841" lon="13.4089062"><ele>19.333333333333332</ele><time>2026-04-17T16:12:04.181Z</time></trkpt><trkpt lat="45.8846179" lon="13.4087841"><ele>19.0</ele><time>2026-04-17T16:12:05.182Z</time></trkpt><trkpt lat="45.8847483" lon="13.4086653"><ele>18.75</ele><time>2026-04-17T16:12:06.182Z</time></trkpt><trkpt lat="45.8848815" lon="13.4085523"><ele>18.5</ele><time>2026-04-17T16:12:07.182Z</time></trkpt><trkpt lat="45.885004" lon="13.4084532"><ele>18.25</ele><time>2026-04-17T16:12:08.182Z</time></trkpt><trkpt lat="45.8851156" lon="13.4083619"><ele>18.0</ele><time>2026-04-17T16:12:09.182Z</time></trkpt><trkpt lat="45.8852212" lon="13.4082828"><ele>18.0</ele><time>2026-04-17T16:12:10.182Z</time></trkpt><trkpt lat="45.8853322" lon="13.4082281"><ele>18.0</ele><time>2026-04-17T16:12:11.182Z</time></trkpt><trkpt lat="45.885445" lon="13.4081915"><ele>18.0</ele><time>2026-04-17T16:12:12.182Z</time></trkpt><trkpt lat="45.8855516" lon="13.4081936"><ele>18.0</ele><time>2026-04-17T16:12:13.182Z</time></trkpt><trkpt lat="45.8856722" lon="13.4082335"><ele>18.0</ele><time>2026-04-17T16:12:14.182Z</time></trkpt><trkpt lat="45.88579" lon="13.4083005"><ele>18.0</ele><time>2026-04-17T16:12:15.181Z</time></trkpt><trkpt lat="45.8859128" lon="13.4083759"><ele>18.0</ele><time>2026-04-17T16:12:16.182Z</time></trkpt><trkpt lat="45.8860398" lon="13.4084577"><ele>18.0</ele><time>2026-04-17T16:12:17.182Z</time></trkpt><trkpt lat="45.8861654" lon="13.4085407"><ele>18.4</ele><time>2026-04-17T16:12:18.182Z</time></trkpt><trkpt lat="45.8862783" lon="13.408615"><ele>18.8</ele><time>2026-04-17T16:12:19.182Z</time></trkpt><trkpt lat="45.8863802" lon="13.4086748"><ele>19.2</ele><time>2026-04-17T16:12:20.182Z</time></trkpt><trkpt lat="45.8864674" lon="13.4087142"><ele>19.6</ele><time>2026-04-17T16:12:21.182Z</time></trkpt><trkpt lat="45.8865446" lon="13.4087277"><ele>20.0</ele><time>2026-04-17T16:12:22.182Z</time></trkpt><trkpt lat="45.8866109" lon="13.4087395"><ele>20.0</ele><time>2026-04-17T16:12:23.181Z</time></trkpt><trkpt lat="45.8867163" lon="13.4087384"><ele>20.0</ele><time>2026-04-17T16:12:25.182Z</time></trkpt><trkpt lat="45.8868034" lon="13.4087233"><ele>20.0</ele><time>2026-04-17T16:12:27.181Z</time></trkpt><trkpt lat="45.8868768" lon="13.4086966"><ele>20.0</ele><time>2026-04-17T16:12:29.182Z</time></trkpt><trkpt lat="45.886943" lon="13.4086611"><ele>20.0</ele><time>2026-04-17T16:12:31.181Z</time></trkpt><trkpt lat="45.8870474" lon="13.4086213"><ele>20.0</ele><time>2026-04-17T16:12:33.181Z</time></trkpt><trkpt lat="45.8871265" lon="13.4085972"><ele>20.25</ele><time>2026-04-17T16:12:34.182Z</time></trkpt><trkpt lat="45.8872256" lon="13.4085583"><ele>20.5</ele><time>2026-04-17T16:12:35.182Z</time></trkpt><trkpt lat="45.8873349" lon="13.408513"><ele>20.75</ele><time>2026-04-17T16:12:36.181Z</time></trkpt><trkpt lat="45.8874596" lon="13.4084516"><ele>21.0</ele><time>2026-04-17T16:12:37.182Z</time></trkpt><trkpt lat="45.8875964" lon="13.4083848"><ele>21.333333333333332</ele><time>2026-04-17T16:12:38.182Z</time></trkpt><trkpt lat="45.8877351" lon="13.4083143"><ele>21.666666666666664</ele><time>2026-04-17T16:12:39.182Z</time></trkpt><trkpt lat="45.8878805" lon="13.4082527"><ele>22.0</ele><time>2026-04-17T16:12:40.182Z</time></trkpt><trkpt lat="45.8880424" lon="13.4081834"><ele>22.0</ele><time>2026-04-17T16:12:41.182Z</time></trkpt><trkpt lat="45.8882179" lon="13.4081151"><ele>22.0</ele><time>2026-04-17T16:12:42.182Z</time></trkpt><trkpt lat="45.888397" lon="13.4080414"><ele>22.0</ele><time>2026-04-17T16:12:43.182Z</time></trkpt><trkpt lat="45.8885789" lon="13.4079718"><ele>22.0</ele><time>2026-04-17T16:12:44.182Z</time></trkpt><trkpt lat="45.8887611" lon="13.4078897"><ele>22.0</ele><time>2026-04-17T16:12:45.182Z</time></trkpt><trkpt lat="45.8889447" lon="13.4078022"><ele>22.0</ele><time>2026-04-17T16:12:46.182Z</time></trkpt><trkpt lat="45.8891357" lon="13.4077131"><ele>22.0</ele><time>2026-04-17T16:12:47.182Z</time></trkpt><trkpt lat="45.8893259" lon="13.4076302"><ele>22.0</ele><time>2026-04-17T16:12:48.182Z</time></trkpt><trkpt lat="45.8895135" lon="13.4075552"><ele>22.0</ele><time>2026-04-17T16:12:49.181Z</time></trkpt><trkpt lat="45.8897027" lon="13.4074804"><ele>22.0</ele><time>2026-04-17T16:12:50.182Z</time></trkpt><trkpt lat="45.8898899" lon="13.4074012"><ele>22.0</ele><time>2026-04-17T16:12:51.182Z</time></trkpt><trkpt lat="45.8900809" lon="13.4073268"><ele>22.0</ele><time>2026-04-17T16:12:52.182Z</time></trkpt><trkpt lat="45.8902667" lon="13.4072336"><ele>23.0</ele><time>2026-04-17T16:12:53.182Z</time></trkpt><trkpt lat="45.8904442" lon="13.407126"><ele>24.0</ele><time>2026-04-17T16:12:54.182Z</time></trkpt><trkpt lat="45.890609" lon="13.4070146"><ele>25.0</ele><time>2026-04-17T16:12:55.182Z</time></trkpt><trkpt lat="45.8907692" lon="13.4069049"><ele>25.0</ele><time>2026-04-17T16:12:56.182Z</time></trkpt><trkpt lat="45.8909268" lon="13.4067984"><ele>25.0</ele><time>2026-04-17T16:12:57.182Z</time></trkpt><trkpt lat="45.891079" lon="13.4067012"><ele>25.0</ele><time>2026-04-17T16:12:58.182Z</time></trkpt><trkpt lat="45.8912167" lon="13.4066208"><ele>25.0</ele><time>2026-04-17T16:12:59.181Z</time></trkpt><trkpt lat="45.8913229" lon="13.4065612"><ele>25.0</ele><time>2026-04-17T16:13:00.182Z</time></trkpt><trkpt lat="45.8914089" lon="13.4065287"><ele>25.0</ele><time>2026-04-17T16:13:01.181Z</time></trkpt><trkpt lat="45.8914904" lon="13.4064913"><ele>25.0</ele><time>2026-04-17T16:13:03.182Z</time></trkpt><trkpt lat="45.8915644" lon="13.4063634"><ele>25.0</ele><time>2026-04-17T16:13:07.182Z</time></trkpt><trkpt lat="45.8915959" lon="13.4062549"><ele>24.833333333333336</ele><time>2026-04-17T16:13:08.182Z</time></trkpt><trkpt lat="45.8916251" lon="13.4061544"><ele>24.666666666666668</ele><time>2026-04-17T16:13:09.182Z</time></trkpt><trkpt lat="45.8916909" lon="13.4060342"><ele>24.5</ele><time>2026-04-17T16:13:11.182Z</time></trkpt><trkpt lat="45.8917813" lon="13.4059513"><ele>24.333333333333336</ele><time>2026-04-17T16:13:13.182Z</time></trkpt><trkpt lat="45.8918639" lon="13.4059052"><ele>24.166666666666668</ele><time>2026-04-17T16:13:15.182Z</time></trkpt><trkpt lat="45.8918889" lon="13.4058115"><ele>24.0</ele><time>2026-04-17T16:13:18.182Z</time></trkpt><trkpt lat="45.8918598" lon="13.4056594"><ele>24.0</ele><time>2026-04-17T16:13:20.182Z</time></trkpt><trkpt lat="45.8918371" lon="13.4055618"><ele>24.0</ele><time>2026-04-17T16:13:21.182Z</time></trkpt><trkpt lat="45.8918235" lon="13.4054585"><ele>24.0</ele><time>2026-04-17T16:13:22.182Z</time></trkpt><trkpt lat="45.8918348" lon="13.4053447"><ele>24.0</ele><time>2026-04-17T16:13:23.182Z</time></trkpt><trkpt lat="45.8918589" lon="13.4052189"><ele>24.0</ele><time>2026-04-17T16:13:24.182Z</time></trkpt><trkpt lat="45.8918888" lon="13.4050889"><ele>24.0</ele><time>2026-04-17T16:13:25.181Z</time></trkpt><trkpt lat="45.8919078" lon="13.4049665"><ele>24.0</ele><time>2026-04-17T16:13:26.182Z</time></trkpt><trkpt lat="45.8919236" lon="13.4048597"><ele>24.0</ele><time>2026-04-17T16:13:27.181Z</time></trkpt><trkpt lat="45.8919386" lon="13.4047665"><ele>24.0</ele><time>2026-04-17T16:13:28.181Z</time></trkpt><trkpt lat="45.8919728" lon="13.4046116"><ele>24.0</ele><time>2026-04-17T16:13:30.181Z</time></trkpt><trkpt lat="45.8920008" lon="13.4044621"><ele>24.0</ele><time>2026-04-17T16:13:32.181Z</time></trkpt><trkpt lat="45.8920344" lon="13.4042781"><ele>23.833333333333332</ele><time>2026-04-17T16:13:34.182Z</time></trkpt><trkpt lat="45.8920621" lon="13.4041588"><ele>23.666666666666668</ele><time>2026-04-17T16:13:35.182Z</time></trkpt><trkpt lat="45.892091" lon="13.4040359"><ele>23.5</ele><time>2026-04-17T16:13:36.181Z</time></trkpt><trkpt lat="45.8921177" lon="13.4039125"><ele>23.333333333333336</ele><time>2026-04-17T16:13:37.182Z</time></trkpt><trkpt lat="45.8921388" lon="13.4037989"><ele>23.166666666666668</ele><time>2026-04-17T16:13:38.182Z</time></trkpt><trkpt lat="45.892157" lon="13.4036909"><ele>23.0</ele><time>2026-04-17T16:13:39.182Z</time></trkpt><trkpt lat="45.8921738" lon="13.4035836"><ele>23.0</ele><time>2026-04-17T16:13:40.181Z</time></trkpt><trkpt lat="45.8921903" lon="13.4034784"><ele>23.0</ele><time>2026-04-17T16:13:41.182Z</time></trkpt><trkpt lat="45.8922114" lon="13.403368"><ele>23.0</ele><time>2026-04-17T16:13:42.182Z</time></trkpt><trkpt lat="45.8922342" lon="13.4032618"><ele>23.0</ele><time>2026-04-17T16:13:43.182Z</time></trkpt><trkpt lat="45.8922561" lon="13.4031546"><ele>23.0</ele><time>2026-04-17T16:13:44.182Z</time></trkpt><trkpt lat="45.8922752" lon="13.4030511"><ele>23.0</ele><time>2026-04-17T16:13:45.182Z</time></trkpt><trkpt lat="45.8922976" lon="13.4029505"><ele>23.166666666666668</ele><time>2026-04-17T16:13:46.182Z</time></trkpt><trkpt lat="45.8923255" lon="13.4028416"><ele>23.333333333333336</ele><time>2026-04-17T16:13:47.182Z</time></trkpt><trkpt lat="45.8923453" lon="13.4027227"><ele>23.5</ele><time>2026-04-17T16:13:48.182Z</time></trkpt><trkpt lat="45.8923667" lon="13.4026068"><ele>23.666666666666668</ele><time>2026-04-17T16:13:49.182Z</time></trkpt><trkpt lat="45.8923854" lon="13.4024854"><ele>23.833333333333332</ele><time>2026-04-17T16:13:50.182Z</time></trkpt><trkpt lat="45.8924064" lon="13.4023595"><ele>24.0</ele><time>2026-04-17T16:13:51.182Z</time></trkpt><trkpt lat="45.8924296" lon="13.4022311"><ele>24.0</ele><time>2026-04-17T16:13:52.181Z</time></trkpt><trkpt lat="45.8924534" lon="13.4021096"><ele>24.0</ele><time>2026-04-17T16:13:53.182Z</time></trkpt><trkpt lat="45.8924724" lon="13.4019911"><ele>24.0</ele><time>2026-04-17T16:13:54.182Z</time></trkpt><trkpt lat="45.8924923" lon="13.401871"><ele>24.0</ele><time>2026-04-17T16:13:55.181Z</time></trkpt><trkpt lat="45.8925148" lon="13.4017468"><ele>24.0</ele><time>2026-04-17T16:13:56.181Z</time></trkpt><trkpt lat="45.8925359" lon="13.4016235"><ele>24.0</ele><time>2026-04-17T16:13:57.182Z</time></trkpt><trkpt lat="45.8925596" lon="13.4015001"><ele>24.0</ele><time>2026-04-17T16:13:58.182Z</time></trkpt><trkpt lat="45.8925876" lon="13.4013782"><ele>24.0</ele><time>2026-04-17T16:13:59.182Z</time></trkpt><trkpt lat="45.8926201" lon="13.4012682"><ele>24.0</ele><time>2026-04-17T16:14:00.182Z</time></trkpt><trkpt lat="45.8926492" lon="13.4011639"><ele>24.0</ele><time>2026-04-17T16:14:01.181Z</time></trkpt><trkpt lat="45.8926747" lon="13.4010668"><ele>24.0</ele><time>2026-04-17T16:14:02.181Z</time></trkpt><trkpt lat="45.8927335" lon="13.4009389"><ele>24.0</ele><time>2026-04-17T16:14:04.181Z</time></trkpt><trkpt lat="45.892804" lon="13.4008697"><ele>24.0</ele><time>2026-04-17T16:14:06.181Z</time></trkpt><trkpt lat="45.8929074" lon="13.4007767"><ele>24.0</ele><time>2026-04-17T16:14:08.181Z</time></trkpt><trkpt lat="45.892976" lon="13.4007266"><ele>24.0</ele><time>2026-04-17T16:14:09.181Z</time></trkpt><trkpt lat="45.8930487" lon="13.4006707"><ele>24.0</ele><time>2026-04-17T16:14:10.181Z</time></trkpt><trkpt lat="45.893139" lon="13.4005896"><ele>24.0</ele><time>2026-04-17T16:14:11.181Z</time></trkpt><trkpt lat="45.8932506" lon="13.400477"><ele>24.0</ele><time>2026-04-17T16:14:12.18Z</time></trkpt><trkpt lat="45.8933787" lon="13.4003677"><ele>24.0</ele><time>2026-04-17T16:14:13.18Z</time></trkpt><trkpt lat="45.8935299" lon="13.4002631"><ele>24.0</ele><time>2026-04-17T16:14:14.18Z</time></trkpt><trkpt lat="45.8936988" lon="13.4001523"><ele>23.666666666666668</ele><time>2026-04-17T16:14:15.181Z</time></trkpt><trkpt lat="45.8938584" lon="13.4000314"><ele>23.333333333333336</ele><time>2026-04-17T16:14:16.181Z</time></trkpt><trkpt lat="45.8940044" lon="13.3999263"><ele>23.0</ele><time>2026-04-17T16:14:17.181Z</time></trkpt><trkpt lat="45.8941573" lon="13.3997979"><ele>23.0</ele><time>2026-04-17T16:14:18.181Z</time></trkpt><trkpt lat="45.8942953" lon="13.3996867"><ele>23.0</ele><time>2026-04-17T16:14:19.181Z</time></trkpt><trkpt lat="45.894415" lon="13.3995814"><ele>23.0</ele><time>2026-04-17T16:14:20.181Z</time></trkpt><trkpt lat="45.8945273" lon="13.399495"><ele>23.0</ele><time>2026-04-17T16:14:21.181Z</time></trkpt><trkpt lat="45.8946266" lon="13.3994273"><ele>23.0</ele><time>2026-04-17T16:14:22.181Z</time></trkpt><trkpt lat="45.8947265" lon="13.3993809"><ele>23.0</ele><time>2026-04-17T16:14:23.18Z</time></trkpt><trkpt lat="45.8948374" lon="13.3993343"><ele>23.0</ele><time>2026-04-17T16:14:24.18Z</time></trkpt><trkpt lat="45.8949784" lon="13.3992772"><ele>23.0</ele><time>2026-04-17T16:14:25.181Z</time></trkpt><trkpt lat="45.8951225" lon="13.3992157"><ele>23.25</ele><time>2026-04-17T16:14:26.181Z</time></trkpt><trkpt lat="45.8952579" lon="13.3991638"><ele>23.5</ele><time>2026-04-17T16:14:27.181Z</time></trkpt><trkpt lat="45.8953781" lon="13.3991191"><ele>23.75</ele><time>2026-04-17T16:14:28.181Z</time></trkpt><trkpt lat="45.8954766" lon="13.3990746"><ele>24.0</ele><time>2026-04-17T16:14:29.181Z</time></trkpt><trkpt lat="45.8955589" lon="13.3990459"><ele>24.0</ele><time>2026-04-17T16:14:30.181Z</time></trkpt><trkpt lat="45.8956158" lon="13.3989987"><ele>24.0</ele><time>2026-04-17T16:14:31.18Z</time></trkpt><trkpt lat="45.8956805" lon="13.3988723"><ele>24.0</ele><time>2026-04-17T16:14:33.181Z</time></trkpt><trkpt lat="45.8956758" lon="13.3987239"><ele>24.0</ele><time>2026-04-17T16:14:35.181Z</time></trkpt><trkpt lat="45.8956239" lon="13.3986037"><ele>24.0</ele><time>2026-04-17T16:14:37.181Z</time></trkpt><trkpt lat="45.8956055" lon="13.3985015"><ele>24.25</ele><time>2026-04-17T16:14:39.181Z</time></trkpt><trkpt lat="45.8956893" lon="13.3983947"><ele>24.5</ele><time>2026-04-17T16:14:41.18Z</time></trkpt><trkpt lat="45.8957879" lon="13.3983174"><ele>24.75</ele><time>2026-04-17T16:14:42.181Z</time></trkpt><trkpt lat="45.8959395" lon="13.3982107"><ele>25.0</ele><time>2026-04-17T16:14:43.181Z</time></trkpt><trkpt lat="45.8961072" lon="13.3980897"><ele>25.0</ele><time>2026-04-17T16:14:44.181Z</time></trkpt><trkpt lat="45.896273" lon="13.3979601"><ele>25.0</ele><time>2026-04-17T16:14:45.181Z</time></trkpt><trkpt lat="45.8964481" lon="13.3978268"><ele>25.0</ele><time>2026-04-17T16:14:46.181Z</time></trkpt><trkpt lat="45.8966231" lon="13.3976974"><ele>25.333333333333336</ele><time>2026-04-17T16:14:47.18Z</time></trkpt><trkpt lat="45.8968021" lon="13.3975631"><ele>25.666666666666664</ele><time>2026-04-17T16:14:48.181Z</time></trkpt><trkpt lat="45.8969731" lon="13.3974312"><ele>26.0</ele><time>2026-04-17T16:14:49.181Z</time></trkpt><trkpt lat="45.8971355" lon="13.3973177"><ele>26.0</ele><time>2026-04-17T16:14:50.18Z</time></trkpt><trkpt lat="45.8972815" lon="13.3972084"><ele>26.0</ele><time>2026-04-17T16:14:51.181Z</time></trkpt><trkpt lat="45.897416" lon="13.3971087"><ele>26.0</ele><time>2026-04-17T16:14:52.18Z</time></trkpt><trkpt lat="45.89753" lon="13.3970338"><ele>26.0</ele><time>2026-04-17T16:14:53.181Z</time></trkpt><trkpt lat="45.8976394" lon="13.3969611"><ele>26.5</ele><time>2026-04-17T16:14:54.181Z</time></trkpt><trkpt lat="45.8977442" lon="13.3968919"><ele>27.0</ele><time>2026-04-17T16:14:55.18Z</time></trkpt><trkpt lat="45.8978563" lon="13.3968079"><ele>27.5</ele><time>2026-04-17T16:14:56.18Z</time></trkpt><trkpt lat="45.8979878" lon="13.3966859"><ele>28.0</ele><time>2026-04-17T16:14:57.181Z</time></trkpt><trkpt lat="45.8981312" lon="13.3965542"><ele>28.0</ele><time>2026-04-17T16:14:58.181Z</time></trkpt><trkpt lat="45.8982894" lon="13.3964277"><ele>28.0</ele><time>2026-04-17T16:14:59.181Z</time></trkpt><trkpt lat="45.8984445" lon="13.3963094"><ele>28.0</ele><time>2026-04-17T16:15:00.18Z</time></trkpt><trkpt lat="45.8986012" lon="13.3961987"><ele>27.666666666666668</ele><time>2026-04-17T16:15:01.181Z</time></trkpt><trkpt lat="45.8987632" lon="13.3960761"><ele>27.333333333333336</ele><time>2026-04-17T16:15:02.181Z</time></trkpt><trkpt lat="45.8989195" lon="13.3959562"><ele>27.0</ele><time>2026-04-17T16:15:03.181Z</time></trkpt><trkpt lat="45.8990686" lon="13.3958464"><ele>27.0</ele><time>2026-04-17T16:15:04.181Z</time></trkpt><trkpt lat="45.899207" lon="13.3957455"><ele>27.0</ele><time>2026-04-17T16:15:05.181Z</time></trkpt><trkpt lat="45.8993463" lon="13.3956436"><ele>27.0</ele><time>2026-04-17T16:15:06.181Z</time></trkpt><trkpt lat="45.8994729" lon="13.395555"><ele>27.75</ele><time>2026-04-17T16:15:07.181Z</time></trkpt><trkpt lat="45.8996048" lon="13.3954425"><ele>28.5</ele><time>2026-04-17T16:15:08.18Z</time></trkpt><trkpt lat="45.8997298" lon="13.3953315"><ele>29.25</ele><time>2026-04-17T16:15:09.181Z</time></trkpt><trkpt lat="45.8998563" lon="13.3952179"><ele>30.0</ele><time>2026-04-17T16:15:10.181Z</time></trkpt><trkpt lat="45.8999816" lon="13.3951143"><ele>30.0</ele><time>2026-04-17T16:15:11.18Z</time></trkpt><trkpt lat="45.9000993" lon="13.3950105"><ele>30.0</ele><time>2026-04-17T16:15:12.181Z</time></trkpt><trkpt lat="45.9002134" lon="13.3948647"><ele>30.0</ele><time>2026-04-17T16:15:13.181Z</time></trkpt><trkpt lat="45.9003352" lon="13.3947058"><ele>29.333333333333336</ele><time>2026-04-17T16:15:14.18Z</time></trkpt><trkpt lat="45.900456" lon="13.3945165"><ele>28.666666666666668</ele><time>2026-04-17T16:15:15.181Z</time></trkpt><trkpt lat="45.900576" lon="13.3943024"><ele>28.0</ele><time>2026-04-17T16:15:16.18Z</time></trkpt><trkpt lat="45.9007034" lon="13.3940911"><ele>28.0</ele><time>2026-04-17T16:15:17.181Z</time></trkpt><trkpt lat="45.9008325" lon="13.3938862"><ele>28.0</ele><time>2026-04-17T16:15:18.18Z</time></trkpt><trkpt lat="45.9009631" lon="13.3936866"><ele>28.0</ele><time>2026-04-17T16:15:19.181Z</time></trkpt><trkpt lat="45.9010977" lon="13.3934864"><ele>28.0</ele><time>2026-04-17T16:15:20.181Z</time></trkpt><trkpt lat="45.9012461" lon="13.3932875"><ele>28.0</ele><time>2026-04-17T16:15:21.181Z</time></trkpt><trkpt lat="45.9014042" lon="13.3930853"><ele>28.0</ele><time>2026-04-17T16:15:22.181Z</time></trkpt><trkpt lat="45.9015625" lon="13.3928922"><ele>27.666666666666668</ele><time>2026-04-17T16:15:23.181Z</time></trkpt><trkpt lat="45.9017303" lon="13.3926942"><ele>27.333333333333336</ele><time>2026-04-17T16:15:24.181Z</time></trkpt><trkpt lat="45.9018976" lon="13.3925023"><ele>27.0</ele><time>2026-04-17T16:15:25.181Z</time></trkpt><trkpt lat="45.9020632" lon="13.3922978"><ele>26.333333333333336</ele><time>2026-04-17T16:15:26.18Z</time></trkpt><trkpt lat="45.9022311" lon="13.3920985"><ele>25.666666666666668</ele><time>2026-04-17T16:15:27.181Z</time></trkpt><trkpt lat="45.902388" lon="13.3919086"><ele>25.0</ele><time>2026-04-17T16:15:28.181Z</time></trkpt><trkpt lat="45.90255" lon="13.391708"><ele>25.666666666666668</ele><time>2026-04-17T16:15:29.181Z</time></trkpt><trkpt lat="45.9027035" lon="13.3914948"><ele>26.333333333333336</ele><time>2026-04-17T16:15:30.181Z</time></trkpt><trkpt lat="45.9028478" lon="13.3912633"><ele>27.0</ele><time>2026-04-17T16:15:31.181Z</time></trkpt><trkpt lat="45.9029974" lon="13.3910249"><ele>27.0</ele><time>2026-04-17T16:15:32.18Z</time></trkpt><trkpt lat="45.9031502" lon="13.390774"><ele>27.0</ele><time>2026-04-17T16:15:33.181Z</time></trkpt><trkpt lat="45.9032982" lon="13.3905229"><ele>26.666666666666664</ele><time>2026-04-17T16:15:34.181Z</time></trkpt><trkpt lat="45.9034382" lon="13.390277"><ele>26.333333333333332</ele><time>2026-04-17T16:15:35.181Z</time></trkpt><trkpt lat="45.9035881" lon="13.39004"><ele>26.0</ele><time>2026-04-17T16:15:36.181Z</time></trkpt><trkpt lat="45.9037378" lon="13.3897926"><ele>26.5</ele><time>2026-04-17T16:15:37.181Z</time></trkpt><trkpt lat="45.9038846" lon="13.3895435"><ele>27.0</ele><time>2026-04-17T16:15:38.181Z</time></trkpt><trkpt lat="45.9040345" lon="13.3893043"><ele>27.0</ele><time>2026-04-17T16:15:39.18Z</time></trkpt><trkpt lat="45.9041846" lon="13.3890641"><ele>27.0</ele><time>2026-04-17T16:15:40.181Z</time></trkpt><trkpt lat="45.9043311" lon="13.3888282"><ele>27.0</ele><time>2026-04-17T16:15:41.18Z</time></trkpt><trkpt lat="45.9044791" lon="13.3886071"><ele>26.666666666666664</ele><time>2026-04-17T16:15:42.18Z</time></trkpt><trkpt lat="45.9046188" lon="13.3883703"><ele>26.333333333333332</ele><time>2026-04-17T16:15:43.181Z</time></trkpt><trkpt lat="45.9047643" lon="13.3881436"><ele>26.0</ele><time>2026-04-17T16:15:44.181Z</time></trkpt><trkpt lat="45.9048958" lon="13.3879326"><ele>26.0</ele><time>2026-04-17T16:15:45.181Z</time></trkpt><trkpt lat="45.905026" lon="13.3877262"><ele>26.0</ele><time>2026-04-17T16:15:46.18Z</time></trkpt><trkpt lat="45.90515" lon="13.3875343"><ele>26.0</ele><time>2026-04-17T16:15:47.181Z</time></trkpt><trkpt lat="45.9052573" lon="13.3873564"><ele>26.5</ele><time>2026-04-17T16:15:48.181Z</time></trkpt><trkpt lat="45.9053596" lon="13.3871892"><ele>27.0</ele><time>2026-04-17T16:15:49.18Z</time></trkpt><trkpt lat="45.905456" lon="13.387028"><ele>27.5</ele><time>2026-04-17T16:15:50.181Z</time></trkpt><trkpt lat="45.9055505" lon="13.386891"><ele>28.0</ele><time>2026-04-17T16:15:51.181Z</time></trkpt><trkpt lat="45.9056502" lon="13.386774"><ele>28.0</ele><time>2026-04-17T16:15:52.18Z</time></trkpt><trkpt lat="45.9057653" lon="13.386666"><ele>28.0</ele><time>2026-04-17T16:15:53.18Z</time></trkpt><trkpt lat="45.9058869" lon="13.3865523"><ele>28.0</ele><time>2026-04-17T16:15:54.181Z</time></trkpt><trkpt lat="45.906005" lon="13.3864496"><ele>28.0</ele><time>2026-04-17T16:15:55.181Z</time></trkpt><trkpt lat="45.9061182" lon="13.3863681"><ele>28.4</ele><time>2026-04-17T16:15:56.181Z</time></trkpt><trkpt lat="45.9062217" lon="13.3863053"><ele>28.799999999999997</ele><time>2026-04-17T16:15:57.18Z</time></trkpt><trkpt lat="45.9063121" lon="13.3862517"><ele>29.2</ele><time>2026-04-17T16:15:58.18Z</time></trkpt><trkpt lat="45.906395" lon="13.3861999"><ele>29.6</ele><time>2026-04-17T16:15:59.181Z</time></trkpt><trkpt lat="45.9064723" lon="13.386155"><ele>30.0</ele><time>2026-04-17T16:16:00.181Z</time></trkpt><trkpt lat="45.9065348" lon="13.3861257"><ele>30.0</ele><time>2026-04-17T16:16:01.18Z</time></trkpt><trkpt lat="45.9066113" lon="13.3860965"><ele>30.0</ele><time>2026-04-17T16:16:03.181Z</time></trkpt><trkpt lat="45.9066688" lon="13.3861879"><ele>30.0</ele><time>2026-04-17T16:16:07.18Z</time></trkpt><trkpt lat="45.9066923" lon="13.3863447"><ele>30.0</ele><time>2026-04-17T16:16:09.181Z</time></trkpt><trkpt lat="45.906697" lon="13.3864388"><ele>30.0</ele><time>2026-04-17T16:16:10.18Z</time></trkpt><trkpt lat="45.9067183" lon="13.3865614"><ele>30.0</ele><time>2026-04-17T16:16:12.18Z</time></trkpt><trkpt lat="45.9068058" lon="13.3865509"><ele>30.2</ele><time>2026-04-17T16:16:15.18Z</time></trkpt><trkpt lat="45.9068645" lon="13.3865137"><ele>30.4</ele><time>2026-04-17T16:16:16.181Z</time></trkpt><trkpt lat="45.9069396" lon="13.3864721"><ele>30.6</ele><time>2026-04-17T16:16:17.18Z</time></trkpt><trkpt lat="45.9070314" lon="13.3864243"><ele>30.8</ele><time>2026-04-17T16:16:18.18Z</time></trkpt><trkpt lat="45.9071383" lon="13.3863696"><ele>31.0</ele><time>2026-04-17T16:16:19.18Z</time></trkpt><trkpt lat="45.9072481" lon="13.3863051"><ele>31.0</ele><time>2026-04-17T16:16:20.181Z</time></trkpt><trkpt lat="45.9073648" lon="13.386225"><ele>31.0</ele><time>2026-04-17T16:16:21.181Z</time></trkpt><trkpt lat="45.9074823" lon="13.3861272"><ele>31.0</ele><time>2026-04-17T16:16:22.181Z</time></trkpt><trkpt lat="45.9076041" lon="13.3860253"><ele>31.0</ele><time>2026-04-17T16:16:23.181Z</time></trkpt><trkpt lat="45.9077327" lon="13.3859263"><ele>31.0</ele><time>2026-04-17T16:16:24.181Z</time></trkpt><trkpt lat="45.9078691" lon="13.38583"><ele>31.0</ele><time>2026-04-17T16:16:25.181Z</time></trkpt><trkpt lat="45.9080088" lon="13.3857346"><ele>31.0</ele><time>2026-04-17T16:16:26.181Z</time></trkpt><trkpt lat="45.9081414" lon="13.3856495"><ele>31.0</ele><time>2026-04-17T16:16:27.18Z</time></trkpt><trkpt lat="45.9082721" lon="13.3855706"><ele>31.0</ele><time>2026-04-17T16:16:28.181Z</time></trkpt><trkpt lat="45.908414" lon="13.3854952"><ele>31.0</ele><time>2026-04-17T16:16:29.181Z</time></trkpt><trkpt lat="45.9085531" lon="13.385411"><ele>31.0</ele><time>2026-04-17T16:16:30.181Z</time></trkpt><trkpt lat="45.9086949" lon="13.3853286"><ele>30.666666666666668</ele><time>2026-04-17T16:16:31.181Z</time></trkpt><trkpt lat="45.9088425" lon="13.3852513"><ele>30.333333333333336</ele><time>2026-04-17T16:16:32.181Z</time></trkpt><trkpt lat="45.908987" lon="13.3851659"><ele>30.0</ele><time>2026-04-17T16:16:33.18Z</time></trkpt><trkpt lat="45.9091447" lon="13.3850668"><ele>30.0</ele><time>2026-04-17T16:16:34.18Z</time></trkpt><trkpt lat="45.9093033" lon="13.3849723"><ele>30.0</ele><time>2026-04-17T16:16:35.181Z</time></trkpt><trkpt lat="45.9094589" lon="13.3848872"><ele>30.0</ele><time>2026-04-17T16:16:36.181Z</time></trkpt><trkpt lat="45.9096069" lon="13.3847973"><ele>30.0</ele><time>2026-04-17T16:16:37.181Z</time></trkpt><trkpt lat="45.9097537" lon="13.3847017"><ele>30.0</ele><time>2026-04-17T16:16:38.181Z</time></trkpt><trkpt lat="45.9099049" lon="13.3846065"><ele>30.0</ele><time>2026-04-17T16:16:39.181Z</time></trkpt><trkpt lat="45.9100564" lon="13.3845142"><ele>30.0</ele><time>2026-04-17T16:16:40.181Z</time></trkpt><trkpt lat="45.9102095" lon="13.3844253"><ele>30.0</ele><time>2026-04-17T16:16:41.181Z</time></trkpt><trkpt lat="45.9103626" lon="13.3843314"><ele>30.0</ele><time>2026-04-17T16:16:42.18Z</time></trkpt><trkpt lat="45.9105232" lon="13.384256"><ele>30.0</ele><time>2026-04-17T16:16:43.181Z</time></trkpt><trkpt lat="45.9106771" lon="13.3841715"><ele>30.0</ele><time>2026-04-17T16:16:44.181Z</time></trkpt><trkpt lat="45.9108219" lon="13.3840874"><ele>30.0</ele><time>2026-04-17T16:16:45.18Z</time></trkpt><trkpt lat="45.9109683" lon="13.3840031"><ele>30.0</ele><time>2026-04-17T16:16:46.18Z</time></trkpt><trkpt lat="45.9111123" lon="13.3839217"><ele>30.0</ele><time>2026-04-17T16:16:47.181Z</time></trkpt><trkpt lat="45.9112597" lon="13.3838347"><ele>30.0</ele><time>2026-04-17T16:16:48.18Z</time></trkpt><trkpt lat="45.9114021" lon="13.3837467"><ele>30.333333333333336</ele><time>2026-04-17T16:16:49.18Z</time></trkpt><trkpt lat="45.9115465" lon="13.3836613"><ele>30.666666666666668</ele><time>2026-04-17T16:16:50.181Z</time></trkpt><trkpt lat="45.9116942" lon="13.3835622"><ele>31.0</ele><time>2026-04-17T16:16:51.18Z</time></trkpt><trkpt lat="45.9118328" lon="13.3834672"><ele>31.666666666666668</ele><time>2026-04-17T16:16:52.181Z</time></trkpt><trkpt lat="45.9119746" lon="13.3833649"><ele>32.333333333333336</ele><time>2026-04-17T16:16:53.18Z</time></trkpt><trkpt lat="45.9121058" lon="13.3832539"><ele>33.0</ele><time>2026-04-17T16:16:54.181Z</time></trkpt><trkpt lat="45.9122342" lon="13.3831356"><ele>33.0</ele><time>2026-04-17T16:16:55.181Z</time></trkpt><trkpt lat="45.9123649" lon="13.3830043"><ele>33.0</ele><time>2026-04-17T16:16:56.181Z</time></trkpt><trkpt lat="45.9124978" lon="13.3828677"><ele>33.0</ele><time>2026-04-17T16:16:57.18Z</time></trkpt><trkpt lat="45.9126254" lon="13.3827339"><ele>33.333333333333336</ele><time>2026-04-17T16:16:58.181Z</time></trkpt><trkpt lat="45.9127622" lon="13.3826046"><ele>33.66666666666667</ele><time>2026-04-17T16:16:59.181Z</time></trkpt><trkpt lat="45.9129006" lon="13.382473"><ele>34.0</ele><time>2026-04-17T16:17:00.181Z</time></trkpt><trkpt lat="45.9130366" lon="13.3823409"><ele>34.0</ele><time>2026-04-17T16:17:01.18Z</time></trkpt><trkpt lat="45.9131717" lon="13.3822064"><ele>34.0</ele><time>2026-04-17T16:17:02.181Z</time></trkpt><trkpt lat="45.9133028" lon="13.3820782"><ele>34.0</ele><time>2026-04-17T16:17:03.181Z</time></trkpt><trkpt lat="45.9134443" lon="13.381954"><ele>34.0</ele><time>2026-04-17T16:17:04.181Z</time></trkpt><trkpt lat="45.9135874" lon="13.3818128"><ele>34.0</ele><time>2026-04-17T16:17:05.181Z</time></trkpt><trkpt lat="45.9137214" lon="13.3816686"><ele>34.0</ele><time>2026-04-17T16:17:06.181Z</time></trkpt><trkpt lat="45.9138626" lon="13.3815293"><ele>34.0</ele><time>2026-04-17T16:17:07.181Z</time></trkpt><trkpt lat="45.9140061" lon="13.3813967"><ele>34.0</ele><time>2026-04-17T16:17:08.181Z</time></trkpt><trkpt lat="45.914144" lon="13.3812655"><ele>34.0</ele><time>2026-04-17T16:17:09.181Z</time></trkpt><trkpt lat="45.9142849" lon="13.3811263"><ele>33.25</ele><time>2026-04-17T16:17:10.181Z</time></trkpt><trkpt lat="45.9144164" lon="13.3809824"><ele>32.5</ele><time>2026-04-17T16:17:11.18Z</time></trkpt><trkpt lat="45.9145368" lon="13.3808615"><ele>31.75</ele><time>2026-04-17T16:17:12.18Z</time></trkpt><trkpt lat="45.9146448" lon="13.3807604"><ele>31.0</ele><time>2026-04-17T16:17:13.181Z</time></trkpt><trkpt lat="45.9147502" lon="13.3806756"><ele>31.0</ele><time>2026-04-17T16:17:14.18Z</time></trkpt><trkpt lat="45.9148494" lon="13.3805983"><ele>31.0</ele><time>2026-04-17T16:17:15.181Z</time></trkpt><trkpt lat="45.9149517" lon="13.3805154"><ele>31.0</ele><time>2026-04-17T16:17:16.181Z</time></trkpt><trkpt lat="45.9150548" lon="13.3804254"><ele>31.0</ele><time>2026-04-17T16:17:17.18Z</time></trkpt><trkpt lat="45.915172" lon="13.3803207"><ele>31.0</ele><time>2026-04-17T16:17:18.181Z</time></trkpt><trkpt lat="45.9152956" lon="13.3802233"><ele>31.0</ele><time>2026-04-17T16:17:19.181Z</time></trkpt><trkpt lat="45.9154159" lon="13.3801262"><ele>31.0</ele><time>2026-04-17T16:17:20.181Z</time></trkpt><trkpt lat="45.9155479" lon="13.3800323"><ele>31.0</ele><time>2026-04-17T16:17:21.181Z</time></trkpt><trkpt lat="45.9156888" lon="13.3799389"><ele>31.0</ele><time>2026-04-17T16:17:22.181Z</time></trkpt><trkpt lat="45.9158264" lon="13.3798545"><ele>31.0</ele><time>2026-04-17T16:17:23.181Z</time></trkpt><trkpt lat="45.9159496" lon="13.3797736"><ele>31.0</ele><time>2026-04-17T16:17:24.18Z</time></trkpt><trkpt lat="45.9160716" lon="13.3797089"><ele>31.0</ele><time>2026-04-17T16:17:25.181Z</time></trkpt><trkpt lat="45.9161841" lon="13.3796561"><ele>31.25</ele><time>2026-04-17T16:17:26.18Z</time></trkpt><trkpt lat="45.9163017" lon="13.3796019"><ele>31.5</ele><time>2026-04-17T16:17:27.18Z</time></trkpt><trkpt lat="45.9164338" lon="13.3795414"><ele>31.75</ele><time>2026-04-17T16:17:28.181Z</time></trkpt><trkpt lat="45.9165713" lon="13.3794845"><ele>32.0</ele><time>2026-04-17T16:17:29.181Z</time></trkpt><trkpt lat="45.9167125" lon="13.3794269"><ele>31.75</ele><time>2026-04-17T16:17:30.181Z</time></trkpt><trkpt lat="45.9168504" lon="13.3793651"><ele>31.5</ele><time>2026-04-17T16:17:31.181Z</time></trkpt><trkpt lat="45.9169887" lon="13.3793089"><ele>31.25</ele><time>2026-04-17T16:17:32.181Z</time></trkpt><trkpt lat="45.9171299" lon="13.379258"><ele>31.0</ele><time>2026-04-17T16:17:33.181Z</time></trkpt><trkpt lat="45.9172749" lon="13.3791955"><ele>31.0</ele><time>2026-04-17T16:17:34.181Z</time></trkpt><trkpt lat="45.9174201" lon="13.3791359"><ele>31.0</ele><time>2026-04-17T16:17:35.18Z</time></trkpt><trkpt lat="45.9175583" lon="13.3790765"><ele>31.0</ele><time>2026-04-17T16:17:36.18Z</time></trkpt><trkpt lat="45.9176828" lon="13.3790207"><ele>31.0</ele><time>2026-04-17T16:17:37.181Z</time></trkpt><trkpt lat="45.9177978" lon="13.3789719"><ele>31.0</ele><time>2026-04-17T16:17:38.18Z</time></trkpt><trkpt lat="45.9179145" lon="13.3789259"><ele>31.0</ele><time>2026-04-17T16:17:39.18Z</time></trkpt><trkpt lat="45.9180254" lon="13.3788794"><ele>31.0</ele><time>2026-04-17T16:17:40.18Z</time></trkpt><trkpt lat="45.9181442" lon="13.3788411"><ele>31.0</ele><time>2026-04-17T16:17:41.181Z</time></trkpt><trkpt lat="45.9182672" lon="13.3787872"><ele>30.5</ele><time>2026-04-17T16:17:42.181Z</time></trkpt><trkpt lat="45.9184036" lon="13.3787447"><ele>30.0</ele><time>2026-04-17T16:17:43.181Z</time></trkpt><trkpt lat="45.9185418" lon="13.3786764"><ele>29.5</ele><time>2026-04-17T16:17:44.181Z</time></trkpt><trkpt lat="45.9186788" lon="13.3786178"><ele>29.0</ele><time>2026-04-17T16:17:45.181Z</time></trkpt><trkpt lat="45.9188217" lon="13.3785564"><ele>29.0</ele><time>2026-04-17T16:17:46.181Z</time></trkpt><trkpt lat="45.9189743" lon="13.3784944"><ele>29.0</ele><time>2026-04-17T16:17:47.181Z</time></trkpt><trkpt lat="45.9191276" lon="13.378434"><ele>29.0</ele><time>2026-04-17T16:17:48.18Z</time></trkpt><trkpt lat="45.9192802" lon="13.3783737"><ele>30.0</ele><time>2026-04-17T16:17:49.181Z</time></trkpt><trkpt lat="45.9194329" lon="13.3783138"><ele>31.0</ele><time>2026-04-17T16:17:50.18Z</time></trkpt><trkpt lat="45.9195848" lon="13.378251"><ele>32.0</ele><time>2026-04-17T16:17:51.18Z</time></trkpt><trkpt lat="45.9197379" lon="13.3781864"><ele>32.0</ele><time>2026-04-17T16:17:52.181Z</time></trkpt><trkpt lat="45.919892" lon="13.3781197"><ele>32.0</ele><time>2026-04-17T16:17:53.181Z</time></trkpt><trkpt lat="45.9200394" lon="13.3780594"><ele>32.0</ele><time>2026-04-17T16:17:54.181Z</time></trkpt><trkpt lat="45.9201902" lon="13.3779918"><ele>32.0</ele><time>2026-04-17T16:17:55.18Z</time></trkpt><trkpt lat="45.9203525" lon="13.3779288"><ele>32.0</ele><time>2026-04-17T16:17:56.181Z</time></trkpt><trkpt lat="45.9205128" lon="13.3778578"><ele>32.0</ele><time>2026-04-17T16:17:57.18Z</time></trkpt><trkpt lat="45.9206704" lon="13.3777854"><ele>32.0</ele><time>2026-04-17T16:17:58.18Z</time></trkpt><trkpt lat="45.920824" lon="13.3777293"><ele>32.0</ele><time>2026-04-17T16:17:59.18Z</time></trkpt><trkpt lat="45.920976" lon="13.377667"><ele>32.0</ele><time>2026-04-17T16:18:00.181Z</time></trkpt><trkpt lat="45.9211318" lon="13.3775921"><ele>31.666666666666664</ele><time>2026-04-17T16:18:01.181Z</time></trkpt><trkpt lat="45.9212834" lon="13.3775195"><ele>31.333333333333336</ele><time>2026-04-17T16:18:02.181Z</time></trkpt><trkpt lat="45.9214338" lon="13.3774483"><ele>31.0</ele><time>2026-04-17T16:18:03.181Z</time></trkpt><trkpt lat="45.9215843" lon="13.3773772"><ele>31.0</ele><time>2026-04-17T16:18:04.181Z</time></trkpt><trkpt lat="45.9217416" lon="13.377314"><ele>31.0</ele><time>2026-04-17T16:18:05.181Z</time></trkpt><trkpt lat="45.921899" lon="13.3772425"><ele>31.0</ele><time>2026-04-17T16:18:06.18Z</time></trkpt><trkpt lat="45.9220534" lon="13.3771777"><ele>31.0</ele><time>2026-04-17T16:18:07.181Z</time></trkpt><trkpt lat="45.9222105" lon="13.3771054"><ele>31.0</ele><time>2026-04-17T16:18:08.181Z</time></trkpt><trkpt lat="45.9223507" lon="13.3770279"><ele>31.0</ele><time>2026-04-17T16:18:09.181Z</time></trkpt><trkpt lat="45.9224598" lon="13.3769566"><ele>31.0</ele><time>2026-04-17T16:18:10.181Z</time></trkpt><trkpt lat="45.922556" lon="13.3768873"><ele>31.6</ele><time>2026-04-17T16:18:11.18Z</time></trkpt><trkpt lat="45.9226514" lon="13.376824"><ele>32.2</ele><time>2026-04-17T16:18:12.181Z</time></trkpt><trkpt lat="45.9227322" lon="13.3767674"><ele>32.8</ele><time>2026-04-17T16:18:13.18Z</time></trkpt><trkpt lat="45.9227915" lon="13.3767173"><ele>33.4</ele><time>2026-04-17T16:18:14.181Z</time></trkpt><trkpt lat="45.9228667" lon="13.3766446"><ele>34.0</ele><time>2026-04-17T16:18:16.181Z</time></trkpt><trkpt lat="45.9229887" lon="13.3765684"><ele>34.0</ele><time>2026-04-17T16:18:18.181Z</time></trkpt><trkpt lat="45.9230621" lon="13.3765097"><ele>34.0</ele><time>2026-04-17T16:18:19.181Z</time></trkpt><trkpt lat="45.9231249" lon="13.3764636"><ele>34.0</ele><time>2026-04-17T16:18:20.181Z</time></trkpt><trkpt lat="45.9231827" lon="13.3764161"><ele>34.0</ele><time>2026-04-17T16:18:21.18Z</time></trkpt><trkpt lat="45.9232322" lon="13.3763582"><ele>34.0</ele><time>2026-04-17T16:18:22.181Z</time></trkpt><trkpt lat="45.9233214" lon="13.3762579"><ele>34.0</ele><time>2026-04-17T16:18:24.18Z</time></trkpt><trkpt lat="45.9234173" lon="13.3761472"><ele>34.5</ele><time>2026-04-17T16:18:26.181Z</time></trkpt><trkpt lat="45.9234998" lon="13.3760156"><ele>35.0</ele><time>2026-04-17T16:18:28.181Z</time></trkpt><trkpt lat="45.9235318" lon="13.3759302"><ele>35.5</ele><time>2026-04-17T16:18:29.181Z</time></trkpt><trkpt lat="45.9235492" lon="13.3758326"><ele>36.0</ele><time>2026-04-17T16:18:30.18Z</time></trkpt><trkpt lat="45.9235768" lon="13.3757312"><ele>36.5</ele><time>2026-04-17T16:18:31.18Z</time></trkpt><trkpt lat="45.9236083" lon="13.3756292"><ele>37.0</ele><time>2026-04-17T16:18:32.181Z</time></trkpt><trkpt lat="45.9236419" lon="13.3755232"><ele>37.4</ele><time>2026-04-17T16:18:33.181Z</time></trkpt><trkpt lat="45.9236837" lon="13.3754052"><ele>37.800000000000004</ele><time>2026-04-17T16:18:34.18Z</time></trkpt><trkpt lat="45.9237228" lon="13.3752876"><ele>38.2</ele><time>2026-04-17T16:18:35.181Z</time></trkpt><trkpt lat="45.9237639" lon="13.3751572"><ele>38.6</ele><time>2026-04-17T16:18:36.181Z</time></trkpt><trkpt lat="45.9237998" lon="13.3750286"><ele>39.0</ele><time>2026-04-17T16:18:37.181Z</time></trkpt><trkpt lat="45.9238346" lon="13.3749054"><ele>39.0</ele><time>2026-04-17T16:18:38.181Z</time></trkpt><trkpt lat="45.9238785" lon="13.3747776"><ele>39.0</ele><time>2026-04-17T16:18:39.181Z</time></trkpt><trkpt lat="45.9239236" lon="13.3746463"><ele>39.0</ele><time>2026-04-17T16:18:40.18Z</time></trkpt><trkpt lat="45.9239602" lon="13.3745242"><ele>39.0</ele><time>2026-04-17T16:18:41.181Z</time></trkpt><trkpt lat="45.9239993" lon="13.374405"><ele>39.0</ele><time>2026-04-17T16:18:42.181Z</time></trkpt><trkpt lat="45.9240446" lon="13.3742876"><ele>38.8</ele><time>2026-04-17T16:18:43.181Z</time></trkpt><trkpt lat="45.9240946" lon="13.374174"><ele>38.599999999999994</ele><time>2026-04-17T16:18:44.18Z</time></trkpt><trkpt lat="45.9241485" lon="13.3740705"><ele>38.4</ele><time>2026-04-17T16:18:45.181Z</time></trkpt><trkpt lat="45.9242053" lon="13.3739624"><ele>38.199999999999996</ele><time>2026-04-17T16:18:46.181Z</time></trkpt><trkpt lat="45.9242716" lon="13.3738533"><ele>38.0</ele><time>2026-04-17T16:18:47.181Z</time></trkpt><trkpt lat="45.9243475" lon="13.3737333"><ele>37.5</ele><time>2026-04-17T16:18:48.181Z</time></trkpt><trkpt lat="45.9244274" lon="13.3736041"><ele>37.0</ele><time>2026-04-17T16:18:49.181Z</time></trkpt><trkpt lat="45.924507" lon="13.3734895"><ele>36.5</ele><time>2026-04-17T16:18:50.18Z</time></trkpt><trkpt lat="45.9246116" lon="13.3734078"><ele>36.0</ele><time>2026-04-17T16:18:51.18Z</time></trkpt><trkpt lat="45.9246977" lon="13.373298"><ele>36.0</ele><time>2026-04-17T16:18:52.181Z</time></trkpt><trkpt lat="45.9247878" lon="13.3732119"><ele>36.0</ele><time>2026-04-17T16:18:53.181Z</time></trkpt><trkpt lat="45.9248777" lon="13.3731108"><ele>36.0</ele><time>2026-04-17T16:18:54.18Z</time></trkpt><trkpt lat="45.924954" lon="13.3730111"><ele>36.0</ele><time>2026-04-17T16:18:55.181Z</time></trkpt><trkpt lat="45.92503" lon="13.3729082"><ele>36.0</ele><time>2026-04-17T16:18:56.18Z</time></trkpt><trkpt lat="45.925114" lon="13.3728322"><ele>36.0</ele><time>2026-04-17T16:18:57.181Z</time></trkpt><trkpt lat="45.925201" lon="13.3727492"><ele>36.0</ele><time>2026-04-17T16:18:58.181Z</time></trkpt><trkpt lat="45.9252899" lon="13.3726732"><ele>36.0</ele><time>2026-04-17T16:18:59.181Z</time></trkpt><trkpt lat="45.9253848" lon="13.3725963"><ele>36.0</ele><time>2026-04-17T16:19:00.181Z</time></trkpt><trkpt lat="45.9254766" lon="13.3725154"><ele>36.0</ele><time>2026-04-17T16:19:01.18Z</time></trkpt><trkpt lat="45.925567" lon="13.3724299"><ele>36.0</ele><time>2026-04-17T16:19:02.18Z</time></trkpt><trkpt lat="45.9256623" lon="13.3723315"><ele>36.0</ele><time>2026-04-17T16:19:03.181Z</time></trkpt><trkpt lat="45.9257633" lon="13.3722389"><ele>36.0</ele><time>2026-04-17T16:19:04.18Z</time></trkpt><trkpt lat="45.9258552" lon="13.3721546"><ele>36.0</ele><time>2026-04-17T16:19:05.18Z</time></trkpt><trkpt lat="45.9259452" lon="13.3720727"><ele>36.166666666666664</ele><time>2026-04-17T16:19:06.18Z</time></trkpt><trkpt lat="45.9260303" lon="13.3720006"><ele>36.333333333333336</ele><time>2026-04-17T16:19:07.18Z</time></trkpt><trkpt lat="45.9261028" lon="13.3719395"><ele>36.5</ele><time>2026-04-17T16:19:08.181Z</time></trkpt><trkpt lat="45.9261631" lon="13.3718914"><ele>36.66666666666667</ele><time>2026-04-17T16:19:09.181Z</time></trkpt><trkpt lat="45.9262224" lon="13.3718356"><ele>36.833333333333336</ele><time>2026-04-17T16:19:10.181Z</time></trkpt><trkpt lat="45.9262912" lon="13.371784"><ele>37.0</ele><time>2026-04-17T16:19:11.18Z</time></trkpt><trkpt lat="45.9263709" lon="13.3717192"><ele>37.0</ele><time>2026-04-17T16:19:12.181Z</time></trkpt><trkpt lat="45.9264593" lon="13.3716437"><ele>37.0</ele><time>2026-04-17T16:19:13.181Z</time></trkpt><trkpt lat="45.9265363" lon="13.3715636"><ele>37.0</ele><time>2026-04-17T16:19:14.181Z</time></trkpt><trkpt lat="45.9266117" lon="13.3714886"><ele>37.0</ele><time>2026-04-17T16:19:15.181Z</time></trkpt><trkpt lat="45.9266929" lon="13.3713958"><ele>37.0</ele><time>2026-04-17T16:19:16.18Z</time></trkpt><trkpt lat="45.9267958" lon="13.3712877"><ele>36.66666666666667</ele><time>2026-04-17T16:19:17.181Z</time></trkpt><trkpt lat="45.9269114" lon="13.3711752"><ele>36.333333333333336</ele><time>2026-04-17T16:19:18.18Z</time></trkpt><trkpt lat="45.927046" lon="13.3710461"><ele>36.0</ele><time>2026-04-17T16:19:19.181Z</time></trkpt><trkpt lat="45.9271854" lon="13.3709098"><ele>36.0</ele><time>2026-04-17T16:19:20.18Z</time></trkpt><trkpt lat="45.927335" lon="13.3707672"><ele>36.0</ele><time>2026-04-17T16:19:21.181Z</time></trkpt><trkpt lat="45.9274919" lon="13.3706324"><ele>36.0</ele><time>2026-04-17T16:19:22.181Z</time></trkpt><trkpt lat="45.9276539" lon="13.3704881"><ele>35.666666666666664</ele><time>2026-04-17T16:19:23.181Z</time></trkpt><trkpt lat="45.9278128" lon="13.370346"><ele>35.33333333333333</ele><time>2026-04-17T16:19:24.181Z</time></trkpt><trkpt lat="45.9279663" lon="13.3702077"><ele>35.0</ele><time>2026-04-17T16:19:25.181Z</time></trkpt><trkpt lat="45.9281105" lon="13.3700785"><ele>35.0</ele><time>2026-04-17T16:19:26.181Z</time></trkpt><trkpt lat="45.9282537" lon="13.3699511"><ele>35.0</ele><time>2026-04-17T16:19:27.18Z</time></trkpt><trkpt lat="45.928397" lon="13.3698151"><ele>35.0</ele><time>2026-04-17T16:19:28.181Z</time></trkpt><trkpt lat="45.9285345" lon="13.3696815"><ele>35.0</ele><time>2026-04-17T16:19:29.18Z</time></trkpt><trkpt lat="45.9286857" lon="13.3695428"><ele>35.0</ele><time>2026-04-17T16:19:30.18Z</time></trkpt><trkpt lat="45.9288389" lon="13.3694042"><ele>35.0</ele><time>2026-04-17T16:19:31.181Z</time></trkpt><trkpt lat="45.9289924" lon="13.3692699"><ele>35.0</ele><time>2026-04-17T16:19:32.18Z</time></trkpt><trkpt lat="45.9291419" lon="13.3691369"><ele>35.0</ele><time>2026-04-17T16:19:33.18Z</time></trkpt><trkpt lat="45.9292832" lon="13.3690038"><ele>35.0</ele><time>2026-04-17T16:19:34.18Z</time></trkpt><trkpt lat="45.9294301" lon="13.3688582"><ele>35.33333333333333</ele><time>2026-04-17T16:19:35.18Z</time></trkpt><trkpt lat="45.9295688" lon="13.3687266"><ele>35.666666666666664</ele><time>2026-04-17T16:19:36.181Z</time></trkpt><trkpt lat="45.9296899" lon="13.3686135"><ele>36.0</ele><time>2026-04-17T16:19:37.181Z</time></trkpt><trkpt lat="45.929809" lon="13.3684977"><ele>36.0</ele><time>2026-04-17T16:19:38.181Z</time></trkpt><trkpt lat="45.9299331" lon="13.3683755"><ele>36.0</ele><time>2026-04-17T16:19:39.18Z</time></trkpt><trkpt lat="45.9300625" lon="13.3682548"><ele>36.0</ele><time>2026-04-17T16:19:40.181Z</time></trkpt><trkpt lat="45.9301932" lon="13.3681256"><ele>36.0</ele><time>2026-04-17T16:19:41.18Z</time></trkpt><trkpt lat="45.9303305" lon="13.3679906"><ele>36.0</ele><time>2026-04-17T16:19:42.18Z</time></trkpt><trkpt lat="45.9304749" lon="13.3678684"><ele>36.0</ele><time>2026-04-17T16:19:43.18Z</time></trkpt><trkpt lat="45.9306147" lon="13.3677427"><ele>36.0</ele><time>2026-04-17T16:19:44.181Z</time></trkpt><trkpt lat="45.9307547" lon="13.367612"><ele>36.0</ele><time>2026-04-17T16:19:45.181Z</time></trkpt><trkpt lat="45.9308965" lon="13.3674843"><ele>36.0</ele><time>2026-04-17T16:19:46.181Z</time></trkpt><trkpt lat="45.9310297" lon="13.3673603"><ele>36.333333333333336</ele><time>2026-04-17T16:19:47.18Z</time></trkpt><trkpt lat="45.9311659" lon="13.3672397"><ele>36.66666666666667</ele><time>2026-04-17T16:19:48.181Z</time></trkpt><trkpt lat="45.93129" lon="13.3671158"><ele>37.0</ele><time>2026-04-17T16:19:49.181Z</time></trkpt><trkpt lat="45.9314224" lon="13.3669903"><ele>37.0</ele><time>2026-04-17T16:19:50.18Z</time></trkpt><trkpt lat="45.931556" lon="13.3668621"><ele>37.0</ele><time>2026-04-17T16:19:51.18Z</time></trkpt><trkpt lat="45.9316825" lon="13.366742"><ele>37.0</ele><time>2026-04-17T16:19:52.18Z</time></trkpt><trkpt lat="45.9318079" lon="13.3666246"><ele>37.0</ele><time>2026-04-17T16:19:53.18Z</time></trkpt><trkpt lat="45.9319224" lon="13.3665318"><ele>37.0</ele><time>2026-04-17T16:19:54.18Z</time></trkpt><trkpt lat="45.9320272" lon="13.3664407"><ele>37.0</ele><time>2026-04-17T16:19:55.181Z</time></trkpt><trkpt lat="45.9321311" lon="13.3663652"><ele>37.0</ele><time>2026-04-17T16:19:56.181Z</time></trkpt><trkpt lat="45.9322203" lon="13.3662998"><ele>37.0</ele><time>2026-04-17T16:19:57.181Z</time></trkpt><trkpt lat="45.9322944" lon="13.366232"><ele>37.0</ele><time>2026-04-17T16:19:58.181Z</time></trkpt><trkpt lat="45.9323664" lon="13.3661677"><ele>37.0</ele><time>2026-04-17T16:19:59.18Z</time></trkpt><trkpt lat="45.9324457" lon="13.3661098"><ele>37.0</ele><time>2026-04-17T16:20:00.18Z</time></trkpt><trkpt lat="45.9325437" lon="13.3660549"><ele>37.0</ele><time>2026-04-17T16:20:01.181Z</time></trkpt><trkpt lat="45.9326555" lon="13.3660014"><ele>37.0</ele><time>2026-04-17T16:20:02.181Z</time></trkpt><trkpt lat="45.9327699" lon="13.3659403"><ele>37.0</ele><time>2026-04-17T16:20:03.181Z</time></trkpt><trkpt lat="45.9328958" lon="13.3658678"><ele>37.0</ele><time>2026-04-17T16:20:04.181Z</time></trkpt><trkpt lat="45.9330234" lon="13.365801"><ele>37.0</ele><time>2026-04-17T16:20:05.18Z</time></trkpt><trkpt lat="45.9331578" lon="13.3657435"><ele>37.0</ele><time>2026-04-17T16:20:06.18Z</time></trkpt><trkpt lat="45.9332983" lon="13.3656851"><ele>37.0</ele><time>2026-04-17T16:20:07.18Z</time></trkpt><trkpt lat="45.9334463" lon="13.3656284"><ele>37.0</ele><time>2026-04-17T16:20:08.181Z</time></trkpt><trkpt lat="45.9335998" lon="13.3655853"><ele>37.0</ele><time>2026-04-17T16:20:09.181Z</time></trkpt><trkpt lat="45.9337553" lon="13.3655556"><ele>37.0</ele><time>2026-04-17T16:20:10.18Z</time></trkpt><trkpt lat="45.9339167" lon="13.3655297"><ele>37.0</ele><time>2026-04-17T16:20:11.181Z</time></trkpt><trkpt lat="45.9340839" lon="13.3655044"><ele>37.0</ele><time>2026-04-17T16:20:12.18Z</time></trkpt><trkpt lat="45.9342486" lon="13.3654849"><ele>37.0</ele><time>2026-04-17T16:20:13.18Z</time></trkpt><trkpt lat="45.9344154" lon="13.3654634"><ele>37.0</ele><time>2026-04-17T16:20:14.18Z</time></trkpt><trkpt lat="45.9345803" lon="13.3654376"><ele>37.0</ele><time>2026-04-17T16:20:15.181Z</time></trkpt><trkpt lat="45.934736" lon="13.3653989"><ele>37.0</ele><time>2026-04-17T16:20:16.18Z</time></trkpt><trkpt lat="45.9348869" lon="13.3653613"><ele>37.0</ele><time>2026-04-17T16:20:17.181Z</time></trkpt><trkpt lat="45.9350387" lon="13.3653286"><ele>36.75</ele><time>2026-04-17T16:20:18.18Z</time></trkpt><trkpt lat="45.9351928" lon="13.3652931"><ele>36.5</ele><time>2026-04-17T16:20:19.18Z</time></trkpt><trkpt lat="45.9353318" lon="13.3652613"><ele>36.25</ele><time>2026-04-17T16:20:20.181Z</time></trkpt><trkpt lat="45.9354548" lon="13.3652354"><ele>36.0</ele><time>2026-04-17T16:20:21.181Z</time></trkpt><trkpt lat="45.9355618" lon="13.3652262"><ele>36.0</ele><time>2026-04-17T16:20:22.181Z</time></trkpt><trkpt lat="45.9356551" lon="13.3652305"><ele>36.0</ele><time>2026-04-17T16:20:23.18Z</time></trkpt><trkpt lat="45.9357277" lon="13.3652459"><ele>36.0</ele><time>2026-04-17T16:20:24.18Z</time></trkpt><trkpt lat="45.9358391" lon="13.3652473"><ele>36.0</ele><time>2026-04-17T16:20:26.18Z</time></trkpt><trkpt lat="45.9359026" lon="13.3652315"><ele>36.0</ele><time>2026-04-17T16:20:27.18Z</time></trkpt><trkpt lat="45.9359886" lon="13.3652059"><ele>36.0</ele><time>2026-04-17T16:20:28.179Z</time></trkpt><trkpt lat="45.9360962" lon="13.3651641"><ele>36.666666666666664</ele><time>2026-04-17T16:20:29.18Z</time></trkpt><trkpt lat="45.9362277" lon="13.3651255"><ele>37.33333333333333</ele><time>2026-04-17T16:20:30.18Z</time></trkpt><trkpt lat="45.9363837" lon="13.3650939"><ele>38.0</ele><time>2026-04-17T16:20:31.18Z</time></trkpt><trkpt lat="45.9365408" lon="13.3650695"><ele>38.0</ele><time>2026-04-17T16:20:32.179Z</time></trkpt><trkpt lat="45.936697" lon="13.3650391"><ele>38.0</ele><time>2026-04-17T16:20:33.179Z</time></trkpt><trkpt lat="45.9368438" lon="13.3650106"><ele>38.0</ele><time>2026-04-17T16:20:34.18Z</time></trkpt><trkpt lat="45.9369757" lon="13.3649917"><ele>38.0</ele><time>2026-04-17T16:20:35.179Z</time></trkpt><trkpt lat="45.9370928" lon="13.3649653"><ele>38.83333333333333</ele><time>2026-04-17T16:20:36.18Z</time></trkpt><trkpt lat="45.9371932" lon="13.364949"><ele>39.666666666666664</ele><time>2026-04-17T16:20:37.18Z</time></trkpt><trkpt lat="45.9372741" lon="13.3649328"><ele>40.5</ele><time>2026-04-17T16:20:38.18Z</time></trkpt><trkpt lat="45.9373777" lon="13.3649201"><ele>41.333333333333336</ele><time>2026-04-17T16:20:40.18Z</time></trkpt><trkpt lat="45.9374523" lon="13.3648982"><ele>42.16666666666667</ele><time>2026-04-17T16:20:42.18Z</time></trkpt><trkpt lat="45.9374786" lon="13.364815"><ele>43.0</ele><time>2026-04-17T16:20:45.18Z</time></trkpt><trkpt lat="45.9374827" lon="13.3646997"><ele>43.5</ele><time>2026-04-17T16:20:48.18Z</time></trkpt><trkpt lat="45.937578" lon="13.3645876"><ele>44.0</ele><time>2026-04-17T16:21:01.18Z</time></trkpt><trkpt lat="45.9376368" lon="13.3644814"><ele>44.5</ele><time>2026-04-17T16:21:02.18Z</time></trkpt><trkpt lat="45.9377164" lon="13.3643377"><ele>45.0</ele><time>2026-04-17T16:21:03.18Z</time></trkpt><trkpt lat="45.9378087" lon="13.3641812"><ele>45.0</ele><time>2026-04-17T16:21:04.18Z</time></trkpt><trkpt lat="45.9379049" lon="13.3640291"><ele>45.0</ele><time>2026-04-17T16:21:05.18Z</time></trkpt><trkpt lat="45.9379968" lon="13.3638927"><ele>45.0</ele><time>2026-04-17T16:21:06.18Z</time></trkpt><trkpt lat="45.9380865" lon="13.3637819"><ele>45.0</ele><time>2026-04-17T16:21:07.18Z</time></trkpt><trkpt lat="45.9381716" lon="13.3636877"><ele>44.8</ele><time>2026-04-17T16:21:08.179Z</time></trkpt><trkpt lat="45.9382552" lon="13.3636004"><ele>44.6</ele><time>2026-04-17T16:21:09.18Z</time></trkpt><trkpt lat="45.9383269" lon="13.3635315"><ele>44.400000000000006</ele><time>2026-04-17T16:21:10.18Z</time></trkpt><trkpt lat="45.9383932" lon="13.3634677"><ele>44.2</ele><time>2026-04-17T16:21:11.18Z</time></trkpt><trkpt lat="45.9384642" lon="13.3634071"><ele>44.0</ele><time>2026-04-17T16:21:12.18Z</time></trkpt><trkpt lat="45.9385557" lon="13.3633511"><ele>44.0</ele><time>2026-04-17T16:21:13.18Z</time></trkpt><trkpt lat="45.9386506" lon="13.3632968"><ele>44.0</ele><time>2026-04-17T16:21:14.18Z</time></trkpt><trkpt lat="45.9387445" lon="13.3632524"><ele>44.0</ele><time>2026-04-17T16:21:15.18Z</time></trkpt><trkpt lat="45.9388361" lon="13.3632022"><ele>44.0</ele><time>2026-04-17T16:21:16.179Z</time></trkpt><trkpt lat="45.938928" lon="13.3631492"><ele>44.0</ele><time>2026-04-17T16:21:17.18Z</time></trkpt><trkpt lat="45.9390275" lon="13.3631045"><ele>44.0</ele><time>2026-04-17T16:21:18.18Z</time></trkpt><trkpt lat="45.9391203" lon="13.3630746"><ele>44.0</ele><time>2026-04-17T16:21:19.179Z</time></trkpt><trkpt lat="45.9392169" lon="13.3630435"><ele>44.0</ele><time>2026-04-17T16:21:20.18Z</time></trkpt><trkpt lat="45.9393166" lon="13.3630088"><ele>44.0</ele><time>2026-04-17T16:21:21.179Z</time></trkpt><trkpt lat="45.9394083" lon="13.3629766"><ele>44.0</ele><time>2026-04-17T16:21:22.179Z</time></trkpt><trkpt lat="45.9395041" lon="13.3629431"><ele>43.800000000000004</ele><time>2026-04-17T16:21:23.179Z</time></trkpt><trkpt lat="45.9396027" lon="13.362912"><ele>43.6</ele><time>2026-04-17T16:21:24.179Z</time></trkpt><trkpt lat="45.9397124" lon="13.3628677"><ele>43.4</ele><time>2026-04-17T16:21:25.18Z</time></trkpt><trkpt lat="45.939827" lon="13.362825"><ele>43.2</ele><time>2026-04-17T16:21:26.18Z</time></trkpt><trkpt lat="45.9399337" lon="13.3627895"><ele>43.0</ele><time>2026-04-17T16:21:27.18Z</time></trkpt><trkpt lat="45.9400225" lon="13.3627654"><ele>42.66666666666667</ele><time>2026-04-17T16:21:28.18Z</time></trkpt><trkpt lat="45.9401069" lon="13.3627451"><ele>42.333333333333336</ele><time>2026-04-17T16:21:29.18Z</time></trkpt><trkpt lat="45.9401944" lon="13.3627165"><ele>42.0</ele><time>2026-04-17T16:21:30.179Z</time></trkpt><trkpt lat="45.9402857" lon="13.3626851"><ele>41.666666666666664</ele><time>2026-04-17T16:21:31.18Z</time></trkpt><trkpt lat="45.940375" lon="13.3626519"><ele>41.33333333333333</ele><time>2026-04-17T16:21:32.179Z</time></trkpt><trkpt lat="45.9404601" lon="13.3626399"><ele>41.0</ele><time>2026-04-17T16:21:33.179Z</time></trkpt><trkpt lat="45.9405275" lon="13.3626261"><ele>41.0</ele><time>2026-04-17T16:21:34.18Z</time></trkpt><trkpt lat="45.9405929" lon="13.3626496"><ele>41.0</ele><time>2026-04-17T16:21:35.18Z</time></trkpt><trkpt lat="45.9406917" lon="13.3626608"><ele>41.0</ele><time>2026-04-17T16:21:37.179Z</time></trkpt><trkpt lat="45.9407758" lon="13.3626649"><ele>41.0</ele><time>2026-04-17T16:21:39.18Z</time></trkpt><trkpt lat="45.9408399" lon="13.3626587"><ele>41.0</ele><time>2026-04-17T16:21:41.18Z</time></trkpt><trkpt lat="45.9408702" lon="13.3625588"><ele>41.0</ele><time>2026-04-17T16:21:45.18Z</time></trkpt><trkpt lat="45.9408492" lon="13.3624616"><ele>41.0</ele><time>2026-04-17T16:21:47.179Z</time></trkpt><trkpt lat="45.9408229" lon="13.3623703"><ele>41.0</ele><time>2026-04-17T16:21:50.179Z</time></trkpt><trkpt lat="45.9408433" lon="13.362228"><ele>41.0</ele><time>2026-04-17T16:22:02.18Z</time></trkpt><trkpt lat="45.9408343" lon="13.3621235"><ele>41.0</ele><time>2026-04-17T16:22:03.179Z</time></trkpt><trkpt lat="45.9408217" lon="13.3620202"><ele>41.0</ele><time>2026-04-17T16:22:04.18Z</time></trkpt><trkpt lat="45.940805" lon="13.3619078"><ele>41.0</ele><time>2026-04-17T16:22:05.18Z</time></trkpt><trkpt lat="45.9407899" lon="13.361803"><ele>41.0</ele><time>2026-04-17T16:22:06.18Z</time></trkpt><trkpt lat="45.9407722" lon="13.3616733"><ele>41.0</ele><time>2026-04-17T16:22:08.18Z</time></trkpt><trkpt lat="45.9408154" lon="13.3615999"><ele>41.0</ele><time>2026-04-17T16:22:12.179Z</time></trkpt><trkpt lat="45.9409085" lon="13.3614977"><ele>41.0</ele><time>2026-04-17T16:22:14.18Z</time></trkpt><trkpt lat="45.9409653" lon="13.3614295"><ele>41.0</ele><time>2026-04-17T16:22:15.18Z</time></trkpt><trkpt lat="45.9410297" lon="13.3613625"><ele>41.0</ele><time>2026-04-17T16:22:16.18Z</time></trkpt><trkpt lat="45.9411391" lon="13.3612631"><ele>40.8</ele><time>2026-04-17T16:22:18.18Z</time></trkpt><trkpt lat="45.9412073" lon="13.3612112"><ele>40.599999999999994</ele><time>2026-04-17T16:22:19.18Z</time></trkpt><trkpt lat="45.9412676" lon="13.3611599"><ele>40.4</ele><time>2026-04-17T16:22:20.179Z</time></trkpt><trkpt lat="45.9413645" lon="13.361089"><ele>40.2</ele><time>2026-04-17T16:22:22.18Z</time></trkpt><trkpt lat="45.9414409" lon="13.3611203"><ele>40.0</ele><time>2026-04-17T16:22:24.18Z</time></trkpt><trkpt lat="45.9414844" lon="13.361291"><ele>40.2</ele><time>2026-04-17T16:22:26.179Z</time></trkpt><trkpt lat="45.9414941" lon="13.3614366"><ele>40.4</ele><time>2026-04-17T16:22:27.18Z</time></trkpt><trkpt lat="45.9415054" lon="13.3616106"><ele>40.599999999999994</ele><time>2026-04-17T16:22:28.179Z</time></trkpt><trkpt lat="45.9415118" lon="13.3617665"><ele>40.8</ele><time>2026-04-17T16:22:29.18Z</time></trkpt><trkpt lat="45.9415315" lon="13.3618794"><ele>41.0</ele><time>2026-04-17T16:22:30.179Z</time></trkpt><trkpt lat="45.9415682" lon="13.3620171"><ele>41.0</ele><time>2026-04-17T16:22:32.179Z</time></trkpt><trkpt lat="45.9416534" lon="13.361983"><ele>41.0</ele><time>2026-04-17T16:22:35.179Z</time></trkpt><trkpt lat="45.941707" lon="13.3619201"><ele>41.0</ele><time>2026-04-17T16:22:37.18Z</time></trkpt><trkpt lat="45.941751" lon="13.3618505"><ele>41.0</ele><time>2026-04-17T16:23:28.18Z</time></trkpt><trkpt lat="45.9418125" lon="13.3617847"><ele>41.0</ele><time>2026-04-17T16:23:29.18Z</time></trkpt><trkpt lat="45.9418921" lon="13.3616875"><ele>41.0</ele><time>2026-04-17T16:23:30.18Z</time></trkpt><trkpt lat="45.9419796" lon="13.361553"><ele>41.0</ele><time>2026-04-17T16:23:31.18Z</time></trkpt><trkpt lat="45.9420798" lon="13.361396"><ele>41.0</ele><time>2026-04-17T16:23:32.179Z</time></trkpt><trkpt lat="45.9421812" lon="13.3612265"><ele>41.0</ele><time>2026-04-17T16:23:33.179Z</time></trkpt><trkpt lat="45.9422906" lon="13.361041"><ele>41.0</ele><time>2026-04-17T16:23:34.18Z</time></trkpt><trkpt lat="45.9424027" lon="13.3608494"><ele>41.0</ele><time>2026-04-17T16:23:35.18Z</time></trkpt><trkpt lat="45.9425248" lon="13.3606537"><ele>41.0</ele><time>2026-04-17T16:23:36.18Z</time></trkpt><trkpt lat="45.9426493" lon="13.3604574"><ele>41.0</ele><time>2026-04-17T16:23:37.18Z</time></trkpt><trkpt lat="45.9427615" lon="13.3602753"><ele>41.0</ele><time>2026-04-17T16:23:38.18Z</time></trkpt><trkpt lat="45.9428579" lon="13.3601149"><ele>41.0</ele><time>2026-04-17T16:23:39.18Z</time></trkpt><trkpt lat="45.9429502" lon="13.3599714"><ele>41.0</ele><time>2026-04-17T16:23:40.18Z</time></trkpt><trkpt lat="45.9430326" lon="13.3598387"><ele>41.0</ele><time>2026-04-17T16:23:41.18Z</time></trkpt><trkpt lat="45.9431074" lon="13.3597092"><ele>41.0</ele><time>2026-04-17T16:23:42.179Z</time></trkpt><trkpt lat="45.9431937" lon="13.3595945"><ele>41.0</ele><time>2026-04-17T16:23:43.179Z</time></trkpt><trkpt lat="45.9432763" lon="13.3594785"><ele>40.8</ele><time>2026-04-17T16:23:44.18Z</time></trkpt><trkpt lat="45.9433569" lon="13.3593693"><ele>40.599999999999994</ele><time>2026-04-17T16:23:45.18Z</time></trkpt><trkpt lat="45.9434321" lon="13.3592698"><ele>40.4</ele><time>2026-04-17T16:23:46.179Z</time></trkpt><trkpt lat="45.9435019" lon="13.3591948"><ele>40.2</ele><time>2026-04-17T16:23:47.18Z</time></trkpt><trkpt lat="45.9435746" lon="13.3591308"><ele>40.0</ele><time>2026-04-17T16:23:48.18Z</time></trkpt><trkpt lat="45.9436466" lon="13.3590612"><ele>40.0</ele><time>2026-04-17T16:23:49.18Z</time></trkpt><trkpt lat="45.9437102" lon="13.3589744"><ele>40.0</ele><time>2026-04-17T16:23:50.18Z</time></trkpt><trkpt lat="45.943769" lon="13.3588746"><ele>40.0</ele><time>2026-04-17T16:23:51.18Z</time></trkpt><trkpt lat="45.9438284" lon="13.3587807"><ele>40.0</ele><time>2026-04-17T16:23:52.18Z</time></trkpt><trkpt lat="45.9438901" lon="13.3586849"><ele>40.0</ele><time>2026-04-17T16:23:53.18Z</time></trkpt><trkpt lat="45.9439531" lon="13.3585833"><ele>40.2</ele><time>2026-04-17T16:23:54.18Z</time></trkpt><trkpt lat="45.9440133" lon="13.3584789"><ele>40.4</ele><time>2026-04-17T16:23:55.18Z</time></trkpt><trkpt lat="45.9440756" lon="13.358369"><ele>40.599999999999994</ele><time>2026-04-17T16:23:56.18Z</time></trkpt><trkpt lat="45.9441437" lon="13.3582454"><ele>40.8</ele><time>2026-04-17T16:23:57.179Z</time></trkpt><trkpt lat="45.9442111" lon="13.3581273"><ele>41.0</ele><time>2026-04-17T16:23:58.18Z</time></trkpt><trkpt lat="45.944283" lon="13.3580075"><ele>41.25</ele><time>2026-04-17T16:23:59.18Z</time></trkpt><trkpt lat="45.9443593" lon="13.3578874"><ele>41.5</ele><time>2026-04-17T16:24:00.18Z</time></trkpt><trkpt lat="45.9444292" lon="13.3577687"><ele>41.75</ele><time>2026-04-17T16:24:01.179Z</time></trkpt><trkpt lat="45.9445031" lon="13.3576475"><ele>42.0</ele><time>2026-04-17T16:24:02.18Z</time></trkpt><trkpt lat="45.9445829" lon="13.3575208"><ele>42.0</ele><time>2026-04-17T16:24:03.18Z</time></trkpt><trkpt lat="45.9446868" lon="13.3573806"><ele>42.0</ele><time>2026-04-17T16:24:04.179Z</time></trkpt><trkpt lat="45.9447972" lon="13.3572356"><ele>42.0</ele><time>2026-04-17T16:24:05.179Z</time></trkpt><trkpt lat="45.9448922" lon="13.3571137"><ele>42.0</ele><time>2026-04-17T16:24:06.179Z</time></trkpt><trkpt lat="45.9449824" lon="13.357009"><ele>42.0</ele><time>2026-04-17T16:24:07.18Z</time></trkpt><trkpt lat="45.945068" lon="13.3569084"><ele>42.0</ele><time>2026-04-17T16:24:08.179Z</time></trkpt><trkpt lat="45.9451425" lon="13.3568121"><ele>42.0</ele><time>2026-04-17T16:24:09.18Z</time></trkpt><trkpt lat="45.9452107" lon="13.356717"><ele>42.0</ele><time>2026-04-17T16:24:10.18Z</time></trkpt><trkpt lat="45.9452874" lon="13.3566159"><ele>42.0</ele><time>2026-04-17T16:24:11.18Z</time></trkpt><trkpt lat="45.9453658" lon="13.3565248"><ele>42.0</ele><time>2026-04-17T16:24:12.179Z</time></trkpt><trkpt lat="45.9454564" lon="13.3564349"><ele>42.0</ele><time>2026-04-17T16:24:13.18Z</time></trkpt><trkpt lat="45.9455573" lon="13.3563336"><ele>42.0</ele><time>2026-04-17T16:24:14.18Z</time></trkpt><trkpt lat="45.9456648" lon="13.3562222"><ele>42.0</ele><time>2026-04-17T16:24:15.18Z</time></trkpt><trkpt lat="45.9457634" lon="13.3561225"><ele>41.75</ele><time>2026-04-17T16:24:16.179Z</time></trkpt><trkpt lat="45.9458617" lon="13.3560317"><ele>41.5</ele><time>2026-04-17T16:24:17.179Z</time></trkpt><trkpt lat="45.945964" lon="13.3559376"><ele>41.25</ele><time>2026-04-17T16:24:18.18Z</time></trkpt><trkpt lat="45.9460689" lon="13.3558467"><ele>41.0</ele><time>2026-04-17T16:24:19.18Z</time></trkpt><trkpt lat="45.9461713" lon="13.3557526"><ele>40.8</ele><time>2026-04-17T16:24:20.18Z</time></trkpt><trkpt lat="45.946267" lon="13.3556611"><ele>40.599999999999994</ele><time>2026-04-17T16:24:21.179Z</time></trkpt><trkpt lat="45.9463623" lon="13.3555666"><ele>40.4</ele><time>2026-04-17T16:24:22.179Z</time></trkpt><trkpt lat="45.9464514" lon="13.3554794"><ele>40.2</ele><time>2026-04-17T16:24:23.18Z</time></trkpt><trkpt lat="45.9465424" lon="13.3553887"><ele>40.0</ele><time>2026-04-17T16:24:24.18Z</time></trkpt><trkpt lat="45.9466318" lon="13.3552983"><ele>40.2</ele><time>2026-04-17T16:24:25.18Z</time></trkpt><trkpt lat="45.9467229" lon="13.3552126"><ele>40.4</ele><time>2026-04-17T16:24:26.18Z</time></trkpt><trkpt lat="45.9468159" lon="13.3551261"><ele>40.599999999999994</ele><time>2026-04-17T16:24:27.179Z</time></trkpt><trkpt lat="45.9469071" lon="13.3550445"><ele>40.8</ele><time>2026-04-17T16:24:28.18Z</time></trkpt><trkpt lat="45.9470023" lon="13.3549624"><ele>41.0</ele><time>2026-04-17T16:24:29.18Z</time></trkpt><trkpt lat="45.9470995" lon="13.3548692"><ele>41.0</ele><time>2026-04-17T16:24:30.18Z</time></trkpt><trkpt lat="45.9471968" lon="13.3547721"><ele>41.0</ele><time>2026-04-17T16:24:31.18Z</time></trkpt><trkpt lat="45.9473038" lon="13.3546693"><ele>41.0</ele><time>2026-04-17T16:24:32.18Z</time></trkpt><trkpt lat="45.9474179" lon="13.3545642"><ele>41.0</ele><time>2026-04-17T16:24:33.18Z</time></trkpt><trkpt lat="45.947529" lon="13.3544645"><ele>41.25</ele><time>2026-04-17T16:24:34.18Z</time></trkpt><trkpt lat="45.9476367" lon="13.354367"><ele>41.5</ele><time>2026-04-17T16:24:35.18Z</time></trkpt><trkpt lat="45.9477481" lon="13.3542558"><ele>41.75</ele><time>2026-04-17T16:24:36.18Z</time></trkpt><trkpt lat="45.9478558" lon="13.3541495"><ele>42.0</ele><time>2026-04-17T16:24:37.18Z</time></trkpt><trkpt lat="45.9479613" lon="13.3540451"><ele>42.0</ele><time>2026-04-17T16:24:38.18Z</time></trkpt><trkpt lat="45.9480633" lon="13.3539342"><ele>42.0</ele><time>2026-04-17T16:24:39.179Z</time></trkpt><trkpt lat="45.9481649" lon="13.3538235"><ele>42.0</ele><time>2026-04-17T16:24:40.18Z</time></trkpt><trkpt lat="45.9482666" lon="13.3537094"><ele>42.0</ele><time>2026-04-17T16:24:41.179Z</time></trkpt><trkpt lat="45.9483732" lon="13.3535781"><ele>42.25</ele><time>2026-04-17T16:24:42.18Z</time></trkpt><trkpt lat="45.9484781" lon="13.3534484"><ele>42.5</ele><time>2026-04-17T16:24:43.179Z</time></trkpt><trkpt lat="45.9485819" lon="13.3533146"><ele>42.75</ele><time>2026-04-17T16:24:44.18Z</time></trkpt><trkpt lat="45.9486937" lon="13.3531693"><ele>43.0</ele><time>2026-04-17T16:24:45.18Z</time></trkpt><trkpt lat="45.948802" lon="13.3530217"><ele>43.0</ele><time>2026-04-17T16:24:46.18Z</time></trkpt><trkpt lat="45.9489115" lon="13.3528837"><ele>43.0</ele><time>2026-04-17T16:24:47.179Z</time></trkpt><trkpt lat="45.949014" lon="13.352755"><ele>43.0</ele><time>2026-04-17T16:24:48.18Z</time></trkpt><trkpt lat="45.9491071" lon="13.3526352"><ele>43.0</ele><time>2026-04-17T16:24:49.18Z</time></trkpt><trkpt lat="45.9491949" lon="13.3525154"><ele>43.0</ele><time>2026-04-17T16:24:50.18Z</time></trkpt><trkpt lat="45.949265" lon="13.3524017"><ele>43.0</ele><time>2026-04-17T16:24:51.179Z</time></trkpt><trkpt lat="45.9493284" lon="13.352309"><ele>43.0</ele><time>2026-04-17T16:24:52.179Z</time></trkpt><trkpt lat="45.9493832" lon="13.3522244"><ele>43.0</ele><time>2026-04-17T16:24:53.179Z</time></trkpt><trkpt lat="45.949454" lon="13.3521054"><ele>43.0</ele><time>2026-04-17T16:24:55.179Z</time></trkpt><trkpt lat="45.9495585" lon="13.3519721"><ele>43.0</ele><time>2026-04-17T16:24:57.18Z</time></trkpt><trkpt lat="45.9496357" lon="13.3518811"><ele>43.0</ele><time>2026-04-17T16:24:58.179Z</time></trkpt><trkpt lat="45.9497284" lon="13.3517891"><ele>43.0</ele><time>2026-04-17T16:24:59.18Z</time></trkpt><trkpt lat="45.9498118" lon="13.3517058"><ele>43.0</ele><time>2026-04-17T16:25:00.18Z</time></trkpt><trkpt lat="45.9498871" lon="13.351632"><ele>43.0</ele><time>2026-04-17T16:25:01.18Z</time></trkpt><trkpt lat="45.9499689" lon="13.3515578"><ele>43.0</ele><time>2026-04-17T16:25:02.18Z</time></trkpt><trkpt lat="45.9500535" lon="13.3514824"><ele>43.0</ele><time>2026-04-17T16:25:03.18Z</time></trkpt><trkpt lat="45.9501364" lon="13.3513991"><ele>43.0</ele><time>2026-04-17T16:25:04.179Z</time></trkpt><trkpt lat="45.9502167" lon="13.3513217"><ele>43.0</ele><time>2026-04-17T16:25:05.18Z</time></trkpt><trkpt lat="45.9503069" lon="13.3512407"><ele>43.0</ele><time>2026-04-17T16:25:06.18Z</time></trkpt><trkpt lat="45.9503975" lon="13.3511637"><ele>43.0</ele><time>2026-04-17T16:25:07.18Z</time></trkpt><trkpt lat="45.9504746" lon="13.3510888"><ele>43.0</ele><time>2026-04-17T16:25:08.179Z</time></trkpt><trkpt lat="45.9505533" lon="13.3510075"><ele>43.0</ele><time>2026-04-17T16:25:09.18Z</time></trkpt><trkpt lat="45.9506366" lon="13.3509244"><ele>43.0</ele><time>2026-04-17T16:25:10.179Z</time></trkpt><trkpt lat="45.9507318" lon="13.3508254"><ele>43.0</ele><time>2026-04-17T16:25:11.18Z</time></trkpt><trkpt lat="45.9508281" lon="13.3507309"><ele>43.0</ele><time>2026-04-17T16:25:12.18Z</time></trkpt><trkpt lat="45.950924" lon="13.3506391"><ele>43.0</ele><time>2026-04-17T16:25:13.179Z</time></trkpt><trkpt lat="45.9510153" lon="13.3505471"><ele>43.0</ele><time>2026-04-17T16:25:14.18Z</time></trkpt><trkpt lat="45.9511131" lon="13.3504632"><ele>43.0</ele><time>2026-04-17T16:25:15.179Z</time></trkpt><trkpt lat="45.9512105" lon="13.350368"><ele>43.25</ele><time>2026-04-17T16:25:16.18Z</time></trkpt><trkpt lat="45.9513178" lon="13.350261"><ele>43.5</ele><time>2026-04-17T16:25:17.18Z</time></trkpt><trkpt lat="45.9514264" lon="13.3501548"><ele>43.75</ele><time>2026-04-17T16:25:18.179Z</time></trkpt><trkpt lat="45.9515366" lon="13.3500491"><ele>44.0</ele><time>2026-04-17T16:25:19.18Z</time></trkpt><trkpt lat="45.951654" lon="13.3499344"><ele>44.25</ele><time>2026-04-17T16:25:20.18Z</time></trkpt><trkpt lat="45.951774" lon="13.3498157"><ele>44.5</ele><time>2026-04-17T16:25:21.18Z</time></trkpt><trkpt lat="45.9518913" lon="13.3497048"><ele>44.75</ele><time>2026-04-17T16:25:22.179Z</time></trkpt><trkpt lat="45.9520151" lon="13.3495856"><ele>45.0</ele><time>2026-04-17T16:25:23.18Z</time></trkpt><trkpt lat="45.9521375" lon="13.3494688"><ele>45.0</ele><time>2026-04-17T16:25:24.179Z</time></trkpt><trkpt lat="45.9522533" lon="13.3493489"><ele>45.0</ele><time>2026-04-17T16:25:25.18Z</time></trkpt><trkpt lat="45.9523515" lon="13.349246"><ele>45.0</ele><time>2026-04-17T16:25:26.18Z</time></trkpt><trkpt lat="45.9524438" lon="13.34916"><ele>45.0</ele><time>2026-04-17T16:25:27.18Z</time></trkpt><trkpt lat="45.9525341" lon="13.3490753"><ele>45.4</ele><time>2026-04-17T16:25:28.18Z</time></trkpt><trkpt lat="45.9526229" lon="13.3489866"><ele>45.8</ele><time>2026-04-17T16:25:29.18Z</time></trkpt><trkpt lat="45.9527055" lon="13.3489043"><ele>46.2</ele><time>2026-04-17T16:25:30.18Z</time></trkpt><trkpt lat="45.9527806" lon="13.3488335"><ele>46.6</ele><time>2026-04-17T16:25:31.179Z</time></trkpt><trkpt lat="45.95284" lon="13.3487803"><ele>47.0</ele><time>2026-04-17T16:25:32.18Z</time></trkpt><trkpt lat="45.952891" lon="13.3486738"><ele>47.166666666666664</ele><time>2026-04-17T16:25:34.179Z</time></trkpt><trkpt lat="45.9528574" lon="13.3485381"><ele>47.33333333333333</ele><time>2026-04-17T16:25:36.179Z</time></trkpt><trkpt lat="45.9528258" lon="13.3484492"><ele>47.5</ele><time>2026-04-17T16:25:37.179Z</time></trkpt><trkpt lat="45.9528118" lon="13.3483496"><ele>47.666666666666664</ele><time>2026-04-17T16:25:38.18Z</time></trkpt><trkpt lat="45.9528203" lon="13.3482394"><ele>47.833333333333336</ele><time>2026-04-17T16:25:39.179Z</time></trkpt><trkpt lat="45.9528483" lon="13.348112"><ele>48.0</ele><time>2026-04-17T16:25:40.18Z</time></trkpt><trkpt lat="45.9528978" lon="13.3479986"><ele>47.75</ele><time>2026-04-17T16:25:41.179Z</time></trkpt><trkpt lat="45.952971" lon="13.3479109"><ele>47.5</ele><time>2026-04-17T16:25:42.18Z</time></trkpt><trkpt lat="45.9530741" lon="13.347846"><ele>47.25</ele><time>2026-04-17T16:25:43.18Z</time></trkpt><trkpt lat="45.953216" lon="13.3477875"><ele>47.0</ele><time>2026-04-17T16:25:44.18Z</time></trkpt><trkpt lat="45.9533765" lon="13.3477065"><ele>47.0</ele><time>2026-04-17T16:25:45.18Z</time></trkpt><trkpt lat="45.9535473" lon="13.3476362"><ele>47.0</ele><time>2026-04-17T16:25:46.179Z</time></trkpt><trkpt lat="45.9537326" lon="13.3475601"><ele>47.0</ele><time>2026-04-17T16:25:47.179Z</time></trkpt><trkpt lat="45.953922" lon="13.347478"><ele>47.0</ele><time>2026-04-17T16:25:48.18Z</time></trkpt><trkpt lat="45.9541138" lon="13.3473996"><ele>47.0</ele><time>2026-04-17T16:25:49.18Z</time></trkpt><trkpt lat="45.9543127" lon="13.3473249"><ele>47.0</ele><time>2026-04-17T16:25:50.18Z</time></trkpt><trkpt lat="45.9545243" lon="13.3472384"><ele>46.666666666666664</ele><time>2026-04-17T16:25:51.18Z</time></trkpt><trkpt lat="45.9547414" lon="13.3471556"><ele>46.333333333333336</ele><time>2026-04-17T16:25:52.179Z</time></trkpt><trkpt lat="45.9549451" lon="13.3470772"><ele>46.0</ele><time>2026-04-17T16:25:53.18Z</time></trkpt><trkpt lat="45.9551464" lon="13.3469894"><ele>46.66666666666667</ele><time>2026-04-17T16:25:54.18Z</time></trkpt><trkpt lat="45.9553423" lon="13.3469039"><ele>47.333333333333336</ele><time>2026-04-17T16:25:55.18Z</time></trkpt><trkpt lat="45.955538" lon="13.3468078"><ele>48.0</ele><time>2026-04-17T16:25:56.18Z</time></trkpt><trkpt lat="45.9557347" lon="13.3467194"><ele>47.333333333333336</ele><time>2026-04-17T16:25:57.18Z</time></trkpt><trkpt lat="45.955927" lon="13.3466349"><ele>46.66666666666667</ele><time>2026-04-17T16:25:58.179Z</time></trkpt><trkpt lat="45.9561081" lon="13.3465581"><ele>46.0</ele><time>2026-04-17T16:25:59.18Z</time></trkpt><trkpt lat="45.9562996" lon="13.3464764"><ele>46.0</ele><time>2026-04-17T16:26:00.179Z</time></trkpt><trkpt lat="45.9564924" lon="13.3463976"><ele>46.0</ele><time>2026-04-17T16:26:01.18Z</time></trkpt><trkpt lat="45.9566784" lon="13.3463243"><ele>46.0</ele><time>2026-04-17T16:26:02.18Z</time></trkpt><trkpt lat="45.9568632" lon="13.3462483"><ele>47.0</ele><time>2026-04-17T16:26:03.18Z</time></trkpt><trkpt lat="45.9570426" lon="13.3461774"><ele>48.0</ele><time>2026-04-17T16:26:04.18Z</time></trkpt><trkpt lat="45.9572172" lon="13.3461013"><ele>49.0</ele><time>2026-04-17T16:26:05.18Z</time></trkpt><trkpt lat="45.9573994" lon="13.3460261"><ele>48.666666666666664</ele><time>2026-04-17T16:26:06.18Z</time></trkpt><trkpt lat="45.9575738" lon="13.3459554"><ele>48.33333333333333</ele><time>2026-04-17T16:26:07.18Z</time></trkpt><trkpt lat="45.9577519" lon="13.3458901"><ele>48.0</ele><time>2026-04-17T16:26:08.18Z</time></trkpt><trkpt lat="45.9579285" lon="13.3458301"><ele>48.0</ele><time>2026-04-17T16:26:09.18Z</time></trkpt><trkpt lat="45.9580962" lon="13.3457696"><ele>48.0</ele><time>2026-04-17T16:26:10.18Z</time></trkpt><trkpt lat="45.9582588" lon="13.3457017"><ele>48.0</ele><time>2026-04-17T16:26:11.18Z</time></trkpt><trkpt lat="45.95841" lon="13.3456435"><ele>48.0</ele><time>2026-04-17T16:26:12.18Z</time></trkpt><trkpt lat="45.9585566" lon="13.3455863"><ele>48.0</ele><time>2026-04-17T16:26:13.18Z</time></trkpt><trkpt lat="45.9587069" lon="13.3455171"><ele>48.0</ele><time>2026-04-17T16:26:14.18Z</time></trkpt><trkpt lat="45.958847" lon="13.3454558"><ele>48.0</ele><time>2026-04-17T16:26:15.18Z</time></trkpt><trkpt lat="45.9589837" lon="13.3453955"><ele>48.0</ele><time>2026-04-17T16:26:16.18Z</time></trkpt><trkpt lat="45.9591318" lon="13.3453342"><ele>48.0</ele><time>2026-04-17T16:26:17.18Z</time></trkpt><trkpt lat="45.959275" lon="13.3452599"><ele>48.0</ele><time>2026-04-17T16:26:18.179Z</time></trkpt><trkpt lat="45.9594039" lon="13.3451833"><ele>47.599999999999994</ele><time>2026-04-17T16:26:19.178Z</time></trkpt><trkpt lat="45.9595123" lon="13.3451158"><ele>47.199999999999996</ele><time>2026-04-17T16:26:20.179Z</time></trkpt><trkpt lat="45.9596083" lon="13.3450465"><ele>46.8</ele><time>2026-04-17T16:26:21.179Z</time></trkpt><trkpt lat="45.9596855" lon="13.3449849"><ele>46.4</ele><time>2026-04-17T16:26:22.179Z</time></trkpt><trkpt lat="45.9597481" lon="13.3449513"><ele>46.0</ele><time>2026-04-17T16:26:23.179Z</time></trkpt><trkpt lat="45.9598215" lon="13.3449466"><ele>46.0</ele><time>2026-04-17T16:26:25.178Z</time></trkpt><trkpt lat="45.9598596" lon="13.345037"><ele>46.0</ele><time>2026-04-17T16:26:28.178Z</time></trkpt><trkpt lat="45.9598685" lon="13.3451412"><ele>46.0</ele><time>2026-04-17T16:26:30.179Z</time></trkpt><trkpt lat="45.9598902" lon="13.3452291"><ele>46.0</ele><time>2026-04-17T16:26:32.179Z</time></trkpt><trkpt lat="45.9599656" lon="13.3452731"><ele>46.0</ele><time>2026-04-17T16:26:34.178Z</time></trkpt><trkpt lat="45.9600857" lon="13.345197"><ele>46.0</ele><time>2026-04-17T16:26:36.178Z</time></trkpt><trkpt lat="45.960163" lon="13.3451107"><ele>46.25</ele><time>2026-04-17T16:26:37.178Z</time></trkpt><trkpt lat="45.9602499" lon="13.3450169"><ele>46.5</ele><time>2026-04-17T16:26:38.178Z</time></trkpt><trkpt lat="45.9603521" lon="13.3449215"><ele>46.75</ele><time>2026-04-17T16:26:39.179Z</time></trkpt><trkpt lat="45.9604587" lon="13.3448017"><ele>47.0</ele><time>2026-04-17T16:26:40.179Z</time></trkpt><trkpt lat="45.960553" lon="13.3446843"><ele>47.2</ele><time>2026-04-17T16:26:41.179Z</time></trkpt><trkpt lat="45.9606369" lon="13.3445715"><ele>47.400000000000006</ele><time>2026-04-17T16:26:42.179Z</time></trkpt><trkpt lat="45.9607197" lon="13.3444605"><ele>47.599999999999994</ele><time>2026-04-17T16:26:43.179Z</time></trkpt><trkpt lat="45.9607936" lon="13.3443621"><ele>47.8</ele><time>2026-04-17T16:26:44.179Z</time></trkpt><trkpt lat="45.9608666" lon="13.3442715"><ele>48.0</ele><time>2026-04-17T16:26:45.179Z</time></trkpt><trkpt lat="45.9609258" lon="13.3441857"><ele>48.0</ele><time>2026-04-17T16:26:46.179Z</time></trkpt><trkpt lat="45.9609793" lon="13.3441044"><ele>48.0</ele><time>2026-04-17T16:26:47.179Z</time></trkpt><trkpt lat="45.9610536" lon="13.3440142"><ele>48.0</ele><time>2026-04-17T16:26:49.178Z</time></trkpt><trkpt lat="45.9611043" lon="13.3439324"><ele>48.0</ele><time>2026-04-17T16:26:51.179Z</time></trkpt><trkpt lat="45.9611596" lon="13.3438624"><ele>48.0</ele><time>2026-04-17T16:26:53.179Z</time></trkpt><trkpt lat="45.9612179" lon="13.3437758"><ele>48.0</ele><time>2026-04-17T16:26:55.178Z</time></trkpt><trkpt lat="45.9612961" lon="13.343677"><ele>47.8</ele><time>2026-04-17T16:26:57.179Z</time></trkpt><trkpt lat="45.9613936" lon="13.3435477"><ele>47.599999999999994</ele><time>2026-04-17T16:26:59.179Z</time></trkpt><trkpt lat="45.9614551" lon="13.3434618"><ele>47.400000000000006</ele><time>2026-04-17T16:27:00.179Z</time></trkpt><trkpt lat="45.9615233" lon="13.3433664"><ele>47.2</ele><time>2026-04-17T16:27:01.179Z</time></trkpt><trkpt lat="45.9615959" lon="13.3432655"><ele>47.0</ele><time>2026-04-17T16:27:02.179Z</time></trkpt><trkpt lat="45.9616789" lon="13.3431547"><ele>47.25</ele><time>2026-04-17T16:27:03.179Z</time></trkpt><trkpt lat="45.9617686" lon="13.3430344"><ele>47.5</ele><time>2026-04-17T16:27:04.179Z</time></trkpt><trkpt lat="45.9618641" lon="13.3429013"><ele>47.75</ele><time>2026-04-17T16:27:05.179Z</time></trkpt><trkpt lat="45.9619646" lon="13.3427664"><ele>48.0</ele><time>2026-04-17T16:27:06.178Z</time></trkpt><trkpt lat="45.9620601" lon="13.3426228"><ele>48.0</ele><time>2026-04-17T16:27:07.179Z</time></trkpt><trkpt lat="45.9621492" lon="13.342479"><ele>48.0</ele><time>2026-04-17T16:27:08.179Z</time></trkpt><trkpt lat="45.9622349" lon="13.3423503"><ele>48.0</ele><time>2026-04-17T16:27:09.178Z</time></trkpt><trkpt lat="45.9623081" lon="13.3422524"><ele>48.0</ele><time>2026-04-17T16:27:10.179Z</time></trkpt><trkpt lat="45.9623726" lon="13.3421651"><ele>48.0</ele><time>2026-04-17T16:27:11.179Z</time></trkpt><trkpt lat="45.9624218" lon="13.3420974"><ele>48.0</ele><time>2026-04-17T16:27:12.178Z</time></trkpt><trkpt lat="45.9625024" lon="13.3419839"><ele>48.0</ele><time>2026-04-17T16:27:14.178Z</time></trkpt><trkpt lat="45.96258" lon="13.3419043"><ele>48.0</ele><time>2026-04-17T16:27:16.179Z</time></trkpt><trkpt lat="45.962668" lon="13.3418533"><ele>48.0</ele><time>2026-04-17T16:27:18.179Z</time></trkpt><trkpt lat="45.9627585" lon="13.3417695"><ele>48.0</ele><time>2026-04-17T16:27:20.179Z</time></trkpt><trkpt lat="45.9628058" lon="13.3417076"><ele>48.166666666666664</ele><time>2026-04-17T16:27:21.179Z</time></trkpt><trkpt lat="45.9629006" lon="13.3415785"><ele>48.33333333333333</ele><time>2026-04-17T16:27:23.179Z</time></trkpt><trkpt lat="45.9629543" lon="13.341512"><ele>48.5</ele><time>2026-04-17T16:27:24.179Z</time></trkpt><trkpt lat="45.9630147" lon="13.34145"><ele>48.666666666666664</ele><time>2026-04-17T16:27:25.179Z</time></trkpt><trkpt lat="45.9630829" lon="13.3413843"><ele>48.83333333333333</ele><time>2026-04-17T16:27:26.179Z</time></trkpt><trkpt lat="45.9631548" lon="13.3413161"><ele>49.0</ele><time>2026-04-17T16:27:27.179Z</time></trkpt><trkpt lat="45.9632343" lon="13.3412436"><ele>49.2</ele><time>2026-04-17T16:27:28.178Z</time></trkpt><trkpt lat="45.9633296" lon="13.3411687"><ele>49.400000000000006</ele><time>2026-04-17T16:27:29.179Z</time></trkpt><trkpt lat="45.9634241" lon="13.341101"><ele>49.6</ele><time>2026-04-17T16:27:30.178Z</time></trkpt><trkpt lat="45.9635208" lon="13.3410301"><ele>49.8</ele><time>2026-04-17T16:27:31.179Z</time></trkpt><trkpt lat="45.9636208" lon="13.3409591"><ele>50.0</ele><time>2026-04-17T16:27:32.179Z</time></trkpt><trkpt lat="45.9637208" lon="13.340889"><ele>50.2</ele><time>2026-04-17T16:27:33.178Z</time></trkpt><trkpt lat="45.963822" lon="13.3408228"><ele>50.4</ele><time>2026-04-17T16:27:34.179Z</time></trkpt><trkpt lat="45.9639165" lon="13.3407586"><ele>50.599999999999994</ele><time>2026-04-17T16:27:35.179Z</time></trkpt><trkpt lat="45.9639987" lon="13.3406977"><ele>50.8</ele><time>2026-04-17T16:27:36.179Z</time></trkpt><trkpt lat="45.9640737" lon="13.3406433"><ele>51.0</ele><time>2026-04-17T16:27:37.179Z</time></trkpt><trkpt lat="45.9641588" lon="13.340587"><ele>51.0</ele><time>2026-04-17T16:27:38.179Z</time></trkpt><trkpt lat="45.9642477" lon="13.3405187"><ele>51.0</ele><time>2026-04-17T16:27:39.179Z</time></trkpt><trkpt lat="45.9643439" lon="13.3404518"><ele>51.0</ele><time>2026-04-17T16:27:40.179Z</time></trkpt><trkpt lat="45.9644542" lon="13.3403834"><ele>51.0</ele><time>2026-04-17T16:27:41.179Z</time></trkpt><trkpt lat="45.9645743" lon="13.3403088"><ele>51.0</ele><time>2026-04-17T16:27:42.179Z</time></trkpt><trkpt lat="45.9646924" lon="13.3402266"><ele>51.0</ele><time>2026-04-17T16:27:43.179Z</time></trkpt><trkpt lat="45.9648147" lon="13.3401423"><ele>51.0</ele><time>2026-04-17T16:27:44.178Z</time></trkpt><trkpt lat="45.9649456" lon="13.3400529"><ele>51.0</ele><time>2026-04-17T16:27:45.179Z</time></trkpt><trkpt lat="45.9650841" lon="13.3399508"><ele>51.0</ele><time>2026-04-17T16:27:46.179Z</time></trkpt><trkpt lat="45.9652334" lon="13.3398447"><ele>51.0</ele><time>2026-04-17T16:27:47.178Z</time></trkpt><trkpt lat="45.9653826" lon="13.3397327"><ele>51.0</ele><time>2026-04-17T16:27:48.178Z</time></trkpt><trkpt lat="45.9655377" lon="13.3396272"><ele>51.0</ele><time>2026-04-17T16:27:49.179Z</time></trkpt><trkpt lat="45.9656942" lon="13.3395312"><ele>51.0</ele><time>2026-04-17T16:27:50.179Z</time></trkpt><trkpt lat="45.9658467" lon="13.3394306"><ele>51.0</ele><time>2026-04-17T16:27:51.178Z</time></trkpt><trkpt lat="45.9660012" lon="13.339327"><ele>52.0</ele><time>2026-04-17T16:27:52.178Z</time></trkpt><trkpt lat="45.9661562" lon="13.3392151"><ele>53.0</ele><time>2026-04-17T16:27:53.179Z</time></trkpt><trkpt lat="45.9663186" lon="13.3391151"><ele>54.0</ele><time>2026-04-17T16:27:54.178Z</time></trkpt><trkpt lat="45.9664816" lon="13.3390026"><ele>54.0</ele><time>2026-04-17T16:27:55.179Z</time></trkpt><trkpt lat="45.9666428" lon="13.3388845"><ele>54.0</ele><time>2026-04-17T16:27:56.179Z</time></trkpt><trkpt lat="45.966796" lon="13.3387698"><ele>54.0</ele><time>2026-04-17T16:27:57.179Z</time></trkpt><trkpt lat="45.9669463" lon="13.338674"><ele>53.0</ele><time>2026-04-17T16:27:58.179Z</time></trkpt><trkpt lat="45.9671079" lon="13.3385726"><ele>52.0</ele><time>2026-04-17T16:27:59.179Z</time></trkpt><trkpt lat="45.9672576" lon="13.3384553"><ele>51.0</ele><time>2026-04-17T16:28:00.179Z</time></trkpt><trkpt lat="45.9674048" lon="13.3383483"><ele>51.33333333333333</ele><time>2026-04-17T16:28:01.178Z</time></trkpt><trkpt lat="45.9675482" lon="13.3382445"><ele>51.666666666666664</ele><time>2026-04-17T16:28:02.179Z</time></trkpt><trkpt lat="45.9676984" lon="13.3381405"><ele>52.0</ele><time>2026-04-17T16:28:03.179Z</time></trkpt><trkpt lat="45.9678532" lon="13.3380374"><ele>52.33333333333333</ele><time>2026-04-17T16:28:04.179Z</time></trkpt><trkpt lat="45.9680128" lon="13.3379268"><ele>52.66666666666667</ele><time>2026-04-17T16:28:05.179Z</time></trkpt><trkpt lat="45.968172" lon="13.3378226"><ele>53.0</ele><time>2026-04-17T16:28:06.178Z</time></trkpt><trkpt lat="45.9683349" lon="13.3377176"><ele>53.0</ele><time>2026-04-17T16:28:07.179Z</time></trkpt><trkpt lat="45.9684997" lon="13.3376217"><ele>53.0</ele><time>2026-04-17T16:28:08.179Z</time></trkpt><trkpt lat="45.968658" lon="13.3375356"><ele>53.0</ele><time>2026-04-17T16:28:09.179Z</time></trkpt><trkpt lat="45.9688093" lon="13.3374434"><ele>53.0</ele><time>2026-04-17T16:28:10.179Z</time></trkpt><trkpt lat="45.9689561" lon="13.3373508"><ele>53.0</ele><time>2026-04-17T16:28:11.178Z</time></trkpt><trkpt lat="45.9691115" lon="13.3372553"><ele>53.0</ele><time>2026-04-17T16:28:12.179Z</time></trkpt><trkpt lat="45.969268" lon="13.3371601"><ele>52.66666666666667</ele><time>2026-04-17T16:28:13.179Z</time></trkpt><trkpt lat="45.9694292" lon="13.3370634"><ele>52.33333333333333</ele><time>2026-04-17T16:28:14.179Z</time></trkpt><trkpt lat="45.9695904" lon="13.3369684"><ele>52.0</ele><time>2026-04-17T16:28:15.179Z</time></trkpt><trkpt lat="45.9697511" lon="13.3368788"><ele>52.0</ele><time>2026-04-17T16:28:16.179Z</time></trkpt><trkpt lat="45.9699009" lon="13.3367849"><ele>52.0</ele><time>2026-04-17T16:28:17.179Z</time></trkpt><trkpt lat="45.9700536" lon="13.3366887"><ele>52.0</ele><time>2026-04-17T16:28:18.179Z</time></trkpt><trkpt lat="45.9701945" lon="13.3366026"><ele>52.666666666666664</ele><time>2026-04-17T16:28:19.178Z</time></trkpt><trkpt lat="45.9703352" lon="13.3365222"><ele>53.33333333333333</ele><time>2026-04-17T16:28:20.179Z</time></trkpt><trkpt lat="45.9704724" lon="13.3364464"><ele>54.0</ele><time>2026-04-17T16:28:21.179Z</time></trkpt><trkpt lat="45.9706209" lon="13.3363583"><ele>54.25</ele><time>2026-04-17T16:28:22.178Z</time></trkpt><trkpt lat="45.9707638" lon="13.3362733"><ele>54.5</ele><time>2026-04-17T16:28:23.179Z</time></trkpt><trkpt lat="45.9709035" lon="13.336191"><ele>54.75</ele><time>2026-04-17T16:28:24.179Z</time></trkpt><trkpt lat="45.9710357" lon="13.3361111"><ele>55.0</ele><time>2026-04-17T16:28:25.179Z</time></trkpt><trkpt lat="45.9711678" lon="13.3360303"><ele>55.25</ele><time>2026-04-17T16:28:26.178Z</time></trkpt><trkpt lat="45.9712946" lon="13.3359492"><ele>55.5</ele><time>2026-04-17T16:28:27.179Z</time></trkpt><trkpt lat="45.9714194" lon="13.335875"><ele>55.75</ele><time>2026-04-17T16:28:28.179Z</time></trkpt><trkpt lat="45.9715447" lon="13.3357827"><ele>56.0</ele><time>2026-04-17T16:28:29.178Z</time></trkpt><trkpt lat="45.9716785" lon="13.3356788"><ele>56.333333333333336</ele><time>2026-04-17T16:28:30.179Z</time></trkpt><trkpt lat="45.971819" lon="13.3355547"><ele>56.66666666666667</ele><time>2026-04-17T16:28:31.178Z</time></trkpt><trkpt lat="45.9719651" lon="13.3354133"><ele>57.0</ele><time>2026-04-17T16:28:32.179Z</time></trkpt><trkpt lat="45.9721095" lon="13.3352816"><ele>57.0</ele><time>2026-04-17T16:28:33.179Z</time></trkpt><trkpt lat="45.9722553" lon="13.3351393"><ele>57.0</ele><time>2026-04-17T16:28:34.179Z</time></trkpt><trkpt lat="45.972396" lon="13.334996"><ele>57.0</ele><time>2026-04-17T16:28:35.178Z</time></trkpt><trkpt lat="45.9725415" lon="13.3348344"><ele>56.66666666666667</ele><time>2026-04-17T16:28:36.179Z</time></trkpt><trkpt lat="45.9726871" lon="13.334687"><ele>56.333333333333336</ele><time>2026-04-17T16:28:37.178Z</time></trkpt><trkpt lat="45.9728281" lon="13.3345336"><ele>56.0</ele><time>2026-04-17T16:28:38.179Z</time></trkpt><trkpt lat="45.9729829" lon="13.334357"><ele>56.0</ele><time>2026-04-17T16:28:39.178Z</time></trkpt><trkpt lat="45.9731318" lon="13.3341871"><ele>56.0</ele><time>2026-04-17T16:28:40.178Z</time></trkpt><trkpt lat="45.9732534" lon="13.3340428"><ele>56.0</ele><time>2026-04-17T16:28:41.179Z</time></trkpt><trkpt lat="45.9733629" lon="13.3339166"><ele>56.4</ele><time>2026-04-17T16:28:42.179Z</time></trkpt><trkpt lat="45.9734573" lon="13.3338121"><ele>56.8</ele><time>2026-04-17T16:28:43.178Z</time></trkpt><trkpt lat="45.9735363" lon="13.3337198"><ele>57.199999999999996</ele><time>2026-04-17T16:28:44.179Z</time></trkpt><trkpt lat="45.9736117" lon="13.3336308"><ele>57.599999999999994</ele><time>2026-04-17T16:28:45.179Z</time></trkpt><trkpt lat="45.973675" lon="13.3335353"><ele>58.0</ele><time>2026-04-17T16:28:46.179Z</time></trkpt><trkpt lat="45.9737214" lon="13.3334605"><ele>57.99999999999999</ele><time>2026-04-17T16:28:47.179Z</time></trkpt><trkpt lat="45.973743" lon="13.3333114"><ele>58.0</ele><time>2026-04-17T16:28:49.178Z</time></trkpt><trkpt lat="45.9737834" lon="13.3332237"><ele>58.0</ele><time>2026-04-17T16:28:52.179Z</time></trkpt><trkpt lat="45.9738122" lon="13.3333439"><ele>58.0</ele><time>2026-04-17T16:28:55.179Z</time></trkpt><trkpt lat="45.9738124" lon="13.3334458"><ele>57.99999999999999</ele><time>2026-04-17T16:28:57.179Z</time></trkpt><trkpt lat="45.9738872" lon="13.3334422"><ele>58.0</ele><time>2026-04-17T16:29:12.178Z</time></trkpt><trkpt lat="45.973996" lon="13.3333556"><ele>57.99999999999999</ele><time>2026-04-17T16:29:14.179Z</time></trkpt><trkpt lat="45.9740583" lon="13.3332839"><ele>58.0</ele><time>2026-04-17T16:29:15.179Z</time></trkpt><trkpt lat="45.9741242" lon="13.3332061"><ele>58.0</ele><time>2026-04-17T16:29:16.179Z</time></trkpt><trkpt lat="45.974192" lon="13.3331327"><ele>58.0</ele><time>2026-04-17T16:29:17.179Z</time></trkpt><trkpt lat="45.974266" lon="13.3330469"><ele>57.99999999999999</ele><time>2026-04-17T16:29:18.179Z</time></trkpt><trkpt lat="45.9743444" lon="13.3329576"><ele>58.0</ele><time>2026-04-17T16:29:19.179Z</time></trkpt><trkpt lat="45.9744291" lon="13.3328612"><ele>57.666666666666664</ele><time>2026-04-17T16:29:20.179Z</time></trkpt><trkpt lat="45.9745155" lon="13.3327655"><ele>57.33333333333333</ele><time>2026-04-17T16:29:21.179Z</time></trkpt><trkpt lat="45.9745906" lon="13.3326838"><ele>57.0</ele><time>2026-04-17T16:29:22.179Z</time></trkpt><trkpt lat="45.9746555" lon="13.3326111"><ele>56.66666666666667</ele><time>2026-04-17T16:29:23.179Z</time></trkpt><trkpt lat="45.9747157" lon="13.3325459"><ele>56.333333333333336</ele><time>2026-04-17T16:29:24.178Z</time></trkpt><trkpt lat="45.974775" lon="13.3324738"><ele>56.0</ele><time>2026-04-17T16:29:25.178Z</time></trkpt><trkpt lat="45.9748397" lon="13.332405"><ele>56.00000000000001</ele><time>2026-04-17T16:29:26.178Z</time></trkpt><trkpt lat="45.9749033" lon="13.3323302"><ele>56.0</ele><time>2026-04-17T16:29:27.179Z</time></trkpt><trkpt lat="45.9749713" lon="13.3322612"><ele>56.0</ele><time>2026-04-17T16:29:28.179Z</time></trkpt><trkpt lat="45.9750413" lon="13.3321854"><ele>56.0</ele><time>2026-04-17T16:29:29.179Z</time></trkpt><trkpt lat="45.975109" lon="13.3321065"><ele>56.00000000000001</ele><time>2026-04-17T16:29:30.179Z</time></trkpt><trkpt lat="45.97518" lon="13.3320294"><ele>56.0</ele><time>2026-04-17T16:29:31.179Z</time></trkpt><trkpt lat="45.975252" lon="13.3319468"><ele>56.00000000000001</ele><time>2026-04-17T16:29:32.178Z</time></trkpt><trkpt lat="45.9753175" lon="13.3318679"><ele>56.0</ele><time>2026-04-17T16:29:33.179Z</time></trkpt><trkpt lat="45.9753859" lon="13.3317865"><ele>56.0</ele><time>2026-04-17T16:29:34.179Z</time></trkpt><trkpt lat="45.9754522" lon="13.3317104"><ele>56.0</ele><time>2026-04-17T16:29:35.179Z</time></trkpt><trkpt lat="45.9755161" lon="13.3316388"><ele>56.00000000000001</ele><time>2026-04-17T16:29:36.179Z</time></trkpt><trkpt lat="45.9755753" lon="13.3315785"><ele>56.0</ele><time>2026-04-17T16:29:37.179Z</time></trkpt><trkpt lat="45.9756297" lon="13.3315213"><ele>56.00000000000001</ele><time>2026-04-17T16:29:38.178Z</time></trkpt><trkpt lat="45.9757159" lon="13.3314221"><ele>56.0</ele><time>2026-04-17T16:29:40.179Z</time></trkpt><trkpt lat="45.9757699" lon="13.3313606"><ele>56.0</ele><time>2026-04-17T16:29:42.178Z</time></trkpt><trkpt lat="45.9758231" lon="13.3313078"><ele>56.0</ele><time>2026-04-17T16:29:46.178Z</time></trkpt><trkpt lat="45.9758775" lon="13.3312295"><ele>56.00000000000001</ele><time>2026-04-17T16:29:52.178Z</time></trkpt><trkpt lat="45.9759335" lon="13.3311627"><ele>56.0</ele><time>2026-04-17T16:29:55.178Z</time></trkpt><trkpt lat="45.9759944" lon="13.3310803"><ele>56.66666666666667</ele><time>2026-04-17T16:29:58.178Z</time></trkpt><trkpt lat="45.9760441" lon="13.3310223"><ele>57.333333333333336</ele><time>2026-04-17T16:30:02.179Z</time></trkpt><trkpt lat="45.976115" lon="13.3309586"><ele>58.0</ele><time>2026-04-17T16:30:14.179Z</time></trkpt><trkpt lat="45.9761748" lon="13.3308981"><ele>58.66666666666667</ele><time>2026-04-17T16:30:15.179Z</time></trkpt><trkpt lat="45.9762374" lon="13.3308352"><ele>59.333333333333336</ele><time>2026-04-17T16:30:16.179Z</time></trkpt><trkpt lat="45.9763063" lon="13.3307659"><ele>60.0</ele><time>2026-04-17T16:30:17.178Z</time></trkpt><trkpt lat="45.9763815" lon="13.3306906"><ele>60.0</ele><time>2026-04-17T16:30:18.179Z</time></trkpt><trkpt lat="45.9764544" lon="13.3306109"><ele>60.0</ele><time>2026-04-17T16:30:19.179Z</time></trkpt><trkpt lat="45.9765215" lon="13.330541"><ele>60.0</ele><time>2026-04-17T16:30:20.178Z</time></trkpt><trkpt lat="45.9765809" lon="13.330476"><ele>60.0</ele><time>2026-04-17T16:30:21.179Z</time></trkpt><trkpt lat="45.9766633" lon="13.3303802"><ele>60.0</ele><time>2026-04-17T16:30:23.179Z</time></trkpt><trkpt lat="45.9767052" lon="13.330312"><ele>60.0</ele><time>2026-04-17T16:30:25.179Z</time></trkpt><trkpt lat="45.9767675" lon="13.3302403"><ele>59.8</ele><time>2026-04-17T16:30:32.179Z</time></trkpt><trkpt lat="45.9768651" lon="13.3301624"><ele>59.6</ele><time>2026-04-17T16:30:34.179Z</time></trkpt><trkpt lat="45.9769275" lon="13.330132"><ele>59.400000000000006</ele><time>2026-04-17T16:30:35.178Z</time></trkpt><trkpt lat="45.9769965" lon="13.3300796"><ele>59.2</ele><time>2026-04-17T16:30:36.179Z</time></trkpt><trkpt lat="45.9770728" lon="13.3299857"><ele>59.0</ele><time>2026-04-17T16:30:37.179Z</time></trkpt><trkpt lat="45.9771574" lon="13.3298347"><ele>58.333333333333336</ele><time>2026-04-17T16:30:38.178Z</time></trkpt><trkpt lat="45.9772578" lon="13.3296518"><ele>57.66666666666667</ele><time>2026-04-17T16:30:39.179Z</time></trkpt><trkpt lat="45.9773749" lon="13.3294768"><ele>57.0</ele><time>2026-04-17T16:30:40.179Z</time></trkpt><trkpt lat="45.9775117" lon="13.3292714"><ele>57.33333333333333</ele><time>2026-04-17T16:30:41.178Z</time></trkpt><trkpt lat="45.9776533" lon="13.3290754"><ele>57.666666666666664</ele><time>2026-04-17T16:30:42.179Z</time></trkpt><trkpt lat="45.9777903" lon="13.3288843"><ele>58.0</ele><time>2026-04-17T16:30:43.179Z</time></trkpt><trkpt lat="45.9779166" lon="13.3287128"><ele>57.0</ele><time>2026-04-17T16:30:44.178Z</time></trkpt><trkpt lat="45.9780444" lon="13.3285456"><ele>56.0</ele><time>2026-04-17T16:30:45.179Z</time></trkpt><trkpt lat="45.9781689" lon="13.3283798"><ele>55.0</ele><time>2026-04-17T16:30:46.179Z</time></trkpt><trkpt lat="45.9783013" lon="13.3282021"><ele>55.666666666666664</ele><time>2026-04-17T16:30:47.178Z</time></trkpt><trkpt lat="45.9784289" lon="13.3280267"><ele>56.33333333333333</ele><time>2026-04-17T16:30:48.178Z</time></trkpt><trkpt lat="45.9785542" lon="13.3278438"><ele>57.0</ele><time>2026-04-17T16:30:49.179Z</time></trkpt><trkpt lat="45.9786778" lon="13.3276592"><ele>57.0</ele><time>2026-04-17T16:30:50.179Z</time></trkpt><trkpt lat="45.9788068" lon="13.3274771"><ele>57.0</ele><time>2026-04-17T16:30:51.179Z</time></trkpt><trkpt lat="45.978936" lon="13.3272953"><ele>57.0</ele><time>2026-04-17T16:30:52.179Z</time></trkpt><trkpt lat="45.9790559" lon="13.3271151"><ele>56.66666666666667</ele><time>2026-04-17T16:30:53.179Z</time></trkpt><trkpt lat="45.9791754" lon="13.3269376"><ele>56.333333333333336</ele><time>2026-04-17T16:30:54.179Z</time></trkpt><trkpt lat="45.9793014" lon="13.326763"><ele>56.0</ele><time>2026-04-17T16:30:55.179Z</time></trkpt><trkpt lat="45.9794322" lon="13.3265753"><ele>57.333333333333336</ele><time>2026-04-17T16:30:56.179Z</time></trkpt><trkpt lat="45.9795627" lon="13.3263931"><ele>58.66666666666667</ele><time>2026-04-17T16:30:57.179Z</time></trkpt><trkpt lat="45.97969" lon="13.3262058"><ele>60.0</ele><time>2026-04-17T16:30:58.179Z</time></trkpt><trkpt lat="45.9798222" lon="13.3260221"><ele>60.0</ele><time>2026-04-17T16:30:59.179Z</time></trkpt><trkpt lat="45.9799457" lon="13.325851"><ele>60.0</ele><time>2026-04-17T16:31:00.179Z</time></trkpt><trkpt lat="45.980065" lon="13.3256708"><ele>60.0</ele><time>2026-04-17T16:31:01.179Z</time></trkpt><trkpt lat="45.9801768" lon="13.3254943"><ele>60.0</ele><time>2026-04-17T16:31:02.178Z</time></trkpt><trkpt lat="45.9802852" lon="13.3253372"><ele>60.0</ele><time>2026-04-17T16:31:03.179Z</time></trkpt><trkpt lat="45.9803876" lon="13.3251903"><ele>60.0</ele><time>2026-04-17T16:31:04.179Z</time></trkpt><trkpt lat="45.9804888" lon="13.3250429"><ele>60.0</ele><time>2026-04-17T16:31:05.179Z</time></trkpt><trkpt lat="45.9805944" lon="13.3248979"><ele>60.0</ele><time>2026-04-17T16:31:06.179Z</time></trkpt><trkpt lat="45.9806833" lon="13.324763"><ele>60.0</ele><time>2026-04-17T16:31:07.179Z</time></trkpt><trkpt lat="45.9807717" lon="13.3246591"><ele>60.0</ele><time>2026-04-17T16:31:08.178Z</time></trkpt><trkpt lat="45.9808511" lon="13.324568"><ele>60.0</ele><time>2026-04-17T16:31:09.179Z</time></trkpt><trkpt lat="45.9809249" lon="13.3244969"><ele>60.0</ele><time>2026-04-17T16:31:10.178Z</time></trkpt><trkpt lat="45.9809955" lon="13.3244505"><ele>59.833333333333336</ele><time>2026-04-17T16:31:11.179Z</time></trkpt><trkpt lat="45.9810562" lon="13.3243987"><ele>59.66666666666667</ele><time>2026-04-17T16:31:12.179Z</time></trkpt><trkpt lat="45.9811111" lon="13.3243342"><ele>59.5</ele><time>2026-04-17T16:31:13.179Z</time></trkpt><trkpt lat="45.9811579" lon="13.3242361"><ele>59.333333333333336</ele><time>2026-04-17T16:31:14.179Z</time></trkpt><trkpt lat="45.9812093" lon="13.3241168"><ele>59.16666666666667</ele><time>2026-04-17T16:31:15.179Z</time></trkpt><trkpt lat="45.9812777" lon="13.3239898"><ele>59.0</ele><time>2026-04-17T16:31:16.179Z</time></trkpt><trkpt lat="45.9813674" lon="13.3238711"><ele>59.0</ele><time>2026-04-17T16:31:17.179Z</time></trkpt><trkpt lat="45.9814683" lon="13.3237419"><ele>59.0</ele><time>2026-04-17T16:31:18.179Z</time></trkpt><trkpt lat="45.9815735" lon="13.3235978"><ele>59.0</ele><time>2026-04-17T16:31:19.178Z</time></trkpt><trkpt lat="45.9816873" lon="13.3234341"><ele>59.0</ele><time>2026-04-17T16:31:20.179Z</time></trkpt><trkpt lat="45.9818008" lon="13.3232824"><ele>59.0</ele><time>2026-04-17T16:31:21.179Z</time></trkpt><trkpt lat="45.981902" lon="13.3231398"><ele>59.0</ele><time>2026-04-17T16:31:22.177Z</time></trkpt><trkpt lat="45.9819833" lon="13.3230156"><ele>59.0</ele><time>2026-04-17T16:31:23.178Z</time></trkpt><trkpt lat="45.9820573" lon="13.322894"><ele>59.0</ele><time>2026-04-17T16:31:24.177Z</time></trkpt><trkpt lat="45.9821368" lon="13.3227842"><ele>59.25</ele><time>2026-04-17T16:31:25.178Z</time></trkpt><trkpt lat="45.9822221" lon="13.3226863"><ele>59.5</ele><time>2026-04-17T16:31:26.177Z</time></trkpt><trkpt lat="45.9823202" lon="13.3225826"><ele>59.75</ele><time>2026-04-17T16:31:27.177Z</time></trkpt><trkpt lat="45.9824208" lon="13.3224627"><ele>60.0</ele><time>2026-04-17T16:31:28.177Z</time></trkpt><trkpt lat="45.9825201" lon="13.3223199"><ele>60.25</ele><time>2026-04-17T16:31:29.178Z</time></trkpt><trkpt lat="45.9826163" lon="13.3221729"><ele>60.5</ele><time>2026-04-17T16:31:30.178Z</time></trkpt><trkpt lat="45.9827064" lon="13.3220339"><ele>60.75</ele><time>2026-04-17T16:31:31.177Z</time></trkpt><trkpt lat="45.9827861" lon="13.3219213"><ele>61.0</ele><time>2026-04-17T16:31:32.177Z</time></trkpt><trkpt lat="45.9828572" lon="13.3218216"><ele>61.0</ele><time>2026-04-17T16:31:33.178Z</time></trkpt><trkpt lat="45.9829344" lon="13.3217066"><ele>60.99999999999999</ele><time>2026-04-17T16:31:34.178Z</time></trkpt><trkpt lat="45.983011" lon="13.3215879"><ele>60.99999999999999</ele><time>2026-04-17T16:31:35.177Z</time></trkpt><trkpt lat="45.9830846" lon="13.3214763"><ele>61.0</ele><time>2026-04-17T16:31:36.178Z</time></trkpt><trkpt lat="45.9831441" lon="13.3213842"><ele>61.0</ele><time>2026-04-17T16:31:37.178Z</time></trkpt><trkpt lat="45.9831988" lon="13.3213073"><ele>60.85714285714285</ele><time>2026-04-17T16:31:38.178Z</time></trkpt><trkpt lat="45.9832479" lon="13.3212437"><ele>60.71428571428571</ele><time>2026-04-17T16:31:39.178Z</time></trkpt><trkpt lat="45.9833026" lon="13.3211846"><ele>60.57142857142857</ele><time>2026-04-17T16:31:40.178Z</time></trkpt><trkpt lat="45.9833574" lon="13.321119"><ele>60.42857142857142</ele><time>2026-04-17T16:31:41.178Z</time></trkpt><trkpt lat="45.983422" lon="13.3210583"><ele>60.28571428571428</ele><time>2026-04-17T16:31:42.178Z</time></trkpt><trkpt lat="45.9834903" lon="13.320983"><ele>60.142857142857146</ele><time>2026-04-17T16:31:43.177Z</time></trkpt><trkpt lat="45.9835516" lon="13.3209266"><ele>60.0</ele><time>2026-04-17T16:31:44.177Z</time></trkpt><trkpt lat="45.9836114" lon="13.3208788"><ele>60.4</ele><time>2026-04-17T16:31:45.178Z</time></trkpt><trkpt lat="45.9836747" lon="13.3207994"><ele>60.8</ele><time>2026-04-17T16:31:47.178Z</time></trkpt><trkpt lat="45.9836898" lon="13.3206972"><ele>61.2</ele><time>2026-04-17T16:31:49.178Z</time></trkpt><trkpt lat="45.9837615" lon="13.3205065"><ele>61.6</ele><time>2026-04-17T16:31:51.178Z</time></trkpt><trkpt lat="45.9838372" lon="13.320404"><ele>62.0</ele><time>2026-04-17T16:31:52.178Z</time></trkpt><trkpt lat="45.9839267" lon="13.3203139"><ele>62.0</ele><time>2026-04-17T16:31:53.177Z</time></trkpt><trkpt lat="45.9840211" lon="13.320217"><ele>62.0</ele><time>2026-04-17T16:31:54.178Z</time></trkpt><trkpt lat="45.9841204" lon="13.3201089"><ele>62.0</ele><time>2026-04-17T16:31:55.177Z</time></trkpt><trkpt lat="45.9842286" lon="13.3199949"><ele>62.0</ele><time>2026-04-17T16:31:56.178Z</time></trkpt><trkpt lat="45.9843498" lon="13.3198853"><ele>62.333333333333336</ele><time>2026-04-17T16:31:57.178Z</time></trkpt><trkpt lat="45.9844741" lon="13.3197831"><ele>62.66666666666667</ele><time>2026-04-17T16:31:58.177Z</time></trkpt><trkpt lat="45.9846087" lon="13.3196733"><ele>63.0</ele><time>2026-04-17T16:31:59.177Z</time></trkpt><trkpt lat="45.9847458" lon="13.3195514"><ele>63.0</ele><time>2026-04-17T16:32:00.177Z</time></trkpt><trkpt lat="45.9848976" lon="13.3194373"><ele>63.0</ele><time>2026-04-17T16:32:01.177Z</time></trkpt><trkpt lat="45.9850547" lon="13.3193116"><ele>63.0</ele><time>2026-04-17T16:32:02.178Z</time></trkpt><trkpt lat="45.9852195" lon="13.3191785"><ele>63.0</ele><time>2026-04-17T16:32:03.177Z</time></trkpt><trkpt lat="45.9853789" lon="13.3190451"><ele>63.0</ele><time>2026-04-17T16:32:04.178Z</time></trkpt><trkpt lat="45.9855439" lon="13.3189018"><ele>63.0</ele><time>2026-04-17T16:32:05.177Z</time></trkpt><trkpt lat="45.985717" lon="13.3187527"><ele>62.66666666666667</ele><time>2026-04-17T16:32:06.178Z</time></trkpt><trkpt lat="45.9858865" lon="13.3186095"><ele>62.333333333333336</ele><time>2026-04-17T16:32:07.177Z</time></trkpt><trkpt lat="45.9860612" lon="13.3184685"><ele>62.0</ele><time>2026-04-17T16:32:08.177Z</time></trkpt><trkpt lat="45.9862398" lon="13.3183178"><ele>62.0</ele><time>2026-04-17T16:32:09.177Z</time></trkpt><trkpt lat="45.9864278" lon="13.3181582"><ele>62.0</ele><time>2026-04-17T16:32:10.178Z</time></trkpt><trkpt lat="45.9866221" lon="13.3179852"><ele>62.0</ele><time>2026-04-17T16:32:11.178Z</time></trkpt><trkpt lat="45.9868249" lon="13.3178141"><ele>62.0</ele><time>2026-04-17T16:32:12.177Z</time></trkpt><trkpt lat="45.9870243" lon="13.3176412"><ele>62.0</ele><time>2026-04-17T16:32:13.178Z</time></trkpt><trkpt lat="45.9872275" lon="13.3174755"><ele>62.0</ele><time>2026-04-17T16:32:14.178Z</time></trkpt><trkpt lat="45.9874226" lon="13.3173119"><ele>62.0</ele><time>2026-04-17T16:32:15.178Z</time></trkpt><trkpt lat="45.9876235" lon="13.3171357"><ele>62.0</ele><time>2026-04-17T16:32:16.178Z</time></trkpt><trkpt lat="45.9878169" lon="13.3169629"><ele>62.0</ele><time>2026-04-17T16:32:17.178Z</time></trkpt><trkpt lat="45.9879915" lon="13.3168124"><ele>62.0</ele><time>2026-04-17T16:32:18.177Z</time></trkpt><trkpt lat="45.988153" lon="13.31667"><ele>62.0</ele><time>2026-04-17T16:32:19.178Z</time></trkpt><trkpt lat="45.9882956" lon="13.3165357"><ele>62.0</ele><time>2026-04-17T16:32:20.177Z</time></trkpt><trkpt lat="45.9884294" lon="13.3164185"><ele>62.0</ele><time>2026-04-17T16:32:21.178Z</time></trkpt><trkpt lat="45.988553" lon="13.3163093"><ele>62.25</ele><time>2026-04-17T16:32:22.178Z</time></trkpt><trkpt lat="45.9886696" lon="13.3162088"><ele>62.5</ele><time>2026-04-17T16:32:23.178Z</time></trkpt><trkpt lat="45.9887792" lon="13.3161121"><ele>62.75</ele><time>2026-04-17T16:32:24.177Z</time></trkpt><trkpt lat="45.9888849" lon="13.3160218"><ele>63.0</ele><time>2026-04-17T16:32:25.177Z</time></trkpt><trkpt lat="45.9889864" lon="13.315942"><ele>63.0</ele><time>2026-04-17T16:32:26.178Z</time></trkpt><trkpt lat="45.9890758" lon="13.3158784"><ele>63.0</ele><time>2026-04-17T16:32:27.177Z</time></trkpt><trkpt lat="45.9891505" lon="13.3158173"><ele>63.0</ele><time>2026-04-17T16:32:28.178Z</time></trkpt><trkpt lat="45.9892122" lon="13.3157647"><ele>63.0</ele><time>2026-04-17T16:32:29.178Z</time></trkpt><trkpt lat="45.9892691" lon="13.3157195"><ele>63.0</ele><time>2026-04-17T16:32:30.177Z</time></trkpt><trkpt lat="45.989369" lon="13.3156325"><ele>63.0</ele><time>2026-04-17T16:32:32.178Z</time></trkpt><trkpt lat="45.989466" lon="13.3155379"><ele>63.0</ele><time>2026-04-17T16:32:34.177Z</time></trkpt><trkpt lat="45.9895151" lon="13.3154798"><ele>63.0</ele><time>2026-04-17T16:32:35.177Z</time></trkpt><trkpt lat="45.9895716" lon="13.3154289"><ele>63.0</ele><time>2026-04-17T16:32:36.178Z</time></trkpt><trkpt lat="45.9896316" lon="13.3153786"><ele>63.0</ele><time>2026-04-17T16:32:37.178Z</time></trkpt><trkpt lat="45.9897438" lon="13.3153047"><ele>63.0</ele><time>2026-04-17T16:32:39.177Z</time></trkpt><trkpt lat="45.9898021" lon="13.3152603"><ele>63.0</ele><time>2026-04-17T16:32:40.178Z</time></trkpt><trkpt lat="45.989871" lon="13.3152031"><ele>63.0</ele><time>2026-04-17T16:32:41.177Z</time></trkpt><trkpt lat="45.9899413" lon="13.3151501"><ele>63.0</ele><time>2026-04-17T16:32:42.177Z</time></trkpt><trkpt lat="45.9899991" lon="13.3151119"><ele>63.0</ele><time>2026-04-17T16:32:43.177Z</time></trkpt><trkpt lat="45.9901161" lon="13.3150431"><ele>63.0</ele><time>2026-04-17T16:32:45.177Z</time></trkpt><trkpt lat="45.9902084" lon="13.3149571"><ele>63.0</ele><time>2026-04-17T16:32:47.178Z</time></trkpt><trkpt lat="45.9902563" lon="13.3148888"><ele>63.0</ele><time>2026-04-17T16:32:48.178Z</time></trkpt><trkpt lat="45.9903214" lon="13.3148105"><ele>63.25</ele><time>2026-04-17T16:32:49.178Z</time></trkpt><trkpt lat="45.9904113" lon="13.3147209"><ele>63.5</ele><time>2026-04-17T16:32:50.177Z</time></trkpt><trkpt lat="45.9905171" lon="13.3146287"><ele>63.75</ele><time>2026-04-17T16:32:51.178Z</time></trkpt><trkpt lat="45.9906306" lon="13.3145301"><ele>64.0</ele><time>2026-04-17T16:32:52.178Z</time></trkpt><trkpt lat="45.9907588" lon="13.3144209"><ele>64.0</ele><time>2026-04-17T16:32:53.177Z</time></trkpt><trkpt lat="45.9909267" lon="13.3142914"><ele>64.0</ele><time>2026-04-17T16:32:54.178Z</time></trkpt><trkpt lat="45.99111" lon="13.3141371"><ele>64.0</ele><time>2026-04-17T16:32:55.177Z</time></trkpt><trkpt lat="45.9912999" lon="13.3139717"><ele>64.0</ele><time>2026-04-17T16:32:56.178Z</time></trkpt><trkpt lat="45.9915073" lon="13.3138012"><ele>64.0</ele><time>2026-04-17T16:32:57.177Z</time></trkpt><trkpt lat="45.9917163" lon="13.3136161"><ele>64.0</ele><time>2026-04-17T16:32:58.178Z</time></trkpt><trkpt lat="45.9919215" lon="13.3134427"><ele>64.0</ele><time>2026-04-17T16:32:59.178Z</time></trkpt><trkpt lat="45.9921178" lon="13.3132726"><ele>64.0</ele><time>2026-04-17T16:33:00.178Z</time></trkpt><trkpt lat="45.9923034" lon="13.3131052"><ele>64.0</ele><time>2026-04-17T16:33:01.178Z</time></trkpt><trkpt lat="45.9924843" lon="13.3129424"><ele>64.0</ele><time>2026-04-17T16:33:02.178Z</time></trkpt><trkpt lat="45.992647" lon="13.3127937"><ele>64.33333333333333</ele><time>2026-04-17T16:33:03.178Z</time></trkpt><trkpt lat="45.9927984" lon="13.3126569"><ele>64.66666666666667</ele><time>2026-04-17T16:33:04.178Z</time></trkpt><trkpt lat="45.9929295" lon="13.3125397"><ele>65.0</ele><time>2026-04-17T16:33:05.178Z</time></trkpt><trkpt lat="45.9930379" lon="13.3124473"><ele>65.0</ele><time>2026-04-17T16:33:06.178Z</time></trkpt><trkpt lat="45.99313" lon="13.3123568"><ele>65.0</ele><time>2026-04-17T16:33:07.178Z</time></trkpt><trkpt lat="45.9932113" lon="13.3122611"><ele>65.0</ele><time>2026-04-17T16:33:08.177Z</time></trkpt><trkpt lat="45.9932911" lon="13.3121715"><ele>65.0</ele><time>2026-04-17T16:33:09.177Z</time></trkpt><trkpt lat="45.9933666" lon="13.3120871"><ele>65.0</ele><time>2026-04-17T16:33:10.177Z</time></trkpt><trkpt lat="45.9934355" lon="13.3120285"><ele>64.83333333333334</ele><time>2026-04-17T16:33:11.178Z</time></trkpt><trkpt lat="45.9934993" lon="13.3119835"><ele>64.66666666666667</ele><time>2026-04-17T16:33:12.178Z</time></trkpt><trkpt lat="45.9935923" lon="13.3119251"><ele>64.5</ele><time>2026-04-17T16:33:14.178Z</time></trkpt><trkpt lat="45.9936533" lon="13.3118938"><ele>64.33333333333333</ele><time>2026-04-17T16:33:16.177Z</time></trkpt><trkpt lat="45.9937418" lon="13.3118688"><ele>64.16666666666666</ele><time>2026-04-17T16:33:18.177Z</time></trkpt><trkpt lat="45.9938061" lon="13.3118421"><ele>64.0</ele><time>2026-04-17T16:33:19.178Z</time></trkpt><trkpt lat="45.9938796" lon="13.3118164"><ele>63.99999999999999</ele><time>2026-04-17T16:33:20.178Z</time></trkpt><trkpt lat="45.9939492" lon="13.3117941"><ele>64.0</ele><time>2026-04-17T16:33:21.177Z</time></trkpt><trkpt lat="45.9940195" lon="13.3117784"><ele>64.0</ele><time>2026-04-17T16:33:22.178Z</time></trkpt><trkpt lat="45.9940922" lon="13.311767"><ele>64.0</ele><time>2026-04-17T16:33:23.178Z</time></trkpt><trkpt lat="45.9941647" lon="13.311742"><ele>63.99999999999999</ele><time>2026-04-17T16:33:24.178Z</time></trkpt><trkpt lat="45.9942542" lon="13.3117142"><ele>64.0</ele><time>2026-04-17T16:33:25.178Z</time></trkpt><trkpt lat="45.9943503" lon="13.3116762"><ele>64.60000000000001</ele><time>2026-04-17T16:33:26.177Z</time></trkpt><trkpt lat="45.9944424" lon="13.3116499"><ele>65.2</ele><time>2026-04-17T16:33:27.177Z</time></trkpt><trkpt lat="45.9945347" lon="13.3116246"><ele>65.80000000000001</ele><time>2026-04-17T16:33:28.178Z</time></trkpt><trkpt lat="45.9946295" lon="13.3116012"><ele>66.4</ele><time>2026-04-17T16:33:29.178Z</time></trkpt><trkpt lat="45.994732" lon="13.3115777"><ele>67.0</ele><time>2026-04-17T16:33:30.178Z</time></trkpt><trkpt lat="45.9948419" lon="13.311548"><ele>67.0</ele><time>2026-04-17T16:33:31.178Z</time></trkpt><trkpt lat="45.9949568" lon="13.3115165"><ele>67.0</ele><time>2026-04-17T16:33:32.178Z</time></trkpt><trkpt lat="45.9950653" lon="13.3114889"><ele>67.0</ele><time>2026-04-17T16:33:33.177Z</time></trkpt><trkpt lat="45.9951783" lon="13.3114553"><ele>67.0</ele><time>2026-04-17T16:33:34.177Z</time></trkpt><trkpt lat="45.9952995" lon="13.3114156"><ele>66.5</ele><time>2026-04-17T16:33:35.178Z</time></trkpt><trkpt lat="45.9954228" lon="13.311377"><ele>66.0</ele><time>2026-04-17T16:33:36.177Z</time></trkpt><trkpt lat="45.9955506" lon="13.3113372"><ele>65.5</ele><time>2026-04-17T16:33:37.178Z</time></trkpt><trkpt lat="45.995678" lon="13.3113026"><ele>65.0</ele><time>2026-04-17T16:33:38.178Z</time></trkpt><trkpt lat="45.9958089" lon="13.3112677"><ele>65.25</ele><time>2026-04-17T16:33:39.178Z</time></trkpt><trkpt lat="45.9959305" lon="13.3112361"><ele>65.5</ele><time>2026-04-17T16:33:40.178Z</time></trkpt><trkpt lat="45.9960623" lon="13.3111982"><ele>65.75</ele><time>2026-04-17T16:33:41.178Z</time></trkpt><trkpt lat="45.9961854" lon="13.3111656"><ele>66.0</ele><time>2026-04-17T16:33:42.177Z</time></trkpt><trkpt lat="45.9963099" lon="13.3111348"><ele>66.0</ele><time>2026-04-17T16:33:43.178Z</time></trkpt><trkpt lat="45.9964288" lon="13.3111024"><ele>66.0</ele><time>2026-04-17T16:33:44.177Z</time></trkpt><trkpt lat="45.9965527" lon="13.3110594"><ele>66.0</ele><time>2026-04-17T16:33:45.177Z</time></trkpt><trkpt lat="45.996672" lon="13.3110367"><ele>66.0</ele><time>2026-04-17T16:33:46.178Z</time></trkpt><trkpt lat="45.9967811" lon="13.3110063"><ele>66.39999999999999</ele><time>2026-04-17T16:33:47.178Z</time></trkpt><trkpt lat="45.9968826" lon="13.3109776"><ele>66.8</ele><time>2026-04-17T16:33:48.178Z</time></trkpt><trkpt lat="45.9969794" lon="13.310961"><ele>67.19999999999999</ele><time>2026-04-17T16:33:49.178Z</time></trkpt><trkpt lat="45.9970802" lon="13.3109477"><ele>67.6</ele><time>2026-04-17T16:33:50.177Z</time></trkpt><trkpt lat="45.997198" lon="13.3109284"><ele>68.0</ele><time>2026-04-17T16:33:51.178Z</time></trkpt><trkpt lat="45.9973115" lon="13.3109079"><ele>68.0</ele><time>2026-04-17T16:33:52.177Z</time></trkpt><trkpt lat="45.9974231" lon="13.3108954"><ele>68.0</ele><time>2026-04-17T16:33:53.178Z</time></trkpt><trkpt lat="45.9975349" lon="13.3108923"><ele>68.0</ele><time>2026-04-17T16:33:54.177Z</time></trkpt><trkpt lat="45.9976435" lon="13.3108881"><ele>68.0</ele><time>2026-04-17T16:33:55.177Z</time></trkpt><trkpt lat="45.9977569" lon="13.3108878"><ele>68.0</ele><time>2026-04-17T16:33:56.178Z</time></trkpt><trkpt lat="45.9978768" lon="13.3108929"><ele>68.25</ele><time>2026-04-17T16:33:57.177Z</time></trkpt><trkpt lat="45.9980016" lon="13.3109026"><ele>68.5</ele><time>2026-04-17T16:33:58.178Z</time></trkpt><trkpt lat="45.9981339" lon="13.3109165"><ele>68.75</ele><time>2026-04-17T16:33:59.177Z</time></trkpt><trkpt lat="45.9982605" lon="13.3109366"><ele>69.0</ele><time>2026-04-17T16:34:00.178Z</time></trkpt><trkpt lat="45.9983964" lon="13.3109704"><ele>69.0</ele><time>2026-04-17T16:34:01.178Z</time></trkpt><trkpt lat="45.9985331" lon="13.3110058"><ele>69.0</ele><time>2026-04-17T16:34:02.178Z</time></trkpt><trkpt lat="45.9986759" lon="13.3110382"><ele>69.0</ele><time>2026-04-17T16:34:03.178Z</time></trkpt><trkpt lat="45.9988192" lon="13.3110714"><ele>69.0</ele><time>2026-04-17T16:34:04.178Z</time></trkpt><trkpt lat="45.9989443" lon="13.3111016"><ele>69.0</ele><time>2026-04-17T16:34:05.177Z</time></trkpt><trkpt lat="45.9990791" lon="13.3111235"><ele>69.0</ele><time>2026-04-17T16:34:06.178Z</time></trkpt><trkpt lat="45.9992144" lon="13.3111425"><ele>69.0</ele><time>2026-04-17T16:34:07.177Z</time></trkpt><trkpt lat="45.9993424" lon="13.3111778"><ele>69.0</ele><time>2026-04-17T16:34:08.178Z</time></trkpt><trkpt lat="45.9994633" lon="13.3112142"><ele>69.0</ele><time>2026-04-17T16:34:09.178Z</time></trkpt><trkpt lat="45.9995836" lon="13.311241"><ele>69.0</ele><time>2026-04-17T16:34:10.177Z</time></trkpt><trkpt lat="45.9997065" lon="13.3112526"><ele>69.0</ele><time>2026-04-17T16:34:11.178Z</time></trkpt><trkpt lat="45.999818" lon="13.3112659"><ele>69.0</ele><time>2026-04-17T16:34:12.178Z</time></trkpt><trkpt lat="45.999912" lon="13.3112775"><ele>69.0</ele><time>2026-04-17T16:34:13.178Z</time></trkpt><trkpt lat="45.9999938" lon="13.3112842"><ele>69.0</ele><time>2026-04-17T16:34:14.177Z</time></trkpt><trkpt lat="46.0000837" lon="13.3112782"><ele>69.0</ele><time>2026-04-17T16:34:15.178Z</time></trkpt><trkpt lat="46.0001925" lon="13.3112758"><ele>69.0</ele><time>2026-04-17T16:34:16.178Z</time></trkpt><trkpt lat="46.0003177" lon="13.3112789"><ele>69.0</ele><time>2026-04-17T16:34:17.178Z</time></trkpt><trkpt lat="46.00046" lon="13.3112986"><ele>69.0</ele><time>2026-04-17T16:34:18.177Z</time></trkpt><trkpt lat="46.0005988" lon="13.3113184"><ele>69.0</ele><time>2026-04-17T16:34:19.177Z</time></trkpt><trkpt lat="46.0007437" lon="13.3113399"><ele>69.0</ele><time>2026-04-17T16:34:20.177Z</time></trkpt><trkpt lat="46.0008879" lon="13.3113543"><ele>69.0</ele><time>2026-04-17T16:34:21.178Z</time></trkpt><trkpt lat="46.0010167" lon="13.3113714"><ele>68.8</ele><time>2026-04-17T16:34:22.177Z</time></trkpt><trkpt lat="46.0011325" lon="13.3113828"><ele>68.60000000000001</ele><time>2026-04-17T16:34:23.178Z</time></trkpt><trkpt lat="46.0012349" lon="13.3113809"><ele>68.4</ele><time>2026-04-17T16:34:24.178Z</time></trkpt><trkpt lat="46.0013216" lon="13.3113713"><ele>68.2</ele><time>2026-04-17T16:34:25.178Z</time></trkpt><trkpt lat="46.0013901" lon="13.3113606"><ele>68.0</ele><time>2026-04-17T16:34:26.178Z</time></trkpt><trkpt lat="46.0014879" lon="13.3113692"><ele>68.4</ele><time>2026-04-17T16:34:28.178Z</time></trkpt><trkpt lat="46.0015693" lon="13.3114173"><ele>68.8</ele><time>2026-04-17T16:34:30.178Z</time></trkpt><trkpt lat="46.0016945" lon="13.3114479"><ele>69.2</ele><time>2026-04-17T16:34:32.177Z</time></trkpt><trkpt lat="46.001771" lon="13.311452"><ele>69.6</ele><time>2026-04-17T16:34:33.178Z</time></trkpt><trkpt lat="46.0018558" lon="13.3114573"><ele>70.0</ele><time>2026-04-17T16:34:34.177Z</time></trkpt><trkpt lat="46.001941" lon="13.3114627"><ele>70.0</ele><time>2026-04-17T16:34:35.178Z</time></trkpt><trkpt lat="46.0020357" lon="13.311465"><ele>70.0</ele><time>2026-04-17T16:34:36.178Z</time></trkpt><trkpt lat="46.0021292" lon="13.3114668"><ele>70.0</ele><time>2026-04-17T16:34:37.178Z</time></trkpt><trkpt lat="46.0022187" lon="13.3114684"><ele>70.0</ele><time>2026-04-17T16:34:38.178Z</time></trkpt><trkpt lat="46.002299" lon="13.3114746"><ele>70.0</ele><time>2026-04-17T16:34:39.178Z</time></trkpt><trkpt lat="46.0024159" lon="13.3114824"><ele>69.4</ele><time>2026-04-17T16:34:41.178Z</time></trkpt><trkpt lat="46.0025302" lon="13.3114877"><ele>68.8</ele><time>2026-04-17T16:34:43.178Z</time></trkpt><trkpt lat="46.0026524" lon="13.3114982"><ele>68.2</ele><time>2026-04-17T16:34:45.178Z</time></trkpt><trkpt lat="46.0027246" lon="13.3115059"><ele>67.6</ele><time>2026-04-17T16:34:46.177Z</time></trkpt><trkpt lat="46.002802" lon="13.3115009"><ele>67.0</ele><time>2026-04-17T16:34:47.178Z</time></trkpt><trkpt lat="46.0028914" lon="13.3115058"><ele>67.0</ele><time>2026-04-17T16:34:48.178Z</time></trkpt><trkpt lat="46.0029799" lon="13.3115051"><ele>67.0</ele><time>2026-04-17T16:34:49.177Z</time></trkpt><trkpt lat="46.0030705" lon="13.3114942"><ele>67.0</ele><time>2026-04-17T16:34:50.178Z</time></trkpt><trkpt lat="46.0031663" lon="13.3114882"><ele>67.0</ele><time>2026-04-17T16:34:51.178Z</time></trkpt><trkpt lat="46.0032609" lon="13.3114792"><ele>67.0</ele><time>2026-04-17T16:34:52.178Z</time></trkpt><trkpt lat="46.0033519" lon="13.3114707"><ele>67.0</ele><time>2026-04-17T16:34:53.178Z</time></trkpt><trkpt lat="46.0034388" lon="13.3114603"><ele>67.0</ele><time>2026-04-17T16:34:54.178Z</time></trkpt><trkpt lat="46.0035313" lon="13.3114453"><ele>67.0</ele><time>2026-04-17T16:34:55.177Z</time></trkpt><trkpt lat="46.0036228" lon="13.3114254"><ele>67.0</ele><time>2026-04-17T16:34:56.178Z</time></trkpt><trkpt lat="46.0037131" lon="13.311405"><ele>67.0</ele><time>2026-04-17T16:34:57.177Z</time></trkpt><trkpt lat="46.0038097" lon="13.3113847"><ele>67.0</ele><time>2026-04-17T16:34:58.178Z</time></trkpt><trkpt lat="46.0039004" lon="13.3113602"><ele>67.0</ele><time>2026-04-17T16:34:59.178Z</time></trkpt><trkpt lat="46.0039945" lon="13.3113289"><ele>67.0</ele><time>2026-04-17T16:35:00.177Z</time></trkpt><trkpt lat="46.0040877" lon="13.311296"><ele>67.0</ele><time>2026-04-17T16:35:01.178Z</time></trkpt><trkpt lat="46.0041626" lon="13.3112714"><ele>67.0</ele><time>2026-04-17T16:35:02.178Z</time></trkpt><trkpt lat="46.004232" lon="13.3112514"><ele>67.0</ele><time>2026-04-17T16:35:03.177Z</time></trkpt><trkpt lat="46.0043272" lon="13.3112175"><ele>67.0</ele><time>2026-04-17T16:35:05.178Z</time></trkpt><trkpt lat="46.004351" lon="13.3111017"><ele>67.0</ele><time>2026-04-17T16:35:11.178Z</time></trkpt><trkpt lat="46.0043057" lon="13.3109108"><ele>67.0</ele><time>2026-04-17T16:35:13.177Z</time></trkpt><trkpt lat="46.0042673" lon="13.3107903"><ele>67.0</ele><time>2026-04-17T16:35:14.178Z</time></trkpt><trkpt lat="46.0042264" lon="13.3106924"><ele>67.0</ele><time>2026-04-17T16:35:15.178Z</time></trkpt><trkpt lat="46.0041598" lon="13.3105717"><ele>67.0</ele><time>2026-04-17T16:35:17.178Z</time></trkpt><trkpt lat="46.0041932" lon="13.3104652"><ele>67.0</ele><time>2026-04-17T16:35:20.178Z</time></trkpt><trkpt lat="46.0043334" lon="13.3103922"><ele>67.0</ele><time>2026-04-17T16:35:22.178Z</time></trkpt><trkpt lat="46.0044455" lon="13.3103607"><ele>67.0</ele><time>2026-04-17T16:35:23.178Z</time></trkpt><trkpt lat="46.0045791" lon="13.3103355"><ele>67.0</ele><time>2026-04-17T16:35:24.178Z</time></trkpt><trkpt lat="46.0047287" lon="13.3103076"><ele>67.0</ele><time>2026-04-17T16:35:25.177Z</time></trkpt><trkpt lat="46.0048916" lon="13.310262"><ele>67.0</ele><time>2026-04-17T16:35:26.178Z</time></trkpt><trkpt lat="46.0050553" lon="13.3101994"><ele>67.66666666666666</ele><time>2026-04-17T16:35:27.178Z</time></trkpt><trkpt lat="46.0052301" lon="13.3101407"><ele>68.33333333333333</ele><time>2026-04-17T16:35:28.177Z</time></trkpt><trkpt lat="46.0054234" lon="13.3100789"><ele>69.0</ele><time>2026-04-17T16:35:29.177Z</time></trkpt><trkpt lat="46.0056165" lon="13.3100177"><ele>69.0</ele><time>2026-04-17T16:35:30.178Z</time></trkpt><trkpt lat="46.0057981" lon="13.3099614"><ele>69.0</ele><time>2026-04-17T16:35:31.177Z</time></trkpt><trkpt lat="46.005968" lon="13.3099116"><ele>69.0</ele><time>2026-04-17T16:35:32.178Z</time></trkpt><trkpt lat="46.006125" lon="13.3098563"><ele>68.8</ele><time>2026-04-17T16:35:33.177Z</time></trkpt><trkpt lat="46.0062501" lon="13.3098072"><ele>68.60000000000001</ele><time>2026-04-17T16:35:34.178Z</time></trkpt><trkpt lat="46.0063575" lon="13.3097699"><ele>68.4</ele><time>2026-04-17T16:35:35.177Z</time></trkpt><trkpt lat="46.006443" lon="13.3097395"><ele>68.2</ele><time>2026-04-17T16:35:36.177Z</time></trkpt><trkpt lat="46.0065093" lon="13.3097248"><ele>68.0</ele><time>2026-04-17T16:35:37.178Z</time></trkpt><trkpt lat="46.0066136" lon="13.3097019"><ele>68.6</ele><time>2026-04-17T16:35:39.177Z</time></trkpt><trkpt lat="46.0067145" lon="13.3096949"><ele>69.19999999999999</ele><time>2026-04-17T16:35:42.177Z</time></trkpt><trkpt lat="46.0068115" lon="13.3097073"><ele>69.8</ele><time>2026-04-17T16:35:44.178Z</time></trkpt><trkpt lat="46.0069359" lon="13.3097137"><ele>70.39999999999999</ele><time>2026-04-17T16:35:46.178Z</time></trkpt><trkpt lat="46.0070151" lon="13.3097075"><ele>71.0</ele><time>2026-04-17T16:35:47.178Z</time></trkpt><trkpt lat="46.0071037" lon="13.3096999"><ele>71.0</ele><time>2026-04-17T16:35:48.177Z</time></trkpt><trkpt lat="46.007201" lon="13.3096974"><ele>71.0</ele><time>2026-04-17T16:35:49.178Z</time></trkpt><trkpt lat="46.0073162" lon="13.3096872"><ele>71.0</ele><time>2026-04-17T16:35:50.178Z</time></trkpt><trkpt lat="46.0074413" lon="13.3096662"><ele>71.0</ele><time>2026-04-17T16:35:51.177Z</time></trkpt><trkpt lat="46.007572" lon="13.3096463"><ele>71.0</ele><time>2026-04-17T16:35:52.178Z</time></trkpt><trkpt lat="46.0077059" lon="13.3096275"><ele>71.0</ele><time>2026-04-17T16:35:53.178Z</time></trkpt><trkpt lat="46.0078261" lon="13.3096083"><ele>71.0</ele><time>2026-04-17T16:35:54.178Z</time></trkpt><trkpt lat="46.0079348" lon="13.3095869"><ele>71.0</ele><time>2026-04-17T16:35:55.178Z</time></trkpt><trkpt lat="46.008051" lon="13.3095541"><ele>71.0</ele><time>2026-04-17T16:35:56.177Z</time></trkpt><trkpt lat="46.0081636" lon="13.3095156"><ele>71.0</ele><time>2026-04-17T16:35:57.177Z</time></trkpt><trkpt lat="46.0082786" lon="13.309456"><ele>71.0</ele><time>2026-04-17T16:35:58.178Z</time></trkpt><trkpt lat="46.0083934" lon="13.3093818"><ele>71.0</ele><time>2026-04-17T16:35:59.178Z</time></trkpt><trkpt lat="46.0085064" lon="13.3093009"><ele>71.0</ele><time>2026-04-17T16:36:00.178Z</time></trkpt><trkpt lat="46.008624" lon="13.3092235"><ele>71.0</ele><time>2026-04-17T16:36:01.177Z</time></trkpt><trkpt lat="46.0087349" lon="13.3091622"><ele>71.0</ele><time>2026-04-17T16:36:02.178Z</time></trkpt><trkpt lat="46.0088316" lon="13.3091305"><ele>71.0</ele><time>2026-04-17T16:36:03.177Z</time></trkpt><trkpt lat="46.0089087" lon="13.3091192"><ele>71.0</ele><time>2026-04-17T16:36:04.178Z</time></trkpt><trkpt lat="46.0089942" lon="13.3091384"><ele>71.0</ele><time>2026-04-17T16:36:06.177Z</time></trkpt><trkpt lat="46.0090701" lon="13.3091827"><ele>71.0</ele><time>2026-04-17T16:36:09.178Z</time></trkpt><trkpt lat="46.0091507" lon="13.3091985"><ele>71.0</ele><time>2026-04-17T16:36:11.178Z</time></trkpt><trkpt lat="46.0092284" lon="13.3092155"><ele>71.0</ele><time>2026-04-17T16:36:12.178Z</time></trkpt><trkpt lat="46.0093342" lon="13.3092339"><ele>71.0</ele><time>2026-04-17T16:36:13.178Z</time></trkpt><trkpt lat="46.009464" lon="13.309251"><ele>71.0</ele><time>2026-04-17T16:36:14.178Z</time></trkpt><trkpt lat="46.009611" lon="13.3092718"><ele>71.0</ele><time>2026-04-17T16:36:15.178Z</time></trkpt><trkpt lat="46.009775" lon="13.3092957"><ele>71.0</ele><time>2026-04-17T16:36:16.178Z</time></trkpt><trkpt lat="46.0099524" lon="13.3093166"><ele>70.66666666666667</ele><time>2026-04-17T16:36:17.178Z</time></trkpt><trkpt lat="46.0101429" lon="13.3093329"><ele>70.33333333333333</ele><time>2026-04-17T16:36:18.178Z</time></trkpt><trkpt lat="46.0103534" lon="13.3093476"><ele>70.0</ele><time>2026-04-17T16:36:19.177Z</time></trkpt><trkpt lat="46.0105681" lon="13.3093485"><ele>70.0</ele><time>2026-04-17T16:36:20.177Z</time></trkpt><trkpt lat="46.0107843" lon="13.3093582"><ele>70.0</ele><time>2026-04-17T16:36:21.177Z</time></trkpt><trkpt lat="46.0110086" lon="13.3093504"><ele>70.0</ele><time>2026-04-17T16:36:22.177Z</time></trkpt><trkpt lat="46.0112526" lon="13.3093305"><ele>70.5</ele><time>2026-04-17T16:36:23.177Z</time></trkpt><trkpt lat="46.0115064" lon="13.3092982"><ele>71.0</ele><time>2026-04-17T16:36:24.177Z</time></trkpt><trkpt lat="46.0117641" lon="13.3092704"><ele>71.0</ele><time>2026-04-17T16:36:25.176Z</time></trkpt><trkpt lat="46.0120155" lon="13.3092425"><ele>71.0</ele><time>2026-04-17T16:36:26.177Z</time></trkpt><trkpt lat="46.0122685" lon="13.3092199"><ele>71.0</ele><time>2026-04-17T16:36:27.176Z</time></trkpt><trkpt lat="46.0125261" lon="13.3091859"><ele>71.0</ele><time>2026-04-17T16:36:28.176Z</time></trkpt><trkpt lat="46.012783" lon="13.3091552"><ele>71.0</ele><time>2026-04-17T16:36:29.177Z</time></trkpt><trkpt lat="46.0130339" lon="13.3091247"><ele>71.0</ele><time>2026-04-17T16:36:30.176Z</time></trkpt><trkpt lat="46.0132662" lon="13.3090935"><ele>71.33333333333334</ele><time>2026-04-17T16:36:31.177Z</time></trkpt><trkpt lat="46.0134801" lon="13.3090693"><ele>71.66666666666667</ele><time>2026-04-17T16:36:32.176Z</time></trkpt><trkpt lat="46.0136872" lon="13.3090377"><ele>72.0</ele><time>2026-04-17T16:36:33.176Z</time></trkpt><trkpt lat="46.0138765" lon="13.3090139"><ele>72.0</ele><time>2026-04-17T16:36:34.177Z</time></trkpt><trkpt lat="46.0140552" lon="13.3089885"><ele>72.0</ele><time>2026-04-17T16:36:35.177Z</time></trkpt><trkpt lat="46.0142299" lon="13.3089522"><ele>72.0</ele><time>2026-04-17T16:36:36.177Z</time></trkpt><trkpt lat="46.0144082" lon="13.3088881"><ele>72.0</ele><time>2026-04-17T16:36:37.177Z</time></trkpt><trkpt lat="46.0145806" lon="13.3088264"><ele>72.0</ele><time>2026-04-17T16:36:38.177Z</time></trkpt><trkpt lat="46.0147411" lon="13.3087681"><ele>72.0</ele><time>2026-04-17T16:36:39.176Z</time></trkpt><trkpt lat="46.0148877" lon="13.3087091"><ele>71.5</ele><time>2026-04-17T16:36:40.176Z</time></trkpt><trkpt lat="46.0150207" lon="13.3086586"><ele>71.0</ele><time>2026-04-17T16:36:41.177Z</time></trkpt><trkpt lat="46.0151483" lon="13.3086269"><ele>70.5</ele><time>2026-04-17T16:36:42.177Z</time></trkpt><trkpt lat="46.0152914" lon="13.3086135"><ele>70.0</ele><time>2026-04-17T16:36:43.176Z</time></trkpt><trkpt lat="46.015447" lon="13.308611"><ele>70.0</ele><time>2026-04-17T16:36:44.177Z</time></trkpt><trkpt lat="46.0156201" lon="13.3086311"><ele>70.0</ele><time>2026-04-17T16:36:45.177Z</time></trkpt><trkpt lat="46.0158039" lon="13.3086617"><ele>70.0</ele><time>2026-04-17T16:36:46.177Z</time></trkpt><trkpt lat="46.0159712" lon="13.3086806"><ele>71.0</ele><time>2026-04-17T16:36:47.177Z</time></trkpt><trkpt lat="46.0161305" lon="13.3086919"><ele>72.0</ele><time>2026-04-17T16:36:48.176Z</time></trkpt><trkpt lat="46.0162832" lon="13.3086999"><ele>73.0</ele><time>2026-04-17T16:36:49.177Z</time></trkpt><trkpt lat="46.0164149" lon="13.3087137"><ele>74.0</ele><time>2026-04-17T16:36:50.177Z</time></trkpt><trkpt lat="46.0165245" lon="13.3087313"><ele>74.0</ele><time>2026-04-17T16:36:51.177Z</time></trkpt><trkpt lat="46.0166262" lon="13.3087404"><ele>74.0</ele><time>2026-04-17T16:36:52.176Z</time></trkpt><trkpt lat="46.0167082" lon="13.3087408"><ele>74.0</ele><time>2026-04-17T16:36:53.176Z</time></trkpt><trkpt lat="46.0167787" lon="13.3087416"><ele>74.0</ele><time>2026-04-17T16:36:54.176Z</time></trkpt><trkpt lat="46.0168517" lon="13.3088127"><ele>74.0</ele><time>2026-04-17T16:36:56.177Z</time></trkpt><trkpt lat="46.0168599" lon="13.3089333"><ele>74.0</ele><time>2026-04-17T16:36:58.177Z</time></trkpt><trkpt lat="46.0168159" lon="13.3091388"><ele>74.0</ele><time>2026-04-17T16:37:00.177Z</time></trkpt><trkpt lat="46.0167825" lon="13.3092891"><ele>74.0</ele><time>2026-04-17T16:37:01.177Z</time></trkpt><trkpt lat="46.0167444" lon="13.3094442"><ele>74.0</ele><time>2026-04-17T16:37:02.177Z</time></trkpt><trkpt lat="46.0167023" lon="13.3095737"><ele>74.0</ele><time>2026-04-17T16:37:03.177Z</time></trkpt><trkpt lat="46.0166585" lon="13.3096764"><ele>74.0</ele><time>2026-04-17T16:37:04.177Z</time></trkpt><trkpt lat="46.0166148" lon="13.3097528"><ele>73.71428571428572</ele><time>2026-04-17T16:37:05.176Z</time></trkpt><trkpt lat="46.016554" lon="13.3097961"><ele>73.42857142857143</ele><time>2026-04-17T16:37:06.177Z</time></trkpt><trkpt lat="46.0164856" lon="13.3098012"><ele>73.14285714285714</ele><time>2026-04-17T16:37:07.177Z</time></trkpt><trkpt lat="46.0164202" lon="13.3098272"><ele>72.85714285714286</ele><time>2026-04-17T16:37:08.177Z</time></trkpt><trkpt lat="46.0163594" lon="13.3098891"><ele>72.57142857142857</ele><time>2026-04-17T16:37:09.177Z</time></trkpt><trkpt lat="46.0163075" lon="13.3099776"><ele>72.28571428571429</ele><time>2026-04-17T16:37:10.177Z</time></trkpt><trkpt lat="46.0162726" lon="13.3100826"><ele>72.0</ele><time>2026-04-17T16:37:11.177Z</time></trkpt><trkpt lat="46.0162634" lon="13.310196"><ele>72.0</ele><time>2026-04-17T16:37:12.177Z</time></trkpt><trkpt lat="46.0162848" lon="13.3102964"><ele>72.0</ele><time>2026-04-17T16:37:13.176Z</time></trkpt><trkpt lat="46.0163283" lon="13.3103814"><ele>72.0</ele><time>2026-04-17T16:37:14.176Z</time></trkpt><trkpt lat="46.0163917" lon="13.3104761"><ele>72.0</ele><time>2026-04-17T16:37:15.177Z</time></trkpt><trkpt lat="46.016466" lon="13.3105805"><ele>72.0</ele><time>2026-04-17T16:37:16.177Z</time></trkpt><trkpt lat="46.0165466" lon="13.310679"><ele>72.0</ele><time>2026-04-17T16:37:17.177Z</time></trkpt><trkpt lat="46.016622" lon="13.3107769"><ele>72.2</ele><time>2026-04-17T16:37:18.177Z</time></trkpt><trkpt lat="46.0166956" lon="13.3108515"><ele>72.4</ele><time>2026-04-17T16:37:19.177Z</time></trkpt><trkpt lat="46.0167882" lon="13.3109014"><ele>72.6</ele><time>2026-04-17T16:37:20.177Z</time></trkpt><trkpt lat="46.0168895" lon="13.3109412"><ele>72.8</ele><time>2026-04-17T16:37:21.176Z</time></trkpt><trkpt lat="46.0170037" lon="13.3109549"><ele>73.0</ele><time>2026-04-17T16:37:22.177Z</time></trkpt><trkpt lat="46.0171286" lon="13.3109756"><ele>73.0</ele><time>2026-04-17T16:37:23.177Z</time></trkpt><trkpt lat="46.0172635" lon="13.3109922"><ele>73.0</ele><time>2026-04-17T16:37:24.177Z</time></trkpt><trkpt lat="46.0174112" lon="13.3110071"><ele>73.0</ele><time>2026-04-17T16:37:25.176Z</time></trkpt><trkpt lat="46.0175636" lon="13.3110298"><ele>73.0</ele><time>2026-04-17T16:37:26.176Z</time></trkpt><trkpt lat="46.0177237" lon="13.3110617"><ele>72.33333333333333</ele><time>2026-04-17T16:37:27.177Z</time></trkpt><trkpt lat="46.0178917" lon="13.3111025"><ele>71.66666666666667</ele><time>2026-04-17T16:37:28.177Z</time></trkpt><trkpt lat="46.0180679" lon="13.3111491"><ele>71.0</ele><time>2026-04-17T16:37:29.177Z</time></trkpt><trkpt lat="46.0182425" lon="13.3111911"><ele>72.0</ele><time>2026-04-17T16:37:30.177Z</time></trkpt><trkpt lat="46.0184278" lon="13.3112329"><ele>73.0</ele><time>2026-04-17T16:37:31.177Z</time></trkpt><trkpt lat="46.0186094" lon="13.3112671"><ele>74.0</ele><time>2026-04-17T16:37:32.177Z</time></trkpt><trkpt lat="46.0187822" lon="13.3112906"><ele>74.0</ele><time>2026-04-17T16:37:33.177Z</time></trkpt><trkpt lat="46.0189207" lon="13.3113143"><ele>74.0</ele><time>2026-04-17T16:37:34.176Z</time></trkpt><trkpt lat="46.0190357" lon="13.3113334"><ele>74.0</ele><time>2026-04-17T16:37:35.177Z</time></trkpt><trkpt lat="46.0191244" lon="13.3113559"><ele>74.0</ele><time>2026-04-17T16:37:36.177Z</time></trkpt><trkpt lat="46.019196" lon="13.3113611"><ele>74.0</ele><time>2026-04-17T16:37:37.176Z</time></trkpt><trkpt lat="46.0192617" lon="13.3113418"><ele>74.33333333333334</ele><time>2026-04-17T16:37:38.177Z</time></trkpt><trkpt lat="46.0193189" lon="13.3112817"><ele>74.66666666666667</ele><time>2026-04-17T16:37:39.177Z</time></trkpt><trkpt lat="46.0193629" lon="13.3111971"><ele>75.0</ele><time>2026-04-17T16:37:40.176Z</time></trkpt><trkpt lat="46.0193899" lon="13.3111085"><ele>75.33333333333333</ele><time>2026-04-17T16:37:41.176Z</time></trkpt><trkpt lat="46.0194535" lon="13.310983"><ele>75.66666666666666</ele><time>2026-04-17T16:37:43.177Z</time></trkpt><trkpt lat="46.0195198" lon="13.3109597"><ele>76.0</ele><time>2026-04-17T16:37:44.176Z</time></trkpt><trkpt lat="46.0195892" lon="13.3109705"><ele>76.0</ele><time>2026-04-17T16:37:45.177Z</time></trkpt><trkpt lat="46.0196732" lon="13.3109689"><ele>76.0</ele><time>2026-04-17T16:37:46.177Z</time></trkpt><trkpt lat="46.0197643" lon="13.3109541"><ele>76.0</ele><time>2026-04-17T16:37:47.177Z</time></trkpt><trkpt lat="46.0198436" lon="13.3109204"><ele>76.0</ele><time>2026-04-17T16:37:48.177Z</time></trkpt><trkpt lat="46.0199153" lon="13.3108702"><ele>76.0</ele><time>2026-04-17T16:37:49.177Z</time></trkpt><trkpt lat="46.0199882" lon="13.3108332"><ele>76.0</ele><time>2026-04-17T16:37:50.177Z</time></trkpt><trkpt lat="46.0200878" lon="13.3108135"><ele>76.66666666666666</ele><time>2026-04-17T16:37:51.177Z</time></trkpt><trkpt lat="46.0202205" lon="13.3108149"><ele>77.33333333333333</ele><time>2026-04-17T16:37:52.177Z</time></trkpt><trkpt lat="46.0203939" lon="13.3108408"><ele>78.0</ele><time>2026-04-17T16:37:53.176Z</time></trkpt><trkpt lat="46.0206076" lon="13.3108745"><ele>77.33333333333333</ele><time>2026-04-17T16:37:54.177Z</time></trkpt><trkpt lat="46.0208285" lon="13.3109052"><ele>76.66666666666666</ele><time>2026-04-17T16:37:55.177Z</time></trkpt><trkpt lat="46.0210441" lon="13.3109405"><ele>76.0</ele><time>2026-04-17T16:37:56.176Z</time></trkpt><trkpt lat="46.0212673" lon="13.3109751"><ele>76.0</ele><time>2026-04-17T16:37:57.176Z</time></trkpt><trkpt lat="46.0214814" lon="13.3110022"><ele>76.0</ele><time>2026-04-17T16:37:58.177Z</time></trkpt><trkpt lat="46.0216713" lon="13.3110211"><ele>76.0</ele><time>2026-04-17T16:37:59.177Z</time></trkpt><trkpt lat="46.0218431" lon="13.3110477"><ele>75.75</ele><time>2026-04-17T16:38:00.177Z</time></trkpt><trkpt lat="46.021997" lon="13.3110706"><ele>75.5</ele><time>2026-04-17T16:38:01.177Z</time></trkpt><trkpt lat="46.0221298" lon="13.3111179"><ele>75.25</ele><time>2026-04-17T16:38:02.177Z</time></trkpt><trkpt lat="46.0222682" lon="13.3111948"><ele>75.0</ele><time>2026-04-17T16:38:03.176Z</time></trkpt><trkpt lat="46.0224049" lon="13.3112781"><ele>74.66666666666667</ele><time>2026-04-17T16:38:04.177Z</time></trkpt><trkpt lat="46.0225524" lon="13.3113512"><ele>74.33333333333334</ele><time>2026-04-17T16:38:05.177Z</time></trkpt><trkpt lat="46.0227255" lon="13.311397"><ele>74.0</ele><time>2026-04-17T16:38:06.177Z</time></trkpt><trkpt lat="46.0229205" lon="13.3114165"><ele>74.0</ele><time>2026-04-17T16:38:07.176Z</time></trkpt><trkpt lat="46.0231322" lon="13.311414"><ele>74.0</ele><time>2026-04-17T16:38:08.177Z</time></trkpt><trkpt lat="46.0233402" lon="13.31139"><ele>74.0</ele><time>2026-04-17T16:38:09.177Z</time></trkpt><trkpt lat="46.0235255" lon="13.3113766"><ele>75.33333333333334</ele><time>2026-04-17T16:38:10.177Z</time></trkpt><trkpt lat="46.0236946" lon="13.3113815"><ele>76.66666666666667</ele><time>2026-04-17T16:38:11.177Z</time></trkpt><trkpt lat="46.0238569" lon="13.3113893"><ele>78.0</ele><time>2026-04-17T16:38:12.177Z</time></trkpt><trkpt lat="46.0240095" lon="13.3113939"><ele>77.33333333333333</ele><time>2026-04-17T16:38:13.177Z</time></trkpt><trkpt lat="46.0241732" lon="13.3113956"><ele>76.66666666666666</ele><time>2026-04-17T16:38:14.176Z</time></trkpt><trkpt lat="46.0243391" lon="13.3113951"><ele>76.0</ele><time>2026-04-17T16:38:15.177Z</time></trkpt><trkpt lat="46.0245" lon="13.3114019"><ele>75.66666666666666</ele><time>2026-04-17T16:38:16.177Z</time></trkpt><trkpt lat="46.0246567" lon="13.3114128"><ele>75.33333333333333</ele><time>2026-04-17T16:38:17.176Z</time></trkpt><trkpt lat="46.0248186" lon="13.3114119"><ele>75.0</ele><time>2026-04-17T16:38:18.177Z</time></trkpt><trkpt lat="46.0249881" lon="13.3114055"><ele>75.66666666666667</ele><time>2026-04-17T16:38:19.177Z</time></trkpt><trkpt lat="46.0251527" lon="13.3114065"><ele>76.33333333333334</ele><time>2026-04-17T16:38:20.177Z</time></trkpt><trkpt lat="46.0253086" lon="13.3114163"><ele>77.0</ele><time>2026-04-17T16:38:21.177Z</time></trkpt><trkpt lat="46.0254664" lon="13.311411"><ele>77.0</ele><time>2026-04-17T16:38:22.176Z</time></trkpt><trkpt lat="46.0256392" lon="13.3113874"><ele>77.0</ele><time>2026-04-17T16:38:23.177Z</time></trkpt><trkpt lat="46.0258028" lon="13.3113528"><ele>77.0</ele><time>2026-04-17T16:38:24.177Z</time></trkpt><trkpt lat="46.0259532" lon="13.3113425"><ele>77.25</ele><time>2026-04-17T16:38:25.176Z</time></trkpt><trkpt lat="46.0260916" lon="13.3113476"><ele>77.5</ele><time>2026-04-17T16:38:26.177Z</time></trkpt><trkpt lat="46.0262185" lon="13.311351"><ele>77.75</ele><time>2026-04-17T16:38:27.177Z</time></trkpt><trkpt lat="46.0263376" lon="13.311338"><ele>78.0</ele><time>2026-04-17T16:38:28.176Z</time></trkpt><trkpt lat="46.026444" lon="13.3113234"><ele>78.0</ele><time>2026-04-17T16:38:29.176Z</time></trkpt><trkpt lat="46.0265301" lon="13.3113254"><ele>78.0</ele><time>2026-04-17T16:38:30.176Z</time></trkpt><trkpt lat="46.0265942" lon="13.3113293"><ele>78.0</ele><time>2026-04-17T16:38:31.177Z</time></trkpt><trkpt lat="46.0266787" lon="13.3112829"><ele>78.0</ele><time>2026-04-17T16:38:33.176Z</time></trkpt><trkpt lat="46.026716" lon="13.311149"><ele>78.0</ele><time>2026-04-17T16:38:35.177Z</time></trkpt><trkpt lat="46.0267865" lon="13.3109896"><ele>77.75</ele><time>2026-04-17T16:38:37.177Z</time></trkpt><trkpt lat="46.0268569" lon="13.3109155"><ele>77.5</ele><time>2026-04-17T16:38:38.176Z</time></trkpt><trkpt lat="46.0269529" lon="13.3108376"><ele>77.25</ele><time>2026-04-17T16:38:39.176Z</time></trkpt><trkpt lat="46.027077" lon="13.310756"><ele>77.0</ele><time>2026-04-17T16:38:40.177Z</time></trkpt><trkpt lat="46.0272157" lon="13.3106544"><ele>77.0</ele><time>2026-04-17T16:38:41.176Z</time></trkpt><trkpt lat="46.0273751" lon="13.3105345"><ele>77.0</ele><time>2026-04-17T16:38:42.177Z</time></trkpt><trkpt lat="46.0275247" lon="13.310418"><ele>77.0</ele><time>2026-04-17T16:38:43.177Z</time></trkpt><trkpt lat="46.0276503" lon="13.3103218"><ele>77.0</ele><time>2026-04-17T16:38:44.177Z</time></trkpt><trkpt lat="46.0277755" lon="13.3102481"><ele>77.0</ele><time>2026-04-17T16:38:45.176Z</time></trkpt><trkpt lat="46.0279103" lon="13.3102015"><ele>77.0</ele><time>2026-04-17T16:38:46.177Z</time></trkpt><trkpt lat="46.0280375" lon="13.3101781"><ele>77.0</ele><time>2026-04-17T16:38:47.176Z</time></trkpt><trkpt lat="46.0281512" lon="13.3101501"><ele>77.0</ele><time>2026-04-17T16:38:48.177Z</time></trkpt><trkpt lat="46.0282524" lon="13.3101142"><ele>77.0</ele><time>2026-04-17T16:38:49.177Z</time></trkpt><trkpt lat="46.0283672" lon="13.310076"><ele>77.0</ele><time>2026-04-17T16:38:50.177Z</time></trkpt><trkpt lat="46.0284999" lon="13.3100468"><ele>77.0</ele><time>2026-04-17T16:38:51.177Z</time></trkpt><trkpt lat="46.0286511" lon="13.3100335"><ele>78.66666666666667</ele><time>2026-04-17T16:38:52.177Z</time></trkpt><trkpt lat="46.028812" lon="13.3100363"><ele>80.33333333333333</ele><time>2026-04-17T16:38:53.177Z</time></trkpt><trkpt lat="46.0289673" lon="13.3100255"><ele>82.0</ele><time>2026-04-17T16:38:54.176Z</time></trkpt><trkpt lat="46.0291078" lon="13.3100045"><ele>82.0</ele><time>2026-04-17T16:38:55.177Z</time></trkpt><trkpt lat="46.0292346" lon="13.3099905"><ele>82.0</ele><time>2026-04-17T16:38:56.177Z</time></trkpt><trkpt lat="46.0293494" lon="13.3099769"><ele>82.0</ele><time>2026-04-17T16:38:57.177Z</time></trkpt><trkpt lat="46.0294513" lon="13.3099619"><ele>82.0</ele><time>2026-04-17T16:38:58.177Z</time></trkpt><trkpt lat="46.029549" lon="13.3099421"><ele>82.0</ele><time>2026-04-17T16:38:59.177Z</time></trkpt><trkpt lat="46.0296407" lon="13.3099177"><ele>82.0</ele><time>2026-04-17T16:39:00.176Z</time></trkpt><trkpt lat="46.0297289" lon="13.309903"><ele>82.0</ele><time>2026-04-17T16:39:01.177Z</time></trkpt><trkpt lat="46.0298226" lon="13.3098868"><ele>82.0</ele><time>2026-04-17T16:39:02.177Z</time></trkpt><trkpt lat="46.02991" lon="13.3098775"><ele>82.0</ele><time>2026-04-17T16:39:03.177Z</time></trkpt><trkpt lat="46.0299811" lon="13.3098637"><ele>82.0</ele><time>2026-04-17T16:39:04.176Z</time></trkpt><trkpt lat="46.0300802" lon="13.3098599"><ele>82.0</ele><time>2026-04-17T16:39:06.177Z</time></trkpt><trkpt lat="46.0301697" lon="13.309894"><ele>82.0</ele><time>2026-04-17T16:39:16.177Z</time></trkpt><trkpt lat="46.0302369" lon="13.3099327"><ele>82.0</ele><time>2026-04-17T16:39:17.177Z</time></trkpt><trkpt lat="46.030329" lon="13.3099806"><ele>82.0</ele><time>2026-04-17T16:39:18.176Z</time></trkpt><trkpt lat="46.0304367" lon="13.3100281"><ele>82.0</ele><time>2026-04-17T16:39:19.177Z</time></trkpt><trkpt lat="46.0305531" lon="13.310082"><ele>82.0</ele><time>2026-04-17T16:39:20.177Z</time></trkpt><trkpt lat="46.0306847" lon="13.3101289"><ele>81.75</ele><time>2026-04-17T16:39:21.176Z</time></trkpt><trkpt lat="46.030822" lon="13.3101874"><ele>81.5</ele><time>2026-04-17T16:39:22.177Z</time></trkpt><trkpt lat="46.0309702" lon="13.3102444"><ele>81.25</ele><time>2026-04-17T16:39:23.177Z</time></trkpt><trkpt lat="46.0311104" lon="13.3103098"><ele>81.0</ele><time>2026-04-17T16:39:24.177Z</time></trkpt><trkpt lat="46.0312408" lon="13.3103651"><ele>81.0</ele><time>2026-04-17T16:39:25.176Z</time></trkpt><trkpt lat="46.0313624" lon="13.310413"><ele>81.0</ele><time>2026-04-17T16:39:26.176Z</time></trkpt><trkpt lat="46.0314808" lon="13.3104757"><ele>81.0</ele><time>2026-04-17T16:39:27.177Z</time></trkpt><trkpt lat="46.0316041" lon="13.3105334"><ele>81.0</ele><time>2026-04-17T16:39:28.176Z</time></trkpt><trkpt lat="46.031726" lon="13.3105944"><ele>81.25</ele><time>2026-04-17T16:39:29.177Z</time></trkpt><trkpt lat="46.0318479" lon="13.310649"><ele>81.5</ele><time>2026-04-17T16:39:30.177Z</time></trkpt><trkpt lat="46.031974" lon="13.3106965"><ele>81.75</ele><time>2026-04-17T16:39:31.177Z</time></trkpt><trkpt lat="46.0320948" lon="13.3107343"><ele>82.0</ele><time>2026-04-17T16:39:32.176Z</time></trkpt><trkpt lat="46.0322124" lon="13.3107895"><ele>82.0</ele><time>2026-04-17T16:39:33.176Z</time></trkpt><trkpt lat="46.0323216" lon="13.3108425"><ele>82.0</ele><time>2026-04-17T16:39:34.176Z</time></trkpt><trkpt lat="46.0324242" lon="13.3108867"><ele>82.0</ele><time>2026-04-17T16:39:35.177Z</time></trkpt><trkpt lat="46.0325145" lon="13.3109289"><ele>82.0</ele><time>2026-04-17T16:39:36.177Z</time></trkpt><trkpt lat="46.0325901" lon="13.3109624"><ele>82.0</ele><time>2026-04-17T16:39:37.177Z</time></trkpt><trkpt lat="46.0326629" lon="13.3109884"><ele>82.33333333333333</ele><time>2026-04-17T16:39:38.177Z</time></trkpt><trkpt lat="46.0327383" lon="13.3109882"><ele>82.66666666666666</ele><time>2026-04-17T16:39:39.176Z</time></trkpt><trkpt lat="46.0328176" lon="13.310987"><ele>83.0</ele><time>2026-04-17T16:39:40.177Z</time></trkpt><trkpt lat="46.0328896" lon="13.3110062"><ele>83.33333333333333</ele><time>2026-04-17T16:39:41.176Z</time></trkpt><trkpt lat="46.032965" lon="13.3110361"><ele>83.66666666666667</ele><time>2026-04-17T16:39:42.176Z</time></trkpt><trkpt lat="46.033049" lon="13.3110704"><ele>84.0</ele><time>2026-04-17T16:39:43.177Z</time></trkpt><trkpt lat="46.0331358" lon="13.3111102"><ele>84.0</ele><time>2026-04-17T16:39:44.176Z</time></trkpt><trkpt lat="46.0332159" lon="13.3111492"><ele>84.0</ele><time>2026-04-17T16:39:45.177Z</time></trkpt><trkpt lat="46.0332956" lon="13.311182"><ele>84.0</ele><time>2026-04-17T16:39:46.176Z</time></trkpt><trkpt lat="46.0333736" lon="13.311209"><ele>84.0</ele><time>2026-04-17T16:39:47.177Z</time></trkpt><trkpt lat="46.0334459" lon="13.3112391"><ele>84.0</ele><time>2026-04-17T16:39:48.177Z</time></trkpt><trkpt lat="46.03351" lon="13.3112585"><ele>84.0</ele><time>2026-04-17T16:39:49.176Z</time></trkpt><trkpt lat="46.0336348" lon="13.3112815"><ele>84.0</ele><time>2026-04-17T16:39:51.177Z</time></trkpt><trkpt lat="46.0337083" lon="13.3113076"><ele>84.0</ele><time>2026-04-17T16:39:52.176Z</time></trkpt><trkpt lat="46.033802" lon="13.3113407"><ele>84.0</ele><time>2026-04-17T16:39:53.177Z</time></trkpt><trkpt lat="46.0339121" lon="13.3113823"><ele>84.0</ele><time>2026-04-17T16:39:54.177Z</time></trkpt><trkpt lat="46.0340296" lon="13.3114308"><ele>84.0</ele><time>2026-04-17T16:39:55.177Z</time></trkpt><trkpt lat="46.0341527" lon="13.3114785"><ele>84.0</ele><time>2026-04-17T16:39:56.177Z</time></trkpt><trkpt lat="46.0342711" lon="13.3115294"><ele>84.0</ele><time>2026-04-17T16:39:57.177Z</time></trkpt><trkpt lat="46.0343915" lon="13.3115788"><ele>84.0</ele><time>2026-04-17T16:39:58.177Z</time></trkpt><trkpt lat="46.0345102" lon="13.3116334"><ele>84.0</ele><time>2026-04-17T16:39:59.176Z</time></trkpt><trkpt lat="46.0346274" lon="13.3116899"><ele>84.0</ele><time>2026-04-17T16:40:00.177Z</time></trkpt><trkpt lat="46.0347527" lon="13.3117381"><ele>84.0</ele><time>2026-04-17T16:40:01.177Z</time></trkpt><trkpt lat="46.0348835" lon="13.3117803"><ele>84.0</ele><time>2026-04-17T16:40:02.176Z</time></trkpt><trkpt lat="46.0350043" lon="13.3118265"><ele>84.0</ele><time>2026-04-17T16:40:03.176Z</time></trkpt><trkpt lat="46.0351158" lon="13.3118758"><ele>83.75</ele><time>2026-04-17T16:40:04.177Z</time></trkpt><trkpt lat="46.035227" lon="13.3119321"><ele>83.5</ele><time>2026-04-17T16:40:05.176Z</time></trkpt><trkpt lat="46.0353399" lon="13.3119779"><ele>83.25</ele><time>2026-04-17T16:40:06.177Z</time></trkpt><trkpt lat="46.0354537" lon="13.3120157"><ele>83.0</ele><time>2026-04-17T16:40:07.177Z</time></trkpt><trkpt lat="46.0355755" lon="13.3120436"><ele>83.0</ele><time>2026-04-17T16:40:08.177Z</time></trkpt><trkpt lat="46.0356977" lon="13.3120734"><ele>83.0</ele><time>2026-04-17T16:40:09.177Z</time></trkpt><trkpt lat="46.0358318" lon="13.3120876"><ele>83.0</ele><time>2026-04-17T16:40:10.177Z</time></trkpt><trkpt lat="46.0359623" lon="13.3121075"><ele>83.0</ele><time>2026-04-17T16:40:11.177Z</time></trkpt><trkpt lat="46.0360967" lon="13.3121065"><ele>83.0</ele><time>2026-04-17T16:40:12.177Z</time></trkpt><trkpt lat="46.0362319" lon="13.3121025"><ele>83.0</ele><time>2026-04-17T16:40:13.176Z</time></trkpt><trkpt lat="46.0363758" lon="13.3120894"><ele>83.0</ele><time>2026-04-17T16:40:14.177Z</time></trkpt><trkpt lat="46.0365195" lon="13.3120815"><ele>83.0</ele><time>2026-04-17T16:40:15.176Z</time></trkpt><trkpt lat="46.0366579" lon="13.3120545"><ele>83.5</ele><time>2026-04-17T16:40:16.177Z</time></trkpt><trkpt lat="46.0367867" lon="13.3120185"><ele>84.0</ele><time>2026-04-17T16:40:17.177Z</time></trkpt><trkpt lat="46.036908" lon="13.3119648"><ele>84.5</ele><time>2026-04-17T16:40:18.177Z</time></trkpt><trkpt lat="46.0370396" lon="13.3119012"><ele>85.0</ele><time>2026-04-17T16:40:19.177Z</time></trkpt><trkpt lat="46.0371775" lon="13.3118294"><ele>85.0</ele><time>2026-04-17T16:40:20.176Z</time></trkpt><trkpt lat="46.0373118" lon="13.3117576"><ele>85.0</ele><time>2026-04-17T16:40:21.177Z</time></trkpt><trkpt lat="46.0374503" lon="13.3116899"><ele>85.0</ele><time>2026-04-17T16:40:22.177Z</time></trkpt><trkpt lat="46.0375848" lon="13.3116158"><ele>85.0</ele><time>2026-04-17T16:40:23.177Z</time></trkpt><trkpt lat="46.037721" lon="13.3115396"><ele>84.75</ele><time>2026-04-17T16:40:24.177Z</time></trkpt><trkpt lat="46.037856" lon="13.3114687"><ele>84.5</ele><time>2026-04-17T16:40:25.177Z</time></trkpt><trkpt lat="46.0379854" lon="13.3114014"><ele>84.25</ele><time>2026-04-17T16:40:26.176Z</time></trkpt><trkpt lat="46.0381197" lon="13.3113317"><ele>84.0</ele><time>2026-04-17T16:40:27.176Z</time></trkpt><trkpt lat="46.0382517" lon="13.3112598"><ele>83.75</ele><time>2026-04-17T16:40:28.177Z</time></trkpt><trkpt lat="46.0383893" lon="13.31119"><ele>83.5</ele><time>2026-04-17T16:40:29.177Z</time></trkpt><trkpt lat="46.0385206" lon="13.3111241"><ele>83.25</ele><time>2026-04-17T16:40:30.177Z</time></trkpt><trkpt lat="46.0386458" lon="13.311056"><ele>83.0</ele><time>2026-04-17T16:40:31.176Z</time></trkpt><trkpt lat="46.0387796" lon="13.3109841"><ele>83.0</ele><time>2026-04-17T16:40:32.177Z</time></trkpt><trkpt lat="46.038918" lon="13.3109126"><ele>83.0</ele><time>2026-04-17T16:40:33.177Z</time></trkpt><trkpt lat="46.0390542" lon="13.3108434"><ele>83.0</ele><time>2026-04-17T16:40:34.177Z</time></trkpt><trkpt lat="46.0392014" lon="13.3107619"><ele>83.0</ele><time>2026-04-17T16:40:35.176Z</time></trkpt><trkpt lat="46.0393558" lon="13.3106742"><ele>82.66666666666667</ele><time>2026-04-17T16:40:36.177Z</time></trkpt><trkpt lat="46.0395096" lon="13.3105907"><ele>82.33333333333333</ele><time>2026-04-17T16:40:37.177Z</time></trkpt><trkpt lat="46.0396673" lon="13.3105038"><ele>82.0</ele><time>2026-04-17T16:40:38.177Z</time></trkpt><trkpt lat="46.0398173" lon="13.3104332"><ele>82.5</ele><time>2026-04-17T16:40:39.177Z</time></trkpt><trkpt lat="46.0399539" lon="13.3103614"><ele>83.0</ele><time>2026-04-17T16:40:40.176Z</time></trkpt><trkpt lat="46.0400805" lon="13.3102928"><ele>83.5</ele><time>2026-04-17T16:40:41.176Z</time></trkpt><trkpt lat="46.0402024" lon="13.3102337"><ele>84.0</ele><time>2026-04-17T16:40:42.176Z</time></trkpt><trkpt lat="46.040323" lon="13.3101723"><ele>84.6</ele><time>2026-04-17T16:40:43.177Z</time></trkpt><trkpt lat="46.0404388" lon="13.3101072"><ele>85.2</ele><time>2026-04-17T16:40:44.176Z</time></trkpt><trkpt lat="46.0405474" lon="13.3100534"><ele>85.8</ele><time>2026-04-17T16:40:45.177Z</time></trkpt><trkpt lat="46.0406429" lon="13.3100116"><ele>86.39999999999999</ele><time>2026-04-17T16:40:46.177Z</time></trkpt><trkpt lat="46.0407219" lon="13.309972"><ele>87.0</ele><time>2026-04-17T16:40:47.177Z</time></trkpt><trkpt lat="46.0407869" lon="13.3099279"><ele>87.19999999999999</ele><time>2026-04-17T16:40:48.177Z</time></trkpt><trkpt lat="46.0408865" lon="13.3098619"><ele>87.4</ele><time>2026-04-17T16:40:50.177Z</time></trkpt><trkpt lat="46.0409592" lon="13.3098213"><ele>87.6</ele><time>2026-04-17T16:40:53.176Z</time></trkpt><trkpt lat="46.0409536" lon="13.3096614"><ele>87.80000000000001</ele><time>2026-04-17T16:41:12.177Z</time></trkpt><trkpt lat="46.0409461" lon="13.3095581"><ele>88.0</ele><time>2026-04-17T16:41:13.177Z</time></trkpt><trkpt lat="46.0409377" lon="13.3094264"><ele>88.0</ele><time>2026-04-17T16:41:14.177Z</time></trkpt><trkpt lat="46.0409387" lon="13.3092866"><ele>88.0</ele><time>2026-04-17T16:41:15.176Z</time></trkpt><trkpt lat="46.0409417" lon="13.3091556"><ele>88.0</ele><time>2026-04-17T16:41:16.177Z</time></trkpt><trkpt lat="46.0409494" lon="13.3090395"><ele>88.0</ele><time>2026-04-17T16:41:17.176Z</time></trkpt><trkpt lat="46.0409664" lon="13.3089339"><ele>88.0</ele><time>2026-04-17T16:41:18.177Z</time></trkpt><trkpt lat="46.0409896" lon="13.3088116"><ele>88.0</ele><time>2026-04-17T16:41:20.177Z</time></trkpt><trkpt lat="46.0410197" lon="13.308714"><ele>88.16666666666666</ele><time>2026-04-17T16:41:30.175Z</time></trkpt><trkpt lat="46.0410433" lon="13.3086231"><ele>88.33333333333333</ele><time>2026-04-17T16:41:31.176Z</time></trkpt><trkpt lat="46.0410856" lon="13.3085416"><ele>88.5</ele><time>2026-04-17T16:41:32.176Z</time></trkpt><trkpt lat="46.0411434" lon="13.3084891"><ele>88.66666666666667</ele><time>2026-04-17T16:41:33.176Z</time></trkpt><trkpt lat="46.041229" lon="13.308469"><ele>88.83333333333334</ele><time>2026-04-17T16:41:34.175Z</time></trkpt><trkpt lat="46.0413425" lon="13.308463"><ele>89.0</ele><time>2026-04-17T16:41:35.176Z</time></trkpt><trkpt lat="46.0414723" lon="13.3084567"><ele>89.0</ele><time>2026-04-17T16:41:36.176Z</time></trkpt><trkpt lat="46.0415915" lon="13.3084451"><ele>89.0</ele><time>2026-04-17T16:41:37.176Z</time></trkpt><trkpt lat="46.041696" lon="13.3084049"><ele>89.0</ele><time>2026-04-17T16:41:38.175Z</time></trkpt><trkpt lat="46.0418081" lon="13.3083455"><ele>89.0</ele><time>2026-04-17T16:41:39.175Z</time></trkpt><trkpt lat="46.0419121" lon="13.3082518"><ele>88.66666666666667</ele><time>2026-04-17T16:41:40.176Z</time></trkpt><trkpt lat="46.0420049" lon="13.3081195"><ele>88.33333333333333</ele><time>2026-04-17T16:41:41.175Z</time></trkpt><trkpt lat="46.0421102" lon="13.3079432"><ele>88.0</ele><time>2026-04-17T16:41:42.176Z</time></trkpt><trkpt lat="46.0422316" lon="13.3077537"><ele>88.33333333333333</ele><time>2026-04-17T16:41:43.176Z</time></trkpt><trkpt lat="46.042352" lon="13.3075674"><ele>88.66666666666667</ele><time>2026-04-17T16:41:44.175Z</time></trkpt><trkpt lat="46.0424727" lon="13.3073824"><ele>89.0</ele><time>2026-04-17T16:41:45.176Z</time></trkpt><trkpt lat="46.0426013" lon="13.3071836"><ele>89.0</ele><time>2026-04-17T16:41:46.176Z</time></trkpt><trkpt lat="46.0427491" lon="13.3069573"><ele>89.0</ele><time>2026-04-17T16:41:47.175Z</time></trkpt><trkpt lat="46.0429026" lon="13.3067248"><ele>89.0</ele><time>2026-04-17T16:41:48.176Z</time></trkpt><trkpt lat="46.0430601" lon="13.3064837"><ele>89.33333333333334</ele><time>2026-04-17T16:41:49.176Z</time></trkpt><trkpt lat="46.0432162" lon="13.3062355"><ele>89.66666666666667</ele><time>2026-04-17T16:41:50.175Z</time></trkpt><trkpt lat="46.0433591" lon="13.3060154"><ele>90.0</ele><time>2026-04-17T16:41:51.175Z</time></trkpt><trkpt lat="46.0434918" lon="13.305824"><ele>90.0</ele><time>2026-04-17T16:41:52.176Z</time></trkpt><trkpt lat="46.0436074" lon="13.3056498"><ele>90.0</ele><time>2026-04-17T16:41:53.175Z</time></trkpt><trkpt lat="46.043708" lon="13.3054974"><ele>90.0</ele><time>2026-04-17T16:41:54.176Z</time></trkpt><trkpt lat="46.0438105" lon="13.3053364"><ele>89.75</ele><time>2026-04-17T16:41:55.175Z</time></trkpt><trkpt lat="46.0439178" lon="13.3051792"><ele>89.5</ele><time>2026-04-17T16:41:56.176Z</time></trkpt><trkpt lat="46.0440232" lon="13.3050223"><ele>89.25</ele><time>2026-04-17T16:41:57.176Z</time></trkpt><trkpt lat="46.0441146" lon="13.3048698"><ele>89.0</ele><time>2026-04-17T16:41:58.176Z</time></trkpt><trkpt lat="46.0442058" lon="13.3047295"><ele>89.0</ele><time>2026-04-17T16:41:59.175Z</time></trkpt><trkpt lat="46.0442888" lon="13.3046017"><ele>89.0</ele><time>2026-04-17T16:42:00.175Z</time></trkpt><trkpt lat="46.0443646" lon="13.3044776"><ele>89.0</ele><time>2026-04-17T16:42:01.176Z</time></trkpt><trkpt lat="46.0444483" lon="13.3043519"><ele>89.0</ele><time>2026-04-17T16:42:02.176Z</time></trkpt><trkpt lat="46.0445286" lon="13.3042334"><ele>89.0</ele><time>2026-04-17T16:42:03.175Z</time></trkpt><trkpt lat="46.0446026" lon="13.3041193"><ele>89.0</ele><time>2026-04-17T16:42:04.175Z</time></trkpt><trkpt lat="46.0446723" lon="13.3040128"><ele>89.0</ele><time>2026-04-17T16:42:05.175Z</time></trkpt><trkpt lat="46.0447476" lon="13.3038989"><ele>89.0</ele><time>2026-04-17T16:42:06.175Z</time></trkpt><trkpt lat="46.0448207" lon="13.3037832"><ele>89.0</ele><time>2026-04-17T16:42:07.176Z</time></trkpt><trkpt lat="46.0449035" lon="13.30366"><ele>88.75</ele><time>2026-04-17T16:42:08.176Z</time></trkpt><trkpt lat="46.0449874" lon="13.303532"><ele>88.5</ele><time>2026-04-17T16:42:09.176Z</time></trkpt><trkpt lat="46.0450745" lon="13.3034002"><ele>88.25</ele><time>2026-04-17T16:42:10.176Z</time></trkpt><trkpt lat="46.0451616" lon="13.3032625"><ele>88.0</ele><time>2026-04-17T16:42:11.176Z</time></trkpt><trkpt lat="46.0452484" lon="13.3031296"><ele>88.0</ele><time>2026-04-17T16:42:12.176Z</time></trkpt><trkpt lat="46.0453412" lon="13.3029964"><ele>88.0</ele><time>2026-04-17T16:42:13.176Z</time></trkpt><trkpt lat="46.0454299" lon="13.3028649"><ele>88.0</ele><time>2026-04-17T16:42:14.175Z</time></trkpt><trkpt lat="46.0455169" lon="13.3027249"><ele>88.0</ele><time>2026-04-17T16:42:15.175Z</time></trkpt><trkpt lat="46.0456053" lon="13.3025964"><ele>88.0</ele><time>2026-04-17T16:42:16.176Z</time></trkpt><trkpt lat="46.0456948" lon="13.3024558"><ele>88.0</ele><time>2026-04-17T16:42:17.175Z</time></trkpt><trkpt lat="46.0457761" lon="13.3023236"><ele>88.0</ele><time>2026-04-17T16:42:18.175Z</time></trkpt><trkpt lat="46.0458523" lon="13.3022094"><ele>88.0</ele><time>2026-04-17T16:42:19.175Z</time></trkpt><trkpt lat="46.0459196" lon="13.3021033"><ele>88.66666666666666</ele><time>2026-04-17T16:42:20.176Z</time></trkpt><trkpt lat="46.0459795" lon="13.3020018"><ele>89.33333333333333</ele><time>2026-04-17T16:42:21.176Z</time></trkpt><trkpt lat="46.0460251" lon="13.3019069"><ele>90.0</ele><time>2026-04-17T16:42:22.175Z</time></trkpt><trkpt lat="46.0460511" lon="13.3017972"><ele>90.66666666666667</ele><time>2026-04-17T16:42:23.176Z</time></trkpt><trkpt lat="46.0460737" lon="13.301686"><ele>91.33333333333334</ele><time>2026-04-17T16:42:24.176Z</time></trkpt><trkpt lat="46.0460965" lon="13.3015923"><ele>92.0</ele><time>2026-04-17T16:42:25.175Z</time></trkpt><trkpt lat="46.0461378" lon="13.3015186"><ele>92.0</ele><time>2026-04-17T16:42:26.176Z</time></trkpt><trkpt lat="46.0461942" lon="13.301469"><ele>92.0</ele><time>2026-04-17T16:42:27.176Z</time></trkpt><trkpt lat="46.0462641" lon="13.3014408"><ele>92.0</ele><time>2026-04-17T16:42:28.176Z</time></trkpt><trkpt lat="46.0463489" lon="13.3014086"><ele>92.0</ele><time>2026-04-17T16:42:29.176Z</time></trkpt><trkpt lat="46.0464357" lon="13.3013474"><ele>92.0</ele><time>2026-04-17T16:42:30.176Z</time></trkpt><trkpt lat="46.0465293" lon="13.3012289"><ele>92.0</ele><time>2026-04-17T16:42:31.175Z</time></trkpt><trkpt lat="46.0466358" lon="13.3010472"><ele>91.33333333333334</ele><time>2026-04-17T16:42:32.175Z</time></trkpt><trkpt lat="46.0467688" lon="13.3008367"><ele>90.66666666666667</ele><time>2026-04-17T16:42:33.176Z</time></trkpt><trkpt lat="46.0468903" lon="13.3006448"><ele>90.0</ele><time>2026-04-17T16:42:34.176Z</time></trkpt><trkpt lat="46.046988" lon="13.3004946"><ele>90.0</ele><time>2026-04-17T16:42:35.176Z</time></trkpt><trkpt lat="46.047074" lon="13.3003705"><ele>90.0</ele><time>2026-04-17T16:42:36.176Z</time></trkpt><trkpt lat="46.0471448" lon="13.300256"><ele>90.0</ele><time>2026-04-17T16:42:37.176Z</time></trkpt><trkpt lat="46.0471901" lon="13.3001347"><ele>90.0</ele><time>2026-04-17T16:42:38.176Z</time></trkpt><trkpt lat="46.0472119" lon="13.2999932"><ele>90.0</ele><time>2026-04-17T16:42:39.176Z</time></trkpt><trkpt lat="46.0472201" lon="13.2998629"><ele>90.0</ele><time>2026-04-17T16:42:40.176Z</time></trkpt><trkpt lat="46.0472232" lon="13.2997421"><ele>90.0</ele><time>2026-04-17T16:42:41.176Z</time></trkpt><trkpt lat="46.0472322" lon="13.2996258"><ele>90.0</ele><time>2026-04-17T16:42:42.176Z</time></trkpt><trkpt lat="46.0472639" lon="13.2995089"><ele>90.0</ele><time>2026-04-17T16:42:43.176Z</time></trkpt><trkpt lat="46.0473113" lon="13.2994003"><ele>90.0</ele><time>2026-04-17T16:42:44.176Z</time></trkpt><trkpt lat="46.0473654" lon="13.2992899"><ele>90.0</ele><time>2026-04-17T16:42:45.175Z</time></trkpt><trkpt lat="46.04743" lon="13.299184"><ele>90.6</ele><time>2026-04-17T16:42:46.176Z</time></trkpt><trkpt lat="46.0474928" lon="13.29908"><ele>91.2</ele><time>2026-04-17T16:42:47.175Z</time></trkpt><trkpt lat="46.0475497" lon="13.2989839"><ele>91.80000000000001</ele><time>2026-04-17T16:42:48.176Z</time></trkpt><trkpt lat="46.0475984" lon="13.2988889"><ele>92.4</ele><time>2026-04-17T16:42:49.175Z</time></trkpt><trkpt lat="46.0476624" lon="13.2987626"><ele>93.0</ele><time>2026-04-17T16:42:51.176Z</time></trkpt><trkpt lat="46.0476944" lon="13.2986204"><ele>93.0</ele><time>2026-04-17T16:48:15.175Z</time></trkpt><trkpt lat="46.0476979" lon="13.2985263"><ele>93.0</ele><time>2026-04-17T16:48:16.175Z</time></trkpt><trkpt lat="46.0476986" lon="13.2984148"><ele>93.0</ele><time>2026-04-17T16:48:17.174Z</time></trkpt><trkpt lat="46.0477172" lon="13.2982805"><ele>93.0</ele><time>2026-04-17T16:48:18.175Z</time></trkpt><trkpt lat="46.0477332" lon="13.2981359"><ele>93.0</ele><time>2026-04-17T16:48:19.175Z</time></trkpt><trkpt lat="46.0477471" lon="13.2980011"><ele>93.0</ele><time>2026-04-17T16:48:20.175Z</time></trkpt><trkpt lat="46.0477605" lon="13.2978775"><ele>93.0</ele><time>2026-04-17T16:48:21.174Z</time></trkpt><trkpt lat="46.0477662" lon="13.2977666"><ele>93.0</ele><time>2026-04-17T16:48:22.175Z</time></trkpt><trkpt lat="46.0477756" lon="13.2976692"><ele>93.0</ele><time>2026-04-17T16:48:23.175Z</time></trkpt><trkpt lat="46.0477934" lon="13.2975193"><ele>93.0</ele><time>2026-04-17T16:48:25.175Z</time></trkpt><trkpt lat="46.0478096" lon="13.2973947"><ele>93.0</ele><time>2026-04-17T16:48:27.174Z</time></trkpt><trkpt lat="46.0478714" lon="13.2972711"><ele>93.0</ele><time>2026-04-17T16:48:29.175Z</time></trkpt><trkpt lat="46.0479327" lon="13.2972191"><ele>93.0</ele><time>2026-04-17T16:48:30.175Z</time></trkpt><trkpt lat="46.0480181" lon="13.2971676"><ele>93.0</ele><time>2026-04-17T16:48:31.175Z</time></trkpt><trkpt lat="46.0481206" lon="13.2970992"><ele>93.0</ele><time>2026-04-17T16:48:32.175Z</time></trkpt><trkpt lat="46.0482361" lon="13.2970061"><ele>93.0</ele><time>2026-04-17T16:48:33.175Z</time></trkpt><trkpt lat="46.0483615" lon="13.2969022"><ele>93.33333333333333</ele><time>2026-04-17T16:48:34.175Z</time></trkpt><trkpt lat="46.0484985" lon="13.2967886"><ele>93.66666666666666</ele><time>2026-04-17T16:48:35.174Z</time></trkpt><trkpt lat="46.0486458" lon="13.2966739"><ele>94.0</ele><time>2026-04-17T16:48:36.175Z</time></trkpt><trkpt lat="46.0487999" lon="13.2965548"><ele>94.0</ele><time>2026-04-17T16:48:37.174Z</time></trkpt><trkpt lat="46.048956" lon="13.2964291"><ele>94.0</ele><time>2026-04-17T16:48:38.174Z</time></trkpt><trkpt lat="46.0491112" lon="13.2963003"><ele>94.0</ele><time>2026-04-17T16:48:39.175Z</time></trkpt><trkpt lat="46.0492548" lon="13.2961817"><ele>93.75</ele><time>2026-04-17T16:48:40.175Z</time></trkpt><trkpt lat="46.0493887" lon="13.2960789"><ele>93.5</ele><time>2026-04-17T16:48:41.175Z</time></trkpt><trkpt lat="46.0495095" lon="13.2959845"><ele>93.25</ele><time>2026-04-17T16:48:42.175Z</time></trkpt><trkpt lat="46.0496194" lon="13.2958906"><ele>93.0</ele><time>2026-04-17T16:48:43.174Z</time></trkpt><trkpt lat="46.0497275" lon="13.2958136"><ele>93.0</ele><time>2026-04-17T16:48:44.175Z</time></trkpt><trkpt lat="46.0498298" lon="13.2957254"><ele>93.0</ele><time>2026-04-17T16:48:45.175Z</time></trkpt><trkpt lat="46.0499324" lon="13.2956465"><ele>93.0</ele><time>2026-04-17T16:48:46.175Z</time></trkpt><trkpt lat="46.0500286" lon="13.2955749"><ele>93.0</ele><time>2026-04-17T16:48:47.175Z</time></trkpt><trkpt lat="46.0501187" lon="13.2954969"><ele>93.0</ele><time>2026-04-17T16:48:48.174Z</time></trkpt><trkpt lat="46.050202" lon="13.2954365"><ele>93.25</ele><time>2026-04-17T16:48:49.175Z</time></trkpt><trkpt lat="46.0502959" lon="13.2953785"><ele>93.5</ele><time>2026-04-17T16:48:50.175Z</time></trkpt><trkpt lat="46.0504081" lon="13.2953114"><ele>93.75</ele><time>2026-04-17T16:48:51.174Z</time></trkpt><trkpt lat="46.0505351" lon="13.2952191"><ele>94.0</ele><time>2026-04-17T16:48:52.175Z</time></trkpt><trkpt lat="46.0506754" lon="13.2951118"><ele>94.0</ele><time>2026-04-17T16:48:53.175Z</time></trkpt><trkpt lat="46.0508305" lon="13.2949856"><ele>94.0</ele><time>2026-04-17T16:48:54.175Z</time></trkpt><trkpt lat="46.0510029" lon="13.2948447"><ele>94.0</ele><time>2026-04-17T16:48:55.175Z</time></trkpt><trkpt lat="46.0511839" lon="13.2946993"><ele>94.0</ele><time>2026-04-17T16:48:56.175Z</time></trkpt><trkpt lat="46.0513616" lon="13.2945704"><ele>94.0</ele><time>2026-04-17T16:48:57.175Z</time></trkpt><trkpt lat="46.0515412" lon="13.2944434"><ele>94.0</ele><time>2026-04-17T16:48:58.174Z</time></trkpt><trkpt lat="46.0517273" lon="13.294311"><ele>94.33333333333333</ele><time>2026-04-17T16:48:59.175Z</time></trkpt><trkpt lat="46.0519137" lon="13.294185"><ele>94.66666666666667</ele><time>2026-04-17T16:49:00.175Z</time></trkpt><trkpt lat="46.052096" lon="13.2940572"><ele>95.0</ele><time>2026-04-17T16:49:01.174Z</time></trkpt><trkpt lat="46.0522691" lon="13.2939402"><ele>95.0</ele><time>2026-04-17T16:49:02.174Z</time></trkpt><trkpt lat="46.0524509" lon="13.2938193"><ele>95.0</ele><time>2026-04-17T16:49:03.175Z</time></trkpt><trkpt lat="46.0526338" lon="13.2936992"><ele>95.0</ele><time>2026-04-17T16:49:04.175Z</time></trkpt><trkpt lat="46.0528099" lon="13.2935765"><ele>95.0</ele><time>2026-04-17T16:49:05.175Z</time></trkpt><trkpt lat="46.052984" lon="13.2934426"><ele>95.0</ele><time>2026-04-17T16:49:06.174Z</time></trkpt><trkpt lat="46.0531517" lon="13.2933126"><ele>95.0</ele><time>2026-04-17T16:49:07.175Z</time></trkpt><trkpt lat="46.0533093" lon="13.2931772"><ele>94.66666666666667</ele><time>2026-04-17T16:49:08.175Z</time></trkpt><trkpt lat="46.0534643" lon="13.2930304"><ele>94.33333333333333</ele><time>2026-04-17T16:49:09.174Z</time></trkpt><trkpt lat="46.0536158" lon="13.2928799"><ele>94.0</ele><time>2026-04-17T16:49:10.175Z</time></trkpt><trkpt lat="46.0537752" lon="13.2927342"><ele>94.0</ele><time>2026-04-17T16:49:11.174Z</time></trkpt><trkpt lat="46.053944" lon="13.2925868"><ele>94.0</ele><time>2026-04-17T16:49:12.175Z</time></trkpt><trkpt lat="46.054105" lon="13.2924436"><ele>94.0</ele><time>2026-04-17T16:49:13.175Z</time></trkpt><trkpt lat="46.0542668" lon="13.2922917"><ele>94.66666666666666</ele><time>2026-04-17T16:49:14.175Z</time></trkpt><trkpt lat="46.0544268" lon="13.2921472"><ele>95.33333333333333</ele><time>2026-04-17T16:49:15.174Z</time></trkpt><trkpt lat="46.0545874" lon="13.2920059"><ele>96.0</ele><time>2026-04-17T16:49:16.175Z</time></trkpt><trkpt lat="46.0547417" lon="13.2918645"><ele>96.0</ele><time>2026-04-17T16:49:17.174Z</time></trkpt><trkpt lat="46.0548996" lon="13.2917263"><ele>96.0</ele><time>2026-04-17T16:49:18.175Z</time></trkpt><trkpt lat="46.0550626" lon="13.2916032"><ele>96.0</ele><time>2026-04-17T16:49:19.174Z</time></trkpt><trkpt lat="46.0552206" lon="13.2914791"><ele>96.0</ele><time>2026-04-17T16:49:20.174Z</time></trkpt><trkpt lat="46.0553893" lon="13.2913574"><ele>96.0</ele><time>2026-04-17T16:49:21.174Z</time></trkpt><trkpt lat="46.055549" lon="13.2912373"><ele>96.0</ele><time>2026-04-17T16:49:22.174Z</time></trkpt><trkpt lat="46.0557073" lon="13.2911223"><ele>96.0</ele><time>2026-04-17T16:49:23.175Z</time></trkpt><trkpt lat="46.0558544" lon="13.2910085"><ele>96.0</ele><time>2026-04-17T16:49:24.174Z</time></trkpt><trkpt lat="46.055996" lon="13.2909035"><ele>96.0</ele><time>2026-04-17T16:49:25.175Z</time></trkpt><trkpt lat="46.0561358" lon="13.2907982"><ele>96.0</ele><time>2026-04-17T16:49:26.175Z</time></trkpt><trkpt lat="46.0562816" lon="13.2907113"><ele>96.0</ele><time>2026-04-17T16:49:27.174Z</time></trkpt><trkpt lat="46.0564314" lon="13.2906425"><ele>96.0</ele><time>2026-04-17T16:49:28.175Z</time></trkpt><trkpt lat="46.0565832" lon="13.2905738"><ele>96.0</ele><time>2026-04-17T16:49:29.175Z</time></trkpt><trkpt lat="46.0567366" lon="13.2904982"><ele>96.0</ele><time>2026-04-17T16:49:30.175Z</time></trkpt><trkpt lat="46.0568791" lon="13.2904195"><ele>96.0</ele><time>2026-04-17T16:49:31.175Z</time></trkpt><trkpt lat="46.0570117" lon="13.2903279"><ele>96.0</ele><time>2026-04-17T16:49:32.174Z</time></trkpt><trkpt lat="46.0571413" lon="13.2902224"><ele>96.0</ele><time>2026-04-17T16:49:33.175Z</time></trkpt><trkpt lat="46.0572595" lon="13.2901001"><ele>96.0</ele><time>2026-04-17T16:49:34.175Z</time></trkpt><trkpt lat="46.0573697" lon="13.2899584"><ele>96.0</ele><time>2026-04-17T16:49:35.175Z</time></trkpt><trkpt lat="46.0574822" lon="13.2898255"><ele>96.0</ele><time>2026-04-17T16:49:36.175Z</time></trkpt><trkpt lat="46.0575997" lon="13.2896858"><ele>96.0</ele><time>2026-04-17T16:49:37.175Z</time></trkpt><trkpt lat="46.0577194" lon="13.2895478"><ele>96.0</ele><time>2026-04-17T16:49:38.175Z</time></trkpt><trkpt lat="46.0578492" lon="13.2894146"><ele>96.0</ele><time>2026-04-17T16:49:39.174Z</time></trkpt><trkpt lat="46.0579753" lon="13.2892872"><ele>96.0</ele><time>2026-04-17T16:49:40.174Z</time></trkpt><trkpt lat="46.0580939" lon="13.2891626"><ele>96.0</ele><time>2026-04-17T16:49:41.175Z</time></trkpt><trkpt lat="46.0582031" lon="13.289021"><ele>96.0</ele><time>2026-04-17T16:49:42.175Z</time></trkpt><trkpt lat="46.0583029" lon="13.288862"><ele>96.75</ele><time>2026-04-17T16:49:43.175Z</time></trkpt><trkpt lat="46.0583964" lon="13.2886953"><ele>97.5</ele><time>2026-04-17T16:49:44.175Z</time></trkpt><trkpt lat="46.0584947" lon="13.2885537"><ele>98.25</ele><time>2026-04-17T16:49:45.175Z</time></trkpt><trkpt lat="46.0586097" lon="13.2884311"><ele>99.0</ele><time>2026-04-17T16:49:46.175Z</time></trkpt><trkpt lat="46.0587392" lon="13.2883141"><ele>99.0</ele><time>2026-04-17T16:49:47.175Z</time></trkpt><trkpt lat="46.0588819" lon="13.2882359"><ele>99.0</ele><time>2026-04-17T16:49:48.175Z</time></trkpt><trkpt lat="46.0590257" lon="13.288181"><ele>99.0</ele><time>2026-04-17T16:49:49.175Z</time></trkpt><trkpt lat="46.0591738" lon="13.2881401"><ele>99.0</ele><time>2026-04-17T16:49:50.175Z</time></trkpt><trkpt lat="46.0593322" lon="13.2881059"><ele>99.0</ele><time>2026-04-17T16:49:51.175Z</time></trkpt><trkpt lat="46.0594895" lon="13.2880688"><ele>99.0</ele><time>2026-04-17T16:49:52.174Z</time></trkpt><trkpt lat="46.0596356" lon="13.2880371"><ele>99.0</ele><time>2026-04-17T16:49:53.175Z</time></trkpt><trkpt lat="46.0597706" lon="13.2880253"><ele>99.0</ele><time>2026-04-17T16:49:54.175Z</time></trkpt><trkpt lat="46.0598946" lon="13.2880366"><ele>99.0</ele><time>2026-04-17T16:49:55.175Z</time></trkpt><trkpt lat="46.0600166" lon="13.2880451"><ele>99.0</ele><time>2026-04-17T16:49:56.175Z</time></trkpt><trkpt lat="46.0601215" lon="13.2880591"><ele>99.0</ele><time>2026-04-17T16:49:57.174Z</time></trkpt><trkpt lat="46.0602207" lon="13.2880594"><ele>99.0</ele><time>2026-04-17T16:49:58.175Z</time></trkpt><trkpt lat="46.0603103" lon="13.2880471"><ele>99.0</ele><time>2026-04-17T16:49:59.175Z</time></trkpt><trkpt lat="46.0603777" lon="13.2880301"><ele>99.0</ele><time>2026-04-17T16:50:00.174Z</time></trkpt><trkpt lat="46.0604469" lon="13.2880464"><ele>99.0</ele><time>2026-04-17T16:50:02.175Z</time></trkpt><trkpt lat="46.0604245" lon="13.2881673"><ele>99.0</ele><time>2026-04-17T16:51:02.174Z</time></trkpt><trkpt lat="46.0604049" lon="13.2882914"><ele>98.80000000000001</ele><time>2026-04-17T16:51:04.174Z</time></trkpt><trkpt lat="46.0603935" lon="13.2884193"><ele>98.60000000000001</ele><time>2026-04-17T16:51:12.174Z</time></trkpt><trkpt lat="46.0603772" lon="13.2885965"><ele>98.4</ele><time>2026-04-17T16:51:14.174Z</time></trkpt><trkpt lat="46.0603704" lon="13.2887206"><ele>98.2</ele><time>2026-04-17T16:51:15.174Z</time></trkpt><trkpt lat="46.0603691" lon="13.2888719"><ele>98.0</ele><time>2026-04-17T16:51:16.174Z</time></trkpt><trkpt lat="46.0603577" lon="13.2890486"><ele>98.0</ele><time>2026-04-17T16:51:17.174Z</time></trkpt><trkpt lat="46.0603341" lon="13.2892434"><ele>98.0</ele><time>2026-04-17T16:51:18.174Z</time></trkpt><trkpt lat="46.060304" lon="13.2894188"><ele>98.0</ele><time>2026-04-17T16:51:19.173Z</time></trkpt><trkpt lat="46.0602765" lon="13.2895823"><ele>98.0</ele><time>2026-04-17T16:51:20.173Z</time></trkpt><trkpt lat="46.0602608" lon="13.2897477"><ele>98.4</ele><time>2026-04-17T16:51:21.173Z</time></trkpt><trkpt lat="46.0602483" lon="13.2899135"><ele>98.80000000000001</ele><time>2026-04-17T16:51:22.174Z</time></trkpt><trkpt lat="46.0602395" lon="13.2900614"><ele>99.2</ele><time>2026-04-17T16:51:23.174Z</time></trkpt><trkpt lat="46.0602346" lon="13.2901946"><ele>99.6</ele><time>2026-04-17T16:51:24.174Z</time></trkpt><trkpt lat="46.0602375" lon="13.2903072"><ele>100.0</ele><time>2026-04-17T16:51:25.173Z</time></trkpt><trkpt lat="46.0602472" lon="13.290401"><ele>100.0</ele><time>2026-04-17T16:51:26.173Z</time></trkpt><trkpt lat="46.0602616" lon="13.2905509"><ele>100.0</ele><time>2026-04-17T16:51:28.174Z</time></trkpt><trkpt lat="46.0602995" lon="13.290683"><ele>100.0</ele><time>2026-04-17T16:51:30.173Z</time></trkpt><trkpt lat="46.0603953" lon="13.2907735"><ele>100.0</ele><time>2026-04-17T16:51:32.173Z</time></trkpt><trkpt lat="46.0604611" lon="13.29079"><ele>100.0</ele><time>2026-04-17T16:51:33.174Z</time></trkpt><trkpt lat="46.0605364" lon="13.2907621"><ele>100.0</ele><time>2026-04-17T16:51:34.173Z</time></trkpt><trkpt lat="46.0606303" lon="13.2907122"><ele>100.0</ele><time>2026-04-17T16:51:35.173Z</time></trkpt><trkpt lat="46.0607336" lon="13.2906633"><ele>100.0</ele><time>2026-04-17T16:51:36.174Z</time></trkpt><trkpt lat="46.0608503" lon="13.2906216"><ele>100.0</ele><time>2026-04-17T16:51:37.173Z</time></trkpt><trkpt lat="46.0609793" lon="13.2905842"><ele>100.0</ele><time>2026-04-17T16:51:38.174Z</time></trkpt><trkpt lat="46.0611207" lon="13.2905433"><ele>100.0</ele><time>2026-04-17T16:51:39.173Z</time></trkpt><trkpt lat="46.061274" lon="13.290513"><ele>100.0</ele><time>2026-04-17T16:51:40.173Z</time></trkpt><trkpt lat="46.0614242" lon="13.2904842"><ele>100.0</ele><time>2026-04-17T16:51:41.174Z</time></trkpt><trkpt lat="46.0615758" lon="13.2904549"><ele>100.0</ele><time>2026-04-17T16:51:42.174Z</time></trkpt><trkpt lat="46.0617269" lon="13.2904415"><ele>100.0</ele><time>2026-04-17T16:51:43.173Z</time></trkpt><trkpt lat="46.061879" lon="13.2904224"><ele>99.75</ele><time>2026-04-17T16:51:44.174Z</time></trkpt><trkpt lat="46.0620275" lon="13.2904055"><ele>99.5</ele><time>2026-04-17T16:51:45.173Z</time></trkpt><trkpt lat="46.0621691" lon="13.2903848"><ele>99.25</ele><time>2026-04-17T16:51:46.174Z</time></trkpt><trkpt lat="46.0623072" lon="13.2903639"><ele>99.0</ele><time>2026-04-17T16:51:47.174Z</time></trkpt><trkpt lat="46.0624446" lon="13.2903369"><ele>99.0</ele><time>2026-04-17T16:51:48.174Z</time></trkpt><trkpt lat="46.0625636" lon="13.2903224"><ele>99.0</ele><time>2026-04-17T16:51:49.174Z</time></trkpt><trkpt lat="46.0626865" lon="13.2903053"><ele>99.0</ele><time>2026-04-17T16:51:50.174Z</time></trkpt><trkpt lat="46.0628031" lon="13.2902897"><ele>99.0</ele><time>2026-04-17T16:51:51.174Z</time></trkpt><trkpt lat="46.062915" lon="13.2902793"><ele>99.0</ele><time>2026-04-17T16:51:52.174Z</time></trkpt><trkpt lat="46.0630254" lon="13.2902753"><ele>99.0</ele><time>2026-04-17T16:51:53.173Z</time></trkpt><trkpt lat="46.0631245" lon="13.2902677"><ele>99.0</ele><time>2026-04-17T16:51:54.173Z</time></trkpt><trkpt lat="46.0632242" lon="13.2902601"><ele>99.0</ele><time>2026-04-17T16:51:55.174Z</time></trkpt><trkpt lat="46.0633222" lon="13.2902446"><ele>99.0</ele><time>2026-04-17T16:51:56.173Z</time></trkpt><trkpt lat="46.0634205" lon="13.2902299"><ele>98.6</ele><time>2026-04-17T16:51:57.173Z</time></trkpt><trkpt lat="46.0635243" lon="13.2902143"><ele>98.2</ele><time>2026-04-17T16:51:58.174Z</time></trkpt><trkpt lat="46.0636267" lon="13.2902026"><ele>97.8</ele><time>2026-04-17T16:51:59.174Z</time></trkpt><trkpt lat="46.0637287" lon="13.2901922"><ele>97.39999999999999</ele><time>2026-04-17T16:52:00.174Z</time></trkpt><trkpt lat="46.0638374" lon="13.2901845"><ele>97.0</ele><time>2026-04-17T16:52:01.174Z</time></trkpt><trkpt lat="46.0639429" lon="13.2901767"><ele>97.0</ele><time>2026-04-17T16:52:02.173Z</time></trkpt><trkpt lat="46.0640524" lon="13.2901652"><ele>97.0</ele><time>2026-04-17T16:52:03.174Z</time></trkpt><trkpt lat="46.0641601" lon="13.2901605"><ele>97.0</ele><time>2026-04-17T16:52:04.174Z</time></trkpt><trkpt lat="46.0642757" lon="13.2901573"><ele>97.0</ele><time>2026-04-17T16:52:05.173Z</time></trkpt><trkpt lat="46.0643908" lon="13.2901559"><ele>97.0</ele><time>2026-04-17T16:52:06.174Z</time></trkpt><trkpt lat="46.0645095" lon="13.2901523"><ele>98.0</ele><time>2026-04-17T16:52:07.174Z</time></trkpt><trkpt lat="46.0646225" lon="13.2901509"><ele>99.0</ele><time>2026-04-17T16:52:08.173Z</time></trkpt><trkpt lat="46.06474" lon="13.29016"><ele>100.0</ele><time>2026-04-17T16:52:09.174Z</time></trkpt><trkpt lat="46.0648585" lon="13.2901614"><ele>101.0</ele><time>2026-04-17T16:52:10.174Z</time></trkpt><trkpt lat="46.0649832" lon="13.2901686"><ele>101.5</ele><time>2026-04-17T16:52:11.174Z</time></trkpt><trkpt lat="46.0651086" lon="13.2901773"><ele>102.0</ele><time>2026-04-17T16:52:12.174Z</time></trkpt><trkpt lat="46.0652346" lon="13.2901848"><ele>102.5</ele><time>2026-04-17T16:52:13.174Z</time></trkpt><trkpt lat="46.0653645" lon="13.2901972"><ele>103.0</ele><time>2026-04-17T16:52:14.173Z</time></trkpt><trkpt lat="46.0654903" lon="13.2902123"><ele>103.0</ele><time>2026-04-17T16:52:15.174Z</time></trkpt><trkpt lat="46.0656097" lon="13.2902217"><ele>103.0</ele><time>2026-04-17T16:52:16.174Z</time></trkpt><trkpt lat="46.0657368" lon="13.290226"><ele>103.0</ele><time>2026-04-17T16:52:17.174Z</time></trkpt><trkpt lat="46.0658665" lon="13.2902276"><ele>103.0</ele><time>2026-04-17T16:52:18.173Z</time></trkpt><trkpt lat="46.0659937" lon="13.2902292"><ele>103.25</ele><time>2026-04-17T16:52:19.174Z</time></trkpt><trkpt lat="46.0661291" lon="13.2902346"><ele>103.5</ele><time>2026-04-17T16:52:20.174Z</time></trkpt><trkpt lat="46.0662628" lon="13.2902419"><ele>103.75</ele><time>2026-04-17T16:52:21.174Z</time></trkpt><trkpt lat="46.0664034" lon="13.2902441"><ele>104.0</ele><time>2026-04-17T16:52:22.173Z</time></trkpt><trkpt lat="46.0665378" lon="13.2902506"><ele>103.5</ele><time>2026-04-17T16:52:23.174Z</time></trkpt><trkpt lat="46.0666699" lon="13.2902615"><ele>103.0</ele><time>2026-04-17T16:52:24.173Z</time></trkpt><trkpt lat="46.0667991" lon="13.2902739"><ele>102.5</ele><time>2026-04-17T16:52:25.174Z</time></trkpt><trkpt lat="46.066936" lon="13.2902815"><ele>102.0</ele><time>2026-04-17T16:52:26.173Z</time></trkpt><trkpt lat="46.0670701" lon="13.2902925"><ele>102.0</ele><time>2026-04-17T16:52:27.174Z</time></trkpt><trkpt lat="46.0672053" lon="13.2903047"><ele>102.0</ele><time>2026-04-17T16:52:28.173Z</time></trkpt><trkpt lat="46.0673462" lon="13.2903075"><ele>102.0</ele><time>2026-04-17T16:52:29.174Z</time></trkpt><trkpt lat="46.0674849" lon="13.2903121"><ele>102.0</ele><time>2026-04-17T16:52:30.173Z</time></trkpt><trkpt lat="46.0676235" lon="13.2903246"><ele>102.0</ele><time>2026-04-17T16:52:31.174Z</time></trkpt><trkpt lat="46.0677661" lon="13.2903392"><ele>102.0</ele><time>2026-04-17T16:52:32.174Z</time></trkpt><trkpt lat="46.0679079" lon="13.2903472"><ele>102.0</ele><time>2026-04-17T16:52:33.173Z</time></trkpt><trkpt lat="46.0680559" lon="13.2903507"><ele>102.0</ele><time>2026-04-17T16:52:34.174Z</time></trkpt><trkpt lat="46.0681999" lon="13.2903611"><ele>102.25</ele><time>2026-04-17T16:52:35.174Z</time></trkpt><trkpt lat="46.0683438" lon="13.2903725"><ele>102.5</ele><time>2026-04-17T16:52:36.174Z</time></trkpt><trkpt lat="46.0684858" lon="13.2903814"><ele>102.75</ele><time>2026-04-17T16:52:37.173Z</time></trkpt><trkpt lat="46.0686273" lon="13.2903926"><ele>103.0</ele><time>2026-04-17T16:52:38.174Z</time></trkpt><trkpt lat="46.0687634" lon="13.2904146"><ele>103.0</ele><time>2026-04-17T16:52:39.174Z</time></trkpt><trkpt lat="46.06891" lon="13.2904245"><ele>103.0</ele><time>2026-04-17T16:52:40.174Z</time></trkpt><trkpt lat="46.0690607" lon="13.2904345"><ele>103.0</ele><time>2026-04-17T16:52:41.173Z</time></trkpt><trkpt lat="46.0692081" lon="13.2904459"><ele>103.0</ele><time>2026-04-17T16:52:42.173Z</time></trkpt><trkpt lat="46.0693577" lon="13.2904567"><ele>103.25</ele><time>2026-04-17T16:52:43.174Z</time></trkpt><trkpt lat="46.069502" lon="13.2904711"><ele>103.5</ele><time>2026-04-17T16:52:44.174Z</time></trkpt><trkpt lat="46.0696493" lon="13.2904817"><ele>103.75</ele><time>2026-04-17T16:52:45.173Z</time></trkpt><trkpt lat="46.0697964" lon="13.2904845"><ele>104.0</ele><time>2026-04-17T16:52:46.173Z</time></trkpt><trkpt lat="46.0699364" lon="13.29049"><ele>103.66666666666666</ele><time>2026-04-17T16:52:47.174Z</time></trkpt><trkpt lat="46.0700878" lon="13.2904832"><ele>103.33333333333334</ele><time>2026-04-17T16:52:48.174Z</time></trkpt><trkpt lat="46.0702399" lon="13.290464"><ele>103.0</ele><time>2026-04-17T16:52:49.174Z</time></trkpt><trkpt lat="46.070396" lon="13.2904402"><ele>103.0</ele><time>2026-04-17T16:52:50.174Z</time></trkpt><trkpt lat="46.0705529" lon="13.2904096"><ele>103.0</ele><time>2026-04-17T16:52:51.174Z</time></trkpt><trkpt lat="46.0707097" lon="13.2903812"><ele>103.0</ele><time>2026-04-17T16:52:52.174Z</time></trkpt><trkpt lat="46.0708677" lon="13.2903458"><ele>103.33333333333334</ele><time>2026-04-17T16:52:53.174Z</time></trkpt><trkpt lat="46.0710177" lon="13.2903143"><ele>103.66666666666666</ele><time>2026-04-17T16:52:54.174Z</time></trkpt><trkpt lat="46.0711701" lon="13.2902723"><ele>104.0</ele><time>2026-04-17T16:52:55.174Z</time></trkpt><trkpt lat="46.0713264" lon="13.2902347"><ele>104.0</ele><time>2026-04-17T16:52:56.174Z</time></trkpt><trkpt lat="46.0714814" lon="13.2901951"><ele>104.0</ele><time>2026-04-17T16:52:57.173Z</time></trkpt><trkpt lat="46.0716407" lon="13.2901579"><ele>104.0</ele><time>2026-04-17T16:52:58.174Z</time></trkpt><trkpt lat="46.0717965" lon="13.2901212"><ele>104.33333333333333</ele><time>2026-04-17T16:52:59.173Z</time></trkpt><trkpt lat="46.0719474" lon="13.2900845"><ele>104.66666666666666</ele><time>2026-04-17T16:53:00.173Z</time></trkpt><trkpt lat="46.0721015" lon="13.2900501"><ele>105.0</ele><time>2026-04-17T16:53:01.174Z</time></trkpt><trkpt lat="46.0722635" lon="13.290022"><ele>105.0</ele><time>2026-04-17T16:53:02.174Z</time></trkpt><trkpt lat="46.0724127" lon="13.2899861"><ele>105.0</ele><time>2026-04-17T16:53:03.174Z</time></trkpt><trkpt lat="46.0725459" lon="13.2899456"><ele>105.0</ele><time>2026-04-17T16:53:04.173Z</time></trkpt><trkpt lat="46.072679" lon="13.2899073"><ele>105.0</ele><time>2026-04-17T16:53:05.174Z</time></trkpt><trkpt lat="46.0727966" lon="13.2898703"><ele>105.0</ele><time>2026-04-17T16:53:06.174Z</time></trkpt><trkpt lat="46.0729089" lon="13.2898439"><ele>105.0</ele><time>2026-04-17T16:53:07.174Z</time></trkpt><trkpt lat="46.0730153" lon="13.2898279"><ele>105.0</ele><time>2026-04-17T16:53:08.173Z</time></trkpt><trkpt lat="46.0731167" lon="13.2898064"><ele>105.0</ele><time>2026-04-17T16:53:09.173Z</time></trkpt><trkpt lat="46.0732057" lon="13.2897868"><ele>105.0</ele><time>2026-04-17T16:53:10.174Z</time></trkpt><trkpt lat="46.0732799" lon="13.2897672"><ele>105.5</ele><time>2026-04-17T16:53:11.174Z</time></trkpt><trkpt lat="46.0733494" lon="13.2897404"><ele>106.0</ele><time>2026-04-17T16:53:12.173Z</time></trkpt><trkpt lat="46.0734281" lon="13.2897192"><ele>106.5</ele><time>2026-04-17T16:53:13.173Z</time></trkpt><trkpt lat="46.0735171" lon="13.2896979"><ele>107.0</ele><time>2026-04-17T16:53:14.174Z</time></trkpt><trkpt lat="46.0736121" lon="13.2896744"><ele>107.5</ele><time>2026-04-17T16:53:15.173Z</time></trkpt><trkpt lat="46.073714" lon="13.2896462"><ele>108.0</ele><time>2026-04-17T16:53:16.174Z</time></trkpt><trkpt lat="46.0738241" lon="13.2896189"><ele>108.0</ele><time>2026-04-17T16:53:17.174Z</time></trkpt><trkpt lat="46.0739491" lon="13.2895854"><ele>108.0</ele><time>2026-04-17T16:53:18.173Z</time></trkpt><trkpt lat="46.0740795" lon="13.2895541"><ele>108.0</ele><time>2026-04-17T16:53:19.174Z</time></trkpt><trkpt lat="46.0742151" lon="13.2895222"><ele>108.0</ele><time>2026-04-17T16:53:20.174Z</time></trkpt><trkpt lat="46.0743506" lon="13.2894994"><ele>108.25</ele><time>2026-04-17T16:53:21.173Z</time></trkpt><trkpt lat="46.0744936" lon="13.2894683"><ele>108.5</ele><time>2026-04-17T16:53:22.173Z</time></trkpt><trkpt lat="46.0746374" lon="13.2894277"><ele>108.75</ele><time>2026-04-17T16:53:23.173Z</time></trkpt><trkpt lat="46.0747822" lon="13.2893912"><ele>109.0</ele><time>2026-04-17T16:53:24.174Z</time></trkpt><trkpt lat="46.0749249" lon="13.2893553"><ele>109.25</ele><time>2026-04-17T16:53:25.174Z</time></trkpt><trkpt lat="46.0750726" lon="13.2893156"><ele>109.5</ele><time>2026-04-17T16:53:26.173Z</time></trkpt><trkpt lat="46.0752118" lon="13.2892743"><ele>109.75</ele><time>2026-04-17T16:53:27.173Z</time></trkpt><trkpt lat="46.0753419" lon="13.2892405"><ele>110.0</ele><time>2026-04-17T16:53:28.173Z</time></trkpt><trkpt lat="46.0754655" lon="13.2892102"><ele>110.0</ele><time>2026-04-17T16:53:29.174Z</time></trkpt><trkpt lat="46.0755851" lon="13.2891776"><ele>110.0</ele><time>2026-04-17T16:53:30.174Z</time></trkpt><trkpt lat="46.0757089" lon="13.2891347"><ele>110.0</ele><time>2026-04-17T16:53:31.174Z</time></trkpt><trkpt lat="46.0758237" lon="13.2891083"><ele>110.0</ele><time>2026-04-17T16:53:32.174Z</time></trkpt><trkpt lat="46.0759277" lon="13.2890904"><ele>110.0</ele><time>2026-04-17T16:53:33.174Z</time></trkpt><trkpt lat="46.0760201" lon="13.2890691"><ele>110.0</ele><time>2026-04-17T16:53:34.173Z</time></trkpt><trkpt lat="46.076098" lon="13.2890478"><ele>110.0</ele><time>2026-04-17T16:53:35.174Z</time></trkpt><trkpt lat="46.0761985" lon="13.2890117"><ele>110.0</ele><time>2026-04-17T16:53:37.173Z</time></trkpt><trkpt lat="46.0762311" lon="13.2889274"><ele>110.0</ele><time>2026-04-17T16:53:39.174Z</time></trkpt><trkpt lat="46.0762294" lon="13.2887589"><ele>110.0</ele><time>2026-04-17T16:53:41.173Z</time></trkpt><trkpt lat="46.0762229" lon="13.2886594"><ele>110.0</ele><time>2026-04-17T16:53:42.173Z</time></trkpt><trkpt lat="46.0762152" lon="13.2885451"><ele>110.0</ele><time>2026-04-17T16:53:43.173Z</time></trkpt><trkpt lat="46.0762085" lon="13.2884071"><ele>110.0</ele><time>2026-04-17T16:53:44.173Z</time></trkpt><trkpt lat="46.0761985" lon="13.2882354"><ele>110.0</ele><time>2026-04-17T16:53:45.174Z</time></trkpt><trkpt lat="46.0761895" lon="13.2880682"><ele>109.99999999999999</ele><time>2026-04-17T16:53:46.174Z</time></trkpt><trkpt lat="46.0761701" lon="13.2879198"><ele>110.0</ele><time>2026-04-17T16:53:47.173Z</time></trkpt><trkpt lat="46.0761563" lon="13.2878031"><ele>110.0</ele><time>2026-04-17T16:53:48.173Z</time></trkpt><trkpt lat="46.0761598" lon="13.2876952"><ele>110.0</ele><time>2026-04-17T16:53:49.174Z</time></trkpt><trkpt lat="46.0761698" lon="13.2875685"><ele>109.99999999999999</ele><time>2026-04-17T16:53:50.174Z</time></trkpt><trkpt lat="46.0761721" lon="13.2874432"><ele>110.0</ele><time>2026-04-17T16:53:51.173Z</time></trkpt><trkpt lat="46.0761644" lon="13.2873252"><ele>109.99999999999999</ele><time>2026-04-17T16:53:52.174Z</time></trkpt><trkpt lat="46.076151" lon="13.2872051"><ele>110.0</ele><time>2026-04-17T16:53:53.174Z</time></trkpt><trkpt lat="46.076133" lon="13.2870906"><ele>110.0</ele><time>2026-04-17T16:53:54.174Z</time></trkpt><trkpt lat="46.0761099" lon="13.2869917"><ele>110.0</ele><time>2026-04-17T16:53:55.174Z</time></trkpt><trkpt lat="46.0760859" lon="13.2869073"><ele>109.99999999999999</ele><time>2026-04-17T16:53:56.174Z</time></trkpt><trkpt lat="46.076001" lon="13.2867705"><ele>110.0</ele><time>2026-04-17T16:53:58.174Z</time></trkpt><trkpt lat="46.0759555" lon="13.286704"><ele>109.99999999999999</ele><time>2026-04-17T16:53:59.174Z</time></trkpt><trkpt lat="46.0759128" lon="13.2866352"><ele>110.0</ele><time>2026-04-17T16:54:00.174Z</time></trkpt><trkpt lat="46.0758716" lon="13.2864533"><ele>110.0</ele><time>2026-04-17T16:54:02.174Z</time></trkpt><trkpt lat="46.0758618" lon="13.2863431"><ele>110.0</ele><time>2026-04-17T16:54:03.173Z</time></trkpt><trkpt lat="46.0758563" lon="13.2862304"><ele>109.99999999999999</ele><time>2026-04-17T16:54:04.173Z</time></trkpt><trkpt lat="46.0758519" lon="13.2861278"><ele>110.0</ele><time>2026-04-17T16:54:05.174Z</time></trkpt><trkpt lat="46.0758393" lon="13.2860333"><ele>109.99999999999999</ele><time>2026-04-17T16:54:06.174Z</time></trkpt><trkpt lat="46.0758191" lon="13.2859412"><ele>110.0</ele><time>2026-04-17T16:54:07.174Z</time></trkpt><trkpt lat="46.0757811" lon="13.2858482"><ele>110.0</ele><time>2026-04-17T16:54:08.173Z</time></trkpt><trkpt lat="46.0757458" lon="13.285748"><ele>110.0</ele><time>2026-04-17T16:54:09.174Z</time></trkpt><trkpt lat="46.0757222" lon="13.2856551"><ele>110.0</ele><time>2026-04-17T16:54:10.174Z</time></trkpt><trkpt lat="46.0756986" lon="13.2855478"><ele>109.99999999999999</ele><time>2026-04-17T16:54:11.174Z</time></trkpt><trkpt lat="46.0756617" lon="13.2854448"><ele>110.0</ele><time>2026-04-17T16:54:12.173Z</time></trkpt><trkpt lat="46.0756293" lon="13.28536"><ele>109.71428571428571</ele><time>2026-04-17T16:54:13.173Z</time></trkpt><trkpt lat="46.0756014" lon="13.2852669"><ele>109.42857142857143</ele><time>2026-04-17T16:54:14.174Z</time></trkpt><trkpt lat="46.0755859" lon="13.2851681"><ele>109.14285714285714</ele><time>2026-04-17T16:54:15.174Z</time></trkpt><trkpt lat="46.0755794" lon="13.2850644"><ele>108.85714285714286</ele><time>2026-04-17T16:54:16.174Z</time></trkpt><trkpt lat="46.075573" lon="13.2849687"><ele>108.57142857142857</ele><time>2026-04-17T16:54:17.174Z</time></trkpt><trkpt lat="46.0755516" lon="13.2848745"><ele>108.28571428571428</ele><time>2026-04-17T16:54:18.174Z</time></trkpt><trkpt lat="46.0755241" lon="13.2847654"><ele>108.0</ele><time>2026-04-17T16:54:19.173Z</time></trkpt><trkpt lat="46.075497" lon="13.2846386"><ele>108.0</ele><time>2026-04-17T16:54:20.174Z</time></trkpt><trkpt lat="46.0754751" lon="13.2845245"><ele>108.0</ele><time>2026-04-17T16:54:21.174Z</time></trkpt><trkpt lat="46.0754582" lon="13.2844222"><ele>108.0</ele><time>2026-04-17T16:54:22.174Z</time></trkpt><trkpt lat="46.0754101" lon="13.2842889"><ele>108.0</ele><time>2026-04-17T16:54:24.173Z</time></trkpt><trkpt lat="46.0753868" lon="13.2841888"><ele>108.0</ele><time>2026-04-17T16:54:27.174Z</time></trkpt><trkpt lat="46.0754475" lon="13.2840907"><ele>108.0</ele><time>2026-04-17T16:54:30.173Z</time></trkpt><trkpt lat="46.0755009" lon="13.2839971"><ele>108.0</ele><time>2026-04-17T16:54:32.173Z</time></trkpt><trkpt lat="46.0755634" lon="13.2839741"><ele>108.0</ele><time>2026-04-17T16:54:35.174Z</time></trkpt><trkpt lat="46.0756234" lon="13.2839104"><ele>108.0</ele><time>2026-04-17T16:54:38.174Z</time></trkpt><trkpt lat="46.0756787" lon="13.2838554"><ele>108.0</ele><time>2026-04-17T16:54:40.174Z</time></trkpt><trkpt lat="46.0757405" lon="13.2838067"><ele>108.0</ele><time>2026-04-17T16:54:43.173Z</time></trkpt><trkpt lat="46.0757963" lon="13.2839543"><ele>108.0</ele><time>2026-04-17T16:54:52.173Z</time></trkpt><trkpt lat="46.0758231" lon="13.2840549"><ele>108.2</ele><time>2026-04-17T16:54:53.174Z</time></trkpt><trkpt lat="46.0758523" lon="13.2841789"><ele>108.4</ele><time>2026-04-17T16:54:54.173Z</time></trkpt><trkpt lat="46.0758822" lon="13.2843198"><ele>108.60000000000001</ele><time>2026-04-17T16:54:55.174Z</time></trkpt><trkpt lat="46.0759172" lon="13.2844832"><ele>108.80000000000001</ele><time>2026-04-17T16:54:56.174Z</time></trkpt><trkpt lat="46.0759417" lon="13.2846563"><ele>109.0</ele><time>2026-04-17T16:54:57.174Z</time></trkpt><trkpt lat="46.0759707" lon="13.2848294"><ele>109.0</ele><time>2026-04-17T16:54:58.174Z</time></trkpt><trkpt lat="46.0759951" lon="13.2849964"><ele>109.0</ele><time>2026-04-17T16:54:59.174Z</time></trkpt><trkpt lat="46.0760257" lon="13.2851589"><ele>109.0</ele><time>2026-04-17T16:55:00.174Z</time></trkpt><trkpt lat="46.076052" lon="13.2853286"><ele>109.0</ele><time>2026-04-17T16:55:01.173Z</time></trkpt><trkpt lat="46.0760802" lon="13.2855066"><ele>109.25</ele><time>2026-04-17T16:55:02.174Z</time></trkpt><trkpt lat="46.0761086" lon="13.2856843"><ele>109.5</ele><time>2026-04-17T16:55:03.173Z</time></trkpt><trkpt lat="46.0761412" lon="13.2858681"><ele>109.75</ele><time>2026-04-17T16:55:04.174Z</time></trkpt><trkpt lat="46.0761745" lon="13.2860477"><ele>110.0</ele><time>2026-04-17T16:55:05.174Z</time></trkpt><trkpt lat="46.0762091" lon="13.2862216"><ele>110.0</ele><time>2026-04-17T16:55:06.174Z</time></trkpt><trkpt lat="46.0762429" lon="13.2863945"><ele>110.0</ele><time>2026-04-17T16:55:07.174Z</time></trkpt><trkpt lat="46.0762736" lon="13.2865711"><ele>110.0</ele><time>2026-04-17T16:55:08.173Z</time></trkpt><trkpt lat="46.0763054" lon="13.2867563"><ele>110.0</ele><time>2026-04-17T16:55:09.173Z</time></trkpt><trkpt lat="46.0763415" lon="13.2869507"><ele>110.0</ele><time>2026-04-17T16:55:10.174Z</time></trkpt><trkpt lat="46.0763812" lon="13.2871614"><ele>110.0</ele><time>2026-04-17T16:55:11.174Z</time></trkpt><trkpt lat="46.0764155" lon="13.2873762"><ele>110.0</ele><time>2026-04-17T16:55:12.174Z</time></trkpt><trkpt lat="46.0764537" lon="13.2875988"><ele>110.0</ele><time>2026-04-17T16:55:13.173Z</time></trkpt><trkpt lat="46.0764992" lon="13.2878256"><ele>110.0</ele><time>2026-04-17T16:55:14.174Z</time></trkpt><trkpt lat="46.0765371" lon="13.2880418"><ele>110.0</ele><time>2026-04-17T16:55:15.174Z</time></trkpt><trkpt lat="46.0765753" lon="13.2882554"><ele>110.25</ele><time>2026-04-17T16:55:16.174Z</time></trkpt><trkpt lat="46.0766117" lon="13.2884639"><ele>110.5</ele><time>2026-04-17T16:55:17.174Z</time></trkpt><trkpt lat="46.0766486" lon="13.2886675"><ele>110.75</ele><time>2026-04-17T16:55:18.174Z</time></trkpt><trkpt lat="46.076681" lon="13.2888645"><ele>111.0</ele><time>2026-04-17T16:55:19.173Z</time></trkpt><trkpt lat="46.0767109" lon="13.2890649"><ele>111.0</ele><time>2026-04-17T16:55:20.174Z</time></trkpt><trkpt lat="46.0767437" lon="13.2892682"><ele>111.0</ele><time>2026-04-17T16:55:21.174Z</time></trkpt><trkpt lat="46.0767783" lon="13.2894767"><ele>111.0</ele><time>2026-04-17T16:55:22.173Z</time></trkpt><trkpt lat="46.0768149" lon="13.2896809"><ele>111.0</ele><time>2026-04-17T16:55:23.174Z</time></trkpt><trkpt lat="46.076847" lon="13.2898885"><ele>109.5</ele><time>2026-04-17T16:55:24.174Z</time></trkpt><trkpt lat="46.0768789" lon="13.2900928"><ele>108.0</ele><time>2026-04-17T16:55:25.173Z</time></trkpt><trkpt lat="46.0769136" lon="13.2902926"><ele>106.5</ele><time>2026-04-17T16:55:26.174Z</time></trkpt><trkpt lat="46.0769485" lon="13.2904868"><ele>105.0</ele><time>2026-04-17T16:55:27.174Z</time></trkpt><trkpt lat="46.0769805" lon="13.290681"><ele>104.0</ele><time>2026-04-17T16:55:28.174Z</time></trkpt><trkpt lat="46.0770205" lon="13.2908767"><ele>103.0</ele><time>2026-04-17T16:55:29.173Z</time></trkpt><trkpt lat="46.0770591" lon="13.2910676"><ele>102.0</ele><time>2026-04-17T16:55:30.173Z</time></trkpt><trkpt lat="46.0770908" lon="13.2912631"><ele>101.0</ele><time>2026-04-17T16:55:31.174Z</time></trkpt><trkpt lat="46.0771264" lon="13.2914643"><ele>100.75</ele><time>2026-04-17T16:55:32.174Z</time></trkpt><trkpt lat="46.07716" lon="13.2916598"><ele>100.5</ele><time>2026-04-17T16:55:33.174Z</time></trkpt><trkpt lat="46.0771896" lon="13.2918607"><ele>100.25</ele><time>2026-04-17T16:55:34.173Z</time></trkpt><trkpt lat="46.0772236" lon="13.2920576"><ele>100.0</ele><time>2026-04-17T16:55:35.174Z</time></trkpt><trkpt lat="46.07726" lon="13.2922476"><ele>100.5</ele><time>2026-04-17T16:55:36.173Z</time></trkpt><trkpt lat="46.0772924" lon="13.2924374"><ele>101.0</ele><time>2026-04-17T16:55:37.173Z</time></trkpt><trkpt lat="46.0773242" lon="13.2926305"><ele>101.5</ele><time>2026-04-17T16:55:38.174Z</time></trkpt><trkpt lat="46.0773558" lon="13.2928333"><ele>102.0</ele><time>2026-04-17T16:55:39.174Z</time></trkpt><trkpt lat="46.0773918" lon="13.2930274"><ele>101.5</ele><time>2026-04-17T16:55:40.174Z</time></trkpt><trkpt lat="46.0774284" lon="13.2932251"><ele>101.0</ele><time>2026-04-17T16:55:41.174Z</time></trkpt><trkpt lat="46.0774651" lon="13.2934207"><ele>100.5</ele><time>2026-04-17T16:55:42.174Z</time></trkpt><trkpt lat="46.0774944" lon="13.2936262"><ele>100.0</ele><time>2026-04-17T16:55:43.174Z</time></trkpt><trkpt lat="46.0775328" lon="13.2938386"><ele>103.0</ele><time>2026-04-17T16:55:44.174Z</time></trkpt><trkpt lat="46.0775683" lon="13.2940491"><ele>106.0</ele><time>2026-04-17T16:55:45.174Z</time></trkpt><trkpt lat="46.077605" lon="13.29426"><ele>109.0</ele><time>2026-04-17T16:55:46.174Z</time></trkpt><trkpt lat="46.0776374" lon="13.2944699"><ele>109.0</ele><time>2026-04-17T16:55:47.174Z</time></trkpt><trkpt lat="46.077676" lon="13.2946881"><ele>109.0</ele><time>2026-04-17T16:55:48.174Z</time></trkpt><trkpt lat="46.0777116" lon="13.2949028"><ele>109.0</ele><time>2026-04-17T16:55:49.173Z</time></trkpt><trkpt lat="46.0777454" lon="13.2951223"><ele>108.66666666666667</ele><time>2026-04-17T16:55:50.174Z</time></trkpt><trkpt lat="46.0777872" lon="13.2953565"><ele>108.33333333333334</ele><time>2026-04-17T16:55:51.173Z</time></trkpt><trkpt lat="46.0778186" lon="13.295577"><ele>108.0</ele><time>2026-04-17T16:55:52.173Z</time></trkpt><trkpt lat="46.0778425" lon="13.2957882"><ele>108.0</ele><time>2026-04-17T16:55:53.173Z</time></trkpt><trkpt lat="46.0778629" lon="13.2959853"><ele>108.0</ele><time>2026-04-17T16:55:54.172Z</time></trkpt><trkpt lat="46.0778841" lon="13.2961737"><ele>108.0</ele><time>2026-04-17T16:55:55.173Z</time></trkpt><trkpt lat="46.0779034" lon="13.2963493"><ele>108.0</ele><time>2026-04-17T16:55:56.173Z</time></trkpt><trkpt lat="46.0779231" lon="13.2965115"><ele>107.80000000000001</ele><time>2026-04-17T16:55:57.173Z</time></trkpt><trkpt lat="46.077936" lon="13.2966739"><ele>107.60000000000001</ele><time>2026-04-17T16:55:58.173Z</time></trkpt><trkpt lat="46.0779524" lon="13.2968179"><ele>107.39999999999999</ele><time>2026-04-17T16:55:59.173Z</time></trkpt><trkpt lat="46.0779752" lon="13.2969538"><ele>107.19999999999999</ele><time>2026-04-17T16:56:00.172Z</time></trkpt><trkpt lat="46.0780032" lon="13.2970723"><ele>107.0</ele><time>2026-04-17T16:56:01.172Z</time></trkpt><trkpt lat="46.0780287" lon="13.2971784"><ele>107.16666666666666</ele><time>2026-04-17T16:56:02.173Z</time></trkpt><trkpt lat="46.0780505" lon="13.2972647"><ele>107.33333333333333</ele><time>2026-04-17T16:56:03.172Z</time></trkpt><trkpt lat="46.0780636" lon="13.2973633"><ele>107.5</ele><time>2026-04-17T16:56:05.172Z</time></trkpt><trkpt lat="46.0780586" lon="13.2975056"><ele>107.66666666666666</ele><time>2026-04-17T16:56:19.173Z</time></trkpt><trkpt lat="46.0780348" lon="13.2976163"><ele>107.83333333333333</ele><time>2026-04-17T16:56:20.173Z</time></trkpt><trkpt lat="46.0780178" lon="13.2977445"><ele>108.0</ele><time>2026-04-17T16:56:21.173Z</time></trkpt><trkpt lat="46.0780321" lon="13.2978638"><ele>108.0</ele><time>2026-04-17T16:56:22.173Z</time></trkpt><trkpt lat="46.0780808" lon="13.2979575"><ele>108.00000000000001</ele><time>2026-04-17T16:56:23.172Z</time></trkpt><trkpt lat="46.0781572" lon="13.2980098"><ele>108.00000000000001</ele><time>2026-04-17T16:56:24.173Z</time></trkpt><trkpt lat="46.0782537" lon="13.2980268"><ele>108.0</ele><time>2026-04-17T16:56:25.173Z</time></trkpt><trkpt lat="46.0783468" lon="13.2979904"><ele>108.0</ele><time>2026-04-17T16:56:26.173Z</time></trkpt><trkpt lat="46.0784267" lon="13.2978925"><ele>107.75</ele><time>2026-04-17T16:56:27.173Z</time></trkpt><trkpt lat="46.0784816" lon="13.2977543"><ele>107.5</ele><time>2026-04-17T16:56:28.173Z</time></trkpt><trkpt lat="46.0785066" lon="13.2975965"><ele>107.25</ele><time>2026-04-17T16:56:29.173Z</time></trkpt><trkpt lat="46.0785276" lon="13.2974346"><ele>107.0</ele><time>2026-04-17T16:56:30.173Z</time></trkpt><trkpt lat="46.0785796" lon="13.2972885"><ele>107.5</ele><time>2026-04-17T16:56:31.173Z</time></trkpt><trkpt lat="46.0786728" lon="13.2971719"><ele>108.0</ele><time>2026-04-17T16:56:32.173Z</time></trkpt><trkpt lat="46.0787993" lon="13.297086"><ele>108.5</ele><time>2026-04-17T16:56:33.173Z</time></trkpt><trkpt lat="46.0789486" lon="13.2970182"><ele>109.0</ele><time>2026-04-17T16:56:34.173Z</time></trkpt><trkpt lat="46.0791016" lon="13.2969529"><ele>109.0</ele><time>2026-04-17T16:56:35.173Z</time></trkpt><trkpt lat="46.0792578" lon="13.2968836"><ele>109.0</ele><time>2026-04-17T16:56:36.173Z</time></trkpt><trkpt lat="46.0794221" lon="13.2968134"><ele>109.0</ele><time>2026-04-17T16:56:37.173Z</time></trkpt><trkpt lat="46.0795695" lon="13.2967514"><ele>109.0</ele><time>2026-04-17T16:56:38.173Z</time></trkpt><trkpt lat="46.0797134" lon="13.2967015"><ele>109.0</ele><time>2026-04-17T16:56:39.173Z</time></trkpt><trkpt lat="46.0798475" lon="13.2966519"><ele>109.0</ele><time>2026-04-17T16:56:40.173Z</time></trkpt><trkpt lat="46.0799851" lon="13.2965916"><ele>109.0</ele><time>2026-04-17T16:56:41.172Z</time></trkpt><trkpt lat="46.0801245" lon="13.296533"><ele>109.5</ele><time>2026-04-17T16:56:42.173Z</time></trkpt><trkpt lat="46.0802636" lon="13.2964792"><ele>110.0</ele><time>2026-04-17T16:56:43.173Z</time></trkpt><trkpt lat="46.0804025" lon="13.2964172"><ele>110.5</ele><time>2026-04-17T16:56:44.173Z</time></trkpt><trkpt lat="46.080542" lon="13.2963571"><ele>111.0</ele><time>2026-04-17T16:56:45.172Z</time></trkpt><trkpt lat="46.0806831" lon="13.2962959"><ele>111.25</ele><time>2026-04-17T16:56:46.173Z</time></trkpt><trkpt lat="46.0808137" lon="13.2962345"><ele>111.5</ele><time>2026-04-17T16:56:47.173Z</time></trkpt><trkpt lat="46.0809373" lon="13.2961845"><ele>111.75</ele><time>2026-04-17T16:56:48.173Z</time></trkpt><trkpt lat="46.0810581" lon="13.2961364"><ele>112.0</ele><time>2026-04-17T16:56:49.172Z</time></trkpt><trkpt lat="46.0811654" lon="13.2960953"><ele>112.0</ele><time>2026-04-17T16:56:50.172Z</time></trkpt><trkpt lat="46.0812596" lon="13.2960557"><ele>111.99999999999999</ele><time>2026-04-17T16:56:51.172Z</time></trkpt><trkpt lat="46.081334" lon="13.2960266"><ele>111.99999999999999</ele><time>2026-04-17T16:56:52.173Z</time></trkpt><trkpt lat="46.0813983" lon="13.2959994"><ele>112.0</ele><time>2026-04-17T16:56:53.173Z</time></trkpt><trkpt lat="46.0814841" lon="13.2958967"><ele>112.0</ele><time>2026-04-17T16:56:55.173Z</time></trkpt><trkpt lat="46.0814416" lon="13.2957336"><ele>112.0</ele><time>2026-04-17T16:56:57.173Z</time></trkpt><trkpt lat="46.0813796" lon="13.2956116"><ele>112.0</ele><time>2026-04-17T16:56:58.172Z</time></trkpt><trkpt lat="46.0813095" lon="13.2954639"><ele>112.0</ele><time>2026-04-17T16:56:59.173Z</time></trkpt><trkpt lat="46.0812392" lon="13.2952817"><ele>112.0</ele><time>2026-04-17T16:57:00.173Z</time></trkpt><trkpt lat="46.0811601" lon="13.2950888"><ele>112.0</ele><time>2026-04-17T16:57:01.172Z</time></trkpt><trkpt lat="46.0810906" lon="13.294886"><ele>112.0</ele><time>2026-04-17T16:57:02.173Z</time></trkpt><trkpt lat="46.0810116" lon="13.2946796"><ele>112.0</ele><time>2026-04-17T16:57:03.173Z</time></trkpt><trkpt lat="46.0809324" lon="13.2944569"><ele>111.33333333333334</ele><time>2026-04-17T16:57:04.173Z</time></trkpt><trkpt lat="46.080855" lon="13.2942466"><ele>110.66666666666666</ele><time>2026-04-17T16:57:05.172Z</time></trkpt><trkpt lat="46.0807891" lon="13.2940524"><ele>110.0</ele><time>2026-04-17T16:57:06.172Z</time></trkpt><trkpt lat="46.0807285" lon="13.2938777"><ele>109.75</ele><time>2026-04-17T16:57:07.173Z</time></trkpt><trkpt lat="46.0806763" lon="13.2937125"><ele>109.5</ele><time>2026-04-17T16:57:08.173Z</time></trkpt><trkpt lat="46.0806274" lon="13.2935496"><ele>109.25</ele><time>2026-04-17T16:57:09.173Z</time></trkpt><trkpt lat="46.0805933" lon="13.2933924"><ele>109.0</ele><time>2026-04-17T16:57:10.173Z</time></trkpt><trkpt lat="46.0805718" lon="13.2932432"><ele>109.0</ele><time>2026-04-17T16:57:11.173Z</time></trkpt><trkpt lat="46.0805618" lon="13.2930965"><ele>109.0</ele><time>2026-04-17T16:57:12.173Z</time></trkpt><trkpt lat="46.0805662" lon="13.2929416"><ele>109.0</ele><time>2026-04-17T16:57:13.173Z</time></trkpt><trkpt lat="46.0805753" lon="13.2927851"><ele>109.0</ele><time>2026-04-17T16:57:14.172Z</time></trkpt><trkpt lat="46.0805829" lon="13.2926264"><ele>109.0</ele><time>2026-04-17T16:57:15.173Z</time></trkpt><trkpt lat="46.0805929" lon="13.2924711"><ele>109.0</ele><time>2026-04-17T16:57:16.172Z</time></trkpt><trkpt lat="46.0806046" lon="13.2923248"><ele>109.0</ele><time>2026-04-17T16:57:17.173Z</time></trkpt><trkpt lat="46.0806145" lon="13.2921897"><ele>109.0</ele><time>2026-04-17T16:57:18.173Z</time></trkpt><trkpt lat="46.0806353" lon="13.2920644"><ele>109.0</ele><time>2026-04-17T16:57:19.173Z</time></trkpt><trkpt lat="46.0806684" lon="13.2919462"><ele>109.0</ele><time>2026-04-17T16:57:20.173Z</time></trkpt><trkpt lat="46.0807122" lon="13.2918383"><ele>109.16666666666667</ele><time>2026-04-17T16:57:21.172Z</time></trkpt><trkpt lat="46.080758" lon="13.2917548"><ele>109.33333333333334</ele><time>2026-04-17T16:57:22.173Z</time></trkpt><trkpt lat="46.0808212" lon="13.2916896"><ele>109.5</ele><time>2026-04-17T16:57:23.173Z</time></trkpt><trkpt lat="46.0809033" lon="13.2916345"><ele>109.66666666666666</ele><time>2026-04-17T16:57:24.172Z</time></trkpt><trkpt lat="46.0809914" lon="13.291588"><ele>109.83333333333333</ele><time>2026-04-17T16:57:25.173Z</time></trkpt><trkpt lat="46.0810942" lon="13.2915379"><ele>110.0</ele><time>2026-04-17T16:57:26.172Z</time></trkpt><trkpt lat="46.0812078" lon="13.2914844"><ele>110.0</ele><time>2026-04-17T16:57:27.173Z</time></trkpt><trkpt lat="46.0813307" lon="13.291414"><ele>110.0</ele><time>2026-04-17T16:57:28.173Z</time></trkpt><trkpt lat="46.0814619" lon="13.2913297"><ele>110.0</ele><time>2026-04-17T16:57:29.173Z</time></trkpt><trkpt lat="46.0815848" lon="13.291244"><ele>110.0</ele><time>2026-04-17T16:57:30.172Z</time></trkpt><trkpt lat="46.0817131" lon="13.2911619"><ele>109.75</ele><time>2026-04-17T16:57:31.173Z</time></trkpt><trkpt lat="46.0818475" lon="13.2910707"><ele>109.5</ele><time>2026-04-17T16:57:32.173Z</time></trkpt><trkpt lat="46.0819854" lon="13.2909922"><ele>109.25</ele><time>2026-04-17T16:57:33.173Z</time></trkpt><trkpt lat="46.0821097" lon="13.2909175"><ele>109.0</ele><time>2026-04-17T16:57:34.172Z</time></trkpt><trkpt lat="46.0822099" lon="13.2908334"><ele>109.0</ele><time>2026-04-17T16:57:35.173Z</time></trkpt><trkpt lat="46.0823004" lon="13.2907263"><ele>109.0</ele><time>2026-04-17T16:57:36.173Z</time></trkpt><trkpt lat="46.0823752" lon="13.2906018"><ele>109.0</ele><time>2026-04-17T16:57:37.173Z</time></trkpt><trkpt lat="46.0824351" lon="13.290486"><ele>109.0</ele><time>2026-04-17T16:57:38.172Z</time></trkpt><trkpt lat="46.0824786" lon="13.2903856"><ele>109.0</ele><time>2026-04-17T16:57:39.173Z</time></trkpt><trkpt lat="46.0825084" lon="13.2902919"><ele>109.66666666666667</ele><time>2026-04-17T16:57:40.173Z</time></trkpt><trkpt lat="46.0825339" lon="13.2901824"><ele>110.33333333333334</ele><time>2026-04-17T16:57:42.173Z</time></trkpt><trkpt lat="46.0825623" lon="13.2900747"><ele>111.0</ele><time>2026-04-17T16:57:45.173Z</time></trkpt><trkpt lat="46.0826248" lon="13.2900871"><ele>111.66666666666666</ele><time>2026-04-17T16:57:48.173Z</time></trkpt><trkpt lat="46.0826992" lon="13.2901384"><ele>112.33333333333333</ele><time>2026-04-17T16:57:50.172Z</time></trkpt><trkpt lat="46.0828171" lon="13.2901644"><ele>113.0</ele><time>2026-04-17T16:57:52.173Z</time></trkpt><trkpt lat="46.0828866" lon="13.2901546"><ele>112.99999999999999</ele><time>2026-04-17T16:57:53.173Z</time></trkpt><trkpt lat="46.0829632" lon="13.2901351"><ele>113.0</ele><time>2026-04-17T16:57:54.173Z</time></trkpt><trkpt lat="46.0830374" lon="13.2901199"><ele>113.0</ele><time>2026-04-17T16:57:55.173Z</time></trkpt><trkpt lat="46.0831082" lon="13.2900978"><ele>113.0</ele><time>2026-04-17T16:57:56.173Z</time></trkpt><trkpt lat="46.08319" lon="13.2900697"><ele>112.99999999999999</ele><time>2026-04-17T16:57:57.173Z</time></trkpt><trkpt lat="46.0832767" lon="13.2900434"><ele>113.0</ele><time>2026-04-17T16:57:58.172Z</time></trkpt><trkpt lat="46.0833754" lon="13.2900123"><ele>112.2</ele><time>2026-04-17T16:57:59.173Z</time></trkpt><trkpt lat="46.0834734" lon="13.2899782"><ele>111.4</ele><time>2026-04-17T16:58:00.173Z</time></trkpt><trkpt lat="46.0835723" lon="13.2899301"><ele>110.60000000000001</ele><time>2026-04-17T16:58:01.173Z</time></trkpt><trkpt lat="46.083682" lon="13.2898888"><ele>109.80000000000001</ele><time>2026-04-17T16:58:02.173Z</time></trkpt><trkpt lat="46.0837962" lon="13.2898521"><ele>109.0</ele><time>2026-04-17T16:58:03.172Z</time></trkpt><trkpt lat="46.0839175" lon="13.2898085"><ele>109.0</ele><time>2026-04-17T16:58:04.173Z</time></trkpt><trkpt lat="46.0840367" lon="13.2897599"><ele>109.0</ele><time>2026-04-17T16:58:05.173Z</time></trkpt><trkpt lat="46.0841594" lon="13.2897063"><ele>109.0</ele><time>2026-04-17T16:58:06.172Z</time></trkpt><trkpt lat="46.0842948" lon="13.2896426"><ele>109.0</ele><time>2026-04-17T16:58:07.172Z</time></trkpt><trkpt lat="46.0844348" lon="13.2895746"><ele>109.66666666666667</ele><time>2026-04-17T16:58:08.173Z</time></trkpt><trkpt lat="46.084578" lon="13.289487"><ele>110.33333333333334</ele><time>2026-04-17T16:58:09.173Z</time></trkpt><trkpt lat="46.0847149" lon="13.2893908"><ele>111.0</ele><time>2026-04-17T16:58:10.173Z</time></trkpt><trkpt lat="46.0848445" lon="13.289293"><ele>111.33333333333334</ele><time>2026-04-17T16:58:11.173Z</time></trkpt><trkpt lat="46.0849784" lon="13.2891983"><ele>111.66666666666667</ele><time>2026-04-17T16:58:12.173Z</time></trkpt><trkpt lat="46.0851138" lon="13.2891107"><ele>112.0</ele><time>2026-04-17T16:58:13.173Z</time></trkpt><trkpt lat="46.0852533" lon="13.2890202"><ele>112.0</ele><time>2026-04-17T16:58:14.172Z</time></trkpt><trkpt lat="46.0853994" lon="13.2889389"><ele>112.0</ele><time>2026-04-17T16:58:15.173Z</time></trkpt><trkpt lat="46.0855515" lon="13.2888628"><ele>112.0</ele><time>2026-04-17T16:58:16.173Z</time></trkpt><trkpt lat="46.0856939" lon="13.2887894"><ele>111.66666666666667</ele><time>2026-04-17T16:58:17.173Z</time></trkpt><trkpt lat="46.0858415" lon="13.2887056"><ele>111.33333333333334</ele><time>2026-04-17T16:58:18.172Z</time></trkpt><trkpt lat="46.0860014" lon="13.2886379"><ele>111.0</ele><time>2026-04-17T16:58:19.173Z</time></trkpt><trkpt lat="46.0861561" lon="13.2885709"><ele>111.0</ele><time>2026-04-17T16:58:20.173Z</time></trkpt><trkpt lat="46.0863016" lon="13.288495"><ele>111.0</ele><time>2026-04-17T16:58:21.173Z</time></trkpt><trkpt lat="46.0864381" lon="13.2884129"><ele>111.0</ele><time>2026-04-17T16:58:22.173Z</time></trkpt><trkpt lat="46.0865719" lon="13.2883518"><ele>111.0</ele><time>2026-04-17T16:58:23.173Z</time></trkpt><trkpt lat="46.0866941" lon="13.2882907"><ele>111.19999999999999</ele><time>2026-04-17T16:58:24.173Z</time></trkpt><trkpt lat="46.0868074" lon="13.288236"><ele>111.39999999999999</ele><time>2026-04-17T16:58:25.172Z</time></trkpt><trkpt lat="46.0869135" lon="13.2881861"><ele>111.6</ele><time>2026-04-17T16:58:26.173Z</time></trkpt><trkpt lat="46.0870103" lon="13.2881391"><ele>111.8</ele><time>2026-04-17T16:58:27.172Z</time></trkpt><trkpt lat="46.087099" lon="13.288105"><ele>112.0</ele><time>2026-04-17T16:58:28.173Z</time></trkpt><trkpt lat="46.0871836" lon="13.2880833"><ele>112.0</ele><time>2026-04-17T16:58:29.172Z</time></trkpt><trkpt lat="46.0872638" lon="13.2880926"><ele>111.99999999999999</ele><time>2026-04-17T16:58:30.173Z</time></trkpt><trkpt lat="46.0873582" lon="13.2881255"><ele>111.99999999999999</ele><time>2026-04-17T16:58:31.172Z</time></trkpt><trkpt lat="46.0874423" lon="13.2881937"><ele>112.0</ele><time>2026-04-17T16:58:32.173Z</time></trkpt><trkpt lat="46.0875204" lon="13.2882715"><ele>112.0</ele><time>2026-04-17T16:58:33.172Z</time></trkpt><trkpt lat="46.0875924" lon="13.2883794"><ele>112.0</ele><time>2026-04-17T16:58:34.172Z</time></trkpt><trkpt lat="46.0876684" lon="13.2885208"><ele>112.0</ele><time>2026-04-17T16:58:35.173Z</time></trkpt><trkpt lat="46.0877484" lon="13.2886916"><ele>112.0</ele><time>2026-04-17T16:58:36.173Z</time></trkpt><trkpt lat="46.0878367" lon="13.2888503"><ele>112.0</ele><time>2026-04-17T16:58:37.173Z</time></trkpt><trkpt lat="46.0879069" lon="13.2889821"><ele>112.0</ele><time>2026-04-17T16:58:38.173Z</time></trkpt><trkpt lat="46.0879756" lon="13.2891022"><ele>112.0</ele><time>2026-04-17T16:58:39.172Z</time></trkpt><trkpt lat="46.0880543" lon="13.2892025"><ele>112.0</ele><time>2026-04-17T16:58:40.173Z</time></trkpt><trkpt lat="46.0881603" lon="13.2892825"><ele>112.0</ele><time>2026-04-17T16:58:41.173Z</time></trkpt><trkpt lat="46.0882906" lon="13.2893253"><ele>113.33333333333334</ele><time>2026-04-17T16:58:42.173Z</time></trkpt><trkpt lat="46.0884381" lon="13.2893364"><ele>114.66666666666666</ele><time>2026-04-17T16:58:43.173Z</time></trkpt><trkpt lat="46.0886047" lon="13.2893105"><ele>116.0</ele><time>2026-04-17T16:58:44.173Z</time></trkpt><trkpt lat="46.0887855" lon="13.2892871"><ele>116.0</ele><time>2026-04-17T16:58:45.173Z</time></trkpt><trkpt lat="46.088983" lon="13.2892734"><ele>116.0</ele><time>2026-04-17T16:58:46.172Z</time></trkpt><trkpt lat="46.0891799" lon="13.289267"><ele>116.0</ele><time>2026-04-17T16:58:47.173Z</time></trkpt><trkpt lat="46.0893758" lon="13.2892653"><ele>115.33333333333333</ele><time>2026-04-17T16:58:48.173Z</time></trkpt><trkpt lat="46.0895636" lon="13.2892665"><ele>114.66666666666666</ele><time>2026-04-17T16:58:49.172Z</time></trkpt><trkpt lat="46.0897394" lon="13.2892779"><ele>114.0</ele><time>2026-04-17T16:58:50.173Z</time></trkpt><trkpt lat="46.0899183" lon="13.2892994"><ele>114.66666666666666</ele><time>2026-04-17T16:58:51.173Z</time></trkpt><trkpt lat="46.0900948" lon="13.2893223"><ele>115.33333333333333</ele><time>2026-04-17T16:58:52.173Z</time></trkpt><trkpt lat="46.090261" lon="13.2893427"><ele>116.0</ele><time>2026-04-17T16:58:53.172Z</time></trkpt><trkpt lat="46.0904244" lon="13.2893628"><ele>116.0</ele><time>2026-04-17T16:58:54.173Z</time></trkpt><trkpt lat="46.0905788" lon="13.2893681"><ele>116.0</ele><time>2026-04-17T16:58:55.173Z</time></trkpt><trkpt lat="46.0907326" lon="13.289378"><ele>116.0</ele><time>2026-04-17T16:58:56.173Z</time></trkpt><trkpt lat="46.0908772" lon="13.2893871"><ele>115.5</ele><time>2026-04-17T16:58:57.173Z</time></trkpt><trkpt lat="46.0910047" lon="13.2894071"><ele>115.0</ele><time>2026-04-17T16:58:58.173Z</time></trkpt><trkpt lat="46.0911289" lon="13.2894314"><ele>114.5</ele><time>2026-04-17T16:58:59.173Z</time></trkpt><trkpt lat="46.0912448" lon="13.2894656"><ele>114.0</ele><time>2026-04-17T16:59:00.173Z</time></trkpt><trkpt lat="46.0913573" lon="13.2894917"><ele>114.0</ele><time>2026-04-17T16:59:01.173Z</time></trkpt><trkpt lat="46.0914579" lon="13.2895087"><ele>114.0</ele><time>2026-04-17T16:59:02.173Z</time></trkpt><trkpt lat="46.0915435" lon="13.2895191"><ele>114.0</ele><time>2026-04-17T16:59:03.172Z</time></trkpt><trkpt lat="46.0916156" lon="13.2895321"><ele>114.0</ele><time>2026-04-17T16:59:04.172Z</time></trkpt><trkpt lat="46.0916771" lon="13.2895599"><ele>114.0</ele><time>2026-04-17T16:59:05.173Z</time></trkpt><trkpt lat="46.0917275" lon="13.289615"><ele>114.0</ele><time>2026-04-17T16:59:06.172Z</time></trkpt><trkpt lat="46.0917699" lon="13.2896887"><ele>114.33333333333333</ele><time>2026-04-17T16:59:07.173Z</time></trkpt><trkpt lat="46.0917961" lon="13.2898607"><ele>114.66666666666666</ele><time>2026-04-17T16:59:09.173Z</time></trkpt><trkpt lat="46.0917899" lon="13.2899606"><ele>115.0</ele><time>2026-04-17T16:59:10.173Z</time></trkpt><trkpt lat="46.0917729" lon="13.2900695"><ele>115.33333333333333</ele><time>2026-04-17T16:59:11.173Z</time></trkpt><trkpt lat="46.0917522" lon="13.2901838"><ele>115.66666666666666</ele><time>2026-04-17T16:59:12.173Z</time></trkpt><trkpt lat="46.0917457" lon="13.2902916"><ele>116.0</ele><time>2026-04-17T16:59:13.172Z</time></trkpt><trkpt lat="46.0917497" lon="13.2903859"><ele>116.0</ele><time>2026-04-17T16:59:14.172Z</time></trkpt><trkpt lat="46.0918195" lon="13.2905145"><ele>116.0</ele><time>2026-04-17T16:59:16.173Z</time></trkpt><trkpt lat="46.0918867" lon="13.2905442"><ele>116.0</ele><time>2026-04-17T16:59:17.173Z</time></trkpt><trkpt lat="46.0919785" lon="13.2905307"><ele>116.0</ele><time>2026-04-17T16:59:18.172Z</time></trkpt><trkpt lat="46.0920799" lon="13.2904873"><ele>116.0</ele><time>2026-04-17T16:59:19.173Z</time></trkpt><trkpt lat="46.0921989" lon="13.2904253"><ele>116.0</ele><time>2026-04-17T16:59:20.172Z</time></trkpt><trkpt lat="46.092332" lon="13.2903302"><ele>116.0</ele><time>2026-04-17T16:59:21.173Z</time></trkpt><trkpt lat="46.092466" lon="13.2902235"><ele>116.0</ele><time>2026-04-17T16:59:22.172Z</time></trkpt><trkpt lat="46.0925936" lon="13.2901204"><ele>116.0</ele><time>2026-04-17T16:59:23.173Z</time></trkpt><trkpt lat="46.0927083" lon="13.2900295"><ele>115.4</ele><time>2026-04-17T16:59:24.173Z</time></trkpt><trkpt lat="46.0928137" lon="13.2899369"><ele>114.8</ele><time>2026-04-17T16:59:25.173Z</time></trkpt><trkpt lat="46.0929104" lon="13.2898743"><ele>114.20000000000002</ele><time>2026-04-17T16:59:26.172Z</time></trkpt><trkpt lat="46.093006" lon="13.2898366"><ele>113.60000000000001</ele><time>2026-04-17T16:59:27.173Z</time></trkpt><trkpt lat="46.0930904" lon="13.2898329"><ele>113.0</ele><time>2026-04-17T16:59:28.173Z</time></trkpt><trkpt lat="46.09319" lon="13.2898321"><ele>112.25</ele><time>2026-04-17T16:59:29.173Z</time></trkpt><trkpt lat="46.0932925" lon="13.2898085"><ele>111.5</ele><time>2026-04-17T16:59:30.173Z</time></trkpt><trkpt lat="46.0933946" lon="13.2897476"><ele>110.75</ele><time>2026-04-17T16:59:31.173Z</time></trkpt><trkpt lat="46.0935067" lon="13.2896666"><ele>110.0</ele><time>2026-04-17T16:59:32.173Z</time></trkpt><trkpt lat="46.0936197" lon="13.2895701"><ele>110.0</ele><time>2026-04-17T16:59:33.173Z</time></trkpt><trkpt lat="46.0937426" lon="13.2894795"><ele>110.0</ele><time>2026-04-17T16:59:34.172Z</time></trkpt><trkpt lat="46.0938689" lon="13.2893897"><ele>110.0</ele><time>2026-04-17T16:59:35.172Z</time></trkpt><trkpt lat="46.0939976" lon="13.2892988"><ele>110.0</ele><time>2026-04-17T16:59:36.172Z</time></trkpt><trkpt lat="46.0941047" lon="13.2892259"><ele>111.2</ele><time>2026-04-17T16:59:37.173Z</time></trkpt><trkpt lat="46.0942054" lon="13.2891543"><ele>112.4</ele><time>2026-04-17T16:59:38.173Z</time></trkpt><trkpt lat="46.0943078" lon="13.2890985"><ele>113.6</ele><time>2026-04-17T16:59:39.173Z</time></trkpt><trkpt lat="46.0944056" lon="13.2890516"><ele>114.8</ele><time>2026-04-17T16:59:40.173Z</time></trkpt><trkpt lat="46.0944966" lon="13.2890006"><ele>116.0</ele><time>2026-04-17T16:59:41.173Z</time></trkpt><trkpt lat="46.0945676" lon="13.2889595"><ele>116.0</ele><time>2026-04-17T16:59:42.173Z</time></trkpt><trkpt lat="46.094663" lon="13.2888939"><ele>116.0</ele><time>2026-04-17T16:59:44.172Z</time></trkpt><trkpt lat="46.0947583" lon="13.288925"><ele>116.0</ele><time>2026-04-17T16:59:58.173Z</time></trkpt><trkpt lat="46.0948681" lon="13.2890299"><ele>116.0</ele><time>2026-04-17T17:00:00.173Z</time></trkpt><trkpt lat="46.0949461" lon="13.2890759"><ele>116.0</ele><time>2026-04-17T17:00:01.173Z</time></trkpt><trkpt lat="46.0950332" lon="13.2891061"><ele>116.66666666666666</ele><time>2026-04-17T17:00:02.172Z</time></trkpt><trkpt lat="46.0951303" lon="13.2891161"><ele>117.33333333333333</ele><time>2026-04-17T17:00:03.172Z</time></trkpt><trkpt lat="46.095228" lon="13.2891176"><ele>118.0</ele><time>2026-04-17T17:00:04.172Z</time></trkpt><trkpt lat="46.0953137" lon="13.2891305"><ele>118.66666666666666</ele><time>2026-04-17T17:00:05.172Z</time></trkpt><trkpt lat="46.0953832" lon="13.2891748"><ele>119.33333333333333</ele><time>2026-04-17T17:00:06.173Z</time></trkpt><trkpt lat="46.0954354" lon="13.2892308"><ele>120.0</ele><time>2026-04-17T17:00:07.173Z</time></trkpt><trkpt lat="46.0954862" lon="13.2893645"><ele>120.0</ele><time>2026-04-17T17:00:09.173Z</time></trkpt><trkpt lat="46.0954768" lon="13.2894557"><ele>120.0</ele><time>2026-04-17T17:00:11.173Z</time></trkpt><trkpt lat="46.0954678" lon="13.2896143"><ele>120.0</ele><time>2026-04-17T17:00:13.173Z</time></trkpt><trkpt lat="46.0954883" lon="13.2897208"><ele>120.0</ele><time>2026-04-17T17:00:14.173Z</time></trkpt><trkpt lat="46.0955244" lon="13.2898183"><ele>120.0</ele><time>2026-04-17T17:00:15.173Z</time></trkpt><trkpt lat="46.095577" lon="13.289876"><ele>120.0</ele><time>2026-04-17T17:00:16.172Z</time></trkpt><trkpt lat="46.0956459" lon="13.2899013"><ele>120.2</ele><time>2026-04-17T17:00:17.173Z</time></trkpt><trkpt lat="46.095718" lon="13.2898844"><ele>120.4</ele><time>2026-04-17T17:00:18.173Z</time></trkpt><trkpt lat="46.0957882" lon="13.2898229"><ele>120.6</ele><time>2026-04-17T17:00:19.172Z</time></trkpt><trkpt lat="46.0958569" lon="13.2897172"><ele>120.8</ele><time>2026-04-17T17:00:20.173Z</time></trkpt><trkpt lat="46.0959498" lon="13.2895873"><ele>121.0</ele><time>2026-04-17T17:00:21.173Z</time></trkpt><trkpt lat="46.0960762" lon="13.2894563"><ele>121.0</ele><time>2026-04-17T17:00:22.172Z</time></trkpt><trkpt lat="46.0962219" lon="13.2893568"><ele>121.0</ele><time>2026-04-17T17:00:23.173Z</time></trkpt><trkpt lat="46.096387" lon="13.2892617"><ele>121.0</ele><time>2026-04-17T17:00:24.173Z</time></trkpt><trkpt lat="46.096565" lon="13.2891619"><ele>121.0</ele><time>2026-04-17T17:00:25.173Z</time></trkpt><trkpt lat="46.0967678" lon="13.2890566"><ele>121.0</ele><time>2026-04-17T17:00:26.173Z</time></trkpt><trkpt lat="46.0969783" lon="13.2889394"><ele>121.0</ele><time>2026-04-17T17:00:27.173Z</time></trkpt><trkpt lat="46.0971766" lon="13.2888306"><ele>120.66666666666667</ele><time>2026-04-17T17:00:28.173Z</time></trkpt><trkpt lat="46.0973713" lon="13.2887263"><ele>120.33333333333334</ele><time>2026-04-17T17:00:29.173Z</time></trkpt><trkpt lat="46.0975515" lon="13.2886273"><ele>120.0</ele><time>2026-04-17T17:00:30.173Z</time></trkpt><trkpt lat="46.0977284" lon="13.2885263"><ele>120.0</ele><time>2026-04-17T17:00:31.172Z</time></trkpt><trkpt lat="46.0979032" lon="13.2884085"><ele>120.0</ele><time>2026-04-17T17:00:32.172Z</time></trkpt><trkpt lat="46.0980721" lon="13.2882712"><ele>120.0</ele><time>2026-04-17T17:00:33.173Z</time></trkpt><trkpt lat="46.0982357" lon="13.2881168"><ele>120.0</ele><time>2026-04-17T17:00:34.173Z</time></trkpt><trkpt lat="46.0983968" lon="13.2879543"><ele>120.0</ele><time>2026-04-17T17:00:35.172Z</time></trkpt><trkpt lat="46.0985548" lon="13.2877787"><ele>120.0</ele><time>2026-04-17T17:00:36.173Z</time></trkpt><trkpt lat="46.0987037" lon="13.287599"><ele>120.0</ele><time>2026-04-17T17:00:37.173Z</time></trkpt><trkpt lat="46.0988409" lon="13.2874083"><ele>120.0</ele><time>2026-04-17T17:00:38.173Z</time></trkpt><trkpt lat="46.0989636" lon="13.2872074"><ele>120.0</ele><time>2026-04-17T17:00:39.173Z</time></trkpt><trkpt lat="46.0990903" lon="13.2869964"><ele>119.66666666666666</ele><time>2026-04-17T17:00:40.173Z</time></trkpt><trkpt lat="46.099212" lon="13.2867654"><ele>119.33333333333333</ele><time>2026-04-17T17:00:41.172Z</time></trkpt><trkpt lat="46.0993377" lon="13.2865453"><ele>119.0</ele><time>2026-04-17T17:00:42.173Z</time></trkpt><trkpt lat="46.0994617" lon="13.2863221"><ele>119.0</ele><time>2026-04-17T17:00:43.172Z</time></trkpt><trkpt lat="46.0995806" lon="13.2861037"><ele>119.0</ele><time>2026-04-17T17:00:44.173Z</time></trkpt><trkpt lat="46.0997021" lon="13.2858836"><ele>119.0</ele><time>2026-04-17T17:00:45.172Z</time></trkpt><trkpt lat="46.099963" lon="13.2854463"><ele>119.33333333333333</ele><time>2026-04-17T17:00:47.173Z</time></trkpt><trkpt lat="46.1001113" lon="13.2852429"><ele>119.66666666666666</ele><time>2026-04-17T17:00:48.173Z</time></trkpt><trkpt lat="46.1002637" lon="13.285058"><ele>120.0</ele><time>2026-04-17T17:00:49.173Z</time></trkpt><trkpt lat="46.1004216" lon="13.28488"><ele>120.33333333333334</ele><time>2026-04-17T17:00:50.172Z</time></trkpt><trkpt lat="46.1005807" lon="13.2847057"><ele>120.66666666666667</ele><time>2026-04-17T17:00:51.172Z</time></trkpt><trkpt lat="46.1007445" lon="13.2845465"><ele>121.0</ele><time>2026-04-17T17:00:52.173Z</time></trkpt><trkpt lat="46.1009117" lon="13.2843956"><ele>121.0</ele><time>2026-04-17T17:00:53.172Z</time></trkpt><trkpt lat="46.1010864" lon="13.2842572"><ele>121.0</ele><time>2026-04-17T17:00:54.171Z</time></trkpt><trkpt lat="46.1012712" lon="13.2841212"><ele>121.0</ele><time>2026-04-17T17:00:55.171Z</time></trkpt><trkpt lat="46.1014542" lon="13.2840147"><ele>121.33333333333334</ele><time>2026-04-17T17:00:56.172Z</time></trkpt><trkpt lat="46.1016419" lon="13.2839082"><ele>121.66666666666666</ele><time>2026-04-17T17:00:57.172Z</time></trkpt><trkpt lat="46.1018378" lon="13.2838058"><ele>122.0</ele><time>2026-04-17T17:00:58.172Z</time></trkpt><trkpt lat="46.1020308" lon="13.2837245"><ele>122.0</ele><time>2026-04-17T17:00:59.172Z</time></trkpt><trkpt lat="46.1022201" lon="13.283667"><ele>122.0</ele><time>2026-04-17T17:01:00.172Z</time></trkpt><trkpt lat="46.1024102" lon="13.2836104"><ele>122.0</ele><time>2026-04-17T17:01:01.172Z</time></trkpt><trkpt lat="46.1026018" lon="13.2835629"><ele>122.33333333333333</ele><time>2026-04-17T17:01:02.171Z</time></trkpt><trkpt lat="46.1027981" lon="13.2835217"><ele>122.66666666666666</ele><time>2026-04-17T17:01:03.172Z</time></trkpt><trkpt lat="46.1029904" lon="13.2834815"><ele>123.0</ele><time>2026-04-17T17:01:04.171Z</time></trkpt><trkpt lat="46.1031835" lon="13.2834338"><ele>122.66666666666666</ele><time>2026-04-17T17:01:05.172Z</time></trkpt><trkpt lat="46.103374" lon="13.2833771"><ele>122.33333333333333</ele><time>2026-04-17T17:01:06.171Z</time></trkpt><trkpt lat="46.1035682" lon="13.2833303"><ele>122.0</ele><time>2026-04-17T17:01:07.172Z</time></trkpt><trkpt lat="46.103765" lon="13.2832835"><ele>122.0</ele><time>2026-04-17T17:01:08.171Z</time></trkpt><trkpt lat="46.1039634" lon="13.2832389"><ele>122.0</ele><time>2026-04-17T17:01:09.172Z</time></trkpt><trkpt lat="46.1041616" lon="13.283194"><ele>122.0</ele><time>2026-04-17T17:01:10.172Z</time></trkpt><trkpt lat="46.1043567" lon="13.2831497"><ele>122.0</ele><time>2026-04-17T17:01:11.172Z</time></trkpt><trkpt lat="46.1045566" lon="13.2830984"><ele>122.0</ele><time>2026-04-17T17:01:12.171Z</time></trkpt><trkpt lat="46.1047566" lon="13.283044"><ele>122.0</ele><time>2026-04-17T17:01:13.172Z</time></trkpt><trkpt lat="46.1049595" lon="13.2829933"><ele>122.0</ele><time>2026-04-17T17:01:14.171Z</time></trkpt><trkpt lat="46.1051599" lon="13.2829432"><ele>122.0</ele><time>2026-04-17T17:01:15.171Z</time></trkpt><trkpt lat="46.1053673" lon="13.2828888"><ele>122.0</ele><time>2026-04-17T17:01:16.171Z</time></trkpt><trkpt lat="46.1055652" lon="13.2828305"><ele>122.0</ele><time>2026-04-17T17:01:17.172Z</time></trkpt><trkpt lat="46.1057679" lon="13.2827819"><ele>122.0</ele><time>2026-04-17T17:01:18.171Z</time></trkpt><trkpt lat="46.105974" lon="13.2827265"><ele>122.0</ele><time>2026-04-17T17:01:19.171Z</time></trkpt><trkpt lat="46.1061765" lon="13.2826792"><ele>122.0</ele><time>2026-04-17T17:01:20.171Z</time></trkpt><trkpt lat="46.1063824" lon="13.2826241"><ele>122.0</ele><time>2026-04-17T17:01:21.172Z</time></trkpt><trkpt lat="46.1065815" lon="13.2825748"><ele>122.0</ele><time>2026-04-17T17:01:22.171Z</time></trkpt><trkpt lat="46.1067724" lon="13.2825335"><ele>122.33333333333333</ele><time>2026-04-17T17:01:23.172Z</time></trkpt><trkpt lat="46.1069579" lon="13.2824814"><ele>122.66666666666666</ele><time>2026-04-17T17:01:24.172Z</time></trkpt><trkpt lat="46.1071382" lon="13.2824234"><ele>123.0</ele><time>2026-04-17T17:01:25.172Z</time></trkpt><trkpt lat="46.1073337" lon="13.2823721"><ele>124.0</ele><time>2026-04-17T17:01:26.171Z</time></trkpt><trkpt lat="46.1075231" lon="13.2823247"><ele>125.0</ele><time>2026-04-17T17:01:27.171Z</time></trkpt><trkpt lat="46.1077073" lon="13.2822589"><ele>126.0</ele><time>2026-04-17T17:01:28.171Z</time></trkpt><trkpt lat="46.1078934" lon="13.2821888"><ele>126.33333333333334</ele><time>2026-04-17T17:01:29.172Z</time></trkpt><trkpt lat="46.1080856" lon="13.2821103"><ele>126.66666666666667</ele><time>2026-04-17T17:01:30.172Z</time></trkpt><trkpt lat="46.1082775" lon="13.2820197"><ele>127.0</ele><time>2026-04-17T17:01:31.171Z</time></trkpt><trkpt lat="46.1084645" lon="13.2819227"><ele>127.66666666666667</ele><time>2026-04-17T17:01:32.172Z</time></trkpt><trkpt lat="46.1086496" lon="13.2818295"><ele>128.33333333333334</ele><time>2026-04-17T17:01:33.172Z</time></trkpt><trkpt lat="46.1088292" lon="13.281724"><ele>129.0</ele><time>2026-04-17T17:01:34.172Z</time></trkpt><trkpt lat="46.1090089" lon="13.2816266"><ele>128.33333333333334</ele><time>2026-04-17T17:01:35.172Z</time></trkpt><trkpt lat="46.1091919" lon="13.2815185"><ele>127.66666666666667</ele><time>2026-04-17T17:01:36.172Z</time></trkpt><trkpt lat="46.1093711" lon="13.2814087"><ele>127.0</ele><time>2026-04-17T17:01:37.171Z</time></trkpt><trkpt lat="46.1095539" lon="13.2813036"><ele>127.0</ele><time>2026-04-17T17:01:38.172Z</time></trkpt><trkpt lat="46.109737" lon="13.2812078"><ele>127.0</ele><time>2026-04-17T17:01:39.172Z</time></trkpt><trkpt lat="46.1099217" lon="13.2811028"><ele>127.0</ele><time>2026-04-17T17:01:40.172Z</time></trkpt><trkpt lat="46.1101124" lon="13.2809977"><ele>127.0</ele><time>2026-04-17T17:01:41.172Z</time></trkpt><trkpt lat="46.1102999" lon="13.280901"><ele>127.0</ele><time>2026-04-17T17:01:42.172Z</time></trkpt><trkpt lat="46.1104864" lon="13.2808017"><ele>127.0</ele><time>2026-04-17T17:01:43.172Z</time></trkpt><trkpt lat="46.1106763" lon="13.2807112"><ele>127.33333333333334</ele><time>2026-04-17T17:01:44.171Z</time></trkpt><trkpt lat="46.1108526" lon="13.2806386"><ele>127.66666666666666</ele><time>2026-04-17T17:01:45.172Z</time></trkpt><trkpt lat="46.1110191" lon="13.2805718"><ele>128.0</ele><time>2026-04-17T17:01:46.172Z</time></trkpt><trkpt lat="46.1111724" lon="13.2805103"><ele>128.0</ele><time>2026-04-17T17:01:47.171Z</time></trkpt><trkpt lat="46.1113183" lon="13.2804479"><ele>128.0</ele><time>2026-04-17T17:01:48.171Z</time></trkpt><trkpt lat="46.1114482" lon="13.2804008"><ele>128.0</ele><time>2026-04-17T17:01:49.171Z</time></trkpt><trkpt lat="46.1115727" lon="13.2803462"><ele>128.0</ele><time>2026-04-17T17:01:50.172Z</time></trkpt><trkpt lat="46.1116909" lon="13.280294"><ele>128.25</ele><time>2026-04-17T17:01:51.171Z</time></trkpt><trkpt lat="46.1118073" lon="13.2802406"><ele>128.5</ele><time>2026-04-17T17:01:52.172Z</time></trkpt><trkpt lat="46.1119342" lon="13.2801894"><ele>128.75</ele><time>2026-04-17T17:01:53.172Z</time></trkpt><trkpt lat="46.1120657" lon="13.2801381"><ele>129.0</ele><time>2026-04-17T17:01:54.172Z</time></trkpt><trkpt lat="46.1121995" lon="13.2800905"><ele>129.0</ele><time>2026-04-17T17:01:55.172Z</time></trkpt><trkpt lat="46.1123364" lon="13.2800358"><ele>129.0</ele><time>2026-04-17T17:01:56.171Z</time></trkpt><trkpt lat="46.1124789" lon="13.2799751"><ele>129.0</ele><time>2026-04-17T17:01:57.171Z</time></trkpt><trkpt lat="46.1126154" lon="13.2798968"><ele>129.0</ele><time>2026-04-17T17:01:58.171Z</time></trkpt><trkpt lat="46.1127442" lon="13.2797975"><ele>129.25</ele><time>2026-04-17T17:01:59.171Z</time></trkpt><trkpt lat="46.1128461" lon="13.2796862"><ele>129.5</ele><time>2026-04-17T17:02:00.172Z</time></trkpt><trkpt lat="46.1129279" lon="13.2795697"><ele>129.75</ele><time>2026-04-17T17:02:01.172Z</time></trkpt><trkpt lat="46.1130102" lon="13.2794536"><ele>130.0</ele><time>2026-04-17T17:02:02.171Z</time></trkpt><trkpt lat="46.1130933" lon="13.2793632"><ele>130.0</ele><time>2026-04-17T17:02:03.171Z</time></trkpt><trkpt lat="46.1131828" lon="13.2793159"><ele>130.0</ele><time>2026-04-17T17:02:04.171Z</time></trkpt><trkpt lat="46.113264" lon="13.2793079"><ele>130.0</ele><time>2026-04-17T17:02:05.171Z</time></trkpt><trkpt lat="46.1133454" lon="13.2793244"><ele>130.0</ele><time>2026-04-17T17:02:06.172Z</time></trkpt><trkpt lat="46.1134253" lon="13.2793771"><ele>130.0</ele><time>2026-04-17T17:02:07.172Z</time></trkpt><trkpt lat="46.1135077" lon="13.2794667"><ele>129.75</ele><time>2026-04-17T17:02:08.172Z</time></trkpt><trkpt lat="46.1136065" lon="13.2795432"><ele>129.5</ele><time>2026-04-17T17:02:09.172Z</time></trkpt><trkpt lat="46.1137307" lon="13.2795594"><ele>129.25</ele><time>2026-04-17T17:02:10.172Z</time></trkpt><trkpt lat="46.1138697" lon="13.2795279"><ele>129.0</ele><time>2026-04-17T17:02:11.172Z</time></trkpt><trkpt lat="46.1140115" lon="13.2794878"><ele>129.4</ele><time>2026-04-17T17:02:12.171Z</time></trkpt><trkpt lat="46.1141453" lon="13.2794679"><ele>129.8</ele><time>2026-04-17T17:02:13.171Z</time></trkpt><trkpt lat="46.1142538" lon="13.279479"><ele>130.2</ele><time>2026-04-17T17:02:14.172Z</time></trkpt><trkpt lat="46.114336" lon="13.2795028"><ele>130.6</ele><time>2026-04-17T17:02:15.171Z</time></trkpt><trkpt lat="46.1144127" lon="13.2795262"><ele>131.0</ele><time>2026-04-17T17:02:16.172Z</time></trkpt><trkpt lat="46.1144837" lon="13.2795374"><ele>131.0</ele><time>2026-04-17T17:02:17.171Z</time></trkpt><trkpt lat="46.1145571" lon="13.2795103"><ele>131.0</ele><time>2026-04-17T17:02:18.172Z</time></trkpt><trkpt lat="46.1146231" lon="13.2794441"><ele>131.0</ele><time>2026-04-17T17:02:19.172Z</time></trkpt><trkpt lat="46.1146871" lon="13.2793203"><ele>131.0</ele><time>2026-04-17T17:02:20.172Z</time></trkpt><trkpt lat="46.1147752" lon="13.2791463"><ele>131.0</ele><time>2026-04-17T17:02:21.172Z</time></trkpt><trkpt lat="46.1148996" lon="13.2789658"><ele>131.0</ele><time>2026-04-17T17:02:22.171Z</time></trkpt><trkpt lat="46.1150476" lon="13.2787891"><ele>131.0</ele><time>2026-04-17T17:02:23.172Z</time></trkpt><trkpt lat="46.1151799" lon="13.2786178"><ele>131.0</ele><time>2026-04-17T17:02:24.172Z</time></trkpt><trkpt lat="46.1152912" lon="13.2784468"><ele>131.0</ele><time>2026-04-17T17:02:25.172Z</time></trkpt><trkpt lat="46.1153855" lon="13.2782512"><ele>131.0</ele><time>2026-04-17T17:02:26.172Z</time></trkpt><trkpt lat="46.1154559" lon="13.278037"><ele>131.0</ele><time>2026-04-17T17:02:27.172Z</time></trkpt><trkpt lat="46.1154933" lon="13.2778456"><ele>131.0</ele><time>2026-04-17T17:02:28.172Z</time></trkpt><trkpt lat="46.1155163" lon="13.2776809"><ele>131.0</ele><time>2026-04-17T17:02:29.172Z</time></trkpt><trkpt lat="46.115551" lon="13.2775218"><ele>131.0</ele><time>2026-04-17T17:02:30.172Z</time></trkpt><trkpt lat="46.1156061" lon="13.2773642"><ele>131.0</ele><time>2026-04-17T17:02:31.172Z</time></trkpt><trkpt lat="46.1156871" lon="13.277203"><ele>132.0</ele><time>2026-04-17T17:02:32.172Z</time></trkpt><trkpt lat="46.1157998" lon="13.2770467"><ele>133.0</ele><time>2026-04-17T17:02:33.172Z</time></trkpt><trkpt lat="46.1159342" lon="13.2768984"><ele>134.0</ele><time>2026-04-17T17:02:34.171Z</time></trkpt><trkpt lat="46.1160894" lon="13.2767534"><ele>134.0</ele><time>2026-04-17T17:02:35.171Z</time></trkpt><trkpt lat="46.1162394" lon="13.2766147"><ele>134.0</ele><time>2026-04-17T17:02:36.172Z</time></trkpt><trkpt lat="46.1163775" lon="13.2764844"><ele>134.0</ele><time>2026-04-17T17:02:37.171Z</time></trkpt><trkpt lat="46.1164966" lon="13.2763657"><ele>133.75</ele><time>2026-04-17T17:02:38.172Z</time></trkpt><trkpt lat="46.1166041" lon="13.2762555"><ele>133.5</ele><time>2026-04-17T17:02:39.171Z</time></trkpt><trkpt lat="46.1167021" lon="13.2761509"><ele>133.25</ele><time>2026-04-17T17:02:40.171Z</time></trkpt><trkpt lat="46.1167927" lon="13.2760613"><ele>133.0</ele><time>2026-04-17T17:02:41.172Z</time></trkpt><trkpt lat="46.1168752" lon="13.2759889"><ele>133.0</ele><time>2026-04-17T17:02:42.172Z</time></trkpt><trkpt lat="46.1169496" lon="13.2759179"><ele>133.0</ele><time>2026-04-17T17:02:43.172Z</time></trkpt><trkpt lat="46.1170175" lon="13.275853"><ele>133.0</ele><time>2026-04-17T17:02:44.172Z</time></trkpt><trkpt lat="46.1170789" lon="13.2757892"><ele>133.0</ele><time>2026-04-17T17:02:45.171Z</time></trkpt><trkpt lat="46.1171315" lon="13.2757261"><ele>133.0</ele><time>2026-04-17T17:02:46.172Z</time></trkpt><trkpt lat="46.1172248" lon="13.2756293"><ele>133.0</ele><time>2026-04-17T17:02:48.172Z</time></trkpt><trkpt lat="46.1173123" lon="13.2755399"><ele>132.83333333333334</ele><time>2026-04-17T17:02:50.171Z</time></trkpt><trkpt lat="46.117366" lon="13.2754828"><ele>132.66666666666669</ele><time>2026-04-17T17:02:52.172Z</time></trkpt><trkpt lat="46.117441" lon="13.2754361"><ele>132.5</ele><time>2026-04-17T17:02:54.171Z</time></trkpt><trkpt lat="46.1175472" lon="13.2753502"><ele>132.33333333333334</ele><time>2026-04-17T17:02:56.172Z</time></trkpt><trkpt lat="46.1176183" lon="13.2752916"><ele>132.16666666666666</ele><time>2026-04-17T17:02:57.172Z</time></trkpt><trkpt lat="46.1176911" lon="13.2752154"><ele>132.0</ele><time>2026-04-17T17:02:58.172Z</time></trkpt><trkpt lat="46.1177702" lon="13.2751369"><ele>132.0</ele><time>2026-04-17T17:02:59.172Z</time></trkpt><trkpt lat="46.1178466" lon="13.2750559"><ele>132.0</ele><time>2026-04-17T17:03:00.172Z</time></trkpt><trkpt lat="46.1179171" lon="13.2749763"><ele>132.0</ele><time>2026-04-17T17:03:01.172Z</time></trkpt><trkpt lat="46.1179876" lon="13.2749062"><ele>132.0</ele><time>2026-04-17T17:03:02.172Z</time></trkpt><trkpt lat="46.1180451" lon="13.2748556"><ele>132.0</ele><time>2026-04-17T17:03:03.171Z</time></trkpt><trkpt lat="46.118143" lon="13.2748207"><ele>132.0</ele><time>2026-04-17T17:03:05.172Z</time></trkpt><trkpt lat="46.1182023" lon="13.2747845"><ele>132.0</ele><time>2026-04-17T17:03:07.172Z</time></trkpt><trkpt lat="46.1182898" lon="13.2747537"><ele>132.0</ele><time>2026-04-17T17:03:09.172Z</time></trkpt><trkpt lat="46.1183559" lon="13.2747616"><ele>132.0</ele><time>2026-04-17T17:03:10.172Z</time></trkpt><trkpt lat="46.1184462" lon="13.2747709"><ele>132.0</ele><time>2026-04-17T17:03:11.172Z</time></trkpt><trkpt lat="46.1185742" lon="13.2747828"><ele>132.0</ele><time>2026-04-17T17:03:12.171Z</time></trkpt><trkpt lat="46.118719" lon="13.2747836"><ele>132.0</ele><time>2026-04-17T17:03:13.171Z</time></trkpt><trkpt lat="46.1188514" lon="13.2747514"><ele>132.0</ele><time>2026-04-17T17:03:14.172Z</time></trkpt><trkpt lat="46.1189789" lon="13.2746556"><ele>132.0</ele><time>2026-04-17T17:03:15.172Z</time></trkpt><trkpt lat="46.1191101" lon="13.274493"><ele>132.0</ele><time>2026-04-17T17:03:16.172Z</time></trkpt><trkpt lat="46.1192367" lon="13.2742765"><ele>132.0</ele><time>2026-04-17T17:03:17.171Z</time></trkpt><trkpt lat="46.1193806" lon="13.2740616"><ele>132.0</ele><time>2026-04-17T17:03:18.171Z</time></trkpt><trkpt lat="46.1195403" lon="13.273851"><ele>132.0</ele><time>2026-04-17T17:03:19.172Z</time></trkpt><trkpt lat="46.119712" lon="13.273663"><ele>132.0</ele><time>2026-04-17T17:03:20.171Z</time></trkpt><trkpt lat="46.1198929" lon="13.273491"><ele>132.0</ele><time>2026-04-17T17:03:21.172Z</time></trkpt><trkpt lat="46.120086" lon="13.2733522"><ele>133.0</ele><time>2026-04-17T17:03:22.172Z</time></trkpt><trkpt lat="46.1202982" lon="13.2732334"><ele>134.0</ele><time>2026-04-17T17:03:23.172Z</time></trkpt><trkpt lat="46.120532" lon="13.2731203"><ele>133.0</ele><time>2026-04-17T17:03:24.172Z</time></trkpt><trkpt lat="46.1207785" lon="13.2729947"><ele>132.0</ele><time>2026-04-17T17:03:25.172Z</time></trkpt><trkpt lat="46.1210369" lon="13.2728531"><ele>132.0</ele><time>2026-04-17T17:03:26.172Z</time></trkpt><trkpt lat="46.1212994" lon="13.2727012"><ele>132.0</ele><time>2026-04-17T17:03:27.172Z</time></trkpt><trkpt lat="46.1215651" lon="13.2725488"><ele>132.5</ele><time>2026-04-17T17:03:28.172Z</time></trkpt><trkpt lat="46.1218297" lon="13.2724047"><ele>133.0</ele><time>2026-04-17T17:03:29.172Z</time></trkpt><trkpt lat="46.1220996" lon="13.2722636"><ele>133.0</ele><time>2026-04-17T17:03:30.172Z</time></trkpt><trkpt lat="46.1223757" lon="13.2721162"><ele>133.0</ele><time>2026-04-17T17:03:31.172Z</time></trkpt><trkpt lat="46.1226509" lon="13.2719598"><ele>133.5</ele><time>2026-04-17T17:03:32.172Z</time></trkpt><trkpt lat="46.1229277" lon="13.271807"><ele>134.0</ele><time>2026-04-17T17:03:33.172Z</time></trkpt><trkpt lat="46.1232126" lon="13.2716559"><ele>134.0</ele><time>2026-04-17T17:03:34.172Z</time></trkpt><trkpt lat="46.1235011" lon="13.2714969"><ele>134.0</ele><time>2026-04-17T17:03:35.172Z</time></trkpt><trkpt lat="46.1237956" lon="13.2713326"><ele>135.5</ele><time>2026-04-17T17:03:36.171Z</time></trkpt><trkpt lat="46.1240935" lon="13.2711634"><ele>137.0</ele><time>2026-04-17T17:03:37.171Z</time></trkpt><trkpt lat="46.1243878" lon="13.2709975"><ele>137.0</ele><time>2026-04-17T17:03:38.172Z</time></trkpt><trkpt lat="46.1246805" lon="13.2708293"><ele>137.0</ele><time>2026-04-17T17:03:39.172Z</time></trkpt><trkpt lat="46.1249585" lon="13.2706659"><ele>137.5</ele><time>2026-04-17T17:03:40.172Z</time></trkpt><trkpt lat="46.125214" lon="13.2705254"><ele>138.0</ele><time>2026-04-17T17:03:41.172Z</time></trkpt><trkpt lat="46.1254531" lon="13.2703957"><ele>138.0</ele><time>2026-04-17T17:03:42.172Z</time></trkpt><trkpt lat="46.1256698" lon="13.2702804"><ele>138.0</ele><time>2026-04-17T17:03:43.172Z</time></trkpt><trkpt lat="46.1258698" lon="13.2701683"><ele>138.0</ele><time>2026-04-17T17:03:44.172Z</time></trkpt><trkpt lat="46.1260551" lon="13.2700577"><ele>137.66666666666666</ele><time>2026-04-17T17:03:45.171Z</time></trkpt><trkpt lat="46.1262285" lon="13.2699502"><ele>137.33333333333331</ele><time>2026-04-17T17:03:46.172Z</time></trkpt><trkpt lat="46.1263926" lon="13.2698517"><ele>137.0</ele><time>2026-04-17T17:03:47.172Z</time></trkpt><trkpt lat="46.1265449" lon="13.2697695"><ele>138.0</ele><time>2026-04-17T17:03:48.171Z</time></trkpt><trkpt lat="46.1266824" lon="13.2696957"><ele>139.0</ele><time>2026-04-17T17:03:49.172Z</time></trkpt><trkpt lat="46.126803" lon="13.2696278"><ele>140.0</ele><time>2026-04-17T17:03:50.172Z</time></trkpt><trkpt lat="46.1269185" lon="13.2695614"><ele>141.0</ele><time>2026-04-17T17:03:51.172Z</time></trkpt><trkpt lat="46.1270174" lon="13.2695017"><ele>141.0</ele><time>2026-04-17T17:03:52.172Z</time></trkpt><trkpt lat="46.1271109" lon="13.2694491"><ele>141.0</ele><time>2026-04-17T17:03:53.172Z</time></trkpt><trkpt lat="46.1271866" lon="13.2694096"><ele>141.0</ele><time>2026-04-17T17:03:54.172Z</time></trkpt><trkpt lat="46.1272557" lon="13.2693692"><ele>141.0</ele><time>2026-04-17T17:03:55.172Z</time></trkpt><trkpt lat="46.1273357" lon="13.2693251"><ele>141.0</ele><time>2026-04-17T17:03:56.172Z</time></trkpt><trkpt lat="46.1274283" lon="13.2692784"><ele>141.0</ele><time>2026-04-17T17:03:57.172Z</time></trkpt><trkpt lat="46.1275425" lon="13.2692172"><ele>140.33333333333334</ele><time>2026-04-17T17:03:58.171Z</time></trkpt><trkpt lat="46.1276843" lon="13.2691352"><ele>139.66666666666669</ele><time>2026-04-17T17:03:59.172Z</time></trkpt><trkpt lat="46.1278463" lon="13.2690411"><ele>139.0</ele><time>2026-04-17T17:04:00.172Z</time></trkpt><trkpt lat="46.1280361" lon="13.2689404"><ele>141.5</ele><time>2026-04-17T17:04:01.171Z</time></trkpt><trkpt lat="46.1282497" lon="13.2688306"><ele>144.0</ele><time>2026-04-17T17:04:02.171Z</time></trkpt><trkpt lat="46.1284752" lon="13.2687194"><ele>144.0</ele><time>2026-04-17T17:04:03.172Z</time></trkpt><trkpt lat="46.1287112" lon="13.2685978"><ele>144.0</ele><time>2026-04-17T17:04:04.171Z</time></trkpt><trkpt lat="46.1289554" lon="13.268468"><ele>143.0</ele><time>2026-04-17T17:04:05.171Z</time></trkpt><trkpt lat="46.1292001" lon="13.2683356"><ele>142.0</ele><time>2026-04-17T17:04:06.171Z</time></trkpt><trkpt lat="46.1294238" lon="13.2682157"><ele>142.0</ele><time>2026-04-17T17:04:07.172Z</time></trkpt><trkpt lat="46.1296303" lon="13.2681005"><ele>142.0</ele><time>2026-04-17T17:04:08.172Z</time></trkpt><trkpt lat="46.129833" lon="13.2679983"><ele>142.0</ele><time>2026-04-17T17:04:09.172Z</time></trkpt><trkpt lat="46.1300214" lon="13.2678918"><ele>142.66666666666669</ele><time>2026-04-17T17:04:10.171Z</time></trkpt><trkpt lat="46.1302089" lon="13.2677722"><ele>143.33333333333334</ele><time>2026-04-17T17:04:11.171Z</time></trkpt><trkpt lat="46.1303786" lon="13.2676572"><ele>144.0</ele><time>2026-04-17T17:04:12.171Z</time></trkpt><trkpt lat="46.1305259" lon="13.2675476"><ele>144.0</ele><time>2026-04-17T17:04:13.172Z</time></trkpt><trkpt lat="46.1306571" lon="13.2674263"><ele>144.0</ele><time>2026-04-17T17:04:14.172Z</time></trkpt><trkpt lat="46.130776" lon="13.267291"><ele>144.0</ele><time>2026-04-17T17:04:15.172Z</time></trkpt><trkpt lat="46.1308892" lon="13.2671398"><ele>143.75</ele><time>2026-04-17T17:04:16.172Z</time></trkpt><trkpt lat="46.1309916" lon="13.2669762"><ele>143.5</ele><time>2026-04-17T17:04:17.171Z</time></trkpt><trkpt lat="46.1310645" lon="13.2668039"><ele>143.25</ele><time>2026-04-17T17:04:18.172Z</time></trkpt><trkpt lat="46.1311197" lon="13.2666441"><ele>143.0</ele><time>2026-04-17T17:04:19.172Z</time></trkpt><trkpt lat="46.1311564" lon="13.2665184"><ele>142.8</ele><time>2026-04-17T17:04:20.171Z</time></trkpt><trkpt lat="46.1311904" lon="13.2664228"><ele>142.60000000000002</ele><time>2026-04-17T17:04:21.172Z</time></trkpt><trkpt lat="46.1312959" lon="13.2663076"><ele>142.39999999999998</ele><time>2026-04-17T17:04:23.172Z</time></trkpt><trkpt lat="46.1313785" lon="13.266272"><ele>142.2</ele><time>2026-04-17T17:04:24.172Z</time></trkpt><trkpt lat="46.1314736" lon="13.2662361"><ele>142.0</ele><time>2026-04-17T17:04:25.172Z</time></trkpt><trkpt lat="46.1315865" lon="13.2661806"><ele>141.66666666666669</ele><time>2026-04-17T17:04:26.172Z</time></trkpt><trkpt lat="46.1317257" lon="13.2660901"><ele>141.33333333333334</ele><time>2026-04-17T17:04:27.172Z</time></trkpt><trkpt lat="46.131895" lon="13.2659977"><ele>141.0</ele><time>2026-04-17T17:04:28.172Z</time></trkpt><trkpt lat="46.1320641" lon="13.2659242"><ele>141.0</ele><time>2026-04-17T17:04:29.172Z</time></trkpt><trkpt lat="46.1322222" lon="13.2658476"><ele>141.0</ele><time>2026-04-17T17:04:30.172Z</time></trkpt><trkpt lat="46.1323646" lon="13.2657533"><ele>141.0</ele><time>2026-04-17T17:04:31.172Z</time></trkpt><trkpt lat="46.1324984" lon="13.2656367"><ele>141.33333333333334</ele><time>2026-04-17T17:04:32.172Z</time></trkpt><trkpt lat="46.1326386" lon="13.265509"><ele>141.66666666666669</ele><time>2026-04-17T17:04:33.171Z</time></trkpt><trkpt lat="46.1327839" lon="13.2654046"><ele>142.0</ele><time>2026-04-17T17:04:34.171Z</time></trkpt><trkpt lat="46.1329396" lon="13.2652994"><ele>142.0</ele><time>2026-04-17T17:04:35.171Z</time></trkpt><trkpt lat="46.1331029" lon="13.265166"><ele>142.0</ele><time>2026-04-17T17:04:36.172Z</time></trkpt><trkpt lat="46.1332515" lon="13.2650444"><ele>142.0</ele><time>2026-04-17T17:04:37.171Z</time></trkpt><trkpt lat="46.1333824" lon="13.2649594"><ele>142.0</ele><time>2026-04-17T17:04:38.172Z</time></trkpt><trkpt lat="46.1335149" lon="13.2648932"><ele>142.0</ele><time>2026-04-17T17:04:39.172Z</time></trkpt><trkpt lat="46.1336655" lon="13.2648358"><ele>142.0</ele><time>2026-04-17T17:04:40.172Z</time></trkpt><trkpt lat="46.1338211" lon="13.2648023"><ele>142.25</ele><time>2026-04-17T17:04:41.172Z</time></trkpt><trkpt lat="46.1339555" lon="13.2647789"><ele>142.5</ele><time>2026-04-17T17:04:42.172Z</time></trkpt><trkpt lat="46.1340898" lon="13.2647856"><ele>142.75</ele><time>2026-04-17T17:04:43.171Z</time></trkpt><trkpt lat="46.1342311" lon="13.26481"><ele>143.0</ele><time>2026-04-17T17:04:44.172Z</time></trkpt><trkpt lat="46.1343618" lon="13.2648389"><ele>143.25</ele><time>2026-04-17T17:04:45.172Z</time></trkpt><trkpt lat="46.1344902" lon="13.2648408"><ele>143.5</ele><time>2026-04-17T17:04:46.171Z</time></trkpt><trkpt lat="46.1346218" lon="13.2648112"><ele>143.75</ele><time>2026-04-17T17:04:47.171Z</time></trkpt><trkpt lat="46.1347561" lon="13.2647607"><ele>144.0</ele><time>2026-04-17T17:04:48.172Z</time></trkpt><trkpt lat="46.1348806" lon="13.2647254"><ele>144.16666666666666</ele><time>2026-04-17T17:04:49.172Z</time></trkpt><trkpt lat="46.1349886" lon="13.2647114"><ele>144.33333333333334</ele><time>2026-04-17T17:04:50.171Z</time></trkpt><trkpt lat="46.1350788" lon="13.2647271"><ele>144.5</ele><time>2026-04-17T17:04:51.172Z</time></trkpt><trkpt lat="46.1351585" lon="13.2647562"><ele>144.66666666666669</ele><time>2026-04-17T17:04:52.172Z</time></trkpt><trkpt lat="46.1352197" lon="13.2647908"><ele>144.83333333333334</ele><time>2026-04-17T17:04:53.171Z</time></trkpt><trkpt lat="46.1352808" lon="13.2648229"><ele>145.0</ele><time>2026-04-17T17:04:56.172Z</time></trkpt><trkpt lat="46.135342" lon="13.2649047"><ele>145.0</ele><time>2026-04-17T17:05:02.172Z</time></trkpt><trkpt lat="46.1353609" lon="13.2650615"><ele>145.0</ele><time>2026-04-17T17:05:04.172Z</time></trkpt><trkpt lat="46.1354216" lon="13.2652103"><ele>145.0</ele><time>2026-04-17T17:05:06.172Z</time></trkpt><trkpt lat="46.1354547" lon="13.265292"><ele>145.0</ele><time>2026-04-17T17:05:07.172Z</time></trkpt><trkpt lat="46.1354891" lon="13.2653779"><ele>145.0</ele><time>2026-04-17T17:05:08.172Z</time></trkpt><trkpt lat="46.1355152" lon="13.265474"><ele>145.0</ele><time>2026-04-17T17:05:09.171Z</time></trkpt><trkpt lat="46.135548" lon="13.2655702"><ele>145.0</ele><time>2026-04-17T17:05:10.172Z</time></trkpt><trkpt lat="46.1355755" lon="13.2656698"><ele>145.0</ele><time>2026-04-17T17:05:11.172Z</time></trkpt><trkpt lat="46.1356081" lon="13.265771"><ele>145.0</ele><time>2026-04-17T17:05:12.172Z</time></trkpt><trkpt lat="46.1356554" lon="13.2658578"><ele>145.0</ele><time>2026-04-17T17:05:13.171Z</time></trkpt><trkpt lat="46.1357001" lon="13.2659351"><ele>145.0</ele><time>2026-04-17T17:05:14.172Z</time></trkpt><trkpt lat="46.1357497" lon="13.2660066"><ele>145.0</ele><time>2026-04-17T17:05:15.172Z</time></trkpt><trkpt lat="46.1358018" lon="13.26608"><ele>145.0</ele><time>2026-04-17T17:05:16.172Z</time></trkpt><trkpt lat="46.1358537" lon="13.2661536"><ele>145.0</ele><time>2026-04-17T17:05:17.171Z</time></trkpt><trkpt lat="46.1359025" lon="13.2662292"><ele>145.0</ele><time>2026-04-17T17:05:18.172Z</time></trkpt><trkpt lat="46.1359884" lon="13.2662944"><ele>145.0</ele><time>2026-04-17T17:05:20.172Z</time></trkpt><trkpt lat="46.136104" lon="13.2662658"><ele>145.0</ele><time>2026-04-17T17:05:22.172Z</time></trkpt><trkpt lat="46.1361674" lon="13.266212"><ele>145.0</ele><time>2026-04-17T17:05:23.172Z</time></trkpt><trkpt lat="46.1362456" lon="13.2661385"><ele>145.0</ele><time>2026-04-17T17:05:24.172Z</time></trkpt><trkpt lat="46.1363535" lon="13.2660341"><ele>145.0</ele><time>2026-04-17T17:05:25.172Z</time></trkpt><trkpt lat="46.1364895" lon="13.2659146"><ele>145.0</ele><time>2026-04-17T17:05:26.172Z</time></trkpt><trkpt lat="46.1366455" lon="13.2657805"><ele>145.0</ele><time>2026-04-17T17:05:27.171Z</time></trkpt><trkpt lat="46.1368108" lon="13.2656374"><ele>145.0</ele><time>2026-04-17T17:05:28.172Z</time></trkpt><trkpt lat="46.1369635" lon="13.2654992"><ele>145.0</ele><time>2026-04-17T17:05:29.171Z</time></trkpt><trkpt lat="46.1371022" lon="13.2653753"><ele>145.0</ele><time>2026-04-17T17:05:30.172Z</time></trkpt><trkpt lat="46.1372283" lon="13.2652659"><ele>145.0</ele><time>2026-04-17T17:05:31.172Z</time></trkpt><trkpt lat="46.1373478" lon="13.2651616"><ele>145.0</ele><time>2026-04-17T17:05:32.172Z</time></trkpt><trkpt lat="46.1374571" lon="13.2650748"><ele>145.0</ele><time>2026-04-17T17:05:33.172Z</time></trkpt><trkpt lat="46.1375609" lon="13.2649823"><ele>145.0</ele><time>2026-04-17T17:05:34.172Z</time></trkpt><trkpt lat="46.1376651" lon="13.2648897"><ele>145.0</ele><time>2026-04-17T17:05:35.172Z</time></trkpt><trkpt lat="46.1377686" lon="13.264804"><ele>145.0</ele><time>2026-04-17T17:05:36.171Z</time></trkpt><trkpt lat="46.1378718" lon="13.2647272"><ele>145.0</ele><time>2026-04-17T17:05:37.172Z</time></trkpt><trkpt lat="46.137981" lon="13.2646556"><ele>145.0</ele><time>2026-04-17T17:05:38.172Z</time></trkpt><trkpt lat="46.1380971" lon="13.2645878"><ele>145.0</ele><time>2026-04-17T17:05:39.172Z</time></trkpt><trkpt lat="46.1382124" lon="13.2645215"><ele>145.0</ele><time>2026-04-17T17:05:40.172Z</time></trkpt><trkpt lat="46.1383191" lon="13.2644731"><ele>145.0</ele><time>2026-04-17T17:05:41.171Z</time></trkpt><trkpt lat="46.1384344" lon="13.2644262"><ele>145.75</ele><time>2026-04-17T17:05:42.172Z</time></trkpt><trkpt lat="46.1385522" lon="13.264395"><ele>146.5</ele><time>2026-04-17T17:05:43.172Z</time></trkpt><trkpt lat="46.138671" lon="13.2643721"><ele>147.25</ele><time>2026-04-17T17:05:44.171Z</time></trkpt><trkpt lat="46.1387864" lon="13.264355"><ele>148.0</ele><time>2026-04-17T17:05:45.172Z</time></trkpt><trkpt lat="46.1388956" lon="13.2643407"><ele>148.0</ele><time>2026-04-17T17:05:46.172Z</time></trkpt><trkpt lat="46.1390007" lon="13.264324"><ele>148.0</ele><time>2026-04-17T17:05:47.172Z</time></trkpt><trkpt lat="46.139101" lon="13.2643135"><ele>148.0</ele><time>2026-04-17T17:05:48.172Z</time></trkpt><trkpt lat="46.1392006" lon="13.2642993"><ele>148.0</ele><time>2026-04-17T17:05:49.172Z</time></trkpt><trkpt lat="46.1392918" lon="13.2642964"><ele>148.0</ele><time>2026-04-17T17:05:50.171Z</time></trkpt><trkpt lat="46.139375" lon="13.2642973"><ele>148.16666666666669</ele><time>2026-04-17T17:05:51.172Z</time></trkpt><trkpt lat="46.1394527" lon="13.2642978"><ele>148.33333333333334</ele><time>2026-04-17T17:05:52.171Z</time></trkpt><trkpt lat="46.1395314" lon="13.2642982"><ele>148.5</ele><time>2026-04-17T17:05:53.172Z</time></trkpt><trkpt lat="46.1396047" lon="13.2642916"><ele>148.66666666666666</ele><time>2026-04-17T17:05:54.171Z</time></trkpt><trkpt lat="46.1396745" lon="13.2642808"><ele>148.83333333333331</ele><time>2026-04-17T17:05:55.172Z</time></trkpt><trkpt lat="46.1397385" lon="13.2642774"><ele>149.0</ele><time>2026-04-17T17:05:56.172Z</time></trkpt><trkpt lat="46.1398439" lon="13.2642669"><ele>148.83333333333331</ele><time>2026-04-17T17:05:58.172Z</time></trkpt><trkpt lat="46.1399319" lon="13.264253"><ele>148.66666666666666</ele><time>2026-04-17T17:06:00.172Z</time></trkpt><trkpt lat="46.1400195" lon="13.2642505"><ele>148.5</ele><time>2026-04-17T17:06:02.171Z</time></trkpt><trkpt lat="46.1401026" lon="13.2642496"><ele>148.33333333333334</ele><time>2026-04-17T17:06:04.171Z</time></trkpt><trkpt lat="46.1401979" lon="13.2642383"><ele>148.16666666666669</ele><time>2026-04-17T17:06:07.172Z</time></trkpt><trkpt lat="46.1402883" lon="13.264235"><ele>148.0</ele><time>2026-04-17T17:06:09.172Z</time></trkpt><trkpt lat="46.140377" lon="13.2642168"><ele>148.0</ele><time>2026-04-17T17:06:11.172Z</time></trkpt><trkpt lat="46.1404399" lon="13.2642121"><ele>148.0</ele><time>2026-04-17T17:06:12.172Z</time></trkpt><trkpt lat="46.1405169" lon="13.2642128"><ele>148.0</ele><time>2026-04-17T17:06:13.172Z</time></trkpt><trkpt lat="46.1406053" lon="13.2642143"><ele>148.0</ele><time>2026-04-17T17:06:14.172Z</time></trkpt><trkpt lat="46.1406996" lon="13.264216"><ele>148.0</ele><time>2026-04-17T17:06:15.171Z</time></trkpt><trkpt lat="46.1408082" lon="13.2642317"><ele>148.0</ele><time>2026-04-17T17:06:16.172Z</time></trkpt><trkpt lat="46.1409395" lon="13.2642697"><ele>148.66666666666669</ele><time>2026-04-17T17:06:17.172Z</time></trkpt><trkpt lat="46.1410897" lon="13.264316"><ele>149.33333333333334</ele><time>2026-04-17T17:06:18.172Z</time></trkpt><trkpt lat="46.141263" lon="13.2643561"><ele>150.0</ele><time>2026-04-17T17:06:19.171Z</time></trkpt><trkpt lat="46.1414612" lon="13.2644011"><ele>149.66666666666666</ele><time>2026-04-17T17:06:20.172Z</time></trkpt><trkpt lat="46.1416739" lon="13.2644596"><ele>149.33333333333331</ele><time>2026-04-17T17:06:21.172Z</time></trkpt><trkpt lat="46.1419004" lon="13.2645151"><ele>149.0</ele><time>2026-04-17T17:06:22.171Z</time></trkpt><trkpt lat="46.1421181" lon="13.2645728"><ele>149.0</ele><time>2026-04-17T17:06:23.171Z</time></trkpt><trkpt lat="46.1423312" lon="13.2646202"><ele>149.0</ele><time>2026-04-17T17:06:24.172Z</time></trkpt><trkpt lat="46.1425385" lon="13.264664"><ele>149.0</ele><time>2026-04-17T17:06:25.172Z</time></trkpt><trkpt lat="46.1427273" lon="13.2647069"><ele>149.25</ele><time>2026-04-17T17:06:26.172Z</time></trkpt><trkpt lat="46.1428952" lon="13.2647419"><ele>149.5</ele><time>2026-04-17T17:06:27.172Z</time></trkpt><trkpt lat="46.1430398" lon="13.264777"><ele>149.75</ele><time>2026-04-17T17:06:28.171Z</time></trkpt><trkpt lat="46.1431702" lon="13.2648084"><ele>150.0</ele><time>2026-04-17T17:06:29.171Z</time></trkpt><trkpt lat="46.1432787" lon="13.2648398"><ele>150.0</ele><time>2026-04-17T17:06:30.172Z</time></trkpt><trkpt lat="46.1433736" lon="13.264862"><ele>150.0</ele><time>2026-04-17T17:06:31.171Z</time></trkpt><trkpt lat="46.1434508" lon="13.2648737"><ele>150.0</ele><time>2026-04-17T17:06:32.171Z</time></trkpt><trkpt lat="46.1435575" lon="13.264841"><ele>150.0</ele><time>2026-04-17T17:06:34.172Z</time></trkpt><trkpt lat="46.1436047" lon="13.2647321"><ele>150.0</ele><time>2026-04-17T17:06:36.172Z</time></trkpt><trkpt lat="46.1436076" lon="13.2646344"><ele>150.0</ele><time>2026-04-17T17:06:37.172Z</time></trkpt><trkpt lat="46.1436213" lon="13.2645323"><ele>150.16666666666666</ele><time>2026-04-17T17:06:38.171Z</time></trkpt><trkpt lat="46.1436502" lon="13.2644409"><ele>150.33333333333334</ele><time>2026-04-17T17:06:39.171Z</time></trkpt><trkpt lat="46.1436975" lon="13.2643779"><ele>150.5</ele><time>2026-04-17T17:06:40.171Z</time></trkpt><trkpt lat="46.1437587" lon="13.2643426"><ele>150.66666666666669</ele><time>2026-04-17T17:06:41.17Z</time></trkpt><trkpt lat="46.143847" lon="13.2643268"><ele>150.83333333333334</ele><time>2026-04-17T17:06:42.171Z</time></trkpt><trkpt lat="46.1439621" lon="13.2643129"><ele>151.0</ele><time>2026-04-17T17:06:43.171Z</time></trkpt><trkpt lat="46.1441008" lon="13.2642779"><ele>151.0</ele><time>2026-04-17T17:06:44.17Z</time></trkpt><trkpt lat="46.1442496" lon="13.2642084"><ele>151.0</ele><time>2026-04-17T17:06:45.171Z</time></trkpt><trkpt lat="46.1444114" lon="13.2641319"><ele>151.0</ele><time>2026-04-17T17:06:46.17Z</time></trkpt><trkpt lat="46.1445737" lon="13.2640619"><ele>151.0</ele><time>2026-04-17T17:06:47.17Z</time></trkpt><trkpt lat="46.1447122" lon="13.2640081"><ele>151.0</ele><time>2026-04-17T17:06:48.171Z</time></trkpt><trkpt lat="46.144839" lon="13.2639818"><ele>151.0</ele><time>2026-04-17T17:06:49.17Z</time></trkpt><trkpt lat="46.1449632" lon="13.2640032"><ele>151.0</ele><time>2026-04-17T17:06:50.171Z</time></trkpt><trkpt lat="46.1451001" lon="13.2640599"><ele>152.0</ele><time>2026-04-17T17:06:51.171Z</time></trkpt><trkpt lat="46.1452689" lon="13.2641323"><ele>153.0</ele><time>2026-04-17T17:06:52.171Z</time></trkpt><trkpt lat="46.1454541" lon="13.2641744"><ele>154.0</ele><time>2026-04-17T17:06:53.171Z</time></trkpt><trkpt lat="46.1456377" lon="13.2642005"><ele>154.66666666666669</ele><time>2026-04-17T17:06:54.171Z</time></trkpt><trkpt lat="46.1457974" lon="13.2642379"><ele>155.33333333333334</ele><time>2026-04-17T17:06:55.171Z</time></trkpt><trkpt lat="46.1459437" lon="13.2642796"><ele>156.0</ele><time>2026-04-17T17:06:56.171Z</time></trkpt><trkpt lat="46.1460834" lon="13.2642996"><ele>156.0</ele><time>2026-04-17T17:06:57.17Z</time></trkpt><trkpt lat="46.1462228" lon="13.2642946"><ele>156.0</ele><time>2026-04-17T17:06:58.171Z</time></trkpt><trkpt lat="46.1463541" lon="13.264267"><ele>156.0</ele><time>2026-04-17T17:06:59.171Z</time></trkpt><trkpt lat="46.1464577" lon="13.2642414"><ele>156.0</ele><time>2026-04-17T17:07:00.17Z</time></trkpt><trkpt lat="46.146539" lon="13.2642308"><ele>155.4</ele><time>2026-04-17T17:07:01.17Z</time></trkpt><trkpt lat="46.1466075" lon="13.2642397"><ele>154.8</ele><time>2026-04-17T17:07:02.171Z</time></trkpt><trkpt lat="46.1467039" lon="13.2643114"><ele>154.20000000000002</ele><time>2026-04-17T17:07:04.17Z</time></trkpt><trkpt lat="46.1467423" lon="13.2644773"><ele>153.6</ele><time>2026-04-17T17:07:06.171Z</time></trkpt><trkpt lat="46.1467443" lon="13.2646067"><ele>153.0</ele><time>2026-04-17T17:07:07.171Z</time></trkpt><trkpt lat="46.1467445" lon="13.2647406"><ele>153.25</ele><time>2026-04-17T17:07:08.171Z</time></trkpt><trkpt lat="46.1467682" lon="13.2648643"><ele>153.5</ele><time>2026-04-17T17:07:09.171Z</time></trkpt><trkpt lat="46.1468147" lon="13.2650077"><ele>153.75</ele><time>2026-04-17T17:07:10.171Z</time></trkpt><trkpt lat="46.1468816" lon="13.265171"><ele>154.0</ele><time>2026-04-17T17:07:11.171Z</time></trkpt><trkpt lat="46.1469693" lon="13.2653507"><ele>154.0</ele><time>2026-04-17T17:07:12.17Z</time></trkpt><trkpt lat="46.1470662" lon="13.265524"><ele>154.0</ele><time>2026-04-17T17:07:13.171Z</time></trkpt><trkpt lat="46.1471515" lon="13.2656763"><ele>154.0</ele><time>2026-04-17T17:07:14.171Z</time></trkpt><trkpt lat="46.1472229" lon="13.2658159"><ele>154.0</ele><time>2026-04-17T17:07:15.17Z</time></trkpt><trkpt lat="46.1472889" lon="13.2659847"><ele>154.0</ele><time>2026-04-17T17:07:16.171Z</time></trkpt><trkpt lat="46.1473362" lon="13.2661633"><ele>154.0</ele><time>2026-04-17T17:07:17.171Z</time></trkpt><trkpt lat="46.1473622" lon="13.2663314"><ele>154.0</ele><time>2026-04-17T17:07:18.171Z</time></trkpt><trkpt lat="46.1473819" lon="13.2664976"><ele>154.0</ele><time>2026-04-17T17:07:19.17Z</time></trkpt><trkpt lat="46.1474107" lon="13.2666459"><ele>154.0</ele><time>2026-04-17T17:07:20.171Z</time></trkpt><trkpt lat="46.1474279" lon="13.2667733"><ele>154.0</ele><time>2026-04-17T17:07:21.171Z</time></trkpt><trkpt lat="46.147427" lon="13.266874"><ele>154.0</ele><time>2026-04-17T17:07:22.171Z</time></trkpt><trkpt lat="46.1474606" lon="13.2669694"><ele>154.0</ele><time>2026-04-17T17:07:24.171Z</time></trkpt><trkpt lat="46.1475588" lon="13.2669616"><ele>154.0</ele><time>2026-04-17T17:07:26.17Z</time></trkpt><trkpt lat="46.1476536" lon="13.2669319"><ele>154.0</ele><time>2026-04-17T17:07:27.171Z</time></trkpt><trkpt lat="46.1477688" lon="13.266894"><ele>154.0</ele><time>2026-04-17T17:07:28.171Z</time></trkpt><trkpt lat="46.1478751" lon="13.2668625"><ele>154.0</ele><time>2026-04-17T17:07:29.17Z</time></trkpt><trkpt lat="46.1479688" lon="13.2668635"><ele>154.0</ele><time>2026-04-17T17:07:30.171Z</time></trkpt><trkpt lat="46.1480595" lon="13.2668858"><ele>154.0</ele><time>2026-04-17T17:07:31.171Z</time></trkpt><trkpt lat="46.1481508" lon="13.2668938"><ele>154.0</ele><time>2026-04-17T17:07:32.171Z</time></trkpt><trkpt lat="46.148252" lon="13.2668914"><ele>154.2</ele><time>2026-04-17T17:07:33.171Z</time></trkpt><trkpt lat="46.1483515" lon="13.2668842"><ele>154.4</ele><time>2026-04-17T17:07:34.171Z</time></trkpt><trkpt lat="46.1484483" lon="13.2668757"><ele>154.6</ele><time>2026-04-17T17:07:35.171Z</time></trkpt><trkpt lat="46.1485388" lon="13.2668676"><ele>154.8</ele><time>2026-04-17T17:07:36.171Z</time></trkpt><trkpt lat="46.1486309" lon="13.2668584"><ele>155.0</ele><time>2026-04-17T17:07:37.17Z</time></trkpt><trkpt lat="46.1487161" lon="13.26685"><ele>155.0</ele><time>2026-04-17T17:07:38.17Z</time></trkpt><trkpt lat="46.1487849" lon="13.2668482"><ele>155.0</ele><time>2026-04-17T17:07:39.171Z</time></trkpt><trkpt lat="46.1488532" lon="13.266855"><ele>155.0</ele><time>2026-04-17T17:07:40.171Z</time></trkpt><trkpt lat="46.148919" lon="13.2668564"><ele>155.0</ele><time>2026-04-17T17:07:41.171Z</time></trkpt><trkpt lat="46.148982" lon="13.2668575"><ele>155.0</ele><time>2026-04-17T17:07:42.17Z</time></trkpt><trkpt lat="46.1491061" lon="13.2668543"><ele>155.0</ele><time>2026-04-17T17:07:44.171Z</time></trkpt><trkpt lat="46.1492345" lon="13.2668573"><ele>155.2</ele><time>2026-04-17T17:07:46.171Z</time></trkpt><trkpt lat="46.1493121" lon="13.2668613"><ele>155.4</ele><time>2026-04-17T17:07:47.171Z</time></trkpt><trkpt lat="46.149404" lon="13.2668695"><ele>155.6</ele><time>2026-04-17T17:07:48.171Z</time></trkpt><trkpt lat="46.1495049" lon="13.2668724"><ele>155.8</ele><time>2026-04-17T17:07:49.171Z</time></trkpt><trkpt lat="46.1496064" lon="13.266868"><ele>156.0</ele><time>2026-04-17T17:07:50.171Z</time></trkpt><trkpt lat="46.1497205" lon="13.2668344"><ele>156.0</ele><time>2026-04-17T17:07:51.171Z</time></trkpt><trkpt lat="46.1498366" lon="13.2667517"><ele>156.0</ele><time>2026-04-17T17:07:52.171Z</time></trkpt><trkpt lat="46.1499553" lon="13.2666216"><ele>156.0</ele><time>2026-04-17T17:07:53.17Z</time></trkpt><trkpt lat="46.1500737" lon="13.2664575"><ele>156.0</ele><time>2026-04-17T17:07:54.171Z</time></trkpt><trkpt lat="46.1502082" lon="13.2662788"><ele>156.0</ele><time>2026-04-17T17:07:55.171Z</time></trkpt><trkpt lat="46.1503605" lon="13.2661047"><ele>156.0</ele><time>2026-04-17T17:07:56.171Z</time></trkpt><trkpt lat="46.1504968" lon="13.2659304"><ele>156.0</ele><time>2026-04-17T17:07:57.171Z</time></trkpt><trkpt lat="46.1506054" lon="13.2657611"><ele>156.0</ele><time>2026-04-17T17:07:58.171Z</time></trkpt><trkpt lat="46.1507078" lon="13.265627"><ele>156.0</ele><time>2026-04-17T17:07:59.171Z</time></trkpt><trkpt lat="46.1508161" lon="13.265533"><ele>156.0</ele><time>2026-04-17T17:08:00.171Z</time></trkpt><trkpt lat="46.1509361" lon="13.2654734"><ele>156.0</ele><time>2026-04-17T17:08:01.17Z</time></trkpt><trkpt lat="46.1510567" lon="13.2654553"><ele>156.0</ele><time>2026-04-17T17:08:02.171Z</time></trkpt><trkpt lat="46.1511779" lon="13.265447"><ele>156.0</ele><time>2026-04-17T17:08:03.171Z</time></trkpt><trkpt lat="46.1513057" lon="13.2654424"><ele>156.0</ele><time>2026-04-17T17:08:04.17Z</time></trkpt><trkpt lat="46.1514413" lon="13.2654294"><ele>156.0</ele><time>2026-04-17T17:08:05.171Z</time></trkpt><trkpt lat="46.1515838" lon="13.2653981"><ele>156.33333333333334</ele><time>2026-04-17T17:08:06.17Z</time></trkpt><trkpt lat="46.1517369" lon="13.2653608"><ele>156.66666666666669</ele><time>2026-04-17T17:08:07.17Z</time></trkpt><trkpt lat="46.1518978" lon="13.2653357"><ele>157.0</ele><time>2026-04-17T17:08:08.171Z</time></trkpt><trkpt lat="46.1520671" lon="13.2653199"><ele>157.0</ele><time>2026-04-17T17:08:09.171Z</time></trkpt><trkpt lat="46.152247" lon="13.2652983"><ele>157.0</ele><time>2026-04-17T17:08:10.17Z</time></trkpt><trkpt lat="46.152424" lon="13.2652758"><ele>157.0</ele><time>2026-04-17T17:08:11.171Z</time></trkpt><trkpt lat="46.1525829" lon="13.2652529"><ele>157.0</ele><time>2026-04-17T17:08:12.171Z</time></trkpt><trkpt lat="46.1527276" lon="13.2652342"><ele>157.0</ele><time>2026-04-17T17:08:13.171Z</time></trkpt><trkpt lat="46.1528563" lon="13.2652313"><ele>157.0</ele><time>2026-04-17T17:08:14.171Z</time></trkpt><trkpt lat="46.1529867" lon="13.2652249"><ele>157.0</ele><time>2026-04-17T17:08:15.171Z</time></trkpt><trkpt lat="46.1531136" lon="13.2652089"><ele>156.5</ele><time>2026-04-17T17:08:16.171Z</time></trkpt><trkpt lat="46.1532419" lon="13.2651852"><ele>156.0</ele><time>2026-04-17T17:08:17.171Z</time></trkpt><trkpt lat="46.1533686" lon="13.2651495"><ele>155.5</ele><time>2026-04-17T17:08:18.171Z</time></trkpt><trkpt lat="46.1534952" lon="13.2650893"><ele>155.0</ele><time>2026-04-17T17:08:19.17Z</time></trkpt><trkpt lat="46.1536321" lon="13.2650154"><ele>155.0</ele><time>2026-04-17T17:08:20.17Z</time></trkpt><trkpt lat="46.1537695" lon="13.2649413"><ele>155.0</ele><time>2026-04-17T17:08:21.17Z</time></trkpt><trkpt lat="46.1539036" lon="13.2648666"><ele>155.0</ele><time>2026-04-17T17:08:22.17Z</time></trkpt><trkpt lat="46.1540404" lon="13.2648012"><ele>155.0</ele><time>2026-04-17T17:08:23.171Z</time></trkpt><trkpt lat="46.1541482" lon="13.2647448"><ele>155.83333333333331</ele><time>2026-04-17T17:08:24.171Z</time></trkpt><trkpt lat="46.1542379" lon="13.264701"><ele>156.66666666666666</ele><time>2026-04-17T17:08:25.171Z</time></trkpt><trkpt lat="46.1543054" lon="13.2646778"><ele>157.5</ele><time>2026-04-17T17:08:26.171Z</time></trkpt><trkpt lat="46.154378" lon="13.2646636"><ele>158.33333333333334</ele><time>2026-04-17T17:08:28.171Z</time></trkpt><trkpt lat="46.1544472" lon="13.2646401"><ele>159.16666666666669</ele><time>2026-04-17T17:08:31.171Z</time></trkpt><trkpt lat="46.1545092" lon="13.2646164"><ele>160.0</ele><time>2026-04-17T17:08:33.171Z</time></trkpt><trkpt lat="46.1546093" lon="13.2645712"><ele>160.0</ele><time>2026-04-17T17:08:35.171Z</time></trkpt><trkpt lat="46.1546753" lon="13.2645264"><ele>160.0</ele><time>2026-04-17T17:08:36.171Z</time></trkpt><trkpt lat="46.1547643" lon="13.2644754"><ele>160.0</ele><time>2026-04-17T17:08:37.17Z</time></trkpt><trkpt lat="46.1548766" lon="13.2644348"><ele>160.0</ele><time>2026-04-17T17:08:38.171Z</time></trkpt><trkpt lat="46.1550134" lon="13.2643922"><ele>160.0</ele><time>2026-04-17T17:08:39.17Z</time></trkpt><trkpt lat="46.1551505" lon="13.2643298"><ele>159.75</ele><time>2026-04-17T17:08:40.171Z</time></trkpt><trkpt lat="46.155289" lon="13.2642606"><ele>159.5</ele><time>2026-04-17T17:08:41.171Z</time></trkpt><trkpt lat="46.155432" lon="13.2642052"><ele>159.25</ele><time>2026-04-17T17:08:42.17Z</time></trkpt><trkpt lat="46.1555809" lon="13.2641532"><ele>159.0</ele><time>2026-04-17T17:08:43.17Z</time></trkpt><trkpt lat="46.1557339" lon="13.2640966"><ele>159.0</ele><time>2026-04-17T17:08:44.171Z</time></trkpt><trkpt lat="46.1558773" lon="13.2640379"><ele>159.0</ele><time>2026-04-17T17:08:45.171Z</time></trkpt><trkpt lat="46.1560237" lon="13.2639815"><ele>159.0</ele><time>2026-04-17T17:08:46.171Z</time></trkpt><trkpt lat="46.1561663" lon="13.2639121"><ele>159.0</ele><time>2026-04-17T17:08:47.171Z</time></trkpt><trkpt lat="46.1562977" lon="13.2638316"><ele>159.0</ele><time>2026-04-17T17:08:48.171Z</time></trkpt><trkpt lat="46.1564271" lon="13.2637559"><ele>159.0</ele><time>2026-04-17T17:08:49.171Z</time></trkpt><trkpt lat="46.1565578" lon="13.2636963"><ele>159.0</ele><time>2026-04-17T17:08:50.171Z</time></trkpt><trkpt lat="46.1566948" lon="13.263665"><ele>158.75</ele><time>2026-04-17T17:08:51.171Z</time></trkpt><trkpt lat="46.1568308" lon="13.2636543"><ele>158.5</ele><time>2026-04-17T17:08:52.171Z</time></trkpt><trkpt lat="46.1569614" lon="13.2636597"><ele>158.25</ele><time>2026-04-17T17:08:53.17Z</time></trkpt><trkpt lat="46.1570843" lon="13.2636523"><ele>158.0</ele><time>2026-04-17T17:08:54.171Z</time></trkpt><trkpt lat="46.1571972" lon="13.2636522"><ele>158.0</ele><time>2026-04-17T17:08:55.17Z</time></trkpt><trkpt lat="46.1572983" lon="13.2636797"><ele>158.0</ele><time>2026-04-17T17:08:56.17Z</time></trkpt><trkpt lat="46.1573931" lon="13.2637294"><ele>158.0</ele><time>2026-04-17T17:08:57.171Z</time></trkpt><trkpt lat="46.157493" lon="13.2637788"><ele>158.0</ele><time>2026-04-17T17:08:58.171Z</time></trkpt><trkpt lat="46.1576011" lon="13.2638209"><ele>158.0</ele><time>2026-04-17T17:08:59.17Z</time></trkpt><trkpt lat="46.1577245" lon="13.263848"><ele>158.5</ele><time>2026-04-17T17:09:00.17Z</time></trkpt><trkpt lat="46.1578587" lon="13.2638668"><ele>159.0</ele><time>2026-04-17T17:09:01.17Z</time></trkpt><trkpt lat="46.1579882" lon="13.2639069"><ele>159.5</ele><time>2026-04-17T17:09:02.171Z</time></trkpt><trkpt lat="46.1581104" lon="13.2639762"><ele>160.0</ele><time>2026-04-17T17:09:03.171Z</time></trkpt><trkpt lat="46.1582344" lon="13.2640394"><ele>160.75</ele><time>2026-04-17T17:09:04.17Z</time></trkpt><trkpt lat="46.1583804" lon="13.2640729"><ele>161.5</ele><time>2026-04-17T17:09:05.171Z</time></trkpt><trkpt lat="46.1585276" lon="13.2640829"><ele>162.25</ele><time>2026-04-17T17:09:06.17Z</time></trkpt><trkpt lat="46.1586627" lon="13.2640805"><ele>163.0</ele><time>2026-04-17T17:09:07.171Z</time></trkpt><trkpt lat="46.1588023" lon="13.2641022"><ele>163.0</ele><time>2026-04-17T17:09:08.171Z</time></trkpt><trkpt lat="46.1589465" lon="13.2641552"><ele>163.0</ele><time>2026-04-17T17:09:09.17Z</time></trkpt><trkpt lat="46.1591009" lon="13.2642286"><ele>163.0</ele><time>2026-04-17T17:09:10.171Z</time></trkpt><trkpt lat="46.1592612" lon="13.2642934"><ele>162.75</ele><time>2026-04-17T17:09:11.17Z</time></trkpt><trkpt lat="46.1594169" lon="13.2643375"><ele>162.5</ele><time>2026-04-17T17:09:12.171Z</time></trkpt><trkpt lat="46.1595545" lon="13.2644046"><ele>162.25</ele><time>2026-04-17T17:09:13.171Z</time></trkpt><trkpt lat="46.1596718" lon="13.2644744"><ele>162.0</ele><time>2026-04-17T17:09:14.171Z</time></trkpt><trkpt lat="46.1597742" lon="13.2645179"><ele>162.0</ele><time>2026-04-17T17:09:15.171Z</time></trkpt><trkpt lat="46.1598618" lon="13.2645193"><ele>162.0</ele><time>2026-04-17T17:09:16.171Z</time></trkpt><trkpt lat="46.159949" lon="13.2644886"><ele>162.0</ele><time>2026-04-17T17:09:17.171Z</time></trkpt><trkpt lat="46.1600345" lon="13.2644274"><ele>162.0</ele><time>2026-04-17T17:09:18.17Z</time></trkpt><trkpt lat="46.1601003" lon="13.2643779"><ele>162.0</ele><time>2026-04-17T17:09:19.171Z</time></trkpt><trkpt lat="46.1601681" lon="13.2642789"><ele>162.0</ele><time>2026-04-17T17:09:21.17Z</time></trkpt><trkpt lat="46.1601685" lon="13.2641239"><ele>162.2</ele><time>2026-04-17T17:09:23.17Z</time></trkpt><trkpt lat="46.1602023" lon="13.2639845"><ele>162.39999999999998</ele><time>2026-04-17T17:09:25.171Z</time></trkpt><trkpt lat="46.1602933" lon="13.2639228"><ele>162.60000000000002</ele><time>2026-04-17T17:09:27.17Z</time></trkpt><trkpt lat="46.160366" lon="13.2639071"><ele>162.8</ele><time>2026-04-17T17:09:28.171Z</time></trkpt><trkpt lat="46.1604632" lon="13.2639085"><ele>163.0</ele><time>2026-04-17T17:09:29.171Z</time></trkpt><trkpt lat="46.1605745" lon="13.2639089"><ele>163.0</ele><time>2026-04-17T17:09:30.17Z</time></trkpt><trkpt lat="46.1606724" lon="13.2639087"><ele>163.0</ele><time>2026-04-17T17:09:31.17Z</time></trkpt><trkpt lat="46.1607658" lon="13.2639109"><ele>163.0</ele><time>2026-04-17T17:09:32.171Z</time></trkpt><trkpt lat="46.1608662" lon="13.2639235"><ele>163.0</ele><time>2026-04-17T17:09:33.171Z</time></trkpt><trkpt lat="46.1609761" lon="13.2639456"><ele>163.0</ele><time>2026-04-17T17:09:34.17Z</time></trkpt><trkpt lat="46.1610972" lon="13.2639548"><ele>162.8</ele><time>2026-04-17T17:09:35.171Z</time></trkpt><trkpt lat="46.1612228" lon="13.2639376"><ele>162.60000000000002</ele><time>2026-04-17T17:09:36.171Z</time></trkpt><trkpt lat="46.1613371" lon="13.2639041"><ele>162.39999999999998</ele><time>2026-04-17T17:09:37.171Z</time></trkpt><trkpt lat="46.1614335" lon="13.2638832"><ele>162.2</ele><time>2026-04-17T17:09:38.17Z</time></trkpt><trkpt lat="46.1615226" lon="13.2638676"><ele>162.0</ele><time>2026-04-17T17:09:39.17Z</time></trkpt><trkpt lat="46.1616151" lon="13.2638338"><ele>162.5</ele><time>2026-04-17T17:09:40.171Z</time></trkpt><trkpt lat="46.161716" lon="13.2637771"><ele>163.0</ele><time>2026-04-17T17:09:41.171Z</time></trkpt><trkpt lat="46.1618407" lon="13.2636808"><ele>163.5</ele><time>2026-04-17T17:09:42.17Z</time></trkpt><trkpt lat="46.1619894" lon="13.2635786"><ele>164.0</ele><time>2026-04-17T17:09:43.171Z</time></trkpt><trkpt lat="46.1621309" lon="13.2634831"><ele>164.0</ele><time>2026-04-17T17:09:44.171Z</time></trkpt><trkpt lat="46.1622646" lon="13.2633935"><ele>164.0</ele><time>2026-04-17T17:09:45.171Z</time></trkpt><trkpt lat="46.1623887" lon="13.2633125"><ele>164.0</ele><time>2026-04-17T17:09:46.171Z</time></trkpt><trkpt lat="46.1625116" lon="13.2632315"><ele>164.0</ele><time>2026-04-17T17:09:47.171Z</time></trkpt><trkpt lat="46.1626548" lon="13.2631536"><ele>164.33333333333331</ele><time>2026-04-17T17:09:48.171Z</time></trkpt><trkpt lat="46.1628276" lon="13.2630714"><ele>164.66666666666666</ele><time>2026-04-17T17:09:49.17Z</time></trkpt><trkpt lat="46.1630261" lon="13.2629948"><ele>165.0</ele><time>2026-04-17T17:09:50.171Z</time></trkpt><trkpt lat="46.1632229" lon="13.2629154"><ele>165.33333333333334</ele><time>2026-04-17T17:09:51.171Z</time></trkpt><trkpt lat="46.1633947" lon="13.2628479"><ele>165.66666666666669</ele><time>2026-04-17T17:09:52.17Z</time></trkpt><trkpt lat="46.1635668" lon="13.2627715"><ele>166.0</ele><time>2026-04-17T17:09:53.171Z</time></trkpt><trkpt lat="46.1637167" lon="13.2627156"><ele>166.0</ele><time>2026-04-17T17:09:54.17Z</time></trkpt><trkpt lat="46.1638452" lon="13.2626625"><ele>166.0</ele><time>2026-04-17T17:09:55.171Z</time></trkpt><trkpt lat="46.1639667" lon="13.2626154"><ele>166.0</ele><time>2026-04-17T17:09:56.171Z</time></trkpt><trkpt lat="46.1640732" lon="13.262572"><ele>166.0</ele><time>2026-04-17T17:09:57.171Z</time></trkpt><trkpt lat="46.1641698" lon="13.2625326"><ele>166.0</ele><time>2026-04-17T17:09:58.17Z</time></trkpt><trkpt lat="46.1642594" lon="13.2624979"><ele>166.0</ele><time>2026-04-17T17:09:59.171Z</time></trkpt><trkpt lat="46.1643367" lon="13.2624663"><ele>166.0</ele><time>2026-04-17T17:10:00.171Z</time></trkpt><trkpt lat="46.1643987" lon="13.2624408"><ele>166.0</ele><time>2026-04-17T17:10:01.171Z</time></trkpt><trkpt lat="46.1644742" lon="13.2624109"><ele>166.0</ele><time>2026-04-17T17:10:03.171Z</time></trkpt><trkpt lat="46.1645277" lon="13.2622681"><ele>166.0</ele><time>2026-04-17T17:10:07.171Z</time></trkpt><trkpt lat="46.1645281" lon="13.2621613"><ele>165.75</ele><time>2026-04-17T17:10:08.17Z</time></trkpt><trkpt lat="46.1645172" lon="13.2620069"><ele>165.5</ele><time>2026-04-17T17:10:09.17Z</time></trkpt><trkpt lat="46.1644916" lon="13.2618289"><ele>165.25</ele><time>2026-04-17T17:10:10.171Z</time></trkpt><trkpt lat="46.1644623" lon="13.2616296"><ele>165.0</ele><time>2026-04-17T17:10:11.17Z</time></trkpt><trkpt lat="46.1644251" lon="13.2614144"><ele>165.0</ele><time>2026-04-17T17:10:12.17Z</time></trkpt><trkpt lat="46.1643829" lon="13.2611745"><ele>165.0</ele><time>2026-04-17T17:10:13.17Z</time></trkpt><trkpt lat="46.1643473" lon="13.2609034"><ele>165.0</ele><time>2026-04-17T17:10:14.171Z</time></trkpt><trkpt lat="46.1643073" lon="13.2606079"><ele>165.66666666666666</ele><time>2026-04-17T17:10:15.17Z</time></trkpt><trkpt lat="46.1642605" lon="13.26029"><ele>166.33333333333331</ele><time>2026-04-17T17:10:16.171Z</time></trkpt><trkpt lat="46.1642159" lon="13.2599762"><ele>167.0</ele><time>2026-04-17T17:10:17.17Z</time></trkpt><trkpt lat="46.1641859" lon="13.2596808"><ele>166.66666666666666</ele><time>2026-04-17T17:10:18.171Z</time></trkpt><trkpt lat="46.1641531" lon="13.2593843"><ele>166.33333333333334</ele><time>2026-04-17T17:10:19.171Z</time></trkpt><trkpt lat="46.1641073" lon="13.2590934"><ele>166.0</ele><time>2026-04-17T17:10:20.171Z</time></trkpt><trkpt lat="46.1640588" lon="13.2588109"><ele>165.66666666666669</ele><time>2026-04-17T17:10:21.171Z</time></trkpt><trkpt lat="46.1640133" lon="13.2585294"><ele>165.33333333333334</ele><time>2026-04-17T17:10:22.171Z</time></trkpt><trkpt lat="46.163979" lon="13.2582712"><ele>165.0</ele><time>2026-04-17T17:10:23.17Z</time></trkpt><trkpt lat="46.1639431" lon="13.2580355"><ele>165.0</ele><time>2026-04-17T17:10:24.171Z</time></trkpt><trkpt lat="46.1639098" lon="13.257813"><ele>165.0</ele><time>2026-04-17T17:10:25.171Z</time></trkpt><trkpt lat="46.1638786" lon="13.2576075"><ele>165.0</ele><time>2026-04-17T17:10:26.171Z</time></trkpt><trkpt lat="46.163854" lon="13.2574147"><ele>165.0</ele><time>2026-04-17T17:10:27.17Z</time></trkpt><trkpt lat="46.1638266" lon="13.2572292"><ele>165.2</ele><time>2026-04-17T17:10:28.171Z</time></trkpt><trkpt lat="46.1637998" lon="13.2570533"><ele>165.4</ele><time>2026-04-17T17:10:29.171Z</time></trkpt><trkpt lat="46.1637811" lon="13.2569041"><ele>165.60000000000002</ele><time>2026-04-17T17:10:30.17Z</time></trkpt><trkpt lat="46.1637671" lon="13.2567819"><ele>165.8</ele><time>2026-04-17T17:10:31.171Z</time></trkpt><trkpt lat="46.1637672" lon="13.2566894"><ele>166.0</ele><time>2026-04-17T17:10:32.17Z</time></trkpt><trkpt lat="46.1638672" lon="13.2565506"><ele>166.0</ele><time>2026-04-17T17:10:34.17Z</time></trkpt><trkpt lat="46.1639614" lon="13.2565083"><ele>166.0</ele><time>2026-04-17T17:10:35.171Z</time></trkpt><trkpt lat="46.1640766" lon="13.2564745"><ele>166.0</ele><time>2026-04-17T17:10:36.171Z</time></trkpt><trkpt lat="46.1641944" lon="13.2564166"><ele>166.0</ele><time>2026-04-17T17:10:37.171Z</time></trkpt><trkpt lat="46.1643028" lon="13.2563319"><ele>166.5</ele><time>2026-04-17T17:10:38.17Z</time></trkpt><trkpt lat="46.1644021" lon="13.2562293"><ele>167.0</ele><time>2026-04-17T17:10:39.171Z</time></trkpt><trkpt lat="46.1644915" lon="13.2560898"><ele>167.5</ele><time>2026-04-17T17:10:40.171Z</time></trkpt><trkpt lat="46.164565" lon="13.2559384"><ele>168.0</ele><time>2026-04-17T17:10:41.17Z</time></trkpt><trkpt lat="46.1646156" lon="13.2557728"><ele>168.0</ele><time>2026-04-17T17:10:42.17Z</time></trkpt><trkpt lat="46.1646677" lon="13.2556238"><ele>168.0</ele><time>2026-04-17T17:10:43.171Z</time></trkpt><trkpt lat="46.1647177" lon="13.2554902"><ele>168.0</ele><time>2026-04-17T17:10:44.171Z</time></trkpt><trkpt lat="46.1647624" lon="13.2553697"><ele>168.0</ele><time>2026-04-17T17:10:45.171Z</time></trkpt><trkpt lat="46.1647972" lon="13.2552477"><ele>168.0</ele><time>2026-04-17T17:10:46.171Z</time></trkpt><trkpt lat="46.1648172" lon="13.2551195"><ele>168.0</ele><time>2026-04-17T17:10:47.171Z</time></trkpt><trkpt lat="46.1648244" lon="13.2549806"><ele>168.0</ele><time>2026-04-17T17:10:48.171Z</time></trkpt><trkpt lat="46.1648198" lon="13.2548397"><ele>168.0</ele><time>2026-04-17T17:10:49.171Z</time></trkpt><trkpt lat="46.1648164" lon="13.2547019"><ele>168.0</ele><time>2026-04-17T17:10:50.17Z</time></trkpt><trkpt lat="46.1648085" lon="13.2545573"><ele>168.0</ele><time>2026-04-17T17:10:51.17Z</time></trkpt><trkpt lat="46.1647952" lon="13.2544145"><ele>168.0</ele><time>2026-04-17T17:10:52.171Z</time></trkpt><trkpt lat="46.1647679" lon="13.2542912"><ele>168.0</ele><time>2026-04-17T17:10:53.17Z</time></trkpt><trkpt lat="46.1647569" lon="13.2541672"><ele>168.0</ele><time>2026-04-17T17:10:54.171Z</time></trkpt><trkpt lat="46.1647776" lon="13.2540677"><ele>168.0</ele><time>2026-04-17T17:10:55.17Z</time></trkpt><trkpt lat="46.1647881" lon="13.2539571"><ele>168.0</ele><time>2026-04-17T17:10:56.171Z</time></trkpt><trkpt lat="46.1648009" lon="13.2538363"><ele>168.0</ele><time>2026-04-17T17:10:57.171Z</time></trkpt><trkpt lat="46.1648212" lon="13.2537021"><ele>168.0</ele><time>2026-04-17T17:10:58.171Z</time></trkpt><trkpt lat="46.164828" lon="13.2535953"><ele>168.0</ele><time>2026-04-17T17:10:59.171Z</time></trkpt><trkpt lat="46.1648341" lon="13.2534991"><ele>168.0</ele><time>2026-04-17T17:11:00.171Z</time></trkpt><trkpt lat="46.1648457" lon="13.253344"><ele>168.0</ele><time>2026-04-17T17:11:02.171Z</time></trkpt><trkpt lat="46.1648504" lon="13.2531864"><ele>168.0</ele><time>2026-04-17T17:11:04.171Z</time></trkpt><trkpt lat="46.16485" lon="13.2530731"><ele>168.0</ele><time>2026-04-17T17:11:06.171Z</time></trkpt><trkpt lat="46.1648536" lon="13.252946"><ele>168.0</ele><time>2026-04-17T17:11:12.171Z</time></trkpt><trkpt lat="46.1648495" lon="13.252835"><ele>168.0</ele><time>2026-04-17T17:11:13.17Z</time></trkpt><trkpt lat="46.1648403" lon="13.2526812"><ele>168.0</ele><time>2026-04-17T17:11:14.17Z</time></trkpt><trkpt lat="46.1648369" lon="13.2525232"><ele>168.0</ele><time>2026-04-17T17:11:15.171Z</time></trkpt><trkpt lat="46.1648412" lon="13.2523836"><ele>168.0</ele><time>2026-04-17T17:11:16.171Z</time></trkpt><trkpt lat="46.1648518" lon="13.2522521"><ele>167.60000000000002</ele><time>2026-04-17T17:11:17.17Z</time></trkpt><trkpt lat="46.1648571" lon="13.2521191"><ele>167.20000000000002</ele><time>2026-04-17T17:11:18.17Z</time></trkpt><trkpt lat="46.1648623" lon="13.2519879"><ele>166.8</ele><time>2026-04-17T17:11:19.171Z</time></trkpt><trkpt lat="46.1648618" lon="13.2518496"><ele>166.4</ele><time>2026-04-17T17:11:20.171Z</time></trkpt><trkpt lat="46.1648547" lon="13.2517012"><ele>166.0</ele><time>2026-04-17T17:11:21.171Z</time></trkpt><trkpt lat="46.164842" lon="13.2515489"><ele>165.8</ele><time>2026-04-17T17:11:22.171Z</time></trkpt><trkpt lat="46.1648313" lon="13.2513993"><ele>165.60000000000002</ele><time>2026-04-17T17:11:23.17Z</time></trkpt><trkpt lat="46.1648146" lon="13.2512433"><ele>165.4</ele><time>2026-04-17T17:11:24.171Z</time></trkpt><trkpt lat="46.1648047" lon="13.2510767"><ele>165.2</ele><time>2026-04-17T17:11:25.171Z</time></trkpt><trkpt lat="46.164795" lon="13.2509153"><ele>165.0</ele><time>2026-04-17T17:11:26.171Z</time></trkpt><trkpt lat="46.1647672" lon="13.2507548"><ele>165.5</ele><time>2026-04-17T17:11:27.171Z</time></trkpt><trkpt lat="46.1647304" lon="13.2505964"><ele>166.0</ele><time>2026-04-17T17:11:28.171Z</time></trkpt><trkpt lat="46.1646793" lon="13.2504371"><ele>166.5</ele><time>2026-04-17T17:11:29.171Z</time></trkpt><trkpt lat="46.1646175" lon="13.2502951"><ele>167.0</ele><time>2026-04-17T17:11:30.17Z</time></trkpt><trkpt lat="46.1645634" lon="13.2501442"><ele>167.0</ele><time>2026-04-17T17:11:31.171Z</time></trkpt><trkpt lat="46.164504" lon="13.2499858"><ele>167.0</ele><time>2026-04-17T17:11:32.171Z</time></trkpt><trkpt lat="46.1644552" lon="13.2498411"><ele>167.0</ele><time>2026-04-17T17:11:33.17Z</time></trkpt><trkpt lat="46.1644035" lon="13.249686"><ele>167.0</ele><time>2026-04-17T17:11:34.171Z</time></trkpt><trkpt lat="46.1643465" lon="13.2495224"><ele>167.5</ele><time>2026-04-17T17:11:35.171Z</time></trkpt><trkpt lat="46.1642828" lon="13.2493703"><ele>168.0</ele><time>2026-04-17T17:11:36.171Z</time></trkpt><trkpt lat="46.1642288" lon="13.2492184"><ele>168.5</ele><time>2026-04-17T17:11:37.171Z</time></trkpt><trkpt lat="46.1641726" lon="13.2490645"><ele>169.0</ele><time>2026-04-17T17:11:38.17Z</time></trkpt><trkpt lat="46.1641126" lon="13.2489116"><ele>169.25</ele><time>2026-04-17T17:11:39.171Z</time></trkpt><trkpt lat="46.1640556" lon="13.2487493"><ele>169.5</ele><time>2026-04-17T17:11:40.171Z</time></trkpt><trkpt lat="46.1639915" lon="13.2485848"><ele>169.75</ele><time>2026-04-17T17:11:41.171Z</time></trkpt><trkpt lat="46.1639266" lon="13.2484227"><ele>170.0</ele><time>2026-04-17T17:11:42.171Z</time></trkpt><trkpt lat="46.16386" lon="13.2482662"><ele>170.0</ele><time>2026-04-17T17:11:43.171Z</time></trkpt><trkpt lat="46.1637948" lon="13.2480944"><ele>170.0</ele><time>2026-04-17T17:11:44.171Z</time></trkpt><trkpt lat="46.1637316" lon="13.2479298"><ele>170.0</ele><time>2026-04-17T17:11:45.171Z</time></trkpt><trkpt lat="46.1636681" lon="13.2477658"><ele>170.0</ele><time>2026-04-17T17:11:46.171Z</time></trkpt><trkpt lat="46.1636045" lon="13.2476001"><ele>170.0</ele><time>2026-04-17T17:11:47.171Z</time></trkpt><trkpt lat="46.1635414" lon="13.2474287"><ele>170.0</ele><time>2026-04-17T17:11:48.17Z</time></trkpt><trkpt lat="46.1634704" lon="13.2472469"><ele>170.0</ele><time>2026-04-17T17:11:49.171Z</time></trkpt><trkpt lat="46.1633987" lon="13.2470774"><ele>170.0</ele><time>2026-04-17T17:11:50.17Z</time></trkpt><trkpt lat="46.1633362" lon="13.2469191"><ele>170.4</ele><time>2026-04-17T17:11:51.171Z</time></trkpt><trkpt lat="46.1632907" lon="13.2467658"><ele>170.8</ele><time>2026-04-17T17:11:52.171Z</time></trkpt><trkpt lat="46.1632651" lon="13.2466206"><ele>171.2</ele><time>2026-04-17T17:11:53.171Z</time></trkpt><trkpt lat="46.1632592" lon="13.2464899"><ele>171.6</ele><time>2026-04-17T17:11:54.17Z</time></trkpt><trkpt lat="46.1632556" lon="13.2463538"><ele>172.0</ele><time>2026-04-17T17:11:55.171Z</time></trkpt><trkpt lat="46.163256" lon="13.2462042"><ele>172.0</ele><time>2026-04-17T17:11:56.171Z</time></trkpt><trkpt lat="46.1632624" lon="13.2460486"><ele>172.0</ele><time>2026-04-17T17:11:57.171Z</time></trkpt><trkpt lat="46.1632694" lon="13.2458765"><ele>172.0</ele><time>2026-04-17T17:11:58.171Z</time></trkpt><trkpt lat="46.1632776" lon="13.2456875"><ele>172.0</ele><time>2026-04-17T17:11:59.17Z</time></trkpt><trkpt lat="46.1632779" lon="13.2454984"><ele>172.0</ele><time>2026-04-17T17:12:00.171Z</time></trkpt><trkpt lat="46.1632888" lon="13.2453069"><ele>172.0</ele><time>2026-04-17T17:12:01.17Z</time></trkpt><trkpt lat="46.1632993" lon="13.2451119"><ele>172.0</ele><time>2026-04-17T17:12:02.171Z</time></trkpt><trkpt lat="46.1632982" lon="13.2449452"><ele>172.0</ele><time>2026-04-17T17:12:03.171Z</time></trkpt><trkpt lat="46.1633" lon="13.2447864"><ele>171.83333333333334</ele><time>2026-04-17T17:12:04.171Z</time></trkpt><trkpt lat="46.1633054" lon="13.2446472"><ele>171.66666666666669</ele><time>2026-04-17T17:12:05.171Z</time></trkpt><trkpt lat="46.1633045" lon="13.2445183"><ele>171.5</ele><time>2026-04-17T17:12:06.171Z</time></trkpt><trkpt lat="46.1632954" lon="13.244411"><ele>171.33333333333334</ele><time>2026-04-17T17:12:07.17Z</time></trkpt><trkpt lat="46.1632902" lon="13.2443191"><ele>171.16666666666666</ele><time>2026-04-17T17:12:08.17Z</time></trkpt><trkpt lat="46.1633061" lon="13.2441675"><ele>171.0</ele><time>2026-04-17T17:12:10.171Z</time></trkpt><trkpt lat="46.1633461" lon="13.2440823"><ele>171.0</ele><time>2026-04-17T17:12:13.171Z</time></trkpt><trkpt lat="46.1634342" lon="13.2440641"><ele>171.0</ele><time>2026-04-17T17:12:15.17Z</time></trkpt><trkpt lat="46.1635248" lon="13.2440631"><ele>171.0</ele><time>2026-04-17T17:12:16.171Z</time></trkpt><trkpt lat="46.1636501" lon="13.2440661"><ele>171.0</ele><time>2026-04-17T17:12:17.171Z</time></trkpt><trkpt lat="46.1638291" lon="13.2440717"><ele>171.0</ele><time>2026-04-17T17:12:18.171Z</time></trkpt><trkpt lat="46.164041" lon="13.2440476"><ele>171.0</ele><time>2026-04-17T17:12:19.17Z</time></trkpt><trkpt lat="46.1642642" lon="13.2440153"><ele>171.0</ele><time>2026-04-17T17:12:20.171Z</time></trkpt><trkpt lat="46.1644826" lon="13.2439865"><ele>171.33333333333334</ele><time>2026-04-17T17:12:21.171Z</time></trkpt><trkpt lat="46.1646985" lon="13.2439522"><ele>171.66666666666669</ele><time>2026-04-17T17:12:22.171Z</time></trkpt><trkpt lat="46.1649123" lon="13.2439316"><ele>172.0</ele><time>2026-04-17T17:12:23.171Z</time></trkpt><trkpt lat="46.1651232" lon="13.243905"><ele>172.33333333333334</ele><time>2026-04-17T17:12:24.17Z</time></trkpt><trkpt lat="46.1653401" lon="13.2438728"><ele>172.66666666666666</ele><time>2026-04-17T17:12:25.171Z</time></trkpt><trkpt lat="46.1655486" lon="13.2438494"><ele>173.0</ele><time>2026-04-17T17:12:26.171Z</time></trkpt><trkpt lat="46.1657579" lon="13.2438211"><ele>173.33333333333331</ele><time>2026-04-17T17:12:27.171Z</time></trkpt><trkpt lat="46.1659581" lon="13.2438011"><ele>173.66666666666666</ele><time>2026-04-17T17:12:28.171Z</time></trkpt><trkpt lat="46.166162" lon="13.2437807"><ele>174.0</ele><time>2026-04-17T17:12:29.171Z</time></trkpt><trkpt lat="46.166371" lon="13.2437564"><ele>173.33333333333334</ele><time>2026-04-17T17:12:30.171Z</time></trkpt><trkpt lat="46.1665794" lon="13.2437244"><ele>172.66666666666669</ele><time>2026-04-17T17:12:31.171Z</time></trkpt><trkpt lat="46.1667832" lon="13.243704"><ele>172.0</ele><time>2026-04-17T17:12:32.171Z</time></trkpt><trkpt lat="46.1669937" lon="13.2436846"><ele>172.0</ele><time>2026-04-17T17:12:33.171Z</time></trkpt><trkpt lat="46.1671968" lon="13.2436584"><ele>172.0</ele><time>2026-04-17T17:12:34.171Z</time></trkpt><trkpt lat="46.167406" lon="13.243636"><ele>172.0</ele><time>2026-04-17T17:12:35.171Z</time></trkpt><trkpt lat="46.1676074" lon="13.2436157"><ele>172.33333333333334</ele><time>2026-04-17T17:12:36.17Z</time></trkpt><trkpt lat="46.1678133" lon="13.2435899"><ele>172.66666666666666</ele><time>2026-04-17T17:12:37.171Z</time></trkpt><trkpt lat="46.1680267" lon="13.2435663"><ele>173.0</ele><time>2026-04-17T17:12:38.171Z</time></trkpt><trkpt lat="46.1682359" lon="13.243542"><ele>173.0</ele><time>2026-04-17T17:12:39.171Z</time></trkpt><trkpt lat="46.1684401" lon="13.2435116"><ele>173.0</ele><time>2026-04-17T17:12:40.17Z</time></trkpt><trkpt lat="46.1686465" lon="13.2434815"><ele>173.0</ele><time>2026-04-17T17:12:41.17Z</time></trkpt><trkpt lat="46.168855" lon="13.2434508"><ele>173.33333333333331</ele><time>2026-04-17T17:12:42.171Z</time></trkpt><trkpt lat="46.169065" lon="13.2434277"><ele>173.66666666666666</ele><time>2026-04-17T17:12:43.171Z</time></trkpt><trkpt lat="46.1692771" lon="13.2434127"><ele>174.0</ele><time>2026-04-17T17:12:44.17Z</time></trkpt><trkpt lat="46.1694966" lon="13.243392"><ele>174.0</ele><time>2026-04-17T17:12:45.171Z</time></trkpt><trkpt lat="46.1697179" lon="13.2433649"><ele>174.0</ele><time>2026-04-17T17:12:46.171Z</time></trkpt><trkpt lat="46.1699343" lon="13.2433302"><ele>174.0</ele><time>2026-04-17T17:12:47.171Z</time></trkpt><trkpt lat="46.1701513" lon="13.2432994"><ele>173.0</ele><time>2026-04-17T17:12:48.17Z</time></trkpt><trkpt lat="46.170381" lon="13.2432729"><ele>172.0</ele><time>2026-04-17T17:12:49.17Z</time></trkpt><trkpt lat="46.1706142" lon="13.2432379"><ele>172.66666666666669</ele><time>2026-04-17T17:12:50.17Z</time></trkpt><trkpt lat="46.1708394" lon="13.2432116"><ele>173.33333333333334</ele><time>2026-04-17T17:12:51.171Z</time></trkpt><trkpt lat="46.1710612" lon="13.2431837"><ele>174.0</ele><time>2026-04-17T17:12:52.17Z</time></trkpt><trkpt lat="46.1712721" lon="13.2431614"><ele>174.0</ele><time>2026-04-17T17:12:53.171Z</time></trkpt><trkpt lat="46.1714674" lon="13.2431372"><ele>174.0</ele><time>2026-04-17T17:12:54.17Z</time></trkpt><trkpt lat="46.1716419" lon="13.2431105"><ele>174.0</ele><time>2026-04-17T17:12:55.17Z</time></trkpt><trkpt lat="46.1718033" lon="13.2430898"><ele>174.75</ele><time>2026-04-17T17:12:56.171Z</time></trkpt><trkpt lat="46.1719477" lon="13.2430651"><ele>175.5</ele><time>2026-04-17T17:12:57.171Z</time></trkpt><trkpt lat="46.1720713" lon="13.2430423"><ele>176.25</ele><time>2026-04-17T17:12:58.171Z</time></trkpt><trkpt lat="46.1721771" lon="13.2430155"><ele>177.0</ele><time>2026-04-17T17:12:59.171Z</time></trkpt><trkpt lat="46.1722565" lon="13.242966"><ele>177.0</ele><time>2026-04-17T17:13:00.171Z</time></trkpt><trkpt lat="46.1723145" lon="13.2428836"><ele>177.0</ele><time>2026-04-17T17:13:01.17Z</time></trkpt><trkpt lat="46.1723469" lon="13.2427705"><ele>177.0</ele><time>2026-04-17T17:13:02.171Z</time></trkpt><trkpt lat="46.1723577" lon="13.2426094"><ele>177.0</ele><time>2026-04-17T17:13:03.171Z</time></trkpt><trkpt lat="46.172351" lon="13.2424204"><ele>177.0</ele><time>2026-04-17T17:13:04.171Z</time></trkpt><trkpt lat="46.1723654" lon="13.2422473"><ele>182.0</ele><time>2026-04-17T17:13:05.171Z</time></trkpt><trkpt lat="46.1723848" lon="13.2421026"><ele>182.0</ele><time>2026-04-17T17:13:06.17Z</time></trkpt><trkpt lat="46.1723878" lon="13.2419993"><ele>182.0</ele><time>2026-04-17T17:13:07.17Z</time></trkpt><trkpt lat="46.172367" lon="13.2418554"><ele>182.0</ele><time>2026-04-17T17:13:09.17Z</time></trkpt><trkpt lat="46.1723084" lon="13.2417859"><ele>179.0</ele><time>2026-04-17T17:13:11.17Z</time></trkpt><trkpt lat="46.1722282" lon="13.2417673"><ele>179.0</ele><time>2026-04-17T17:13:14.169Z</time></trkpt></trkseg></trk></gpx>